<?xml version="1.0" encoding="UTF-8" standalone="no" ?>
<gpx xmlns="http://www.topografix.com/GPX/1/1" xmlns:xsi="http://www.w3.org/2001/XMLSchema-instance" xsi:schemaLocation="http://www.topografix.com/GPX/1/1 http://www.topografix.com/GPX/1/1/gpx.xsd" version="1.1" creator="VisuGPX - https://www.visugpx.com">
  <metadata>
    <name>Anla-Balès</name>
    <desc><![CDATA[Circuit pour test de fichier compatible Tacx TTS4, Montagne]]></desc>
  </metadata>
  <trk>
    <name><![CDATA[Cycling]]></name>
    <trkseg>
      <trkpt lat="42.99636" lon="0.57575">
        <ele>496.1</ele>
        <time>2017-07-13T04:58:24Z</time>
      </trkpt>
      <trkpt lat="42.99632" lon="0.57571">
        <ele>496.4</ele>
        <time>2017-07-13T04:58:25Z</time>
      </trkpt>
      <trkpt lat="42.99629" lon="0.57568">
        <ele>496.7</ele>
        <time>2017-07-13T04:58:26Z</time>
      </trkpt>
      <trkpt lat="42.99626" lon="0.57564">
        <ele>497</ele>
        <time>2017-07-13T04:58:27Z</time>
      </trkpt>
      <trkpt lat="42.99623" lon="0.5756">
        <ele>497.3</ele>
        <time>2017-07-13T04:58:28Z</time>
      </trkpt>
      <trkpt lat="42.9962" lon="0.57557">
        <ele>497.5</ele>
        <time>2017-07-13T04:58:29Z</time>
      </trkpt>
      <trkpt lat="42.99616" lon="0.57553">
        <ele>497.7</ele>
        <time>2017-07-13T04:58:30Z</time>
      </trkpt>
      <trkpt lat="42.99613" lon="0.57549">
        <ele>497.9</ele>
        <time>2017-07-13T04:58:31Z</time>
      </trkpt>
      <trkpt lat="42.9961" lon="0.57546">
        <ele>498</ele>
        <time>2017-07-13T04:58:32Z</time>
      </trkpt>
      <trkpt lat="42.99607" lon="0.57542">
        <ele>498.2</ele>
        <time>2017-07-13T04:58:33Z</time>
      </trkpt>
      <trkpt lat="42.99604" lon="0.57539">
        <ele>498.3</ele>
        <time>2017-07-13T04:58:34Z</time>
      </trkpt>
      <trkpt lat="42.99601" lon="0.57535">
        <ele>498.4</ele>
        <time>2017-07-13T04:58:35Z</time>
      </trkpt>
      <trkpt lat="42.99598" lon="0.57532">
        <ele>498.4</ele>
        <time>2017-07-13T04:58:36Z</time>
      </trkpt>
      <trkpt lat="42.99595" lon="0.57528">
        <ele>498.5</ele>
        <time>2017-07-13T04:58:37Z</time>
      </trkpt>
      <trkpt lat="42.99592" lon="0.57525">
        <ele>498.5</ele>
        <time>2017-07-13T04:58:38Z</time>
      </trkpt>
      <trkpt lat="42.99589" lon="0.57521">
        <ele>498.5</ele>
        <time>2017-07-13T04:58:39Z</time>
      </trkpt>
      <trkpt lat="42.99586" lon="0.57518">
        <ele>498.5</ele>
        <time>2017-07-13T04:58:40Z</time>
      </trkpt>
      <trkpt lat="42.99582" lon="0.57514">
        <ele>498.5</ele>
        <time>2017-07-13T04:58:41Z</time>
      </trkpt>
      <trkpt lat="42.99579" lon="0.57511">
        <ele>498.5</ele>
        <time>2017-07-13T04:58:42Z</time>
      </trkpt>
      <trkpt lat="42.99576" lon="0.57507">
        <ele>498.5</ele>
        <time>2017-07-13T04:58:43Z</time>
      </trkpt>
      <trkpt lat="42.99573" lon="0.57503">
        <ele>498.5</ele>
        <time>2017-07-13T04:58:44Z</time>
      </trkpt>
      <trkpt lat="42.9957" lon="0.575">
        <ele>498.6</ele>
        <time>2017-07-13T04:58:45Z</time>
      </trkpt>
      <trkpt lat="42.99567" lon="0.57496">
        <ele>498.8</ele>
        <time>2017-07-13T04:58:46Z</time>
      </trkpt>
      <trkpt lat="42.99564" lon="0.57493">
        <ele>499</ele>
        <time>2017-07-13T04:58:47Z</time>
      </trkpt>
      <trkpt lat="42.99561" lon="0.57489">
        <ele>499.2</ele>
        <time>2017-07-13T04:58:48Z</time>
      </trkpt>
      <trkpt lat="42.99558" lon="0.57485">
        <ele>499.4</ele>
        <time>2017-07-13T04:58:49Z</time>
      </trkpt>
      <trkpt lat="42.99555" lon="0.57481">
        <ele>499.6</ele>
        <time>2017-07-13T04:58:50Z</time>
      </trkpt>
      <trkpt lat="42.99552" lon="0.57478">
        <ele>499.8</ele>
        <time>2017-07-13T04:58:51Z</time>
      </trkpt>
      <trkpt lat="42.99549" lon="0.57474">
        <ele>499.9</ele>
        <time>2017-07-13T04:58:52Z</time>
      </trkpt>
      <trkpt lat="42.99546" lon="0.5747">
        <ele>500.1</ele>
        <time>2017-07-13T04:58:53Z</time>
      </trkpt>
      <trkpt lat="42.99542" lon="0.57466">
        <ele>500.2</ele>
        <time>2017-07-13T04:58:54Z</time>
      </trkpt>
      <trkpt lat="42.99539" lon="0.57462">
        <ele>500.3</ele>
        <time>2017-07-13T04:58:55Z</time>
      </trkpt>
      <trkpt lat="42.99536" lon="0.57459">
        <ele>500.3</ele>
        <time>2017-07-13T04:58:56Z</time>
      </trkpt>
      <trkpt lat="42.99533" lon="0.57455">
        <ele>500.4</ele>
        <time>2017-07-13T04:58:57Z</time>
      </trkpt>
      <trkpt lat="42.9953" lon="0.57452">
        <ele>500.4</ele>
        <time>2017-07-13T04:58:58Z</time>
      </trkpt>
      <trkpt lat="42.99527" lon="0.57448">
        <ele>500.4</ele>
        <time>2017-07-13T04:58:59Z</time>
      </trkpt>
      <trkpt lat="42.99523" lon="0.57445">
        <ele>500.4</ele>
        <time>2017-07-13T04:59:00Z</time>
      </trkpt>
      <trkpt lat="42.9952" lon="0.57442">
        <ele>500.4</ele>
        <time>2017-07-13T04:59:01Z</time>
      </trkpt>
      <trkpt lat="42.99517" lon="0.57438">
        <ele>500.3</ele>
        <time>2017-07-13T04:59:02Z</time>
      </trkpt>
      <trkpt lat="42.99513" lon="0.57435">
        <ele>500.2</ele>
        <time>2017-07-13T04:59:03Z</time>
      </trkpt>
      <trkpt lat="42.9951" lon="0.57433">
        <ele>500.1</ele>
        <time>2017-07-13T04:59:04Z</time>
      </trkpt>
      <trkpt lat="42.99506" lon="0.5743">
        <ele>499.9</ele>
        <time>2017-07-13T04:59:05Z</time>
      </trkpt>
      <trkpt lat="42.99503" lon="0.57427">
        <ele>499.7</ele>
        <time>2017-07-13T04:59:06Z</time>
      </trkpt>
      <trkpt lat="42.99499" lon="0.57425">
        <ele>499.6</ele>
        <time>2017-07-13T04:59:07Z</time>
      </trkpt>
      <trkpt lat="42.99495" lon="0.57422">
        <ele>499.8</ele>
        <time>2017-07-13T04:59:08Z</time>
      </trkpt>
      <trkpt lat="42.99492" lon="0.5742">
        <ele>500</ele>
        <time>2017-07-13T04:59:09Z</time>
      </trkpt>
      <trkpt lat="42.99488" lon="0.57418">
        <ele>500.1</ele>
        <time>2017-07-13T04:59:10Z</time>
      </trkpt>
      <trkpt lat="42.99484" lon="0.57415">
        <ele>500.4</ele>
        <time>2017-07-13T04:59:11Z</time>
      </trkpt>
      <trkpt lat="42.9948" lon="0.57413">
        <ele>500.7</ele>
        <time>2017-07-13T04:59:12Z</time>
      </trkpt>
      <trkpt lat="42.99477" lon="0.57411">
        <ele>501</ele>
        <time>2017-07-13T04:59:13Z</time>
      </trkpt>
      <trkpt lat="42.99473" lon="0.57409">
        <ele>501.3</ele>
        <time>2017-07-13T04:59:14Z</time>
      </trkpt>
      <trkpt lat="42.99469" lon="0.57407">
        <ele>501.6</ele>
        <time>2017-07-13T04:59:15Z</time>
      </trkpt>
      <trkpt lat="42.99465" lon="0.57405">
        <ele>501.8</ele>
        <time>2017-07-13T04:59:16Z</time>
      </trkpt>
      <trkpt lat="42.99462" lon="0.57403">
        <ele>502</ele>
        <time>2017-07-13T04:59:17Z</time>
      </trkpt>
      <trkpt lat="42.99458" lon="0.574">
        <ele>502.3</ele>
        <time>2017-07-13T04:59:18Z</time>
      </trkpt>
      <trkpt lat="42.99455" lon="0.57398">
        <ele>502.4</ele>
        <time>2017-07-13T04:59:19Z</time>
      </trkpt>
      <trkpt lat="42.99451" lon="0.57396">
        <ele>502.6</ele>
        <time>2017-07-13T04:59:20Z</time>
      </trkpt>
      <trkpt lat="42.99447" lon="0.57394">
        <ele>502.8</ele>
        <time>2017-07-13T04:59:21Z</time>
      </trkpt>
      <trkpt lat="42.99444" lon="0.57392">
        <ele>502.9</ele>
        <time>2017-07-13T04:59:22Z</time>
      </trkpt>
      <trkpt lat="42.9944" lon="0.5739">
        <ele>503</ele>
        <time>2017-07-13T04:59:23Z</time>
      </trkpt>
      <trkpt lat="42.99437" lon="0.57388">
        <ele>503.2</ele>
        <time>2017-07-13T04:59:24Z</time>
      </trkpt>
      <trkpt lat="42.99433" lon="0.57386">
        <ele>503.2</ele>
        <time>2017-07-13T04:59:25Z</time>
      </trkpt>
      <trkpt lat="42.99429" lon="0.57384">
        <ele>503.3</ele>
        <time>2017-07-13T04:59:26Z</time>
      </trkpt>
      <trkpt lat="42.99426" lon="0.57382">
        <ele>503.4</ele>
        <time>2017-07-13T04:59:27Z</time>
      </trkpt>
      <trkpt lat="42.99422" lon="0.57379">
        <ele>503.4</ele>
        <time>2017-07-13T04:59:28Z</time>
      </trkpt>
      <trkpt lat="42.99419" lon="0.57377">
        <ele>503.4</ele>
        <time>2017-07-13T04:59:29Z</time>
      </trkpt>
      <trkpt lat="42.99415" lon="0.57375">
        <ele>503.5</ele>
        <time>2017-07-13T04:59:30Z</time>
      </trkpt>
      <trkpt lat="42.99411" lon="0.57373">
        <ele>503.5</ele>
        <time>2017-07-13T04:59:31Z</time>
      </trkpt>
      <trkpt lat="42.99408" lon="0.57371">
        <ele>503.6</ele>
        <time>2017-07-13T04:59:32Z</time>
      </trkpt>
      <trkpt lat="42.99404" lon="0.57369">
        <ele>503.6</ele>
        <time>2017-07-13T04:59:33Z</time>
      </trkpt>
      <trkpt lat="42.994" lon="0.57366">
        <ele>503.7</ele>
        <time>2017-07-13T04:59:34Z</time>
      </trkpt>
      <trkpt lat="42.99397" lon="0.57364">
        <ele>503.8</ele>
        <time>2017-07-13T04:59:35Z</time>
      </trkpt>
      <trkpt lat="42.99393" lon="0.57362">
        <ele>503.8</ele>
        <time>2017-07-13T04:59:36Z</time>
      </trkpt>
      <trkpt lat="42.99389" lon="0.5736">
        <ele>503.9</ele>
        <time>2017-07-13T04:59:37Z</time>
      </trkpt>
      <trkpt lat="42.99385" lon="0.57357">
        <ele>503.9</ele>
        <time>2017-07-13T04:59:38Z</time>
      </trkpt>
      <trkpt lat="42.99382" lon="0.57355">
        <ele>504</ele>
        <time>2017-07-13T04:59:39Z</time>
      </trkpt>
      <trkpt lat="42.99378" lon="0.57353">
        <ele>504</ele>
        <time>2017-07-13T04:59:40Z</time>
      </trkpt>
      <trkpt lat="42.99374" lon="0.5735">
        <ele>504.1</ele>
        <time>2017-07-13T04:59:41Z</time>
      </trkpt>
      <trkpt lat="42.9937" lon="0.57348">
        <ele>504.1</ele>
        <time>2017-07-13T04:59:42Z</time>
      </trkpt>
      <trkpt lat="42.99367" lon="0.57346">
        <ele>504.1</ele>
        <time>2017-07-13T04:59:43Z</time>
      </trkpt>
      <trkpt lat="42.99363" lon="0.57343">
        <ele>504.2</ele>
        <time>2017-07-13T04:59:44Z</time>
      </trkpt>
      <trkpt lat="42.99359" lon="0.57341">
        <ele>504.2</ele>
        <time>2017-07-13T04:59:45Z</time>
      </trkpt>
      <trkpt lat="42.99355" lon="0.57339">
        <ele>504.2</ele>
        <time>2017-07-13T04:59:46Z</time>
      </trkpt>
      <trkpt lat="42.99351" lon="0.57337">
        <ele>504.2</ele>
        <time>2017-07-13T04:59:47Z</time>
      </trkpt>
      <trkpt lat="42.99347" lon="0.57335">
        <ele>504.2</ele>
        <time>2017-07-13T04:59:48Z</time>
      </trkpt>
      <trkpt lat="42.99343" lon="0.57334">
        <ele>504.2</ele>
        <time>2017-07-13T04:59:49Z</time>
      </trkpt>
      <trkpt lat="42.99339" lon="0.57333">
        <ele>504.2</ele>
        <time>2017-07-13T04:59:50Z</time>
      </trkpt>
      <trkpt lat="42.99335" lon="0.57332">
        <ele>504.3</ele>
        <time>2017-07-13T04:59:51Z</time>
      </trkpt>
      <trkpt lat="42.99331" lon="0.57331">
        <ele>504.2</ele>
        <time>2017-07-13T04:59:52Z</time>
      </trkpt>
      <trkpt lat="42.99326" lon="0.57331">
        <ele>504.1</ele>
        <time>2017-07-13T04:59:53Z</time>
      </trkpt>
      <trkpt lat="42.99322" lon="0.57331">
        <ele>504</ele>
        <time>2017-07-13T04:59:54Z</time>
      </trkpt>
      <trkpt lat="42.99318" lon="0.57331">
        <ele>503.8</ele>
        <time>2017-07-13T04:59:55Z</time>
      </trkpt>
      <trkpt lat="42.99314" lon="0.57331">
        <ele>503.6</ele>
        <time>2017-07-13T04:59:56Z</time>
      </trkpt>
      <trkpt lat="42.9931" lon="0.57331">
        <ele>503.4</ele>
        <time>2017-07-13T04:59:57Z</time>
      </trkpt>
      <trkpt lat="42.99306" lon="0.57332">
        <ele>503.2</ele>
        <time>2017-07-13T04:59:58Z</time>
      </trkpt>
      <trkpt lat="42.99302" lon="0.57333">
        <ele>503</ele>
        <time>2017-07-13T04:59:59Z</time>
      </trkpt>
      <trkpt lat="42.99298" lon="0.57333">
        <ele>502.8</ele>
        <time>2017-07-13T05:00:00Z</time>
      </trkpt>
      <trkpt lat="42.99293" lon="0.57334">
        <ele>502.6</ele>
        <time>2017-07-13T05:00:01Z</time>
      </trkpt>
      <trkpt lat="42.99289" lon="0.57334">
        <ele>502.4</ele>
        <time>2017-07-13T05:00:02Z</time>
      </trkpt>
      <trkpt lat="42.99285" lon="0.57334">
        <ele>502.2</ele>
        <time>2017-07-13T05:00:03Z</time>
      </trkpt>
      <trkpt lat="42.99281" lon="0.57335">
        <ele>502.1</ele>
        <time>2017-07-13T05:00:04Z</time>
      </trkpt>
      <trkpt lat="42.99277" lon="0.57335">
        <ele>501.9</ele>
        <time>2017-07-13T05:00:05Z</time>
      </trkpt>
      <trkpt lat="42.99273" lon="0.57336">
        <ele>501.8</ele>
        <time>2017-07-13T05:00:06Z</time>
      </trkpt>
      <trkpt lat="42.99269" lon="0.57336">
        <ele>501.6</ele>
        <time>2017-07-13T05:00:07Z</time>
      </trkpt>
      <trkpt lat="42.99265" lon="0.57337">
        <ele>501.5</ele>
        <time>2017-07-13T05:00:08Z</time>
      </trkpt>
      <trkpt lat="42.99261" lon="0.57337">
        <ele>501.3</ele>
        <time>2017-07-13T05:00:09Z</time>
      </trkpt>
      <trkpt lat="42.99257" lon="0.57338">
        <ele>501.2</ele>
        <time>2017-07-13T05:00:10Z</time>
      </trkpt>
      <trkpt lat="42.99253" lon="0.57338">
        <ele>501</ele>
        <time>2017-07-13T05:00:11Z</time>
      </trkpt>
      <trkpt lat="42.99249" lon="0.57339">
        <ele>501</ele>
        <time>2017-07-13T05:00:12Z</time>
      </trkpt>
      <trkpt lat="42.99245" lon="0.57339">
        <ele>501.1</ele>
        <time>2017-07-13T05:00:13Z</time>
      </trkpt>
      <trkpt lat="42.99241" lon="0.5734">
        <ele>501.2</ele>
        <time>2017-07-13T05:00:14Z</time>
      </trkpt>
      <trkpt lat="42.99237" lon="0.5734">
        <ele>501.3</ele>
        <time>2017-07-13T05:00:15Z</time>
      </trkpt>
      <trkpt lat="42.99233" lon="0.57341">
        <ele>501.4</ele>
        <time>2017-07-13T05:00:16Z</time>
      </trkpt>
      <trkpt lat="42.99229" lon="0.57341">
        <ele>501.5</ele>
        <time>2017-07-13T05:00:17Z</time>
      </trkpt>
      <trkpt lat="42.99225" lon="0.57342">
        <ele>501.6</ele>
        <time>2017-07-13T05:00:18Z</time>
      </trkpt>
      <trkpt lat="42.99221" lon="0.57342">
        <ele>501.7</ele>
        <time>2017-07-13T05:00:19Z</time>
      </trkpt>
      <trkpt lat="42.99217" lon="0.57342">
        <ele>501.8</ele>
        <time>2017-07-13T05:00:20Z</time>
      </trkpt>
      <trkpt lat="42.99213" lon="0.57342">
        <ele>501.9</ele>
        <time>2017-07-13T05:00:21Z</time>
      </trkpt>
      <trkpt lat="42.99209" lon="0.57342">
        <ele>502</ele>
        <time>2017-07-13T05:00:22Z</time>
      </trkpt>
      <trkpt lat="42.99205" lon="0.57342">
        <ele>502.1</ele>
        <time>2017-07-13T05:00:23Z</time>
      </trkpt>
      <trkpt lat="42.99201" lon="0.57342">
        <ele>502.2</ele>
        <time>2017-07-13T05:00:24Z</time>
      </trkpt>
      <trkpt lat="42.99198" lon="0.57341">
        <ele>502.3</ele>
        <time>2017-07-13T05:00:25Z</time>
      </trkpt>
      <trkpt lat="42.99194" lon="0.57341">
        <ele>502.4</ele>
        <time>2017-07-13T05:00:26Z</time>
      </trkpt>
      <trkpt lat="42.9919" lon="0.5734">
        <ele>502.5</ele>
        <time>2017-07-13T05:00:27Z</time>
      </trkpt>
      <trkpt lat="42.99186" lon="0.5734">
        <ele>502.6</ele>
        <time>2017-07-13T05:00:28Z</time>
      </trkpt>
      <trkpt lat="42.99182" lon="0.57339">
        <ele>502.7</ele>
        <time>2017-07-13T05:00:29Z</time>
      </trkpt>
      <trkpt lat="42.99178" lon="0.57339">
        <ele>502.8</ele>
        <time>2017-07-13T05:00:30Z</time>
      </trkpt>
      <trkpt lat="42.99174" lon="0.57338">
        <ele>502.9</ele>
        <time>2017-07-13T05:00:31Z</time>
      </trkpt>
      <trkpt lat="42.9917" lon="0.57337">
        <ele>503</ele>
        <time>2017-07-13T05:00:32Z</time>
      </trkpt>
      <trkpt lat="42.99166" lon="0.57337">
        <ele>503</ele>
        <time>2017-07-13T05:00:33Z</time>
      </trkpt>
      <trkpt lat="42.99162" lon="0.57336">
        <ele>503</ele>
        <time>2017-07-13T05:00:34Z</time>
      </trkpt>
      <trkpt lat="42.99158" lon="0.57335">
        <ele>503</ele>
        <time>2017-07-13T05:00:35Z</time>
      </trkpt>
      <trkpt lat="42.99154" lon="0.57334">
        <ele>503</ele>
        <time>2017-07-13T05:00:36Z</time>
      </trkpt>
      <trkpt lat="42.9915" lon="0.57333">
        <ele>503</ele>
        <time>2017-07-13T05:00:37Z</time>
      </trkpt>
      <trkpt lat="42.99146" lon="0.57332">
        <ele>503.1</ele>
        <time>2017-07-13T05:00:38Z</time>
      </trkpt>
      <trkpt lat="42.99142" lon="0.5733">
        <ele>503.1</ele>
        <time>2017-07-13T05:00:39Z</time>
      </trkpt>
      <trkpt lat="42.99138" lon="0.57329">
        <ele>503.2</ele>
        <time>2017-07-13T05:00:40Z</time>
      </trkpt>
      <trkpt lat="42.99134" lon="0.57328">
        <ele>503.2</ele>
        <time>2017-07-13T05:00:41Z</time>
      </trkpt>
      <trkpt lat="42.9913" lon="0.57326">
        <ele>503.2</ele>
        <time>2017-07-13T05:00:42Z</time>
      </trkpt>
      <trkpt lat="42.99126" lon="0.57325">
        <ele>503.3</ele>
        <time>2017-07-13T05:00:43Z</time>
      </trkpt>
      <trkpt lat="42.99122" lon="0.57323">
        <ele>503.3</ele>
        <time>2017-07-13T05:00:44Z</time>
      </trkpt>
      <trkpt lat="42.99118" lon="0.57321">
        <ele>503.3</ele>
        <time>2017-07-13T05:00:45Z</time>
      </trkpt>
      <trkpt lat="42.99114" lon="0.57319">
        <ele>503.4</ele>
        <time>2017-07-13T05:00:46Z</time>
      </trkpt>
      <trkpt lat="42.9911" lon="0.57317">
        <ele>503.4</ele>
        <time>2017-07-13T05:00:47Z</time>
      </trkpt>
      <trkpt lat="42.99107" lon="0.57315">
        <ele>503.4</ele>
        <time>2017-07-13T05:00:48Z</time>
      </trkpt>
      <trkpt lat="42.99103" lon="0.57313">
        <ele>503.4</ele>
        <time>2017-07-13T05:00:49Z</time>
      </trkpt>
      <trkpt lat="42.99099" lon="0.57311">
        <ele>503.4</ele>
        <time>2017-07-13T05:00:50Z</time>
      </trkpt>
      <trkpt lat="42.99096" lon="0.57308">
        <ele>503.4</ele>
        <time>2017-07-13T05:00:51Z</time>
      </trkpt>
      <trkpt lat="42.99092" lon="0.57306">
        <ele>503.4</ele>
        <time>2017-07-13T05:00:52Z</time>
      </trkpt>
      <trkpt lat="42.99088" lon="0.57304">
        <ele>503.4</ele>
        <time>2017-07-13T05:00:53Z</time>
      </trkpt>
      <trkpt lat="42.99085" lon="0.57302">
        <ele>503.4</ele>
        <time>2017-07-13T05:00:54Z</time>
      </trkpt>
      <trkpt lat="42.99081" lon="0.573">
        <ele>503.4</ele>
        <time>2017-07-13T05:00:55Z</time>
      </trkpt>
      <trkpt lat="42.99078" lon="0.57298">
        <ele>503.5</ele>
        <time>2017-07-13T05:00:56Z</time>
      </trkpt>
      <trkpt lat="42.99074" lon="0.57296">
        <ele>503.6</ele>
        <time>2017-07-13T05:00:57Z</time>
      </trkpt>
      <trkpt lat="42.9907" lon="0.57294">
        <ele>503.7</ele>
        <time>2017-07-13T05:00:58Z</time>
      </trkpt>
      <trkpt lat="42.99067" lon="0.57292">
        <ele>503.8</ele>
        <time>2017-07-13T05:00:59Z</time>
      </trkpt>
      <trkpt lat="42.99063" lon="0.5729">
        <ele>503.9</ele>
        <time>2017-07-13T05:01:00Z</time>
      </trkpt>
      <trkpt lat="42.99059" lon="0.57288">
        <ele>504</ele>
        <time>2017-07-13T05:01:01Z</time>
      </trkpt>
      <trkpt lat="42.99055" lon="0.57287">
        <ele>504.1</ele>
        <time>2017-07-13T05:01:02Z</time>
      </trkpt>
      <trkpt lat="42.99051" lon="0.57286">
        <ele>504.2</ele>
        <time>2017-07-13T05:01:03Z</time>
      </trkpt>
      <trkpt lat="42.99047" lon="0.57284">
        <ele>504.3</ele>
        <time>2017-07-13T05:01:04Z</time>
      </trkpt>
      <trkpt lat="42.99043" lon="0.57284">
        <ele>504.4</ele>
        <time>2017-07-13T05:01:05Z</time>
      </trkpt>
      <trkpt lat="42.99038" lon="0.57283">
        <ele>504.5</ele>
        <time>2017-07-13T05:01:06Z</time>
      </trkpt>
      <trkpt lat="42.99034" lon="0.57282">
        <ele>504.6</ele>
        <time>2017-07-13T05:01:07Z</time>
      </trkpt>
      <trkpt lat="42.9903" lon="0.57282">
        <ele>504.7</ele>
        <time>2017-07-13T05:01:08Z</time>
      </trkpt>
      <trkpt lat="42.99026" lon="0.57281">
        <ele>504.8</ele>
        <time>2017-07-13T05:01:09Z</time>
      </trkpt>
      <trkpt lat="42.99022" lon="0.57281">
        <ele>504.8</ele>
        <time>2017-07-13T05:01:10Z</time>
      </trkpt>
      <trkpt lat="42.99017" lon="0.5728">
        <ele>504.9</ele>
        <time>2017-07-13T05:01:11Z</time>
      </trkpt>
      <trkpt lat="42.99013" lon="0.5728">
        <ele>505</ele>
        <time>2017-07-13T05:01:12Z</time>
      </trkpt>
      <trkpt lat="42.99009" lon="0.57279">
        <ele>505.1</ele>
        <time>2017-07-13T05:01:13Z</time>
      </trkpt>
      <trkpt lat="42.99005" lon="0.57279">
        <ele>505.2</ele>
        <time>2017-07-13T05:01:14Z</time>
      </trkpt>
      <trkpt lat="42.99001" lon="0.57278">
        <ele>505.3</ele>
        <time>2017-07-13T05:01:15Z</time>
      </trkpt>
      <trkpt lat="42.98997" lon="0.57278">
        <ele>505.4</ele>
        <time>2017-07-13T05:01:16Z</time>
      </trkpt>
      <trkpt lat="42.98992" lon="0.57277">
        <ele>505.5</ele>
        <time>2017-07-13T05:01:17Z</time>
      </trkpt>
      <trkpt lat="42.98988" lon="0.57277">
        <ele>505.6</ele>
        <time>2017-07-13T05:01:18Z</time>
      </trkpt>
      <trkpt lat="42.98984" lon="0.57276">
        <ele>505.8</ele>
        <time>2017-07-13T05:01:19Z</time>
      </trkpt>
      <trkpt lat="42.9898" lon="0.57276">
        <ele>505.9</ele>
        <time>2017-07-13T05:01:20Z</time>
      </trkpt>
      <trkpt lat="42.98976" lon="0.57275">
        <ele>506</ele>
        <time>2017-07-13T05:01:21Z</time>
      </trkpt>
      <trkpt lat="42.98971" lon="0.57275">
        <ele>506.1</ele>
        <time>2017-07-13T05:01:22Z</time>
      </trkpt>
      <trkpt lat="42.98967" lon="0.57275">
        <ele>506.2</ele>
        <time>2017-07-13T05:01:23Z</time>
      </trkpt>
      <trkpt lat="42.98963" lon="0.57274">
        <ele>506.4</ele>
        <time>2017-07-13T05:01:24Z</time>
      </trkpt>
      <trkpt lat="42.98959" lon="0.57274">
        <ele>506.5</ele>
        <time>2017-07-13T05:01:25Z</time>
      </trkpt>
      <trkpt lat="42.98955" lon="0.57273">
        <ele>506.6</ele>
        <time>2017-07-13T05:01:26Z</time>
      </trkpt>
      <trkpt lat="42.9895" lon="0.57273">
        <ele>506.7</ele>
        <time>2017-07-13T05:01:27Z</time>
      </trkpt>
      <trkpt lat="42.98946" lon="0.57273">
        <ele>506.9</ele>
        <time>2017-07-13T05:01:28Z</time>
      </trkpt>
      <trkpt lat="42.98942" lon="0.57272">
        <ele>507</ele>
        <time>2017-07-13T05:01:29Z</time>
      </trkpt>
      <trkpt lat="42.98938" lon="0.57272">
        <ele>507.1</ele>
        <time>2017-07-13T05:01:30Z</time>
      </trkpt>
      <trkpt lat="42.98934" lon="0.57272">
        <ele>507.3</ele>
        <time>2017-07-13T05:01:31Z</time>
      </trkpt>
      <trkpt lat="42.98929" lon="0.57271">
        <ele>507.4</ele>
        <time>2017-07-13T05:01:32Z</time>
      </trkpt>
      <trkpt lat="42.98925" lon="0.57271">
        <ele>507.5</ele>
        <time>2017-07-13T05:01:33Z</time>
      </trkpt>
      <trkpt lat="42.98921" lon="0.57271">
        <ele>507.6</ele>
        <time>2017-07-13T05:01:34Z</time>
      </trkpt>
      <trkpt lat="42.98917" lon="0.57271">
        <ele>507.7</ele>
        <time>2017-07-13T05:01:35Z</time>
      </trkpt>
      <trkpt lat="42.98913" lon="0.57271">
        <ele>508.2</ele>
        <time>2017-07-13T05:01:36Z</time>
      </trkpt>
      <trkpt lat="42.98909" lon="0.5727">
        <ele>508.7</ele>
        <time>2017-07-13T05:01:37Z</time>
      </trkpt>
      <trkpt lat="42.98905" lon="0.5727">
        <ele>509.2</ele>
        <time>2017-07-13T05:01:38Z</time>
      </trkpt>
      <trkpt lat="42.98901" lon="0.5727">
        <ele>509.6</ele>
        <time>2017-07-13T05:01:39Z</time>
      </trkpt>
      <trkpt lat="42.98897" lon="0.5727">
        <ele>510.1</ele>
        <time>2017-07-13T05:01:40Z</time>
      </trkpt>
      <trkpt lat="42.98892" lon="0.5727">
        <ele>510.6</ele>
        <time>2017-07-13T05:01:41Z</time>
      </trkpt>
      <trkpt lat="42.98888" lon="0.5727">
        <ele>511</ele>
        <time>2017-07-13T05:01:42Z</time>
      </trkpt>
      <trkpt lat="42.98884" lon="0.57271">
        <ele>511.5</ele>
        <time>2017-07-13T05:01:43Z</time>
      </trkpt>
      <trkpt lat="42.9888" lon="0.57271">
        <ele>511.9</ele>
        <time>2017-07-13T05:01:44Z</time>
      </trkpt>
      <trkpt lat="42.98876" lon="0.57271">
        <ele>512.4</ele>
        <time>2017-07-13T05:01:45Z</time>
      </trkpt>
      <trkpt lat="42.98871" lon="0.57272">
        <ele>512.8</ele>
        <time>2017-07-13T05:01:46Z</time>
      </trkpt>
      <trkpt lat="42.98867" lon="0.57272">
        <ele>513.2</ele>
        <time>2017-07-13T05:01:47Z</time>
      </trkpt>
      <trkpt lat="42.98863" lon="0.57273">
        <ele>513.6</ele>
        <time>2017-07-13T05:01:48Z</time>
      </trkpt>
      <trkpt lat="42.98858" lon="0.57273">
        <ele>514</ele>
        <time>2017-07-13T05:01:49Z</time>
      </trkpt>
      <trkpt lat="42.98854" lon="0.57274">
        <ele>514.4</ele>
        <time>2017-07-13T05:01:50Z</time>
      </trkpt>
      <trkpt lat="42.98849" lon="0.57275">
        <ele>514.7</ele>
        <time>2017-07-13T05:01:51Z</time>
      </trkpt>
      <trkpt lat="42.98845" lon="0.57276">
        <ele>515</ele>
        <time>2017-07-13T05:01:52Z</time>
      </trkpt>
      <trkpt lat="42.98841" lon="0.57277">
        <ele>515.3</ele>
        <time>2017-07-13T05:01:53Z</time>
      </trkpt>
      <trkpt lat="42.98836" lon="0.57279">
        <ele>515.5</ele>
        <time>2017-07-13T05:01:54Z</time>
      </trkpt>
      <trkpt lat="42.98832" lon="0.5728">
        <ele>515.6</ele>
        <time>2017-07-13T05:01:55Z</time>
      </trkpt>
      <trkpt lat="42.98828" lon="0.57282">
        <ele>515.4</ele>
        <time>2017-07-13T05:01:56Z</time>
      </trkpt>
      <trkpt lat="42.98824" lon="0.57284">
        <ele>515.2</ele>
        <time>2017-07-13T05:01:57Z</time>
      </trkpt>
      <trkpt lat="42.9882" lon="0.57285">
        <ele>515</ele>
        <time>2017-07-13T05:01:58Z</time>
      </trkpt>
      <trkpt lat="42.98816" lon="0.57287">
        <ele>514.9</ele>
        <time>2017-07-13T05:01:59Z</time>
      </trkpt>
      <trkpt lat="42.98812" lon="0.57289">
        <ele>514.7</ele>
        <time>2017-07-13T05:02:00Z</time>
      </trkpt>
      <trkpt lat="42.98807" lon="0.5729">
        <ele>514.6</ele>
        <time>2017-07-13T05:02:01Z</time>
      </trkpt>
      <trkpt lat="42.98803" lon="0.57292">
        <ele>514.4</ele>
        <time>2017-07-13T05:02:02Z</time>
      </trkpt>
      <trkpt lat="42.98799" lon="0.57293">
        <ele>514.3</ele>
        <time>2017-07-13T05:02:03Z</time>
      </trkpt>
      <trkpt lat="42.98795" lon="0.57295">
        <ele>514.2</ele>
        <time>2017-07-13T05:02:04Z</time>
      </trkpt>
      <trkpt lat="42.98791" lon="0.57296">
        <ele>514</ele>
        <time>2017-07-13T05:02:05Z</time>
      </trkpt>
      <trkpt lat="42.98787" lon="0.57298">
        <ele>513.8</ele>
        <time>2017-07-13T05:02:06Z</time>
      </trkpt>
      <trkpt lat="42.98783" lon="0.57301">
        <ele>513.6</ele>
        <time>2017-07-13T05:02:07Z</time>
      </trkpt>
      <trkpt lat="42.98779" lon="0.57303">
        <ele>513.3</ele>
        <time>2017-07-13T05:02:08Z</time>
      </trkpt>
      <trkpt lat="42.98775" lon="0.57306">
        <ele>513</ele>
        <time>2017-07-13T05:02:09Z</time>
      </trkpt>
      <trkpt lat="42.98771" lon="0.57309">
        <ele>512.6</ele>
        <time>2017-07-13T05:02:10Z</time>
      </trkpt>
      <trkpt lat="42.98768" lon="0.57313">
        <ele>512.3</ele>
        <time>2017-07-13T05:02:11Z</time>
      </trkpt>
      <trkpt lat="42.98764" lon="0.57316">
        <ele>511.9</ele>
        <time>2017-07-13T05:02:12Z</time>
      </trkpt>
      <trkpt lat="42.98761" lon="0.5732">
        <ele>511.5</ele>
        <time>2017-07-13T05:02:13Z</time>
      </trkpt>
      <trkpt lat="42.98757" lon="0.57324">
        <ele>511.1</ele>
        <time>2017-07-13T05:02:14Z</time>
      </trkpt>
      <trkpt lat="42.98754" lon="0.57327">
        <ele>510.7</ele>
        <time>2017-07-13T05:02:15Z</time>
      </trkpt>
      <trkpt lat="42.98751" lon="0.57331">
        <ele>510.3</ele>
        <time>2017-07-13T05:02:16Z</time>
      </trkpt>
      <trkpt lat="42.98748" lon="0.57335">
        <ele>510.2</ele>
        <time>2017-07-13T05:02:17Z</time>
      </trkpt>
      <trkpt lat="42.98745" lon="0.57338">
        <ele>510.3</ele>
        <time>2017-07-13T05:02:18Z</time>
      </trkpt>
      <trkpt lat="42.98741" lon="0.57342">
        <ele>510.5</ele>
        <time>2017-07-13T05:02:19Z</time>
      </trkpt>
      <trkpt lat="42.98738" lon="0.57346">
        <ele>510.6</ele>
        <time>2017-07-13T05:02:20Z</time>
      </trkpt>
      <trkpt lat="42.98735" lon="0.57349">
        <ele>510.7</ele>
        <time>2017-07-13T05:02:21Z</time>
      </trkpt>
      <trkpt lat="42.98732" lon="0.57353">
        <ele>510.8</ele>
        <time>2017-07-13T05:02:22Z</time>
      </trkpt>
      <trkpt lat="42.98729" lon="0.57357">
        <ele>510.9</ele>
        <time>2017-07-13T05:02:23Z</time>
      </trkpt>
      <trkpt lat="42.98725" lon="0.5736">
        <ele>511</ele>
        <time>2017-07-13T05:02:24Z</time>
      </trkpt>
      <trkpt lat="42.98722" lon="0.57364">
        <ele>511</ele>
        <time>2017-07-13T05:02:25Z</time>
      </trkpt>
      <trkpt lat="42.98719" lon="0.57367">
        <ele>511.1</ele>
        <time>2017-07-13T05:02:26Z</time>
      </trkpt>
      <trkpt lat="42.98715" lon="0.5737">
        <ele>511.1</ele>
        <time>2017-07-13T05:02:27Z</time>
      </trkpt>
      <trkpt lat="42.98712" lon="0.57374">
        <ele>511.1</ele>
        <time>2017-07-13T05:02:28Z</time>
      </trkpt>
      <trkpt lat="42.98708" lon="0.57377">
        <ele>511.2</ele>
        <time>2017-07-13T05:02:29Z</time>
      </trkpt>
      <trkpt lat="42.98705" lon="0.5738">
        <ele>511.2</ele>
        <time>2017-07-13T05:02:30Z</time>
      </trkpt>
      <trkpt lat="42.98701" lon="0.57383">
        <ele>511.2</ele>
        <time>2017-07-13T05:02:31Z</time>
      </trkpt>
      <trkpt lat="42.98697" lon="0.57386">
        <ele>511.2</ele>
        <time>2017-07-13T05:02:32Z</time>
      </trkpt>
      <trkpt lat="42.98693" lon="0.57388">
        <ele>511.2</ele>
        <time>2017-07-13T05:02:33Z</time>
      </trkpt>
      <trkpt lat="42.9869" lon="0.57391">
        <ele>511.2</ele>
        <time>2017-07-13T05:02:34Z</time>
      </trkpt>
      <trkpt lat="42.98686" lon="0.57394">
        <ele>511.1</ele>
        <time>2017-07-13T05:02:35Z</time>
      </trkpt>
      <trkpt lat="42.98682" lon="0.57396">
        <ele>511.1</ele>
        <time>2017-07-13T05:02:36Z</time>
      </trkpt>
      <trkpt lat="42.98678" lon="0.57398">
        <ele>511.1</ele>
        <time>2017-07-13T05:02:37Z</time>
      </trkpt>
      <trkpt lat="42.98674" lon="0.57401">
        <ele>511.1</ele>
        <time>2017-07-13T05:02:38Z</time>
      </trkpt>
      <trkpt lat="42.98671" lon="0.57403">
        <ele>511</ele>
        <time>2017-07-13T05:02:39Z</time>
      </trkpt>
      <trkpt lat="42.98667" lon="0.57405">
        <ele>511</ele>
        <time>2017-07-13T05:02:40Z</time>
      </trkpt>
      <trkpt lat="42.98663" lon="0.57407">
        <ele>510.9</ele>
        <time>2017-07-13T05:02:41Z</time>
      </trkpt>
      <trkpt lat="42.98659" lon="0.57408">
        <ele>510.9</ele>
        <time>2017-07-13T05:02:42Z</time>
      </trkpt>
      <trkpt lat="42.98655" lon="0.5741">
        <ele>510.8</ele>
        <time>2017-07-13T05:02:43Z</time>
      </trkpt>
      <trkpt lat="42.98651" lon="0.57412">
        <ele>510.8</ele>
        <time>2017-07-13T05:02:44Z</time>
      </trkpt>
      <trkpt lat="42.98647" lon="0.57413">
        <ele>510.7</ele>
        <time>2017-07-13T05:02:45Z</time>
      </trkpt>
      <trkpt lat="42.98643" lon="0.57415">
        <ele>510.7</ele>
        <time>2017-07-13T05:02:46Z</time>
      </trkpt>
      <trkpt lat="42.9864" lon="0.57416">
        <ele>510.7</ele>
        <time>2017-07-13T05:02:47Z</time>
      </trkpt>
      <trkpt lat="42.98636" lon="0.57418">
        <ele>510.7</ele>
        <time>2017-07-13T05:02:48Z</time>
      </trkpt>
      <trkpt lat="42.98632" lon="0.5742">
        <ele>510.8</ele>
        <time>2017-07-13T05:02:49Z</time>
      </trkpt>
      <trkpt lat="42.98628" lon="0.57421">
        <ele>510.9</ele>
        <time>2017-07-13T05:02:50Z</time>
      </trkpt>
      <trkpt lat="42.98624" lon="0.57423">
        <ele>511</ele>
        <time>2017-07-13T05:02:51Z</time>
      </trkpt>
      <trkpt lat="42.9862" lon="0.57424">
        <ele>511.1</ele>
        <time>2017-07-13T05:02:52Z</time>
      </trkpt>
      <trkpt lat="42.98616" lon="0.57426">
        <ele>511.1</ele>
        <time>2017-07-13T05:02:53Z</time>
      </trkpt>
      <trkpt lat="42.98613" lon="0.57427">
        <ele>511.2</ele>
        <time>2017-07-13T05:02:54Z</time>
      </trkpt>
      <trkpt lat="42.98609" lon="0.57429">
        <ele>511.2</ele>
        <time>2017-07-13T05:02:55Z</time>
      </trkpt>
      <trkpt lat="42.98605" lon="0.57431">
        <ele>511.3</ele>
        <time>2017-07-13T05:02:56Z</time>
      </trkpt>
      <trkpt lat="42.98601" lon="0.57433">
        <ele>511.3</ele>
        <time>2017-07-13T05:02:57Z</time>
      </trkpt>
      <trkpt lat="42.98597" lon="0.57434">
        <ele>511.3</ele>
        <time>2017-07-13T05:02:58Z</time>
      </trkpt>
      <trkpt lat="42.98594" lon="0.57436">
        <ele>511.4</ele>
        <time>2017-07-13T05:02:59Z</time>
      </trkpt>
      <trkpt lat="42.9859" lon="0.57438">
        <ele>511.4</ele>
        <time>2017-07-13T05:03:00Z</time>
      </trkpt>
      <trkpt lat="42.98586" lon="0.5744">
        <ele>511.4</ele>
        <time>2017-07-13T05:03:01Z</time>
      </trkpt>
      <trkpt lat="42.98582" lon="0.57442">
        <ele>511.4</ele>
        <time>2017-07-13T05:03:02Z</time>
      </trkpt>
      <trkpt lat="42.98578" lon="0.57444">
        <ele>511.5</ele>
        <time>2017-07-13T05:03:03Z</time>
      </trkpt>
      <trkpt lat="42.98575" lon="0.57445">
        <ele>511.6</ele>
        <time>2017-07-13T05:03:04Z</time>
      </trkpt>
      <trkpt lat="42.98571" lon="0.57447">
        <ele>511.7</ele>
        <time>2017-07-13T05:03:05Z</time>
      </trkpt>
      <trkpt lat="42.98567" lon="0.57449">
        <ele>511.7</ele>
        <time>2017-07-13T05:03:06Z</time>
      </trkpt>
      <trkpt lat="42.98563" lon="0.57451">
        <ele>511.7</ele>
        <time>2017-07-13T05:03:07Z</time>
      </trkpt>
      <trkpt lat="42.98559" lon="0.57453">
        <ele>511.8</ele>
        <time>2017-07-13T05:03:08Z</time>
      </trkpt>
      <trkpt lat="42.98556" lon="0.57455">
        <ele>511.8</ele>
        <time>2017-07-13T05:03:09Z</time>
      </trkpt>
      <trkpt lat="42.98552" lon="0.57457">
        <ele>511.8</ele>
        <time>2017-07-13T05:03:10Z</time>
      </trkpt>
      <trkpt lat="42.98548" lon="0.57459">
        <ele>511.8</ele>
        <time>2017-07-13T05:03:11Z</time>
      </trkpt>
      <trkpt lat="42.98544" lon="0.57461">
        <ele>511.8</ele>
        <time>2017-07-13T05:03:12Z</time>
      </trkpt>
      <trkpt lat="42.9854" lon="0.57463">
        <ele>511.8</ele>
        <time>2017-07-13T05:03:13Z</time>
      </trkpt>
      <trkpt lat="42.98537" lon="0.57465">
        <ele>511.8</ele>
        <time>2017-07-13T05:03:14Z</time>
      </trkpt>
      <trkpt lat="42.98533" lon="0.57467">
        <ele>511.8</ele>
        <time>2017-07-13T05:03:15Z</time>
      </trkpt>
      <trkpt lat="42.98529" lon="0.57469">
        <ele>511.7</ele>
        <time>2017-07-13T05:03:16Z</time>
      </trkpt>
      <trkpt lat="42.98525" lon="0.57471">
        <ele>511.7</ele>
        <time>2017-07-13T05:03:17Z</time>
      </trkpt>
      <trkpt lat="42.98522" lon="0.57473">
        <ele>511.6</ele>
        <time>2017-07-13T05:03:18Z</time>
      </trkpt>
      <trkpt lat="42.98518" lon="0.57475">
        <ele>511.6</ele>
        <time>2017-07-13T05:03:19Z</time>
      </trkpt>
      <trkpt lat="42.98514" lon="0.57477">
        <ele>511.5</ele>
        <time>2017-07-13T05:03:20Z</time>
      </trkpt>
      <trkpt lat="42.9851" lon="0.57479">
        <ele>511.4</ele>
        <time>2017-07-13T05:03:21Z</time>
      </trkpt>
      <trkpt lat="42.98507" lon="0.57481">
        <ele>511.3</ele>
        <time>2017-07-13T05:03:22Z</time>
      </trkpt>
      <trkpt lat="42.98503" lon="0.57482">
        <ele>511.2</ele>
        <time>2017-07-13T05:03:23Z</time>
      </trkpt>
      <trkpt lat="42.98499" lon="0.57484">
        <ele>511.2</ele>
        <time>2017-07-13T05:03:24Z</time>
      </trkpt>
      <trkpt lat="42.98495" lon="0.57486">
        <ele>511.2</ele>
        <time>2017-07-13T05:03:25Z</time>
      </trkpt>
      <trkpt lat="42.98492" lon="0.57488">
        <ele>511.2</ele>
        <time>2017-07-13T05:03:26Z</time>
      </trkpt>
      <trkpt lat="42.98488" lon="0.5749">
        <ele>511.2</ele>
        <time>2017-07-13T05:03:27Z</time>
      </trkpt>
      <trkpt lat="42.98484" lon="0.57492">
        <ele>511.3</ele>
        <time>2017-07-13T05:03:28Z</time>
      </trkpt>
      <trkpt lat="42.9848" lon="0.57494">
        <ele>511.3</ele>
        <time>2017-07-13T05:03:29Z</time>
      </trkpt>
      <trkpt lat="42.98477" lon="0.57496">
        <ele>511.4</ele>
        <time>2017-07-13T05:03:30Z</time>
      </trkpt>
      <trkpt lat="42.98473" lon="0.57498">
        <ele>511.4</ele>
        <time>2017-07-13T05:03:31Z</time>
      </trkpt>
      <trkpt lat="42.98469" lon="0.575">
        <ele>511.5</ele>
        <time>2017-07-13T05:03:32Z</time>
      </trkpt>
      <trkpt lat="42.98466" lon="0.57502">
        <ele>511.7</ele>
        <time>2017-07-13T05:03:33Z</time>
      </trkpt>
      <trkpt lat="42.98462" lon="0.57504">
        <ele>511.9</ele>
        <time>2017-07-13T05:03:34Z</time>
      </trkpt>
      <trkpt lat="42.98458" lon="0.57506">
        <ele>512</ele>
        <time>2017-07-13T05:03:35Z</time>
      </trkpt>
      <trkpt lat="42.98454" lon="0.57508">
        <ele>512.2</ele>
        <time>2017-07-13T05:03:36Z</time>
      </trkpt>
      <trkpt lat="42.98451" lon="0.5751">
        <ele>512.4</ele>
        <time>2017-07-13T05:03:37Z</time>
      </trkpt>
      <trkpt lat="42.98447" lon="0.57512">
        <ele>512.6</ele>
        <time>2017-07-13T05:03:38Z</time>
      </trkpt>
      <trkpt lat="42.98443" lon="0.57514">
        <ele>512.8</ele>
        <time>2017-07-13T05:03:39Z</time>
      </trkpt>
      <trkpt lat="42.9844" lon="0.57515">
        <ele>512.9</ele>
        <time>2017-07-13T05:03:40Z</time>
      </trkpt>
      <trkpt lat="42.98436" lon="0.57517">
        <ele>513.1</ele>
        <time>2017-07-13T05:03:41Z</time>
      </trkpt>
      <trkpt lat="42.98432" lon="0.57519">
        <ele>513.3</ele>
        <time>2017-07-13T05:03:42Z</time>
      </trkpt>
      <trkpt lat="42.98429" lon="0.57521">
        <ele>513.5</ele>
        <time>2017-07-13T05:03:43Z</time>
      </trkpt>
      <trkpt lat="42.98425" lon="0.57523">
        <ele>513.6</ele>
        <time>2017-07-13T05:03:44Z</time>
      </trkpt>
      <trkpt lat="42.98421" lon="0.57525">
        <ele>513.8</ele>
        <time>2017-07-13T05:03:45Z</time>
      </trkpt>
      <trkpt lat="42.98418" lon="0.57527">
        <ele>514</ele>
        <time>2017-07-13T05:03:46Z</time>
      </trkpt>
      <trkpt lat="42.98414" lon="0.57528">
        <ele>514.1</ele>
        <time>2017-07-13T05:03:47Z</time>
      </trkpt>
      <trkpt lat="42.9841" lon="0.5753">
        <ele>514.3</ele>
        <time>2017-07-13T05:03:48Z</time>
      </trkpt>
      <trkpt lat="42.98407" lon="0.57531">
        <ele>514.5</ele>
        <time>2017-07-13T05:03:49Z</time>
      </trkpt>
      <trkpt lat="42.98403" lon="0.57532">
        <ele>514.6</ele>
        <time>2017-07-13T05:03:50Z</time>
      </trkpt>
      <trkpt lat="42.98399" lon="0.57533">
        <ele>514.8</ele>
        <time>2017-07-13T05:03:51Z</time>
      </trkpt>
      <trkpt lat="42.98395" lon="0.57534">
        <ele>515</ele>
        <time>2017-07-13T05:03:52Z</time>
      </trkpt>
      <trkpt lat="42.98391" lon="0.57535">
        <ele>515.1</ele>
        <time>2017-07-13T05:03:53Z</time>
      </trkpt>
      <trkpt lat="42.98387" lon="0.57536">
        <ele>515.3</ele>
        <time>2017-07-13T05:03:54Z</time>
      </trkpt>
      <trkpt lat="42.98384" lon="0.57537">
        <ele>515.5</ele>
        <time>2017-07-13T05:03:55Z</time>
      </trkpt>
      <trkpt lat="42.9838" lon="0.57537">
        <ele>515.6</ele>
        <time>2017-07-13T05:03:56Z</time>
      </trkpt>
      <trkpt lat="42.98376" lon="0.57538">
        <ele>515.8</ele>
        <time>2017-07-13T05:03:57Z</time>
      </trkpt>
      <trkpt lat="42.98372" lon="0.57539">
        <ele>515.9</ele>
        <time>2017-07-13T05:03:58Z</time>
      </trkpt>
      <trkpt lat="42.98368" lon="0.57539">
        <ele>516.1</ele>
        <time>2017-07-13T05:03:59Z</time>
      </trkpt>
      <trkpt lat="42.98364" lon="0.5754">
        <ele>516.2</ele>
        <time>2017-07-13T05:04:00Z</time>
      </trkpt>
      <trkpt lat="42.98361" lon="0.57541">
        <ele>516.4</ele>
        <time>2017-07-13T05:04:01Z</time>
      </trkpt>
      <trkpt lat="42.98357" lon="0.57542">
        <ele>516.5</ele>
        <time>2017-07-13T05:04:02Z</time>
      </trkpt>
      <trkpt lat="42.98353" lon="0.57542">
        <ele>516.7</ele>
        <time>2017-07-13T05:04:03Z</time>
      </trkpt>
      <trkpt lat="42.98349" lon="0.57543">
        <ele>516.8</ele>
        <time>2017-07-13T05:04:04Z</time>
      </trkpt>
      <trkpt lat="42.98345" lon="0.57544">
        <ele>516.9</ele>
        <time>2017-07-13T05:04:05Z</time>
      </trkpt>
      <trkpt lat="42.98342" lon="0.57544">
        <ele>517.1</ele>
        <time>2017-07-13T05:04:06Z</time>
      </trkpt>
      <trkpt lat="42.98338" lon="0.57545">
        <ele>517.2</ele>
        <time>2017-07-13T05:04:07Z</time>
      </trkpt>
      <trkpt lat="42.98334" lon="0.57546">
        <ele>517.3</ele>
        <time>2017-07-13T05:04:08Z</time>
      </trkpt>
      <trkpt lat="42.9833" lon="0.57547">
        <ele>517.3</ele>
        <time>2017-07-13T05:04:09Z</time>
      </trkpt>
      <trkpt lat="42.98327" lon="0.57548">
        <ele>517.3</ele>
        <time>2017-07-13T05:04:10Z</time>
      </trkpt>
      <trkpt lat="42.98323" lon="0.57549">
        <ele>517.3</ele>
        <time>2017-07-13T05:04:11Z</time>
      </trkpt>
      <trkpt lat="42.98319" lon="0.5755">
        <ele>517.3</ele>
        <time>2017-07-13T05:04:12Z</time>
      </trkpt>
      <trkpt lat="42.98316" lon="0.57551">
        <ele>517.3</ele>
        <time>2017-07-13T05:04:13Z</time>
      </trkpt>
      <trkpt lat="42.98312" lon="0.57552">
        <ele>517.3</ele>
        <time>2017-07-13T05:04:14Z</time>
      </trkpt>
      <trkpt lat="42.98308" lon="0.57553">
        <ele>517.3</ele>
        <time>2017-07-13T05:04:15Z</time>
      </trkpt>
      <trkpt lat="42.98305" lon="0.57555">
        <ele>517.2</ele>
        <time>2017-07-13T05:04:16Z</time>
      </trkpt>
      <trkpt lat="42.98301" lon="0.57556">
        <ele>517.3</ele>
        <time>2017-07-13T05:04:17Z</time>
      </trkpt>
      <trkpt lat="42.98297" lon="0.57558">
        <ele>517.3</ele>
        <time>2017-07-13T05:04:18Z</time>
      </trkpt>
      <trkpt lat="42.98294" lon="0.57559">
        <ele>517.3</ele>
        <time>2017-07-13T05:04:19Z</time>
      </trkpt>
      <trkpt lat="42.9829" lon="0.57561">
        <ele>517.3</ele>
        <time>2017-07-13T05:04:20Z</time>
      </trkpt>
      <trkpt lat="42.98286" lon="0.57563">
        <ele>517.3</ele>
        <time>2017-07-13T05:04:21Z</time>
      </trkpt>
      <trkpt lat="42.98283" lon="0.57564">
        <ele>517.3</ele>
        <time>2017-07-13T05:04:22Z</time>
      </trkpt>
      <trkpt lat="42.98279" lon="0.57566">
        <ele>517.4</ele>
        <time>2017-07-13T05:04:23Z</time>
      </trkpt>
      <trkpt lat="42.98276" lon="0.57569">
        <ele>517.4</ele>
        <time>2017-07-13T05:04:24Z</time>
      </trkpt>
      <trkpt lat="42.98272" lon="0.57571">
        <ele>517.5</ele>
        <time>2017-07-13T05:04:25Z</time>
      </trkpt>
      <trkpt lat="42.98269" lon="0.57573">
        <ele>517.5</ele>
        <time>2017-07-13T05:04:26Z</time>
      </trkpt>
      <trkpt lat="42.98266" lon="0.57576">
        <ele>517.6</ele>
        <time>2017-07-13T05:04:27Z</time>
      </trkpt>
      <trkpt lat="42.98263" lon="0.57579">
        <ele>517.7</ele>
        <time>2017-07-13T05:04:28Z</time>
      </trkpt>
      <trkpt lat="42.98259" lon="0.57582">
        <ele>517.8</ele>
        <time>2017-07-13T05:04:29Z</time>
      </trkpt>
      <trkpt lat="42.98256" lon="0.57585">
        <ele>517.9</ele>
        <time>2017-07-13T05:04:30Z</time>
      </trkpt>
      <trkpt lat="42.98253" lon="0.57588">
        <ele>518</ele>
        <time>2017-07-13T05:04:31Z</time>
      </trkpt>
      <trkpt lat="42.9825" lon="0.57591">
        <ele>518.1</ele>
        <time>2017-07-13T05:04:32Z</time>
      </trkpt>
      <trkpt lat="42.98247" lon="0.57594">
        <ele>518.3</ele>
        <time>2017-07-13T05:04:33Z</time>
      </trkpt>
      <trkpt lat="42.98244" lon="0.57597">
        <ele>518.6</ele>
        <time>2017-07-13T05:04:34Z</time>
      </trkpt>
      <trkpt lat="42.98241" lon="0.576">
        <ele>518.8</ele>
        <time>2017-07-13T05:04:35Z</time>
      </trkpt>
      <trkpt lat="42.98238" lon="0.57603">
        <ele>519</ele>
        <time>2017-07-13T05:04:36Z</time>
      </trkpt>
      <trkpt lat="42.98235" lon="0.57606">
        <ele>519.2</ele>
        <time>2017-07-13T05:04:37Z</time>
      </trkpt>
      <trkpt lat="42.98232" lon="0.57609">
        <ele>519.4</ele>
        <time>2017-07-13T05:04:38Z</time>
      </trkpt>
      <trkpt lat="42.98228" lon="0.57612">
        <ele>519.5</ele>
        <time>2017-07-13T05:04:39Z</time>
      </trkpt>
      <trkpt lat="42.98225" lon="0.57615">
        <ele>519.7</ele>
        <time>2017-07-13T05:04:40Z</time>
      </trkpt>
      <trkpt lat="42.98222" lon="0.57617">
        <ele>519.8</ele>
        <time>2017-07-13T05:04:41Z</time>
      </trkpt>
      <trkpt lat="42.98218" lon="0.57619">
        <ele>520</ele>
        <time>2017-07-13T05:04:42Z</time>
      </trkpt>
      <trkpt lat="42.98214" lon="0.57621">
        <ele>520.1</ele>
        <time>2017-07-13T05:04:43Z</time>
      </trkpt>
      <trkpt lat="42.98211" lon="0.57623">
        <ele>520.2</ele>
        <time>2017-07-13T05:04:44Z</time>
      </trkpt>
      <trkpt lat="42.98207" lon="0.57624">
        <ele>520.3</ele>
        <time>2017-07-13T05:04:45Z</time>
      </trkpt>
      <trkpt lat="42.98203" lon="0.57625">
        <ele>520.5</ele>
        <time>2017-07-13T05:04:46Z</time>
      </trkpt>
      <trkpt lat="42.98199" lon="0.57626">
        <ele>520.6</ele>
        <time>2017-07-13T05:04:47Z</time>
      </trkpt>
      <trkpt lat="42.98196" lon="0.57626">
        <ele>520.8</ele>
        <time>2017-07-13T05:04:48Z</time>
      </trkpt>
      <trkpt lat="42.98192" lon="0.57626">
        <ele>520.9</ele>
        <time>2017-07-13T05:04:49Z</time>
      </trkpt>
      <trkpt lat="42.98188" lon="0.57626">
        <ele>521.1</ele>
        <time>2017-07-13T05:04:50Z</time>
      </trkpt>
      <trkpt lat="42.98184" lon="0.57625">
        <ele>521.3</ele>
        <time>2017-07-13T05:04:51Z</time>
      </trkpt>
      <trkpt lat="42.9818" lon="0.57624">
        <ele>521.5</ele>
        <time>2017-07-13T05:04:52Z</time>
      </trkpt>
      <trkpt lat="42.98176" lon="0.57624">
        <ele>521.7</ele>
        <time>2017-07-13T05:04:53Z</time>
      </trkpt>
      <trkpt lat="42.98172" lon="0.57623">
        <ele>521.9</ele>
        <time>2017-07-13T05:04:54Z</time>
      </trkpt>
      <trkpt lat="42.98168" lon="0.57622">
        <ele>522.2</ele>
        <time>2017-07-13T05:04:55Z</time>
      </trkpt>
      <trkpt lat="42.98164" lon="0.5762">
        <ele>522.6</ele>
        <time>2017-07-13T05:04:56Z</time>
      </trkpt>
      <trkpt lat="42.9816" lon="0.57619">
        <ele>523</ele>
        <time>2017-07-13T05:04:57Z</time>
      </trkpt>
      <trkpt lat="42.98156" lon="0.57618">
        <ele>523.4</ele>
        <time>2017-07-13T05:04:58Z</time>
      </trkpt>
      <trkpt lat="42.98152" lon="0.57617">
        <ele>523.8</ele>
        <time>2017-07-13T05:04:59Z</time>
      </trkpt>
      <trkpt lat="42.98148" lon="0.57616">
        <ele>524.3</ele>
        <time>2017-07-13T05:05:00Z</time>
      </trkpt>
      <trkpt lat="42.98144" lon="0.57615">
        <ele>524.7</ele>
        <time>2017-07-13T05:05:01Z</time>
      </trkpt>
      <trkpt lat="42.98141" lon="0.57614">
        <ele>525.2</ele>
        <time>2017-07-13T05:05:02Z</time>
      </trkpt>
      <trkpt lat="42.98137" lon="0.57614">
        <ele>525.6</ele>
        <time>2017-07-13T05:05:03Z</time>
      </trkpt>
      <trkpt lat="42.98133" lon="0.57613">
        <ele>526</ele>
        <time>2017-07-13T05:05:04Z</time>
      </trkpt>
      <trkpt lat="42.98129" lon="0.57613">
        <ele>526.4</ele>
        <time>2017-07-13T05:05:05Z</time>
      </trkpt>
      <trkpt lat="42.98125" lon="0.57613">
        <ele>526.8</ele>
        <time>2017-07-13T05:05:06Z</time>
      </trkpt>
      <trkpt lat="42.98122" lon="0.57613">
        <ele>527.1</ele>
        <time>2017-07-13T05:05:07Z</time>
      </trkpt>
      <trkpt lat="42.98118" lon="0.57613">
        <ele>527.4</ele>
        <time>2017-07-13T05:05:08Z</time>
      </trkpt>
      <trkpt lat="42.98114" lon="0.57614">
        <ele>527.7</ele>
        <time>2017-07-13T05:05:09Z</time>
      </trkpt>
      <trkpt lat="42.9811" lon="0.57615">
        <ele>527.9</ele>
        <time>2017-07-13T05:05:10Z</time>
      </trkpt>
      <trkpt lat="42.98107" lon="0.57615">
        <ele>528.1</ele>
        <time>2017-07-13T05:05:11Z</time>
      </trkpt>
      <trkpt lat="42.98103" lon="0.57617">
        <ele>528.3</ele>
        <time>2017-07-13T05:05:12Z</time>
      </trkpt>
      <trkpt lat="42.981" lon="0.57618">
        <ele>528.4</ele>
        <time>2017-07-13T05:05:13Z</time>
      </trkpt>
      <trkpt lat="42.98096" lon="0.57619">
        <ele>528.5</ele>
        <time>2017-07-13T05:05:14Z</time>
      </trkpt>
      <trkpt lat="42.98093" lon="0.57621">
        <ele>528.5</ele>
        <time>2017-07-13T05:05:15Z</time>
      </trkpt>
      <trkpt lat="42.98089" lon="0.57623">
        <ele>528.5</ele>
        <time>2017-07-13T05:05:16Z</time>
      </trkpt>
      <trkpt lat="42.98086" lon="0.57624">
        <ele>528.4</ele>
        <time>2017-07-13T05:05:17Z</time>
      </trkpt>
      <trkpt lat="42.98082" lon="0.57626">
        <ele>528.4</ele>
        <time>2017-07-13T05:05:18Z</time>
      </trkpt>
      <trkpt lat="42.98079" lon="0.57628">
        <ele>528.5</ele>
        <time>2017-07-13T05:05:19Z</time>
      </trkpt>
      <trkpt lat="42.98075" lon="0.57631">
        <ele>528.6</ele>
        <time>2017-07-13T05:05:20Z</time>
      </trkpt>
      <trkpt lat="42.98072" lon="0.57633">
        <ele>528.6</ele>
        <time>2017-07-13T05:05:21Z</time>
      </trkpt>
      <trkpt lat="42.98069" lon="0.57635">
        <ele>528.6</ele>
        <time>2017-07-13T05:05:22Z</time>
      </trkpt>
      <trkpt lat="42.98065" lon="0.57638">
        <ele>528.6</ele>
        <time>2017-07-13T05:05:23Z</time>
      </trkpt>
      <trkpt lat="42.98062" lon="0.5764">
        <ele>528.5</ele>
        <time>2017-07-13T05:05:24Z</time>
      </trkpt>
      <trkpt lat="42.98058" lon="0.57643">
        <ele>528.5</ele>
        <time>2017-07-13T05:05:25Z</time>
      </trkpt>
      <trkpt lat="42.98055" lon="0.57645">
        <ele>528.4</ele>
        <time>2017-07-13T05:05:26Z</time>
      </trkpt>
      <trkpt lat="42.98051" lon="0.57647">
        <ele>528.3</ele>
        <time>2017-07-13T05:05:27Z</time>
      </trkpt>
      <trkpt lat="42.98048" lon="0.5765">
        <ele>528.2</ele>
        <time>2017-07-13T05:05:28Z</time>
      </trkpt>
      <trkpt lat="42.98044" lon="0.57652">
        <ele>528.2</ele>
        <time>2017-07-13T05:05:29Z</time>
      </trkpt>
      <trkpt lat="42.9804" lon="0.57653">
        <ele>528.2</ele>
        <time>2017-07-13T05:05:30Z</time>
      </trkpt>
      <trkpt lat="42.98036" lon="0.57655">
        <ele>528.3</ele>
        <time>2017-07-13T05:05:31Z</time>
      </trkpt>
      <trkpt lat="42.98032" lon="0.57656">
        <ele>528.5</ele>
        <time>2017-07-13T05:05:32Z</time>
      </trkpt>
      <trkpt lat="42.98029" lon="0.57657">
        <ele>528.7</ele>
        <time>2017-07-13T05:05:33Z</time>
      </trkpt>
      <trkpt lat="42.98025" lon="0.57657">
        <ele>528.9</ele>
        <time>2017-07-13T05:05:34Z</time>
      </trkpt>
      <trkpt lat="42.9802" lon="0.57658">
        <ele>529.3</ele>
        <time>2017-07-13T05:05:35Z</time>
      </trkpt>
      <trkpt lat="42.98016" lon="0.57658">
        <ele>529.7</ele>
        <time>2017-07-13T05:05:36Z</time>
      </trkpt>
      <trkpt lat="42.98012" lon="0.57658">
        <ele>530.1</ele>
        <time>2017-07-13T05:05:37Z</time>
      </trkpt>
      <trkpt lat="42.98008" lon="0.57657">
        <ele>530.7</ele>
        <time>2017-07-13T05:05:38Z</time>
      </trkpt>
      <trkpt lat="42.98004" lon="0.57657">
        <ele>531.3</ele>
        <time>2017-07-13T05:05:39Z</time>
      </trkpt>
      <trkpt lat="42.98" lon="0.57656">
        <ele>531.9</ele>
        <time>2017-07-13T05:05:40Z</time>
      </trkpt>
      <trkpt lat="42.97996" lon="0.57655">
        <ele>532</ele>
        <time>2017-07-13T05:05:41Z</time>
      </trkpt>
      <trkpt lat="42.97992" lon="0.57654">
        <ele>532.1</ele>
        <time>2017-07-13T05:05:42Z</time>
      </trkpt>
      <trkpt lat="42.97988" lon="0.57653">
        <ele>532.3</ele>
        <time>2017-07-13T05:05:43Z</time>
      </trkpt>
      <trkpt lat="42.97984" lon="0.57651">
        <ele>532.5</ele>
        <time>2017-07-13T05:05:44Z</time>
      </trkpt>
      <trkpt lat="42.9798" lon="0.5765">
        <ele>532.8</ele>
        <time>2017-07-13T05:05:45Z</time>
      </trkpt>
      <trkpt lat="42.97975" lon="0.57648">
        <ele>533.1</ele>
        <time>2017-07-13T05:05:46Z</time>
      </trkpt>
      <trkpt lat="42.97971" lon="0.57646">
        <ele>533.4</ele>
        <time>2017-07-13T05:05:47Z</time>
      </trkpt>
      <trkpt lat="42.97967" lon="0.57645">
        <ele>533.8</ele>
        <time>2017-07-13T05:05:48Z</time>
      </trkpt>
      <trkpt lat="42.97963" lon="0.57643">
        <ele>534.1</ele>
        <time>2017-07-13T05:05:49Z</time>
      </trkpt>
      <trkpt lat="42.97959" lon="0.57641">
        <ele>534.5</ele>
        <time>2017-07-13T05:05:50Z</time>
      </trkpt>
      <trkpt lat="42.97956" lon="0.57639">
        <ele>535</ele>
        <time>2017-07-13T05:05:51Z</time>
      </trkpt>
      <trkpt lat="42.97952" lon="0.57637">
        <ele>535.4</ele>
        <time>2017-07-13T05:05:52Z</time>
      </trkpt>
      <trkpt lat="42.97948" lon="0.57636">
        <ele>535.9</ele>
        <time>2017-07-13T05:05:53Z</time>
      </trkpt>
      <trkpt lat="42.97944" lon="0.57634">
        <ele>536.3</ele>
        <time>2017-07-13T05:05:54Z</time>
      </trkpt>
      <trkpt lat="42.9794" lon="0.57632">
        <ele>536.7</ele>
        <time>2017-07-13T05:05:55Z</time>
      </trkpt>
      <trkpt lat="42.97936" lon="0.5763">
        <ele>537.2</ele>
        <time>2017-07-13T05:05:56Z</time>
      </trkpt>
      <trkpt lat="42.97932" lon="0.57629">
        <ele>537.6</ele>
        <time>2017-07-13T05:05:57Z</time>
      </trkpt>
      <trkpt lat="42.97929" lon="0.57627">
        <ele>538</ele>
        <time>2017-07-13T05:05:58Z</time>
      </trkpt>
      <trkpt lat="42.97925" lon="0.57626">
        <ele>538.4</ele>
        <time>2017-07-13T05:05:59Z</time>
      </trkpt>
      <trkpt lat="42.97921" lon="0.57624">
        <ele>538.8</ele>
        <time>2017-07-13T05:06:00Z</time>
      </trkpt>
      <trkpt lat="42.97917" lon="0.57623">
        <ele>539.1</ele>
        <time>2017-07-13T05:06:01Z</time>
      </trkpt>
      <trkpt lat="42.97913" lon="0.57622">
        <ele>539.4</ele>
        <time>2017-07-13T05:06:02Z</time>
      </trkpt>
      <trkpt lat="42.97909" lon="0.57621">
        <ele>539.6</ele>
        <time>2017-07-13T05:06:03Z</time>
      </trkpt>
      <trkpt lat="42.97905" lon="0.5762">
        <ele>539.7</ele>
        <time>2017-07-13T05:06:04Z</time>
      </trkpt>
      <trkpt lat="42.97901" lon="0.57619">
        <ele>539.8</ele>
        <time>2017-07-13T05:06:05Z</time>
      </trkpt>
      <trkpt lat="42.97897" lon="0.57619">
        <ele>539.8</ele>
        <time>2017-07-13T05:06:06Z</time>
      </trkpt>
      <trkpt lat="42.97893" lon="0.57618">
        <ele>539.8</ele>
        <time>2017-07-13T05:06:07Z</time>
      </trkpt>
      <trkpt lat="42.97889" lon="0.57618">
        <ele>539.8</ele>
        <time>2017-07-13T05:06:08Z</time>
      </trkpt>
      <trkpt lat="42.97885" lon="0.57617">
        <ele>539.8</ele>
        <time>2017-07-13T05:06:09Z</time>
      </trkpt>
      <trkpt lat="42.97881" lon="0.57617">
        <ele>539.7</ele>
        <time>2017-07-13T05:06:10Z</time>
      </trkpt>
      <trkpt lat="42.97877" lon="0.57616">
        <ele>539.6</ele>
        <time>2017-07-13T05:06:11Z</time>
      </trkpt>
      <trkpt lat="42.97873" lon="0.57616">
        <ele>539.5</ele>
        <time>2017-07-13T05:06:12Z</time>
      </trkpt>
      <trkpt lat="42.97869" lon="0.57616">
        <ele>539.3</ele>
        <time>2017-07-13T05:06:13Z</time>
      </trkpt>
      <trkpt lat="42.97865" lon="0.57616">
        <ele>539.2</ele>
        <time>2017-07-13T05:06:14Z</time>
      </trkpt>
      <trkpt lat="42.97861" lon="0.57615">
        <ele>539</ele>
        <time>2017-07-13T05:06:15Z</time>
      </trkpt>
      <trkpt lat="42.97857" lon="0.57615">
        <ele>538.9</ele>
        <time>2017-07-13T05:06:16Z</time>
      </trkpt>
      <trkpt lat="42.97853" lon="0.57615">
        <ele>538.7</ele>
        <time>2017-07-13T05:06:17Z</time>
      </trkpt>
      <trkpt lat="42.97849" lon="0.57615">
        <ele>538.5</ele>
        <time>2017-07-13T05:06:18Z</time>
      </trkpt>
      <trkpt lat="42.97845" lon="0.57615">
        <ele>538.4</ele>
        <time>2017-07-13T05:06:19Z</time>
      </trkpt>
      <trkpt lat="42.97841" lon="0.57615">
        <ele>538.2</ele>
        <time>2017-07-13T05:06:20Z</time>
      </trkpt>
      <trkpt lat="42.97837" lon="0.57614">
        <ele>538</ele>
        <time>2017-07-13T05:06:21Z</time>
      </trkpt>
      <trkpt lat="42.97833" lon="0.57614">
        <ele>537.8</ele>
        <time>2017-07-13T05:06:22Z</time>
      </trkpt>
      <trkpt lat="42.97829" lon="0.57614">
        <ele>537.6</ele>
        <time>2017-07-13T05:06:23Z</time>
      </trkpt>
      <trkpt lat="42.97825" lon="0.57613">
        <ele>537.3</ele>
        <time>2017-07-13T05:06:24Z</time>
      </trkpt>
      <trkpt lat="42.97821" lon="0.57613">
        <ele>537</ele>
        <time>2017-07-13T05:06:25Z</time>
      </trkpt>
      <trkpt lat="42.97817" lon="0.57612">
        <ele>536.8</ele>
        <time>2017-07-13T05:06:26Z</time>
      </trkpt>
      <trkpt lat="42.97813" lon="0.57611">
        <ele>536.5</ele>
        <time>2017-07-13T05:06:27Z</time>
      </trkpt>
      <trkpt lat="42.97809" lon="0.57611">
        <ele>536.3</ele>
        <time>2017-07-13T05:06:28Z</time>
      </trkpt>
      <trkpt lat="42.97805" lon="0.5761">
        <ele>536.1</ele>
        <time>2017-07-13T05:06:29Z</time>
      </trkpt>
      <trkpt lat="42.97801" lon="0.57609">
        <ele>535.8</ele>
        <time>2017-07-13T05:06:30Z</time>
      </trkpt>
      <trkpt lat="42.97797" lon="0.57608">
        <ele>535.6</ele>
        <time>2017-07-13T05:06:31Z</time>
      </trkpt>
      <trkpt lat="42.97793" lon="0.57607">
        <ele>535.4</ele>
        <time>2017-07-13T05:06:32Z</time>
      </trkpt>
      <trkpt lat="42.97789" lon="0.57605">
        <ele>535.1</ele>
        <time>2017-07-13T05:06:33Z</time>
      </trkpt>
      <trkpt lat="42.97785" lon="0.57604">
        <ele>534.9</ele>
        <time>2017-07-13T05:06:34Z</time>
      </trkpt>
      <trkpt lat="42.97781" lon="0.57603">
        <ele>534.6</ele>
        <time>2017-07-13T05:06:35Z</time>
      </trkpt>
      <trkpt lat="42.97777" lon="0.57602">
        <ele>534.3</ele>
        <time>2017-07-13T05:06:36Z</time>
      </trkpt>
      <trkpt lat="42.97773" lon="0.576">
        <ele>534.1</ele>
        <time>2017-07-13T05:06:37Z</time>
      </trkpt>
      <trkpt lat="42.97769" lon="0.57599">
        <ele>533.8</ele>
        <time>2017-07-13T05:06:38Z</time>
      </trkpt>
      <trkpt lat="42.97765" lon="0.57598">
        <ele>533.5</ele>
        <time>2017-07-13T05:06:39Z</time>
      </trkpt>
      <trkpt lat="42.97761" lon="0.57596">
        <ele>533.2</ele>
        <time>2017-07-13T05:06:40Z</time>
      </trkpt>
      <trkpt lat="42.97757" lon="0.57595">
        <ele>532.8</ele>
        <time>2017-07-13T05:06:41Z</time>
      </trkpt>
      <trkpt lat="42.97753" lon="0.57594">
        <ele>532.5</ele>
        <time>2017-07-13T05:06:42Z</time>
      </trkpt>
      <trkpt lat="42.97749" lon="0.57593">
        <ele>532.3</ele>
        <time>2017-07-13T05:06:43Z</time>
      </trkpt>
      <trkpt lat="42.97745" lon="0.57591">
        <ele>532.2</ele>
        <time>2017-07-13T05:06:44Z</time>
      </trkpt>
      <trkpt lat="42.97741" lon="0.5759">
        <ele>532.1</ele>
        <time>2017-07-13T05:06:45Z</time>
      </trkpt>
      <trkpt lat="42.97737" lon="0.57588">
        <ele>532</ele>
        <time>2017-07-13T05:06:46Z</time>
      </trkpt>
      <trkpt lat="42.97733" lon="0.57586">
        <ele>531.9</ele>
        <time>2017-07-13T05:06:47Z</time>
      </trkpt>
      <trkpt lat="42.9773" lon="0.57584">
        <ele>531.8</ele>
        <time>2017-07-13T05:06:48Z</time>
      </trkpt>
      <trkpt lat="42.97726" lon="0.57581">
        <ele>532.2</ele>
        <time>2017-07-13T05:06:49Z</time>
      </trkpt>
      <trkpt lat="42.97722" lon="0.57579">
        <ele>532.7</ele>
        <time>2017-07-13T05:06:50Z</time>
      </trkpt>
      <trkpt lat="42.97719" lon="0.57577">
        <ele>533</ele>
        <time>2017-07-13T05:06:51Z</time>
      </trkpt>
      <trkpt lat="42.97715" lon="0.57576">
        <ele>533.3</ele>
        <time>2017-07-13T05:06:52Z</time>
      </trkpt>
      <trkpt lat="42.97711" lon="0.57575">
        <ele>533.4</ele>
        <time>2017-07-13T05:06:53Z</time>
      </trkpt>
      <trkpt lat="42.97707" lon="0.57574">
        <ele>533.3</ele>
        <time>2017-07-13T05:06:54Z</time>
      </trkpt>
      <trkpt lat="42.97703" lon="0.57574">
        <ele>533.1</ele>
        <time>2017-07-13T05:06:55Z</time>
      </trkpt>
      <trkpt lat="42.97699" lon="0.57574">
        <ele>532.9</ele>
        <time>2017-07-13T05:06:56Z</time>
      </trkpt>
      <trkpt lat="42.97695" lon="0.57575">
        <ele>532.6</ele>
        <time>2017-07-13T05:06:57Z</time>
      </trkpt>
      <trkpt lat="42.9769" lon="0.57575">
        <ele>532.2</ele>
        <time>2017-07-13T05:06:58Z</time>
      </trkpt>
      <trkpt lat="42.97686" lon="0.57576">
        <ele>531.8</ele>
        <time>2017-07-13T05:06:59Z</time>
      </trkpt>
      <trkpt lat="42.97682" lon="0.57576">
        <ele>531.4</ele>
        <time>2017-07-13T05:07:00Z</time>
      </trkpt>
      <trkpt lat="42.97678" lon="0.57577">
        <ele>530.9</ele>
        <time>2017-07-13T05:07:01Z</time>
      </trkpt>
      <trkpt lat="42.97673" lon="0.57578">
        <ele>530.3</ele>
        <time>2017-07-13T05:07:02Z</time>
      </trkpt>
      <trkpt lat="42.97669" lon="0.57579">
        <ele>529.6</ele>
        <time>2017-07-13T05:07:03Z</time>
      </trkpt>
      <trkpt lat="42.97665" lon="0.5758">
        <ele>529.2</ele>
        <time>2017-07-13T05:07:04Z</time>
      </trkpt>
      <trkpt lat="42.97661" lon="0.57582">
        <ele>528.9</ele>
        <time>2017-07-13T05:07:05Z</time>
      </trkpt>
      <trkpt lat="42.97657" lon="0.57585">
        <ele>529</ele>
        <time>2017-07-13T05:07:06Z</time>
      </trkpt>
      <trkpt lat="42.97653" lon="0.57587">
        <ele>529.4</ele>
        <time>2017-07-13T05:07:07Z</time>
      </trkpt>
      <trkpt lat="42.97649" lon="0.5759">
        <ele>529.8</ele>
        <time>2017-07-13T05:07:08Z</time>
      </trkpt>
      <trkpt lat="42.97645" lon="0.57593">
        <ele>530.2</ele>
        <time>2017-07-13T05:07:09Z</time>
      </trkpt>
      <trkpt lat="42.97641" lon="0.57596">
        <ele>530.5</ele>
        <time>2017-07-13T05:07:10Z</time>
      </trkpt>
      <trkpt lat="42.97637" lon="0.576">
        <ele>530.7</ele>
        <time>2017-07-13T05:07:11Z</time>
      </trkpt>
      <trkpt lat="42.97634" lon="0.57604">
        <ele>530.9</ele>
        <time>2017-07-13T05:07:12Z</time>
      </trkpt>
      <trkpt lat="42.9763" lon="0.57607">
        <ele>531.1</ele>
        <time>2017-07-13T05:07:13Z</time>
      </trkpt>
      <trkpt lat="42.97627" lon="0.57611">
        <ele>531.2</ele>
        <time>2017-07-13T05:07:14Z</time>
      </trkpt>
      <trkpt lat="42.97624" lon="0.57615">
        <ele>531.3</ele>
        <time>2017-07-13T05:07:15Z</time>
      </trkpt>
      <trkpt lat="42.97621" lon="0.57619">
        <ele>531.3</ele>
        <time>2017-07-13T05:07:16Z</time>
      </trkpt>
      <trkpt lat="42.97618" lon="0.57623">
        <ele>531.3</ele>
        <time>2017-07-13T05:07:17Z</time>
      </trkpt>
      <trkpt lat="42.97615" lon="0.57627">
        <ele>531.3</ele>
        <time>2017-07-13T05:07:18Z</time>
      </trkpt>
      <trkpt lat="42.97612" lon="0.57631">
        <ele>531.2</ele>
        <time>2017-07-13T05:07:19Z</time>
      </trkpt>
      <trkpt lat="42.97609" lon="0.57635">
        <ele>531.1</ele>
        <time>2017-07-13T05:07:20Z</time>
      </trkpt>
      <trkpt lat="42.97606" lon="0.57639">
        <ele>531</ele>
        <time>2017-07-13T05:07:21Z</time>
      </trkpt>
      <trkpt lat="42.97603" lon="0.57643">
        <ele>530.8</ele>
        <time>2017-07-13T05:07:22Z</time>
      </trkpt>
      <trkpt lat="42.976" lon="0.57647">
        <ele>530.6</ele>
        <time>2017-07-13T05:07:23Z</time>
      </trkpt>
      <trkpt lat="42.97598" lon="0.5765">
        <ele>530.4</ele>
        <time>2017-07-13T05:07:24Z</time>
      </trkpt>
      <trkpt lat="42.97595" lon="0.57654">
        <ele>530.1</ele>
        <time>2017-07-13T05:07:25Z</time>
      </trkpt>
      <trkpt lat="42.97592" lon="0.57658">
        <ele>529.8</ele>
        <time>2017-07-13T05:07:26Z</time>
      </trkpt>
      <trkpt lat="42.97589" lon="0.57662">
        <ele>529.5</ele>
        <time>2017-07-13T05:07:27Z</time>
      </trkpt>
      <trkpt lat="42.97586" lon="0.57665">
        <ele>529.2</ele>
        <time>2017-07-13T05:07:28Z</time>
      </trkpt>
      <trkpt lat="42.97583" lon="0.57669">
        <ele>529.3</ele>
        <time>2017-07-13T05:07:29Z</time>
      </trkpt>
      <trkpt lat="42.9758" lon="0.57673">
        <ele>530.1</ele>
        <time>2017-07-13T05:07:30Z</time>
      </trkpt>
      <trkpt lat="42.97577" lon="0.57677">
        <ele>530.9</ele>
        <time>2017-07-13T05:07:31Z</time>
      </trkpt>
      <trkpt lat="42.97574" lon="0.57681">
        <ele>531.6</ele>
        <time>2017-07-13T05:07:32Z</time>
      </trkpt>
      <trkpt lat="42.97571" lon="0.57684">
        <ele>532.2</ele>
        <time>2017-07-13T05:07:33Z</time>
      </trkpt>
      <trkpt lat="42.97569" lon="0.57688">
        <ele>532.8</ele>
        <time>2017-07-13T05:07:34Z</time>
      </trkpt>
      <trkpt lat="42.97566" lon="0.57692">
        <ele>533.3</ele>
        <time>2017-07-13T05:07:35Z</time>
      </trkpt>
      <trkpt lat="42.97563" lon="0.57696">
        <ele>533.7</ele>
        <time>2017-07-13T05:07:36Z</time>
      </trkpt>
      <trkpt lat="42.9756" lon="0.577">
        <ele>534.1</ele>
        <time>2017-07-13T05:07:37Z</time>
      </trkpt>
      <trkpt lat="42.97557" lon="0.57703">
        <ele>534.3</ele>
        <time>2017-07-13T05:07:38Z</time>
      </trkpt>
      <trkpt lat="42.97554" lon="0.57707">
        <ele>534.6</ele>
        <time>2017-07-13T05:07:39Z</time>
      </trkpt>
      <trkpt lat="42.97551" lon="0.57711">
        <ele>534.7</ele>
        <time>2017-07-13T05:07:40Z</time>
      </trkpt>
      <trkpt lat="42.97549" lon="0.57715">
        <ele>534.8</ele>
        <time>2017-07-13T05:07:41Z</time>
      </trkpt>
      <trkpt lat="42.97546" lon="0.57719">
        <ele>534.8</ele>
        <time>2017-07-13T05:07:42Z</time>
      </trkpt>
      <trkpt lat="42.97543" lon="0.57722">
        <ele>534.8</ele>
        <time>2017-07-13T05:07:43Z</time>
      </trkpt>
      <trkpt lat="42.97541" lon="0.57726">
        <ele>534.7</ele>
        <time>2017-07-13T05:07:44Z</time>
      </trkpt>
      <trkpt lat="42.97538" lon="0.5773">
        <ele>534.6</ele>
        <time>2017-07-13T05:07:45Z</time>
      </trkpt>
      <trkpt lat="42.97535" lon="0.57734">
        <ele>534.3</ele>
        <time>2017-07-13T05:07:46Z</time>
      </trkpt>
      <trkpt lat="42.97533" lon="0.57738">
        <ele>534.1</ele>
        <time>2017-07-13T05:07:47Z</time>
      </trkpt>
      <trkpt lat="42.9753" lon="0.57742">
        <ele>533.7</ele>
        <time>2017-07-13T05:07:48Z</time>
      </trkpt>
      <trkpt lat="42.97527" lon="0.57745">
        <ele>533.3</ele>
        <time>2017-07-13T05:07:49Z</time>
      </trkpt>
      <trkpt lat="42.97525" lon="0.57749">
        <ele>532.8</ele>
        <time>2017-07-13T05:07:50Z</time>
      </trkpt>
      <trkpt lat="42.97522" lon="0.57753">
        <ele>532.8</ele>
        <time>2017-07-13T05:07:51Z</time>
      </trkpt>
      <trkpt lat="42.9752" lon="0.57757">
        <ele>532.7</ele>
        <time>2017-07-13T05:07:52Z</time>
      </trkpt>
      <trkpt lat="42.97517" lon="0.57761">
        <ele>532.7</ele>
        <time>2017-07-13T05:07:53Z</time>
      </trkpt>
      <trkpt lat="42.97514" lon="0.57765">
        <ele>532.6</ele>
        <time>2017-07-13T05:07:54Z</time>
      </trkpt>
      <trkpt lat="42.97512" lon="0.57768">
        <ele>532.6</ele>
        <time>2017-07-13T05:07:55Z</time>
      </trkpt>
      <trkpt lat="42.97509" lon="0.57772">
        <ele>532.4</ele>
        <time>2017-07-13T05:07:56Z</time>
      </trkpt>
      <trkpt lat="42.97506" lon="0.57776">
        <ele>532.3</ele>
        <time>2017-07-13T05:07:57Z</time>
      </trkpt>
      <trkpt lat="42.97504" lon="0.5778">
        <ele>532.1</ele>
        <time>2017-07-13T05:07:58Z</time>
      </trkpt>
      <trkpt lat="42.97501" lon="0.57784">
        <ele>531.9</ele>
        <time>2017-07-13T05:07:59Z</time>
      </trkpt>
      <trkpt lat="42.97499" lon="0.57787">
        <ele>532</ele>
        <time>2017-07-13T05:08:00Z</time>
      </trkpt>
      <trkpt lat="42.97496" lon="0.57791">
        <ele>532.1</ele>
        <time>2017-07-13T05:08:01Z</time>
      </trkpt>
      <trkpt lat="42.97493" lon="0.57795">
        <ele>532.3</ele>
        <time>2017-07-13T05:08:02Z</time>
      </trkpt>
      <trkpt lat="42.97491" lon="0.57799">
        <ele>532.4</ele>
        <time>2017-07-13T05:08:03Z</time>
      </trkpt>
      <trkpt lat="42.97488" lon="0.57803">
        <ele>532.5</ele>
        <time>2017-07-13T05:08:04Z</time>
      </trkpt>
      <trkpt lat="42.97485" lon="0.57806">
        <ele>532.5</ele>
        <time>2017-07-13T05:08:05Z</time>
      </trkpt>
      <trkpt lat="42.97483" lon="0.5781">
        <ele>532.5</ele>
        <time>2017-07-13T05:08:06Z</time>
      </trkpt>
      <trkpt lat="42.9748" lon="0.57814">
        <ele>532.5</ele>
        <time>2017-07-13T05:08:07Z</time>
      </trkpt>
      <trkpt lat="42.97478" lon="0.57818">
        <ele>532.4</ele>
        <time>2017-07-13T05:08:08Z</time>
      </trkpt>
      <trkpt lat="42.97475" lon="0.57821">
        <ele>532.3</ele>
        <time>2017-07-13T05:08:09Z</time>
      </trkpt>
      <trkpt lat="42.97473" lon="0.57825">
        <ele>532.2</ele>
        <time>2017-07-13T05:08:10Z</time>
      </trkpt>
      <trkpt lat="42.9747" lon="0.57829">
        <ele>532</ele>
        <time>2017-07-13T05:08:11Z</time>
      </trkpt>
      <trkpt lat="42.97467" lon="0.57833">
        <ele>531.8</ele>
        <time>2017-07-13T05:08:12Z</time>
      </trkpt>
      <trkpt lat="42.97465" lon="0.57836">
        <ele>531.9</ele>
        <time>2017-07-13T05:08:13Z</time>
      </trkpt>
      <trkpt lat="42.97462" lon="0.5784">
        <ele>532</ele>
        <time>2017-07-13T05:08:14Z</time>
      </trkpt>
      <trkpt lat="42.97459" lon="0.57844">
        <ele>532.1</ele>
        <time>2017-07-13T05:08:15Z</time>
      </trkpt>
      <trkpt lat="42.97457" lon="0.57848">
        <ele>532.1</ele>
        <time>2017-07-13T05:08:16Z</time>
      </trkpt>
      <trkpt lat="42.97454" lon="0.57851">
        <ele>532.1</ele>
        <time>2017-07-13T05:08:17Z</time>
      </trkpt>
      <trkpt lat="42.97451" lon="0.57855">
        <ele>532.1</ele>
        <time>2017-07-13T05:08:18Z</time>
      </trkpt>
      <trkpt lat="42.97448" lon="0.57858">
        <ele>532.1</ele>
        <time>2017-07-13T05:08:19Z</time>
      </trkpt>
      <trkpt lat="42.97445" lon="0.57861">
        <ele>532</ele>
        <time>2017-07-13T05:08:20Z</time>
      </trkpt>
      <trkpt lat="42.97442" lon="0.57863">
        <ele>531.9</ele>
        <time>2017-07-13T05:08:21Z</time>
      </trkpt>
      <trkpt lat="42.97438" lon="0.57865">
        <ele>531.7</ele>
        <time>2017-07-13T05:08:22Z</time>
      </trkpt>
      <trkpt lat="42.97435" lon="0.57866">
        <ele>531.5</ele>
        <time>2017-07-13T05:08:23Z</time>
      </trkpt>
      <trkpt lat="42.97431" lon="0.57866">
        <ele>531.3</ele>
        <time>2017-07-13T05:08:24Z</time>
      </trkpt>
      <trkpt lat="42.97427" lon="0.57867">
        <ele>531.1</ele>
        <time>2017-07-13T05:08:25Z</time>
      </trkpt>
      <trkpt lat="42.97423" lon="0.57867">
        <ele>530.8</ele>
        <time>2017-07-13T05:08:26Z</time>
      </trkpt>
      <trkpt lat="42.97419" lon="0.57866">
        <ele>530.5</ele>
        <time>2017-07-13T05:08:27Z</time>
      </trkpt>
      <trkpt lat="42.97415" lon="0.57866">
        <ele>530.5</ele>
        <time>2017-07-13T05:08:28Z</time>
      </trkpt>
      <trkpt lat="42.97411" lon="0.57866">
        <ele>530.8</ele>
        <time>2017-07-13T05:08:29Z</time>
      </trkpt>
      <trkpt lat="42.97407" lon="0.57865">
        <ele>531.1</ele>
        <time>2017-07-13T05:08:30Z</time>
      </trkpt>
      <trkpt lat="42.97403" lon="0.57864">
        <ele>531.4</ele>
        <time>2017-07-13T05:08:31Z</time>
      </trkpt>
      <trkpt lat="42.97399" lon="0.57864">
        <ele>531.7</ele>
        <time>2017-07-13T05:08:32Z</time>
      </trkpt>
      <trkpt lat="42.97395" lon="0.57863">
        <ele>532</ele>
        <time>2017-07-13T05:08:33Z</time>
      </trkpt>
      <trkpt lat="42.97391" lon="0.57862">
        <ele>532.2</ele>
        <time>2017-07-13T05:08:34Z</time>
      </trkpt>
      <trkpt lat="42.97387" lon="0.57862">
        <ele>532.5</ele>
        <time>2017-07-13T05:08:35Z</time>
      </trkpt>
      <trkpt lat="42.97383" lon="0.57861">
        <ele>532.7</ele>
        <time>2017-07-13T05:08:36Z</time>
      </trkpt>
      <trkpt lat="42.97379" lon="0.5786">
        <ele>533</ele>
        <time>2017-07-13T05:08:37Z</time>
      </trkpt>
      <trkpt lat="42.97375" lon="0.57859">
        <ele>533.2</ele>
        <time>2017-07-13T05:08:38Z</time>
      </trkpt>
      <trkpt lat="42.97371" lon="0.57858">
        <ele>533.4</ele>
        <time>2017-07-13T05:08:39Z</time>
      </trkpt>
      <trkpt lat="42.97367" lon="0.57857">
        <ele>533.6</ele>
        <time>2017-07-13T05:08:40Z</time>
      </trkpt>
      <trkpt lat="42.97363" lon="0.57857">
        <ele>533.8</ele>
        <time>2017-07-13T05:08:41Z</time>
      </trkpt>
      <trkpt lat="42.97359" lon="0.57856">
        <ele>534</ele>
        <time>2017-07-13T05:08:42Z</time>
      </trkpt>
      <trkpt lat="42.97355" lon="0.57855">
        <ele>534.2</ele>
        <time>2017-07-13T05:08:43Z</time>
      </trkpt>
      <trkpt lat="42.97351" lon="0.57854">
        <ele>534.3</ele>
        <time>2017-07-13T05:08:44Z</time>
      </trkpt>
      <trkpt lat="42.97347" lon="0.57853">
        <ele>534.5</ele>
        <time>2017-07-13T05:08:45Z</time>
      </trkpt>
      <trkpt lat="42.97343" lon="0.57852">
        <ele>534.6</ele>
        <time>2017-07-13T05:08:46Z</time>
      </trkpt>
      <trkpt lat="42.9734" lon="0.57851">
        <ele>534.7</ele>
        <time>2017-07-13T05:08:47Z</time>
      </trkpt>
      <trkpt lat="42.97336" lon="0.5785">
        <ele>534.8</ele>
        <time>2017-07-13T05:08:48Z</time>
      </trkpt>
      <trkpt lat="42.97332" lon="0.57849">
        <ele>535.2</ele>
        <time>2017-07-13T05:08:49Z</time>
      </trkpt>
      <trkpt lat="42.97328" lon="0.57848">
        <ele>535.9</ele>
        <time>2017-07-13T05:08:50Z</time>
      </trkpt>
      <trkpt lat="42.97324" lon="0.57846">
        <ele>536.6</ele>
        <time>2017-07-13T05:08:51Z</time>
      </trkpt>
      <trkpt lat="42.9732" lon="0.57845">
        <ele>537.2</ele>
        <time>2017-07-13T05:08:52Z</time>
      </trkpt>
      <trkpt lat="42.97317" lon="0.57844">
        <ele>537.8</ele>
        <time>2017-07-13T05:08:53Z</time>
      </trkpt>
      <trkpt lat="42.97313" lon="0.57842">
        <ele>538.4</ele>
        <time>2017-07-13T05:08:54Z</time>
      </trkpt>
      <trkpt lat="42.97309" lon="0.57841">
        <ele>538.9</ele>
        <time>2017-07-13T05:08:55Z</time>
      </trkpt>
      <trkpt lat="42.97306" lon="0.57839">
        <ele>539.4</ele>
        <time>2017-07-13T05:08:56Z</time>
      </trkpt>
      <trkpt lat="42.97302" lon="0.57838">
        <ele>539.8</ele>
        <time>2017-07-13T05:08:57Z</time>
      </trkpt>
      <trkpt lat="42.97299" lon="0.57836">
        <ele>540.2</ele>
        <time>2017-07-13T05:08:58Z</time>
      </trkpt>
      <trkpt lat="42.97295" lon="0.57834">
        <ele>540.5</ele>
        <time>2017-07-13T05:08:59Z</time>
      </trkpt>
      <trkpt lat="42.97292" lon="0.57832">
        <ele>541</ele>
        <time>2017-07-13T05:09:00Z</time>
      </trkpt>
      <trkpt lat="42.97288" lon="0.5783">
        <ele>541.7</ele>
        <time>2017-07-13T05:09:01Z</time>
      </trkpt>
      <trkpt lat="42.97285" lon="0.57828">
        <ele>542.4</ele>
        <time>2017-07-13T05:09:02Z</time>
      </trkpt>
      <trkpt lat="42.97282" lon="0.57826">
        <ele>542.9</ele>
        <time>2017-07-13T05:09:03Z</time>
      </trkpt>
      <trkpt lat="42.97278" lon="0.57823">
        <ele>543.5</ele>
        <time>2017-07-13T05:09:04Z</time>
      </trkpt>
      <trkpt lat="42.97275" lon="0.57821">
        <ele>544</ele>
        <time>2017-07-13T05:09:05Z</time>
      </trkpt>
      <trkpt lat="42.97272" lon="0.57818">
        <ele>544.4</ele>
        <time>2017-07-13T05:09:06Z</time>
      </trkpt>
      <trkpt lat="42.97269" lon="0.57815">
        <ele>544.8</ele>
        <time>2017-07-13T05:09:07Z</time>
      </trkpt>
      <trkpt lat="42.97265" lon="0.57813">
        <ele>545.1</ele>
        <time>2017-07-13T05:09:08Z</time>
      </trkpt>
      <trkpt lat="42.97262" lon="0.5781">
        <ele>545.4</ele>
        <time>2017-07-13T05:09:09Z</time>
      </trkpt>
      <trkpt lat="42.97259" lon="0.57807">
        <ele>545.7</ele>
        <time>2017-07-13T05:09:10Z</time>
      </trkpt>
      <trkpt lat="42.97256" lon="0.57805">
        <ele>545.9</ele>
        <time>2017-07-13T05:09:11Z</time>
      </trkpt>
      <trkpt lat="42.97253" lon="0.57802">
        <ele>546</ele>
        <time>2017-07-13T05:09:12Z</time>
      </trkpt>
      <trkpt lat="42.9725" lon="0.57799">
        <ele>546.1</ele>
        <time>2017-07-13T05:09:13Z</time>
      </trkpt>
      <trkpt lat="42.97247" lon="0.57796">
        <ele>546.1</ele>
        <time>2017-07-13T05:09:14Z</time>
      </trkpt>
      <trkpt lat="42.97244" lon="0.57793">
        <ele>546</ele>
        <time>2017-07-13T05:09:15Z</time>
      </trkpt>
      <trkpt lat="42.9724" lon="0.57791">
        <ele>545.9</ele>
        <time>2017-07-13T05:09:16Z</time>
      </trkpt>
      <trkpt lat="42.97237" lon="0.57788">
        <ele>545.8</ele>
        <time>2017-07-13T05:09:17Z</time>
      </trkpt>
      <trkpt lat="42.97234" lon="0.57785">
        <ele>545.7</ele>
        <time>2017-07-13T05:09:18Z</time>
      </trkpt>
      <trkpt lat="42.97231" lon="0.57783">
        <ele>545.6</ele>
        <time>2017-07-13T05:09:19Z</time>
      </trkpt>
      <trkpt lat="42.97228" lon="0.5778">
        <ele>545.5</ele>
        <time>2017-07-13T05:09:20Z</time>
      </trkpt>
      <trkpt lat="42.97224" lon="0.57777">
        <ele>545.3</ele>
        <time>2017-07-13T05:09:21Z</time>
      </trkpt>
      <trkpt lat="42.97221" lon="0.57775">
        <ele>545.2</ele>
        <time>2017-07-13T05:09:22Z</time>
      </trkpt>
      <trkpt lat="42.97217" lon="0.57773">
        <ele>545</ele>
        <time>2017-07-13T05:09:23Z</time>
      </trkpt>
      <trkpt lat="42.97214" lon="0.5777">
        <ele>544.9</ele>
        <time>2017-07-13T05:09:24Z</time>
      </trkpt>
      <trkpt lat="42.97211" lon="0.57768">
        <ele>544.7</ele>
        <time>2017-07-13T05:09:25Z</time>
      </trkpt>
      <trkpt lat="42.97207" lon="0.57766">
        <ele>544.5</ele>
        <time>2017-07-13T05:09:26Z</time>
      </trkpt>
      <trkpt lat="42.97203" lon="0.57764">
        <ele>544.4</ele>
        <time>2017-07-13T05:09:27Z</time>
      </trkpt>
      <trkpt lat="42.972" lon="0.57762">
        <ele>544.2</ele>
        <time>2017-07-13T05:09:28Z</time>
      </trkpt>
      <trkpt lat="42.97196" lon="0.5776">
        <ele>544</ele>
        <time>2017-07-13T05:09:29Z</time>
      </trkpt>
      <trkpt lat="42.97193" lon="0.57758">
        <ele>543.8</ele>
        <time>2017-07-13T05:09:30Z</time>
      </trkpt>
      <trkpt lat="42.97189" lon="0.57756">
        <ele>543.7</ele>
        <time>2017-07-13T05:09:31Z</time>
      </trkpt>
      <trkpt lat="42.97185" lon="0.57755">
        <ele>543.5</ele>
        <time>2017-07-13T05:09:32Z</time>
      </trkpt>
      <trkpt lat="42.97182" lon="0.57753">
        <ele>543.3</ele>
        <time>2017-07-13T05:09:33Z</time>
      </trkpt>
      <trkpt lat="42.97178" lon="0.57751">
        <ele>543.1</ele>
        <time>2017-07-13T05:09:34Z</time>
      </trkpt>
      <trkpt lat="42.97175" lon="0.5775">
        <ele>542.9</ele>
        <time>2017-07-13T05:09:35Z</time>
      </trkpt>
      <trkpt lat="42.97172" lon="0.57748">
        <ele>543.2</ele>
        <time>2017-07-13T05:09:36Z</time>
      </trkpt>
      <trkpt lat="42.97168" lon="0.57746">
        <ele>543.4</ele>
        <time>2017-07-13T05:09:37Z</time>
      </trkpt>
      <trkpt lat="42.97165" lon="0.57744">
        <ele>544</ele>
        <time>2017-07-13T05:09:38Z</time>
      </trkpt>
      <trkpt lat="42.97161" lon="0.57742">
        <ele>544.6</ele>
        <time>2017-07-13T05:09:39Z</time>
      </trkpt>
      <trkpt lat="42.97158" lon="0.5774">
        <ele>545.3</ele>
        <time>2017-07-13T05:09:40Z</time>
      </trkpt>
      <trkpt lat="42.97155" lon="0.57738">
        <ele>545.9</ele>
        <time>2017-07-13T05:09:41Z</time>
      </trkpt>
      <trkpt lat="42.97151" lon="0.57736">
        <ele>546.4</ele>
        <time>2017-07-13T05:09:42Z</time>
      </trkpt>
      <trkpt lat="42.97148" lon="0.57734">
        <ele>546.9</ele>
        <time>2017-07-13T05:09:43Z</time>
      </trkpt>
      <trkpt lat="42.97145" lon="0.57731">
        <ele>547.4</ele>
        <time>2017-07-13T05:09:44Z</time>
      </trkpt>
      <trkpt lat="42.97141" lon="0.57729">
        <ele>547.9</ele>
        <time>2017-07-13T05:09:45Z</time>
      </trkpt>
      <trkpt lat="42.97138" lon="0.57727">
        <ele>548.2</ele>
        <time>2017-07-13T05:09:46Z</time>
      </trkpt>
      <trkpt lat="42.97135" lon="0.57725">
        <ele>548.6</ele>
        <time>2017-07-13T05:09:47Z</time>
      </trkpt>
      <trkpt lat="42.97131" lon="0.57722">
        <ele>548.9</ele>
        <time>2017-07-13T05:09:48Z</time>
      </trkpt>
      <trkpt lat="42.97128" lon="0.5772">
        <ele>549.1</ele>
        <time>2017-07-13T05:09:49Z</time>
      </trkpt>
      <trkpt lat="42.97124" lon="0.57718">
        <ele>549.4</ele>
        <time>2017-07-13T05:09:50Z</time>
      </trkpt>
      <trkpt lat="42.97121" lon="0.57715">
        <ele>549.5</ele>
        <time>2017-07-13T05:09:51Z</time>
      </trkpt>
      <trkpt lat="42.97118" lon="0.57713">
        <ele>549.6</ele>
        <time>2017-07-13T05:09:52Z</time>
      </trkpt>
      <trkpt lat="42.97114" lon="0.57711">
        <ele>549.7</ele>
        <time>2017-07-13T05:09:53Z</time>
      </trkpt>
      <trkpt lat="42.97111" lon="0.57708">
        <ele>549.7</ele>
        <time>2017-07-13T05:09:54Z</time>
      </trkpt>
      <trkpt lat="42.97107" lon="0.57706">
        <ele>549.6</ele>
        <time>2017-07-13T05:09:55Z</time>
      </trkpt>
      <trkpt lat="42.97104" lon="0.57704">
        <ele>549.6</ele>
        <time>2017-07-13T05:09:56Z</time>
      </trkpt>
      <trkpt lat="42.97101" lon="0.57702">
        <ele>549.4</ele>
        <time>2017-07-13T05:09:57Z</time>
      </trkpt>
      <trkpt lat="42.97098" lon="0.57699">
        <ele>549.3</ele>
        <time>2017-07-13T05:09:58Z</time>
      </trkpt>
      <trkpt lat="42.97094" lon="0.57697">
        <ele>549</ele>
        <time>2017-07-13T05:09:59Z</time>
      </trkpt>
      <trkpt lat="42.97091" lon="0.57695">
        <ele>548.8</ele>
        <time>2017-07-13T05:10:00Z</time>
      </trkpt>
      <trkpt lat="42.97088" lon="0.57692">
        <ele>548.5</ele>
        <time>2017-07-13T05:10:01Z</time>
      </trkpt>
      <trkpt lat="42.97085" lon="0.5769">
        <ele>548.1</ele>
        <time>2017-07-13T05:10:02Z</time>
      </trkpt>
      <trkpt lat="42.97082" lon="0.57688">
        <ele>548</ele>
        <time>2017-07-13T05:10:03Z</time>
      </trkpt>
      <trkpt lat="42.97079" lon="0.57686">
        <ele>548.2</ele>
        <time>2017-07-13T05:10:04Z</time>
      </trkpt>
      <trkpt lat="42.97076" lon="0.57683">
        <ele>548.4</ele>
        <time>2017-07-13T05:10:05Z</time>
      </trkpt>
      <trkpt lat="42.97073" lon="0.57681">
        <ele>548.5</ele>
        <time>2017-07-13T05:10:06Z</time>
      </trkpt>
      <trkpt lat="42.9707" lon="0.57679">
        <ele>548.6</ele>
        <time>2017-07-13T05:10:07Z</time>
      </trkpt>
      <trkpt lat="42.97067" lon="0.57677">
        <ele>548.7</ele>
        <time>2017-07-13T05:10:08Z</time>
      </trkpt>
      <trkpt lat="42.97064" lon="0.57674">
        <ele>548.8</ele>
        <time>2017-07-13T05:10:09Z</time>
      </trkpt>
      <trkpt lat="42.97061" lon="0.57672">
        <ele>548.8</ele>
        <time>2017-07-13T05:10:10Z</time>
      </trkpt>
      <trkpt lat="42.97058" lon="0.5767">
        <ele>548.9</ele>
        <time>2017-07-13T05:10:11Z</time>
      </trkpt>
      <trkpt lat="42.97056" lon="0.57668">
        <ele>548.9</ele>
        <time>2017-07-13T05:10:12Z</time>
      </trkpt>
      <trkpt lat="42.97053" lon="0.57666">
        <ele>549.1</ele>
        <time>2017-07-13T05:10:13Z</time>
      </trkpt>
      <trkpt lat="42.9705" lon="0.57663">
        <ele>549.5</ele>
        <time>2017-07-13T05:10:14Z</time>
      </trkpt>
      <trkpt lat="42.97047" lon="0.57661">
        <ele>549.9</ele>
        <time>2017-07-13T05:10:15Z</time>
      </trkpt>
      <trkpt lat="42.97044" lon="0.57659">
        <ele>550.2</ele>
        <time>2017-07-13T05:10:16Z</time>
      </trkpt>
      <trkpt lat="42.9704" lon="0.57657">
        <ele>550.5</ele>
        <time>2017-07-13T05:10:17Z</time>
      </trkpt>
      <trkpt lat="42.97037" lon="0.57654">
        <ele>550.7</ele>
        <time>2017-07-13T05:10:18Z</time>
      </trkpt>
      <trkpt lat="42.97034" lon="0.57652">
        <ele>550.9</ele>
        <time>2017-07-13T05:10:19Z</time>
      </trkpt>
      <trkpt lat="42.97031" lon="0.5765">
        <ele>551</ele>
        <time>2017-07-13T05:10:20Z</time>
      </trkpt>
      <trkpt lat="42.97028" lon="0.57647">
        <ele>551.1</ele>
        <time>2017-07-13T05:10:21Z</time>
      </trkpt>
      <trkpt lat="42.97025" lon="0.57645">
        <ele>551.1</ele>
        <time>2017-07-13T05:10:22Z</time>
      </trkpt>
      <trkpt lat="42.97022" lon="0.57643">
        <ele>551.1</ele>
        <time>2017-07-13T05:10:23Z</time>
      </trkpt>
      <trkpt lat="42.97019" lon="0.5764">
        <ele>550.9</ele>
        <time>2017-07-13T05:10:24Z</time>
      </trkpt>
      <trkpt lat="42.97016" lon="0.57638">
        <ele>550.8</ele>
        <time>2017-07-13T05:10:25Z</time>
      </trkpt>
      <trkpt lat="42.97013" lon="0.57635">
        <ele>550.5</ele>
        <time>2017-07-13T05:10:26Z</time>
      </trkpt>
      <trkpt lat="42.9701" lon="0.57633">
        <ele>550.2</ele>
        <time>2017-07-13T05:10:27Z</time>
      </trkpt>
      <trkpt lat="42.97007" lon="0.5763">
        <ele>549.8</ele>
        <time>2017-07-13T05:10:28Z</time>
      </trkpt>
      <trkpt lat="42.97004" lon="0.57627">
        <ele>549.4</ele>
        <time>2017-07-13T05:10:29Z</time>
      </trkpt>
      <trkpt lat="42.97001" lon="0.57624">
        <ele>548.9</ele>
        <time>2017-07-13T05:10:30Z</time>
      </trkpt>
      <trkpt lat="42.96998" lon="0.57622">
        <ele>548.7</ele>
        <time>2017-07-13T05:10:31Z</time>
      </trkpt>
      <trkpt lat="42.96996" lon="0.57619">
        <ele>548.7</ele>
        <time>2017-07-13T05:10:32Z</time>
      </trkpt>
      <trkpt lat="42.96993" lon="0.57616">
        <ele>548.7</ele>
        <time>2017-07-13T05:10:33Z</time>
      </trkpt>
      <trkpt lat="42.96991" lon="0.57613">
        <ele>548.6</ele>
        <time>2017-07-13T05:10:34Z</time>
      </trkpt>
      <trkpt lat="42.96988" lon="0.5761">
        <ele>548.6</ele>
        <time>2017-07-13T05:10:35Z</time>
      </trkpt>
      <trkpt lat="42.96986" lon="0.57607">
        <ele>548.6</ele>
        <time>2017-07-13T05:10:36Z</time>
      </trkpt>
      <trkpt lat="42.96983" lon="0.57603">
        <ele>548.5</ele>
        <time>2017-07-13T05:10:37Z</time>
      </trkpt>
      <trkpt lat="42.96981" lon="0.576">
        <ele>548.4</ele>
        <time>2017-07-13T05:10:38Z</time>
      </trkpt>
      <trkpt lat="42.96978" lon="0.57597">
        <ele>548.4</ele>
        <time>2017-07-13T05:10:39Z</time>
      </trkpt>
      <trkpt lat="42.96976" lon="0.57594">
        <ele>548.3</ele>
        <time>2017-07-13T05:10:40Z</time>
      </trkpt>
      <trkpt lat="42.96974" lon="0.57591">
        <ele>548.2</ele>
        <time>2017-07-13T05:10:41Z</time>
      </trkpt>
      <trkpt lat="42.96971" lon="0.57587">
        <ele>548.2</ele>
        <time>2017-07-13T05:10:42Z</time>
      </trkpt>
      <trkpt lat="42.96969" lon="0.57584">
        <ele>548.1</ele>
        <time>2017-07-13T05:10:43Z</time>
      </trkpt>
      <trkpt lat="42.96966" lon="0.57581">
        <ele>548.7</ele>
        <time>2017-07-13T05:10:44Z</time>
      </trkpt>
      <trkpt lat="42.96964" lon="0.57577">
        <ele>549.4</ele>
        <time>2017-07-13T05:10:45Z</time>
      </trkpt>
      <trkpt lat="42.96961" lon="0.57574">
        <ele>550</ele>
        <time>2017-07-13T05:10:46Z</time>
      </trkpt>
      <trkpt lat="42.96959" lon="0.57571">
        <ele>550.5</ele>
        <time>2017-07-13T05:10:47Z</time>
      </trkpt>
      <trkpt lat="42.96956" lon="0.57568">
        <ele>551</ele>
        <time>2017-07-13T05:10:48Z</time>
      </trkpt>
      <trkpt lat="42.96954" lon="0.57564">
        <ele>551.4</ele>
        <time>2017-07-13T05:10:49Z</time>
      </trkpt>
      <trkpt lat="42.96951" lon="0.57561">
        <ele>551.8</ele>
        <time>2017-07-13T05:10:50Z</time>
      </trkpt>
      <trkpt lat="42.96949" lon="0.57558">
        <ele>552.1</ele>
        <time>2017-07-13T05:10:51Z</time>
      </trkpt>
      <trkpt lat="42.96946" lon="0.57555">
        <ele>552.3</ele>
        <time>2017-07-13T05:10:52Z</time>
      </trkpt>
      <trkpt lat="42.96943" lon="0.57552">
        <ele>552.5</ele>
        <time>2017-07-13T05:10:53Z</time>
      </trkpt>
      <trkpt lat="42.96941" lon="0.5755">
        <ele>552.6</ele>
        <time>2017-07-13T05:10:54Z</time>
      </trkpt>
      <trkpt lat="42.96938" lon="0.57547">
        <ele>552.7</ele>
        <time>2017-07-13T05:10:55Z</time>
      </trkpt>
      <trkpt lat="42.96935" lon="0.57544">
        <ele>552.7</ele>
        <time>2017-07-13T05:10:56Z</time>
      </trkpt>
      <trkpt lat="42.96932" lon="0.57542">
        <ele>552.7</ele>
        <time>2017-07-13T05:10:57Z</time>
      </trkpt>
      <trkpt lat="42.96929" lon="0.5754">
        <ele>552.6</ele>
        <time>2017-07-13T05:10:58Z</time>
      </trkpt>
      <trkpt lat="42.96926" lon="0.57537">
        <ele>552.4</ele>
        <time>2017-07-13T05:10:59Z</time>
      </trkpt>
      <trkpt lat="42.96923" lon="0.57535">
        <ele>552.2</ele>
        <time>2017-07-13T05:11:00Z</time>
      </trkpt>
      <trkpt lat="42.9692" lon="0.57533">
        <ele>552</ele>
        <time>2017-07-13T05:11:01Z</time>
      </trkpt>
      <trkpt lat="42.96917" lon="0.57531">
        <ele>551.7</ele>
        <time>2017-07-13T05:11:02Z</time>
      </trkpt>
      <trkpt lat="42.96914" lon="0.57528">
        <ele>552</ele>
        <time>2017-07-13T05:11:03Z</time>
      </trkpt>
      <trkpt lat="42.96911" lon="0.57526">
        <ele>552.4</ele>
        <time>2017-07-13T05:11:04Z</time>
      </trkpt>
      <trkpt lat="42.96908" lon="0.57524">
        <ele>552.8</ele>
        <time>2017-07-13T05:11:05Z</time>
      </trkpt>
      <trkpt lat="42.96905" lon="0.57521">
        <ele>553.2</ele>
        <time>2017-07-13T05:11:06Z</time>
      </trkpt>
      <trkpt lat="42.96902" lon="0.57519">
        <ele>553.6</ele>
        <time>2017-07-13T05:11:07Z</time>
      </trkpt>
      <trkpt lat="42.969" lon="0.57516">
        <ele>554</ele>
        <time>2017-07-13T05:11:08Z</time>
      </trkpt>
      <trkpt lat="42.96897" lon="0.57514">
        <ele>554.3</ele>
        <time>2017-07-13T05:11:09Z</time>
      </trkpt>
      <trkpt lat="42.96894" lon="0.57511">
        <ele>554.7</ele>
        <time>2017-07-13T05:11:10Z</time>
      </trkpt>
      <trkpt lat="42.96891" lon="0.57508">
        <ele>555</ele>
        <time>2017-07-13T05:11:11Z</time>
      </trkpt>
      <trkpt lat="42.96889" lon="0.57505">
        <ele>555.3</ele>
        <time>2017-07-13T05:11:12Z</time>
      </trkpt>
      <trkpt lat="42.96886" lon="0.57503">
        <ele>555.7</ele>
        <time>2017-07-13T05:11:13Z</time>
      </trkpt>
      <trkpt lat="42.96883" lon="0.575">
        <ele>556</ele>
        <time>2017-07-13T05:11:14Z</time>
      </trkpt>
      <trkpt lat="42.96881" lon="0.57497">
        <ele>556.6</ele>
        <time>2017-07-13T05:11:15Z</time>
      </trkpt>
      <trkpt lat="42.96878" lon="0.57494">
        <ele>557.1</ele>
        <time>2017-07-13T05:11:16Z</time>
      </trkpt>
      <trkpt lat="42.96876" lon="0.5749">
        <ele>557.7</ele>
        <time>2017-07-13T05:11:17Z</time>
      </trkpt>
      <trkpt lat="42.96873" lon="0.57487">
        <ele>558.1</ele>
        <time>2017-07-13T05:11:18Z</time>
      </trkpt>
      <trkpt lat="42.96871" lon="0.57484">
        <ele>558.5</ele>
        <time>2017-07-13T05:11:19Z</time>
      </trkpt>
      <trkpt lat="42.96869" lon="0.57481">
        <ele>558.9</ele>
        <time>2017-07-13T05:11:20Z</time>
      </trkpt>
      <trkpt lat="42.96866" lon="0.57477">
        <ele>559.2</ele>
        <time>2017-07-13T05:11:21Z</time>
      </trkpt>
      <trkpt lat="42.96864" lon="0.57474">
        <ele>559.5</ele>
        <time>2017-07-13T05:11:22Z</time>
      </trkpt>
      <trkpt lat="42.96862" lon="0.5747">
        <ele>559.8</ele>
        <time>2017-07-13T05:11:23Z</time>
      </trkpt>
      <trkpt lat="42.9686" lon="0.57467">
        <ele>560</ele>
        <time>2017-07-13T05:11:24Z</time>
      </trkpt>
      <trkpt lat="42.96858" lon="0.57463">
        <ele>560.1</ele>
        <time>2017-07-13T05:11:25Z</time>
      </trkpt>
      <trkpt lat="42.96856" lon="0.5746">
        <ele>560.3</ele>
        <time>2017-07-13T05:11:26Z</time>
      </trkpt>
      <trkpt lat="42.96853" lon="0.57456">
        <ele>560.4</ele>
        <time>2017-07-13T05:11:27Z</time>
      </trkpt>
      <trkpt lat="42.96851" lon="0.57453">
        <ele>560.4</ele>
        <time>2017-07-13T05:11:28Z</time>
      </trkpt>
      <trkpt lat="42.96849" lon="0.57449">
        <ele>560.4</ele>
        <time>2017-07-13T05:11:29Z</time>
      </trkpt>
      <trkpt lat="42.96847" lon="0.57446">
        <ele>560.4</ele>
        <time>2017-07-13T05:11:30Z</time>
      </trkpt>
      <trkpt lat="42.96845" lon="0.57442">
        <ele>560.4</ele>
        <time>2017-07-13T05:11:31Z</time>
      </trkpt>
      <trkpt lat="42.96843" lon="0.57438">
        <ele>560.3</ele>
        <time>2017-07-13T05:11:32Z</time>
      </trkpt>
      <trkpt lat="42.96841" lon="0.57435">
        <ele>560.2</ele>
        <time>2017-07-13T05:11:33Z</time>
      </trkpt>
      <trkpt lat="42.96839" lon="0.57431">
        <ele>560.1</ele>
        <time>2017-07-13T05:11:34Z</time>
      </trkpt>
      <trkpt lat="42.96837" lon="0.57428">
        <ele>559.9</ele>
        <time>2017-07-13T05:11:35Z</time>
      </trkpt>
      <trkpt lat="42.96834" lon="0.57424">
        <ele>559.7</ele>
        <time>2017-07-13T05:11:36Z</time>
      </trkpt>
      <trkpt lat="42.96832" lon="0.5742">
        <ele>559.6</ele>
        <time>2017-07-13T05:11:37Z</time>
      </trkpt>
      <trkpt lat="42.9683" lon="0.57417">
        <ele>559.5</ele>
        <time>2017-07-13T05:11:38Z</time>
      </trkpt>
      <trkpt lat="42.96828" lon="0.57413">
        <ele>559.6</ele>
        <time>2017-07-13T05:11:39Z</time>
      </trkpt>
      <trkpt lat="42.96826" lon="0.5741">
        <ele>559.7</ele>
        <time>2017-07-13T05:11:40Z</time>
      </trkpt>
      <trkpt lat="42.96823" lon="0.57406">
        <ele>559.9</ele>
        <time>2017-07-13T05:11:41Z</time>
      </trkpt>
      <trkpt lat="42.96821" lon="0.57403">
        <ele>560</ele>
        <time>2017-07-13T05:11:42Z</time>
      </trkpt>
      <trkpt lat="42.96819" lon="0.57399">
        <ele>560.1</ele>
        <time>2017-07-13T05:11:43Z</time>
      </trkpt>
      <trkpt lat="42.96816" lon="0.57396">
        <ele>560.2</ele>
        <time>2017-07-13T05:11:44Z</time>
      </trkpt>
      <trkpt lat="42.96814" lon="0.57393">
        <ele>560.3</ele>
        <time>2017-07-13T05:11:45Z</time>
      </trkpt>
      <trkpt lat="42.96811" lon="0.57389">
        <ele>560.3</ele>
        <time>2017-07-13T05:11:46Z</time>
      </trkpt>
      <trkpt lat="42.96809" lon="0.57386">
        <ele>560.4</ele>
        <time>2017-07-13T05:11:47Z</time>
      </trkpt>
      <trkpt lat="42.96806" lon="0.57383">
        <ele>560.5</ele>
        <time>2017-07-13T05:11:48Z</time>
      </trkpt>
      <trkpt lat="42.96803" lon="0.57379">
        <ele>560.5</ele>
        <time>2017-07-13T05:11:49Z</time>
      </trkpt>
      <trkpt lat="42.96801" lon="0.57376">
        <ele>560.5</ele>
        <time>2017-07-13T05:11:50Z</time>
      </trkpt>
      <trkpt lat="42.96798" lon="0.57373">
        <ele>560.6</ele>
        <time>2017-07-13T05:11:51Z</time>
      </trkpt>
      <trkpt lat="42.96795" lon="0.5737">
        <ele>560.6</ele>
        <time>2017-07-13T05:11:52Z</time>
      </trkpt>
      <trkpt lat="42.96792" lon="0.57367">
        <ele>560.6</ele>
        <time>2017-07-13T05:11:53Z</time>
      </trkpt>
      <trkpt lat="42.96789" lon="0.57364">
        <ele>560.6</ele>
        <time>2017-07-13T05:11:54Z</time>
      </trkpt>
      <trkpt lat="42.96786" lon="0.57361">
        <ele>560.6</ele>
        <time>2017-07-13T05:11:55Z</time>
      </trkpt>
      <trkpt lat="42.96783" lon="0.57359">
        <ele>560.6</ele>
        <time>2017-07-13T05:11:56Z</time>
      </trkpt>
      <trkpt lat="42.9678" lon="0.57356">
        <ele>560.6</ele>
        <time>2017-07-13T05:11:57Z</time>
      </trkpt>
      <trkpt lat="42.96777" lon="0.57354">
        <ele>560.6</ele>
        <time>2017-07-13T05:11:58Z</time>
      </trkpt>
      <trkpt lat="42.96774" lon="0.57351">
        <ele>560.6</ele>
        <time>2017-07-13T05:11:59Z</time>
      </trkpt>
      <trkpt lat="42.9677" lon="0.57349">
        <ele>560.6</ele>
        <time>2017-07-13T05:12:00Z</time>
      </trkpt>
      <trkpt lat="42.96767" lon="0.57347">
        <ele>560.6</ele>
        <time>2017-07-13T05:12:01Z</time>
      </trkpt>
      <trkpt lat="42.96764" lon="0.57346">
        <ele>560.6</ele>
        <time>2017-07-13T05:12:02Z</time>
      </trkpt>
      <trkpt lat="42.9676" lon="0.57344">
        <ele>560.7</ele>
        <time>2017-07-13T05:12:03Z</time>
      </trkpt>
      <trkpt lat="42.96757" lon="0.57343">
        <ele>560.7</ele>
        <time>2017-07-13T05:12:04Z</time>
      </trkpt>
      <trkpt lat="42.96753" lon="0.57342">
        <ele>560.8</ele>
        <time>2017-07-13T05:12:05Z</time>
      </trkpt>
      <trkpt lat="42.9675" lon="0.57341">
        <ele>560.9</ele>
        <time>2017-07-13T05:12:06Z</time>
      </trkpt>
      <trkpt lat="42.96746" lon="0.5734">
        <ele>561.2</ele>
        <time>2017-07-13T05:12:07Z</time>
      </trkpt>
      <trkpt lat="42.96743" lon="0.5734">
        <ele>561.4</ele>
        <time>2017-07-13T05:12:08Z</time>
      </trkpt>
      <trkpt lat="42.96739" lon="0.57339">
        <ele>561.7</ele>
        <time>2017-07-13T05:12:09Z</time>
      </trkpt>
      <trkpt lat="42.96735" lon="0.57338">
        <ele>562</ele>
        <time>2017-07-13T05:12:10Z</time>
      </trkpt>
      <trkpt lat="42.96732" lon="0.57337">
        <ele>562.2</ele>
        <time>2017-07-13T05:12:11Z</time>
      </trkpt>
      <trkpt lat="42.96728" lon="0.57336">
        <ele>562.4</ele>
        <time>2017-07-13T05:12:12Z</time>
      </trkpt>
      <trkpt lat="42.96724" lon="0.57335">
        <ele>562.7</ele>
        <time>2017-07-13T05:12:13Z</time>
      </trkpt>
      <trkpt lat="42.96721" lon="0.57334">
        <ele>562.9</ele>
        <time>2017-07-13T05:12:14Z</time>
      </trkpt>
      <trkpt lat="42.96717" lon="0.57333">
        <ele>563.2</ele>
        <time>2017-07-13T05:12:15Z</time>
      </trkpt>
      <trkpt lat="42.96713" lon="0.57332">
        <ele>563.5</ele>
        <time>2017-07-13T05:12:16Z</time>
      </trkpt>
      <trkpt lat="42.9671" lon="0.57331">
        <ele>563.8</ele>
        <time>2017-07-13T05:12:17Z</time>
      </trkpt>
      <trkpt lat="42.96706" lon="0.5733">
        <ele>564.1</ele>
        <time>2017-07-13T05:12:18Z</time>
      </trkpt>
      <trkpt lat="42.96702" lon="0.57329">
        <ele>564.4</ele>
        <time>2017-07-13T05:12:19Z</time>
      </trkpt>
      <trkpt lat="42.96699" lon="0.57328">
        <ele>564.7</ele>
        <time>2017-07-13T05:12:20Z</time>
      </trkpt>
      <trkpt lat="42.96695" lon="0.57327">
        <ele>564.9</ele>
        <time>2017-07-13T05:12:21Z</time>
      </trkpt>
      <trkpt lat="42.96692" lon="0.57326">
        <ele>565.2</ele>
        <time>2017-07-13T05:12:22Z</time>
      </trkpt>
      <trkpt lat="42.96688" lon="0.57326">
        <ele>565.4</ele>
        <time>2017-07-13T05:12:23Z</time>
      </trkpt>
      <trkpt lat="42.96684" lon="0.57325">
        <ele>565.6</ele>
        <time>2017-07-13T05:12:24Z</time>
      </trkpt>
      <trkpt lat="42.96681" lon="0.57324">
        <ele>565.9</ele>
        <time>2017-07-13T05:12:25Z</time>
      </trkpt>
      <trkpt lat="42.96677" lon="0.57323">
        <ele>566.1</ele>
        <time>2017-07-13T05:12:26Z</time>
      </trkpt>
      <trkpt lat="42.96673" lon="0.57322">
        <ele>566.3</ele>
        <time>2017-07-13T05:12:27Z</time>
      </trkpt>
      <trkpt lat="42.9667" lon="0.57321">
        <ele>566.4</ele>
        <time>2017-07-13T05:12:28Z</time>
      </trkpt>
      <trkpt lat="42.96666" lon="0.5732">
        <ele>566.6</ele>
        <time>2017-07-13T05:12:29Z</time>
      </trkpt>
      <trkpt lat="42.96663" lon="0.57318">
        <ele>566.8</ele>
        <time>2017-07-13T05:12:30Z</time>
      </trkpt>
      <trkpt lat="42.96659" lon="0.57317">
        <ele>567.1</ele>
        <time>2017-07-13T05:12:31Z</time>
      </trkpt>
      <trkpt lat="42.96656" lon="0.57315">
        <ele>567.3</ele>
        <time>2017-07-13T05:12:32Z</time>
      </trkpt>
      <trkpt lat="42.96652" lon="0.57314">
        <ele>567.5</ele>
        <time>2017-07-13T05:12:33Z</time>
      </trkpt>
      <trkpt lat="42.96649" lon="0.57312">
        <ele>567.7</ele>
        <time>2017-07-13T05:12:34Z</time>
      </trkpt>
      <trkpt lat="42.96645" lon="0.57311">
        <ele>567.9</ele>
        <time>2017-07-13T05:12:35Z</time>
      </trkpt>
      <trkpt lat="42.96642" lon="0.57309">
        <ele>568.1</ele>
        <time>2017-07-13T05:12:36Z</time>
      </trkpt>
      <trkpt lat="42.96638" lon="0.57308">
        <ele>568.3</ele>
        <time>2017-07-13T05:12:37Z</time>
      </trkpt>
      <trkpt lat="42.96635" lon="0.57307">
        <ele>568.5</ele>
        <time>2017-07-13T05:12:38Z</time>
      </trkpt>
      <trkpt lat="42.96632" lon="0.57305">
        <ele>568.8</ele>
        <time>2017-07-13T05:12:39Z</time>
      </trkpt>
      <trkpt lat="42.96628" lon="0.57304">
        <ele>569</ele>
        <time>2017-07-13T05:12:40Z</time>
      </trkpt>
      <trkpt lat="42.96625" lon="0.57304">
        <ele>569.3</ele>
        <time>2017-07-13T05:12:41Z</time>
      </trkpt>
      <trkpt lat="42.96621" lon="0.57303">
        <ele>569.6</ele>
        <time>2017-07-13T05:12:42Z</time>
      </trkpt>
      <trkpt lat="42.96618" lon="0.57303">
        <ele>569.9</ele>
        <time>2017-07-13T05:12:43Z</time>
      </trkpt>
      <trkpt lat="42.96615" lon="0.57303">
        <ele>570.3</ele>
        <time>2017-07-13T05:12:44Z</time>
      </trkpt>
      <trkpt lat="42.96611" lon="0.57303">
        <ele>570.7</ele>
        <time>2017-07-13T05:12:45Z</time>
      </trkpt>
      <trkpt lat="42.96608" lon="0.57303">
        <ele>571.1</ele>
        <time>2017-07-13T05:12:46Z</time>
      </trkpt>
      <trkpt lat="42.96604" lon="0.57304">
        <ele>571.5</ele>
        <time>2017-07-13T05:12:47Z</time>
      </trkpt>
      <trkpt lat="42.96601" lon="0.57304">
        <ele>572</ele>
        <time>2017-07-13T05:12:48Z</time>
      </trkpt>
      <trkpt lat="42.96597" lon="0.57305">
        <ele>572.5</ele>
        <time>2017-07-13T05:12:49Z</time>
      </trkpt>
      <trkpt lat="42.96594" lon="0.57306">
        <ele>573</ele>
        <time>2017-07-13T05:12:50Z</time>
      </trkpt>
      <trkpt lat="42.9659" lon="0.57307">
        <ele>573.5</ele>
        <time>2017-07-13T05:12:51Z</time>
      </trkpt>
      <trkpt lat="42.96586" lon="0.57308">
        <ele>574</ele>
        <time>2017-07-13T05:12:52Z</time>
      </trkpt>
      <trkpt lat="42.96583" lon="0.57309">
        <ele>574.5</ele>
        <time>2017-07-13T05:12:53Z</time>
      </trkpt>
      <trkpt lat="42.96579" lon="0.5731">
        <ele>574.6</ele>
        <time>2017-07-13T05:12:54Z</time>
      </trkpt>
      <trkpt lat="42.96576" lon="0.5731">
        <ele>574.7</ele>
        <time>2017-07-13T05:12:55Z</time>
      </trkpt>
      <trkpt lat="42.96572" lon="0.57311">
        <ele>574.7</ele>
        <time>2017-07-13T05:12:56Z</time>
      </trkpt>
      <trkpt lat="42.96569" lon="0.57311">
        <ele>574.8</ele>
        <time>2017-07-13T05:12:57Z</time>
      </trkpt>
      <trkpt lat="42.96566" lon="0.57312">
        <ele>574.8</ele>
        <time>2017-07-13T05:12:58Z</time>
      </trkpt>
      <trkpt lat="42.96562" lon="0.57312">
        <ele>574.8</ele>
        <time>2017-07-13T05:12:59Z</time>
      </trkpt>
      <trkpt lat="42.96558" lon="0.57313">
        <ele>574.8</ele>
        <time>2017-07-13T05:13:00Z</time>
      </trkpt>
      <trkpt lat="42.96555" lon="0.57313">
        <ele>574.9</ele>
        <time>2017-07-13T05:13:01Z</time>
      </trkpt>
      <trkpt lat="42.96551" lon="0.57313">
        <ele>574.8</ele>
        <time>2017-07-13T05:13:02Z</time>
      </trkpt>
      <trkpt lat="42.96547" lon="0.57313">
        <ele>574.8</ele>
        <time>2017-07-13T05:13:03Z</time>
      </trkpt>
      <trkpt lat="42.96542" lon="0.57313">
        <ele>574.8</ele>
        <time>2017-07-13T05:13:04Z</time>
      </trkpt>
      <trkpt lat="42.96538" lon="0.57312">
        <ele>574.7</ele>
        <time>2017-07-13T05:13:05Z</time>
      </trkpt>
      <trkpt lat="42.96534" lon="0.57311">
        <ele>574.6</ele>
        <time>2017-07-13T05:13:06Z</time>
      </trkpt>
      <trkpt lat="42.96529" lon="0.5731">
        <ele>574.4</ele>
        <time>2017-07-13T05:13:07Z</time>
      </trkpt>
      <trkpt lat="42.96525" lon="0.57308">
        <ele>574.2</ele>
        <time>2017-07-13T05:13:08Z</time>
      </trkpt>
      <trkpt lat="42.9652" lon="0.57306">
        <ele>574</ele>
        <time>2017-07-13T05:13:09Z</time>
      </trkpt>
      <trkpt lat="42.96515" lon="0.57303">
        <ele>573.8</ele>
        <time>2017-07-13T05:13:10Z</time>
      </trkpt>
      <trkpt lat="42.9651" lon="0.573">
        <ele>573.6</ele>
        <time>2017-07-13T05:13:11Z</time>
      </trkpt>
      <trkpt lat="42.96505" lon="0.57297">
        <ele>573.4</ele>
        <time>2017-07-13T05:13:12Z</time>
      </trkpt>
      <trkpt lat="42.96501" lon="0.57294">
        <ele>573.1</ele>
        <time>2017-07-13T05:13:13Z</time>
      </trkpt>
      <trkpt lat="42.96496" lon="0.5729">
        <ele>573.6</ele>
        <time>2017-07-13T05:13:14Z</time>
      </trkpt>
      <trkpt lat="42.96492" lon="0.57287">
        <ele>574.1</ele>
        <time>2017-07-13T05:13:15Z</time>
      </trkpt>
      <trkpt lat="42.96487" lon="0.57283">
        <ele>574.6</ele>
        <time>2017-07-13T05:13:16Z</time>
      </trkpt>
      <trkpt lat="42.96483" lon="0.57279">
        <ele>575.1</ele>
        <time>2017-07-13T05:13:17Z</time>
      </trkpt>
      <trkpt lat="42.96479" lon="0.57275">
        <ele>575.5</ele>
        <time>2017-07-13T05:13:18Z</time>
      </trkpt>
      <trkpt lat="42.96475" lon="0.57271">
        <ele>575.9</ele>
        <time>2017-07-13T05:13:19Z</time>
      </trkpt>
      <trkpt lat="42.96471" lon="0.57267">
        <ele>576.2</ele>
        <time>2017-07-13T05:13:20Z</time>
      </trkpt>
      <trkpt lat="42.96467" lon="0.57263">
        <ele>576.5</ele>
        <time>2017-07-13T05:13:21Z</time>
      </trkpt>
      <trkpt lat="42.96464" lon="0.57258">
        <ele>576.7</ele>
        <time>2017-07-13T05:13:22Z</time>
      </trkpt>
      <trkpt lat="42.96461" lon="0.57254">
        <ele>576.9</ele>
        <time>2017-07-13T05:13:23Z</time>
      </trkpt>
      <trkpt lat="42.96457" lon="0.57249">
        <ele>577.1</ele>
        <time>2017-07-13T05:13:24Z</time>
      </trkpt>
      <trkpt lat="42.96454" lon="0.57245">
        <ele>577.1</ele>
        <time>2017-07-13T05:13:25Z</time>
      </trkpt>
      <trkpt lat="42.96451" lon="0.5724">
        <ele>577.1</ele>
        <time>2017-07-13T05:13:26Z</time>
      </trkpt>
      <trkpt lat="42.96448" lon="0.57236">
        <ele>577.2</ele>
        <time>2017-07-13T05:13:27Z</time>
      </trkpt>
      <trkpt lat="42.96446" lon="0.57232">
        <ele>577.2</ele>
        <time>2017-07-13T05:13:28Z</time>
      </trkpt>
      <trkpt lat="42.96443" lon="0.57227">
        <ele>577.2</ele>
        <time>2017-07-13T05:13:29Z</time>
      </trkpt>
      <trkpt lat="42.9644" lon="0.57223">
        <ele>577.2</ele>
        <time>2017-07-13T05:13:30Z</time>
      </trkpt>
      <trkpt lat="42.96437" lon="0.57219">
        <ele>577.2</ele>
        <time>2017-07-13T05:13:31Z</time>
      </trkpt>
      <trkpt lat="42.96434" lon="0.57215">
        <ele>577.2</ele>
        <time>2017-07-13T05:13:32Z</time>
      </trkpt>
      <trkpt lat="42.96432" lon="0.5721">
        <ele>577.2</ele>
        <time>2017-07-13T05:13:33Z</time>
      </trkpt>
      <trkpt lat="42.96429" lon="0.57206">
        <ele>577.2</ele>
        <time>2017-07-13T05:13:34Z</time>
      </trkpt>
      <trkpt lat="42.96426" lon="0.57202">
        <ele>577.2</ele>
        <time>2017-07-13T05:13:35Z</time>
      </trkpt>
      <trkpt lat="42.96423" lon="0.57197">
        <ele>577.3</ele>
        <time>2017-07-13T05:13:36Z</time>
      </trkpt>
      <trkpt lat="42.9642" lon="0.57193">
        <ele>577.3</ele>
        <time>2017-07-13T05:13:37Z</time>
      </trkpt>
      <trkpt lat="42.96417" lon="0.57189">
        <ele>577.3</ele>
        <time>2017-07-13T05:13:38Z</time>
      </trkpt>
      <trkpt lat="42.96414" lon="0.57184">
        <ele>577.2</ele>
        <time>2017-07-13T05:13:39Z</time>
      </trkpt>
      <trkpt lat="42.96411" lon="0.5718">
        <ele>577.1</ele>
        <time>2017-07-13T05:13:40Z</time>
      </trkpt>
      <trkpt lat="42.96408" lon="0.57175">
        <ele>577.1</ele>
        <time>2017-07-13T05:13:41Z</time>
      </trkpt>
      <trkpt lat="42.96405" lon="0.57171">
        <ele>577</ele>
        <time>2017-07-13T05:13:42Z</time>
      </trkpt>
      <trkpt lat="42.96402" lon="0.57166">
        <ele>576.9</ele>
        <time>2017-07-13T05:13:43Z</time>
      </trkpt>
      <trkpt lat="42.96399" lon="0.57161">
        <ele>576.7</ele>
        <time>2017-07-13T05:13:44Z</time>
      </trkpt>
      <trkpt lat="42.96396" lon="0.57157">
        <ele>576.5</ele>
        <time>2017-07-13T05:13:45Z</time>
      </trkpt>
      <trkpt lat="42.96393" lon="0.57152">
        <ele>576.2</ele>
        <time>2017-07-13T05:13:46Z</time>
      </trkpt>
      <trkpt lat="42.9639" lon="0.57147">
        <ele>576</ele>
        <time>2017-07-13T05:13:47Z</time>
      </trkpt>
      <trkpt lat="42.96388" lon="0.57142">
        <ele>575.6</ele>
        <time>2017-07-13T05:13:48Z</time>
      </trkpt>
      <trkpt lat="42.96386" lon="0.57137">
        <ele>575.3</ele>
        <time>2017-07-13T05:13:49Z</time>
      </trkpt>
      <trkpt lat="42.96384" lon="0.57131">
        <ele>574.8</ele>
        <time>2017-07-13T05:13:50Z</time>
      </trkpt>
      <trkpt lat="42.96382" lon="0.57125">
        <ele>574.3</ele>
        <time>2017-07-13T05:13:51Z</time>
      </trkpt>
      <trkpt lat="42.9638" lon="0.57119">
        <ele>573.7</ele>
        <time>2017-07-13T05:13:52Z</time>
      </trkpt>
      <trkpt lat="42.96379" lon="0.57112">
        <ele>573</ele>
        <time>2017-07-13T05:13:53Z</time>
      </trkpt>
      <trkpt lat="42.96378" lon="0.57105">
        <ele>572.3</ele>
        <time>2017-07-13T05:13:54Z</time>
      </trkpt>
      <trkpt lat="42.96376" lon="0.57098">
        <ele>571.6</ele>
        <time>2017-07-13T05:13:55Z</time>
      </trkpt>
      <trkpt lat="42.96375" lon="0.5709">
        <ele>570.9</ele>
        <time>2017-07-13T05:13:56Z</time>
      </trkpt>
      <trkpt lat="42.96373" lon="0.57083">
        <ele>570.2</ele>
        <time>2017-07-13T05:13:57Z</time>
      </trkpt>
      <trkpt lat="42.96371" lon="0.57076">
        <ele>569.9</ele>
        <time>2017-07-13T05:13:58Z</time>
      </trkpt>
      <trkpt lat="42.96369" lon="0.57069">
        <ele>569.6</ele>
        <time>2017-07-13T05:13:59Z</time>
      </trkpt>
      <trkpt lat="42.96366" lon="0.57062">
        <ele>569.3</ele>
        <time>2017-07-13T05:14:00Z</time>
      </trkpt>
      <trkpt lat="42.96363" lon="0.57055">
        <ele>569.1</ele>
        <time>2017-07-13T05:14:01Z</time>
      </trkpt>
      <trkpt lat="42.96359" lon="0.57049">
        <ele>568.9</ele>
        <time>2017-07-13T05:14:02Z</time>
      </trkpt>
      <trkpt lat="42.96355" lon="0.57043">
        <ele>568.7</ele>
        <time>2017-07-13T05:14:03Z</time>
      </trkpt>
      <trkpt lat="42.96351" lon="0.57037">
        <ele>568.5</ele>
        <time>2017-07-13T05:14:04Z</time>
      </trkpt>
      <trkpt lat="42.96347" lon="0.57031">
        <ele>568.4</ele>
        <time>2017-07-13T05:14:05Z</time>
      </trkpt>
      <trkpt lat="42.96343" lon="0.57026">
        <ele>568.2</ele>
        <time>2017-07-13T05:14:06Z</time>
      </trkpt>
      <trkpt lat="42.96338" lon="0.57021">
        <ele>568.1</ele>
        <time>2017-07-13T05:14:07Z</time>
      </trkpt>
      <trkpt lat="42.96333" lon="0.57016">
        <ele>567.9</ele>
        <time>2017-07-13T05:14:08Z</time>
      </trkpt>
      <trkpt lat="42.96328" lon="0.57011">
        <ele>567.5</ele>
        <time>2017-07-13T05:14:09Z</time>
      </trkpt>
      <trkpt lat="42.96323" lon="0.57007">
        <ele>567.2</ele>
        <time>2017-07-13T05:14:10Z</time>
      </trkpt>
      <trkpt lat="42.96317" lon="0.57002">
        <ele>566.8</ele>
        <time>2017-07-13T05:14:11Z</time>
      </trkpt>
      <trkpt lat="42.96312" lon="0.56998">
        <ele>566.6</ele>
        <time>2017-07-13T05:14:12Z</time>
      </trkpt>
      <trkpt lat="42.96306" lon="0.56994">
        <ele>566.6</ele>
        <time>2017-07-13T05:14:13Z</time>
      </trkpt>
      <trkpt lat="42.96301" lon="0.5699">
        <ele>566.5</ele>
        <time>2017-07-13T05:14:14Z</time>
      </trkpt>
      <trkpt lat="42.96295" lon="0.56987">
        <ele>566.4</ele>
        <time>2017-07-13T05:14:15Z</time>
      </trkpt>
      <trkpt lat="42.96289" lon="0.56983">
        <ele>566.2</ele>
        <time>2017-07-13T05:14:16Z</time>
      </trkpt>
      <trkpt lat="42.96283" lon="0.5698">
        <ele>566.1</ele>
        <time>2017-07-13T05:14:17Z</time>
      </trkpt>
      <trkpt lat="42.96277" lon="0.56976">
        <ele>565.9</ele>
        <time>2017-07-13T05:14:18Z</time>
      </trkpt>
      <trkpt lat="42.96271" lon="0.56973">
        <ele>565.7</ele>
        <time>2017-07-13T05:14:19Z</time>
      </trkpt>
      <trkpt lat="42.96265" lon="0.5697">
        <ele>565.5</ele>
        <time>2017-07-13T05:14:20Z</time>
      </trkpt>
      <trkpt lat="42.96259" lon="0.56967">
        <ele>565.3</ele>
        <time>2017-07-13T05:14:21Z</time>
      </trkpt>
      <trkpt lat="42.96253" lon="0.56964">
        <ele>565</ele>
        <time>2017-07-13T05:14:22Z</time>
      </trkpt>
      <trkpt lat="42.96247" lon="0.56961">
        <ele>564.9</ele>
        <time>2017-07-13T05:14:23Z</time>
      </trkpt>
      <trkpt lat="42.96241" lon="0.56958">
        <ele>564.8</ele>
        <time>2017-07-13T05:14:24Z</time>
      </trkpt>
      <trkpt lat="42.96235" lon="0.56955">
        <ele>564.7</ele>
        <time>2017-07-13T05:14:25Z</time>
      </trkpt>
      <trkpt lat="42.96229" lon="0.56952">
        <ele>564.6</ele>
        <time>2017-07-13T05:14:26Z</time>
      </trkpt>
      <trkpt lat="42.96224" lon="0.56949">
        <ele>564.6</ele>
        <time>2017-07-13T05:14:27Z</time>
      </trkpt>
      <trkpt lat="42.96218" lon="0.56947">
        <ele>564.6</ele>
        <time>2017-07-13T05:14:28Z</time>
      </trkpt>
      <trkpt lat="42.96213" lon="0.56944">
        <ele>564.6</ele>
        <time>2017-07-13T05:14:29Z</time>
      </trkpt>
      <trkpt lat="42.96208" lon="0.56942">
        <ele>564.6</ele>
        <time>2017-07-13T05:14:30Z</time>
      </trkpt>
      <trkpt lat="42.96204" lon="0.5694">
        <ele>564.6</ele>
        <time>2017-07-13T05:14:31Z</time>
      </trkpt>
      <trkpt lat="42.96199" lon="0.56938">
        <ele>564.7</ele>
        <time>2017-07-13T05:14:32Z</time>
      </trkpt>
      <trkpt lat="42.96195" lon="0.56935">
        <ele>564.7</ele>
        <time>2017-07-13T05:14:33Z</time>
      </trkpt>
      <trkpt lat="42.96191" lon="0.56933">
        <ele>564.8</ele>
        <time>2017-07-13T05:14:34Z</time>
      </trkpt>
      <trkpt lat="42.96187" lon="0.56931">
        <ele>564.8</ele>
        <time>2017-07-13T05:14:35Z</time>
      </trkpt>
      <trkpt lat="42.96183" lon="0.56929">
        <ele>564.9</ele>
        <time>2017-07-13T05:14:36Z</time>
      </trkpt>
      <trkpt lat="42.9618" lon="0.56927">
        <ele>564.9</ele>
        <time>2017-07-13T05:14:37Z</time>
      </trkpt>
      <trkpt lat="42.96176" lon="0.56926">
        <ele>565</ele>
        <time>2017-07-13T05:14:38Z</time>
      </trkpt>
      <trkpt lat="42.96172" lon="0.56924">
        <ele>565.1</ele>
        <time>2017-07-13T05:14:39Z</time>
      </trkpt>
      <trkpt lat="42.96169" lon="0.56922">
        <ele>565.2</ele>
        <time>2017-07-13T05:14:40Z</time>
      </trkpt>
      <trkpt lat="42.96166" lon="0.5692">
        <ele>565.3</ele>
        <time>2017-07-13T05:14:41Z</time>
      </trkpt>
      <trkpt lat="42.96162" lon="0.56918">
        <ele>565.6</ele>
        <time>2017-07-13T05:14:42Z</time>
      </trkpt>
      <trkpt lat="42.96159" lon="0.56916">
        <ele>566</ele>
        <time>2017-07-13T05:14:43Z</time>
      </trkpt>
      <trkpt lat="42.96155" lon="0.56914">
        <ele>566.4</ele>
        <time>2017-07-13T05:14:44Z</time>
      </trkpt>
      <trkpt lat="42.96152" lon="0.56912">
        <ele>566.7</ele>
        <time>2017-07-13T05:14:45Z</time>
      </trkpt>
      <trkpt lat="42.96148" lon="0.5691">
        <ele>567.1</ele>
        <time>2017-07-13T05:14:46Z</time>
      </trkpt>
      <trkpt lat="42.96144" lon="0.56908">
        <ele>567.5</ele>
        <time>2017-07-13T05:14:47Z</time>
      </trkpt>
      <trkpt lat="42.96141" lon="0.56907">
        <ele>567.8</ele>
        <time>2017-07-13T05:14:48Z</time>
      </trkpt>
      <trkpt lat="42.96137" lon="0.56905">
        <ele>568.2</ele>
        <time>2017-07-13T05:14:49Z</time>
      </trkpt>
      <trkpt lat="42.96134" lon="0.56903">
        <ele>568.5</ele>
        <time>2017-07-13T05:14:50Z</time>
      </trkpt>
      <trkpt lat="42.9613" lon="0.56901">
        <ele>568.8</ele>
        <time>2017-07-13T05:14:51Z</time>
      </trkpt>
      <trkpt lat="42.96127" lon="0.56899">
        <ele>569.2</ele>
        <time>2017-07-13T05:14:52Z</time>
      </trkpt>
      <trkpt lat="42.96123" lon="0.56897">
        <ele>569.5</ele>
        <time>2017-07-13T05:14:53Z</time>
      </trkpt>
      <trkpt lat="42.9612" lon="0.56895">
        <ele>569.8</ele>
        <time>2017-07-13T05:14:54Z</time>
      </trkpt>
      <trkpt lat="42.96116" lon="0.56893">
        <ele>570.1</ele>
        <time>2017-07-13T05:14:55Z</time>
      </trkpt>
      <trkpt lat="42.96112" lon="0.56891">
        <ele>570.4</ele>
        <time>2017-07-13T05:14:56Z</time>
      </trkpt>
      <trkpt lat="42.96109" lon="0.56889">
        <ele>570.7</ele>
        <time>2017-07-13T05:14:57Z</time>
      </trkpt>
      <trkpt lat="42.96105" lon="0.56887">
        <ele>571</ele>
        <time>2017-07-13T05:14:58Z</time>
      </trkpt>
      <trkpt lat="42.96102" lon="0.56886">
        <ele>571.3</ele>
        <time>2017-07-13T05:14:59Z</time>
      </trkpt>
      <trkpt lat="42.96098" lon="0.56884">
        <ele>571.5</ele>
        <time>2017-07-13T05:15:00Z</time>
      </trkpt>
      <trkpt lat="42.96095" lon="0.56882">
        <ele>571.8</ele>
        <time>2017-07-13T05:15:01Z</time>
      </trkpt>
      <trkpt lat="42.96091" lon="0.5688">
        <ele>572.1</ele>
        <time>2017-07-13T05:15:02Z</time>
      </trkpt>
      <trkpt lat="42.96088" lon="0.56879">
        <ele>572.3</ele>
        <time>2017-07-13T05:15:03Z</time>
      </trkpt>
      <trkpt lat="42.96084" lon="0.56877">
        <ele>572.5</ele>
        <time>2017-07-13T05:15:04Z</time>
      </trkpt>
      <trkpt lat="42.96081" lon="0.56875">
        <ele>572.7</ele>
        <time>2017-07-13T05:15:05Z</time>
      </trkpt>
      <trkpt lat="42.96077" lon="0.56873">
        <ele>572.8</ele>
        <time>2017-07-13T05:15:06Z</time>
      </trkpt>
      <trkpt lat="42.96074" lon="0.56871">
        <ele>572.8</ele>
        <time>2017-07-13T05:15:07Z</time>
      </trkpt>
      <trkpt lat="42.96071" lon="0.56869">
        <ele>572.9</ele>
        <time>2017-07-13T05:15:08Z</time>
      </trkpt>
      <trkpt lat="42.96068" lon="0.56867">
        <ele>572.9</ele>
        <time>2017-07-13T05:15:09Z</time>
      </trkpt>
      <trkpt lat="42.96065" lon="0.56865">
        <ele>573</ele>
        <time>2017-07-13T05:15:10Z</time>
      </trkpt>
      <trkpt lat="42.96062" lon="0.56862">
        <ele>573</ele>
        <time>2017-07-13T05:15:11Z</time>
      </trkpt>
      <trkpt lat="42.96059" lon="0.5686">
        <ele>572.9</ele>
        <time>2017-07-13T05:15:12Z</time>
      </trkpt>
      <trkpt lat="42.96056" lon="0.56857">
        <ele>572.9</ele>
        <time>2017-07-13T05:15:13Z</time>
      </trkpt>
      <trkpt lat="42.96054" lon="0.56854">
        <ele>572.8</ele>
        <time>2017-07-13T05:15:14Z</time>
      </trkpt>
      <trkpt lat="42.96052" lon="0.56851">
        <ele>572.7</ele>
        <time>2017-07-13T05:15:15Z</time>
      </trkpt>
      <trkpt lat="42.96049" lon="0.56847">
        <ele>572.6</ele>
        <time>2017-07-13T05:15:16Z</time>
      </trkpt>
      <trkpt lat="42.96047" lon="0.56845">
        <ele>572.5</ele>
        <time>2017-07-13T05:15:17Z</time>
      </trkpt>
      <trkpt lat="42.96044" lon="0.56842">
        <ele>572.5</ele>
        <time>2017-07-13T05:15:18Z</time>
      </trkpt>
      <trkpt lat="42.96041" lon="0.5684">
        <ele>572.5</ele>
        <time>2017-07-13T05:15:19Z</time>
      </trkpt>
      <trkpt lat="42.96038" lon="0.56838">
        <ele>572.5</ele>
        <time>2017-07-13T05:15:20Z</time>
      </trkpt>
      <trkpt lat="42.96035" lon="0.56837">
        <ele>572.6</ele>
        <time>2017-07-13T05:15:21Z</time>
      </trkpt>
      <trkpt lat="42.96032" lon="0.56837">
        <ele>572.7</ele>
        <time>2017-07-13T05:15:22Z</time>
      </trkpt>
      <trkpt lat="42.96028" lon="0.56837">
        <ele>572.9</ele>
        <time>2017-07-13T05:15:23Z</time>
      </trkpt>
      <trkpt lat="42.96025" lon="0.56838">
        <ele>573.2</ele>
        <time>2017-07-13T05:15:24Z</time>
      </trkpt>
      <trkpt lat="42.96021" lon="0.5684">
        <ele>573.5</ele>
        <time>2017-07-13T05:15:25Z</time>
      </trkpt>
      <trkpt lat="42.96018" lon="0.56842">
        <ele>573.8</ele>
        <time>2017-07-13T05:15:26Z</time>
      </trkpt>
      <trkpt lat="42.96014" lon="0.56843">
        <ele>574.1</ele>
        <time>2017-07-13T05:15:27Z</time>
      </trkpt>
      <trkpt lat="42.9601" lon="0.56845">
        <ele>574.4</ele>
        <time>2017-07-13T05:15:28Z</time>
      </trkpt>
      <trkpt lat="42.96007" lon="0.56845">
        <ele>574.6</ele>
        <time>2017-07-13T05:15:29Z</time>
      </trkpt>
      <trkpt lat="42.96003" lon="0.56845">
        <ele>574.8</ele>
        <time>2017-07-13T05:15:30Z</time>
      </trkpt>
      <trkpt lat="42.96" lon="0.56844">
        <ele>575</ele>
        <time>2017-07-13T05:15:31Z</time>
      </trkpt>
      <trkpt lat="42.95996" lon="0.56843">
        <ele>575.6</ele>
        <time>2017-07-13T05:15:32Z</time>
      </trkpt>
      <trkpt lat="42.95993" lon="0.56841">
        <ele>576</ele>
        <time>2017-07-13T05:15:33Z</time>
      </trkpt>
      <trkpt lat="42.9599" lon="0.56839">
        <ele>576.5</ele>
        <time>2017-07-13T05:15:34Z</time>
      </trkpt>
      <trkpt lat="42.95986" lon="0.56836">
        <ele>576.9</ele>
        <time>2017-07-13T05:15:35Z</time>
      </trkpt>
      <trkpt lat="42.95984" lon="0.56833">
        <ele>577.1</ele>
        <time>2017-07-13T05:15:36Z</time>
      </trkpt>
      <trkpt lat="42.95981" lon="0.5683">
        <ele>577.6</ele>
        <time>2017-07-13T05:15:37Z</time>
      </trkpt>
      <trkpt lat="42.95978" lon="0.56826">
        <ele>578</ele>
        <time>2017-07-13T05:15:38Z</time>
      </trkpt>
      <trkpt lat="42.95976" lon="0.56822">
        <ele>578.4</ele>
        <time>2017-07-13T05:15:39Z</time>
      </trkpt>
      <trkpt lat="42.95973" lon="0.56818">
        <ele>578.7</ele>
        <time>2017-07-13T05:15:40Z</time>
      </trkpt>
      <trkpt lat="42.9597" lon="0.56814">
        <ele>578.9</ele>
        <time>2017-07-13T05:15:41Z</time>
      </trkpt>
      <trkpt lat="42.95968" lon="0.56809">
        <ele>579.1</ele>
        <time>2017-07-13T05:15:42Z</time>
      </trkpt>
      <trkpt lat="42.95965" lon="0.56804">
        <ele>579.3</ele>
        <time>2017-07-13T05:15:43Z</time>
      </trkpt>
      <trkpt lat="42.95962" lon="0.56799">
        <ele>579.4</ele>
        <time>2017-07-13T05:15:44Z</time>
      </trkpt>
      <trkpt lat="42.95959" lon="0.56793">
        <ele>579.5</ele>
        <time>2017-07-13T05:15:45Z</time>
      </trkpt>
      <trkpt lat="42.95955" lon="0.56788">
        <ele>579.6</ele>
        <time>2017-07-13T05:15:46Z</time>
      </trkpt>
      <trkpt lat="42.95952" lon="0.56782">
        <ele>579.6</ele>
        <time>2017-07-13T05:15:47Z</time>
      </trkpt>
      <trkpt lat="42.95949" lon="0.56777">
        <ele>579.5</ele>
        <time>2017-07-13T05:15:48Z</time>
      </trkpt>
      <trkpt lat="42.95946" lon="0.56771">
        <ele>579.3</ele>
        <time>2017-07-13T05:15:49Z</time>
      </trkpt>
      <trkpt lat="42.95943" lon="0.56766">
        <ele>579.1</ele>
        <time>2017-07-13T05:15:50Z</time>
      </trkpt>
      <trkpt lat="42.95942" lon="0.5676">
        <ele>578.7</ele>
        <time>2017-07-13T05:15:51Z</time>
      </trkpt>
      <trkpt lat="42.95941" lon="0.56756">
        <ele>578.3</ele>
        <time>2017-07-13T05:15:52Z</time>
      </trkpt>
      <trkpt lat="42.95942" lon="0.56751">
        <ele>577.9</ele>
        <time>2017-07-13T05:15:53Z</time>
      </trkpt>
      <trkpt lat="42.95944" lon="0.56747">
        <ele>577.7</ele>
        <time>2017-07-13T05:15:54Z</time>
      </trkpt>
      <trkpt lat="42.95946" lon="0.56743">
        <ele>577.7</ele>
        <time>2017-07-13T05:15:55Z</time>
      </trkpt>
      <trkpt lat="42.95949" lon="0.56739">
        <ele>577.6</ele>
        <time>2017-07-13T05:15:56Z</time>
      </trkpt>
      <trkpt lat="42.95952" lon="0.56736">
        <ele>577.6</ele>
        <time>2017-07-13T05:15:57Z</time>
      </trkpt>
      <trkpt lat="42.95956" lon="0.56732">
        <ele>577.6</ele>
        <time>2017-07-13T05:15:58Z</time>
      </trkpt>
      <trkpt lat="42.95959" lon="0.56729">
        <ele>577.6</ele>
        <time>2017-07-13T05:15:59Z</time>
      </trkpt>
      <trkpt lat="42.95962" lon="0.56726">
        <ele>577.7</ele>
        <time>2017-07-13T05:16:00Z</time>
      </trkpt>
      <trkpt lat="42.95964" lon="0.56724">
        <ele>577.7</ele>
        <time>2017-07-13T05:16:01Z</time>
      </trkpt>
      <trkpt lat="42.95967" lon="0.56721">
        <ele>577.8</ele>
        <time>2017-07-13T05:16:02Z</time>
      </trkpt>
      <trkpt lat="42.95969" lon="0.56718">
        <ele>577.9</ele>
        <time>2017-07-13T05:16:03Z</time>
      </trkpt>
      <trkpt lat="42.95971" lon="0.56716">
        <ele>578</ele>
        <time>2017-07-13T05:16:04Z</time>
      </trkpt>
      <trkpt lat="42.95973" lon="0.56713">
        <ele>578.1</ele>
        <time>2017-07-13T05:16:05Z</time>
      </trkpt>
      <trkpt lat="42.95975" lon="0.5671">
        <ele>578.2</ele>
        <time>2017-07-13T05:16:06Z</time>
      </trkpt>
      <trkpt lat="42.95977" lon="0.56708">
        <ele>578.4</ele>
        <time>2017-07-13T05:16:07Z</time>
      </trkpt>
      <trkpt lat="42.95979" lon="0.56705">
        <ele>578.6</ele>
        <time>2017-07-13T05:16:08Z</time>
      </trkpt>
      <trkpt lat="42.95981" lon="0.56702">
        <ele>578.7</ele>
        <time>2017-07-13T05:16:09Z</time>
      </trkpt>
      <trkpt lat="42.95983" lon="0.56699">
        <ele>578.9</ele>
        <time>2017-07-13T05:16:10Z</time>
      </trkpt>
      <trkpt lat="42.95984" lon="0.56697">
        <ele>579.2</ele>
        <time>2017-07-13T05:16:11Z</time>
      </trkpt>
      <trkpt lat="42.95986" lon="0.56694">
        <ele>579.4</ele>
        <time>2017-07-13T05:16:12Z</time>
      </trkpt>
      <trkpt lat="42.95988" lon="0.56691">
        <ele>579.6</ele>
        <time>2017-07-13T05:16:13Z</time>
      </trkpt>
      <trkpt lat="42.95989" lon="0.56688">
        <ele>579.9</ele>
        <time>2017-07-13T05:16:14Z</time>
      </trkpt>
      <trkpt lat="42.95991" lon="0.56684">
        <ele>580.2</ele>
        <time>2017-07-13T05:16:15Z</time>
      </trkpt>
      <trkpt lat="42.95992" lon="0.56681">
        <ele>580.5</ele>
        <time>2017-07-13T05:16:16Z</time>
      </trkpt>
      <trkpt lat="42.95994" lon="0.56678">
        <ele>580.8</ele>
        <time>2017-07-13T05:16:17Z</time>
      </trkpt>
      <trkpt lat="42.95995" lon="0.56675">
        <ele>581.1</ele>
        <time>2017-07-13T05:16:18Z</time>
      </trkpt>
      <trkpt lat="42.95997" lon="0.56672">
        <ele>581.4</ele>
        <time>2017-07-13T05:16:19Z</time>
      </trkpt>
      <trkpt lat="42.95998" lon="0.56668">
        <ele>581.8</ele>
        <time>2017-07-13T05:16:20Z</time>
      </trkpt>
      <trkpt lat="42.96" lon="0.56665">
        <ele>582.1</ele>
        <time>2017-07-13T05:16:21Z</time>
      </trkpt>
      <trkpt lat="42.96001" lon="0.56662">
        <ele>582.2</ele>
        <time>2017-07-13T05:16:22Z</time>
      </trkpt>
      <trkpt lat="42.96002" lon="0.56659">
        <ele>582.3</ele>
        <time>2017-07-13T05:16:23Z</time>
      </trkpt>
      <trkpt lat="42.96004" lon="0.56655">
        <ele>582.4</ele>
        <time>2017-07-13T05:16:24Z</time>
      </trkpt>
      <trkpt lat="42.96005" lon="0.56652">
        <ele>582.6</ele>
        <time>2017-07-13T05:16:25Z</time>
      </trkpt>
      <trkpt lat="42.96006" lon="0.56649">
        <ele>582.7</ele>
        <time>2017-07-13T05:16:26Z</time>
      </trkpt>
      <trkpt lat="42.96008" lon="0.56646">
        <ele>582.9</ele>
        <time>2017-07-13T05:16:27Z</time>
      </trkpt>
      <trkpt lat="42.96009" lon="0.56643">
        <ele>583</ele>
        <time>2017-07-13T05:16:28Z</time>
      </trkpt>
      <trkpt lat="42.96011" lon="0.5664">
        <ele>583.2</ele>
        <time>2017-07-13T05:16:29Z</time>
      </trkpt>
      <trkpt lat="42.96012" lon="0.56637">
        <ele>583.4</ele>
        <time>2017-07-13T05:16:30Z</time>
      </trkpt>
      <trkpt lat="42.96014" lon="0.56634">
        <ele>583.6</ele>
        <time>2017-07-13T05:16:31Z</time>
      </trkpt>
      <trkpt lat="42.96016" lon="0.56632">
        <ele>583.8</ele>
        <time>2017-07-13T05:16:32Z</time>
      </trkpt>
      <trkpt lat="42.96018" lon="0.56629">
        <ele>584</ele>
        <time>2017-07-13T05:16:33Z</time>
      </trkpt>
      <trkpt lat="42.9602" lon="0.56626">
        <ele>584.3</ele>
        <time>2017-07-13T05:16:34Z</time>
      </trkpt>
      <trkpt lat="42.96022" lon="0.56623">
        <ele>584.6</ele>
        <time>2017-07-13T05:16:35Z</time>
      </trkpt>
      <trkpt lat="42.96024" lon="0.5662">
        <ele>584.9</ele>
        <time>2017-07-13T05:16:36Z</time>
      </trkpt>
      <trkpt lat="42.96026" lon="0.56618">
        <ele>585.2</ele>
        <time>2017-07-13T05:16:37Z</time>
      </trkpt>
      <trkpt lat="42.96028" lon="0.56615">
        <ele>585.6</ele>
        <time>2017-07-13T05:16:38Z</time>
      </trkpt>
      <trkpt lat="42.9603" lon="0.56613">
        <ele>585.9</ele>
        <time>2017-07-13T05:16:39Z</time>
      </trkpt>
      <trkpt lat="42.96032" lon="0.5661">
        <ele>586.3</ele>
        <time>2017-07-13T05:16:40Z</time>
      </trkpt>
      <trkpt lat="42.96035" lon="0.56608">
        <ele>586.6</ele>
        <time>2017-07-13T05:16:41Z</time>
      </trkpt>
      <trkpt lat="42.96037" lon="0.56607">
        <ele>586.9</ele>
        <time>2017-07-13T05:16:42Z</time>
      </trkpt>
      <trkpt lat="42.9604" lon="0.56605">
        <ele>587.2</ele>
        <time>2017-07-13T05:16:43Z</time>
      </trkpt>
      <trkpt lat="42.96043" lon="0.56604">
        <ele>587.4</ele>
        <time>2017-07-13T05:16:44Z</time>
      </trkpt>
      <trkpt lat="42.96046" lon="0.56603">
        <ele>587.6</ele>
        <time>2017-07-13T05:16:45Z</time>
      </trkpt>
      <trkpt lat="42.96048" lon="0.56603">
        <ele>587.8</ele>
        <time>2017-07-13T05:16:46Z</time>
      </trkpt>
      <trkpt lat="42.96051" lon="0.56602">
        <ele>588</ele>
        <time>2017-07-13T05:16:47Z</time>
      </trkpt>
      <trkpt lat="42.96054" lon="0.56602">
        <ele>588.2</ele>
        <time>2017-07-13T05:16:48Z</time>
      </trkpt>
      <trkpt lat="42.96057" lon="0.56601">
        <ele>588.3</ele>
        <time>2017-07-13T05:16:49Z</time>
      </trkpt>
      <trkpt lat="42.9606" lon="0.56601">
        <ele>588.4</ele>
        <time>2017-07-13T05:16:50Z</time>
      </trkpt>
      <trkpt lat="42.96063" lon="0.56601">
        <ele>588.6</ele>
        <time>2017-07-13T05:16:51Z</time>
      </trkpt>
      <trkpt lat="42.96065" lon="0.566">
        <ele>588.9</ele>
        <time>2017-07-13T05:16:52Z</time>
      </trkpt>
      <trkpt lat="42.96068" lon="0.56599">
        <ele>589.1</ele>
        <time>2017-07-13T05:16:53Z</time>
      </trkpt>
      <trkpt lat="42.9607" lon="0.56598">
        <ele>589.5</ele>
        <time>2017-07-13T05:16:54Z</time>
      </trkpt>
      <trkpt lat="42.96073" lon="0.56596">
        <ele>590</ele>
        <time>2017-07-13T05:16:55Z</time>
      </trkpt>
      <trkpt lat="42.96075" lon="0.56594">
        <ele>590.7</ele>
        <time>2017-07-13T05:16:56Z</time>
      </trkpt>
      <trkpt lat="42.96077" lon="0.56592">
        <ele>591.4</ele>
        <time>2017-07-13T05:16:57Z</time>
      </trkpt>
      <trkpt lat="42.96079" lon="0.56589">
        <ele>592.2</ele>
        <time>2017-07-13T05:16:58Z</time>
      </trkpt>
      <trkpt lat="42.96081" lon="0.56587">
        <ele>592.9</ele>
        <time>2017-07-13T05:16:59Z</time>
      </trkpt>
      <trkpt lat="42.96083" lon="0.56585">
        <ele>593.5</ele>
        <time>2017-07-13T05:17:00Z</time>
      </trkpt>
      <trkpt lat="42.96084" lon="0.56584">
        <ele>594.1</ele>
        <time>2017-07-13T05:17:01Z</time>
      </trkpt>
      <trkpt lat="42.96085" lon="0.56583">
        <ele>594.7</ele>
        <time>2017-07-13T05:17:02Z</time>
      </trkpt>
      <trkpt lat="42.96086" lon="0.56582">
        <ele>595.2</ele>
        <time>2017-07-13T05:17:03Z</time>
      </trkpt>
      <trkpt lat="42.96087" lon="0.56581">
        <ele>595.5</ele>
        <time>2017-07-13T05:17:04Z</time>
      </trkpt>
      <trkpt lat="42.96087" lon="0.56581">
        <ele>595.7</ele>
        <time>2017-07-13T05:17:05Z</time>
      </trkpt>
      <trkpt lat="42.96087" lon="0.56581">
        <ele>595.9</ele>
        <time>2017-07-13T05:17:06Z</time>
      </trkpt>
      <trkpt lat="42.96088" lon="0.56581">
        <ele>596</ele>
        <time>2017-07-13T05:17:07Z</time>
      </trkpt>
      <trkpt lat="42.96088" lon="0.56581">
        <ele>596</ele>
        <time>2017-07-13T05:17:08Z</time>
      </trkpt>
      <trkpt lat="42.96088" lon="0.56581">
        <ele>596</ele>
        <time>2017-07-13T05:17:09Z</time>
      </trkpt>
      <trkpt lat="42.96088" lon="0.56581">
        <ele>596</ele>
        <time>2017-07-13T05:17:10Z</time>
      </trkpt>
      <trkpt lat="42.96088" lon="0.56581">
        <ele>596</ele>
        <time>2017-07-13T05:17:11Z</time>
      </trkpt>
      <trkpt lat="42.96088" lon="0.56581">
        <ele>596</ele>
        <time>2017-07-13T05:17:12Z</time>
      </trkpt>
      <trkpt lat="42.96088" lon="0.56581">
        <ele>596</ele>
        <time>2017-07-13T05:17:13Z</time>
      </trkpt>
      <trkpt lat="42.96088" lon="0.56581">
        <ele>596</ele>
        <time>2017-07-13T05:17:14Z</time>
      </trkpt>
      <trkpt lat="42.96088" lon="0.56581">
        <ele>596</ele>
        <time>2017-07-13T05:17:15Z</time>
      </trkpt>
      <trkpt lat="42.96088" lon="0.56581">
        <ele>596</ele>
        <time>2017-07-13T05:17:16Z</time>
      </trkpt>
      <trkpt lat="42.96088" lon="0.56581">
        <ele>596</ele>
        <time>2017-07-13T05:17:17Z</time>
      </trkpt>
      <trkpt lat="42.96088" lon="0.56581">
        <ele>596</ele>
        <time>2017-07-13T05:17:18Z</time>
      </trkpt>
      <trkpt lat="42.96088" lon="0.56581">
        <ele>596</ele>
        <time>2017-07-13T05:17:19Z</time>
      </trkpt>
      <trkpt lat="42.96088" lon="0.56581">
        <ele>596</ele>
        <time>2017-07-13T05:17:20Z</time>
      </trkpt>
      <trkpt lat="42.96088" lon="0.56581">
        <ele>596</ele>
        <time>2017-07-13T05:17:21Z</time>
      </trkpt>
      <trkpt lat="42.96088" lon="0.56581">
        <ele>596</ele>
        <time>2017-07-13T05:17:22Z</time>
      </trkpt>
      <trkpt lat="42.96088" lon="0.56581">
        <ele>596</ele>
        <time>2017-07-13T05:17:23Z</time>
      </trkpt>
      <trkpt lat="42.96088" lon="0.56581">
        <ele>596</ele>
        <time>2017-07-13T05:17:24Z</time>
      </trkpt>
      <trkpt lat="42.96088" lon="0.56581">
        <ele>596</ele>
        <time>2017-07-13T05:17:25Z</time>
      </trkpt>
      <trkpt lat="42.96088" lon="0.56581">
        <ele>596</ele>
        <time>2017-07-13T05:17:26Z</time>
      </trkpt>
      <trkpt lat="42.96088" lon="0.56581">
        <ele>596</ele>
        <time>2017-07-13T05:17:27Z</time>
      </trkpt>
      <trkpt lat="42.96088" lon="0.56581">
        <ele>596</ele>
        <time>2017-07-13T05:17:28Z</time>
      </trkpt>
      <trkpt lat="42.96088" lon="0.56581">
        <ele>596</ele>
        <time>2017-07-13T05:17:29Z</time>
      </trkpt>
      <trkpt lat="42.96088" lon="0.56581">
        <ele>596</ele>
        <time>2017-07-13T05:17:30Z</time>
      </trkpt>
      <trkpt lat="42.96088" lon="0.56581">
        <ele>596</ele>
        <time>2017-07-13T05:17:31Z</time>
      </trkpt>
      <trkpt lat="42.96088" lon="0.56581">
        <ele>596</ele>
        <time>2017-07-13T05:17:32Z</time>
      </trkpt>
      <trkpt lat="42.96088" lon="0.56581">
        <ele>596</ele>
        <time>2017-07-13T05:17:33Z</time>
      </trkpt>
      <trkpt lat="42.96088" lon="0.56581">
        <ele>596</ele>
        <time>2017-07-13T05:17:34Z</time>
      </trkpt>
      <trkpt lat="42.96088" lon="0.56581">
        <ele>596</ele>
        <time>2017-07-13T05:17:35Z</time>
      </trkpt>
      <trkpt lat="42.96088" lon="0.56581">
        <ele>596</ele>
        <time>2017-07-13T05:17:36Z</time>
      </trkpt>
      <trkpt lat="42.96088" lon="0.56581">
        <ele>596</ele>
        <time>2017-07-13T05:17:37Z</time>
      </trkpt>
      <trkpt lat="42.96088" lon="0.56581">
        <ele>596</ele>
        <time>2017-07-13T05:17:38Z</time>
      </trkpt>
      <trkpt lat="42.96088" lon="0.56581">
        <ele>596</ele>
        <time>2017-07-13T05:17:39Z</time>
      </trkpt>
      <trkpt lat="42.96088" lon="0.56581">
        <ele>596</ele>
        <time>2017-07-13T05:17:40Z</time>
      </trkpt>
      <trkpt lat="42.96088" lon="0.56581">
        <ele>596</ele>
        <time>2017-07-13T05:17:41Z</time>
      </trkpt>
      <trkpt lat="42.96088" lon="0.56581">
        <ele>596</ele>
        <time>2017-07-13T05:17:42Z</time>
      </trkpt>
      <trkpt lat="42.96088" lon="0.56581">
        <ele>596</ele>
        <time>2017-07-13T05:17:43Z</time>
      </trkpt>
      <trkpt lat="42.96088" lon="0.56581">
        <ele>596</ele>
        <time>2017-07-13T05:17:44Z</time>
      </trkpt>
      <trkpt lat="42.96088" lon="0.56581">
        <ele>596</ele>
        <time>2017-07-13T05:17:45Z</time>
      </trkpt>
      <trkpt lat="42.96088" lon="0.56581">
        <ele>596</ele>
        <time>2017-07-13T05:17:46Z</time>
      </trkpt>
      <trkpt lat="42.96088" lon="0.56581">
        <ele>596</ele>
        <time>2017-07-13T05:17:47Z</time>
      </trkpt>
      <trkpt lat="42.96088" lon="0.56581">
        <ele>596</ele>
        <time>2017-07-13T05:17:48Z</time>
      </trkpt>
      <trkpt lat="42.96088" lon="0.56581">
        <ele>596</ele>
        <time>2017-07-13T05:17:49Z</time>
      </trkpt>
      <trkpt lat="42.96088" lon="0.56581">
        <ele>596</ele>
        <time>2017-07-13T05:17:50Z</time>
      </trkpt>
      <trkpt lat="42.96088" lon="0.56581">
        <ele>596</ele>
        <time>2017-07-13T05:17:51Z</time>
      </trkpt>
      <trkpt lat="42.96088" lon="0.56581">
        <ele>596</ele>
        <time>2017-07-13T05:17:52Z</time>
      </trkpt>
      <trkpt lat="42.96088" lon="0.56581">
        <ele>596</ele>
        <time>2017-07-13T05:17:53Z</time>
      </trkpt>
      <trkpt lat="42.96088" lon="0.56581">
        <ele>596</ele>
        <time>2017-07-13T05:17:54Z</time>
      </trkpt>
      <trkpt lat="42.96088" lon="0.56581">
        <ele>596</ele>
        <time>2017-07-13T05:17:55Z</time>
      </trkpt>
      <trkpt lat="42.96088" lon="0.56581">
        <ele>596</ele>
        <time>2017-07-13T05:17:56Z</time>
      </trkpt>
      <trkpt lat="42.96088" lon="0.56581">
        <ele>596</ele>
        <time>2017-07-13T05:17:57Z</time>
      </trkpt>
      <trkpt lat="42.96088" lon="0.56581">
        <ele>596</ele>
        <time>2017-07-13T05:17:58Z</time>
      </trkpt>
      <trkpt lat="42.96088" lon="0.56581">
        <ele>596</ele>
        <time>2017-07-13T05:17:59Z</time>
      </trkpt>
      <trkpt lat="42.96088" lon="0.56581">
        <ele>596</ele>
        <time>2017-07-13T05:18:00Z</time>
      </trkpt>
      <trkpt lat="42.96088" lon="0.56581">
        <ele>596</ele>
        <time>2017-07-13T05:18:01Z</time>
      </trkpt>
      <trkpt lat="42.96088" lon="0.56581">
        <ele>596</ele>
        <time>2017-07-13T05:18:02Z</time>
      </trkpt>
      <trkpt lat="42.96088" lon="0.56581">
        <ele>596</ele>
        <time>2017-07-13T05:18:03Z</time>
      </trkpt>
      <trkpt lat="42.96088" lon="0.56581">
        <ele>596</ele>
        <time>2017-07-13T05:18:04Z</time>
      </trkpt>
      <trkpt lat="42.96088" lon="0.56581">
        <ele>596</ele>
        <time>2017-07-13T05:18:05Z</time>
      </trkpt>
      <trkpt lat="42.96088" lon="0.56581">
        <ele>596</ele>
        <time>2017-07-13T05:18:06Z</time>
      </trkpt>
      <trkpt lat="42.96088" lon="0.56581">
        <ele>596</ele>
        <time>2017-07-13T05:18:07Z</time>
      </trkpt>
      <trkpt lat="42.96088" lon="0.56581">
        <ele>596</ele>
        <time>2017-07-13T05:18:08Z</time>
      </trkpt>
      <trkpt lat="42.96088" lon="0.56581">
        <ele>596</ele>
        <time>2017-07-13T05:18:09Z</time>
      </trkpt>
      <trkpt lat="42.96088" lon="0.56581">
        <ele>596</ele>
        <time>2017-07-13T05:18:10Z</time>
      </trkpt>
      <trkpt lat="42.96088" lon="0.56581">
        <ele>596</ele>
        <time>2017-07-13T05:18:11Z</time>
      </trkpt>
      <trkpt lat="42.96088" lon="0.56581">
        <ele>596</ele>
        <time>2017-07-13T05:18:12Z</time>
      </trkpt>
      <trkpt lat="42.96088" lon="0.56581">
        <ele>596</ele>
        <time>2017-07-13T05:18:13Z</time>
      </trkpt>
      <trkpt lat="42.96088" lon="0.56581">
        <ele>596</ele>
        <time>2017-07-13T05:18:14Z</time>
      </trkpt>
      <trkpt lat="42.96088" lon="0.56581">
        <ele>596</ele>
        <time>2017-07-13T05:18:15Z</time>
      </trkpt>
      <trkpt lat="42.96088" lon="0.56581">
        <ele>596</ele>
        <time>2017-07-13T05:18:16Z</time>
      </trkpt>
      <trkpt lat="42.96088" lon="0.56581">
        <ele>596</ele>
        <time>2017-07-13T05:18:17Z</time>
      </trkpt>
      <trkpt lat="42.96088" lon="0.56581">
        <ele>596</ele>
        <time>2017-07-13T05:18:18Z</time>
      </trkpt>
      <trkpt lat="42.96088" lon="0.56581">
        <ele>596</ele>
        <time>2017-07-13T05:18:19Z</time>
      </trkpt>
      <trkpt lat="42.96088" lon="0.56581">
        <ele>596</ele>
        <time>2017-07-13T05:18:20Z</time>
      </trkpt>
      <trkpt lat="42.96088" lon="0.56581">
        <ele>596</ele>
        <time>2017-07-13T05:18:21Z</time>
      </trkpt>
      <trkpt lat="42.96088" lon="0.56581">
        <ele>596</ele>
        <time>2017-07-13T05:18:22Z</time>
      </trkpt>
      <trkpt lat="42.96088" lon="0.56581">
        <ele>596</ele>
        <time>2017-07-13T05:18:23Z</time>
      </trkpt>
      <trkpt lat="42.96088" lon="0.56581">
        <ele>596</ele>
        <time>2017-07-13T05:18:24Z</time>
      </trkpt>
      <trkpt lat="42.96088" lon="0.56581">
        <ele>596</ele>
        <time>2017-07-13T05:18:25Z</time>
      </trkpt>
      <trkpt lat="42.96088" lon="0.56581">
        <ele>596</ele>
        <time>2017-07-13T05:18:26Z</time>
      </trkpt>
      <trkpt lat="42.96088" lon="0.56581">
        <ele>596</ele>
        <time>2017-07-13T05:18:27Z</time>
      </trkpt>
      <trkpt lat="42.96088" lon="0.56581">
        <ele>596</ele>
        <time>2017-07-13T05:18:28Z</time>
      </trkpt>
      <trkpt lat="42.96088" lon="0.56581">
        <ele>596</ele>
        <time>2017-07-13T05:18:29Z</time>
      </trkpt>
      <trkpt lat="42.96088" lon="0.56581">
        <ele>596</ele>
        <time>2017-07-13T05:18:30Z</time>
      </trkpt>
      <trkpt lat="42.96088" lon="0.56581">
        <ele>596</ele>
        <time>2017-07-13T05:18:31Z</time>
      </trkpt>
      <trkpt lat="42.96088" lon="0.56581">
        <ele>596</ele>
        <time>2017-07-13T05:18:32Z</time>
      </trkpt>
      <trkpt lat="42.96088" lon="0.56581">
        <ele>596</ele>
        <time>2017-07-13T05:18:33Z</time>
      </trkpt>
      <trkpt lat="42.96088" lon="0.56581">
        <ele>596</ele>
        <time>2017-07-13T05:18:34Z</time>
      </trkpt>
      <trkpt lat="42.96088" lon="0.56581">
        <ele>596</ele>
        <time>2017-07-13T05:18:35Z</time>
      </trkpt>
      <trkpt lat="42.96088" lon="0.56581">
        <ele>596</ele>
        <time>2017-07-13T05:18:36Z</time>
      </trkpt>
      <trkpt lat="42.96088" lon="0.56581">
        <ele>596</ele>
        <time>2017-07-13T05:18:37Z</time>
      </trkpt>
      <trkpt lat="42.96088" lon="0.56581">
        <ele>596</ele>
        <time>2017-07-13T05:18:38Z</time>
      </trkpt>
      <trkpt lat="42.96088" lon="0.56581">
        <ele>596</ele>
        <time>2017-07-13T05:18:39Z</time>
      </trkpt>
      <trkpt lat="42.96088" lon="0.56581">
        <ele>596</ele>
        <time>2017-07-13T05:18:40Z</time>
      </trkpt>
      <trkpt lat="42.96088" lon="0.56581">
        <ele>596</ele>
        <time>2017-07-13T05:18:41Z</time>
      </trkpt>
      <trkpt lat="42.96088" lon="0.56581">
        <ele>596</ele>
        <time>2017-07-13T05:18:42Z</time>
      </trkpt>
      <trkpt lat="42.96088" lon="0.56581">
        <ele>596</ele>
        <time>2017-07-13T05:18:43Z</time>
      </trkpt>
      <trkpt lat="42.96088" lon="0.56581">
        <ele>596</ele>
        <time>2017-07-13T05:18:44Z</time>
      </trkpt>
      <trkpt lat="42.96088" lon="0.56581">
        <ele>596</ele>
        <time>2017-07-13T05:18:45Z</time>
      </trkpt>
      <trkpt lat="42.96088" lon="0.56581">
        <ele>596</ele>
        <time>2017-07-13T05:18:46Z</time>
      </trkpt>
      <trkpt lat="42.96088" lon="0.56581">
        <ele>596</ele>
        <time>2017-07-13T05:18:47Z</time>
      </trkpt>
      <trkpt lat="42.96088" lon="0.56581">
        <ele>596</ele>
        <time>2017-07-13T05:18:48Z</time>
      </trkpt>
      <trkpt lat="42.96088" lon="0.56581">
        <ele>596</ele>
        <time>2017-07-13T05:18:49Z</time>
      </trkpt>
      <trkpt lat="42.96088" lon="0.56581">
        <ele>596</ele>
        <time>2017-07-13T05:18:50Z</time>
      </trkpt>
      <trkpt lat="42.96088" lon="0.56581">
        <ele>596</ele>
        <time>2017-07-13T05:18:51Z</time>
      </trkpt>
      <trkpt lat="42.96088" lon="0.56581">
        <ele>596</ele>
        <time>2017-07-13T05:18:52Z</time>
      </trkpt>
      <trkpt lat="42.96088" lon="0.56581">
        <ele>596</ele>
        <time>2017-07-13T05:18:53Z</time>
      </trkpt>
      <trkpt lat="42.96088" lon="0.56581">
        <ele>596</ele>
        <time>2017-07-13T05:18:54Z</time>
      </trkpt>
      <trkpt lat="42.96088" lon="0.56581">
        <ele>596</ele>
        <time>2017-07-13T05:18:55Z</time>
      </trkpt>
      <trkpt lat="42.96088" lon="0.56581">
        <ele>596</ele>
        <time>2017-07-13T05:18:56Z</time>
      </trkpt>
      <trkpt lat="42.96088" lon="0.56581">
        <ele>596</ele>
        <time>2017-07-13T05:18:57Z</time>
      </trkpt>
      <trkpt lat="42.96088" lon="0.56581">
        <ele>596</ele>
        <time>2017-07-13T05:18:58Z</time>
      </trkpt>
      <trkpt lat="42.96088" lon="0.56581">
        <ele>596</ele>
        <time>2017-07-13T05:18:59Z</time>
      </trkpt>
      <trkpt lat="42.96088" lon="0.56581">
        <ele>596</ele>
        <time>2017-07-13T05:19:00Z</time>
      </trkpt>
      <trkpt lat="42.96088" lon="0.56581">
        <ele>596</ele>
        <time>2017-07-13T05:19:01Z</time>
      </trkpt>
      <trkpt lat="42.96088" lon="0.56581">
        <ele>596</ele>
        <time>2017-07-13T05:19:02Z</time>
      </trkpt>
      <trkpt lat="42.96088" lon="0.56581">
        <ele>596</ele>
        <time>2017-07-13T05:19:03Z</time>
      </trkpt>
      <trkpt lat="42.96088" lon="0.56581">
        <ele>596</ele>
        <time>2017-07-13T05:19:04Z</time>
      </trkpt>
      <trkpt lat="42.96088" lon="0.56581">
        <ele>596</ele>
        <time>2017-07-13T05:19:05Z</time>
      </trkpt>
      <trkpt lat="42.96088" lon="0.56581">
        <ele>596</ele>
        <time>2017-07-13T05:19:06Z</time>
      </trkpt>
      <trkpt lat="42.96088" lon="0.56581">
        <ele>596</ele>
        <time>2017-07-13T05:19:07Z</time>
      </trkpt>
      <trkpt lat="42.96088" lon="0.56581">
        <ele>596</ele>
        <time>2017-07-13T05:19:08Z</time>
      </trkpt>
      <trkpt lat="42.96088" lon="0.56581">
        <ele>596</ele>
        <time>2017-07-13T05:19:09Z</time>
      </trkpt>
      <trkpt lat="42.96088" lon="0.56581">
        <ele>596</ele>
        <time>2017-07-13T05:19:10Z</time>
      </trkpt>
      <trkpt lat="42.96088" lon="0.56581">
        <ele>596</ele>
        <time>2017-07-13T05:19:11Z</time>
      </trkpt>
      <trkpt lat="42.96088" lon="0.56581">
        <ele>596</ele>
        <time>2017-07-13T05:19:12Z</time>
      </trkpt>
      <trkpt lat="42.96088" lon="0.56581">
        <ele>596</ele>
        <time>2017-07-13T05:19:13Z</time>
      </trkpt>
      <trkpt lat="42.96088" lon="0.56581">
        <ele>596</ele>
        <time>2017-07-13T05:19:14Z</time>
      </trkpt>
      <trkpt lat="42.96088" lon="0.56581">
        <ele>596</ele>
        <time>2017-07-13T05:19:15Z</time>
      </trkpt>
      <trkpt lat="42.96088" lon="0.56581">
        <ele>596</ele>
        <time>2017-07-13T05:19:16Z</time>
      </trkpt>
      <trkpt lat="42.96088" lon="0.56581">
        <ele>596</ele>
        <time>2017-07-13T05:19:17Z</time>
      </trkpt>
      <trkpt lat="42.96088" lon="0.56581">
        <ele>596</ele>
        <time>2017-07-13T05:19:18Z</time>
      </trkpt>
      <trkpt lat="42.96088" lon="0.56581">
        <ele>596</ele>
        <time>2017-07-13T05:19:19Z</time>
      </trkpt>
      <trkpt lat="42.96088" lon="0.56581">
        <ele>596</ele>
        <time>2017-07-13T05:19:20Z</time>
      </trkpt>
      <trkpt lat="42.96088" lon="0.56581">
        <ele>596</ele>
        <time>2017-07-13T05:19:21Z</time>
      </trkpt>
      <trkpt lat="42.96088" lon="0.56581">
        <ele>596</ele>
        <time>2017-07-13T05:19:22Z</time>
      </trkpt>
      <trkpt lat="42.96088" lon="0.56581">
        <ele>596</ele>
        <time>2017-07-13T05:19:23Z</time>
      </trkpt>
      <trkpt lat="42.96088" lon="0.56581">
        <ele>596</ele>
        <time>2017-07-13T05:19:24Z</time>
      </trkpt>
      <trkpt lat="42.96088" lon="0.56581">
        <ele>596</ele>
        <time>2017-07-13T05:19:25Z</time>
      </trkpt>
      <trkpt lat="42.96088" lon="0.56581">
        <ele>596</ele>
        <time>2017-07-13T05:19:26Z</time>
      </trkpt>
      <trkpt lat="42.96088" lon="0.56581">
        <ele>596</ele>
        <time>2017-07-13T05:19:27Z</time>
      </trkpt>
      <trkpt lat="42.96088" lon="0.56581">
        <ele>596</ele>
        <time>2017-07-13T05:19:28Z</time>
      </trkpt>
      <trkpt lat="42.96088" lon="0.56581">
        <ele>596</ele>
        <time>2017-07-13T05:19:29Z</time>
      </trkpt>
      <trkpt lat="42.96088" lon="0.56581">
        <ele>596</ele>
        <time>2017-07-13T05:19:30Z</time>
      </trkpt>
      <trkpt lat="42.96088" lon="0.56581">
        <ele>596</ele>
        <time>2017-07-13T05:19:31Z</time>
      </trkpt>
      <trkpt lat="42.96088" lon="0.56581">
        <ele>596</ele>
        <time>2017-07-13T05:19:32Z</time>
      </trkpt>
      <trkpt lat="42.96088" lon="0.56581">
        <ele>596</ele>
        <time>2017-07-13T05:19:33Z</time>
      </trkpt>
      <trkpt lat="42.96088" lon="0.56581">
        <ele>596</ele>
        <time>2017-07-13T05:19:34Z</time>
      </trkpt>
      <trkpt lat="42.96088" lon="0.56581">
        <ele>596</ele>
        <time>2017-07-13T05:19:35Z</time>
      </trkpt>
      <trkpt lat="42.96088" lon="0.56581">
        <ele>596</ele>
        <time>2017-07-13T05:19:36Z</time>
      </trkpt>
      <trkpt lat="42.96088" lon="0.56581">
        <ele>596</ele>
        <time>2017-07-13T05:19:37Z</time>
      </trkpt>
      <trkpt lat="42.96088" lon="0.56581">
        <ele>596</ele>
        <time>2017-07-13T05:19:38Z</time>
      </trkpt>
      <trkpt lat="42.96088" lon="0.56581">
        <ele>596</ele>
        <time>2017-07-13T05:19:39Z</time>
      </trkpt>
      <trkpt lat="42.96088" lon="0.56581">
        <ele>596</ele>
        <time>2017-07-13T05:19:40Z</time>
      </trkpt>
      <trkpt lat="42.96088" lon="0.56581">
        <ele>596</ele>
        <time>2017-07-13T05:19:41Z</time>
      </trkpt>
      <trkpt lat="42.96088" lon="0.56581">
        <ele>596</ele>
        <time>2017-07-13T05:19:42Z</time>
      </trkpt>
      <trkpt lat="42.96088" lon="0.56581">
        <ele>596</ele>
        <time>2017-07-13T05:19:43Z</time>
      </trkpt>
      <trkpt lat="42.96088" lon="0.56581">
        <ele>596</ele>
        <time>2017-07-13T05:19:44Z</time>
      </trkpt>
      <trkpt lat="42.96088" lon="0.56581">
        <ele>596</ele>
        <time>2017-07-13T05:19:45Z</time>
      </trkpt>
      <trkpt lat="42.96088" lon="0.56581">
        <ele>596</ele>
        <time>2017-07-13T05:19:46Z</time>
      </trkpt>
      <trkpt lat="42.96088" lon="0.56581">
        <ele>596</ele>
        <time>2017-07-13T05:19:47Z</time>
      </trkpt>
      <trkpt lat="42.96088" lon="0.56581">
        <ele>596</ele>
        <time>2017-07-13T05:19:48Z</time>
      </trkpt>
      <trkpt lat="42.96088" lon="0.56581">
        <ele>596</ele>
        <time>2017-07-13T05:19:49Z</time>
      </trkpt>
      <trkpt lat="42.96088" lon="0.56581">
        <ele>596</ele>
        <time>2017-07-13T05:19:50Z</time>
      </trkpt>
      <trkpt lat="42.96088" lon="0.56581">
        <ele>596</ele>
        <time>2017-07-13T05:19:51Z</time>
      </trkpt>
      <trkpt lat="42.96088" lon="0.56581">
        <ele>596</ele>
        <time>2017-07-13T05:19:52Z</time>
      </trkpt>
      <trkpt lat="42.96088" lon="0.56581">
        <ele>596</ele>
        <time>2017-07-13T05:19:53Z</time>
      </trkpt>
      <trkpt lat="42.96088" lon="0.56581">
        <ele>596</ele>
        <time>2017-07-13T05:19:54Z</time>
      </trkpt>
      <trkpt lat="42.96088" lon="0.56581">
        <ele>596</ele>
        <time>2017-07-13T05:19:55Z</time>
      </trkpt>
      <trkpt lat="42.96088" lon="0.56581">
        <ele>596.1</ele>
        <time>2017-07-13T05:19:56Z</time>
      </trkpt>
      <trkpt lat="42.96088" lon="0.56581">
        <ele>596.1</ele>
        <time>2017-07-13T05:19:57Z</time>
      </trkpt>
      <trkpt lat="42.96088" lon="0.56581">
        <ele>596.1</ele>
        <time>2017-07-13T05:19:58Z</time>
      </trkpt>
      <trkpt lat="42.96088" lon="0.5658">
        <ele>596.1</ele>
        <time>2017-07-13T05:19:59Z</time>
      </trkpt>
      <trkpt lat="42.96088" lon="0.5658">
        <ele>596.2</ele>
        <time>2017-07-13T05:20:00Z</time>
      </trkpt>
      <trkpt lat="42.96088" lon="0.5658">
        <ele>596.2</ele>
        <time>2017-07-13T05:20:01Z</time>
      </trkpt>
      <trkpt lat="42.96088" lon="0.5658">
        <ele>596.3</ele>
        <time>2017-07-13T05:20:02Z</time>
      </trkpt>
      <trkpt lat="42.96087" lon="0.5658">
        <ele>596.2</ele>
        <time>2017-07-13T05:20:03Z</time>
      </trkpt>
      <trkpt lat="42.96087" lon="0.5658">
        <ele>596.2</ele>
        <time>2017-07-13T05:20:04Z</time>
      </trkpt>
      <trkpt lat="42.96087" lon="0.5658">
        <ele>596.1</ele>
        <time>2017-07-13T05:20:05Z</time>
      </trkpt>
      <trkpt lat="42.96087" lon="0.5658">
        <ele>596.2</ele>
        <time>2017-07-13T05:20:06Z</time>
      </trkpt>
      <trkpt lat="42.96087" lon="0.56579">
        <ele>596.4</ele>
        <time>2017-07-13T05:20:07Z</time>
      </trkpt>
      <trkpt lat="42.96086" lon="0.56578">
        <ele>596.7</ele>
        <time>2017-07-13T05:20:08Z</time>
      </trkpt>
      <trkpt lat="42.96085" lon="0.56576">
        <ele>597</ele>
        <time>2017-07-13T05:20:09Z</time>
      </trkpt>
      <trkpt lat="42.96085" lon="0.56574">
        <ele>597.5</ele>
        <time>2017-07-13T05:20:10Z</time>
      </trkpt>
      <trkpt lat="42.96084" lon="0.56573">
        <ele>597.9</ele>
        <time>2017-07-13T05:20:11Z</time>
      </trkpt>
      <trkpt lat="42.96084" lon="0.56571">
        <ele>598.5</ele>
        <time>2017-07-13T05:20:12Z</time>
      </trkpt>
      <trkpt lat="42.96083" lon="0.56569">
        <ele>599.1</ele>
        <time>2017-07-13T05:20:13Z</time>
      </trkpt>
      <trkpt lat="42.96083" lon="0.56567">
        <ele>599.8</ele>
        <time>2017-07-13T05:20:14Z</time>
      </trkpt>
      <trkpt lat="42.96082" lon="0.56564">
        <ele>600.5</ele>
        <time>2017-07-13T05:20:15Z</time>
      </trkpt>
      <trkpt lat="42.96081" lon="0.56562">
        <ele>601.2</ele>
        <time>2017-07-13T05:20:16Z</time>
      </trkpt>
      <trkpt lat="42.9608" lon="0.5656">
        <ele>601.8</ele>
        <time>2017-07-13T05:20:17Z</time>
      </trkpt>
      <trkpt lat="42.96078" lon="0.56558">
        <ele>602.3</ele>
        <time>2017-07-13T05:20:18Z</time>
      </trkpt>
      <trkpt lat="42.96077" lon="0.56556">
        <ele>602.7</ele>
        <time>2017-07-13T05:20:19Z</time>
      </trkpt>
      <trkpt lat="42.96074" lon="0.56554">
        <ele>603</ele>
        <time>2017-07-13T05:20:20Z</time>
      </trkpt>
      <trkpt lat="42.96072" lon="0.56552">
        <ele>603.2</ele>
        <time>2017-07-13T05:20:21Z</time>
      </trkpt>
      <trkpt lat="42.96069" lon="0.56551">
        <ele>603.2</ele>
        <time>2017-07-13T05:20:22Z</time>
      </trkpt>
      <trkpt lat="42.96067" lon="0.5655">
        <ele>603.2</ele>
        <time>2017-07-13T05:20:23Z</time>
      </trkpt>
      <trkpt lat="42.96064" lon="0.56549">
        <ele>603</ele>
        <time>2017-07-13T05:20:24Z</time>
      </trkpt>
      <trkpt lat="42.96061" lon="0.56549">
        <ele>602.7</ele>
        <time>2017-07-13T05:20:25Z</time>
      </trkpt>
      <trkpt lat="42.96058" lon="0.56549">
        <ele>602.3</ele>
        <time>2017-07-13T05:20:26Z</time>
      </trkpt>
      <trkpt lat="42.96055" lon="0.56548">
        <ele>601.9</ele>
        <time>2017-07-13T05:20:27Z</time>
      </trkpt>
      <trkpt lat="42.96052" lon="0.56548">
        <ele>601.5</ele>
        <time>2017-07-13T05:20:28Z</time>
      </trkpt>
      <trkpt lat="42.96049" lon="0.56548">
        <ele>601</ele>
        <time>2017-07-13T05:20:29Z</time>
      </trkpt>
      <trkpt lat="42.96046" lon="0.56548">
        <ele>600.6</ele>
        <time>2017-07-13T05:20:30Z</time>
      </trkpt>
      <trkpt lat="42.96043" lon="0.56548">
        <ele>600.2</ele>
        <time>2017-07-13T05:20:31Z</time>
      </trkpt>
      <trkpt lat="42.9604" lon="0.56548">
        <ele>599.9</ele>
        <time>2017-07-13T05:20:32Z</time>
      </trkpt>
      <trkpt lat="42.96037" lon="0.56547">
        <ele>599.7</ele>
        <time>2017-07-13T05:20:33Z</time>
      </trkpt>
      <trkpt lat="42.96034" lon="0.56546">
        <ele>599.4</ele>
        <time>2017-07-13T05:20:34Z</time>
      </trkpt>
      <trkpt lat="42.96031" lon="0.56545">
        <ele>599.2</ele>
        <time>2017-07-13T05:20:35Z</time>
      </trkpt>
      <trkpt lat="42.96028" lon="0.56544">
        <ele>599</ele>
        <time>2017-07-13T05:20:36Z</time>
      </trkpt>
      <trkpt lat="42.96026" lon="0.56543">
        <ele>598.8</ele>
        <time>2017-07-13T05:20:37Z</time>
      </trkpt>
      <trkpt lat="42.96023" lon="0.56542">
        <ele>598.6</ele>
        <time>2017-07-13T05:20:38Z</time>
      </trkpt>
      <trkpt lat="42.9602" lon="0.56541">
        <ele>598.4</ele>
        <time>2017-07-13T05:20:39Z</time>
      </trkpt>
      <trkpt lat="42.96018" lon="0.5654">
        <ele>598.3</ele>
        <time>2017-07-13T05:20:40Z</time>
      </trkpt>
      <trkpt lat="42.96015" lon="0.56538">
        <ele>598.1</ele>
        <time>2017-07-13T05:20:41Z</time>
      </trkpt>
      <trkpt lat="42.96012" lon="0.56537">
        <ele>597.8</ele>
        <time>2017-07-13T05:20:42Z</time>
      </trkpt>
      <trkpt lat="42.9601" lon="0.56536">
        <ele>597.6</ele>
        <time>2017-07-13T05:20:43Z</time>
      </trkpt>
      <trkpt lat="42.96007" lon="0.56535">
        <ele>597.4</ele>
        <time>2017-07-13T05:20:44Z</time>
      </trkpt>
      <trkpt lat="42.96004" lon="0.56533">
        <ele>597.2</ele>
        <time>2017-07-13T05:20:45Z</time>
      </trkpt>
      <trkpt lat="42.96002" lon="0.56532">
        <ele>596.9</ele>
        <time>2017-07-13T05:20:46Z</time>
      </trkpt>
      <trkpt lat="42.95999" lon="0.56531">
        <ele>596.7</ele>
        <time>2017-07-13T05:20:47Z</time>
      </trkpt>
      <trkpt lat="42.95996" lon="0.56529">
        <ele>596.6</ele>
        <time>2017-07-13T05:20:48Z</time>
      </trkpt>
      <trkpt lat="42.95994" lon="0.56528">
        <ele>596.5</ele>
        <time>2017-07-13T05:20:49Z</time>
      </trkpt>
      <trkpt lat="42.95991" lon="0.56527">
        <ele>596.3</ele>
        <time>2017-07-13T05:20:50Z</time>
      </trkpt>
      <trkpt lat="42.95989" lon="0.56525">
        <ele>596.2</ele>
        <time>2017-07-13T05:20:51Z</time>
      </trkpt>
      <trkpt lat="42.95986" lon="0.56524">
        <ele>596.1</ele>
        <time>2017-07-13T05:20:52Z</time>
      </trkpt>
      <trkpt lat="42.95984" lon="0.56522">
        <ele>596</ele>
        <time>2017-07-13T05:20:53Z</time>
      </trkpt>
      <trkpt lat="42.95981" lon="0.56521">
        <ele>595.9</ele>
        <time>2017-07-13T05:20:54Z</time>
      </trkpt>
      <trkpt lat="42.95979" lon="0.56519">
        <ele>595.7</ele>
        <time>2017-07-13T05:20:55Z</time>
      </trkpt>
      <trkpt lat="42.95976" lon="0.56517">
        <ele>595.7</ele>
        <time>2017-07-13T05:20:56Z</time>
      </trkpt>
      <trkpt lat="42.95974" lon="0.56516">
        <ele>595.5</ele>
        <time>2017-07-13T05:20:57Z</time>
      </trkpt>
      <trkpt lat="42.95971" lon="0.56514">
        <ele>595.5</ele>
        <time>2017-07-13T05:20:58Z</time>
      </trkpt>
      <trkpt lat="42.95969" lon="0.56512">
        <ele>595.4</ele>
        <time>2017-07-13T05:20:59Z</time>
      </trkpt>
      <trkpt lat="42.95967" lon="0.5651">
        <ele>595.3</ele>
        <time>2017-07-13T05:21:00Z</time>
      </trkpt>
      <trkpt lat="42.95964" lon="0.56508">
        <ele>595.2</ele>
        <time>2017-07-13T05:21:01Z</time>
      </trkpt>
      <trkpt lat="42.95962" lon="0.56506">
        <ele>595.2</ele>
        <time>2017-07-13T05:21:02Z</time>
      </trkpt>
      <trkpt lat="42.9596" lon="0.56504">
        <ele>595.2</ele>
        <time>2017-07-13T05:21:03Z</time>
      </trkpt>
      <trkpt lat="42.95958" lon="0.56502">
        <ele>595.2</ele>
        <time>2017-07-13T05:21:04Z</time>
      </trkpt>
      <trkpt lat="42.95956" lon="0.565">
        <ele>595.2</ele>
        <time>2017-07-13T05:21:05Z</time>
      </trkpt>
      <trkpt lat="42.95954" lon="0.56498">
        <ele>595.4</ele>
        <time>2017-07-13T05:21:06Z</time>
      </trkpt>
      <trkpt lat="42.95952" lon="0.56495">
        <ele>595.7</ele>
        <time>2017-07-13T05:21:07Z</time>
      </trkpt>
      <trkpt lat="42.9595" lon="0.56493">
        <ele>596</ele>
        <time>2017-07-13T05:21:08Z</time>
      </trkpt>
      <trkpt lat="42.95949" lon="0.5649">
        <ele>596.3</ele>
        <time>2017-07-13T05:21:09Z</time>
      </trkpt>
      <trkpt lat="42.95947" lon="0.56488">
        <ele>596.6</ele>
        <time>2017-07-13T05:21:10Z</time>
      </trkpt>
      <trkpt lat="42.95945" lon="0.56485">
        <ele>596.9</ele>
        <time>2017-07-13T05:21:11Z</time>
      </trkpt>
      <trkpt lat="42.95944" lon="0.56482">
        <ele>597.2</ele>
        <time>2017-07-13T05:21:12Z</time>
      </trkpt>
      <trkpt lat="42.95942" lon="0.5648">
        <ele>597.5</ele>
        <time>2017-07-13T05:21:13Z</time>
      </trkpt>
      <trkpt lat="42.9594" lon="0.56477">
        <ele>597.8</ele>
        <time>2017-07-13T05:21:14Z</time>
      </trkpt>
      <trkpt lat="42.95939" lon="0.56474">
        <ele>598.1</ele>
        <time>2017-07-13T05:21:15Z</time>
      </trkpt>
      <trkpt lat="42.95937" lon="0.56471">
        <ele>598.5</ele>
        <time>2017-07-13T05:21:16Z</time>
      </trkpt>
      <trkpt lat="42.95936" lon="0.56469">
        <ele>598.8</ele>
        <time>2017-07-13T05:21:17Z</time>
      </trkpt>
      <trkpt lat="42.95934" lon="0.56466">
        <ele>599.1</ele>
        <time>2017-07-13T05:21:18Z</time>
      </trkpt>
      <trkpt lat="42.95933" lon="0.56463">
        <ele>599.4</ele>
        <time>2017-07-13T05:21:19Z</time>
      </trkpt>
      <trkpt lat="42.95931" lon="0.5646">
        <ele>599.6</ele>
        <time>2017-07-13T05:21:20Z</time>
      </trkpt>
      <trkpt lat="42.9593" lon="0.56457">
        <ele>599.9</ele>
        <time>2017-07-13T05:21:21Z</time>
      </trkpt>
      <trkpt lat="42.95928" lon="0.56455">
        <ele>600.2</ele>
        <time>2017-07-13T05:21:22Z</time>
      </trkpt>
      <trkpt lat="42.95927" lon="0.56452">
        <ele>600.5</ele>
        <time>2017-07-13T05:21:23Z</time>
      </trkpt>
      <trkpt lat="42.95925" lon="0.56449">
        <ele>600.7</ele>
        <time>2017-07-13T05:21:24Z</time>
      </trkpt>
      <trkpt lat="42.95924" lon="0.56446">
        <ele>601</ele>
        <time>2017-07-13T05:21:25Z</time>
      </trkpt>
      <trkpt lat="42.95922" lon="0.56443">
        <ele>601.2</ele>
        <time>2017-07-13T05:21:26Z</time>
      </trkpt>
      <trkpt lat="42.95921" lon="0.5644">
        <ele>601.4</ele>
        <time>2017-07-13T05:21:27Z</time>
      </trkpt>
      <trkpt lat="42.95919" lon="0.56437">
        <ele>601.7</ele>
        <time>2017-07-13T05:21:28Z</time>
      </trkpt>
      <trkpt lat="42.95918" lon="0.56435">
        <ele>601.9</ele>
        <time>2017-07-13T05:21:29Z</time>
      </trkpt>
      <trkpt lat="42.95916" lon="0.56432">
        <ele>602.1</ele>
        <time>2017-07-13T05:21:30Z</time>
      </trkpt>
      <trkpt lat="42.95915" lon="0.56429">
        <ele>602.4</ele>
        <time>2017-07-13T05:21:31Z</time>
      </trkpt>
      <trkpt lat="42.95913" lon="0.56426">
        <ele>602.7</ele>
        <time>2017-07-13T05:21:32Z</time>
      </trkpt>
      <trkpt lat="42.95912" lon="0.56423">
        <ele>603</ele>
        <time>2017-07-13T05:21:33Z</time>
      </trkpt>
      <trkpt lat="42.9591" lon="0.5642">
        <ele>603.3</ele>
        <time>2017-07-13T05:21:34Z</time>
      </trkpt>
      <trkpt lat="42.95909" lon="0.56418">
        <ele>603.5</ele>
        <time>2017-07-13T05:21:35Z</time>
      </trkpt>
      <trkpt lat="42.95907" lon="0.56415">
        <ele>603.8</ele>
        <time>2017-07-13T05:21:36Z</time>
      </trkpt>
      <trkpt lat="42.95906" lon="0.56412">
        <ele>604</ele>
        <time>2017-07-13T05:21:37Z</time>
      </trkpt>
      <trkpt lat="42.95904" lon="0.56409">
        <ele>604.3</ele>
        <time>2017-07-13T05:21:38Z</time>
      </trkpt>
      <trkpt lat="42.95903" lon="0.56406">
        <ele>604.5</ele>
        <time>2017-07-13T05:21:39Z</time>
      </trkpt>
      <trkpt lat="42.95901" lon="0.56403">
        <ele>604.7</ele>
        <time>2017-07-13T05:21:40Z</time>
      </trkpt>
      <trkpt lat="42.959" lon="0.56401">
        <ele>604.9</ele>
        <time>2017-07-13T05:21:41Z</time>
      </trkpt>
      <trkpt lat="42.95898" lon="0.56398">
        <ele>605.1</ele>
        <time>2017-07-13T05:21:42Z</time>
      </trkpt>
      <trkpt lat="42.95897" lon="0.56395">
        <ele>605.3</ele>
        <time>2017-07-13T05:21:43Z</time>
      </trkpt>
      <trkpt lat="42.95895" lon="0.56392">
        <ele>605.5</ele>
        <time>2017-07-13T05:21:44Z</time>
      </trkpt>
      <trkpt lat="42.95894" lon="0.56389">
        <ele>605.7</ele>
        <time>2017-07-13T05:21:45Z</time>
      </trkpt>
      <trkpt lat="42.95893" lon="0.56387">
        <ele>605.9</ele>
        <time>2017-07-13T05:21:46Z</time>
      </trkpt>
      <trkpt lat="42.95891" lon="0.56384">
        <ele>606</ele>
        <time>2017-07-13T05:21:47Z</time>
      </trkpt>
      <trkpt lat="42.9589" lon="0.56381">
        <ele>606.2</ele>
        <time>2017-07-13T05:21:48Z</time>
      </trkpt>
      <trkpt lat="42.95888" lon="0.56378">
        <ele>606.3</ele>
        <time>2017-07-13T05:21:49Z</time>
      </trkpt>
      <trkpt lat="42.95887" lon="0.56375">
        <ele>606.4</ele>
        <time>2017-07-13T05:21:50Z</time>
      </trkpt>
      <trkpt lat="42.95885" lon="0.56373">
        <ele>606.5</ele>
        <time>2017-07-13T05:21:51Z</time>
      </trkpt>
      <trkpt lat="42.95884" lon="0.5637">
        <ele>606.6</ele>
        <time>2017-07-13T05:21:52Z</time>
      </trkpt>
      <trkpt lat="42.95882" lon="0.56367">
        <ele>606.7</ele>
        <time>2017-07-13T05:21:53Z</time>
      </trkpt>
      <trkpt lat="42.9588" lon="0.56364">
        <ele>606.8</ele>
        <time>2017-07-13T05:21:54Z</time>
      </trkpt>
      <trkpt lat="42.95879" lon="0.56361">
        <ele>606.9</ele>
        <time>2017-07-13T05:21:55Z</time>
      </trkpt>
      <trkpt lat="42.95877" lon="0.56358">
        <ele>606.9</ele>
        <time>2017-07-13T05:21:56Z</time>
      </trkpt>
      <trkpt lat="42.95876" lon="0.56356">
        <ele>607</ele>
        <time>2017-07-13T05:21:57Z</time>
      </trkpt>
      <trkpt lat="42.95874" lon="0.56353">
        <ele>607.1</ele>
        <time>2017-07-13T05:21:58Z</time>
      </trkpt>
      <trkpt lat="42.95873" lon="0.5635">
        <ele>607.2</ele>
        <time>2017-07-13T05:21:59Z</time>
      </trkpt>
      <trkpt lat="42.95872" lon="0.56347">
        <ele>607.3</ele>
        <time>2017-07-13T05:22:00Z</time>
      </trkpt>
      <trkpt lat="42.95871" lon="0.56343">
        <ele>607.4</ele>
        <time>2017-07-13T05:22:01Z</time>
      </trkpt>
      <trkpt lat="42.9587" lon="0.5634">
        <ele>607.6</ele>
        <time>2017-07-13T05:22:02Z</time>
      </trkpt>
      <trkpt lat="42.95869" lon="0.56337">
        <ele>607.8</ele>
        <time>2017-07-13T05:22:03Z</time>
      </trkpt>
      <trkpt lat="42.95868" lon="0.56334">
        <ele>608.1</ele>
        <time>2017-07-13T05:22:04Z</time>
      </trkpt>
      <trkpt lat="42.95868" lon="0.5633">
        <ele>608.4</ele>
        <time>2017-07-13T05:22:05Z</time>
      </trkpt>
      <trkpt lat="42.95867" lon="0.56327">
        <ele>608.7</ele>
        <time>2017-07-13T05:22:06Z</time>
      </trkpt>
      <trkpt lat="42.95867" lon="0.56323">
        <ele>609.1</ele>
        <time>2017-07-13T05:22:07Z</time>
      </trkpt>
      <trkpt lat="42.95867" lon="0.5632">
        <ele>609.6</ele>
        <time>2017-07-13T05:22:08Z</time>
      </trkpt>
      <trkpt lat="42.95867" lon="0.56316">
        <ele>610.1</ele>
        <time>2017-07-13T05:22:09Z</time>
      </trkpt>
      <trkpt lat="42.95868" lon="0.56313">
        <ele>610.6</ele>
        <time>2017-07-13T05:22:10Z</time>
      </trkpt>
      <trkpt lat="42.95868" lon="0.56309">
        <ele>611.2</ele>
        <time>2017-07-13T05:22:11Z</time>
      </trkpt>
      <trkpt lat="42.95869" lon="0.56306">
        <ele>611.8</ele>
        <time>2017-07-13T05:22:12Z</time>
      </trkpt>
      <trkpt lat="42.9587" lon="0.56302">
        <ele>612.5</ele>
        <time>2017-07-13T05:22:13Z</time>
      </trkpt>
      <trkpt lat="42.95871" lon="0.56299">
        <ele>613.2</ele>
        <time>2017-07-13T05:22:14Z</time>
      </trkpt>
      <trkpt lat="42.95872" lon="0.56296">
        <ele>613.8</ele>
        <time>2017-07-13T05:22:15Z</time>
      </trkpt>
      <trkpt lat="42.95873" lon="0.56293">
        <ele>614.6</ele>
        <time>2017-07-13T05:22:16Z</time>
      </trkpt>
      <trkpt lat="42.95874" lon="0.56289">
        <ele>615.3</ele>
        <time>2017-07-13T05:22:17Z</time>
      </trkpt>
      <trkpt lat="42.95875" lon="0.56286">
        <ele>616</ele>
        <time>2017-07-13T05:22:18Z</time>
      </trkpt>
      <trkpt lat="42.95876" lon="0.56283">
        <ele>616.7</ele>
        <time>2017-07-13T05:22:19Z</time>
      </trkpt>
      <trkpt lat="42.95877" lon="0.5628">
        <ele>617.4</ele>
        <time>2017-07-13T05:22:20Z</time>
      </trkpt>
      <trkpt lat="42.95878" lon="0.56277">
        <ele>618.1</ele>
        <time>2017-07-13T05:22:21Z</time>
      </trkpt>
      <trkpt lat="42.95879" lon="0.56273">
        <ele>618.9</ele>
        <time>2017-07-13T05:22:22Z</time>
      </trkpt>
      <trkpt lat="42.9588" lon="0.5627">
        <ele>619.5</ele>
        <time>2017-07-13T05:22:23Z</time>
      </trkpt>
      <trkpt lat="42.95881" lon="0.56267">
        <ele>620.3</ele>
        <time>2017-07-13T05:22:24Z</time>
      </trkpt>
      <trkpt lat="42.95882" lon="0.56263">
        <ele>621</ele>
        <time>2017-07-13T05:22:25Z</time>
      </trkpt>
      <trkpt lat="42.95883" lon="0.5626">
        <ele>621.7</ele>
        <time>2017-07-13T05:22:26Z</time>
      </trkpt>
      <trkpt lat="42.95883" lon="0.56256">
        <ele>622.3</ele>
        <time>2017-07-13T05:22:27Z</time>
      </trkpt>
      <trkpt lat="42.95884" lon="0.56253">
        <ele>623</ele>
        <time>2017-07-13T05:22:28Z</time>
      </trkpt>
      <trkpt lat="42.95884" lon="0.56249">
        <ele>623.6</ele>
        <time>2017-07-13T05:22:29Z</time>
      </trkpt>
      <trkpt lat="42.95884" lon="0.56245">
        <ele>624.4</ele>
        <time>2017-07-13T05:22:30Z</time>
      </trkpt>
      <trkpt lat="42.95884" lon="0.56241">
        <ele>625.1</ele>
        <time>2017-07-13T05:22:31Z</time>
      </trkpt>
      <trkpt lat="42.95884" lon="0.56238">
        <ele>625.7</ele>
        <time>2017-07-13T05:22:32Z</time>
      </trkpt>
      <trkpt lat="42.95884" lon="0.56234">
        <ele>626.2</ele>
        <time>2017-07-13T05:22:33Z</time>
      </trkpt>
      <trkpt lat="42.95884" lon="0.5623">
        <ele>626.7</ele>
        <time>2017-07-13T05:22:34Z</time>
      </trkpt>
      <trkpt lat="42.95883" lon="0.56226">
        <ele>627.2</ele>
        <time>2017-07-13T05:22:35Z</time>
      </trkpt>
      <trkpt lat="42.95882" lon="0.56223">
        <ele>627.6</ele>
        <time>2017-07-13T05:22:36Z</time>
      </trkpt>
      <trkpt lat="42.95882" lon="0.56219">
        <ele>627.8</ele>
        <time>2017-07-13T05:22:37Z</time>
      </trkpt>
      <trkpt lat="42.95881" lon="0.56216">
        <ele>628.1</ele>
        <time>2017-07-13T05:22:38Z</time>
      </trkpt>
      <trkpt lat="42.9588" lon="0.56213">
        <ele>628.3</ele>
        <time>2017-07-13T05:22:39Z</time>
      </trkpt>
      <trkpt lat="42.95878" lon="0.56209">
        <ele>628.4</ele>
        <time>2017-07-13T05:22:40Z</time>
      </trkpt>
      <trkpt lat="42.95877" lon="0.56206">
        <ele>628.4</ele>
        <time>2017-07-13T05:22:41Z</time>
      </trkpt>
      <trkpt lat="42.95876" lon="0.56203">
        <ele>628.4</ele>
        <time>2017-07-13T05:22:42Z</time>
      </trkpt>
      <trkpt lat="42.95875" lon="0.562">
        <ele>628.4</ele>
        <time>2017-07-13T05:22:43Z</time>
      </trkpt>
      <trkpt lat="42.95873" lon="0.56197">
        <ele>628.4</ele>
        <time>2017-07-13T05:22:44Z</time>
      </trkpt>
      <trkpt lat="42.95872" lon="0.56194">
        <ele>628.4</ele>
        <time>2017-07-13T05:22:45Z</time>
      </trkpt>
      <trkpt lat="42.95871" lon="0.56191">
        <ele>628.3</ele>
        <time>2017-07-13T05:22:46Z</time>
      </trkpt>
      <trkpt lat="42.95869" lon="0.56188">
        <ele>628.3</ele>
        <time>2017-07-13T05:22:47Z</time>
      </trkpt>
      <trkpt lat="42.95868" lon="0.56184">
        <ele>628.3</ele>
        <time>2017-07-13T05:22:48Z</time>
      </trkpt>
      <trkpt lat="42.95867" lon="0.56181">
        <ele>628.2</ele>
        <time>2017-07-13T05:22:49Z</time>
      </trkpt>
      <trkpt lat="42.95866" lon="0.56178">
        <ele>628.2</ele>
        <time>2017-07-13T05:22:50Z</time>
      </trkpt>
      <trkpt lat="42.95864" lon="0.56175">
        <ele>628.2</ele>
        <time>2017-07-13T05:22:51Z</time>
      </trkpt>
      <trkpt lat="42.95863" lon="0.56172">
        <ele>628.2</ele>
        <time>2017-07-13T05:22:52Z</time>
      </trkpt>
      <trkpt lat="42.95862" lon="0.56169">
        <ele>628.2</ele>
        <time>2017-07-13T05:22:53Z</time>
      </trkpt>
      <trkpt lat="42.95861" lon="0.56165">
        <ele>628.3</ele>
        <time>2017-07-13T05:22:54Z</time>
      </trkpt>
      <trkpt lat="42.9586" lon="0.56162">
        <ele>628.6</ele>
        <time>2017-07-13T05:22:55Z</time>
      </trkpt>
      <trkpt lat="42.9586" lon="0.56159">
        <ele>628.8</ele>
        <time>2017-07-13T05:22:56Z</time>
      </trkpt>
      <trkpt lat="42.95859" lon="0.56155">
        <ele>629.1</ele>
        <time>2017-07-13T05:22:57Z</time>
      </trkpt>
      <trkpt lat="42.95858" lon="0.56152">
        <ele>629.4</ele>
        <time>2017-07-13T05:22:58Z</time>
      </trkpt>
      <trkpt lat="42.95858" lon="0.56148">
        <ele>629.8</ele>
        <time>2017-07-13T05:22:59Z</time>
      </trkpt>
      <trkpt lat="42.95857" lon="0.56145">
        <ele>630.2</ele>
        <time>2017-07-13T05:23:00Z</time>
      </trkpt>
      <trkpt lat="42.95857" lon="0.56141">
        <ele>630.7</ele>
        <time>2017-07-13T05:23:01Z</time>
      </trkpt>
      <trkpt lat="42.95856" lon="0.56138">
        <ele>631.1</ele>
        <time>2017-07-13T05:23:02Z</time>
      </trkpt>
      <trkpt lat="42.95856" lon="0.56134">
        <ele>631.6</ele>
        <time>2017-07-13T05:23:03Z</time>
      </trkpt>
      <trkpt lat="42.95855" lon="0.5613">
        <ele>632</ele>
        <time>2017-07-13T05:23:04Z</time>
      </trkpt>
      <trkpt lat="42.95855" lon="0.56127">
        <ele>632.6</ele>
        <time>2017-07-13T05:23:05Z</time>
      </trkpt>
      <trkpt lat="42.95855" lon="0.56123">
        <ele>633</ele>
        <time>2017-07-13T05:23:06Z</time>
      </trkpt>
      <trkpt lat="42.95854" lon="0.5612">
        <ele>633.5</ele>
        <time>2017-07-13T05:23:07Z</time>
      </trkpt>
      <trkpt lat="42.95854" lon="0.56116">
        <ele>633.9</ele>
        <time>2017-07-13T05:23:08Z</time>
      </trkpt>
      <trkpt lat="42.95853" lon="0.56113">
        <ele>634.4</ele>
        <time>2017-07-13T05:23:09Z</time>
      </trkpt>
      <trkpt lat="42.95853" lon="0.56109">
        <ele>634.8</ele>
        <time>2017-07-13T05:23:10Z</time>
      </trkpt>
      <trkpt lat="42.95852" lon="0.56106">
        <ele>635.2</ele>
        <time>2017-07-13T05:23:11Z</time>
      </trkpt>
      <trkpt lat="42.95852" lon="0.56102">
        <ele>635.5</ele>
        <time>2017-07-13T05:23:12Z</time>
      </trkpt>
      <trkpt lat="42.95851" lon="0.56099">
        <ele>635.8</ele>
        <time>2017-07-13T05:23:13Z</time>
      </trkpt>
      <trkpt lat="42.9585" lon="0.56096">
        <ele>636.2</ele>
        <time>2017-07-13T05:23:14Z</time>
      </trkpt>
      <trkpt lat="42.9585" lon="0.56092">
        <ele>636.4</ele>
        <time>2017-07-13T05:23:15Z</time>
      </trkpt>
      <trkpt lat="42.95849" lon="0.56089">
        <ele>636.7</ele>
        <time>2017-07-13T05:23:16Z</time>
      </trkpt>
      <trkpt lat="42.95848" lon="0.56086">
        <ele>636.9</ele>
        <time>2017-07-13T05:23:17Z</time>
      </trkpt>
      <trkpt lat="42.95847" lon="0.56083">
        <ele>637.2</ele>
        <time>2017-07-13T05:23:18Z</time>
      </trkpt>
      <trkpt lat="42.95846" lon="0.5608">
        <ele>637.6</ele>
        <time>2017-07-13T05:23:19Z</time>
      </trkpt>
      <trkpt lat="42.95845" lon="0.56076">
        <ele>638.1</ele>
        <time>2017-07-13T05:23:20Z</time>
      </trkpt>
      <trkpt lat="42.95844" lon="0.56073">
        <ele>638.5</ele>
        <time>2017-07-13T05:23:21Z</time>
      </trkpt>
      <trkpt lat="42.95843" lon="0.5607">
        <ele>638.9</ele>
        <time>2017-07-13T05:23:22Z</time>
      </trkpt>
      <trkpt lat="42.95841" lon="0.56067">
        <ele>639.2</ele>
        <time>2017-07-13T05:23:23Z</time>
      </trkpt>
      <trkpt lat="42.9584" lon="0.56064">
        <ele>639.5</ele>
        <time>2017-07-13T05:23:24Z</time>
      </trkpt>
      <trkpt lat="42.95839" lon="0.56061">
        <ele>639.8</ele>
        <time>2017-07-13T05:23:25Z</time>
      </trkpt>
      <trkpt lat="42.95837" lon="0.56058">
        <ele>640</ele>
        <time>2017-07-13T05:23:26Z</time>
      </trkpt>
      <trkpt lat="42.95835" lon="0.56056">
        <ele>640.2</ele>
        <time>2017-07-13T05:23:27Z</time>
      </trkpt>
      <trkpt lat="42.95834" lon="0.56053">
        <ele>640.4</ele>
        <time>2017-07-13T05:23:28Z</time>
      </trkpt>
      <trkpt lat="42.95832" lon="0.5605">
        <ele>640.7</ele>
        <time>2017-07-13T05:23:29Z</time>
      </trkpt>
      <trkpt lat="42.9583" lon="0.56047">
        <ele>640.9</ele>
        <time>2017-07-13T05:23:30Z</time>
      </trkpt>
      <trkpt lat="42.95828" lon="0.56045">
        <ele>641.2</ele>
        <time>2017-07-13T05:23:31Z</time>
      </trkpt>
      <trkpt lat="42.95827" lon="0.56042">
        <ele>641.3</ele>
        <time>2017-07-13T05:23:32Z</time>
      </trkpt>
      <trkpt lat="42.95825" lon="0.5604">
        <ele>641.5</ele>
        <time>2017-07-13T05:23:33Z</time>
      </trkpt>
      <trkpt lat="42.95823" lon="0.56038">
        <ele>641.6</ele>
        <time>2017-07-13T05:23:34Z</time>
      </trkpt>
      <trkpt lat="42.9582" lon="0.56035">
        <ele>641.6</ele>
        <time>2017-07-13T05:23:35Z</time>
      </trkpt>
      <trkpt lat="42.95818" lon="0.56033">
        <ele>641.6</ele>
        <time>2017-07-13T05:23:36Z</time>
      </trkpt>
      <trkpt lat="42.95816" lon="0.56031">
        <ele>641.5</ele>
        <time>2017-07-13T05:23:37Z</time>
      </trkpt>
      <trkpt lat="42.95814" lon="0.56029">
        <ele>641.4</ele>
        <time>2017-07-13T05:23:38Z</time>
      </trkpt>
      <trkpt lat="42.95812" lon="0.56027">
        <ele>641.2</ele>
        <time>2017-07-13T05:23:39Z</time>
      </trkpt>
      <trkpt lat="42.95809" lon="0.56025">
        <ele>641</ele>
        <time>2017-07-13T05:23:40Z</time>
      </trkpt>
      <trkpt lat="42.95807" lon="0.56023">
        <ele>640.8</ele>
        <time>2017-07-13T05:23:41Z</time>
      </trkpt>
      <trkpt lat="42.95805" lon="0.56021">
        <ele>640.6</ele>
        <time>2017-07-13T05:23:42Z</time>
      </trkpt>
      <trkpt lat="42.95803" lon="0.56019">
        <ele>640.3</ele>
        <time>2017-07-13T05:23:43Z</time>
      </trkpt>
      <trkpt lat="42.958" lon="0.56018">
        <ele>640.1</ele>
        <time>2017-07-13T05:23:44Z</time>
      </trkpt>
      <trkpt lat="42.95798" lon="0.56016">
        <ele>639.8</ele>
        <time>2017-07-13T05:23:45Z</time>
      </trkpt>
      <trkpt lat="42.95796" lon="0.56014">
        <ele>639.5</ele>
        <time>2017-07-13T05:23:46Z</time>
      </trkpt>
      <trkpt lat="42.95793" lon="0.56012">
        <ele>639.2</ele>
        <time>2017-07-13T05:23:47Z</time>
      </trkpt>
      <trkpt lat="42.95791" lon="0.5601">
        <ele>639</ele>
        <time>2017-07-13T05:23:48Z</time>
      </trkpt>
      <trkpt lat="42.95789" lon="0.56008">
        <ele>638.7</ele>
        <time>2017-07-13T05:23:49Z</time>
      </trkpt>
      <trkpt lat="42.95787" lon="0.56006">
        <ele>638.5</ele>
        <time>2017-07-13T05:23:50Z</time>
      </trkpt>
      <trkpt lat="42.95785" lon="0.56004">
        <ele>638.3</ele>
        <time>2017-07-13T05:23:51Z</time>
      </trkpt>
      <trkpt lat="42.95783" lon="0.56001">
        <ele>638</ele>
        <time>2017-07-13T05:23:52Z</time>
      </trkpt>
      <trkpt lat="42.95781" lon="0.55999">
        <ele>637.9</ele>
        <time>2017-07-13T05:23:53Z</time>
      </trkpt>
      <trkpt lat="42.95779" lon="0.55997">
        <ele>637.8</ele>
        <time>2017-07-13T05:23:54Z</time>
      </trkpt>
      <trkpt lat="42.95777" lon="0.55994">
        <ele>637.8</ele>
        <time>2017-07-13T05:23:55Z</time>
      </trkpt>
      <trkpt lat="42.95775" lon="0.55992">
        <ele>637.9</ele>
        <time>2017-07-13T05:23:56Z</time>
      </trkpt>
      <trkpt lat="42.95773" lon="0.55989">
        <ele>637.9</ele>
        <time>2017-07-13T05:23:57Z</time>
      </trkpt>
      <trkpt lat="42.95771" lon="0.55987">
        <ele>638.1</ele>
        <time>2017-07-13T05:23:58Z</time>
      </trkpt>
      <trkpt lat="42.9577" lon="0.55984">
        <ele>638.2</ele>
        <time>2017-07-13T05:23:59Z</time>
      </trkpt>
      <trkpt lat="42.95768" lon="0.55981">
        <ele>638.4</ele>
        <time>2017-07-13T05:24:00Z</time>
      </trkpt>
      <trkpt lat="42.95766" lon="0.55978">
        <ele>638.6</ele>
        <time>2017-07-13T05:24:01Z</time>
      </trkpt>
      <trkpt lat="42.95765" lon="0.55975">
        <ele>639</ele>
        <time>2017-07-13T05:24:02Z</time>
      </trkpt>
      <trkpt lat="42.95764" lon="0.55972">
        <ele>639.3</ele>
        <time>2017-07-13T05:24:03Z</time>
      </trkpt>
      <trkpt lat="42.95762" lon="0.55969">
        <ele>639.6</ele>
        <time>2017-07-13T05:24:04Z</time>
      </trkpt>
      <trkpt lat="42.95761" lon="0.55966">
        <ele>640</ele>
        <time>2017-07-13T05:24:05Z</time>
      </trkpt>
      <trkpt lat="42.9576" lon="0.55963">
        <ele>640.4</ele>
        <time>2017-07-13T05:24:06Z</time>
      </trkpt>
      <trkpt lat="42.95759" lon="0.5596">
        <ele>640.9</ele>
        <time>2017-07-13T05:24:07Z</time>
      </trkpt>
      <trkpt lat="42.95758" lon="0.55956">
        <ele>641.3</ele>
        <time>2017-07-13T05:24:08Z</time>
      </trkpt>
      <trkpt lat="42.95756" lon="0.55953">
        <ele>641.8</ele>
        <time>2017-07-13T05:24:09Z</time>
      </trkpt>
      <trkpt lat="42.95755" lon="0.5595">
        <ele>642.3</ele>
        <time>2017-07-13T05:24:10Z</time>
      </trkpt>
      <trkpt lat="42.95754" lon="0.55946">
        <ele>642.7</ele>
        <time>2017-07-13T05:24:11Z</time>
      </trkpt>
      <trkpt lat="42.95753" lon="0.55943">
        <ele>643.2</ele>
        <time>2017-07-13T05:24:12Z</time>
      </trkpt>
      <trkpt lat="42.95752" lon="0.5594">
        <ele>643.7</ele>
        <time>2017-07-13T05:24:13Z</time>
      </trkpt>
      <trkpt lat="42.95751" lon="0.55937">
        <ele>644.1</ele>
        <time>2017-07-13T05:24:14Z</time>
      </trkpt>
      <trkpt lat="42.9575" lon="0.55933">
        <ele>644.6</ele>
        <time>2017-07-13T05:24:15Z</time>
      </trkpt>
      <trkpt lat="42.95749" lon="0.5593">
        <ele>645.4</ele>
        <time>2017-07-13T05:24:16Z</time>
      </trkpt>
      <trkpt lat="42.95748" lon="0.55927">
        <ele>646.2</ele>
        <time>2017-07-13T05:24:17Z</time>
      </trkpt>
      <trkpt lat="42.95746" lon="0.55923">
        <ele>647</ele>
        <time>2017-07-13T05:24:18Z</time>
      </trkpt>
      <trkpt lat="42.95745" lon="0.5592">
        <ele>647.7</ele>
        <time>2017-07-13T05:24:19Z</time>
      </trkpt>
      <trkpt lat="42.95744" lon="0.55917">
        <ele>648.4</ele>
        <time>2017-07-13T05:24:20Z</time>
      </trkpt>
      <trkpt lat="42.95743" lon="0.55914">
        <ele>649.2</ele>
        <time>2017-07-13T05:24:21Z</time>
      </trkpt>
      <trkpt lat="42.95742" lon="0.5591">
        <ele>650</ele>
        <time>2017-07-13T05:24:22Z</time>
      </trkpt>
      <trkpt lat="42.95741" lon="0.55907">
        <ele>650.7</ele>
        <time>2017-07-13T05:24:23Z</time>
      </trkpt>
      <trkpt lat="42.9574" lon="0.55904">
        <ele>651.4</ele>
        <time>2017-07-13T05:24:24Z</time>
      </trkpt>
      <trkpt lat="42.95739" lon="0.55901">
        <ele>652.2</ele>
        <time>2017-07-13T05:24:25Z</time>
      </trkpt>
      <trkpt lat="42.95737" lon="0.55898">
        <ele>652.8</ele>
        <time>2017-07-13T05:24:26Z</time>
      </trkpt>
      <trkpt lat="42.95736" lon="0.55895">
        <ele>653.5</ele>
        <time>2017-07-13T05:24:27Z</time>
      </trkpt>
      <trkpt lat="42.95735" lon="0.55892">
        <ele>654.2</ele>
        <time>2017-07-13T05:24:28Z</time>
      </trkpt>
      <trkpt lat="42.95734" lon="0.55889">
        <ele>654.9</ele>
        <time>2017-07-13T05:24:29Z</time>
      </trkpt>
      <trkpt lat="42.95733" lon="0.55886">
        <ele>655.5</ele>
        <time>2017-07-13T05:24:30Z</time>
      </trkpt>
      <trkpt lat="42.95732" lon="0.55883">
        <ele>656.2</ele>
        <time>2017-07-13T05:24:31Z</time>
      </trkpt>
      <trkpt lat="42.95731" lon="0.5588">
        <ele>656.8</ele>
        <time>2017-07-13T05:24:32Z</time>
      </trkpt>
      <trkpt lat="42.9573" lon="0.55877">
        <ele>657.4</ele>
        <time>2017-07-13T05:24:33Z</time>
      </trkpt>
      <trkpt lat="42.95729" lon="0.55874">
        <ele>658</ele>
        <time>2017-07-13T05:24:34Z</time>
      </trkpt>
      <trkpt lat="42.95727" lon="0.55871">
        <ele>658.6</ele>
        <time>2017-07-13T05:24:35Z</time>
      </trkpt>
      <trkpt lat="42.95726" lon="0.55868">
        <ele>659.1</ele>
        <time>2017-07-13T05:24:36Z</time>
      </trkpt>
      <trkpt lat="42.95725" lon="0.55865">
        <ele>659.6</ele>
        <time>2017-07-13T05:24:37Z</time>
      </trkpt>
      <trkpt lat="42.95723" lon="0.55862">
        <ele>660.2</ele>
        <time>2017-07-13T05:24:38Z</time>
      </trkpt>
      <trkpt lat="42.95722" lon="0.55859">
        <ele>660.6</ele>
        <time>2017-07-13T05:24:39Z</time>
      </trkpt>
      <trkpt lat="42.9572" lon="0.55856">
        <ele>661.1</ele>
        <time>2017-07-13T05:24:40Z</time>
      </trkpt>
      <trkpt lat="42.95718" lon="0.55854">
        <ele>661.4</ele>
        <time>2017-07-13T05:24:41Z</time>
      </trkpt>
      <trkpt lat="42.95716" lon="0.55851">
        <ele>661.7</ele>
        <time>2017-07-13T05:24:42Z</time>
      </trkpt>
      <trkpt lat="42.95714" lon="0.55849">
        <ele>661.8</ele>
        <time>2017-07-13T05:24:43Z</time>
      </trkpt>
      <trkpt lat="42.95712" lon="0.55848">
        <ele>661.8</ele>
        <time>2017-07-13T05:24:44Z</time>
      </trkpt>
      <trkpt lat="42.95709" lon="0.55847">
        <ele>661.6</ele>
        <time>2017-07-13T05:24:45Z</time>
      </trkpt>
      <trkpt lat="42.95707" lon="0.55846">
        <ele>661.3</ele>
        <time>2017-07-13T05:24:46Z</time>
      </trkpt>
      <trkpt lat="42.95704" lon="0.55846">
        <ele>660.9</ele>
        <time>2017-07-13T05:24:47Z</time>
      </trkpt>
      <trkpt lat="42.95701" lon="0.55845">
        <ele>660.5</ele>
        <time>2017-07-13T05:24:48Z</time>
      </trkpt>
      <trkpt lat="42.95698" lon="0.55844">
        <ele>660.2</ele>
        <time>2017-07-13T05:24:49Z</time>
      </trkpt>
      <trkpt lat="42.95695" lon="0.55843">
        <ele>660</ele>
        <time>2017-07-13T05:24:50Z</time>
      </trkpt>
      <trkpt lat="42.95692" lon="0.55842">
        <ele>659.7</ele>
        <time>2017-07-13T05:24:51Z</time>
      </trkpt>
      <trkpt lat="42.95689" lon="0.55842">
        <ele>659.3</ele>
        <time>2017-07-13T05:24:52Z</time>
      </trkpt>
      <trkpt lat="42.95686" lon="0.55842">
        <ele>658.7</ele>
        <time>2017-07-13T05:24:53Z</time>
      </trkpt>
      <trkpt lat="42.95683" lon="0.55843">
        <ele>658.1</ele>
        <time>2017-07-13T05:24:54Z</time>
      </trkpt>
      <trkpt lat="42.9568" lon="0.55844">
        <ele>657.5</ele>
        <time>2017-07-13T05:24:55Z</time>
      </trkpt>
      <trkpt lat="42.95678" lon="0.55845">
        <ele>656.8</ele>
        <time>2017-07-13T05:24:56Z</time>
      </trkpt>
      <trkpt lat="42.95675" lon="0.55846">
        <ele>656</ele>
        <time>2017-07-13T05:24:57Z</time>
      </trkpt>
      <trkpt lat="42.95672" lon="0.55848">
        <ele>655.3</ele>
        <time>2017-07-13T05:24:58Z</time>
      </trkpt>
      <trkpt lat="42.9567" lon="0.55849">
        <ele>654.6</ele>
        <time>2017-07-13T05:24:59Z</time>
      </trkpt>
      <trkpt lat="42.95667" lon="0.5585">
        <ele>654</ele>
        <time>2017-07-13T05:25:00Z</time>
      </trkpt>
      <trkpt lat="42.95664" lon="0.55851">
        <ele>655</ele>
        <time>2017-07-13T05:25:01Z</time>
      </trkpt>
      <trkpt lat="42.95661" lon="0.55852">
        <ele>656.3</ele>
        <time>2017-07-13T05:25:02Z</time>
      </trkpt>
      <trkpt lat="42.95658" lon="0.55852">
        <ele>657.6</ele>
        <time>2017-07-13T05:25:03Z</time>
      </trkpt>
      <trkpt lat="42.95656" lon="0.55851">
        <ele>659</ele>
        <time>2017-07-13T05:25:04Z</time>
      </trkpt>
      <trkpt lat="42.95653" lon="0.5585">
        <ele>660.5</ele>
        <time>2017-07-13T05:25:05Z</time>
      </trkpt>
      <trkpt lat="42.9565" lon="0.55849">
        <ele>661.9</ele>
        <time>2017-07-13T05:25:06Z</time>
      </trkpt>
      <trkpt lat="42.95648" lon="0.55847">
        <ele>663.3</ele>
        <time>2017-07-13T05:25:07Z</time>
      </trkpt>
      <trkpt lat="42.95645" lon="0.55845">
        <ele>664.6</ele>
        <time>2017-07-13T05:25:08Z</time>
      </trkpt>
      <trkpt lat="42.95643" lon="0.55842">
        <ele>665.8</ele>
        <time>2017-07-13T05:25:09Z</time>
      </trkpt>
      <trkpt lat="42.95641" lon="0.55839">
        <ele>666.8</ele>
        <time>2017-07-13T05:25:10Z</time>
      </trkpt>
      <trkpt lat="42.9564" lon="0.55836">
        <ele>667.7</ele>
        <time>2017-07-13T05:25:11Z</time>
      </trkpt>
      <trkpt lat="42.95639" lon="0.55832">
        <ele>668.3</ele>
        <time>2017-07-13T05:25:12Z</time>
      </trkpt>
      <trkpt lat="42.95638" lon="0.55829">
        <ele>668.5</ele>
        <time>2017-07-13T05:25:13Z</time>
      </trkpt>
      <trkpt lat="42.95638" lon="0.55825">
        <ele>668.8</ele>
        <time>2017-07-13T05:25:14Z</time>
      </trkpt>
      <trkpt lat="42.95637" lon="0.55821">
        <ele>669</ele>
        <time>2017-07-13T05:25:15Z</time>
      </trkpt>
      <trkpt lat="42.95636" lon="0.55817">
        <ele>669.1</ele>
        <time>2017-07-13T05:25:16Z</time>
      </trkpt>
      <trkpt lat="42.95636" lon="0.55814">
        <ele>669.3</ele>
        <time>2017-07-13T05:25:17Z</time>
      </trkpt>
      <trkpt lat="42.95635" lon="0.5581">
        <ele>669.5</ele>
        <time>2017-07-13T05:25:18Z</time>
      </trkpt>
      <trkpt lat="42.95634" lon="0.55807">
        <ele>669.7</ele>
        <time>2017-07-13T05:25:19Z</time>
      </trkpt>
      <trkpt lat="42.95634" lon="0.55803">
        <ele>669.8</ele>
        <time>2017-07-13T05:25:20Z</time>
      </trkpt>
      <trkpt lat="42.95633" lon="0.55799">
        <ele>669.9</ele>
        <time>2017-07-13T05:25:21Z</time>
      </trkpt>
      <trkpt lat="42.95633" lon="0.55796">
        <ele>669.8</ele>
        <time>2017-07-13T05:25:22Z</time>
      </trkpt>
      <trkpt lat="42.95633" lon="0.55792">
        <ele>669.7</ele>
        <time>2017-07-13T05:25:23Z</time>
      </trkpt>
      <trkpt lat="42.95634" lon="0.55788">
        <ele>669.5</ele>
        <time>2017-07-13T05:25:24Z</time>
      </trkpt>
      <trkpt lat="42.95634" lon="0.55785">
        <ele>669.2</ele>
        <time>2017-07-13T05:25:25Z</time>
      </trkpt>
      <trkpt lat="42.95635" lon="0.55781">
        <ele>668.9</ele>
        <time>2017-07-13T05:25:26Z</time>
      </trkpt>
      <trkpt lat="42.95637" lon="0.55777">
        <ele>668.6</ele>
        <time>2017-07-13T05:25:27Z</time>
      </trkpt>
      <trkpt lat="42.95638" lon="0.55774">
        <ele>668.2</ele>
        <time>2017-07-13T05:25:28Z</time>
      </trkpt>
      <trkpt lat="42.9564" lon="0.55771">
        <ele>668</ele>
        <time>2017-07-13T05:25:29Z</time>
      </trkpt>
      <trkpt lat="42.95641" lon="0.55767">
        <ele>667.7</ele>
        <time>2017-07-13T05:25:30Z</time>
      </trkpt>
      <trkpt lat="42.95643" lon="0.55764">
        <ele>667.4</ele>
        <time>2017-07-13T05:25:31Z</time>
      </trkpt>
      <trkpt lat="42.95645" lon="0.55761">
        <ele>667.2</ele>
        <time>2017-07-13T05:25:32Z</time>
      </trkpt>
      <trkpt lat="42.95646" lon="0.55758">
        <ele>667</ele>
        <time>2017-07-13T05:25:33Z</time>
      </trkpt>
      <trkpt lat="42.95648" lon="0.55755">
        <ele>666.9</ele>
        <time>2017-07-13T05:25:34Z</time>
      </trkpt>
      <trkpt lat="42.9565" lon="0.55752">
        <ele>666.8</ele>
        <time>2017-07-13T05:25:35Z</time>
      </trkpt>
      <trkpt lat="42.95651" lon="0.55749">
        <ele>666.7</ele>
        <time>2017-07-13T05:25:36Z</time>
      </trkpt>
      <trkpt lat="42.95653" lon="0.55746">
        <ele>666.7</ele>
        <time>2017-07-13T05:25:37Z</time>
      </trkpt>
      <trkpt lat="42.95654" lon="0.55742">
        <ele>666.7</ele>
        <time>2017-07-13T05:25:38Z</time>
      </trkpt>
      <trkpt lat="42.95655" lon="0.55739">
        <ele>666.8</ele>
        <time>2017-07-13T05:25:39Z</time>
      </trkpt>
      <trkpt lat="42.95656" lon="0.55735">
        <ele>666.9</ele>
        <time>2017-07-13T05:25:40Z</time>
      </trkpt>
      <trkpt lat="42.95657" lon="0.55731">
        <ele>667.1</ele>
        <time>2017-07-13T05:25:41Z</time>
      </trkpt>
      <trkpt lat="42.95658" lon="0.55727">
        <ele>667.2</ele>
        <time>2017-07-13T05:25:42Z</time>
      </trkpt>
      <trkpt lat="42.95658" lon="0.55723">
        <ele>667.5</ele>
        <time>2017-07-13T05:25:43Z</time>
      </trkpt>
      <trkpt lat="42.95658" lon="0.55719">
        <ele>667.7</ele>
        <time>2017-07-13T05:25:44Z</time>
      </trkpt>
      <trkpt lat="42.95658" lon="0.55714">
        <ele>668</ele>
        <time>2017-07-13T05:25:45Z</time>
      </trkpt>
      <trkpt lat="42.95658" lon="0.5571">
        <ele>668.2</ele>
        <time>2017-07-13T05:25:46Z</time>
      </trkpt>
      <trkpt lat="42.95658" lon="0.55705">
        <ele>668.4</ele>
        <time>2017-07-13T05:25:47Z</time>
      </trkpt>
      <trkpt lat="42.95658" lon="0.55701">
        <ele>668.7</ele>
        <time>2017-07-13T05:25:48Z</time>
      </trkpt>
      <trkpt lat="42.95658" lon="0.55697">
        <ele>668.9</ele>
        <time>2017-07-13T05:25:49Z</time>
      </trkpt>
      <trkpt lat="42.95658" lon="0.55693">
        <ele>669.1</ele>
        <time>2017-07-13T05:25:50Z</time>
      </trkpt>
      <trkpt lat="42.95658" lon="0.55689">
        <ele>669.4</ele>
        <time>2017-07-13T05:25:51Z</time>
      </trkpt>
      <trkpt lat="42.95658" lon="0.55685">
        <ele>669.6</ele>
        <time>2017-07-13T05:25:52Z</time>
      </trkpt>
      <trkpt lat="42.95658" lon="0.55681">
        <ele>669.8</ele>
        <time>2017-07-13T05:25:53Z</time>
      </trkpt>
      <trkpt lat="42.95659" lon="0.55677">
        <ele>670</ele>
        <time>2017-07-13T05:25:54Z</time>
      </trkpt>
      <trkpt lat="42.95659" lon="0.55673">
        <ele>670.2</ele>
        <time>2017-07-13T05:25:55Z</time>
      </trkpt>
      <trkpt lat="42.95659" lon="0.55669">
        <ele>670.5</ele>
        <time>2017-07-13T05:25:56Z</time>
      </trkpt>
      <trkpt lat="42.95659" lon="0.55665">
        <ele>670.7</ele>
        <time>2017-07-13T05:25:57Z</time>
      </trkpt>
      <trkpt lat="42.95658" lon="0.55661">
        <ele>670.8</ele>
        <time>2017-07-13T05:25:58Z</time>
      </trkpt>
      <trkpt lat="42.95658" lon="0.55657">
        <ele>671</ele>
        <time>2017-07-13T05:25:59Z</time>
      </trkpt>
      <trkpt lat="42.95658" lon="0.55653">
        <ele>671.1</ele>
        <time>2017-07-13T05:26:00Z</time>
      </trkpt>
      <trkpt lat="42.95657" lon="0.55649">
        <ele>671.2</ele>
        <time>2017-07-13T05:26:01Z</time>
      </trkpt>
      <trkpt lat="42.95656" lon="0.55645">
        <ele>671.3</ele>
        <time>2017-07-13T05:26:02Z</time>
      </trkpt>
      <trkpt lat="42.95655" lon="0.55642">
        <ele>671.4</ele>
        <time>2017-07-13T05:26:03Z</time>
      </trkpt>
      <trkpt lat="42.95654" lon="0.55638">
        <ele>671.5</ele>
        <time>2017-07-13T05:26:04Z</time>
      </trkpt>
      <trkpt lat="42.95652" lon="0.55634">
        <ele>671.5</ele>
        <time>2017-07-13T05:26:05Z</time>
      </trkpt>
      <trkpt lat="42.95651" lon="0.5563">
        <ele>671.6</ele>
        <time>2017-07-13T05:26:06Z</time>
      </trkpt>
      <trkpt lat="42.95649" lon="0.55627">
        <ele>671.6</ele>
        <time>2017-07-13T05:26:07Z</time>
      </trkpt>
      <trkpt lat="42.95648" lon="0.55623">
        <ele>671.6</ele>
        <time>2017-07-13T05:26:08Z</time>
      </trkpt>
      <trkpt lat="42.95646" lon="0.5562">
        <ele>671.6</ele>
        <time>2017-07-13T05:26:09Z</time>
      </trkpt>
      <trkpt lat="42.95644" lon="0.55616">
        <ele>671.5</ele>
        <time>2017-07-13T05:26:10Z</time>
      </trkpt>
      <trkpt lat="42.95643" lon="0.55613">
        <ele>671.5</ele>
        <time>2017-07-13T05:26:11Z</time>
      </trkpt>
      <trkpt lat="42.95641" lon="0.55609">
        <ele>671.4</ele>
        <time>2017-07-13T05:26:12Z</time>
      </trkpt>
      <trkpt lat="42.95639" lon="0.55606">
        <ele>671.4</ele>
        <time>2017-07-13T05:26:13Z</time>
      </trkpt>
      <trkpt lat="42.95637" lon="0.55603">
        <ele>671.3</ele>
        <time>2017-07-13T05:26:14Z</time>
      </trkpt>
      <trkpt lat="42.95636" lon="0.55599">
        <ele>671.2</ele>
        <time>2017-07-13T05:26:15Z</time>
      </trkpt>
      <trkpt lat="42.95634" lon="0.55596">
        <ele>671.1</ele>
        <time>2017-07-13T05:26:16Z</time>
      </trkpt>
      <trkpt lat="42.95632" lon="0.55593">
        <ele>671.1</ele>
        <time>2017-07-13T05:26:17Z</time>
      </trkpt>
      <trkpt lat="42.95631" lon="0.55589">
        <ele>671</ele>
        <time>2017-07-13T05:26:18Z</time>
      </trkpt>
      <trkpt lat="42.95629" lon="0.55586">
        <ele>670.9</ele>
        <time>2017-07-13T05:26:19Z</time>
      </trkpt>
      <trkpt lat="42.95627" lon="0.55582">
        <ele>670.8</ele>
        <time>2017-07-13T05:26:20Z</time>
      </trkpt>
      <trkpt lat="42.95626" lon="0.55579">
        <ele>670.7</ele>
        <time>2017-07-13T05:26:21Z</time>
      </trkpt>
      <trkpt lat="42.95625" lon="0.55575">
        <ele>670.6</ele>
        <time>2017-07-13T05:26:22Z</time>
      </trkpt>
      <trkpt lat="42.95623" lon="0.55571">
        <ele>670.6</ele>
        <time>2017-07-13T05:26:23Z</time>
      </trkpt>
      <trkpt lat="42.95622" lon="0.55567">
        <ele>670.5</ele>
        <time>2017-07-13T05:26:24Z</time>
      </trkpt>
      <trkpt lat="42.9562" lon="0.55564">
        <ele>670.5</ele>
        <time>2017-07-13T05:26:25Z</time>
      </trkpt>
      <trkpt lat="42.95619" lon="0.5556">
        <ele>670.4</ele>
        <time>2017-07-13T05:26:26Z</time>
      </trkpt>
      <trkpt lat="42.95618" lon="0.55556">
        <ele>670.3</ele>
        <time>2017-07-13T05:26:27Z</time>
      </trkpt>
      <trkpt lat="42.95617" lon="0.55552">
        <ele>670.3</ele>
        <time>2017-07-13T05:26:28Z</time>
      </trkpt>
      <trkpt lat="42.95616" lon="0.55548">
        <ele>670.2</ele>
        <time>2017-07-13T05:26:29Z</time>
      </trkpt>
      <trkpt lat="42.95615" lon="0.55544">
        <ele>670.2</ele>
        <time>2017-07-13T05:26:30Z</time>
      </trkpt>
      <trkpt lat="42.95613" lon="0.5554">
        <ele>670.1</ele>
        <time>2017-07-13T05:26:31Z</time>
      </trkpt>
      <trkpt lat="42.95612" lon="0.55536">
        <ele>670.1</ele>
        <time>2017-07-13T05:26:32Z</time>
      </trkpt>
      <trkpt lat="42.95611" lon="0.55532">
        <ele>670</ele>
        <time>2017-07-13T05:26:33Z</time>
      </trkpt>
      <trkpt lat="42.9561" lon="0.55528">
        <ele>670</ele>
        <time>2017-07-13T05:26:34Z</time>
      </trkpt>
      <trkpt lat="42.95609" lon="0.55524">
        <ele>670</ele>
        <time>2017-07-13T05:26:35Z</time>
      </trkpt>
      <trkpt lat="42.95608" lon="0.5552">
        <ele>669.9</ele>
        <time>2017-07-13T05:26:36Z</time>
      </trkpt>
      <trkpt lat="42.95608" lon="0.55516">
        <ele>669.9</ele>
        <time>2017-07-13T05:26:37Z</time>
      </trkpt>
      <trkpt lat="42.95607" lon="0.55512">
        <ele>669.9</ele>
        <time>2017-07-13T05:26:38Z</time>
      </trkpt>
      <trkpt lat="42.95606" lon="0.55508">
        <ele>669.8</ele>
        <time>2017-07-13T05:26:39Z</time>
      </trkpt>
      <trkpt lat="42.95605" lon="0.55504">
        <ele>669.8</ele>
        <time>2017-07-13T05:26:40Z</time>
      </trkpt>
      <trkpt lat="42.95605" lon="0.555">
        <ele>669.8</ele>
        <time>2017-07-13T05:26:41Z</time>
      </trkpt>
      <trkpt lat="42.95604" lon="0.55496">
        <ele>669.9</ele>
        <time>2017-07-13T05:26:42Z</time>
      </trkpt>
      <trkpt lat="42.95604" lon="0.55491">
        <ele>670</ele>
        <time>2017-07-13T05:26:43Z</time>
      </trkpt>
      <trkpt lat="42.95604" lon="0.55487">
        <ele>670.1</ele>
        <time>2017-07-13T05:26:44Z</time>
      </trkpt>
      <trkpt lat="42.95604" lon="0.55483">
        <ele>670.2</ele>
        <time>2017-07-13T05:26:45Z</time>
      </trkpt>
      <trkpt lat="42.95604" lon="0.55478">
        <ele>670.3</ele>
        <time>2017-07-13T05:26:46Z</time>
      </trkpt>
      <trkpt lat="42.95604" lon="0.55474">
        <ele>670.5</ele>
        <time>2017-07-13T05:26:47Z</time>
      </trkpt>
      <trkpt lat="42.95604" lon="0.5547">
        <ele>670.6</ele>
        <time>2017-07-13T05:26:48Z</time>
      </trkpt>
      <trkpt lat="42.95604" lon="0.55465">
        <ele>670.8</ele>
        <time>2017-07-13T05:26:49Z</time>
      </trkpt>
      <trkpt lat="42.95605" lon="0.55461">
        <ele>671</ele>
        <time>2017-07-13T05:26:50Z</time>
      </trkpt>
      <trkpt lat="42.95606" lon="0.55457">
        <ele>671.3</ele>
        <time>2017-07-13T05:26:51Z</time>
      </trkpt>
      <trkpt lat="42.95607" lon="0.55453">
        <ele>671.5</ele>
        <time>2017-07-13T05:26:52Z</time>
      </trkpt>
      <trkpt lat="42.95608" lon="0.55449">
        <ele>671.8</ele>
        <time>2017-07-13T05:26:53Z</time>
      </trkpt>
      <trkpt lat="42.95609" lon="0.55445">
        <ele>672.1</ele>
        <time>2017-07-13T05:26:54Z</time>
      </trkpt>
      <trkpt lat="42.95609" lon="0.55441">
        <ele>672.3</ele>
        <time>2017-07-13T05:26:55Z</time>
      </trkpt>
      <trkpt lat="42.9561" lon="0.55437">
        <ele>672.5</ele>
        <time>2017-07-13T05:26:56Z</time>
      </trkpt>
      <trkpt lat="42.9561" lon="0.55433">
        <ele>672.6</ele>
        <time>2017-07-13T05:26:57Z</time>
      </trkpt>
      <trkpt lat="42.9561" lon="0.5543">
        <ele>672.7</ele>
        <time>2017-07-13T05:26:58Z</time>
      </trkpt>
      <trkpt lat="42.9561" lon="0.55425">
        <ele>672.8</ele>
        <time>2017-07-13T05:26:59Z</time>
      </trkpt>
      <trkpt lat="42.95609" lon="0.55421">
        <ele>672.9</ele>
        <time>2017-07-13T05:27:00Z</time>
      </trkpt>
      <trkpt lat="42.95609" lon="0.55417">
        <ele>673</ele>
        <time>2017-07-13T05:27:01Z</time>
      </trkpt>
      <trkpt lat="42.95608" lon="0.55412">
        <ele>673</ele>
        <time>2017-07-13T05:27:02Z</time>
      </trkpt>
      <trkpt lat="42.95608" lon="0.55408">
        <ele>672.9</ele>
        <time>2017-07-13T05:27:03Z</time>
      </trkpt>
      <trkpt lat="42.95607" lon="0.55403">
        <ele>672.9</ele>
        <time>2017-07-13T05:27:04Z</time>
      </trkpt>
      <trkpt lat="42.95606" lon="0.55399">
        <ele>672.8</ele>
        <time>2017-07-13T05:27:05Z</time>
      </trkpt>
      <trkpt lat="42.95605" lon="0.55394">
        <ele>672.7</ele>
        <time>2017-07-13T05:27:06Z</time>
      </trkpt>
      <trkpt lat="42.95604" lon="0.5539">
        <ele>672.6</ele>
        <time>2017-07-13T05:27:07Z</time>
      </trkpt>
      <trkpt lat="42.95603" lon="0.55385">
        <ele>672.4</ele>
        <time>2017-07-13T05:27:08Z</time>
      </trkpt>
      <trkpt lat="42.95601" lon="0.55381">
        <ele>672.1</ele>
        <time>2017-07-13T05:27:09Z</time>
      </trkpt>
      <trkpt lat="42.956" lon="0.55377">
        <ele>671.8</ele>
        <time>2017-07-13T05:27:10Z</time>
      </trkpt>
      <trkpt lat="42.95598" lon="0.55373">
        <ele>671.5</ele>
        <time>2017-07-13T05:27:11Z</time>
      </trkpt>
      <trkpt lat="42.95596" lon="0.5537">
        <ele>671.1</ele>
        <time>2017-07-13T05:27:12Z</time>
      </trkpt>
      <trkpt lat="42.95594" lon="0.55366">
        <ele>670.6</ele>
        <time>2017-07-13T05:27:13Z</time>
      </trkpt>
      <trkpt lat="42.95591" lon="0.55363">
        <ele>670.1</ele>
        <time>2017-07-13T05:27:14Z</time>
      </trkpt>
      <trkpt lat="42.95589" lon="0.55359">
        <ele>669.5</ele>
        <time>2017-07-13T05:27:15Z</time>
      </trkpt>
      <trkpt lat="42.95586" lon="0.55356">
        <ele>669</ele>
        <time>2017-07-13T05:27:16Z</time>
      </trkpt>
      <trkpt lat="42.95584" lon="0.55353">
        <ele>668.3</ele>
        <time>2017-07-13T05:27:17Z</time>
      </trkpt>
      <trkpt lat="42.95581" lon="0.5535">
        <ele>668.4</ele>
        <time>2017-07-13T05:27:18Z</time>
      </trkpt>
      <trkpt lat="42.95578" lon="0.55347">
        <ele>668.7</ele>
        <time>2017-07-13T05:27:19Z</time>
      </trkpt>
      <trkpt lat="42.95576" lon="0.55344">
        <ele>668.9</ele>
        <time>2017-07-13T05:27:20Z</time>
      </trkpt>
      <trkpt lat="42.95573" lon="0.55341">
        <ele>669.1</ele>
        <time>2017-07-13T05:27:21Z</time>
      </trkpt>
      <trkpt lat="42.9557" lon="0.55338">
        <ele>669.4</ele>
        <time>2017-07-13T05:27:22Z</time>
      </trkpt>
      <trkpt lat="42.95567" lon="0.55335">
        <ele>669.6</ele>
        <time>2017-07-13T05:27:23Z</time>
      </trkpt>
      <trkpt lat="42.95565" lon="0.55332">
        <ele>669.8</ele>
        <time>2017-07-13T05:27:24Z</time>
      </trkpt>
      <trkpt lat="42.95562" lon="0.55329">
        <ele>670.1</ele>
        <time>2017-07-13T05:27:25Z</time>
      </trkpt>
      <trkpt lat="42.95559" lon="0.55326">
        <ele>670.4</ele>
        <time>2017-07-13T05:27:26Z</time>
      </trkpt>
      <trkpt lat="42.95557" lon="0.55323">
        <ele>670.7</ele>
        <time>2017-07-13T05:27:27Z</time>
      </trkpt>
      <trkpt lat="42.95554" lon="0.5532">
        <ele>670.9</ele>
        <time>2017-07-13T05:27:28Z</time>
      </trkpt>
      <trkpt lat="42.95552" lon="0.55317">
        <ele>671</ele>
        <time>2017-07-13T05:27:29Z</time>
      </trkpt>
      <trkpt lat="42.95549" lon="0.55314">
        <ele>671.2</ele>
        <time>2017-07-13T05:27:30Z</time>
      </trkpt>
      <trkpt lat="42.95547" lon="0.55311">
        <ele>671.3</ele>
        <time>2017-07-13T05:27:31Z</time>
      </trkpt>
      <trkpt lat="42.95545" lon="0.55307">
        <ele>671.4</ele>
        <time>2017-07-13T05:27:32Z</time>
      </trkpt>
      <trkpt lat="42.95542" lon="0.55304">
        <ele>671.4</ele>
        <time>2017-07-13T05:27:33Z</time>
      </trkpt>
      <trkpt lat="42.9554" lon="0.55301">
        <ele>671.5</ele>
        <time>2017-07-13T05:27:34Z</time>
      </trkpt>
      <trkpt lat="42.95538" lon="0.55298">
        <ele>671.5</ele>
        <time>2017-07-13T05:27:35Z</time>
      </trkpt>
      <trkpt lat="42.95535" lon="0.55294">
        <ele>671.4</ele>
        <time>2017-07-13T05:27:36Z</time>
      </trkpt>
      <trkpt lat="42.95533" lon="0.55291">
        <ele>671.4</ele>
        <time>2017-07-13T05:27:37Z</time>
      </trkpt>
      <trkpt lat="42.95531" lon="0.55287">
        <ele>671.3</ele>
        <time>2017-07-13T05:27:38Z</time>
      </trkpt>
      <trkpt lat="42.95529" lon="0.55284">
        <ele>671.2</ele>
        <time>2017-07-13T05:27:39Z</time>
      </trkpt>
      <trkpt lat="42.95526" lon="0.5528">
        <ele>671</ele>
        <time>2017-07-13T05:27:40Z</time>
      </trkpt>
      <trkpt lat="42.95524" lon="0.55277">
        <ele>670.8</ele>
        <time>2017-07-13T05:27:41Z</time>
      </trkpt>
      <trkpt lat="42.95522" lon="0.55273">
        <ele>670.6</ele>
        <time>2017-07-13T05:27:42Z</time>
      </trkpt>
      <trkpt lat="42.9552" lon="0.55269">
        <ele>670.3</ele>
        <time>2017-07-13T05:27:43Z</time>
      </trkpt>
      <trkpt lat="42.95518" lon="0.55265">
        <ele>670</ele>
        <time>2017-07-13T05:27:44Z</time>
      </trkpt>
      <trkpt lat="42.95516" lon="0.55261">
        <ele>669.7</ele>
        <time>2017-07-13T05:27:45Z</time>
      </trkpt>
      <trkpt lat="42.95515" lon="0.55257">
        <ele>669.4</ele>
        <time>2017-07-13T05:27:46Z</time>
      </trkpt>
      <trkpt lat="42.95513" lon="0.55253">
        <ele>669</ele>
        <time>2017-07-13T05:27:47Z</time>
      </trkpt>
      <trkpt lat="42.95511" lon="0.55249">
        <ele>668.7</ele>
        <time>2017-07-13T05:27:48Z</time>
      </trkpt>
      <trkpt lat="42.9551" lon="0.55245">
        <ele>668.5</ele>
        <time>2017-07-13T05:27:49Z</time>
      </trkpt>
      <trkpt lat="42.95508" lon="0.55241">
        <ele>668.3</ele>
        <time>2017-07-13T05:27:50Z</time>
      </trkpt>
      <trkpt lat="42.95506" lon="0.55237">
        <ele>668.1</ele>
        <time>2017-07-13T05:27:51Z</time>
      </trkpt>
      <trkpt lat="42.95505" lon="0.55232">
        <ele>667.9</ele>
        <time>2017-07-13T05:27:52Z</time>
      </trkpt>
      <trkpt lat="42.95503" lon="0.55228">
        <ele>667.7</ele>
        <time>2017-07-13T05:27:53Z</time>
      </trkpt>
      <trkpt lat="42.95501" lon="0.55224">
        <ele>667.5</ele>
        <time>2017-07-13T05:27:54Z</time>
      </trkpt>
      <trkpt lat="42.955" lon="0.5522">
        <ele>667.4</ele>
        <time>2017-07-13T05:27:55Z</time>
      </trkpt>
      <trkpt lat="42.95498" lon="0.55216">
        <ele>667.7</ele>
        <time>2017-07-13T05:27:56Z</time>
      </trkpt>
      <trkpt lat="42.95496" lon="0.55212">
        <ele>668</ele>
        <time>2017-07-13T05:27:57Z</time>
      </trkpt>
      <trkpt lat="42.95495" lon="0.55208">
        <ele>668.2</ele>
        <time>2017-07-13T05:27:58Z</time>
      </trkpt>
      <trkpt lat="42.95493" lon="0.55203">
        <ele>668.5</ele>
        <time>2017-07-13T05:27:59Z</time>
      </trkpt>
      <trkpt lat="42.95491" lon="0.55199">
        <ele>668.7</ele>
        <time>2017-07-13T05:28:00Z</time>
      </trkpt>
      <trkpt lat="42.95489" lon="0.55195">
        <ele>669</ele>
        <time>2017-07-13T05:28:01Z</time>
      </trkpt>
      <trkpt lat="42.95488" lon="0.55191">
        <ele>669.2</ele>
        <time>2017-07-13T05:28:02Z</time>
      </trkpt>
      <trkpt lat="42.95486" lon="0.55187">
        <ele>669.4</ele>
        <time>2017-07-13T05:28:03Z</time>
      </trkpt>
      <trkpt lat="42.95485" lon="0.55183">
        <ele>669.6</ele>
        <time>2017-07-13T05:28:04Z</time>
      </trkpt>
      <trkpt lat="42.95483" lon="0.55179">
        <ele>669.7</ele>
        <time>2017-07-13T05:28:05Z</time>
      </trkpt>
      <trkpt lat="42.95482" lon="0.55175">
        <ele>669.8</ele>
        <time>2017-07-13T05:28:06Z</time>
      </trkpt>
      <trkpt lat="42.95481" lon="0.55171">
        <ele>669.9</ele>
        <time>2017-07-13T05:28:07Z</time>
      </trkpt>
      <trkpt lat="42.9548" lon="0.55166">
        <ele>669.9</ele>
        <time>2017-07-13T05:28:08Z</time>
      </trkpt>
      <trkpt lat="42.95479" lon="0.55162">
        <ele>670.1</ele>
        <time>2017-07-13T05:28:09Z</time>
      </trkpt>
      <trkpt lat="42.95478" lon="0.55157">
        <ele>670.2</ele>
        <time>2017-07-13T05:28:10Z</time>
      </trkpt>
      <trkpt lat="42.95478" lon="0.55153">
        <ele>670.2</ele>
        <time>2017-07-13T05:28:11Z</time>
      </trkpt>
      <trkpt lat="42.95478" lon="0.55148">
        <ele>670.3</ele>
        <time>2017-07-13T05:28:12Z</time>
      </trkpt>
      <trkpt lat="42.95478" lon="0.55143">
        <ele>670.3</ele>
        <time>2017-07-13T05:28:13Z</time>
      </trkpt>
      <trkpt lat="42.95478" lon="0.55139">
        <ele>670.3</ele>
        <time>2017-07-13T05:28:14Z</time>
      </trkpt>
      <trkpt lat="42.95478" lon="0.55134">
        <ele>670.2</ele>
        <time>2017-07-13T05:28:15Z</time>
      </trkpt>
      <trkpt lat="42.95478" lon="0.55129">
        <ele>670.2</ele>
        <time>2017-07-13T05:28:16Z</time>
      </trkpt>
      <trkpt lat="42.95479" lon="0.55124">
        <ele>670.1</ele>
        <time>2017-07-13T05:28:17Z</time>
      </trkpt>
      <trkpt lat="42.95479" lon="0.5512">
        <ele>670</ele>
        <time>2017-07-13T05:28:18Z</time>
      </trkpt>
      <trkpt lat="42.9548" lon="0.55115">
        <ele>669.9</ele>
        <time>2017-07-13T05:28:19Z</time>
      </trkpt>
      <trkpt lat="42.9548" lon="0.55111">
        <ele>669.8</ele>
        <time>2017-07-13T05:28:20Z</time>
      </trkpt>
      <trkpt lat="42.95481" lon="0.55106">
        <ele>669.7</ele>
        <time>2017-07-13T05:28:21Z</time>
      </trkpt>
      <trkpt lat="42.95482" lon="0.55102">
        <ele>669.5</ele>
        <time>2017-07-13T05:28:22Z</time>
      </trkpt>
      <trkpt lat="42.95483" lon="0.55097">
        <ele>669.4</ele>
        <time>2017-07-13T05:28:23Z</time>
      </trkpt>
      <trkpt lat="42.95484" lon="0.55093">
        <ele>669.2</ele>
        <time>2017-07-13T05:28:24Z</time>
      </trkpt>
      <trkpt lat="42.95486" lon="0.55089">
        <ele>669</ele>
        <time>2017-07-13T05:28:25Z</time>
      </trkpt>
      <trkpt lat="42.95487" lon="0.55084">
        <ele>668.9</ele>
        <time>2017-07-13T05:28:26Z</time>
      </trkpt>
      <trkpt lat="42.95489" lon="0.5508">
        <ele>668.7</ele>
        <time>2017-07-13T05:28:27Z</time>
      </trkpt>
      <trkpt lat="42.9549" lon="0.55076">
        <ele>668.7</ele>
        <time>2017-07-13T05:28:28Z</time>
      </trkpt>
      <trkpt lat="42.95492" lon="0.55072">
        <ele>668.6</ele>
        <time>2017-07-13T05:28:29Z</time>
      </trkpt>
      <trkpt lat="42.95494" lon="0.55068">
        <ele>668.4</ele>
        <time>2017-07-13T05:28:30Z</time>
      </trkpt>
      <trkpt lat="42.95496" lon="0.55064">
        <ele>668.3</ele>
        <time>2017-07-13T05:28:31Z</time>
      </trkpt>
      <trkpt lat="42.95498" lon="0.5506">
        <ele>668.2</ele>
        <time>2017-07-13T05:28:32Z</time>
      </trkpt>
      <trkpt lat="42.955" lon="0.55056">
        <ele>668</ele>
        <time>2017-07-13T05:28:33Z</time>
      </trkpt>
      <trkpt lat="42.95502" lon="0.55052">
        <ele>668.4</ele>
        <time>2017-07-13T05:28:34Z</time>
      </trkpt>
      <trkpt lat="42.95504" lon="0.55049">
        <ele>668.9</ele>
        <time>2017-07-13T05:28:35Z</time>
      </trkpt>
      <trkpt lat="42.95506" lon="0.55045">
        <ele>669.4</ele>
        <time>2017-07-13T05:28:36Z</time>
      </trkpt>
      <trkpt lat="42.95508" lon="0.55041">
        <ele>669.9</ele>
        <time>2017-07-13T05:28:37Z</time>
      </trkpt>
      <trkpt lat="42.95511" lon="0.55038">
        <ele>670.4</ele>
        <time>2017-07-13T05:28:38Z</time>
      </trkpt>
      <trkpt lat="42.95513" lon="0.55034">
        <ele>670.8</ele>
        <time>2017-07-13T05:28:39Z</time>
      </trkpt>
      <trkpt lat="42.95515" lon="0.55031">
        <ele>671.3</ele>
        <time>2017-07-13T05:28:40Z</time>
      </trkpt>
      <trkpt lat="42.95517" lon="0.55028">
        <ele>671.8</ele>
        <time>2017-07-13T05:28:41Z</time>
      </trkpt>
      <trkpt lat="42.9552" lon="0.55024">
        <ele>672.3</ele>
        <time>2017-07-13T05:28:42Z</time>
      </trkpt>
      <trkpt lat="42.95522" lon="0.55021">
        <ele>672.7</ele>
        <time>2017-07-13T05:28:43Z</time>
      </trkpt>
      <trkpt lat="42.95524" lon="0.55018">
        <ele>673.2</ele>
        <time>2017-07-13T05:28:44Z</time>
      </trkpt>
      <trkpt lat="42.95527" lon="0.55015">
        <ele>673.7</ele>
        <time>2017-07-13T05:28:45Z</time>
      </trkpt>
      <trkpt lat="42.95529" lon="0.55012">
        <ele>674.1</ele>
        <time>2017-07-13T05:28:46Z</time>
      </trkpt>
      <trkpt lat="42.95531" lon="0.55008">
        <ele>674.6</ele>
        <time>2017-07-13T05:28:47Z</time>
      </trkpt>
      <trkpt lat="42.95533" lon="0.55005">
        <ele>675</ele>
        <time>2017-07-13T05:28:48Z</time>
      </trkpt>
      <trkpt lat="42.95535" lon="0.55002">
        <ele>675.4</ele>
        <time>2017-07-13T05:28:49Z</time>
      </trkpt>
      <trkpt lat="42.95537" lon="0.54999">
        <ele>675.8</ele>
        <time>2017-07-13T05:28:50Z</time>
      </trkpt>
      <trkpt lat="42.95539" lon="0.54996">
        <ele>676.3</ele>
        <time>2017-07-13T05:28:51Z</time>
      </trkpt>
      <trkpt lat="42.95541" lon="0.54992">
        <ele>676.7</ele>
        <time>2017-07-13T05:28:52Z</time>
      </trkpt>
      <trkpt lat="42.95543" lon="0.54989">
        <ele>677.2</ele>
        <time>2017-07-13T05:28:53Z</time>
      </trkpt>
      <trkpt lat="42.95545" lon="0.54985">
        <ele>677.6</ele>
        <time>2017-07-13T05:28:54Z</time>
      </trkpt>
      <trkpt lat="42.95546" lon="0.54982">
        <ele>678</ele>
        <time>2017-07-13T05:28:55Z</time>
      </trkpt>
      <trkpt lat="42.95547" lon="0.54978">
        <ele>678.4</ele>
        <time>2017-07-13T05:28:56Z</time>
      </trkpt>
      <trkpt lat="42.95548" lon="0.54974">
        <ele>678.8</ele>
        <time>2017-07-13T05:28:57Z</time>
      </trkpt>
      <trkpt lat="42.95549" lon="0.5497">
        <ele>679.1</ele>
        <time>2017-07-13T05:28:58Z</time>
      </trkpt>
      <trkpt lat="42.9555" lon="0.54966">
        <ele>679.4</ele>
        <time>2017-07-13T05:28:59Z</time>
      </trkpt>
      <trkpt lat="42.9555" lon="0.54961">
        <ele>679.6</ele>
        <time>2017-07-13T05:29:00Z</time>
      </trkpt>
      <trkpt lat="42.9555" lon="0.54957">
        <ele>679.9</ele>
        <time>2017-07-13T05:29:01Z</time>
      </trkpt>
      <trkpt lat="42.9555" lon="0.54952">
        <ele>680.1</ele>
        <time>2017-07-13T05:29:02Z</time>
      </trkpt>
      <trkpt lat="42.9555" lon="0.54948">
        <ele>680.2</ele>
        <time>2017-07-13T05:29:03Z</time>
      </trkpt>
      <trkpt lat="42.95549" lon="0.54943">
        <ele>680.4</ele>
        <time>2017-07-13T05:29:04Z</time>
      </trkpt>
      <trkpt lat="42.95549" lon="0.54938">
        <ele>680.6</ele>
        <time>2017-07-13T05:29:05Z</time>
      </trkpt>
      <trkpt lat="42.95549" lon="0.54934">
        <ele>680.8</ele>
        <time>2017-07-13T05:29:06Z</time>
      </trkpt>
      <trkpt lat="42.95549" lon="0.54929">
        <ele>681</ele>
        <time>2017-07-13T05:29:07Z</time>
      </trkpt>
      <trkpt lat="42.95549" lon="0.54924">
        <ele>681.2</ele>
        <time>2017-07-13T05:29:08Z</time>
      </trkpt>
      <trkpt lat="42.95549" lon="0.54919">
        <ele>681.4</ele>
        <time>2017-07-13T05:29:09Z</time>
      </trkpt>
      <trkpt lat="42.95549" lon="0.54915">
        <ele>681.5</ele>
        <time>2017-07-13T05:29:10Z</time>
      </trkpt>
      <trkpt lat="42.95549" lon="0.5491">
        <ele>681.7</ele>
        <time>2017-07-13T05:29:11Z</time>
      </trkpt>
      <trkpt lat="42.95549" lon="0.54906">
        <ele>681.9</ele>
        <time>2017-07-13T05:29:12Z</time>
      </trkpt>
      <trkpt lat="42.95549" lon="0.54901">
        <ele>682.1</ele>
        <time>2017-07-13T05:29:13Z</time>
      </trkpt>
      <trkpt lat="42.95549" lon="0.54896">
        <ele>682.2</ele>
        <time>2017-07-13T05:29:14Z</time>
      </trkpt>
      <trkpt lat="42.95549" lon="0.54892">
        <ele>682.4</ele>
        <time>2017-07-13T05:29:15Z</time>
      </trkpt>
      <trkpt lat="42.95549" lon="0.54887">
        <ele>682.7</ele>
        <time>2017-07-13T05:29:16Z</time>
      </trkpt>
      <trkpt lat="42.95549" lon="0.54883">
        <ele>682.9</ele>
        <time>2017-07-13T05:29:17Z</time>
      </trkpt>
      <trkpt lat="42.9555" lon="0.54878">
        <ele>683.1</ele>
        <time>2017-07-13T05:29:18Z</time>
      </trkpt>
      <trkpt lat="42.9555" lon="0.54873">
        <ele>683.4</ele>
        <time>2017-07-13T05:29:19Z</time>
      </trkpt>
      <trkpt lat="42.95551" lon="0.54869">
        <ele>683.7</ele>
        <time>2017-07-13T05:29:20Z</time>
      </trkpt>
      <trkpt lat="42.95551" lon="0.54864">
        <ele>684</ele>
        <time>2017-07-13T05:29:21Z</time>
      </trkpt>
      <trkpt lat="42.95552" lon="0.5486">
        <ele>684.3</ele>
        <time>2017-07-13T05:29:22Z</time>
      </trkpt>
      <trkpt lat="42.95552" lon="0.54856">
        <ele>684.6</ele>
        <time>2017-07-13T05:29:23Z</time>
      </trkpt>
      <trkpt lat="42.95553" lon="0.54851">
        <ele>684.9</ele>
        <time>2017-07-13T05:29:24Z</time>
      </trkpt>
      <trkpt lat="42.95553" lon="0.54847">
        <ele>685.2</ele>
        <time>2017-07-13T05:29:25Z</time>
      </trkpt>
      <trkpt lat="42.95554" lon="0.54842">
        <ele>685.4</ele>
        <time>2017-07-13T05:29:26Z</time>
      </trkpt>
      <trkpt lat="42.95554" lon="0.54838">
        <ele>685.7</ele>
        <time>2017-07-13T05:29:27Z</time>
      </trkpt>
      <trkpt lat="42.95555" lon="0.54834">
        <ele>686</ele>
        <time>2017-07-13T05:29:28Z</time>
      </trkpt>
      <trkpt lat="42.95555" lon="0.5483">
        <ele>686.1</ele>
        <time>2017-07-13T05:29:29Z</time>
      </trkpt>
      <trkpt lat="42.95555" lon="0.54825">
        <ele>686.1</ele>
        <time>2017-07-13T05:29:30Z</time>
      </trkpt>
      <trkpt lat="42.95555" lon="0.54821">
        <ele>686.1</ele>
        <time>2017-07-13T05:29:31Z</time>
      </trkpt>
      <trkpt lat="42.95555" lon="0.54817">
        <ele>686.2</ele>
        <time>2017-07-13T05:29:32Z</time>
      </trkpt>
      <trkpt lat="42.95556" lon="0.54813">
        <ele>686.2</ele>
        <time>2017-07-13T05:29:33Z</time>
      </trkpt>
      <trkpt lat="42.95556" lon="0.54809">
        <ele>686.1</ele>
        <time>2017-07-13T05:29:34Z</time>
      </trkpt>
      <trkpt lat="42.95556" lon="0.54805">
        <ele>686.1</ele>
        <time>2017-07-13T05:29:35Z</time>
      </trkpt>
      <trkpt lat="42.95556" lon="0.54801">
        <ele>686.2</ele>
        <time>2017-07-13T05:29:36Z</time>
      </trkpt>
      <trkpt lat="42.95556" lon="0.54797">
        <ele>686.2</ele>
        <time>2017-07-13T05:29:37Z</time>
      </trkpt>
      <trkpt lat="42.95557" lon="0.54793">
        <ele>686.3</ele>
        <time>2017-07-13T05:29:38Z</time>
      </trkpt>
      <trkpt lat="42.95557" lon="0.54789">
        <ele>686.3</ele>
        <time>2017-07-13T05:29:39Z</time>
      </trkpt>
      <trkpt lat="42.95557" lon="0.54785">
        <ele>686.4</ele>
        <time>2017-07-13T05:29:40Z</time>
      </trkpt>
      <trkpt lat="42.95558" lon="0.54781">
        <ele>686.5</ele>
        <time>2017-07-13T05:29:41Z</time>
      </trkpt>
      <trkpt lat="42.95558" lon="0.54777">
        <ele>686.6</ele>
        <time>2017-07-13T05:29:42Z</time>
      </trkpt>
      <trkpt lat="42.95559" lon="0.54773">
        <ele>686.7</ele>
        <time>2017-07-13T05:29:43Z</time>
      </trkpt>
      <trkpt lat="42.95559" lon="0.54768">
        <ele>686.8</ele>
        <time>2017-07-13T05:29:44Z</time>
      </trkpt>
      <trkpt lat="42.9556" lon="0.54764">
        <ele>686.9</ele>
        <time>2017-07-13T05:29:45Z</time>
      </trkpt>
      <trkpt lat="42.9556" lon="0.5476">
        <ele>687</ele>
        <time>2017-07-13T05:29:46Z</time>
      </trkpt>
      <trkpt lat="42.95561" lon="0.54756">
        <ele>687</ele>
        <time>2017-07-13T05:29:47Z</time>
      </trkpt>
      <trkpt lat="42.95561" lon="0.54751">
        <ele>687.1</ele>
        <time>2017-07-13T05:29:48Z</time>
      </trkpt>
      <trkpt lat="42.95561" lon="0.54747">
        <ele>687</ele>
        <time>2017-07-13T05:29:49Z</time>
      </trkpt>
      <trkpt lat="42.95562" lon="0.54743">
        <ele>686.7</ele>
        <time>2017-07-13T05:29:50Z</time>
      </trkpt>
      <trkpt lat="42.95562" lon="0.54738">
        <ele>686.5</ele>
        <time>2017-07-13T05:29:51Z</time>
      </trkpt>
      <trkpt lat="42.95562" lon="0.54734">
        <ele>686.2</ele>
        <time>2017-07-13T05:29:52Z</time>
      </trkpt>
      <trkpt lat="42.95563" lon="0.5473">
        <ele>685.9</ele>
        <time>2017-07-13T05:29:53Z</time>
      </trkpt>
      <trkpt lat="42.95563" lon="0.54725">
        <ele>685.6</ele>
        <time>2017-07-13T05:29:54Z</time>
      </trkpt>
      <trkpt lat="42.95564" lon="0.54721">
        <ele>685.4</ele>
        <time>2017-07-13T05:29:55Z</time>
      </trkpt>
      <trkpt lat="42.95564" lon="0.54716">
        <ele>685.1</ele>
        <time>2017-07-13T05:29:56Z</time>
      </trkpt>
      <trkpt lat="42.95565" lon="0.54711">
        <ele>684.9</ele>
        <time>2017-07-13T05:29:57Z</time>
      </trkpt>
      <trkpt lat="42.95566" lon="0.54706">
        <ele>684.6</ele>
        <time>2017-07-13T05:29:58Z</time>
      </trkpt>
      <trkpt lat="42.95567" lon="0.54701">
        <ele>684.3</ele>
        <time>2017-07-13T05:29:59Z</time>
      </trkpt>
      <trkpt lat="42.95568" lon="0.54696">
        <ele>684</ele>
        <time>2017-07-13T05:30:00Z</time>
      </trkpt>
      <trkpt lat="42.95569" lon="0.54691">
        <ele>683.7</ele>
        <time>2017-07-13T05:30:01Z</time>
      </trkpt>
      <trkpt lat="42.9557" lon="0.54686">
        <ele>683.4</ele>
        <time>2017-07-13T05:30:02Z</time>
      </trkpt>
      <trkpt lat="42.95571" lon="0.54681">
        <ele>683.1</ele>
        <time>2017-07-13T05:30:03Z</time>
      </trkpt>
      <trkpt lat="42.95572" lon="0.54676">
        <ele>682.7</ele>
        <time>2017-07-13T05:30:04Z</time>
      </trkpt>
      <trkpt lat="42.95573" lon="0.54671">
        <ele>682.3</ele>
        <time>2017-07-13T05:30:05Z</time>
      </trkpt>
      <trkpt lat="42.95574" lon="0.54666">
        <ele>682</ele>
        <time>2017-07-13T05:30:06Z</time>
      </trkpt>
      <trkpt lat="42.95575" lon="0.54661">
        <ele>681.9</ele>
        <time>2017-07-13T05:30:07Z</time>
      </trkpt>
      <trkpt lat="42.95575" lon="0.54656">
        <ele>681.8</ele>
        <time>2017-07-13T05:30:08Z</time>
      </trkpt>
      <trkpt lat="42.95575" lon="0.54651">
        <ele>681.6</ele>
        <time>2017-07-13T05:30:09Z</time>
      </trkpt>
      <trkpt lat="42.95575" lon="0.54646">
        <ele>681.4</ele>
        <time>2017-07-13T05:30:10Z</time>
      </trkpt>
      <trkpt lat="42.95574" lon="0.54641">
        <ele>681.2</ele>
        <time>2017-07-13T05:30:11Z</time>
      </trkpt>
      <trkpt lat="42.95574" lon="0.54636">
        <ele>681</ele>
        <time>2017-07-13T05:30:12Z</time>
      </trkpt>
      <trkpt lat="42.95573" lon="0.54632">
        <ele>680.8</ele>
        <time>2017-07-13T05:30:13Z</time>
      </trkpt>
      <trkpt lat="42.95572" lon="0.54627">
        <ele>680.6</ele>
        <time>2017-07-13T05:30:14Z</time>
      </trkpt>
      <trkpt lat="42.95572" lon="0.54622">
        <ele>680.5</ele>
        <time>2017-07-13T05:30:15Z</time>
      </trkpt>
      <trkpt lat="42.95572" lon="0.54618">
        <ele>680.3</ele>
        <time>2017-07-13T05:30:16Z</time>
      </trkpt>
      <trkpt lat="42.95571" lon="0.54613">
        <ele>680.1</ele>
        <time>2017-07-13T05:30:17Z</time>
      </trkpt>
      <trkpt lat="42.95571" lon="0.54608">
        <ele>680</ele>
        <time>2017-07-13T05:30:18Z</time>
      </trkpt>
      <trkpt lat="42.95571" lon="0.54604">
        <ele>679.9</ele>
        <time>2017-07-13T05:30:19Z</time>
      </trkpt>
      <trkpt lat="42.95571" lon="0.54599">
        <ele>679.7</ele>
        <time>2017-07-13T05:30:20Z</time>
      </trkpt>
      <trkpt lat="42.95571" lon="0.54595">
        <ele>679.6</ele>
        <time>2017-07-13T05:30:21Z</time>
      </trkpt>
      <trkpt lat="42.95572" lon="0.5459">
        <ele>679.5</ele>
        <time>2017-07-13T05:30:22Z</time>
      </trkpt>
      <trkpt lat="42.95572" lon="0.54585">
        <ele>679.4</ele>
        <time>2017-07-13T05:30:23Z</time>
      </trkpt>
      <trkpt lat="42.95572" lon="0.54581">
        <ele>679.7</ele>
        <time>2017-07-13T05:30:24Z</time>
      </trkpt>
      <trkpt lat="42.95572" lon="0.54576">
        <ele>680.2</ele>
        <time>2017-07-13T05:30:25Z</time>
      </trkpt>
      <trkpt lat="42.95573" lon="0.54571">
        <ele>680.8</ele>
        <time>2017-07-13T05:30:26Z</time>
      </trkpt>
      <trkpt lat="42.95573" lon="0.54567">
        <ele>681.4</ele>
        <time>2017-07-13T05:30:27Z</time>
      </trkpt>
      <trkpt lat="42.95573" lon="0.54562">
        <ele>682</ele>
        <time>2017-07-13T05:30:28Z</time>
      </trkpt>
      <trkpt lat="42.95574" lon="0.54558">
        <ele>682.6</ele>
        <time>2017-07-13T05:30:29Z</time>
      </trkpt>
      <trkpt lat="42.95574" lon="0.54553">
        <ele>683.1</ele>
        <time>2017-07-13T05:30:30Z</time>
      </trkpt>
      <trkpt lat="42.95574" lon="0.54548">
        <ele>683.7</ele>
        <time>2017-07-13T05:30:31Z</time>
      </trkpt>
      <trkpt lat="42.95575" lon="0.54544">
        <ele>684.3</ele>
        <time>2017-07-13T05:30:32Z</time>
      </trkpt>
      <trkpt lat="42.95575" lon="0.54539">
        <ele>684.9</ele>
        <time>2017-07-13T05:30:33Z</time>
      </trkpt>
      <trkpt lat="42.95575" lon="0.54535">
        <ele>685.4</ele>
        <time>2017-07-13T05:30:34Z</time>
      </trkpt>
      <trkpt lat="42.95575" lon="0.54531">
        <ele>686</ele>
        <time>2017-07-13T05:30:35Z</time>
      </trkpt>
      <trkpt lat="42.95575" lon="0.54526">
        <ele>686.5</ele>
        <time>2017-07-13T05:30:36Z</time>
      </trkpt>
      <trkpt lat="42.95575" lon="0.54522">
        <ele>687.1</ele>
        <time>2017-07-13T05:30:37Z</time>
      </trkpt>
      <trkpt lat="42.95575" lon="0.54517">
        <ele>687.6</ele>
        <time>2017-07-13T05:30:38Z</time>
      </trkpt>
      <trkpt lat="42.95576" lon="0.54513">
        <ele>688.2</ele>
        <time>2017-07-13T05:30:39Z</time>
      </trkpt>
      <trkpt lat="42.95576" lon="0.54509">
        <ele>688.8</ele>
        <time>2017-07-13T05:30:40Z</time>
      </trkpt>
      <trkpt lat="42.95576" lon="0.54504">
        <ele>689.4</ele>
        <time>2017-07-13T05:30:41Z</time>
      </trkpt>
      <trkpt lat="42.95577" lon="0.54499">
        <ele>690</ele>
        <time>2017-07-13T05:30:42Z</time>
      </trkpt>
      <trkpt lat="42.95577" lon="0.54495">
        <ele>690.1</ele>
        <time>2017-07-13T05:30:43Z</time>
      </trkpt>
      <trkpt lat="42.95578" lon="0.5449">
        <ele>690.2</ele>
        <time>2017-07-13T05:30:44Z</time>
      </trkpt>
      <trkpt lat="42.95579" lon="0.54486">
        <ele>690.3</ele>
        <time>2017-07-13T05:30:45Z</time>
      </trkpt>
      <trkpt lat="42.9558" lon="0.54481">
        <ele>690.5</ele>
        <time>2017-07-13T05:30:46Z</time>
      </trkpt>
      <trkpt lat="42.95581" lon="0.54476">
        <ele>690.6</ele>
        <time>2017-07-13T05:30:47Z</time>
      </trkpt>
      <trkpt lat="42.95582" lon="0.54471">
        <ele>690.8</ele>
        <time>2017-07-13T05:30:48Z</time>
      </trkpt>
      <trkpt lat="42.95583" lon="0.54467">
        <ele>690.9</ele>
        <time>2017-07-13T05:30:49Z</time>
      </trkpt>
      <trkpt lat="42.95584" lon="0.54462">
        <ele>691.2</ele>
        <time>2017-07-13T05:30:50Z</time>
      </trkpt>
      <trkpt lat="42.95585" lon="0.54457">
        <ele>691.7</ele>
        <time>2017-07-13T05:30:51Z</time>
      </trkpt>
      <trkpt lat="42.95586" lon="0.54452">
        <ele>692.2</ele>
        <time>2017-07-13T05:30:52Z</time>
      </trkpt>
      <trkpt lat="42.95587" lon="0.54447">
        <ele>692.7</ele>
        <time>2017-07-13T05:30:53Z</time>
      </trkpt>
      <trkpt lat="42.95588" lon="0.54443">
        <ele>693.1</ele>
        <time>2017-07-13T05:30:54Z</time>
      </trkpt>
      <trkpt lat="42.9559" lon="0.54438">
        <ele>693.6</ele>
        <time>2017-07-13T05:30:55Z</time>
      </trkpt>
      <trkpt lat="42.95591" lon="0.54433">
        <ele>694</ele>
        <time>2017-07-13T05:30:56Z</time>
      </trkpt>
      <trkpt lat="42.95592" lon="0.54428">
        <ele>694.4</ele>
        <time>2017-07-13T05:30:57Z</time>
      </trkpt>
      <trkpt lat="42.95593" lon="0.54424">
        <ele>694.7</ele>
        <time>2017-07-13T05:30:58Z</time>
      </trkpt>
      <trkpt lat="42.95594" lon="0.54419">
        <ele>695.1</ele>
        <time>2017-07-13T05:30:59Z</time>
      </trkpt>
      <trkpt lat="42.95595" lon="0.54414">
        <ele>695.2</ele>
        <time>2017-07-13T05:31:00Z</time>
      </trkpt>
      <trkpt lat="42.95596" lon="0.5441">
        <ele>695.1</ele>
        <time>2017-07-13T05:31:01Z</time>
      </trkpt>
      <trkpt lat="42.95596" lon="0.54405">
        <ele>695</ele>
        <time>2017-07-13T05:31:02Z</time>
      </trkpt>
      <trkpt lat="42.95597" lon="0.544">
        <ele>694.8</ele>
        <time>2017-07-13T05:31:03Z</time>
      </trkpt>
      <trkpt lat="42.95598" lon="0.54396">
        <ele>694.6</ele>
        <time>2017-07-13T05:31:04Z</time>
      </trkpt>
      <trkpt lat="42.95598" lon="0.54391">
        <ele>694.3</ele>
        <time>2017-07-13T05:31:05Z</time>
      </trkpt>
      <trkpt lat="42.95598" lon="0.54386">
        <ele>693.8</ele>
        <time>2017-07-13T05:31:06Z</time>
      </trkpt>
      <trkpt lat="42.95598" lon="0.54382">
        <ele>693.4</ele>
        <time>2017-07-13T05:31:07Z</time>
      </trkpt>
      <trkpt lat="42.95597" lon="0.54377">
        <ele>692.8</ele>
        <time>2017-07-13T05:31:08Z</time>
      </trkpt>
      <trkpt lat="42.95597" lon="0.54372">
        <ele>692.2</ele>
        <time>2017-07-13T05:31:09Z</time>
      </trkpt>
      <trkpt lat="42.95596" lon="0.54368">
        <ele>691.5</ele>
        <time>2017-07-13T05:31:10Z</time>
      </trkpt>
      <trkpt lat="42.95595" lon="0.54363">
        <ele>690.7</ele>
        <time>2017-07-13T05:31:11Z</time>
      </trkpt>
      <trkpt lat="42.95594" lon="0.54358">
        <ele>689.8</ele>
        <time>2017-07-13T05:31:12Z</time>
      </trkpt>
      <trkpt lat="42.95593" lon="0.54354">
        <ele>688.9</ele>
        <time>2017-07-13T05:31:13Z</time>
      </trkpt>
      <trkpt lat="42.95591" lon="0.5435">
        <ele>687.9</ele>
        <time>2017-07-13T05:31:14Z</time>
      </trkpt>
      <trkpt lat="42.9559" lon="0.54346">
        <ele>686.9</ele>
        <time>2017-07-13T05:31:15Z</time>
      </trkpt>
      <trkpt lat="42.95588" lon="0.54342">
        <ele>685.7</ele>
        <time>2017-07-13T05:31:16Z</time>
      </trkpt>
      <trkpt lat="42.95586" lon="0.54338">
        <ele>684.6</ele>
        <time>2017-07-13T05:31:17Z</time>
      </trkpt>
      <trkpt lat="42.95584" lon="0.54334">
        <ele>683.4</ele>
        <time>2017-07-13T05:31:18Z</time>
      </trkpt>
      <trkpt lat="42.95582" lon="0.5433">
        <ele>683.1</ele>
        <time>2017-07-13T05:31:19Z</time>
      </trkpt>
      <trkpt lat="42.9558" lon="0.54326">
        <ele>683.2</ele>
        <time>2017-07-13T05:31:20Z</time>
      </trkpt>
      <trkpt lat="42.95578" lon="0.54323">
        <ele>683.2</ele>
        <time>2017-07-13T05:31:21Z</time>
      </trkpt>
      <trkpt lat="42.95576" lon="0.54319">
        <ele>683.3</ele>
        <time>2017-07-13T05:31:22Z</time>
      </trkpt>
      <trkpt lat="42.95573" lon="0.54316">
        <ele>683.3</ele>
        <time>2017-07-13T05:31:23Z</time>
      </trkpt>
      <trkpt lat="42.95571" lon="0.54312">
        <ele>683.3</ele>
        <time>2017-07-13T05:31:24Z</time>
      </trkpt>
      <trkpt lat="42.95568" lon="0.54309">
        <ele>683.4</ele>
        <time>2017-07-13T05:31:25Z</time>
      </trkpt>
      <trkpt lat="42.95566" lon="0.54305">
        <ele>683.4</ele>
        <time>2017-07-13T05:31:26Z</time>
      </trkpt>
      <trkpt lat="42.95564" lon="0.54302">
        <ele>683.4</ele>
        <time>2017-07-13T05:31:27Z</time>
      </trkpt>
      <trkpt lat="42.95561" lon="0.54298">
        <ele>683.4</ele>
        <time>2017-07-13T05:31:28Z</time>
      </trkpt>
      <trkpt lat="42.95559" lon="0.54295">
        <ele>683.4</ele>
        <time>2017-07-13T05:31:29Z</time>
      </trkpt>
      <trkpt lat="42.95556" lon="0.54292">
        <ele>683.4</ele>
        <time>2017-07-13T05:31:30Z</time>
      </trkpt>
      <trkpt lat="42.95554" lon="0.54288">
        <ele>683.4</ele>
        <time>2017-07-13T05:31:31Z</time>
      </trkpt>
      <trkpt lat="42.95552" lon="0.54285">
        <ele>683.4</ele>
        <time>2017-07-13T05:31:32Z</time>
      </trkpt>
      <trkpt lat="42.95549" lon="0.54281">
        <ele>683.4</ele>
        <time>2017-07-13T05:31:33Z</time>
      </trkpt>
      <trkpt lat="42.95547" lon="0.54278">
        <ele>683.4</ele>
        <time>2017-07-13T05:31:34Z</time>
      </trkpt>
      <trkpt lat="42.95545" lon="0.54274">
        <ele>683.5</ele>
        <time>2017-07-13T05:31:35Z</time>
      </trkpt>
      <trkpt lat="42.95543" lon="0.5427">
        <ele>683.5</ele>
        <time>2017-07-13T05:31:36Z</time>
      </trkpt>
      <trkpt lat="42.95541" lon="0.54266">
        <ele>683.5</ele>
        <time>2017-07-13T05:31:37Z</time>
      </trkpt>
      <trkpt lat="42.95539" lon="0.54263">
        <ele>683.6</ele>
        <time>2017-07-13T05:31:38Z</time>
      </trkpt>
      <trkpt lat="42.95537" lon="0.54259">
        <ele>683.6</ele>
        <time>2017-07-13T05:31:39Z</time>
      </trkpt>
      <trkpt lat="42.95535" lon="0.54254">
        <ele>683.7</ele>
        <time>2017-07-13T05:31:40Z</time>
      </trkpt>
      <trkpt lat="42.95533" lon="0.5425">
        <ele>683.7</ele>
        <time>2017-07-13T05:31:41Z</time>
      </trkpt>
      <trkpt lat="42.95531" lon="0.54246">
        <ele>683.9</ele>
        <time>2017-07-13T05:31:42Z</time>
      </trkpt>
      <trkpt lat="42.95529" lon="0.54242">
        <ele>684</ele>
        <time>2017-07-13T05:31:43Z</time>
      </trkpt>
      <trkpt lat="42.95528" lon="0.54237">
        <ele>684.1</ele>
        <time>2017-07-13T05:31:44Z</time>
      </trkpt>
      <trkpt lat="42.95526" lon="0.54233">
        <ele>684.2</ele>
        <time>2017-07-13T05:31:45Z</time>
      </trkpt>
      <trkpt lat="42.95525" lon="0.54229">
        <ele>684.3</ele>
        <time>2017-07-13T05:31:46Z</time>
      </trkpt>
      <trkpt lat="42.95523" lon="0.54224">
        <ele>684.3</ele>
        <time>2017-07-13T05:31:47Z</time>
      </trkpt>
      <trkpt lat="42.95522" lon="0.5422">
        <ele>684.3</ele>
        <time>2017-07-13T05:31:48Z</time>
      </trkpt>
      <trkpt lat="42.95521" lon="0.54215">
        <ele>684.3</ele>
        <time>2017-07-13T05:31:49Z</time>
      </trkpt>
      <trkpt lat="42.9552" lon="0.54211">
        <ele>684.3</ele>
        <time>2017-07-13T05:31:50Z</time>
      </trkpt>
      <trkpt lat="42.95518" lon="0.54206">
        <ele>684.2</ele>
        <time>2017-07-13T05:31:51Z</time>
      </trkpt>
      <trkpt lat="42.95517" lon="0.54202">
        <ele>684.2</ele>
        <time>2017-07-13T05:31:52Z</time>
      </trkpt>
      <trkpt lat="42.95516" lon="0.54198">
        <ele>684.1</ele>
        <time>2017-07-13T05:31:53Z</time>
      </trkpt>
      <trkpt lat="42.95515" lon="0.54193">
        <ele>684</ele>
        <time>2017-07-13T05:31:54Z</time>
      </trkpt>
      <trkpt lat="42.95515" lon="0.54189">
        <ele>683.9</ele>
        <time>2017-07-13T05:31:55Z</time>
      </trkpt>
      <trkpt lat="42.95514" lon="0.54185">
        <ele>683.8</ele>
        <time>2017-07-13T05:31:56Z</time>
      </trkpt>
      <trkpt lat="42.95513" lon="0.5418">
        <ele>683.6</ele>
        <time>2017-07-13T05:31:57Z</time>
      </trkpt>
      <trkpt lat="42.95512" lon="0.54176">
        <ele>683.5</ele>
        <time>2017-07-13T05:31:58Z</time>
      </trkpt>
      <trkpt lat="42.95511" lon="0.54172">
        <ele>683.3</ele>
        <time>2017-07-13T05:31:59Z</time>
      </trkpt>
      <trkpt lat="42.9551" lon="0.54167">
        <ele>683</ele>
        <time>2017-07-13T05:32:00Z</time>
      </trkpt>
      <trkpt lat="42.95509" lon="0.54163">
        <ele>682.8</ele>
        <time>2017-07-13T05:32:01Z</time>
      </trkpt>
      <trkpt lat="42.95508" lon="0.54159">
        <ele>682.6</ele>
        <time>2017-07-13T05:32:02Z</time>
      </trkpt>
      <trkpt lat="42.95507" lon="0.54155">
        <ele>682.3</ele>
        <time>2017-07-13T05:32:03Z</time>
      </trkpt>
      <trkpt lat="42.95506" lon="0.5415">
        <ele>682</ele>
        <time>2017-07-13T05:32:04Z</time>
      </trkpt>
      <trkpt lat="42.95504" lon="0.54146">
        <ele>681.7</ele>
        <time>2017-07-13T05:32:05Z</time>
      </trkpt>
      <trkpt lat="42.95503" lon="0.54142">
        <ele>681.4</ele>
        <time>2017-07-13T05:32:06Z</time>
      </trkpt>
      <trkpt lat="42.95502" lon="0.54138">
        <ele>681</ele>
        <time>2017-07-13T05:32:07Z</time>
      </trkpt>
      <trkpt lat="42.95501" lon="0.54134">
        <ele>680.6</ele>
        <time>2017-07-13T05:32:08Z</time>
      </trkpt>
      <trkpt lat="42.95499" lon="0.5413">
        <ele>680.5</ele>
        <time>2017-07-13T05:32:09Z</time>
      </trkpt>
      <trkpt lat="42.95498" lon="0.54125">
        <ele>680.8</ele>
        <time>2017-07-13T05:32:10Z</time>
      </trkpt>
      <trkpt lat="42.95497" lon="0.54121">
        <ele>681</ele>
        <time>2017-07-13T05:32:11Z</time>
      </trkpt>
      <trkpt lat="42.95496" lon="0.54117">
        <ele>681.2</ele>
        <time>2017-07-13T05:32:12Z</time>
      </trkpt>
      <trkpt lat="42.95494" lon="0.54113">
        <ele>681.5</ele>
        <time>2017-07-13T05:32:13Z</time>
      </trkpt>
      <trkpt lat="42.95493" lon="0.54109">
        <ele>681.7</ele>
        <time>2017-07-13T05:32:14Z</time>
      </trkpt>
      <trkpt lat="42.95492" lon="0.54105">
        <ele>681.9</ele>
        <time>2017-07-13T05:32:15Z</time>
      </trkpt>
      <trkpt lat="42.9549" lon="0.54101">
        <ele>682.1</ele>
        <time>2017-07-13T05:32:16Z</time>
      </trkpt>
      <trkpt lat="42.95489" lon="0.54097">
        <ele>682.2</ele>
        <time>2017-07-13T05:32:17Z</time>
      </trkpt>
      <trkpt lat="42.95488" lon="0.54092">
        <ele>682.4</ele>
        <time>2017-07-13T05:32:18Z</time>
      </trkpt>
      <trkpt lat="42.95487" lon="0.54088">
        <ele>682.6</ele>
        <time>2017-07-13T05:32:19Z</time>
      </trkpt>
      <trkpt lat="42.95486" lon="0.54084">
        <ele>682.7</ele>
        <time>2017-07-13T05:32:20Z</time>
      </trkpt>
      <trkpt lat="42.95485" lon="0.5408">
        <ele>683.1</ele>
        <time>2017-07-13T05:32:21Z</time>
      </trkpt>
      <trkpt lat="42.95483" lon="0.54076">
        <ele>683.6</ele>
        <time>2017-07-13T05:32:22Z</time>
      </trkpt>
      <trkpt lat="42.95482" lon="0.54072">
        <ele>684</ele>
        <time>2017-07-13T05:32:23Z</time>
      </trkpt>
      <trkpt lat="42.95481" lon="0.54068">
        <ele>684.4</ele>
        <time>2017-07-13T05:32:24Z</time>
      </trkpt>
      <trkpt lat="42.9548" lon="0.54064">
        <ele>684.8</ele>
        <time>2017-07-13T05:32:25Z</time>
      </trkpt>
      <trkpt lat="42.95479" lon="0.5406">
        <ele>685.1</ele>
        <time>2017-07-13T05:32:26Z</time>
      </trkpt>
      <trkpt lat="42.95478" lon="0.54056">
        <ele>685.5</ele>
        <time>2017-07-13T05:32:27Z</time>
      </trkpt>
      <trkpt lat="42.95477" lon="0.54052">
        <ele>685.8</ele>
        <time>2017-07-13T05:32:28Z</time>
      </trkpt>
      <trkpt lat="42.95476" lon="0.54048">
        <ele>686.1</ele>
        <time>2017-07-13T05:32:29Z</time>
      </trkpt>
      <trkpt lat="42.95475" lon="0.54044">
        <ele>686.3</ele>
        <time>2017-07-13T05:32:30Z</time>
      </trkpt>
      <trkpt lat="42.95474" lon="0.5404">
        <ele>686.6</ele>
        <time>2017-07-13T05:32:31Z</time>
      </trkpt>
      <trkpt lat="42.95472" lon="0.54036">
        <ele>686.8</ele>
        <time>2017-07-13T05:32:32Z</time>
      </trkpt>
      <trkpt lat="42.95471" lon="0.54032">
        <ele>687</ele>
        <time>2017-07-13T05:32:33Z</time>
      </trkpt>
      <trkpt lat="42.9547" lon="0.54028">
        <ele>687.2</ele>
        <time>2017-07-13T05:32:34Z</time>
      </trkpt>
      <trkpt lat="42.95469" lon="0.54025">
        <ele>687.3</ele>
        <time>2017-07-13T05:32:35Z</time>
      </trkpt>
      <trkpt lat="42.95468" lon="0.54021">
        <ele>687.5</ele>
        <time>2017-07-13T05:32:36Z</time>
      </trkpt>
      <trkpt lat="42.95467" lon="0.54017">
        <ele>687.6</ele>
        <time>2017-07-13T05:32:37Z</time>
      </trkpt>
      <trkpt lat="42.95466" lon="0.54013">
        <ele>687.7</ele>
        <time>2017-07-13T05:32:38Z</time>
      </trkpt>
      <trkpt lat="42.95465" lon="0.54009">
        <ele>687.7</ele>
        <time>2017-07-13T05:32:39Z</time>
      </trkpt>
      <trkpt lat="42.95464" lon="0.54005">
        <ele>687.8</ele>
        <time>2017-07-13T05:32:40Z</time>
      </trkpt>
      <trkpt lat="42.95463" lon="0.54001">
        <ele>687.8</ele>
        <time>2017-07-13T05:32:41Z</time>
      </trkpt>
      <trkpt lat="42.95461" lon="0.53997">
        <ele>688.3</ele>
        <time>2017-07-13T05:32:42Z</time>
      </trkpt>
      <trkpt lat="42.9546" lon="0.53994">
        <ele>688.9</ele>
        <time>2017-07-13T05:32:43Z</time>
      </trkpt>
      <trkpt lat="42.95459" lon="0.5399">
        <ele>689.5</ele>
        <time>2017-07-13T05:32:44Z</time>
      </trkpt>
      <trkpt lat="42.95458" lon="0.53986">
        <ele>690</ele>
        <time>2017-07-13T05:32:45Z</time>
      </trkpt>
      <trkpt lat="42.95457" lon="0.53982">
        <ele>690.5</ele>
        <time>2017-07-13T05:32:46Z</time>
      </trkpt>
      <trkpt lat="42.95455" lon="0.53978">
        <ele>691</ele>
        <time>2017-07-13T05:32:47Z</time>
      </trkpt>
      <trkpt lat="42.95454" lon="0.53974">
        <ele>691.4</ele>
        <time>2017-07-13T05:32:48Z</time>
      </trkpt>
      <trkpt lat="42.95453" lon="0.53971">
        <ele>691.8</ele>
        <time>2017-07-13T05:32:49Z</time>
      </trkpt>
      <trkpt lat="42.95451" lon="0.53967">
        <ele>692.1</ele>
        <time>2017-07-13T05:32:50Z</time>
      </trkpt>
      <trkpt lat="42.9545" lon="0.53963">
        <ele>692.4</ele>
        <time>2017-07-13T05:32:51Z</time>
      </trkpt>
      <trkpt lat="42.95449" lon="0.53959">
        <ele>692.6</ele>
        <time>2017-07-13T05:32:52Z</time>
      </trkpt>
      <trkpt lat="42.95447" lon="0.53955">
        <ele>692.8</ele>
        <time>2017-07-13T05:32:53Z</time>
      </trkpt>
      <trkpt lat="42.95446" lon="0.53951">
        <ele>692.9</ele>
        <time>2017-07-13T05:32:54Z</time>
      </trkpt>
      <trkpt lat="42.95444" lon="0.53947">
        <ele>693</ele>
        <time>2017-07-13T05:32:55Z</time>
      </trkpt>
      <trkpt lat="42.95443" lon="0.53943">
        <ele>693</ele>
        <time>2017-07-13T05:32:56Z</time>
      </trkpt>
      <trkpt lat="42.95441" lon="0.53939">
        <ele>692.9</ele>
        <time>2017-07-13T05:32:57Z</time>
      </trkpt>
      <trkpt lat="42.95439" lon="0.53936">
        <ele>692.8</ele>
        <time>2017-07-13T05:32:58Z</time>
      </trkpt>
      <trkpt lat="42.95438" lon="0.53932">
        <ele>692.7</ele>
        <time>2017-07-13T05:32:59Z</time>
      </trkpt>
      <trkpt lat="42.95436" lon="0.53928">
        <ele>692.5</ele>
        <time>2017-07-13T05:33:00Z</time>
      </trkpt>
      <trkpt lat="42.95435" lon="0.53924">
        <ele>692.3</ele>
        <time>2017-07-13T05:33:01Z</time>
      </trkpt>
      <trkpt lat="42.95434" lon="0.53921">
        <ele>692</ele>
        <time>2017-07-13T05:33:02Z</time>
      </trkpt>
      <trkpt lat="42.95433" lon="0.53918">
        <ele>691.8</ele>
        <time>2017-07-13T05:33:03Z</time>
      </trkpt>
      <trkpt lat="42.95431" lon="0.53914">
        <ele>691.6</ele>
        <time>2017-07-13T05:33:04Z</time>
      </trkpt>
      <trkpt lat="42.9543" lon="0.53911">
        <ele>691.4</ele>
        <time>2017-07-13T05:33:05Z</time>
      </trkpt>
      <trkpt lat="42.9543" lon="0.53908">
        <ele>691.4</ele>
        <time>2017-07-13T05:33:06Z</time>
      </trkpt>
      <trkpt lat="42.95429" lon="0.53906">
        <ele>691.3</ele>
        <time>2017-07-13T05:33:07Z</time>
      </trkpt>
      <trkpt lat="42.95428" lon="0.53904">
        <ele>691.2</ele>
        <time>2017-07-13T05:33:08Z</time>
      </trkpt>
      <trkpt lat="42.95428" lon="0.53902">
        <ele>691.2</ele>
        <time>2017-07-13T05:33:09Z</time>
      </trkpt>
      <trkpt lat="42.95428" lon="0.53902">
        <ele>691.3</ele>
        <time>2017-07-13T05:33:10Z</time>
      </trkpt>
      <trkpt lat="42.95428" lon="0.53901">
        <ele>691.3</ele>
        <time>2017-07-13T05:33:11Z</time>
      </trkpt>
      <trkpt lat="42.95428" lon="0.53901">
        <ele>691.3</ele>
        <time>2017-07-13T05:33:12Z</time>
      </trkpt>
      <trkpt lat="42.95428" lon="0.53901">
        <ele>691.3</ele>
        <time>2017-07-13T05:33:13Z</time>
      </trkpt>
      <trkpt lat="42.95428" lon="0.53901">
        <ele>691.3</ele>
        <time>2017-07-13T05:33:14Z</time>
      </trkpt>
      <trkpt lat="42.95428" lon="0.53901">
        <ele>691.4</ele>
        <time>2017-07-13T05:33:15Z</time>
      </trkpt>
      <trkpt lat="42.95428" lon="0.53901">
        <ele>691.4</ele>
        <time>2017-07-13T05:33:16Z</time>
      </trkpt>
      <trkpt lat="42.95428" lon="0.53901">
        <ele>691.4</ele>
        <time>2017-07-13T05:33:17Z</time>
      </trkpt>
      <trkpt lat="42.95428" lon="0.53901">
        <ele>691.4</ele>
        <time>2017-07-13T05:33:18Z</time>
      </trkpt>
      <trkpt lat="42.95428" lon="0.53901">
        <ele>691.4</ele>
        <time>2017-07-13T05:33:19Z</time>
      </trkpt>
      <trkpt lat="42.95428" lon="0.53901">
        <ele>691.4</ele>
        <time>2017-07-13T05:33:20Z</time>
      </trkpt>
      <trkpt lat="42.95428" lon="0.53901">
        <ele>691.4</ele>
        <time>2017-07-13T05:33:21Z</time>
      </trkpt>
      <trkpt lat="42.95428" lon="0.53901">
        <ele>691.4</ele>
        <time>2017-07-13T05:33:22Z</time>
      </trkpt>
      <trkpt lat="42.95428" lon="0.53901">
        <ele>691.4</ele>
        <time>2017-07-13T05:33:23Z</time>
      </trkpt>
      <trkpt lat="42.95428" lon="0.53901">
        <ele>691.4</ele>
        <time>2017-07-13T05:33:24Z</time>
      </trkpt>
      <trkpt lat="42.95428" lon="0.53901">
        <ele>691.4</ele>
        <time>2017-07-13T05:33:25Z</time>
      </trkpt>
      <trkpt lat="42.95428" lon="0.53901">
        <ele>691.4</ele>
        <time>2017-07-13T05:33:26Z</time>
      </trkpt>
      <trkpt lat="42.95428" lon="0.53901">
        <ele>691.4</ele>
        <time>2017-07-13T05:33:27Z</time>
      </trkpt>
      <trkpt lat="42.95428" lon="0.53901">
        <ele>691.4</ele>
        <time>2017-07-13T05:33:28Z</time>
      </trkpt>
      <trkpt lat="42.95428" lon="0.53901">
        <ele>691.4</ele>
        <time>2017-07-13T05:33:29Z</time>
      </trkpt>
      <trkpt lat="42.95428" lon="0.53901">
        <ele>691.4</ele>
        <time>2017-07-13T05:33:30Z</time>
      </trkpt>
      <trkpt lat="42.95428" lon="0.53901">
        <ele>691.4</ele>
        <time>2017-07-13T05:33:31Z</time>
      </trkpt>
      <trkpt lat="42.95428" lon="0.53901">
        <ele>691.4</ele>
        <time>2017-07-13T05:33:32Z</time>
      </trkpt>
      <trkpt lat="42.95428" lon="0.53901">
        <ele>691.4</ele>
        <time>2017-07-13T05:33:33Z</time>
      </trkpt>
      <trkpt lat="42.95428" lon="0.53901">
        <ele>691.4</ele>
        <time>2017-07-13T05:33:34Z</time>
      </trkpt>
      <trkpt lat="42.95428" lon="0.53901">
        <ele>691.4</ele>
        <time>2017-07-13T05:33:35Z</time>
      </trkpt>
      <trkpt lat="42.95428" lon="0.53901">
        <ele>691.4</ele>
        <time>2017-07-13T05:33:36Z</time>
      </trkpt>
      <trkpt lat="42.95428" lon="0.53901">
        <ele>691.4</ele>
        <time>2017-07-13T05:33:37Z</time>
      </trkpt>
      <trkpt lat="42.95428" lon="0.53901">
        <ele>691.4</ele>
        <time>2017-07-13T05:33:38Z</time>
      </trkpt>
      <trkpt lat="42.95428" lon="0.53901">
        <ele>691.4</ele>
        <time>2017-07-13T05:33:39Z</time>
      </trkpt>
      <trkpt lat="42.95428" lon="0.53901">
        <ele>691.4</ele>
        <time>2017-07-13T05:33:40Z</time>
      </trkpt>
      <trkpt lat="42.95428" lon="0.53901">
        <ele>691.4</ele>
        <time>2017-07-13T05:33:41Z</time>
      </trkpt>
      <trkpt lat="42.95428" lon="0.53901">
        <ele>691.4</ele>
        <time>2017-07-13T05:33:42Z</time>
      </trkpt>
      <trkpt lat="42.95428" lon="0.53901">
        <ele>691.4</ele>
        <time>2017-07-13T05:33:43Z</time>
      </trkpt>
      <trkpt lat="42.95428" lon="0.53901">
        <ele>691.4</ele>
        <time>2017-07-13T05:33:44Z</time>
      </trkpt>
      <trkpt lat="42.95428" lon="0.53901">
        <ele>691.4</ele>
        <time>2017-07-13T05:33:45Z</time>
      </trkpt>
      <trkpt lat="42.95428" lon="0.53901">
        <ele>691.4</ele>
        <time>2017-07-13T05:33:46Z</time>
      </trkpt>
      <trkpt lat="42.95428" lon="0.53901">
        <ele>691.4</ele>
        <time>2017-07-13T05:33:47Z</time>
      </trkpt>
      <trkpt lat="42.95428" lon="0.53901">
        <ele>691.4</ele>
        <time>2017-07-13T05:33:48Z</time>
      </trkpt>
      <trkpt lat="42.95428" lon="0.53901">
        <ele>691.4</ele>
        <time>2017-07-13T05:33:49Z</time>
      </trkpt>
      <trkpt lat="42.95428" lon="0.53901">
        <ele>691.4</ele>
        <time>2017-07-13T05:33:50Z</time>
      </trkpt>
      <trkpt lat="42.95428" lon="0.53901">
        <ele>691.4</ele>
        <time>2017-07-13T05:33:51Z</time>
      </trkpt>
      <trkpt lat="42.95428" lon="0.53901">
        <ele>691.4</ele>
        <time>2017-07-13T05:33:52Z</time>
      </trkpt>
      <trkpt lat="42.95428" lon="0.53901">
        <ele>691.4</ele>
        <time>2017-07-13T05:33:53Z</time>
      </trkpt>
      <trkpt lat="42.95428" lon="0.53901">
        <ele>691.4</ele>
        <time>2017-07-13T05:33:54Z</time>
      </trkpt>
      <trkpt lat="42.95428" lon="0.53901">
        <ele>691.4</ele>
        <time>2017-07-13T05:33:55Z</time>
      </trkpt>
      <trkpt lat="42.95428" lon="0.53901">
        <ele>691.4</ele>
        <time>2017-07-13T05:33:56Z</time>
      </trkpt>
      <trkpt lat="42.95428" lon="0.53901">
        <ele>691.4</ele>
        <time>2017-07-13T05:33:57Z</time>
      </trkpt>
      <trkpt lat="42.95428" lon="0.53901">
        <ele>691.4</ele>
        <time>2017-07-13T05:33:58Z</time>
      </trkpt>
      <trkpt lat="42.95428" lon="0.53901">
        <ele>691.4</ele>
        <time>2017-07-13T05:33:59Z</time>
      </trkpt>
      <trkpt lat="42.95428" lon="0.53901">
        <ele>691.3</ele>
        <time>2017-07-13T05:34:00Z</time>
      </trkpt>
      <trkpt lat="42.95428" lon="0.53901">
        <ele>691.3</ele>
        <time>2017-07-13T05:34:01Z</time>
      </trkpt>
      <trkpt lat="42.95428" lon="0.53901">
        <ele>691.3</ele>
        <time>2017-07-13T05:34:02Z</time>
      </trkpt>
      <trkpt lat="42.95428" lon="0.53901">
        <ele>691.3</ele>
        <time>2017-07-13T05:34:03Z</time>
      </trkpt>
      <trkpt lat="42.95428" lon="0.53901">
        <ele>691.3</ele>
        <time>2017-07-13T05:34:04Z</time>
      </trkpt>
      <trkpt lat="42.95428" lon="0.53901">
        <ele>691.3</ele>
        <time>2017-07-13T05:34:05Z</time>
      </trkpt>
      <trkpt lat="42.95428" lon="0.53901">
        <ele>691.3</ele>
        <time>2017-07-13T05:34:06Z</time>
      </trkpt>
      <trkpt lat="42.95428" lon="0.53901">
        <ele>691.3</ele>
        <time>2017-07-13T05:34:07Z</time>
      </trkpt>
      <trkpt lat="42.95428" lon="0.53901">
        <ele>691.3</ele>
        <time>2017-07-13T05:34:08Z</time>
      </trkpt>
      <trkpt lat="42.95428" lon="0.53901">
        <ele>691.3</ele>
        <time>2017-07-13T05:34:09Z</time>
      </trkpt>
      <trkpt lat="42.95428" lon="0.53901">
        <ele>691.3</ele>
        <time>2017-07-13T05:34:10Z</time>
      </trkpt>
      <trkpt lat="42.95428" lon="0.53901">
        <ele>691.3</ele>
        <time>2017-07-13T05:34:11Z</time>
      </trkpt>
      <trkpt lat="42.95428" lon="0.53901">
        <ele>691.3</ele>
        <time>2017-07-13T05:34:12Z</time>
      </trkpt>
      <trkpt lat="42.95428" lon="0.53901">
        <ele>691.3</ele>
        <time>2017-07-13T05:34:13Z</time>
      </trkpt>
      <trkpt lat="42.95428" lon="0.53901">
        <ele>691.2</ele>
        <time>2017-07-13T05:34:14Z</time>
      </trkpt>
      <trkpt lat="42.95427" lon="0.539">
        <ele>691.1</ele>
        <time>2017-07-13T05:34:15Z</time>
      </trkpt>
      <trkpt lat="42.95427" lon="0.53899">
        <ele>691</ele>
        <time>2017-07-13T05:34:16Z</time>
      </trkpt>
      <trkpt lat="42.95426" lon="0.53898">
        <ele>690.8</ele>
        <time>2017-07-13T05:34:17Z</time>
      </trkpt>
      <trkpt lat="42.95426" lon="0.53896">
        <ele>690.6</ele>
        <time>2017-07-13T05:34:18Z</time>
      </trkpt>
      <trkpt lat="42.95425" lon="0.53894">
        <ele>690.4</ele>
        <time>2017-07-13T05:34:19Z</time>
      </trkpt>
      <trkpt lat="42.95424" lon="0.53892">
        <ele>690.1</ele>
        <time>2017-07-13T05:34:20Z</time>
      </trkpt>
      <trkpt lat="42.95423" lon="0.5389">
        <ele>689.8</ele>
        <time>2017-07-13T05:34:21Z</time>
      </trkpt>
      <trkpt lat="42.95422" lon="0.53888">
        <ele>689.4</ele>
        <time>2017-07-13T05:34:22Z</time>
      </trkpt>
      <trkpt lat="42.9542" lon="0.53885">
        <ele>689</ele>
        <time>2017-07-13T05:34:23Z</time>
      </trkpt>
      <trkpt lat="42.95419" lon="0.53883">
        <ele>688.5</ele>
        <time>2017-07-13T05:34:24Z</time>
      </trkpt>
      <trkpt lat="42.95418" lon="0.5388">
        <ele>688</ele>
        <time>2017-07-13T05:34:25Z</time>
      </trkpt>
      <trkpt lat="42.95416" lon="0.53877">
        <ele>687.9</ele>
        <time>2017-07-13T05:34:26Z</time>
      </trkpt>
      <trkpt lat="42.95415" lon="0.53875">
        <ele>688.3</ele>
        <time>2017-07-13T05:34:27Z</time>
      </trkpt>
      <trkpt lat="42.95413" lon="0.53872">
        <ele>688.7</ele>
        <time>2017-07-13T05:34:28Z</time>
      </trkpt>
      <trkpt lat="42.95411" lon="0.53869">
        <ele>689.1</ele>
        <time>2017-07-13T05:34:29Z</time>
      </trkpt>
      <trkpt lat="42.9541" lon="0.53866">
        <ele>689.5</ele>
        <time>2017-07-13T05:34:30Z</time>
      </trkpt>
      <trkpt lat="42.95408" lon="0.53863">
        <ele>689.9</ele>
        <time>2017-07-13T05:34:31Z</time>
      </trkpt>
      <trkpt lat="42.95406" lon="0.53859">
        <ele>690.2</ele>
        <time>2017-07-13T05:34:32Z</time>
      </trkpt>
      <trkpt lat="42.95404" lon="0.53856">
        <ele>690.5</ele>
        <time>2017-07-13T05:34:33Z</time>
      </trkpt>
      <trkpt lat="42.95403" lon="0.53853">
        <ele>690.9</ele>
        <time>2017-07-13T05:34:34Z</time>
      </trkpt>
      <trkpt lat="42.95401" lon="0.5385">
        <ele>691.2</ele>
        <time>2017-07-13T05:34:35Z</time>
      </trkpt>
      <trkpt lat="42.95399" lon="0.53846">
        <ele>691.4</ele>
        <time>2017-07-13T05:34:36Z</time>
      </trkpt>
      <trkpt lat="42.95397" lon="0.53842">
        <ele>691.7</ele>
        <time>2017-07-13T05:34:37Z</time>
      </trkpt>
      <trkpt lat="42.95395" lon="0.53839">
        <ele>691.9</ele>
        <time>2017-07-13T05:34:38Z</time>
      </trkpt>
      <trkpt lat="42.95393" lon="0.53835">
        <ele>692.1</ele>
        <time>2017-07-13T05:34:39Z</time>
      </trkpt>
      <trkpt lat="42.95391" lon="0.53831">
        <ele>692.5</ele>
        <time>2017-07-13T05:34:40Z</time>
      </trkpt>
      <trkpt lat="42.95389" lon="0.53828">
        <ele>693</ele>
        <time>2017-07-13T05:34:41Z</time>
      </trkpt>
      <trkpt lat="42.95388" lon="0.53824">
        <ele>693.5</ele>
        <time>2017-07-13T05:34:42Z</time>
      </trkpt>
      <trkpt lat="42.95386" lon="0.5382">
        <ele>693.9</ele>
        <time>2017-07-13T05:34:43Z</time>
      </trkpt>
      <trkpt lat="42.95384" lon="0.53816">
        <ele>694.3</ele>
        <time>2017-07-13T05:34:44Z</time>
      </trkpt>
      <trkpt lat="42.95382" lon="0.53812">
        <ele>694.7</ele>
        <time>2017-07-13T05:34:45Z</time>
      </trkpt>
      <trkpt lat="42.9538" lon="0.53808">
        <ele>695</ele>
        <time>2017-07-13T05:34:46Z</time>
      </trkpt>
      <trkpt lat="42.95379" lon="0.53803">
        <ele>695.3</ele>
        <time>2017-07-13T05:34:47Z</time>
      </trkpt>
      <trkpt lat="42.95377" lon="0.53799">
        <ele>695.6</ele>
        <time>2017-07-13T05:34:48Z</time>
      </trkpt>
      <trkpt lat="42.95375" lon="0.53795">
        <ele>695.8</ele>
        <time>2017-07-13T05:34:49Z</time>
      </trkpt>
      <trkpt lat="42.95374" lon="0.53791">
        <ele>696</ele>
        <time>2017-07-13T05:34:50Z</time>
      </trkpt>
      <trkpt lat="42.95372" lon="0.53786">
        <ele>696.1</ele>
        <time>2017-07-13T05:34:51Z</time>
      </trkpt>
      <trkpt lat="42.9537" lon="0.53782">
        <ele>696.1</ele>
        <time>2017-07-13T05:34:52Z</time>
      </trkpt>
      <trkpt lat="42.95368" lon="0.53778">
        <ele>696.1</ele>
        <time>2017-07-13T05:34:53Z</time>
      </trkpt>
      <trkpt lat="42.95366" lon="0.53774">
        <ele>696</ele>
        <time>2017-07-13T05:34:54Z</time>
      </trkpt>
      <trkpt lat="42.95364" lon="0.53771">
        <ele>695.8</ele>
        <time>2017-07-13T05:34:55Z</time>
      </trkpt>
      <trkpt lat="42.95361" lon="0.53767">
        <ele>695.5</ele>
        <time>2017-07-13T05:34:56Z</time>
      </trkpt>
      <trkpt lat="42.95359" lon="0.53764">
        <ele>695.2</ele>
        <time>2017-07-13T05:34:57Z</time>
      </trkpt>
      <trkpt lat="42.95356" lon="0.53761">
        <ele>694.8</ele>
        <time>2017-07-13T05:34:58Z</time>
      </trkpt>
      <trkpt lat="42.95353" lon="0.53757">
        <ele>694.3</ele>
        <time>2017-07-13T05:34:59Z</time>
      </trkpt>
      <trkpt lat="42.95351" lon="0.53754">
        <ele>693.8</ele>
        <time>2017-07-13T05:35:00Z</time>
      </trkpt>
      <trkpt lat="42.95348" lon="0.53751">
        <ele>693.2</ele>
        <time>2017-07-13T05:35:01Z</time>
      </trkpt>
      <trkpt lat="42.95345" lon="0.53748">
        <ele>692.7</ele>
        <time>2017-07-13T05:35:02Z</time>
      </trkpt>
      <trkpt lat="42.95342" lon="0.53746">
        <ele>692.3</ele>
        <time>2017-07-13T05:35:03Z</time>
      </trkpt>
      <trkpt lat="42.9534" lon="0.53743">
        <ele>691.9</ele>
        <time>2017-07-13T05:35:04Z</time>
      </trkpt>
      <trkpt lat="42.95337" lon="0.5374">
        <ele>691.6</ele>
        <time>2017-07-13T05:35:05Z</time>
      </trkpt>
      <trkpt lat="42.95335" lon="0.53737">
        <ele>691.2</ele>
        <time>2017-07-13T05:35:06Z</time>
      </trkpt>
      <trkpt lat="42.95332" lon="0.53735">
        <ele>691</ele>
        <time>2017-07-13T05:35:07Z</time>
      </trkpt>
      <trkpt lat="42.95329" lon="0.53732">
        <ele>691</ele>
        <time>2017-07-13T05:35:08Z</time>
      </trkpt>
      <trkpt lat="42.95327" lon="0.53729">
        <ele>690.9</ele>
        <time>2017-07-13T05:35:09Z</time>
      </trkpt>
      <trkpt lat="42.95325" lon="0.53726">
        <ele>690.9</ele>
        <time>2017-07-13T05:35:10Z</time>
      </trkpt>
      <trkpt lat="42.95322" lon="0.53724">
        <ele>690.9</ele>
        <time>2017-07-13T05:35:11Z</time>
      </trkpt>
      <trkpt lat="42.9532" lon="0.53721">
        <ele>690.9</ele>
        <time>2017-07-13T05:35:12Z</time>
      </trkpt>
      <trkpt lat="42.95318" lon="0.53718">
        <ele>690.8</ele>
        <time>2017-07-13T05:35:13Z</time>
      </trkpt>
      <trkpt lat="42.95316" lon="0.53715">
        <ele>690.8</ele>
        <time>2017-07-13T05:35:14Z</time>
      </trkpt>
      <trkpt lat="42.95314" lon="0.53713">
        <ele>690.8</ele>
        <time>2017-07-13T05:35:15Z</time>
      </trkpt>
      <trkpt lat="42.95312" lon="0.5371">
        <ele>690.8</ele>
        <time>2017-07-13T05:35:16Z</time>
      </trkpt>
      <trkpt lat="42.95309" lon="0.53707">
        <ele>690.8</ele>
        <time>2017-07-13T05:35:17Z</time>
      </trkpt>
      <trkpt lat="42.95307" lon="0.53705">
        <ele>690.7</ele>
        <time>2017-07-13T05:35:18Z</time>
      </trkpt>
      <trkpt lat="42.95305" lon="0.53703">
        <ele>690.6</ele>
        <time>2017-07-13T05:35:19Z</time>
      </trkpt>
      <trkpt lat="42.95303" lon="0.537">
        <ele>690.6</ele>
        <time>2017-07-13T05:35:20Z</time>
      </trkpt>
      <trkpt lat="42.953" lon="0.53698">
        <ele>690.5</ele>
        <time>2017-07-13T05:35:21Z</time>
      </trkpt>
      <trkpt lat="42.95298" lon="0.53696">
        <ele>690.3</ele>
        <time>2017-07-13T05:35:22Z</time>
      </trkpt>
      <trkpt lat="42.95295" lon="0.53694">
        <ele>690.2</ele>
        <time>2017-07-13T05:35:23Z</time>
      </trkpt>
      <trkpt lat="42.95293" lon="0.53691">
        <ele>690.1</ele>
        <time>2017-07-13T05:35:24Z</time>
      </trkpt>
      <trkpt lat="42.9529" lon="0.53689">
        <ele>690</ele>
        <time>2017-07-13T05:35:25Z</time>
      </trkpt>
      <trkpt lat="42.95287" lon="0.53686">
        <ele>689.9</ele>
        <time>2017-07-13T05:35:26Z</time>
      </trkpt>
      <trkpt lat="42.95285" lon="0.53683">
        <ele>689.8</ele>
        <time>2017-07-13T05:35:27Z</time>
      </trkpt>
      <trkpt lat="42.95282" lon="0.53679">
        <ele>689.8</ele>
        <time>2017-07-13T05:35:28Z</time>
      </trkpt>
      <trkpt lat="42.9528" lon="0.53676">
        <ele>689.7</ele>
        <time>2017-07-13T05:35:29Z</time>
      </trkpt>
      <trkpt lat="42.95277" lon="0.53672">
        <ele>689.6</ele>
        <time>2017-07-13T05:35:30Z</time>
      </trkpt>
      <trkpt lat="42.95275" lon="0.53669">
        <ele>689.5</ele>
        <time>2017-07-13T05:35:31Z</time>
      </trkpt>
      <trkpt lat="42.95272" lon="0.53665">
        <ele>689.4</ele>
        <time>2017-07-13T05:35:32Z</time>
      </trkpt>
      <trkpt lat="42.9527" lon="0.53661">
        <ele>689.4</ele>
        <time>2017-07-13T05:35:33Z</time>
      </trkpt>
      <trkpt lat="42.95268" lon="0.53657">
        <ele>689.4</ele>
        <time>2017-07-13T05:35:34Z</time>
      </trkpt>
      <trkpt lat="42.95267" lon="0.53651">
        <ele>689.6</ele>
        <time>2017-07-13T05:35:35Z</time>
      </trkpt>
      <trkpt lat="42.95268" lon="0.53645">
        <ele>689.9</ele>
        <time>2017-07-13T05:35:36Z</time>
      </trkpt>
      <trkpt lat="42.95268" lon="0.5364">
        <ele>690.2</ele>
        <time>2017-07-13T05:35:37Z</time>
      </trkpt>
      <trkpt lat="42.95269" lon="0.53634">
        <ele>690.6</ele>
        <time>2017-07-13T05:35:38Z</time>
      </trkpt>
      <trkpt lat="42.9527" lon="0.53629">
        <ele>690.9</ele>
        <time>2017-07-13T05:35:39Z</time>
      </trkpt>
      <trkpt lat="42.95271" lon="0.53624">
        <ele>691.2</ele>
        <time>2017-07-13T05:35:40Z</time>
      </trkpt>
      <trkpt lat="42.95272" lon="0.5362">
        <ele>691.5</ele>
        <time>2017-07-13T05:35:41Z</time>
      </trkpt>
      <trkpt lat="42.95273" lon="0.53615">
        <ele>691.8</ele>
        <time>2017-07-13T05:35:42Z</time>
      </trkpt>
      <trkpt lat="42.95274" lon="0.5361">
        <ele>692.1</ele>
        <time>2017-07-13T05:35:43Z</time>
      </trkpt>
      <trkpt lat="42.95274" lon="0.53606">
        <ele>692.3</ele>
        <time>2017-07-13T05:35:44Z</time>
      </trkpt>
      <trkpt lat="42.95275" lon="0.53601">
        <ele>692.6</ele>
        <time>2017-07-13T05:35:45Z</time>
      </trkpt>
      <trkpt lat="42.95275" lon="0.53596">
        <ele>692.9</ele>
        <time>2017-07-13T05:35:46Z</time>
      </trkpt>
      <trkpt lat="42.95276" lon="0.53591">
        <ele>693.1</ele>
        <time>2017-07-13T05:35:47Z</time>
      </trkpt>
      <trkpt lat="42.95276" lon="0.53586">
        <ele>693.4</ele>
        <time>2017-07-13T05:35:48Z</time>
      </trkpt>
      <trkpt lat="42.95276" lon="0.53581">
        <ele>693.6</ele>
        <time>2017-07-13T05:35:49Z</time>
      </trkpt>
      <trkpt lat="42.95276" lon="0.53576">
        <ele>693.9</ele>
        <time>2017-07-13T05:35:50Z</time>
      </trkpt>
      <trkpt lat="42.95276" lon="0.53571">
        <ele>694.2</ele>
        <time>2017-07-13T05:35:51Z</time>
      </trkpt>
      <trkpt lat="42.95276" lon="0.53566">
        <ele>694.5</ele>
        <time>2017-07-13T05:35:52Z</time>
      </trkpt>
      <trkpt lat="42.95275" lon="0.53561">
        <ele>694.8</ele>
        <time>2017-07-13T05:35:53Z</time>
      </trkpt>
      <trkpt lat="42.95275" lon="0.53557">
        <ele>695</ele>
        <time>2017-07-13T05:35:54Z</time>
      </trkpt>
      <trkpt lat="42.95274" lon="0.53552">
        <ele>695.2</ele>
        <time>2017-07-13T05:35:55Z</time>
      </trkpt>
      <trkpt lat="42.95274" lon="0.53547">
        <ele>695.4</ele>
        <time>2017-07-13T05:35:56Z</time>
      </trkpt>
      <trkpt lat="42.95273" lon="0.53543">
        <ele>695.5</ele>
        <time>2017-07-13T05:35:57Z</time>
      </trkpt>
      <trkpt lat="42.95272" lon="0.53538">
        <ele>695.6</ele>
        <time>2017-07-13T05:35:58Z</time>
      </trkpt>
      <trkpt lat="42.95271" lon="0.53533">
        <ele>695.7</ele>
        <time>2017-07-13T05:35:59Z</time>
      </trkpt>
      <trkpt lat="42.95269" lon="0.53528">
        <ele>695.7</ele>
        <time>2017-07-13T05:36:00Z</time>
      </trkpt>
      <trkpt lat="42.95268" lon="0.53524">
        <ele>695.7</ele>
        <time>2017-07-13T05:36:01Z</time>
      </trkpt>
      <trkpt lat="42.95266" lon="0.53519">
        <ele>695.6</ele>
        <time>2017-07-13T05:36:02Z</time>
      </trkpt>
      <trkpt lat="42.95265" lon="0.53514">
        <ele>695.6</ele>
        <time>2017-07-13T05:36:03Z</time>
      </trkpt>
      <trkpt lat="42.95263" lon="0.5351">
        <ele>695.5</ele>
        <time>2017-07-13T05:36:04Z</time>
      </trkpt>
      <trkpt lat="42.95262" lon="0.53505">
        <ele>695.4</ele>
        <time>2017-07-13T05:36:05Z</time>
      </trkpt>
      <trkpt lat="42.9526" lon="0.535">
        <ele>695.2</ele>
        <time>2017-07-13T05:36:06Z</time>
      </trkpt>
      <trkpt lat="42.95259" lon="0.53496">
        <ele>696.1</ele>
        <time>2017-07-13T05:36:07Z</time>
      </trkpt>
      <trkpt lat="42.95257" lon="0.53491">
        <ele>697</ele>
        <time>2017-07-13T05:36:08Z</time>
      </trkpt>
      <trkpt lat="42.95255" lon="0.53487">
        <ele>697.9</ele>
        <time>2017-07-13T05:36:09Z</time>
      </trkpt>
      <trkpt lat="42.95254" lon="0.53483">
        <ele>698.8</ele>
        <time>2017-07-13T05:36:10Z</time>
      </trkpt>
      <trkpt lat="42.95252" lon="0.53478">
        <ele>699.6</ele>
        <time>2017-07-13T05:36:11Z</time>
      </trkpt>
      <trkpt lat="42.9525" lon="0.53474">
        <ele>700.5</ele>
        <time>2017-07-13T05:36:12Z</time>
      </trkpt>
      <trkpt lat="42.95248" lon="0.5347">
        <ele>701.4</ele>
        <time>2017-07-13T05:36:13Z</time>
      </trkpt>
      <trkpt lat="42.95245" lon="0.53466">
        <ele>702.3</ele>
        <time>2017-07-13T05:36:14Z</time>
      </trkpt>
      <trkpt lat="42.95243" lon="0.53462">
        <ele>703.1</ele>
        <time>2017-07-13T05:36:15Z</time>
      </trkpt>
      <trkpt lat="42.95241" lon="0.53459">
        <ele>703.9</ele>
        <time>2017-07-13T05:36:16Z</time>
      </trkpt>
      <trkpt lat="42.95238" lon="0.53455">
        <ele>704.5</ele>
        <time>2017-07-13T05:36:17Z</time>
      </trkpt>
      <trkpt lat="42.95235" lon="0.53452">
        <ele>705</ele>
        <time>2017-07-13T05:36:18Z</time>
      </trkpt>
      <trkpt lat="42.95232" lon="0.53448">
        <ele>705.5</ele>
        <time>2017-07-13T05:36:19Z</time>
      </trkpt>
      <trkpt lat="42.95229" lon="0.53445">
        <ele>705.9</ele>
        <time>2017-07-13T05:36:20Z</time>
      </trkpt>
      <trkpt lat="42.95226" lon="0.53442">
        <ele>706.2</ele>
        <time>2017-07-13T05:36:21Z</time>
      </trkpt>
      <trkpt lat="42.95223" lon="0.53439">
        <ele>706.3</ele>
        <time>2017-07-13T05:36:22Z</time>
      </trkpt>
      <trkpt lat="42.95219" lon="0.53437">
        <ele>706.5</ele>
        <time>2017-07-13T05:36:23Z</time>
      </trkpt>
      <trkpt lat="42.95216" lon="0.53434">
        <ele>706.6</ele>
        <time>2017-07-13T05:36:24Z</time>
      </trkpt>
      <trkpt lat="42.95212" lon="0.53432">
        <ele>706.5</ele>
        <time>2017-07-13T05:36:25Z</time>
      </trkpt>
      <trkpt lat="42.95209" lon="0.53429">
        <ele>706.4</ele>
        <time>2017-07-13T05:36:26Z</time>
      </trkpt>
      <trkpt lat="42.95205" lon="0.53427">
        <ele>706.3</ele>
        <time>2017-07-13T05:36:27Z</time>
      </trkpt>
      <trkpt lat="42.95202" lon="0.53425">
        <ele>706.2</ele>
        <time>2017-07-13T05:36:28Z</time>
      </trkpt>
      <trkpt lat="42.95198" lon="0.53423">
        <ele>705.9</ele>
        <time>2017-07-13T05:36:29Z</time>
      </trkpt>
      <trkpt lat="42.95195" lon="0.53421">
        <ele>705.7</ele>
        <time>2017-07-13T05:36:30Z</time>
      </trkpt>
      <trkpt lat="42.95191" lon="0.53419">
        <ele>705.4</ele>
        <time>2017-07-13T05:36:31Z</time>
      </trkpt>
      <trkpt lat="42.95188" lon="0.53417">
        <ele>705.1</ele>
        <time>2017-07-13T05:36:32Z</time>
      </trkpt>
      <trkpt lat="42.95185" lon="0.53415">
        <ele>705</ele>
        <time>2017-07-13T05:36:33Z</time>
      </trkpt>
      <trkpt lat="42.95181" lon="0.53413">
        <ele>704.9</ele>
        <time>2017-07-13T05:36:34Z</time>
      </trkpt>
      <trkpt lat="42.95178" lon="0.5341">
        <ele>704.8</ele>
        <time>2017-07-13T05:36:35Z</time>
      </trkpt>
      <trkpt lat="42.95175" lon="0.53408">
        <ele>704.7</ele>
        <time>2017-07-13T05:36:36Z</time>
      </trkpt>
      <trkpt lat="42.95172" lon="0.53406">
        <ele>704.6</ele>
        <time>2017-07-13T05:36:37Z</time>
      </trkpt>
      <trkpt lat="42.95169" lon="0.53404">
        <ele>704.6</ele>
        <time>2017-07-13T05:36:38Z</time>
      </trkpt>
      <trkpt lat="42.95166" lon="0.53401">
        <ele>704.7</ele>
        <time>2017-07-13T05:36:39Z</time>
      </trkpt>
      <trkpt lat="42.95163" lon="0.53398">
        <ele>705.2</ele>
        <time>2017-07-13T05:36:40Z</time>
      </trkpt>
      <trkpt lat="42.9516" lon="0.53395">
        <ele>705.6</ele>
        <time>2017-07-13T05:36:41Z</time>
      </trkpt>
      <trkpt lat="42.95158" lon="0.53392">
        <ele>706.1</ele>
        <time>2017-07-13T05:36:42Z</time>
      </trkpt>
      <trkpt lat="42.95155" lon="0.53388">
        <ele>706.6</ele>
        <time>2017-07-13T05:36:43Z</time>
      </trkpt>
      <trkpt lat="42.95153" lon="0.53385">
        <ele>707</ele>
        <time>2017-07-13T05:36:44Z</time>
      </trkpt>
      <trkpt lat="42.95151" lon="0.53381">
        <ele>707.5</ele>
        <time>2017-07-13T05:36:45Z</time>
      </trkpt>
      <trkpt lat="42.95148" lon="0.53377">
        <ele>707.9</ele>
        <time>2017-07-13T05:36:46Z</time>
      </trkpt>
      <trkpt lat="42.95146" lon="0.53373">
        <ele>708.3</ele>
        <time>2017-07-13T05:36:47Z</time>
      </trkpt>
      <trkpt lat="42.95144" lon="0.53369">
        <ele>708.6</ele>
        <time>2017-07-13T05:36:48Z</time>
      </trkpt>
      <trkpt lat="42.95142" lon="0.53366">
        <ele>708.8</ele>
        <time>2017-07-13T05:36:49Z</time>
      </trkpt>
      <trkpt lat="42.9514" lon="0.53362">
        <ele>709</ele>
        <time>2017-07-13T05:36:50Z</time>
      </trkpt>
      <trkpt lat="42.95137" lon="0.53358">
        <ele>709.2</ele>
        <time>2017-07-13T05:36:51Z</time>
      </trkpt>
      <trkpt lat="42.95135" lon="0.53354">
        <ele>709.3</ele>
        <time>2017-07-13T05:36:52Z</time>
      </trkpt>
      <trkpt lat="42.95133" lon="0.53351">
        <ele>709.4</ele>
        <time>2017-07-13T05:36:53Z</time>
      </trkpt>
      <trkpt lat="42.95132" lon="0.53347">
        <ele>709.5</ele>
        <time>2017-07-13T05:36:54Z</time>
      </trkpt>
      <trkpt lat="42.9513" lon="0.53343">
        <ele>709.6</ele>
        <time>2017-07-13T05:36:55Z</time>
      </trkpt>
      <trkpt lat="42.95128" lon="0.53339">
        <ele>709.7</ele>
        <time>2017-07-13T05:36:56Z</time>
      </trkpt>
      <trkpt lat="42.95127" lon="0.53335">
        <ele>709.9</ele>
        <time>2017-07-13T05:36:57Z</time>
      </trkpt>
      <trkpt lat="42.95125" lon="0.5333">
        <ele>710.1</ele>
        <time>2017-07-13T05:36:58Z</time>
      </trkpt>
      <trkpt lat="42.95124" lon="0.53326">
        <ele>710.4</ele>
        <time>2017-07-13T05:36:59Z</time>
      </trkpt>
      <trkpt lat="42.95123" lon="0.53322">
        <ele>710.7</ele>
        <time>2017-07-13T05:37:00Z</time>
      </trkpt>
      <trkpt lat="42.95122" lon="0.53317">
        <ele>711</ele>
        <time>2017-07-13T05:37:01Z</time>
      </trkpt>
      <trkpt lat="42.95121" lon="0.53313">
        <ele>711.3</ele>
        <time>2017-07-13T05:37:02Z</time>
      </trkpt>
      <trkpt lat="42.9512" lon="0.53309">
        <ele>711.6</ele>
        <time>2017-07-13T05:37:03Z</time>
      </trkpt>
      <trkpt lat="42.95119" lon="0.53304">
        <ele>712</ele>
        <time>2017-07-13T05:37:04Z</time>
      </trkpt>
      <trkpt lat="42.95118" lon="0.533">
        <ele>712.3</ele>
        <time>2017-07-13T05:37:05Z</time>
      </trkpt>
      <trkpt lat="42.95118" lon="0.53295">
        <ele>712.7</ele>
        <time>2017-07-13T05:37:06Z</time>
      </trkpt>
      <trkpt lat="42.95117" lon="0.53291">
        <ele>713</ele>
        <time>2017-07-13T05:37:07Z</time>
      </trkpt>
      <trkpt lat="42.95116" lon="0.53286">
        <ele>713.3</ele>
        <time>2017-07-13T05:37:08Z</time>
      </trkpt>
      <trkpt lat="42.95115" lon="0.53282">
        <ele>713.6</ele>
        <time>2017-07-13T05:37:09Z</time>
      </trkpt>
      <trkpt lat="42.95114" lon="0.53277">
        <ele>713.8</ele>
        <time>2017-07-13T05:37:10Z</time>
      </trkpt>
      <trkpt lat="42.95114" lon="0.53273">
        <ele>714.1</ele>
        <time>2017-07-13T05:37:11Z</time>
      </trkpt>
      <trkpt lat="42.95113" lon="0.53268">
        <ele>714.4</ele>
        <time>2017-07-13T05:37:12Z</time>
      </trkpt>
      <trkpt lat="42.95112" lon="0.53264">
        <ele>714.7</ele>
        <time>2017-07-13T05:37:13Z</time>
      </trkpt>
      <trkpt lat="42.95111" lon="0.53259">
        <ele>715</ele>
        <time>2017-07-13T05:37:14Z</time>
      </trkpt>
      <trkpt lat="42.95111" lon="0.53255">
        <ele>715.2</ele>
        <time>2017-07-13T05:37:15Z</time>
      </trkpt>
      <trkpt lat="42.9511" lon="0.5325">
        <ele>715.5</ele>
        <time>2017-07-13T05:37:16Z</time>
      </trkpt>
      <trkpt lat="42.9511" lon="0.53246">
        <ele>715.2</ele>
        <time>2017-07-13T05:37:17Z</time>
      </trkpt>
      <trkpt lat="42.95109" lon="0.53241">
        <ele>715</ele>
        <time>2017-07-13T05:37:18Z</time>
      </trkpt>
      <trkpt lat="42.95109" lon="0.53237">
        <ele>714.7</ele>
        <time>2017-07-13T05:37:19Z</time>
      </trkpt>
      <trkpt lat="42.95108" lon="0.53232">
        <ele>714.5</ele>
        <time>2017-07-13T05:37:20Z</time>
      </trkpt>
      <trkpt lat="42.95108" lon="0.53228">
        <ele>714.3</ele>
        <time>2017-07-13T05:37:21Z</time>
      </trkpt>
      <trkpt lat="42.95108" lon="0.53223">
        <ele>714.1</ele>
        <time>2017-07-13T05:37:22Z</time>
      </trkpt>
      <trkpt lat="42.95108" lon="0.53218">
        <ele>714</ele>
        <time>2017-07-13T05:37:23Z</time>
      </trkpt>
      <trkpt lat="42.95107" lon="0.53214">
        <ele>713.8</ele>
        <time>2017-07-13T05:37:24Z</time>
      </trkpt>
      <trkpt lat="42.95107" lon="0.53209">
        <ele>713.7</ele>
        <time>2017-07-13T05:37:25Z</time>
      </trkpt>
      <trkpt lat="42.95107" lon="0.53205">
        <ele>713.6</ele>
        <time>2017-07-13T05:37:26Z</time>
      </trkpt>
      <trkpt lat="42.95107" lon="0.532">
        <ele>713.5</ele>
        <time>2017-07-13T05:37:27Z</time>
      </trkpt>
      <trkpt lat="42.95107" lon="0.53196">
        <ele>713.4</ele>
        <time>2017-07-13T05:37:28Z</time>
      </trkpt>
      <trkpt lat="42.95107" lon="0.53191">
        <ele>713.2</ele>
        <time>2017-07-13T05:37:29Z</time>
      </trkpt>
      <trkpt lat="42.95107" lon="0.53187">
        <ele>713.1</ele>
        <time>2017-07-13T05:37:30Z</time>
      </trkpt>
      <trkpt lat="42.95107" lon="0.53182">
        <ele>713.1</ele>
        <time>2017-07-13T05:37:31Z</time>
      </trkpt>
      <trkpt lat="42.95107" lon="0.53177">
        <ele>713</ele>
        <time>2017-07-13T05:37:32Z</time>
      </trkpt>
      <trkpt lat="42.95107" lon="0.53173">
        <ele>713</ele>
        <time>2017-07-13T05:37:33Z</time>
      </trkpt>
      <trkpt lat="42.95107" lon="0.53168">
        <ele>713</ele>
        <time>2017-07-13T05:37:34Z</time>
      </trkpt>
      <trkpt lat="42.95108" lon="0.53163">
        <ele>713</ele>
        <time>2017-07-13T05:37:35Z</time>
      </trkpt>
      <trkpt lat="42.95108" lon="0.53159">
        <ele>712.9</ele>
        <time>2017-07-13T05:37:36Z</time>
      </trkpt>
      <trkpt lat="42.95108" lon="0.53154">
        <ele>712.8</ele>
        <time>2017-07-13T05:37:37Z</time>
      </trkpt>
      <trkpt lat="42.95108" lon="0.53149">
        <ele>712.8</ele>
        <time>2017-07-13T05:37:38Z</time>
      </trkpt>
      <trkpt lat="42.95108" lon="0.53145">
        <ele>712.6</ele>
        <time>2017-07-13T05:37:39Z</time>
      </trkpt>
      <trkpt lat="42.95108" lon="0.5314">
        <ele>712.5</ele>
        <time>2017-07-13T05:37:40Z</time>
      </trkpt>
      <trkpt lat="42.95108" lon="0.53136">
        <ele>712.3</ele>
        <time>2017-07-13T05:37:41Z</time>
      </trkpt>
      <trkpt lat="42.95108" lon="0.53131">
        <ele>712.1</ele>
        <time>2017-07-13T05:37:42Z</time>
      </trkpt>
      <trkpt lat="42.95108" lon="0.53127">
        <ele>711.8</ele>
        <time>2017-07-13T05:37:43Z</time>
      </trkpt>
      <trkpt lat="42.95107" lon="0.53123">
        <ele>711.5</ele>
        <time>2017-07-13T05:37:44Z</time>
      </trkpt>
      <trkpt lat="42.95106" lon="0.53119">
        <ele>711.2</ele>
        <time>2017-07-13T05:37:45Z</time>
      </trkpt>
      <trkpt lat="42.95105" lon="0.53115">
        <ele>710.8</ele>
        <time>2017-07-13T05:37:46Z</time>
      </trkpt>
      <trkpt lat="42.95103" lon="0.53111">
        <ele>710.5</ele>
        <time>2017-07-13T05:37:47Z</time>
      </trkpt>
      <trkpt lat="42.95102" lon="0.53107">
        <ele>710.1</ele>
        <time>2017-07-13T05:37:48Z</time>
      </trkpt>
      <trkpt lat="42.951" lon="0.53103">
        <ele>709.8</ele>
        <time>2017-07-13T05:37:49Z</time>
      </trkpt>
      <trkpt lat="42.95098" lon="0.53099">
        <ele>709.5</ele>
        <time>2017-07-13T05:37:50Z</time>
      </trkpt>
      <trkpt lat="42.95096" lon="0.53096">
        <ele>709.2</ele>
        <time>2017-07-13T05:37:51Z</time>
      </trkpt>
      <trkpt lat="42.95094" lon="0.53092">
        <ele>708.9</ele>
        <time>2017-07-13T05:37:52Z</time>
      </trkpt>
      <trkpt lat="42.95092" lon="0.53088">
        <ele>708.7</ele>
        <time>2017-07-13T05:37:53Z</time>
      </trkpt>
      <trkpt lat="42.9509" lon="0.53084">
        <ele>708.6</ele>
        <time>2017-07-13T05:37:54Z</time>
      </trkpt>
      <trkpt lat="42.95088" lon="0.53081">
        <ele>708.4</ele>
        <time>2017-07-13T05:37:55Z</time>
      </trkpt>
      <trkpt lat="42.95086" lon="0.53077">
        <ele>708.2</ele>
        <time>2017-07-13T05:37:56Z</time>
      </trkpt>
      <trkpt lat="42.95085" lon="0.53072">
        <ele>708.1</ele>
        <time>2017-07-13T05:37:57Z</time>
      </trkpt>
      <trkpt lat="42.95084" lon="0.53068">
        <ele>707.9</ele>
        <time>2017-07-13T05:37:58Z</time>
      </trkpt>
      <trkpt lat="42.95083" lon="0.53064">
        <ele>708</ele>
        <time>2017-07-13T05:37:59Z</time>
      </trkpt>
      <trkpt lat="42.95082" lon="0.53059">
        <ele>708.3</ele>
        <time>2017-07-13T05:38:00Z</time>
      </trkpt>
      <trkpt lat="42.95082" lon="0.53055">
        <ele>708.5</ele>
        <time>2017-07-13T05:38:01Z</time>
      </trkpt>
      <trkpt lat="42.95082" lon="0.5305">
        <ele>708.5</ele>
        <time>2017-07-13T05:38:02Z</time>
      </trkpt>
      <trkpt lat="42.95082" lon="0.53046">
        <ele>708.5</ele>
        <time>2017-07-13T05:38:03Z</time>
      </trkpt>
      <trkpt lat="42.95082" lon="0.53041">
        <ele>708.3</ele>
        <time>2017-07-13T05:38:04Z</time>
      </trkpt>
      <trkpt lat="42.95082" lon="0.53037">
        <ele>708.2</ele>
        <time>2017-07-13T05:38:05Z</time>
      </trkpt>
      <trkpt lat="42.95083" lon="0.53033">
        <ele>707.9</ele>
        <time>2017-07-13T05:38:06Z</time>
      </trkpt>
      <trkpt lat="42.95083" lon="0.53028">
        <ele>707.7</ele>
        <time>2017-07-13T05:38:07Z</time>
      </trkpt>
      <trkpt lat="42.95083" lon="0.53024">
        <ele>707.4</ele>
        <time>2017-07-13T05:38:08Z</time>
      </trkpt>
      <trkpt lat="42.95083" lon="0.53021">
        <ele>707.3</ele>
        <time>2017-07-13T05:38:09Z</time>
      </trkpt>
      <trkpt lat="42.95084" lon="0.53017">
        <ele>707.2</ele>
        <time>2017-07-13T05:38:10Z</time>
      </trkpt>
      <trkpt lat="42.95084" lon="0.53014">
        <ele>707.2</ele>
        <time>2017-07-13T05:38:11Z</time>
      </trkpt>
      <trkpt lat="42.95084" lon="0.5301">
        <ele>707.2</ele>
        <time>2017-07-13T05:38:12Z</time>
      </trkpt>
      <trkpt lat="42.95084" lon="0.53005">
        <ele>707.1</ele>
        <time>2017-07-13T05:38:13Z</time>
      </trkpt>
      <trkpt lat="42.95084" lon="0.52999">
        <ele>707.1</ele>
        <time>2017-07-13T05:38:14Z</time>
      </trkpt>
      <trkpt lat="42.95083" lon="0.52994">
        <ele>707.3</ele>
        <time>2017-07-13T05:38:15Z</time>
      </trkpt>
      <trkpt lat="42.95083" lon="0.52989">
        <ele>707.7</ele>
        <time>2017-07-13T05:38:16Z</time>
      </trkpt>
      <trkpt lat="42.95083" lon="0.52984">
        <ele>708.2</ele>
        <time>2017-07-13T05:38:17Z</time>
      </trkpt>
      <trkpt lat="42.95082" lon="0.5298">
        <ele>708.6</ele>
        <time>2017-07-13T05:38:18Z</time>
      </trkpt>
      <trkpt lat="42.95082" lon="0.52975">
        <ele>709.1</ele>
        <time>2017-07-13T05:38:19Z</time>
      </trkpt>
      <trkpt lat="42.95081" lon="0.52971">
        <ele>709.6</ele>
        <time>2017-07-13T05:38:20Z</time>
      </trkpt>
      <trkpt lat="42.9508" lon="0.52967">
        <ele>710.2</ele>
        <time>2017-07-13T05:38:21Z</time>
      </trkpt>
      <trkpt lat="42.95079" lon="0.52962">
        <ele>710.8</ele>
        <time>2017-07-13T05:38:22Z</time>
      </trkpt>
      <trkpt lat="42.95078" lon="0.52958">
        <ele>711.4</ele>
        <time>2017-07-13T05:38:23Z</time>
      </trkpt>
      <trkpt lat="42.95077" lon="0.52953">
        <ele>712</ele>
        <time>2017-07-13T05:38:24Z</time>
      </trkpt>
      <trkpt lat="42.95075" lon="0.52949">
        <ele>712.7</ele>
        <time>2017-07-13T05:38:25Z</time>
      </trkpt>
      <trkpt lat="42.95074" lon="0.52945">
        <ele>713.4</ele>
        <time>2017-07-13T05:38:26Z</time>
      </trkpt>
      <trkpt lat="42.95072" lon="0.5294">
        <ele>714.1</ele>
        <time>2017-07-13T05:38:27Z</time>
      </trkpt>
      <trkpt lat="42.9507" lon="0.52936">
        <ele>714.7</ele>
        <time>2017-07-13T05:38:28Z</time>
      </trkpt>
      <trkpt lat="42.95069" lon="0.52931">
        <ele>715.4</ele>
        <time>2017-07-13T05:38:29Z</time>
      </trkpt>
      <trkpt lat="42.95066" lon="0.52927">
        <ele>716</ele>
        <time>2017-07-13T05:38:30Z</time>
      </trkpt>
      <trkpt lat="42.95064" lon="0.52923">
        <ele>716.7</ele>
        <time>2017-07-13T05:38:31Z</time>
      </trkpt>
      <trkpt lat="42.95062" lon="0.52919">
        <ele>717.3</ele>
        <time>2017-07-13T05:38:32Z</time>
      </trkpt>
      <trkpt lat="42.95059" lon="0.52916">
        <ele>718</ele>
        <time>2017-07-13T05:38:33Z</time>
      </trkpt>
      <trkpt lat="42.95057" lon="0.52912">
        <ele>718.9</ele>
        <time>2017-07-13T05:38:34Z</time>
      </trkpt>
      <trkpt lat="42.95054" lon="0.52909">
        <ele>719.8</ele>
        <time>2017-07-13T05:38:35Z</time>
      </trkpt>
      <trkpt lat="42.95051" lon="0.52906">
        <ele>720.6</ele>
        <time>2017-07-13T05:38:36Z</time>
      </trkpt>
      <trkpt lat="42.95048" lon="0.52903">
        <ele>721.3</ele>
        <time>2017-07-13T05:38:37Z</time>
      </trkpt>
      <trkpt lat="42.95045" lon="0.529">
        <ele>722</ele>
        <time>2017-07-13T05:38:38Z</time>
      </trkpt>
      <trkpt lat="42.95042" lon="0.52898">
        <ele>722.6</ele>
        <time>2017-07-13T05:38:39Z</time>
      </trkpt>
      <trkpt lat="42.95039" lon="0.52896">
        <ele>723.1</ele>
        <time>2017-07-13T05:38:40Z</time>
      </trkpt>
      <trkpt lat="42.95036" lon="0.52894">
        <ele>723.6</ele>
        <time>2017-07-13T05:38:41Z</time>
      </trkpt>
      <trkpt lat="42.95033" lon="0.52892">
        <ele>724</ele>
        <time>2017-07-13T05:38:42Z</time>
      </trkpt>
      <trkpt lat="42.9503" lon="0.5289">
        <ele>724.4</ele>
        <time>2017-07-13T05:38:43Z</time>
      </trkpt>
      <trkpt lat="42.95026" lon="0.52888">
        <ele>724.7</ele>
        <time>2017-07-13T05:38:44Z</time>
      </trkpt>
      <trkpt lat="42.95023" lon="0.52886">
        <ele>724.9</ele>
        <time>2017-07-13T05:38:45Z</time>
      </trkpt>
      <trkpt lat="42.9502" lon="0.52884">
        <ele>725</ele>
        <time>2017-07-13T05:38:46Z</time>
      </trkpt>
      <trkpt lat="42.95017" lon="0.52882">
        <ele>725.1</ele>
        <time>2017-07-13T05:38:47Z</time>
      </trkpt>
      <trkpt lat="42.95014" lon="0.5288">
        <ele>725.1</ele>
        <time>2017-07-13T05:38:48Z</time>
      </trkpt>
      <trkpt lat="42.95011" lon="0.52877">
        <ele>725</ele>
        <time>2017-07-13T05:38:49Z</time>
      </trkpt>
      <trkpt lat="42.95008" lon="0.52874">
        <ele>724.7</ele>
        <time>2017-07-13T05:38:50Z</time>
      </trkpt>
      <trkpt lat="42.95005" lon="0.52871">
        <ele>724.3</ele>
        <time>2017-07-13T05:38:51Z</time>
      </trkpt>
      <trkpt lat="42.95002" lon="0.52867">
        <ele>723.6</ele>
        <time>2017-07-13T05:38:52Z</time>
      </trkpt>
      <trkpt lat="42.94998" lon="0.52863">
        <ele>723.5</ele>
        <time>2017-07-13T05:38:53Z</time>
      </trkpt>
      <trkpt lat="42.94996" lon="0.52859">
        <ele>723.9</ele>
        <time>2017-07-13T05:38:54Z</time>
      </trkpt>
      <trkpt lat="42.94993" lon="0.52855">
        <ele>724.2</ele>
        <time>2017-07-13T05:38:55Z</time>
      </trkpt>
      <trkpt lat="42.94991" lon="0.52852">
        <ele>724.4</ele>
        <time>2017-07-13T05:38:56Z</time>
      </trkpt>
      <trkpt lat="42.9499" lon="0.5285">
        <ele>724.6</ele>
        <time>2017-07-13T05:38:57Z</time>
      </trkpt>
      <trkpt lat="42.94988" lon="0.52848">
        <ele>724.7</ele>
        <time>2017-07-13T05:38:58Z</time>
      </trkpt>
      <trkpt lat="42.94987" lon="0.52845">
        <ele>724.7</ele>
        <time>2017-07-13T05:38:59Z</time>
      </trkpt>
      <trkpt lat="42.94986" lon="0.52843">
        <ele>724.7</ele>
        <time>2017-07-13T05:39:00Z</time>
      </trkpt>
      <trkpt lat="42.94985" lon="0.5284">
        <ele>724.6</ele>
        <time>2017-07-13T05:39:01Z</time>
      </trkpt>
      <trkpt lat="42.94983" lon="0.52837">
        <ele>724.5</ele>
        <time>2017-07-13T05:39:02Z</time>
      </trkpt>
      <trkpt lat="42.94982" lon="0.52834">
        <ele>724.3</ele>
        <time>2017-07-13T05:39:03Z</time>
      </trkpt>
      <trkpt lat="42.9498" lon="0.52831">
        <ele>724.7</ele>
        <time>2017-07-13T05:39:04Z</time>
      </trkpt>
      <trkpt lat="42.94979" lon="0.52827">
        <ele>725.2</ele>
        <time>2017-07-13T05:39:05Z</time>
      </trkpt>
      <trkpt lat="42.94977" lon="0.52823">
        <ele>725.7</ele>
        <time>2017-07-13T05:39:06Z</time>
      </trkpt>
      <trkpt lat="42.94976" lon="0.52819">
        <ele>726.1</ele>
        <time>2017-07-13T05:39:07Z</time>
      </trkpt>
      <trkpt lat="42.94974" lon="0.52815">
        <ele>726.5</ele>
        <time>2017-07-13T05:39:08Z</time>
      </trkpt>
      <trkpt lat="42.94972" lon="0.5281">
        <ele>726.8</ele>
        <time>2017-07-13T05:39:09Z</time>
      </trkpt>
      <trkpt lat="42.9497" lon="0.52806">
        <ele>727.1</ele>
        <time>2017-07-13T05:39:10Z</time>
      </trkpt>
      <trkpt lat="42.94969" lon="0.52801">
        <ele>727.3</ele>
        <time>2017-07-13T05:39:11Z</time>
      </trkpt>
      <trkpt lat="42.94967" lon="0.52797">
        <ele>727.4</ele>
        <time>2017-07-13T05:39:12Z</time>
      </trkpt>
      <trkpt lat="42.94965" lon="0.52793">
        <ele>727.5</ele>
        <time>2017-07-13T05:39:13Z</time>
      </trkpt>
      <trkpt lat="42.94963" lon="0.52788">
        <ele>727.5</ele>
        <time>2017-07-13T05:39:14Z</time>
      </trkpt>
      <trkpt lat="42.94961" lon="0.52784">
        <ele>727.4</ele>
        <time>2017-07-13T05:39:15Z</time>
      </trkpt>
      <trkpt lat="42.94959" lon="0.52779">
        <ele>727.3</ele>
        <time>2017-07-13T05:39:16Z</time>
      </trkpt>
      <trkpt lat="42.94956" lon="0.52775">
        <ele>727.2</ele>
        <time>2017-07-13T05:39:17Z</time>
      </trkpt>
      <trkpt lat="42.94954" lon="0.52771">
        <ele>727</ele>
        <time>2017-07-13T05:39:18Z</time>
      </trkpt>
      <trkpt lat="42.94952" lon="0.52767">
        <ele>726.8</ele>
        <time>2017-07-13T05:39:19Z</time>
      </trkpt>
      <trkpt lat="42.94949" lon="0.52764">
        <ele>726.5</ele>
        <time>2017-07-13T05:39:20Z</time>
      </trkpt>
      <trkpt lat="42.94946" lon="0.52761">
        <ele>726.2</ele>
        <time>2017-07-13T05:39:21Z</time>
      </trkpt>
      <trkpt lat="42.94943" lon="0.52757">
        <ele>725.9</ele>
        <time>2017-07-13T05:39:22Z</time>
      </trkpt>
      <trkpt lat="42.9494" lon="0.52755">
        <ele>725.6</ele>
        <time>2017-07-13T05:39:23Z</time>
      </trkpt>
      <trkpt lat="42.94937" lon="0.52752">
        <ele>725.3</ele>
        <time>2017-07-13T05:39:24Z</time>
      </trkpt>
      <trkpt lat="42.94934" lon="0.5275">
        <ele>725</ele>
        <time>2017-07-13T05:39:25Z</time>
      </trkpt>
      <trkpt lat="42.94931" lon="0.52747">
        <ele>725.2</ele>
        <time>2017-07-13T05:39:26Z</time>
      </trkpt>
      <trkpt lat="42.94927" lon="0.52745">
        <ele>725.3</ele>
        <time>2017-07-13T05:39:27Z</time>
      </trkpt>
      <trkpt lat="42.94924" lon="0.52743">
        <ele>725.3</ele>
        <time>2017-07-13T05:39:28Z</time>
      </trkpt>
      <trkpt lat="42.94921" lon="0.52741">
        <ele>725.3</ele>
        <time>2017-07-13T05:39:29Z</time>
      </trkpt>
      <trkpt lat="42.94918" lon="0.52739">
        <ele>725.2</ele>
        <time>2017-07-13T05:39:30Z</time>
      </trkpt>
      <trkpt lat="42.94915" lon="0.52737">
        <ele>725.6</ele>
        <time>2017-07-13T05:39:31Z</time>
      </trkpt>
      <trkpt lat="42.94912" lon="0.52734">
        <ele>726.4</ele>
        <time>2017-07-13T05:39:32Z</time>
      </trkpt>
      <trkpt lat="42.94909" lon="0.52732">
        <ele>727.1</ele>
        <time>2017-07-13T05:39:33Z</time>
      </trkpt>
      <trkpt lat="42.94907" lon="0.52729">
        <ele>727.7</ele>
        <time>2017-07-13T05:39:34Z</time>
      </trkpt>
      <trkpt lat="42.94904" lon="0.52726">
        <ele>728.2</ele>
        <time>2017-07-13T05:39:35Z</time>
      </trkpt>
      <trkpt lat="42.94901" lon="0.52724">
        <ele>728.7</ele>
        <time>2017-07-13T05:39:36Z</time>
      </trkpt>
      <trkpt lat="42.94899" lon="0.52721">
        <ele>729.1</ele>
        <time>2017-07-13T05:39:37Z</time>
      </trkpt>
      <trkpt lat="42.94896" lon="0.52718">
        <ele>729.4</ele>
        <time>2017-07-13T05:39:38Z</time>
      </trkpt>
      <trkpt lat="42.94894" lon="0.52715">
        <ele>729.6</ele>
        <time>2017-07-13T05:39:39Z</time>
      </trkpt>
      <trkpt lat="42.94891" lon="0.52712">
        <ele>729.8</ele>
        <time>2017-07-13T05:39:40Z</time>
      </trkpt>
      <trkpt lat="42.94889" lon="0.52709">
        <ele>730</ele>
        <time>2017-07-13T05:39:41Z</time>
      </trkpt>
      <trkpt lat="42.94887" lon="0.52707">
        <ele>730.1</ele>
        <time>2017-07-13T05:39:42Z</time>
      </trkpt>
      <trkpt lat="42.94884" lon="0.52704">
        <ele>730.1</ele>
        <time>2017-07-13T05:39:43Z</time>
      </trkpt>
      <trkpt lat="42.94882" lon="0.52701">
        <ele>730.2</ele>
        <time>2017-07-13T05:39:44Z</time>
      </trkpt>
      <trkpt lat="42.94879" lon="0.52699">
        <ele>730.2</ele>
        <time>2017-07-13T05:39:45Z</time>
      </trkpt>
      <trkpt lat="42.94877" lon="0.52696">
        <ele>730.2</ele>
        <time>2017-07-13T05:39:46Z</time>
      </trkpt>
      <trkpt lat="42.94874" lon="0.52694">
        <ele>730.1</ele>
        <time>2017-07-13T05:39:47Z</time>
      </trkpt>
      <trkpt lat="42.94872" lon="0.52691">
        <ele>730</ele>
        <time>2017-07-13T05:39:48Z</time>
      </trkpt>
      <trkpt lat="42.9487" lon="0.52689">
        <ele>729.8</ele>
        <time>2017-07-13T05:39:49Z</time>
      </trkpt>
      <trkpt lat="42.94867" lon="0.52686">
        <ele>729.7</ele>
        <time>2017-07-13T05:39:50Z</time>
      </trkpt>
      <trkpt lat="42.94865" lon="0.52684">
        <ele>729.4</ele>
        <time>2017-07-13T05:39:51Z</time>
      </trkpt>
      <trkpt lat="42.94862" lon="0.52681">
        <ele>729.1</ele>
        <time>2017-07-13T05:39:52Z</time>
      </trkpt>
      <trkpt lat="42.9486" lon="0.52679">
        <ele>728.8</ele>
        <time>2017-07-13T05:39:53Z</time>
      </trkpt>
      <trkpt lat="42.94858" lon="0.52677">
        <ele>728.5</ele>
        <time>2017-07-13T05:39:54Z</time>
      </trkpt>
      <trkpt lat="42.94856" lon="0.52674">
        <ele>728</ele>
        <time>2017-07-13T05:39:55Z</time>
      </trkpt>
      <trkpt lat="42.94853" lon="0.52672">
        <ele>727.6</ele>
        <time>2017-07-13T05:39:56Z</time>
      </trkpt>
      <trkpt lat="42.94851" lon="0.52669">
        <ele>727.1</ele>
        <time>2017-07-13T05:39:57Z</time>
      </trkpt>
      <trkpt lat="42.94849" lon="0.52667">
        <ele>726.5</ele>
        <time>2017-07-13T05:39:58Z</time>
      </trkpt>
      <trkpt lat="42.94847" lon="0.52664">
        <ele>727</ele>
        <time>2017-07-13T05:39:59Z</time>
      </trkpt>
      <trkpt lat="42.94844" lon="0.52661">
        <ele>727.4</ele>
        <time>2017-07-13T05:40:00Z</time>
      </trkpt>
      <trkpt lat="42.94842" lon="0.52659">
        <ele>727.8</ele>
        <time>2017-07-13T05:40:01Z</time>
      </trkpt>
      <trkpt lat="42.9484" lon="0.52656">
        <ele>728</ele>
        <time>2017-07-13T05:40:02Z</time>
      </trkpt>
      <trkpt lat="42.94838" lon="0.52653">
        <ele>728.3</ele>
        <time>2017-07-13T05:40:03Z</time>
      </trkpt>
      <trkpt lat="42.94835" lon="0.5265">
        <ele>728.4</ele>
        <time>2017-07-13T05:40:04Z</time>
      </trkpt>
      <trkpt lat="42.94833" lon="0.52648">
        <ele>728.7</ele>
        <time>2017-07-13T05:40:05Z</time>
      </trkpt>
      <trkpt lat="42.9483" lon="0.52645">
        <ele>729.8</ele>
        <time>2017-07-13T05:40:06Z</time>
      </trkpt>
      <trkpt lat="42.94827" lon="0.52643">
        <ele>730.7</ele>
        <time>2017-07-13T05:40:07Z</time>
      </trkpt>
      <trkpt lat="42.94825" lon="0.5264">
        <ele>731.7</ele>
        <time>2017-07-13T05:40:08Z</time>
      </trkpt>
      <trkpt lat="42.94822" lon="0.52637">
        <ele>732.5</ele>
        <time>2017-07-13T05:40:09Z</time>
      </trkpt>
      <trkpt lat="42.94819" lon="0.52634">
        <ele>733.3</ele>
        <time>2017-07-13T05:40:10Z</time>
      </trkpt>
      <trkpt lat="42.94817" lon="0.52631">
        <ele>734</ele>
        <time>2017-07-13T05:40:11Z</time>
      </trkpt>
      <trkpt lat="42.94814" lon="0.52628">
        <ele>734.5</ele>
        <time>2017-07-13T05:40:12Z</time>
      </trkpt>
      <trkpt lat="42.94812" lon="0.52625">
        <ele>735</ele>
        <time>2017-07-13T05:40:13Z</time>
      </trkpt>
      <trkpt lat="42.94809" lon="0.52622">
        <ele>735.4</ele>
        <time>2017-07-13T05:40:14Z</time>
      </trkpt>
      <trkpt lat="42.94807" lon="0.52619">
        <ele>735.8</ele>
        <time>2017-07-13T05:40:15Z</time>
      </trkpt>
      <trkpt lat="42.94804" lon="0.52617">
        <ele>736.3</ele>
        <time>2017-07-13T05:40:16Z</time>
      </trkpt>
      <trkpt lat="42.94801" lon="0.52614">
        <ele>736.6</ele>
        <time>2017-07-13T05:40:17Z</time>
      </trkpt>
      <trkpt lat="42.94799" lon="0.52612">
        <ele>736.9</ele>
        <time>2017-07-13T05:40:18Z</time>
      </trkpt>
      <trkpt lat="42.94796" lon="0.52609">
        <ele>737.1</ele>
        <time>2017-07-13T05:40:19Z</time>
      </trkpt>
      <trkpt lat="42.94794" lon="0.52607">
        <ele>737.3</ele>
        <time>2017-07-13T05:40:20Z</time>
      </trkpt>
      <trkpt lat="42.94791" lon="0.52604">
        <ele>737.3</ele>
        <time>2017-07-13T05:40:21Z</time>
      </trkpt>
      <trkpt lat="42.94789" lon="0.52602">
        <ele>737.4</ele>
        <time>2017-07-13T05:40:22Z</time>
      </trkpt>
      <trkpt lat="42.94786" lon="0.52599">
        <ele>737.3</ele>
        <time>2017-07-13T05:40:23Z</time>
      </trkpt>
      <trkpt lat="42.94784" lon="0.52596">
        <ele>737.1</ele>
        <time>2017-07-13T05:40:24Z</time>
      </trkpt>
      <trkpt lat="42.94782" lon="0.52593">
        <ele>736.9</ele>
        <time>2017-07-13T05:40:25Z</time>
      </trkpt>
      <trkpt lat="42.94779" lon="0.5259">
        <ele>736.7</ele>
        <time>2017-07-13T05:40:26Z</time>
      </trkpt>
      <trkpt lat="42.94777" lon="0.52588">
        <ele>736.4</ele>
        <time>2017-07-13T05:40:27Z</time>
      </trkpt>
      <trkpt lat="42.94774" lon="0.52585">
        <ele>736</ele>
        <time>2017-07-13T05:40:28Z</time>
      </trkpt>
      <trkpt lat="42.94772" lon="0.52582">
        <ele>736.2</ele>
        <time>2017-07-13T05:40:29Z</time>
      </trkpt>
      <trkpt lat="42.94769" lon="0.52579">
        <ele>737</ele>
        <time>2017-07-13T05:40:30Z</time>
      </trkpt>
      <trkpt lat="42.94767" lon="0.52576">
        <ele>737.7</ele>
        <time>2017-07-13T05:40:31Z</time>
      </trkpt>
      <trkpt lat="42.94764" lon="0.52573">
        <ele>738.3</ele>
        <time>2017-07-13T05:40:32Z</time>
      </trkpt>
      <trkpt lat="42.94761" lon="0.5257">
        <ele>738.8</ele>
        <time>2017-07-13T05:40:33Z</time>
      </trkpt>
      <trkpt lat="42.94759" lon="0.52568">
        <ele>739.2</ele>
        <time>2017-07-13T05:40:34Z</time>
      </trkpt>
      <trkpt lat="42.94756" lon="0.52565">
        <ele>739.6</ele>
        <time>2017-07-13T05:40:35Z</time>
      </trkpt>
      <trkpt lat="42.94754" lon="0.52562">
        <ele>739.8</ele>
        <time>2017-07-13T05:40:36Z</time>
      </trkpt>
      <trkpt lat="42.94751" lon="0.52559">
        <ele>740</ele>
        <time>2017-07-13T05:40:37Z</time>
      </trkpt>
      <trkpt lat="42.94748" lon="0.52557">
        <ele>740.3</ele>
        <time>2017-07-13T05:40:38Z</time>
      </trkpt>
      <trkpt lat="42.94746" lon="0.52554">
        <ele>740.6</ele>
        <time>2017-07-13T05:40:39Z</time>
      </trkpt>
      <trkpt lat="42.94743" lon="0.52552">
        <ele>740.8</ele>
        <time>2017-07-13T05:40:40Z</time>
      </trkpt>
      <trkpt lat="42.94741" lon="0.52549">
        <ele>741</ele>
        <time>2017-07-13T05:40:41Z</time>
      </trkpt>
      <trkpt lat="42.94738" lon="0.52547">
        <ele>741.1</ele>
        <time>2017-07-13T05:40:42Z</time>
      </trkpt>
      <trkpt lat="42.94736" lon="0.52545">
        <ele>741.2</ele>
        <time>2017-07-13T05:40:43Z</time>
      </trkpt>
      <trkpt lat="42.94734" lon="0.52543">
        <ele>741.3</ele>
        <time>2017-07-13T05:40:44Z</time>
      </trkpt>
      <trkpt lat="42.94732" lon="0.5254">
        <ele>741.3</ele>
        <time>2017-07-13T05:40:45Z</time>
      </trkpt>
      <trkpt lat="42.94729" lon="0.52539">
        <ele>741.3</ele>
        <time>2017-07-13T05:40:46Z</time>
      </trkpt>
      <trkpt lat="42.94727" lon="0.52537">
        <ele>741.2</ele>
        <time>2017-07-13T05:40:47Z</time>
      </trkpt>
      <trkpt lat="42.94724" lon="0.52535">
        <ele>741.1</ele>
        <time>2017-07-13T05:40:48Z</time>
      </trkpt>
      <trkpt lat="42.94722" lon="0.52534">
        <ele>741</ele>
        <time>2017-07-13T05:40:49Z</time>
      </trkpt>
      <trkpt lat="42.94719" lon="0.52532">
        <ele>740.8</ele>
        <time>2017-07-13T05:40:50Z</time>
      </trkpt>
      <trkpt lat="42.94716" lon="0.52531">
        <ele>740.6</ele>
        <time>2017-07-13T05:40:51Z</time>
      </trkpt>
      <trkpt lat="42.94713" lon="0.5253">
        <ele>740.4</ele>
        <time>2017-07-13T05:40:52Z</time>
      </trkpt>
      <trkpt lat="42.94709" lon="0.52529">
        <ele>740.2</ele>
        <time>2017-07-13T05:40:53Z</time>
      </trkpt>
      <trkpt lat="42.94706" lon="0.52529">
        <ele>739.9</ele>
        <time>2017-07-13T05:40:54Z</time>
      </trkpt>
      <trkpt lat="42.94703" lon="0.52528">
        <ele>739.7</ele>
        <time>2017-07-13T05:40:55Z</time>
      </trkpt>
      <trkpt lat="42.947" lon="0.52527">
        <ele>739.4</ele>
        <time>2017-07-13T05:40:56Z</time>
      </trkpt>
      <trkpt lat="42.94697" lon="0.52527">
        <ele>739.1</ele>
        <time>2017-07-13T05:40:57Z</time>
      </trkpt>
      <trkpt lat="42.94694" lon="0.52526">
        <ele>738.9</ele>
        <time>2017-07-13T05:40:58Z</time>
      </trkpt>
      <trkpt lat="42.94692" lon="0.52525">
        <ele>738.6</ele>
        <time>2017-07-13T05:40:59Z</time>
      </trkpt>
      <trkpt lat="42.94689" lon="0.52525">
        <ele>738.3</ele>
        <time>2017-07-13T05:41:00Z</time>
      </trkpt>
      <trkpt lat="42.94686" lon="0.52524">
        <ele>737.9</ele>
        <time>2017-07-13T05:41:01Z</time>
      </trkpt>
      <trkpt lat="42.94683" lon="0.52523">
        <ele>737.6</ele>
        <time>2017-07-13T05:41:02Z</time>
      </trkpt>
      <trkpt lat="42.94679" lon="0.52523">
        <ele>737.2</ele>
        <time>2017-07-13T05:41:03Z</time>
      </trkpt>
      <trkpt lat="42.94676" lon="0.52522">
        <ele>736.8</ele>
        <time>2017-07-13T05:41:04Z</time>
      </trkpt>
      <trkpt lat="42.94672" lon="0.52521">
        <ele>736.3</ele>
        <time>2017-07-13T05:41:05Z</time>
      </trkpt>
      <trkpt lat="42.94668" lon="0.52521">
        <ele>735.8</ele>
        <time>2017-07-13T05:41:06Z</time>
      </trkpt>
      <trkpt lat="42.94664" lon="0.5252">
        <ele>735.8</ele>
        <time>2017-07-13T05:41:07Z</time>
      </trkpt>
      <trkpt lat="42.9466" lon="0.52519">
        <ele>736</ele>
        <time>2017-07-13T05:41:08Z</time>
      </trkpt>
      <trkpt lat="42.94657" lon="0.52519">
        <ele>736.2</ele>
        <time>2017-07-13T05:41:09Z</time>
      </trkpt>
      <trkpt lat="42.94653" lon="0.52518">
        <ele>736.5</ele>
        <time>2017-07-13T05:41:10Z</time>
      </trkpt>
      <trkpt lat="42.94649" lon="0.52518">
        <ele>736.7</ele>
        <time>2017-07-13T05:41:11Z</time>
      </trkpt>
      <trkpt lat="42.94645" lon="0.52517">
        <ele>736.9</ele>
        <time>2017-07-13T05:41:12Z</time>
      </trkpt>
      <trkpt lat="42.94642" lon="0.52516">
        <ele>737.1</ele>
        <time>2017-07-13T05:41:13Z</time>
      </trkpt>
      <trkpt lat="42.94638" lon="0.52516">
        <ele>737.3</ele>
        <time>2017-07-13T05:41:14Z</time>
      </trkpt>
      <trkpt lat="42.94634" lon="0.52515">
        <ele>737.4</ele>
        <time>2017-07-13T05:41:15Z</time>
      </trkpt>
      <trkpt lat="42.94631" lon="0.52513">
        <ele>737.4</ele>
        <time>2017-07-13T05:41:16Z</time>
      </trkpt>
      <trkpt lat="42.94627" lon="0.52512">
        <ele>737.5</ele>
        <time>2017-07-13T05:41:17Z</time>
      </trkpt>
      <trkpt lat="42.94624" lon="0.52511">
        <ele>737.4</ele>
        <time>2017-07-13T05:41:18Z</time>
      </trkpt>
      <trkpt lat="42.94621" lon="0.52509">
        <ele>737.3</ele>
        <time>2017-07-13T05:41:19Z</time>
      </trkpt>
      <trkpt lat="42.94617" lon="0.52506">
        <ele>737.2</ele>
        <time>2017-07-13T05:41:20Z</time>
      </trkpt>
      <trkpt lat="42.94614" lon="0.52504">
        <ele>736.9</ele>
        <time>2017-07-13T05:41:21Z</time>
      </trkpt>
      <trkpt lat="42.94611" lon="0.52501">
        <ele>736.5</ele>
        <time>2017-07-13T05:41:22Z</time>
      </trkpt>
      <trkpt lat="42.94608" lon="0.52498">
        <ele>736.6</ele>
        <time>2017-07-13T05:41:23Z</time>
      </trkpt>
      <trkpt lat="42.94606" lon="0.52494">
        <ele>736.7</ele>
        <time>2017-07-13T05:41:24Z</time>
      </trkpt>
      <trkpt lat="42.94603" lon="0.52491">
        <ele>736.8</ele>
        <time>2017-07-13T05:41:25Z</time>
      </trkpt>
      <trkpt lat="42.946" lon="0.52488">
        <ele>736.8</ele>
        <time>2017-07-13T05:41:26Z</time>
      </trkpt>
      <trkpt lat="42.94598" lon="0.52485">
        <ele>736.8</ele>
        <time>2017-07-13T05:41:27Z</time>
      </trkpt>
      <trkpt lat="42.94595" lon="0.52482">
        <ele>736.7</ele>
        <time>2017-07-13T05:41:28Z</time>
      </trkpt>
      <trkpt lat="42.94593" lon="0.52479">
        <ele>736.7</ele>
        <time>2017-07-13T05:41:29Z</time>
      </trkpt>
      <trkpt lat="42.94591" lon="0.52476">
        <ele>736.5</ele>
        <time>2017-07-13T05:41:30Z</time>
      </trkpt>
      <trkpt lat="42.94588" lon="0.52472">
        <ele>736.2</ele>
        <time>2017-07-13T05:41:31Z</time>
      </trkpt>
      <trkpt lat="42.94586" lon="0.52468">
        <ele>735.9</ele>
        <time>2017-07-13T05:41:32Z</time>
      </trkpt>
      <trkpt lat="42.94584" lon="0.52463">
        <ele>735.5</ele>
        <time>2017-07-13T05:41:33Z</time>
      </trkpt>
      <trkpt lat="42.94582" lon="0.52459">
        <ele>736.3</ele>
        <time>2017-07-13T05:41:34Z</time>
      </trkpt>
      <trkpt lat="42.94579" lon="0.52455">
        <ele>737.4</ele>
        <time>2017-07-13T05:41:35Z</time>
      </trkpt>
      <trkpt lat="42.94577" lon="0.52451">
        <ele>738.5</ele>
        <time>2017-07-13T05:41:36Z</time>
      </trkpt>
      <trkpt lat="42.94575" lon="0.52448">
        <ele>739.5</ele>
        <time>2017-07-13T05:41:37Z</time>
      </trkpt>
      <trkpt lat="42.94573" lon="0.52444">
        <ele>740.6</ele>
        <time>2017-07-13T05:41:38Z</time>
      </trkpt>
      <trkpt lat="42.94571" lon="0.5244">
        <ele>741.5</ele>
        <time>2017-07-13T05:41:39Z</time>
      </trkpt>
      <trkpt lat="42.9457" lon="0.52436">
        <ele>742.3</ele>
        <time>2017-07-13T05:41:40Z</time>
      </trkpt>
      <trkpt lat="42.94568" lon="0.52432">
        <ele>743</ele>
        <time>2017-07-13T05:41:41Z</time>
      </trkpt>
      <trkpt lat="42.94567" lon="0.52428">
        <ele>743.6</ele>
        <time>2017-07-13T05:41:42Z</time>
      </trkpt>
      <trkpt lat="42.94566" lon="0.52423">
        <ele>744.1</ele>
        <time>2017-07-13T05:41:43Z</time>
      </trkpt>
      <trkpt lat="42.94565" lon="0.52419">
        <ele>744.5</ele>
        <time>2017-07-13T05:41:44Z</time>
      </trkpt>
      <trkpt lat="42.94564" lon="0.52414">
        <ele>745</ele>
        <time>2017-07-13T05:41:45Z</time>
      </trkpt>
      <trkpt lat="42.94563" lon="0.5241">
        <ele>745.6</ele>
        <time>2017-07-13T05:41:46Z</time>
      </trkpt>
      <trkpt lat="42.94562" lon="0.52405">
        <ele>746</ele>
        <time>2017-07-13T05:41:47Z</time>
      </trkpt>
      <trkpt lat="42.94561" lon="0.52401">
        <ele>746.4</ele>
        <time>2017-07-13T05:41:48Z</time>
      </trkpt>
      <trkpt lat="42.94561" lon="0.52396">
        <ele>746.7</ele>
        <time>2017-07-13T05:41:49Z</time>
      </trkpt>
      <trkpt lat="42.9456" lon="0.52392">
        <ele>746.9</ele>
        <time>2017-07-13T05:41:50Z</time>
      </trkpt>
      <trkpt lat="42.94559" lon="0.52387">
        <ele>747.1</ele>
        <time>2017-07-13T05:41:51Z</time>
      </trkpt>
      <trkpt lat="42.94559" lon="0.52383">
        <ele>747.2</ele>
        <time>2017-07-13T05:41:52Z</time>
      </trkpt>
      <trkpt lat="42.94559" lon="0.52378">
        <ele>747.4</ele>
        <time>2017-07-13T05:41:53Z</time>
      </trkpt>
      <trkpt lat="42.94558" lon="0.52373">
        <ele>747.5</ele>
        <time>2017-07-13T05:41:54Z</time>
      </trkpt>
      <trkpt lat="42.94558" lon="0.52369">
        <ele>747.6</ele>
        <time>2017-07-13T05:41:55Z</time>
      </trkpt>
      <trkpt lat="42.94557" lon="0.52364">
        <ele>747.7</ele>
        <time>2017-07-13T05:41:56Z</time>
      </trkpt>
      <trkpt lat="42.94557" lon="0.5236">
        <ele>747.7</ele>
        <time>2017-07-13T05:41:57Z</time>
      </trkpt>
      <trkpt lat="42.94556" lon="0.52355">
        <ele>747.8</ele>
        <time>2017-07-13T05:41:58Z</time>
      </trkpt>
      <trkpt lat="42.94556" lon="0.5235">
        <ele>747.9</ele>
        <time>2017-07-13T05:41:59Z</time>
      </trkpt>
      <trkpt lat="42.94555" lon="0.52345">
        <ele>748</ele>
        <time>2017-07-13T05:42:00Z</time>
      </trkpt>
      <trkpt lat="42.94555" lon="0.52341">
        <ele>748.1</ele>
        <time>2017-07-13T05:42:01Z</time>
      </trkpt>
      <trkpt lat="42.94554" lon="0.52336">
        <ele>748.2</ele>
        <time>2017-07-13T05:42:02Z</time>
      </trkpt>
      <trkpt lat="42.94553" lon="0.52332">
        <ele>748.5</ele>
        <time>2017-07-13T05:42:03Z</time>
      </trkpt>
      <trkpt lat="42.94552" lon="0.52327">
        <ele>749</ele>
        <time>2017-07-13T05:42:04Z</time>
      </trkpt>
      <trkpt lat="42.94551" lon="0.52322">
        <ele>749.4</ele>
        <time>2017-07-13T05:42:05Z</time>
      </trkpt>
      <trkpt lat="42.9455" lon="0.52318">
        <ele>749.9</ele>
        <time>2017-07-13T05:42:06Z</time>
      </trkpt>
      <trkpt lat="42.94549" lon="0.52314">
        <ele>750.4</ele>
        <time>2017-07-13T05:42:07Z</time>
      </trkpt>
      <trkpt lat="42.94548" lon="0.52309">
        <ele>750.8</ele>
        <time>2017-07-13T05:42:08Z</time>
      </trkpt>
      <trkpt lat="42.94547" lon="0.52305">
        <ele>751.2</ele>
        <time>2017-07-13T05:42:09Z</time>
      </trkpt>
      <trkpt lat="42.94545" lon="0.52301">
        <ele>751.7</ele>
        <time>2017-07-13T05:42:10Z</time>
      </trkpt>
      <trkpt lat="42.94544" lon="0.52297">
        <ele>752</ele>
        <time>2017-07-13T05:42:11Z</time>
      </trkpt>
      <trkpt lat="42.94542" lon="0.52294">
        <ele>752.4</ele>
        <time>2017-07-13T05:42:12Z</time>
      </trkpt>
      <trkpt lat="42.9454" lon="0.5229">
        <ele>752.8</ele>
        <time>2017-07-13T05:42:13Z</time>
      </trkpt>
      <trkpt lat="42.94538" lon="0.52286">
        <ele>753.1</ele>
        <time>2017-07-13T05:42:14Z</time>
      </trkpt>
      <trkpt lat="42.94536" lon="0.52283">
        <ele>753.4</ele>
        <time>2017-07-13T05:42:15Z</time>
      </trkpt>
      <trkpt lat="42.94534" lon="0.5228">
        <ele>753.7</ele>
        <time>2017-07-13T05:42:16Z</time>
      </trkpt>
      <trkpt lat="42.94532" lon="0.52277">
        <ele>754</ele>
        <time>2017-07-13T05:42:17Z</time>
      </trkpt>
      <trkpt lat="42.9453" lon="0.52274">
        <ele>754.2</ele>
        <time>2017-07-13T05:42:18Z</time>
      </trkpt>
      <trkpt lat="42.94527" lon="0.52272">
        <ele>754.3</ele>
        <time>2017-07-13T05:42:19Z</time>
      </trkpt>
      <trkpt lat="42.94525" lon="0.52269">
        <ele>754.5</ele>
        <time>2017-07-13T05:42:20Z</time>
      </trkpt>
      <trkpt lat="42.94522" lon="0.52267">
        <ele>754.6</ele>
        <time>2017-07-13T05:42:21Z</time>
      </trkpt>
      <trkpt lat="42.9452" lon="0.52264">
        <ele>754.6</ele>
        <time>2017-07-13T05:42:22Z</time>
      </trkpt>
      <trkpt lat="42.94517" lon="0.52262">
        <ele>754.6</ele>
        <time>2017-07-13T05:42:23Z</time>
      </trkpt>
      <trkpt lat="42.94515" lon="0.52259">
        <ele>754.4</ele>
        <time>2017-07-13T05:42:24Z</time>
      </trkpt>
      <trkpt lat="42.94512" lon="0.52256">
        <ele>754.2</ele>
        <time>2017-07-13T05:42:25Z</time>
      </trkpt>
      <trkpt lat="42.9451" lon="0.52253">
        <ele>753.9</ele>
        <time>2017-07-13T05:42:26Z</time>
      </trkpt>
      <trkpt lat="42.94508" lon="0.5225">
        <ele>753.5</ele>
        <time>2017-07-13T05:42:27Z</time>
      </trkpt>
      <trkpt lat="42.94506" lon="0.52246">
        <ele>753.3</ele>
        <time>2017-07-13T05:42:28Z</time>
      </trkpt>
      <trkpt lat="42.94504" lon="0.52242">
        <ele>753</ele>
        <time>2017-07-13T05:42:29Z</time>
      </trkpt>
      <trkpt lat="42.94502" lon="0.52238">
        <ele>752.7</ele>
        <time>2017-07-13T05:42:30Z</time>
      </trkpt>
      <trkpt lat="42.945" lon="0.52234">
        <ele>752.6</ele>
        <time>2017-07-13T05:42:31Z</time>
      </trkpt>
      <trkpt lat="42.94497" lon="0.5223">
        <ele>753.7</ele>
        <time>2017-07-13T05:42:32Z</time>
      </trkpt>
      <trkpt lat="42.94495" lon="0.52226">
        <ele>754.7</ele>
        <time>2017-07-13T05:42:33Z</time>
      </trkpt>
      <trkpt lat="42.94493" lon="0.52222">
        <ele>755.7</ele>
        <time>2017-07-13T05:42:34Z</time>
      </trkpt>
      <trkpt lat="42.94491" lon="0.52218">
        <ele>756.5</ele>
        <time>2017-07-13T05:42:35Z</time>
      </trkpt>
      <trkpt lat="42.9449" lon="0.52215">
        <ele>757.1</ele>
        <time>2017-07-13T05:42:36Z</time>
      </trkpt>
      <trkpt lat="42.94488" lon="0.52211">
        <ele>757.6</ele>
        <time>2017-07-13T05:42:37Z</time>
      </trkpt>
      <trkpt lat="42.94487" lon="0.52208">
        <ele>757.9</ele>
        <time>2017-07-13T05:42:38Z</time>
      </trkpt>
      <trkpt lat="42.94486" lon="0.52205">
        <ele>758</ele>
        <time>2017-07-13T05:42:39Z</time>
      </trkpt>
      <trkpt lat="42.94486" lon="0.52202">
        <ele>758</ele>
        <time>2017-07-13T05:42:40Z</time>
      </trkpt>
      <trkpt lat="42.94485" lon="0.52199">
        <ele>758</ele>
        <time>2017-07-13T05:42:41Z</time>
      </trkpt>
      <trkpt lat="42.94484" lon="0.52195">
        <ele>758</ele>
        <time>2017-07-13T05:42:42Z</time>
      </trkpt>
      <trkpt lat="42.94483" lon="0.52191">
        <ele>757.8</ele>
        <time>2017-07-13T05:42:43Z</time>
      </trkpt>
      <trkpt lat="42.94483" lon="0.52187">
        <ele>757.7</ele>
        <time>2017-07-13T05:42:44Z</time>
      </trkpt>
      <trkpt lat="42.94482" lon="0.52183">
        <ele>757.5</ele>
        <time>2017-07-13T05:42:45Z</time>
      </trkpt>
      <trkpt lat="42.94481" lon="0.52179">
        <ele>757.4</ele>
        <time>2017-07-13T05:42:46Z</time>
      </trkpt>
      <trkpt lat="42.9448" lon="0.52174">
        <ele>757.2</ele>
        <time>2017-07-13T05:42:47Z</time>
      </trkpt>
      <trkpt lat="42.94479" lon="0.5217">
        <ele>756.9</ele>
        <time>2017-07-13T05:42:48Z</time>
      </trkpt>
      <trkpt lat="42.94478" lon="0.52165">
        <ele>756.9</ele>
        <time>2017-07-13T05:42:49Z</time>
      </trkpt>
      <trkpt lat="42.94477" lon="0.5216">
        <ele>757.2</ele>
        <time>2017-07-13T05:42:50Z</time>
      </trkpt>
      <trkpt lat="42.94476" lon="0.52155">
        <ele>757.4</ele>
        <time>2017-07-13T05:42:51Z</time>
      </trkpt>
      <trkpt lat="42.94475" lon="0.5215">
        <ele>757.6</ele>
        <time>2017-07-13T05:42:52Z</time>
      </trkpt>
      <trkpt lat="42.94474" lon="0.52146">
        <ele>757.8</ele>
        <time>2017-07-13T05:42:53Z</time>
      </trkpt>
      <trkpt lat="42.94473" lon="0.52141">
        <ele>757.9</ele>
        <time>2017-07-13T05:42:54Z</time>
      </trkpt>
      <trkpt lat="42.94472" lon="0.52136">
        <ele>758</ele>
        <time>2017-07-13T05:42:55Z</time>
      </trkpt>
      <trkpt lat="42.9447" lon="0.52132">
        <ele>758.1</ele>
        <time>2017-07-13T05:42:56Z</time>
      </trkpt>
      <trkpt lat="42.94469" lon="0.52127">
        <ele>758.1</ele>
        <time>2017-07-13T05:42:57Z</time>
      </trkpt>
      <trkpt lat="42.94468" lon="0.52123">
        <ele>758.1</ele>
        <time>2017-07-13T05:42:58Z</time>
      </trkpt>
      <trkpt lat="42.94466" lon="0.52118">
        <ele>758.1</ele>
        <time>2017-07-13T05:42:59Z</time>
      </trkpt>
      <trkpt lat="42.94464" lon="0.52114">
        <ele>758.1</ele>
        <time>2017-07-13T05:43:00Z</time>
      </trkpt>
      <trkpt lat="42.94463" lon="0.5211">
        <ele>758</ele>
        <time>2017-07-13T05:43:01Z</time>
      </trkpt>
      <trkpt lat="42.94461" lon="0.52106">
        <ele>757.9</ele>
        <time>2017-07-13T05:43:02Z</time>
      </trkpt>
      <trkpt lat="42.94459" lon="0.52102">
        <ele>757.8</ele>
        <time>2017-07-13T05:43:03Z</time>
      </trkpt>
      <trkpt lat="42.94457" lon="0.52098">
        <ele>757.7</ele>
        <time>2017-07-13T05:43:04Z</time>
      </trkpt>
      <trkpt lat="42.94454" lon="0.52095">
        <ele>757.5</ele>
        <time>2017-07-13T05:43:05Z</time>
      </trkpt>
      <trkpt lat="42.94452" lon="0.52091">
        <ele>757.2</ele>
        <time>2017-07-13T05:43:06Z</time>
      </trkpt>
      <trkpt lat="42.94449" lon="0.52088">
        <ele>757</ele>
        <time>2017-07-13T05:43:07Z</time>
      </trkpt>
      <trkpt lat="42.94447" lon="0.52085">
        <ele>756.7</ele>
        <time>2017-07-13T05:43:08Z</time>
      </trkpt>
      <trkpt lat="42.94444" lon="0.52082">
        <ele>756.9</ele>
        <time>2017-07-13T05:43:09Z</time>
      </trkpt>
      <trkpt lat="42.94442" lon="0.52079">
        <ele>757.5</ele>
        <time>2017-07-13T05:43:10Z</time>
      </trkpt>
      <trkpt lat="42.94439" lon="0.52076">
        <ele>758</ele>
        <time>2017-07-13T05:43:11Z</time>
      </trkpt>
      <trkpt lat="42.94436" lon="0.52074">
        <ele>758.4</ele>
        <time>2017-07-13T05:43:12Z</time>
      </trkpt>
      <trkpt lat="42.94433" lon="0.52071">
        <ele>758.7</ele>
        <time>2017-07-13T05:43:13Z</time>
      </trkpt>
      <trkpt lat="42.9443" lon="0.52069">
        <ele>759</ele>
        <time>2017-07-13T05:43:14Z</time>
      </trkpt>
      <trkpt lat="42.94427" lon="0.52067">
        <ele>759.2</ele>
        <time>2017-07-13T05:43:15Z</time>
      </trkpt>
      <trkpt lat="42.94424" lon="0.52065">
        <ele>759.3</ele>
        <time>2017-07-13T05:43:16Z</time>
      </trkpt>
      <trkpt lat="42.94421" lon="0.52063">
        <ele>759.4</ele>
        <time>2017-07-13T05:43:17Z</time>
      </trkpt>
      <trkpt lat="42.94418" lon="0.52061">
        <ele>759.5</ele>
        <time>2017-07-13T05:43:18Z</time>
      </trkpt>
      <trkpt lat="42.94414" lon="0.52059">
        <ele>760</ele>
        <time>2017-07-13T05:43:19Z</time>
      </trkpt>
      <trkpt lat="42.94411" lon="0.52058">
        <ele>760.8</ele>
        <time>2017-07-13T05:43:20Z</time>
      </trkpt>
      <trkpt lat="42.94408" lon="0.52056">
        <ele>761.6</ele>
        <time>2017-07-13T05:43:21Z</time>
      </trkpt>
      <trkpt lat="42.94405" lon="0.52054">
        <ele>762.3</ele>
        <time>2017-07-13T05:43:22Z</time>
      </trkpt>
      <trkpt lat="42.94402" lon="0.52053">
        <ele>763</ele>
        <time>2017-07-13T05:43:23Z</time>
      </trkpt>
      <trkpt lat="42.94398" lon="0.52051">
        <ele>763.6</ele>
        <time>2017-07-13T05:43:24Z</time>
      </trkpt>
      <trkpt lat="42.94395" lon="0.52049">
        <ele>764.1</ele>
        <time>2017-07-13T05:43:25Z</time>
      </trkpt>
      <trkpt lat="42.94392" lon="0.52047">
        <ele>764.6</ele>
        <time>2017-07-13T05:43:26Z</time>
      </trkpt>
      <trkpt lat="42.94389" lon="0.52045">
        <ele>765.1</ele>
        <time>2017-07-13T05:43:27Z</time>
      </trkpt>
      <trkpt lat="42.94385" lon="0.52043">
        <ele>765.4</ele>
        <time>2017-07-13T05:43:28Z</time>
      </trkpt>
      <trkpt lat="42.94382" lon="0.52041">
        <ele>765.7</ele>
        <time>2017-07-13T05:43:29Z</time>
      </trkpt>
      <trkpt lat="42.94379" lon="0.52039">
        <ele>765.9</ele>
        <time>2017-07-13T05:43:30Z</time>
      </trkpt>
      <trkpt lat="42.94376" lon="0.52037">
        <ele>766.1</ele>
        <time>2017-07-13T05:43:31Z</time>
      </trkpt>
      <trkpt lat="42.94372" lon="0.52034">
        <ele>766.2</ele>
        <time>2017-07-13T05:43:32Z</time>
      </trkpt>
      <trkpt lat="42.94369" lon="0.52032">
        <ele>766.3</ele>
        <time>2017-07-13T05:43:33Z</time>
      </trkpt>
      <trkpt lat="42.94366" lon="0.5203">
        <ele>766.4</ele>
        <time>2017-07-13T05:43:34Z</time>
      </trkpt>
      <trkpt lat="42.94362" lon="0.52029">
        <ele>766.5</ele>
        <time>2017-07-13T05:43:35Z</time>
      </trkpt>
      <trkpt lat="42.94359" lon="0.52027">
        <ele>766.6</ele>
        <time>2017-07-13T05:43:36Z</time>
      </trkpt>
      <trkpt lat="42.94355" lon="0.52026">
        <ele>766.7</ele>
        <time>2017-07-13T05:43:37Z</time>
      </trkpt>
      <trkpt lat="42.94352" lon="0.52025">
        <ele>766.8</ele>
        <time>2017-07-13T05:43:38Z</time>
      </trkpt>
      <trkpt lat="42.94348" lon="0.52023">
        <ele>766.9</ele>
        <time>2017-07-13T05:43:39Z</time>
      </trkpt>
      <trkpt lat="42.94344" lon="0.52022">
        <ele>766.9</ele>
        <time>2017-07-13T05:43:40Z</time>
      </trkpt>
      <trkpt lat="42.94341" lon="0.52021">
        <ele>766.9</ele>
        <time>2017-07-13T05:43:41Z</time>
      </trkpt>
      <trkpt lat="42.94337" lon="0.5202">
        <ele>766.9</ele>
        <time>2017-07-13T05:43:42Z</time>
      </trkpt>
      <trkpt lat="42.94333" lon="0.52019">
        <ele>766.9</ele>
        <time>2017-07-13T05:43:43Z</time>
      </trkpt>
      <trkpt lat="42.9433" lon="0.52018">
        <ele>767.2</ele>
        <time>2017-07-13T05:43:44Z</time>
      </trkpt>
      <trkpt lat="42.94326" lon="0.52017">
        <ele>767.5</ele>
        <time>2017-07-13T05:43:45Z</time>
      </trkpt>
      <trkpt lat="42.94323" lon="0.52016">
        <ele>767.7</ele>
        <time>2017-07-13T05:43:46Z</time>
      </trkpt>
      <trkpt lat="42.9432" lon="0.52015">
        <ele>768</ele>
        <time>2017-07-13T05:43:47Z</time>
      </trkpt>
      <trkpt lat="42.94316" lon="0.52014">
        <ele>768.3</ele>
        <time>2017-07-13T05:43:48Z</time>
      </trkpt>
      <trkpt lat="42.94313" lon="0.52013">
        <ele>768.4</ele>
        <time>2017-07-13T05:43:49Z</time>
      </trkpt>
      <trkpt lat="42.9431" lon="0.52012">
        <ele>768.6</ele>
        <time>2017-07-13T05:43:50Z</time>
      </trkpt>
      <trkpt lat="42.94307" lon="0.52011">
        <ele>768.7</ele>
        <time>2017-07-13T05:43:51Z</time>
      </trkpt>
      <trkpt lat="42.94303" lon="0.52009">
        <ele>768.7</ele>
        <time>2017-07-13T05:43:52Z</time>
      </trkpt>
      <trkpt lat="42.943" lon="0.52008">
        <ele>768.8</ele>
        <time>2017-07-13T05:43:53Z</time>
      </trkpt>
      <trkpt lat="42.94296" lon="0.52006">
        <ele>768.7</ele>
        <time>2017-07-13T05:43:54Z</time>
      </trkpt>
      <trkpt lat="42.94293" lon="0.52005">
        <ele>768.7</ele>
        <time>2017-07-13T05:43:55Z</time>
      </trkpt>
      <trkpt lat="42.94289" lon="0.52003">
        <ele>768.7</ele>
        <time>2017-07-13T05:43:56Z</time>
      </trkpt>
      <trkpt lat="42.94285" lon="0.52002">
        <ele>768.7</ele>
        <time>2017-07-13T05:43:57Z</time>
      </trkpt>
      <trkpt lat="42.94282" lon="0.52">
        <ele>768.7</ele>
        <time>2017-07-13T05:43:58Z</time>
      </trkpt>
      <trkpt lat="42.94279" lon="0.51999">
        <ele>769.4</ele>
        <time>2017-07-13T05:43:59Z</time>
      </trkpt>
      <trkpt lat="42.94275" lon="0.51998">
        <ele>770.1</ele>
        <time>2017-07-13T05:44:00Z</time>
      </trkpt>
      <trkpt lat="42.94272" lon="0.51997">
        <ele>770.7</ele>
        <time>2017-07-13T05:44:01Z</time>
      </trkpt>
      <trkpt lat="42.94269" lon="0.51997">
        <ele>771.3</ele>
        <time>2017-07-13T05:44:02Z</time>
      </trkpt>
      <trkpt lat="42.94267" lon="0.51996">
        <ele>771.8</ele>
        <time>2017-07-13T05:44:03Z</time>
      </trkpt>
      <trkpt lat="42.94264" lon="0.51996">
        <ele>772.3</ele>
        <time>2017-07-13T05:44:04Z</time>
      </trkpt>
      <trkpt lat="42.94261" lon="0.51996">
        <ele>772.7</ele>
        <time>2017-07-13T05:44:05Z</time>
      </trkpt>
      <trkpt lat="42.94258" lon="0.51995">
        <ele>773.2</ele>
        <time>2017-07-13T05:44:06Z</time>
      </trkpt>
      <trkpt lat="42.94255" lon="0.51995">
        <ele>773.7</ele>
        <time>2017-07-13T05:44:07Z</time>
      </trkpt>
      <trkpt lat="42.94251" lon="0.51994">
        <ele>774.3</ele>
        <time>2017-07-13T05:44:08Z</time>
      </trkpt>
      <trkpt lat="42.94248" lon="0.51993">
        <ele>775.2</ele>
        <time>2017-07-13T05:44:09Z</time>
      </trkpt>
      <trkpt lat="42.94244" lon="0.51991">
        <ele>776.4</ele>
        <time>2017-07-13T05:44:10Z</time>
      </trkpt>
      <trkpt lat="42.9424" lon="0.51989">
        <ele>777.6</ele>
        <time>2017-07-13T05:44:11Z</time>
      </trkpt>
      <trkpt lat="42.94236" lon="0.51988">
        <ele>778.8</ele>
        <time>2017-07-13T05:44:12Z</time>
      </trkpt>
      <trkpt lat="42.94232" lon="0.51986">
        <ele>779.9</ele>
        <time>2017-07-13T05:44:13Z</time>
      </trkpt>
      <trkpt lat="42.94228" lon="0.51985">
        <ele>781</ele>
        <time>2017-07-13T05:44:14Z</time>
      </trkpt>
      <trkpt lat="42.94224" lon="0.51985">
        <ele>782.1</ele>
        <time>2017-07-13T05:44:15Z</time>
      </trkpt>
      <trkpt lat="42.9422" lon="0.51984">
        <ele>783.1</ele>
        <time>2017-07-13T05:44:16Z</time>
      </trkpt>
      <trkpt lat="42.94216" lon="0.51983">
        <ele>784.1</ele>
        <time>2017-07-13T05:44:17Z</time>
      </trkpt>
      <trkpt lat="42.94212" lon="0.51982">
        <ele>784.9</ele>
        <time>2017-07-13T05:44:18Z</time>
      </trkpt>
      <trkpt lat="42.94209" lon="0.51981">
        <ele>785.6</ele>
        <time>2017-07-13T05:44:19Z</time>
      </trkpt>
      <trkpt lat="42.94206" lon="0.51979">
        <ele>786.2</ele>
        <time>2017-07-13T05:44:20Z</time>
      </trkpt>
      <trkpt lat="42.94203" lon="0.51976">
        <ele>786.7</ele>
        <time>2017-07-13T05:44:21Z</time>
      </trkpt>
      <trkpt lat="42.942" lon="0.51974">
        <ele>787</ele>
        <time>2017-07-13T05:44:22Z</time>
      </trkpt>
      <trkpt lat="42.94197" lon="0.5197">
        <ele>787.1</ele>
        <time>2017-07-13T05:44:23Z</time>
      </trkpt>
      <trkpt lat="42.94195" lon="0.51966">
        <ele>787</ele>
        <time>2017-07-13T05:44:24Z</time>
      </trkpt>
      <trkpt lat="42.94192" lon="0.5196">
        <ele>786.7</ele>
        <time>2017-07-13T05:44:25Z</time>
      </trkpt>
      <trkpt lat="42.94189" lon="0.51954">
        <ele>786.2</ele>
        <time>2017-07-13T05:44:26Z</time>
      </trkpt>
      <trkpt lat="42.94186" lon="0.51948">
        <ele>785.4</ele>
        <time>2017-07-13T05:44:27Z</time>
      </trkpt>
      <trkpt lat="42.94183" lon="0.51941">
        <ele>784.5</ele>
        <time>2017-07-13T05:44:28Z</time>
      </trkpt>
      <trkpt lat="42.94181" lon="0.51934">
        <ele>783.5</ele>
        <time>2017-07-13T05:44:29Z</time>
      </trkpt>
      <trkpt lat="42.94179" lon="0.51928">
        <ele>782.4</ele>
        <time>2017-07-13T05:44:30Z</time>
      </trkpt>
      <trkpt lat="42.94176" lon="0.51922">
        <ele>781.2</ele>
        <time>2017-07-13T05:44:31Z</time>
      </trkpt>
      <trkpt lat="42.94174" lon="0.51916">
        <ele>780</ele>
        <time>2017-07-13T05:44:32Z</time>
      </trkpt>
      <trkpt lat="42.94172" lon="0.5191">
        <ele>779.5</ele>
        <time>2017-07-13T05:44:33Z</time>
      </trkpt>
      <trkpt lat="42.94171" lon="0.51904">
        <ele>778.9</ele>
        <time>2017-07-13T05:44:34Z</time>
      </trkpt>
      <trkpt lat="42.94169" lon="0.51898">
        <ele>778.2</ele>
        <time>2017-07-13T05:44:35Z</time>
      </trkpt>
      <trkpt lat="42.94166" lon="0.51892">
        <ele>777.4</ele>
        <time>2017-07-13T05:44:36Z</time>
      </trkpt>
      <trkpt lat="42.94164" lon="0.51886">
        <ele>777.3</ele>
        <time>2017-07-13T05:44:37Z</time>
      </trkpt>
      <trkpt lat="42.94162" lon="0.5188">
        <ele>777.1</ele>
        <time>2017-07-13T05:44:38Z</time>
      </trkpt>
      <trkpt lat="42.94159" lon="0.51874">
        <ele>776.9</ele>
        <time>2017-07-13T05:44:39Z</time>
      </trkpt>
      <trkpt lat="42.94156" lon="0.51869">
        <ele>776.7</ele>
        <time>2017-07-13T05:44:40Z</time>
      </trkpt>
      <trkpt lat="42.94154" lon="0.51863">
        <ele>776.4</ele>
        <time>2017-07-13T05:44:41Z</time>
      </trkpt>
      <trkpt lat="42.94151" lon="0.51858">
        <ele>776.2</ele>
        <time>2017-07-13T05:44:42Z</time>
      </trkpt>
      <trkpt lat="42.94148" lon="0.51853">
        <ele>776</ele>
        <time>2017-07-13T05:44:43Z</time>
      </trkpt>
      <trkpt lat="42.94144" lon="0.51849">
        <ele>775.8</ele>
        <time>2017-07-13T05:44:44Z</time>
      </trkpt>
      <trkpt lat="42.9414" lon="0.51844">
        <ele>775.7</ele>
        <time>2017-07-13T05:44:45Z</time>
      </trkpt>
      <trkpt lat="42.94136" lon="0.5184">
        <ele>775.5</ele>
        <time>2017-07-13T05:44:46Z</time>
      </trkpt>
      <trkpt lat="42.94132" lon="0.51837">
        <ele>775.4</ele>
        <time>2017-07-13T05:44:47Z</time>
      </trkpt>
      <trkpt lat="42.94127" lon="0.51833">
        <ele>775.3</ele>
        <time>2017-07-13T05:44:48Z</time>
      </trkpt>
      <trkpt lat="42.94123" lon="0.5183">
        <ele>776.6</ele>
        <time>2017-07-13T05:44:49Z</time>
      </trkpt>
      <trkpt lat="42.94118" lon="0.51827">
        <ele>777.7</ele>
        <time>2017-07-13T05:44:50Z</time>
      </trkpt>
      <trkpt lat="42.94113" lon="0.51824">
        <ele>778.7</ele>
        <time>2017-07-13T05:44:51Z</time>
      </trkpt>
      <trkpt lat="42.94108" lon="0.51822">
        <ele>779.7</ele>
        <time>2017-07-13T05:44:52Z</time>
      </trkpt>
      <trkpt lat="42.94103" lon="0.51819">
        <ele>780.5</ele>
        <time>2017-07-13T05:44:53Z</time>
      </trkpt>
      <trkpt lat="42.94098" lon="0.51817">
        <ele>781.3</ele>
        <time>2017-07-13T05:44:54Z</time>
      </trkpt>
      <trkpt lat="42.94094" lon="0.51814">
        <ele>781.9</ele>
        <time>2017-07-13T05:44:55Z</time>
      </trkpt>
      <trkpt lat="42.9409" lon="0.51812">
        <ele>782.5</ele>
        <time>2017-07-13T05:44:56Z</time>
      </trkpt>
      <trkpt lat="42.94085" lon="0.5181">
        <ele>783</ele>
        <time>2017-07-13T05:44:57Z</time>
      </trkpt>
      <trkpt lat="42.94081" lon="0.51808">
        <ele>783.5</ele>
        <time>2017-07-13T05:44:58Z</time>
      </trkpt>
      <trkpt lat="42.94078" lon="0.51805">
        <ele>784</ele>
        <time>2017-07-13T05:44:59Z</time>
      </trkpt>
      <trkpt lat="42.94074" lon="0.51803">
        <ele>784.5</ele>
        <time>2017-07-13T05:45:00Z</time>
      </trkpt>
      <trkpt lat="42.9407" lon="0.51802">
        <ele>785</ele>
        <time>2017-07-13T05:45:01Z</time>
      </trkpt>
      <trkpt lat="42.94066" lon="0.518">
        <ele>785.5</ele>
        <time>2017-07-13T05:45:02Z</time>
      </trkpt>
      <trkpt lat="42.94062" lon="0.51799">
        <ele>785.9</ele>
        <time>2017-07-13T05:45:03Z</time>
      </trkpt>
      <trkpt lat="42.94057" lon="0.51797">
        <ele>786.3</ele>
        <time>2017-07-13T05:45:04Z</time>
      </trkpt>
      <trkpt lat="42.94053" lon="0.51796">
        <ele>786.7</ele>
        <time>2017-07-13T05:45:05Z</time>
      </trkpt>
      <trkpt lat="42.94049" lon="0.51795">
        <ele>787.1</ele>
        <time>2017-07-13T05:45:06Z</time>
      </trkpt>
      <trkpt lat="42.94045" lon="0.51794">
        <ele>787.4</ele>
        <time>2017-07-13T05:45:07Z</time>
      </trkpt>
      <trkpt lat="42.94042" lon="0.51794">
        <ele>787.7</ele>
        <time>2017-07-13T05:45:08Z</time>
      </trkpt>
      <trkpt lat="42.94038" lon="0.51793">
        <ele>788.1</ele>
        <time>2017-07-13T05:45:09Z</time>
      </trkpt>
      <trkpt lat="42.94035" lon="0.51792">
        <ele>788.4</ele>
        <time>2017-07-13T05:45:10Z</time>
      </trkpt>
      <trkpt lat="42.94031" lon="0.51791">
        <ele>788.8</ele>
        <time>2017-07-13T05:45:11Z</time>
      </trkpt>
      <trkpt lat="42.94028" lon="0.51789">
        <ele>789.1</ele>
        <time>2017-07-13T05:45:12Z</time>
      </trkpt>
      <trkpt lat="42.94024" lon="0.51788">
        <ele>789.5</ele>
        <time>2017-07-13T05:45:13Z</time>
      </trkpt>
      <trkpt lat="42.94021" lon="0.51788">
        <ele>789.8</ele>
        <time>2017-07-13T05:45:14Z</time>
      </trkpt>
      <trkpt lat="42.94017" lon="0.51787">
        <ele>790.1</ele>
        <time>2017-07-13T05:45:15Z</time>
      </trkpt>
      <trkpt lat="42.94013" lon="0.51787">
        <ele>790.4</ele>
        <time>2017-07-13T05:45:16Z</time>
      </trkpt>
      <trkpt lat="42.94009" lon="0.51787">
        <ele>790.6</ele>
        <time>2017-07-13T05:45:17Z</time>
      </trkpt>
      <trkpt lat="42.94005" lon="0.51787">
        <ele>790.8</ele>
        <time>2017-07-13T05:45:18Z</time>
      </trkpt>
      <trkpt lat="42.94001" lon="0.51788">
        <ele>791</ele>
        <time>2017-07-13T05:45:19Z</time>
      </trkpt>
      <trkpt lat="42.93996" lon="0.51788">
        <ele>790.9</ele>
        <time>2017-07-13T05:45:20Z</time>
      </trkpt>
      <trkpt lat="42.93992" lon="0.51788">
        <ele>790.8</ele>
        <time>2017-07-13T05:45:21Z</time>
      </trkpt>
      <trkpt lat="42.93989" lon="0.51788">
        <ele>790.7</ele>
        <time>2017-07-13T05:45:22Z</time>
      </trkpt>
      <trkpt lat="42.93985" lon="0.51788">
        <ele>790.6</ele>
        <time>2017-07-13T05:45:23Z</time>
      </trkpt>
      <trkpt lat="42.93981" lon="0.51788">
        <ele>790.5</ele>
        <time>2017-07-13T05:45:24Z</time>
      </trkpt>
      <trkpt lat="42.93977" lon="0.51787">
        <ele>790.4</ele>
        <time>2017-07-13T05:45:25Z</time>
      </trkpt>
      <trkpt lat="42.93973" lon="0.51786">
        <ele>790.3</ele>
        <time>2017-07-13T05:45:26Z</time>
      </trkpt>
      <trkpt lat="42.93969" lon="0.51786">
        <ele>790.2</ele>
        <time>2017-07-13T05:45:27Z</time>
      </trkpt>
      <trkpt lat="42.93965" lon="0.51785">
        <ele>790.1</ele>
        <time>2017-07-13T05:45:28Z</time>
      </trkpt>
      <trkpt lat="42.9396" lon="0.51784">
        <ele>789.9</ele>
        <time>2017-07-13T05:45:29Z</time>
      </trkpt>
      <trkpt lat="42.93956" lon="0.51784">
        <ele>789.7</ele>
        <time>2017-07-13T05:45:30Z</time>
      </trkpt>
      <trkpt lat="42.93951" lon="0.51783">
        <ele>789.5</ele>
        <time>2017-07-13T05:45:31Z</time>
      </trkpt>
      <trkpt lat="42.93947" lon="0.51783">
        <ele>789.3</ele>
        <time>2017-07-13T05:45:32Z</time>
      </trkpt>
      <trkpt lat="42.93942" lon="0.51782">
        <ele>789</ele>
        <time>2017-07-13T05:45:33Z</time>
      </trkpt>
      <trkpt lat="42.93938" lon="0.51782">
        <ele>788.8</ele>
        <time>2017-07-13T05:45:34Z</time>
      </trkpt>
      <trkpt lat="42.93933" lon="0.51782">
        <ele>788.5</ele>
        <time>2017-07-13T05:45:35Z</time>
      </trkpt>
      <trkpt lat="42.93929" lon="0.51781">
        <ele>788.3</ele>
        <time>2017-07-13T05:45:36Z</time>
      </trkpt>
      <trkpt lat="42.93925" lon="0.51781">
        <ele>788</ele>
        <time>2017-07-13T05:45:37Z</time>
      </trkpt>
      <trkpt lat="42.93921" lon="0.51781">
        <ele>787.8</ele>
        <time>2017-07-13T05:45:38Z</time>
      </trkpt>
      <trkpt lat="42.93917" lon="0.51781">
        <ele>787.6</ele>
        <time>2017-07-13T05:45:39Z</time>
      </trkpt>
      <trkpt lat="42.93914" lon="0.51781">
        <ele>787.7</ele>
        <time>2017-07-13T05:45:40Z</time>
      </trkpt>
      <trkpt lat="42.9391" lon="0.51781">
        <ele>787.8</ele>
        <time>2017-07-13T05:45:41Z</time>
      </trkpt>
      <trkpt lat="42.93906" lon="0.51781">
        <ele>788</ele>
        <time>2017-07-13T05:45:42Z</time>
      </trkpt>
      <trkpt lat="42.93903" lon="0.5178">
        <ele>788.1</ele>
        <time>2017-07-13T05:45:43Z</time>
      </trkpt>
      <trkpt lat="42.939" lon="0.5178">
        <ele>788.2</ele>
        <time>2017-07-13T05:45:44Z</time>
      </trkpt>
      <trkpt lat="42.93896" lon="0.5178">
        <ele>788.3</ele>
        <time>2017-07-13T05:45:45Z</time>
      </trkpt>
      <trkpt lat="42.93893" lon="0.5178">
        <ele>788.4</ele>
        <time>2017-07-13T05:45:46Z</time>
      </trkpt>
      <trkpt lat="42.93889" lon="0.51779">
        <ele>788.5</ele>
        <time>2017-07-13T05:45:47Z</time>
      </trkpt>
      <trkpt lat="42.93886" lon="0.51779">
        <ele>788.5</ele>
        <time>2017-07-13T05:45:48Z</time>
      </trkpt>
      <trkpt lat="42.93882" lon="0.51778">
        <ele>788.5</ele>
        <time>2017-07-13T05:45:49Z</time>
      </trkpt>
      <trkpt lat="42.93879" lon="0.51777">
        <ele>788.5</ele>
        <time>2017-07-13T05:45:50Z</time>
      </trkpt>
      <trkpt lat="42.93876" lon="0.51776">
        <ele>788.4</ele>
        <time>2017-07-13T05:45:51Z</time>
      </trkpt>
      <trkpt lat="42.93873" lon="0.51775">
        <ele>788.3</ele>
        <time>2017-07-13T05:45:52Z</time>
      </trkpt>
      <trkpt lat="42.9387" lon="0.51774">
        <ele>788.1</ele>
        <time>2017-07-13T05:45:53Z</time>
      </trkpt>
      <trkpt lat="42.93867" lon="0.51772">
        <ele>787.8</ele>
        <time>2017-07-13T05:45:54Z</time>
      </trkpt>
      <trkpt lat="42.93864" lon="0.5177">
        <ele>787.5</ele>
        <time>2017-07-13T05:45:55Z</time>
      </trkpt>
      <trkpt lat="42.93861" lon="0.51769">
        <ele>787.2</ele>
        <time>2017-07-13T05:45:56Z</time>
      </trkpt>
      <trkpt lat="42.93858" lon="0.51767">
        <ele>786.9</ele>
        <time>2017-07-13T05:45:57Z</time>
      </trkpt>
      <trkpt lat="42.93855" lon="0.51766">
        <ele>786.7</ele>
        <time>2017-07-13T05:45:58Z</time>
      </trkpt>
      <trkpt lat="42.93852" lon="0.51765">
        <ele>786.5</ele>
        <time>2017-07-13T05:45:59Z</time>
      </trkpt>
      <trkpt lat="42.93848" lon="0.51764">
        <ele>786.4</ele>
        <time>2017-07-13T05:46:00Z</time>
      </trkpt>
      <trkpt lat="42.93844" lon="0.51763">
        <ele>786.3</ele>
        <time>2017-07-13T05:46:01Z</time>
      </trkpt>
      <trkpt lat="42.9384" lon="0.51763">
        <ele>786.4</ele>
        <time>2017-07-13T05:46:02Z</time>
      </trkpt>
      <trkpt lat="42.93836" lon="0.51763">
        <ele>786.4</ele>
        <time>2017-07-13T05:46:03Z</time>
      </trkpt>
      <trkpt lat="42.93832" lon="0.51763">
        <ele>787.4</ele>
        <time>2017-07-13T05:46:04Z</time>
      </trkpt>
      <trkpt lat="42.93827" lon="0.51763">
        <ele>789.4</ele>
        <time>2017-07-13T05:46:05Z</time>
      </trkpt>
      <trkpt lat="42.93823" lon="0.51763">
        <ele>791.5</ele>
        <time>2017-07-13T05:46:06Z</time>
      </trkpt>
      <trkpt lat="42.93819" lon="0.51763">
        <ele>793.6</ele>
        <time>2017-07-13T05:46:07Z</time>
      </trkpt>
      <trkpt lat="42.93815" lon="0.51763">
        <ele>795.5</ele>
        <time>2017-07-13T05:46:08Z</time>
      </trkpt>
      <trkpt lat="42.93811" lon="0.51762">
        <ele>797.3</ele>
        <time>2017-07-13T05:46:09Z</time>
      </trkpt>
      <trkpt lat="42.93807" lon="0.5176">
        <ele>798.8</ele>
        <time>2017-07-13T05:46:10Z</time>
      </trkpt>
      <trkpt lat="42.93803" lon="0.51758">
        <ele>800.1</ele>
        <time>2017-07-13T05:46:11Z</time>
      </trkpt>
      <trkpt lat="42.93799" lon="0.51756">
        <ele>801.1</ele>
        <time>2017-07-13T05:46:12Z</time>
      </trkpt>
      <trkpt lat="42.93795" lon="0.51753">
        <ele>802</ele>
        <time>2017-07-13T05:46:13Z</time>
      </trkpt>
      <trkpt lat="42.93792" lon="0.5175">
        <ele>802.8</ele>
        <time>2017-07-13T05:46:14Z</time>
      </trkpt>
      <trkpt lat="42.93789" lon="0.51746">
        <ele>804.1</ele>
        <time>2017-07-13T05:46:15Z</time>
      </trkpt>
      <trkpt lat="42.93785" lon="0.51742">
        <ele>805.1</ele>
        <time>2017-07-13T05:46:16Z</time>
      </trkpt>
      <trkpt lat="42.93782" lon="0.51738">
        <ele>805.9</ele>
        <time>2017-07-13T05:46:17Z</time>
      </trkpt>
      <trkpt lat="42.93779" lon="0.51733">
        <ele>806.5</ele>
        <time>2017-07-13T05:46:18Z</time>
      </trkpt>
      <trkpt lat="42.93776" lon="0.51729">
        <ele>806.9</ele>
        <time>2017-07-13T05:46:19Z</time>
      </trkpt>
      <trkpt lat="42.93774" lon="0.51724">
        <ele>807.2</ele>
        <time>2017-07-13T05:46:20Z</time>
      </trkpt>
      <trkpt lat="42.93771" lon="0.5172">
        <ele>807.3</ele>
        <time>2017-07-13T05:46:21Z</time>
      </trkpt>
      <trkpt lat="42.93769" lon="0.51715">
        <ele>807.2</ele>
        <time>2017-07-13T05:46:22Z</time>
      </trkpt>
      <trkpt lat="42.93766" lon="0.5171">
        <ele>806.9</ele>
        <time>2017-07-13T05:46:23Z</time>
      </trkpt>
      <trkpt lat="42.93764" lon="0.51706">
        <ele>806.5</ele>
        <time>2017-07-13T05:46:24Z</time>
      </trkpt>
      <trkpt lat="42.93762" lon="0.51701">
        <ele>805.9</ele>
        <time>2017-07-13T05:46:25Z</time>
      </trkpt>
      <trkpt lat="42.9376" lon="0.51696">
        <ele>805.2</ele>
        <time>2017-07-13T05:46:26Z</time>
      </trkpt>
      <trkpt lat="42.93758" lon="0.51691">
        <ele>804.4</ele>
        <time>2017-07-13T05:46:27Z</time>
      </trkpt>
      <trkpt lat="42.93757" lon="0.51686">
        <ele>803.4</ele>
        <time>2017-07-13T05:46:28Z</time>
      </trkpt>
      <trkpt lat="42.93755" lon="0.51681">
        <ele>802.3</ele>
        <time>2017-07-13T05:46:29Z</time>
      </trkpt>
      <trkpt lat="42.93754" lon="0.51676">
        <ele>801.1</ele>
        <time>2017-07-13T05:46:30Z</time>
      </trkpt>
      <trkpt lat="42.93752" lon="0.51671">
        <ele>799.9</ele>
        <time>2017-07-13T05:46:31Z</time>
      </trkpt>
      <trkpt lat="42.93751" lon="0.51665">
        <ele>798.7</ele>
        <time>2017-07-13T05:46:32Z</time>
      </trkpt>
      <trkpt lat="42.93749" lon="0.5166">
        <ele>798.2</ele>
        <time>2017-07-13T05:46:33Z</time>
      </trkpt>
      <trkpt lat="42.93748" lon="0.51655">
        <ele>798.2</ele>
        <time>2017-07-13T05:46:34Z</time>
      </trkpt>
      <trkpt lat="42.93746" lon="0.5165">
        <ele>798.1</ele>
        <time>2017-07-13T05:46:35Z</time>
      </trkpt>
      <trkpt lat="42.93745" lon="0.51646">
        <ele>798.1</ele>
        <time>2017-07-13T05:46:36Z</time>
      </trkpt>
      <trkpt lat="42.93743" lon="0.51641">
        <ele>798.1</ele>
        <time>2017-07-13T05:46:37Z</time>
      </trkpt>
      <trkpt lat="42.93741" lon="0.51636">
        <ele>798.2</ele>
        <time>2017-07-13T05:46:38Z</time>
      </trkpt>
      <trkpt lat="42.93739" lon="0.51631">
        <ele>798.3</ele>
        <time>2017-07-13T05:46:39Z</time>
      </trkpt>
      <trkpt lat="42.93736" lon="0.51627">
        <ele>798.5</ele>
        <time>2017-07-13T05:46:40Z</time>
      </trkpt>
      <trkpt lat="42.93734" lon="0.51623">
        <ele>798.7</ele>
        <time>2017-07-13T05:46:41Z</time>
      </trkpt>
      <trkpt lat="42.93731" lon="0.51618">
        <ele>798.8</ele>
        <time>2017-07-13T05:46:42Z</time>
      </trkpt>
      <trkpt lat="42.93729" lon="0.51614">
        <ele>799.1</ele>
        <time>2017-07-13T05:46:43Z</time>
      </trkpt>
      <trkpt lat="42.93726" lon="0.5161">
        <ele>799.3</ele>
        <time>2017-07-13T05:46:44Z</time>
      </trkpt>
      <trkpt lat="42.93723" lon="0.51606">
        <ele>799.5</ele>
        <time>2017-07-13T05:46:45Z</time>
      </trkpt>
      <trkpt lat="42.93721" lon="0.51602">
        <ele>799.8</ele>
        <time>2017-07-13T05:46:46Z</time>
      </trkpt>
      <trkpt lat="42.93718" lon="0.51599">
        <ele>799.9</ele>
        <time>2017-07-13T05:46:47Z</time>
      </trkpt>
      <trkpt lat="42.93715" lon="0.51595">
        <ele>800.1</ele>
        <time>2017-07-13T05:46:48Z</time>
      </trkpt>
      <trkpt lat="42.93712" lon="0.51591">
        <ele>800.3</ele>
        <time>2017-07-13T05:46:49Z</time>
      </trkpt>
      <trkpt lat="42.93709" lon="0.51588">
        <ele>800.3</ele>
        <time>2017-07-13T05:46:50Z</time>
      </trkpt>
      <trkpt lat="42.93706" lon="0.51584">
        <ele>800.4</ele>
        <time>2017-07-13T05:46:51Z</time>
      </trkpt>
      <trkpt lat="42.93704" lon="0.5158">
        <ele>800.9</ele>
        <time>2017-07-13T05:46:52Z</time>
      </trkpt>
      <trkpt lat="42.93701" lon="0.51577">
        <ele>801.4</ele>
        <time>2017-07-13T05:46:53Z</time>
      </trkpt>
      <trkpt lat="42.93698" lon="0.51573">
        <ele>801.8</ele>
        <time>2017-07-13T05:46:54Z</time>
      </trkpt>
      <trkpt lat="42.93695" lon="0.5157">
        <ele>802</ele>
        <time>2017-07-13T05:46:55Z</time>
      </trkpt>
      <trkpt lat="42.93692" lon="0.51567">
        <ele>802.3</ele>
        <time>2017-07-13T05:46:56Z</time>
      </trkpt>
      <trkpt lat="42.93689" lon="0.51564">
        <ele>802.4</ele>
        <time>2017-07-13T05:46:57Z</time>
      </trkpt>
      <trkpt lat="42.93686" lon="0.51561">
        <ele>802.5</ele>
        <time>2017-07-13T05:46:58Z</time>
      </trkpt>
      <trkpt lat="42.93683" lon="0.51558">
        <ele>802.5</ele>
        <time>2017-07-13T05:46:59Z</time>
      </trkpt>
      <trkpt lat="42.93679" lon="0.51555">
        <ele>802.4</ele>
        <time>2017-07-13T05:47:00Z</time>
      </trkpt>
      <trkpt lat="42.93676" lon="0.51552">
        <ele>802.1</ele>
        <time>2017-07-13T05:47:01Z</time>
      </trkpt>
      <trkpt lat="42.93672" lon="0.51549">
        <ele>801.8</ele>
        <time>2017-07-13T05:47:02Z</time>
      </trkpt>
      <trkpt lat="42.93669" lon="0.51546">
        <ele>801.2</ele>
        <time>2017-07-13T05:47:03Z</time>
      </trkpt>
      <trkpt lat="42.93666" lon="0.51543">
        <ele>800.7</ele>
        <time>2017-07-13T05:47:04Z</time>
      </trkpt>
      <trkpt lat="42.93663" lon="0.5154">
        <ele>800.8</ele>
        <time>2017-07-13T05:47:05Z</time>
      </trkpt>
      <trkpt lat="42.9366" lon="0.51536">
        <ele>800.9</ele>
        <time>2017-07-13T05:47:06Z</time>
      </trkpt>
      <trkpt lat="42.93658" lon="0.51532">
        <ele>800.9</ele>
        <time>2017-07-13T05:47:07Z</time>
      </trkpt>
      <trkpt lat="42.93655" lon="0.51529">
        <ele>800.8</ele>
        <time>2017-07-13T05:47:08Z</time>
      </trkpt>
      <trkpt lat="42.93652" lon="0.51525">
        <ele>800.7</ele>
        <time>2017-07-13T05:47:09Z</time>
      </trkpt>
      <trkpt lat="42.9365" lon="0.5152">
        <ele>800.5</ele>
        <time>2017-07-13T05:47:10Z</time>
      </trkpt>
      <trkpt lat="42.93647" lon="0.51516">
        <ele>800.3</ele>
        <time>2017-07-13T05:47:11Z</time>
      </trkpt>
      <trkpt lat="42.93645" lon="0.51512">
        <ele>800</ele>
        <time>2017-07-13T05:47:12Z</time>
      </trkpt>
      <trkpt lat="42.93642" lon="0.51507">
        <ele>799.6</ele>
        <time>2017-07-13T05:47:13Z</time>
      </trkpt>
      <trkpt lat="42.9364" lon="0.51503">
        <ele>799.2</ele>
        <time>2017-07-13T05:47:14Z</time>
      </trkpt>
      <trkpt lat="42.93638" lon="0.51498">
        <ele>799.1</ele>
        <time>2017-07-13T05:47:15Z</time>
      </trkpt>
      <trkpt lat="42.93636" lon="0.51493">
        <ele>799.7</ele>
        <time>2017-07-13T05:47:16Z</time>
      </trkpt>
      <trkpt lat="42.93634" lon="0.51488">
        <ele>800.2</ele>
        <time>2017-07-13T05:47:17Z</time>
      </trkpt>
      <trkpt lat="42.93633" lon="0.51483">
        <ele>800.5</ele>
        <time>2017-07-13T05:47:18Z</time>
      </trkpt>
      <trkpt lat="42.93631" lon="0.51478">
        <ele>800.6</ele>
        <time>2017-07-13T05:47:19Z</time>
      </trkpt>
      <trkpt lat="42.9363" lon="0.51473">
        <ele>800.7</ele>
        <time>2017-07-13T05:47:20Z</time>
      </trkpt>
      <trkpt lat="42.93629" lon="0.51467">
        <ele>800.6</ele>
        <time>2017-07-13T05:47:21Z</time>
      </trkpt>
      <trkpt lat="42.93628" lon="0.51462">
        <ele>800.5</ele>
        <time>2017-07-13T05:47:22Z</time>
      </trkpt>
      <trkpt lat="42.93628" lon="0.51457">
        <ele>800.3</ele>
        <time>2017-07-13T05:47:23Z</time>
      </trkpt>
      <trkpt lat="42.93627" lon="0.51452">
        <ele>800.1</ele>
        <time>2017-07-13T05:47:24Z</time>
      </trkpt>
      <trkpt lat="42.93627" lon="0.51447">
        <ele>799.8</ele>
        <time>2017-07-13T05:47:25Z</time>
      </trkpt>
      <trkpt lat="42.93626" lon="0.51442">
        <ele>799.5</ele>
        <time>2017-07-13T05:47:26Z</time>
      </trkpt>
      <trkpt lat="42.93626" lon="0.51436">
        <ele>799.1</ele>
        <time>2017-07-13T05:47:27Z</time>
      </trkpt>
      <trkpt lat="42.93625" lon="0.51431">
        <ele>798.8</ele>
        <time>2017-07-13T05:47:28Z</time>
      </trkpt>
      <trkpt lat="42.93624" lon="0.51426">
        <ele>798.5</ele>
        <time>2017-07-13T05:47:29Z</time>
      </trkpt>
      <trkpt lat="42.93623" lon="0.5142">
        <ele>798.1</ele>
        <time>2017-07-13T05:47:30Z</time>
      </trkpt>
      <trkpt lat="42.93622" lon="0.51414">
        <ele>798.1</ele>
        <time>2017-07-13T05:47:31Z</time>
      </trkpt>
      <trkpt lat="42.93621" lon="0.51409">
        <ele>798.4</ele>
        <time>2017-07-13T05:47:32Z</time>
      </trkpt>
      <trkpt lat="42.9362" lon="0.51403">
        <ele>798.7</ele>
        <time>2017-07-13T05:47:33Z</time>
      </trkpt>
      <trkpt lat="42.93618" lon="0.51398">
        <ele>799</ele>
        <time>2017-07-13T05:47:34Z</time>
      </trkpt>
      <trkpt lat="42.93616" lon="0.51392">
        <ele>799.3</ele>
        <time>2017-07-13T05:47:35Z</time>
      </trkpt>
      <trkpt lat="42.93614" lon="0.51387">
        <ele>799.5</ele>
        <time>2017-07-13T05:47:36Z</time>
      </trkpt>
      <trkpt lat="42.93611" lon="0.51382">
        <ele>799.7</ele>
        <time>2017-07-13T05:47:37Z</time>
      </trkpt>
      <trkpt lat="42.93609" lon="0.51377">
        <ele>799.8</ele>
        <time>2017-07-13T05:47:38Z</time>
      </trkpt>
      <trkpt lat="42.93606" lon="0.51373">
        <ele>799.9</ele>
        <time>2017-07-13T05:47:39Z</time>
      </trkpt>
      <trkpt lat="42.93603" lon="0.51369">
        <ele>799.9</ele>
        <time>2017-07-13T05:47:40Z</time>
      </trkpt>
      <trkpt lat="42.93599" lon="0.51366">
        <ele>799.8</ele>
        <time>2017-07-13T05:47:41Z</time>
      </trkpt>
      <trkpt lat="42.93596" lon="0.51364">
        <ele>799.8</ele>
        <time>2017-07-13T05:47:42Z</time>
      </trkpt>
      <trkpt lat="42.93593" lon="0.51362">
        <ele>799.7</ele>
        <time>2017-07-13T05:47:43Z</time>
      </trkpt>
      <trkpt lat="42.93589" lon="0.5136">
        <ele>799.5</ele>
        <time>2017-07-13T05:47:44Z</time>
      </trkpt>
      <trkpt lat="42.93586" lon="0.51358">
        <ele>799.4</ele>
        <time>2017-07-13T05:47:45Z</time>
      </trkpt>
      <trkpt lat="42.93582" lon="0.51356">
        <ele>799.5</ele>
        <time>2017-07-13T05:47:46Z</time>
      </trkpt>
      <trkpt lat="42.93579" lon="0.51353">
        <ele>800.3</ele>
        <time>2017-07-13T05:47:47Z</time>
      </trkpt>
      <trkpt lat="42.93575" lon="0.5135">
        <ele>801</ele>
        <time>2017-07-13T05:47:48Z</time>
      </trkpt>
      <trkpt lat="42.93572" lon="0.51346">
        <ele>801.6</ele>
        <time>2017-07-13T05:47:49Z</time>
      </trkpt>
      <trkpt lat="42.93569" lon="0.51342">
        <ele>802</ele>
        <time>2017-07-13T05:47:50Z</time>
      </trkpt>
      <trkpt lat="42.93566" lon="0.51338">
        <ele>802.4</ele>
        <time>2017-07-13T05:47:51Z</time>
      </trkpt>
      <trkpt lat="42.93563" lon="0.51334">
        <ele>802.8</ele>
        <time>2017-07-13T05:47:52Z</time>
      </trkpt>
      <trkpt lat="42.9356" lon="0.5133">
        <ele>803.1</ele>
        <time>2017-07-13T05:47:53Z</time>
      </trkpt>
      <trkpt lat="42.93558" lon="0.51326">
        <ele>803.4</ele>
        <time>2017-07-13T05:47:54Z</time>
      </trkpt>
      <trkpt lat="42.93555" lon="0.51322">
        <ele>803.6</ele>
        <time>2017-07-13T05:47:55Z</time>
      </trkpt>
      <trkpt lat="42.93553" lon="0.51318">
        <ele>803.7</ele>
        <time>2017-07-13T05:47:56Z</time>
      </trkpt>
      <trkpt lat="42.93551" lon="0.51313">
        <ele>803.7</ele>
        <time>2017-07-13T05:47:57Z</time>
      </trkpt>
      <trkpt lat="42.93549" lon="0.51308">
        <ele>803.6</ele>
        <time>2017-07-13T05:47:58Z</time>
      </trkpt>
      <trkpt lat="42.93546" lon="0.51303">
        <ele>803.5</ele>
        <time>2017-07-13T05:47:59Z</time>
      </trkpt>
      <trkpt lat="42.93544" lon="0.51298">
        <ele>803.3</ele>
        <time>2017-07-13T05:48:00Z</time>
      </trkpt>
      <trkpt lat="42.93542" lon="0.51293">
        <ele>803.2</ele>
        <time>2017-07-13T05:48:01Z</time>
      </trkpt>
      <trkpt lat="42.9354" lon="0.51288">
        <ele>802.9</ele>
        <time>2017-07-13T05:48:02Z</time>
      </trkpt>
      <trkpt lat="42.93537" lon="0.51284">
        <ele>802.7</ele>
        <time>2017-07-13T05:48:03Z</time>
      </trkpt>
      <trkpt lat="42.93535" lon="0.5128">
        <ele>802.5</ele>
        <time>2017-07-13T05:48:04Z</time>
      </trkpt>
      <trkpt lat="42.93532" lon="0.51276">
        <ele>802.2</ele>
        <time>2017-07-13T05:48:05Z</time>
      </trkpt>
      <trkpt lat="42.9353" lon="0.51272">
        <ele>802</ele>
        <time>2017-07-13T05:48:06Z</time>
      </trkpt>
      <trkpt lat="42.93527" lon="0.51269">
        <ele>801.8</ele>
        <time>2017-07-13T05:48:07Z</time>
      </trkpt>
      <trkpt lat="42.93524" lon="0.51265">
        <ele>801.7</ele>
        <time>2017-07-13T05:48:08Z</time>
      </trkpt>
      <trkpt lat="42.93521" lon="0.51263">
        <ele>801.5</ele>
        <time>2017-07-13T05:48:09Z</time>
      </trkpt>
      <trkpt lat="42.93517" lon="0.5126">
        <ele>801.5</ele>
        <time>2017-07-13T05:48:10Z</time>
      </trkpt>
      <trkpt lat="42.93513" lon="0.51258">
        <ele>801.4</ele>
        <time>2017-07-13T05:48:11Z</time>
      </trkpt>
      <trkpt lat="42.93508" lon="0.51255">
        <ele>801.4</ele>
        <time>2017-07-13T05:48:12Z</time>
      </trkpt>
      <trkpt lat="42.93503" lon="0.51253">
        <ele>801.4</ele>
        <time>2017-07-13T05:48:13Z</time>
      </trkpt>
      <trkpt lat="42.93499" lon="0.51251">
        <ele>801.5</ele>
        <time>2017-07-13T05:48:14Z</time>
      </trkpt>
      <trkpt lat="42.93494" lon="0.51249">
        <ele>802.3</ele>
        <time>2017-07-13T05:48:15Z</time>
      </trkpt>
      <trkpt lat="42.9349" lon="0.51247">
        <ele>803.1</ele>
        <time>2017-07-13T05:48:16Z</time>
      </trkpt>
      <trkpt lat="42.93486" lon="0.51245">
        <ele>803.8</ele>
        <time>2017-07-13T05:48:17Z</time>
      </trkpt>
      <trkpt lat="42.93482" lon="0.51242">
        <ele>804.5</ele>
        <time>2017-07-13T05:48:18Z</time>
      </trkpt>
      <trkpt lat="42.93478" lon="0.5124">
        <ele>805.1</ele>
        <time>2017-07-13T05:48:19Z</time>
      </trkpt>
      <trkpt lat="42.93474" lon="0.51237">
        <ele>805.6</ele>
        <time>2017-07-13T05:48:20Z</time>
      </trkpt>
      <trkpt lat="42.93471" lon="0.51234">
        <ele>806</ele>
        <time>2017-07-13T05:48:21Z</time>
      </trkpt>
      <trkpt lat="42.93467" lon="0.51231">
        <ele>806.4</ele>
        <time>2017-07-13T05:48:22Z</time>
      </trkpt>
      <trkpt lat="42.93464" lon="0.51228">
        <ele>806.7</ele>
        <time>2017-07-13T05:48:23Z</time>
      </trkpt>
      <trkpt lat="42.9346" lon="0.51224">
        <ele>806.9</ele>
        <time>2017-07-13T05:48:24Z</time>
      </trkpt>
      <trkpt lat="42.93457" lon="0.5122">
        <ele>807</ele>
        <time>2017-07-13T05:48:25Z</time>
      </trkpt>
      <trkpt lat="42.93453" lon="0.51217">
        <ele>807.2</ele>
        <time>2017-07-13T05:48:26Z</time>
      </trkpt>
      <trkpt lat="42.9345" lon="0.51213">
        <ele>807.2</ele>
        <time>2017-07-13T05:48:27Z</time>
      </trkpt>
      <trkpt lat="42.93447" lon="0.51209">
        <ele>807.2</ele>
        <time>2017-07-13T05:48:28Z</time>
      </trkpt>
      <trkpt lat="42.93444" lon="0.51206">
        <ele>807.2</ele>
        <time>2017-07-13T05:48:29Z</time>
      </trkpt>
      <trkpt lat="42.9344" lon="0.51202">
        <ele>807.2</ele>
        <time>2017-07-13T05:48:30Z</time>
      </trkpt>
      <trkpt lat="42.93437" lon="0.51199">
        <ele>807.1</ele>
        <time>2017-07-13T05:48:31Z</time>
      </trkpt>
      <trkpt lat="42.93434" lon="0.51195">
        <ele>807</ele>
        <time>2017-07-13T05:48:32Z</time>
      </trkpt>
      <trkpt lat="42.93431" lon="0.51192">
        <ele>807</ele>
        <time>2017-07-13T05:48:33Z</time>
      </trkpt>
      <trkpt lat="42.93427" lon="0.51189">
        <ele>806.9</ele>
        <time>2017-07-13T05:48:34Z</time>
      </trkpt>
      <trkpt lat="42.93424" lon="0.51186">
        <ele>806.8</ele>
        <time>2017-07-13T05:48:35Z</time>
      </trkpt>
      <trkpt lat="42.93421" lon="0.51183">
        <ele>806.7</ele>
        <time>2017-07-13T05:48:36Z</time>
      </trkpt>
      <trkpt lat="42.93418" lon="0.51179">
        <ele>806.4</ele>
        <time>2017-07-13T05:48:37Z</time>
      </trkpt>
      <trkpt lat="42.93414" lon="0.51176">
        <ele>806.7</ele>
        <time>2017-07-13T05:48:38Z</time>
      </trkpt>
      <trkpt lat="42.93411" lon="0.51172">
        <ele>807.2</ele>
        <time>2017-07-13T05:48:39Z</time>
      </trkpt>
      <trkpt lat="42.93408" lon="0.51167">
        <ele>807.6</ele>
        <time>2017-07-13T05:48:40Z</time>
      </trkpt>
      <trkpt lat="42.93405" lon="0.51163">
        <ele>808.3</ele>
        <time>2017-07-13T05:48:41Z</time>
      </trkpt>
      <trkpt lat="42.93401" lon="0.51159">
        <ele>809.1</ele>
        <time>2017-07-13T05:48:42Z</time>
      </trkpt>
      <trkpt lat="42.93398" lon="0.51154">
        <ele>809.8</ele>
        <time>2017-07-13T05:48:43Z</time>
      </trkpt>
      <trkpt lat="42.93395" lon="0.51151">
        <ele>810.4</ele>
        <time>2017-07-13T05:48:44Z</time>
      </trkpt>
      <trkpt lat="42.93392" lon="0.51147">
        <ele>811.1</ele>
        <time>2017-07-13T05:48:45Z</time>
      </trkpt>
      <trkpt lat="42.93389" lon="0.51144">
        <ele>811.7</ele>
        <time>2017-07-13T05:48:46Z</time>
      </trkpt>
      <trkpt lat="42.93385" lon="0.51141">
        <ele>812.3</ele>
        <time>2017-07-13T05:48:47Z</time>
      </trkpt>
      <trkpt lat="42.93382" lon="0.51138">
        <ele>812.8</ele>
        <time>2017-07-13T05:48:48Z</time>
      </trkpt>
      <trkpt lat="42.93379" lon="0.51135">
        <ele>813.3</ele>
        <time>2017-07-13T05:48:49Z</time>
      </trkpt>
      <trkpt lat="42.93376" lon="0.51132">
        <ele>813.6</ele>
        <time>2017-07-13T05:48:50Z</time>
      </trkpt>
      <trkpt lat="42.93373" lon="0.51129">
        <ele>813.8</ele>
        <time>2017-07-13T05:48:51Z</time>
      </trkpt>
      <trkpt lat="42.9337" lon="0.51124">
        <ele>813.8</ele>
        <time>2017-07-13T05:48:52Z</time>
      </trkpt>
      <trkpt lat="42.93367" lon="0.5112">
        <ele>813.6</ele>
        <time>2017-07-13T05:48:53Z</time>
      </trkpt>
      <trkpt lat="42.93364" lon="0.51115">
        <ele>813.3</ele>
        <time>2017-07-13T05:48:54Z</time>
      </trkpt>
      <trkpt lat="42.93361" lon="0.5111">
        <ele>812.9</ele>
        <time>2017-07-13T05:48:55Z</time>
      </trkpt>
      <trkpt lat="42.93358" lon="0.51105">
        <ele>812.4</ele>
        <time>2017-07-13T05:48:56Z</time>
      </trkpt>
      <trkpt lat="42.93355" lon="0.51101">
        <ele>811.9</ele>
        <time>2017-07-13T05:48:57Z</time>
      </trkpt>
      <trkpt lat="42.93352" lon="0.51097">
        <ele>811.5</ele>
        <time>2017-07-13T05:48:58Z</time>
      </trkpt>
      <trkpt lat="42.9335" lon="0.51093">
        <ele>811</ele>
        <time>2017-07-13T05:48:59Z</time>
      </trkpt>
      <trkpt lat="42.93347" lon="0.51089">
        <ele>810.6</ele>
        <time>2017-07-13T05:49:00Z</time>
      </trkpt>
      <trkpt lat="42.93344" lon="0.51086">
        <ele>810.1</ele>
        <time>2017-07-13T05:49:01Z</time>
      </trkpt>
      <trkpt lat="42.93341" lon="0.51082">
        <ele>809.7</ele>
        <time>2017-07-13T05:49:02Z</time>
      </trkpt>
      <trkpt lat="42.93338" lon="0.51078">
        <ele>809.7</ele>
        <time>2017-07-13T05:49:03Z</time>
      </trkpt>
      <trkpt lat="42.93335" lon="0.51073">
        <ele>809.6</ele>
        <time>2017-07-13T05:49:04Z</time>
      </trkpt>
      <trkpt lat="42.93332" lon="0.51069">
        <ele>809.5</ele>
        <time>2017-07-13T05:49:05Z</time>
      </trkpt>
      <trkpt lat="42.9333" lon="0.51064">
        <ele>809.7</ele>
        <time>2017-07-13T05:49:06Z</time>
      </trkpt>
      <trkpt lat="42.93327" lon="0.51059">
        <ele>809.9</ele>
        <time>2017-07-13T05:49:07Z</time>
      </trkpt>
      <trkpt lat="42.93324" lon="0.51054">
        <ele>810</ele>
        <time>2017-07-13T05:49:08Z</time>
      </trkpt>
      <trkpt lat="42.93321" lon="0.51049">
        <ele>810.1</ele>
        <time>2017-07-13T05:49:09Z</time>
      </trkpt>
      <trkpt lat="42.93318" lon="0.51045">
        <ele>810.2</ele>
        <time>2017-07-13T05:49:10Z</time>
      </trkpt>
      <trkpt lat="42.93314" lon="0.51041">
        <ele>810.3</ele>
        <time>2017-07-13T05:49:11Z</time>
      </trkpt>
      <trkpt lat="42.93311" lon="0.51037">
        <ele>810.4</ele>
        <time>2017-07-13T05:49:12Z</time>
      </trkpt>
      <trkpt lat="42.93308" lon="0.51033">
        <ele>810.5</ele>
        <time>2017-07-13T05:49:13Z</time>
      </trkpt>
      <trkpt lat="42.93305" lon="0.5103">
        <ele>810.5</ele>
        <time>2017-07-13T05:49:14Z</time>
      </trkpt>
      <trkpt lat="42.93302" lon="0.51026">
        <ele>810.5</ele>
        <time>2017-07-13T05:49:15Z</time>
      </trkpt>
      <trkpt lat="42.93299" lon="0.51023">
        <ele>810.5</ele>
        <time>2017-07-13T05:49:16Z</time>
      </trkpt>
      <trkpt lat="42.93296" lon="0.5102">
        <ele>810.4</ele>
        <time>2017-07-13T05:49:17Z</time>
      </trkpt>
      <trkpt lat="42.93293" lon="0.51017">
        <ele>810.3</ele>
        <time>2017-07-13T05:49:18Z</time>
      </trkpt>
      <trkpt lat="42.93291" lon="0.51014">
        <ele>810.1</ele>
        <time>2017-07-13T05:49:19Z</time>
      </trkpt>
      <trkpt lat="42.93288" lon="0.51011">
        <ele>809.9</ele>
        <time>2017-07-13T05:49:20Z</time>
      </trkpt>
      <trkpt lat="42.93286" lon="0.51009">
        <ele>809.8</ele>
        <time>2017-07-13T05:49:21Z</time>
      </trkpt>
      <trkpt lat="42.93283" lon="0.51006">
        <ele>809.6</ele>
        <time>2017-07-13T05:49:22Z</time>
      </trkpt>
      <trkpt lat="42.9328" lon="0.51003">
        <ele>809.4</ele>
        <time>2017-07-13T05:49:23Z</time>
      </trkpt>
      <trkpt lat="42.93277" lon="0.51001">
        <ele>809.2</ele>
        <time>2017-07-13T05:49:24Z</time>
      </trkpt>
      <trkpt lat="42.93274" lon="0.50998">
        <ele>809.5</ele>
        <time>2017-07-13T05:49:25Z</time>
      </trkpt>
      <trkpt lat="42.93271" lon="0.50995">
        <ele>809.9</ele>
        <time>2017-07-13T05:49:26Z</time>
      </trkpt>
      <trkpt lat="42.93267" lon="0.50993">
        <ele>810.3</ele>
        <time>2017-07-13T05:49:27Z</time>
      </trkpt>
      <trkpt lat="42.93264" lon="0.5099">
        <ele>810.6</ele>
        <time>2017-07-13T05:49:28Z</time>
      </trkpt>
      <trkpt lat="42.9326" lon="0.50988">
        <ele>810.9</ele>
        <time>2017-07-13T05:49:29Z</time>
      </trkpt>
      <trkpt lat="42.93257" lon="0.50985">
        <ele>811.2</ele>
        <time>2017-07-13T05:49:30Z</time>
      </trkpt>
      <trkpt lat="42.93253" lon="0.50983">
        <ele>811.4</ele>
        <time>2017-07-13T05:49:31Z</time>
      </trkpt>
      <trkpt lat="42.9325" lon="0.50981">
        <ele>811.6</ele>
        <time>2017-07-13T05:49:32Z</time>
      </trkpt>
      <trkpt lat="42.93246" lon="0.50979">
        <ele>811.5</ele>
        <time>2017-07-13T05:49:33Z</time>
      </trkpt>
      <trkpt lat="42.93242" lon="0.50977">
        <ele>811.4</ele>
        <time>2017-07-13T05:49:34Z</time>
      </trkpt>
      <trkpt lat="42.93239" lon="0.50977">
        <ele>811.4</ele>
        <time>2017-07-13T05:49:35Z</time>
      </trkpt>
      <trkpt lat="42.93234" lon="0.50976">
        <ele>811.4</ele>
        <time>2017-07-13T05:49:36Z</time>
      </trkpt>
      <trkpt lat="42.9323" lon="0.50977">
        <ele>811.4</ele>
        <time>2017-07-13T05:49:37Z</time>
      </trkpt>
      <trkpt lat="42.93225" lon="0.50977">
        <ele>811.4</ele>
        <time>2017-07-13T05:49:38Z</time>
      </trkpt>
      <trkpt lat="42.93221" lon="0.50979">
        <ele>811.4</ele>
        <time>2017-07-13T05:49:39Z</time>
      </trkpt>
      <trkpt lat="42.93216" lon="0.5098">
        <ele>811.4</ele>
        <time>2017-07-13T05:49:40Z</time>
      </trkpt>
      <trkpt lat="42.93211" lon="0.50982">
        <ele>811.3</ele>
        <time>2017-07-13T05:49:41Z</time>
      </trkpt>
      <trkpt lat="42.93206" lon="0.50984">
        <ele>811.1</ele>
        <time>2017-07-13T05:49:42Z</time>
      </trkpt>
      <trkpt lat="42.93201" lon="0.50987">
        <ele>810.9</ele>
        <time>2017-07-13T05:49:43Z</time>
      </trkpt>
      <trkpt lat="42.93196" lon="0.50989">
        <ele>810.6</ele>
        <time>2017-07-13T05:49:44Z</time>
      </trkpt>
      <trkpt lat="42.93191" lon="0.50992">
        <ele>810.1</ele>
        <time>2017-07-13T05:49:45Z</time>
      </trkpt>
      <trkpt lat="42.93186" lon="0.50995">
        <ele>809.6</ele>
        <time>2017-07-13T05:49:46Z</time>
      </trkpt>
      <trkpt lat="42.93182" lon="0.50999">
        <ele>809.1</ele>
        <time>2017-07-13T05:49:47Z</time>
      </trkpt>
      <trkpt lat="42.93178" lon="0.51002">
        <ele>809.4</ele>
        <time>2017-07-13T05:49:48Z</time>
      </trkpt>
      <trkpt lat="42.93175" lon="0.51006">
        <ele>810.3</ele>
        <time>2017-07-13T05:49:49Z</time>
      </trkpt>
      <trkpt lat="42.93172" lon="0.51009">
        <ele>811.3</ele>
        <time>2017-07-13T05:49:50Z</time>
      </trkpt>
      <trkpt lat="42.93169" lon="0.51013">
        <ele>812.3</ele>
        <time>2017-07-13T05:49:51Z</time>
      </trkpt>
      <trkpt lat="42.93166" lon="0.51017">
        <ele>813.4</ele>
        <time>2017-07-13T05:49:52Z</time>
      </trkpt>
      <trkpt lat="42.93163" lon="0.5102">
        <ele>814.9</ele>
        <time>2017-07-13T05:49:53Z</time>
      </trkpt>
      <trkpt lat="42.9316" lon="0.51023">
        <ele>816.3</ele>
        <time>2017-07-13T05:49:54Z</time>
      </trkpt>
      <trkpt lat="42.93157" lon="0.51026">
        <ele>817.6</ele>
        <time>2017-07-13T05:49:55Z</time>
      </trkpt>
      <trkpt lat="42.93153" lon="0.51028">
        <ele>818.8</ele>
        <time>2017-07-13T05:49:56Z</time>
      </trkpt>
      <trkpt lat="42.93149" lon="0.5103">
        <ele>820</ele>
        <time>2017-07-13T05:49:57Z</time>
      </trkpt>
      <trkpt lat="42.93145" lon="0.51032">
        <ele>821.1</ele>
        <time>2017-07-13T05:49:58Z</time>
      </trkpt>
      <trkpt lat="42.93141" lon="0.51033">
        <ele>822.1</ele>
        <time>2017-07-13T05:49:59Z</time>
      </trkpt>
      <trkpt lat="42.93137" lon="0.51034">
        <ele>822.9</ele>
        <time>2017-07-13T05:50:00Z</time>
      </trkpt>
      <trkpt lat="42.93134" lon="0.51035">
        <ele>823.7</ele>
        <time>2017-07-13T05:50:01Z</time>
      </trkpt>
      <trkpt lat="42.9313" lon="0.51036">
        <ele>824.3</ele>
        <time>2017-07-13T05:50:02Z</time>
      </trkpt>
      <trkpt lat="42.93126" lon="0.51036">
        <ele>824.9</ele>
        <time>2017-07-13T05:50:03Z</time>
      </trkpt>
      <trkpt lat="42.93123" lon="0.51036">
        <ele>825.4</ele>
        <time>2017-07-13T05:50:04Z</time>
      </trkpt>
      <trkpt lat="42.93119" lon="0.51036">
        <ele>825.8</ele>
        <time>2017-07-13T05:50:05Z</time>
      </trkpt>
      <trkpt lat="42.93115" lon="0.51035">
        <ele>826</ele>
        <time>2017-07-13T05:50:06Z</time>
      </trkpt>
      <trkpt lat="42.93112" lon="0.51035">
        <ele>826.3</ele>
        <time>2017-07-13T05:50:07Z</time>
      </trkpt>
      <trkpt lat="42.93108" lon="0.51034">
        <ele>826.5</ele>
        <time>2017-07-13T05:50:08Z</time>
      </trkpt>
      <trkpt lat="42.93105" lon="0.51033">
        <ele>826.7</ele>
        <time>2017-07-13T05:50:09Z</time>
      </trkpt>
      <trkpt lat="42.93101" lon="0.51032">
        <ele>826.8</ele>
        <time>2017-07-13T05:50:10Z</time>
      </trkpt>
      <trkpt lat="42.93098" lon="0.51031">
        <ele>827</ele>
        <time>2017-07-13T05:50:11Z</time>
      </trkpt>
      <trkpt lat="42.93094" lon="0.5103">
        <ele>827.1</ele>
        <time>2017-07-13T05:50:12Z</time>
      </trkpt>
      <trkpt lat="42.93091" lon="0.51029">
        <ele>827.2</ele>
        <time>2017-07-13T05:50:13Z</time>
      </trkpt>
      <trkpt lat="42.93087" lon="0.51028">
        <ele>827.3</ele>
        <time>2017-07-13T05:50:14Z</time>
      </trkpt>
      <trkpt lat="42.93083" lon="0.51027">
        <ele>827.5</ele>
        <time>2017-07-13T05:50:15Z</time>
      </trkpt>
      <trkpt lat="42.93079" lon="0.51026">
        <ele>828.4</ele>
        <time>2017-07-13T05:50:16Z</time>
      </trkpt>
      <trkpt lat="42.93076" lon="0.51025">
        <ele>829.2</ele>
        <time>2017-07-13T05:50:17Z</time>
      </trkpt>
      <trkpt lat="42.93072" lon="0.51024">
        <ele>830</ele>
        <time>2017-07-13T05:50:18Z</time>
      </trkpt>
      <trkpt lat="42.93068" lon="0.51022">
        <ele>830.7</ele>
        <time>2017-07-13T05:50:19Z</time>
      </trkpt>
      <trkpt lat="42.93064" lon="0.51021">
        <ele>831.3</ele>
        <time>2017-07-13T05:50:20Z</time>
      </trkpt>
      <trkpt lat="42.93061" lon="0.51019">
        <ele>831.7</ele>
        <time>2017-07-13T05:50:21Z</time>
      </trkpt>
      <trkpt lat="42.93057" lon="0.51017">
        <ele>832</ele>
        <time>2017-07-13T05:50:22Z</time>
      </trkpt>
      <trkpt lat="42.93054" lon="0.51015">
        <ele>832.2</ele>
        <time>2017-07-13T05:50:23Z</time>
      </trkpt>
      <trkpt lat="42.93051" lon="0.51013">
        <ele>832.1</ele>
        <time>2017-07-13T05:50:24Z</time>
      </trkpt>
      <trkpt lat="42.93048" lon="0.5101">
        <ele>831.9</ele>
        <time>2017-07-13T05:50:25Z</time>
      </trkpt>
      <trkpt lat="42.93045" lon="0.51007">
        <ele>831.4</ele>
        <time>2017-07-13T05:50:26Z</time>
      </trkpt>
      <trkpt lat="42.93043" lon="0.51003">
        <ele>830.6</ele>
        <time>2017-07-13T05:50:27Z</time>
      </trkpt>
      <trkpt lat="42.9304" lon="0.50999">
        <ele>829.9</ele>
        <time>2017-07-13T05:50:28Z</time>
      </trkpt>
      <trkpt lat="42.93038" lon="0.50995">
        <ele>830.1</ele>
        <time>2017-07-13T05:50:29Z</time>
      </trkpt>
      <trkpt lat="42.93037" lon="0.5099">
        <ele>830.3</ele>
        <time>2017-07-13T05:50:30Z</time>
      </trkpt>
      <trkpt lat="42.93035" lon="0.50985">
        <ele>830.3</ele>
        <time>2017-07-13T05:50:31Z</time>
      </trkpt>
      <trkpt lat="42.93034" lon="0.5098">
        <ele>830.2</ele>
        <time>2017-07-13T05:50:32Z</time>
      </trkpt>
      <trkpt lat="42.93032" lon="0.50975">
        <ele>830.2</ele>
        <time>2017-07-13T05:50:33Z</time>
      </trkpt>
      <trkpt lat="42.9303" lon="0.5097">
        <ele>830.2</ele>
        <time>2017-07-13T05:50:34Z</time>
      </trkpt>
      <trkpt lat="42.93028" lon="0.50965">
        <ele>830.1</ele>
        <time>2017-07-13T05:50:35Z</time>
      </trkpt>
      <trkpt lat="42.93025" lon="0.5096">
        <ele>830</ele>
        <time>2017-07-13T05:50:36Z</time>
      </trkpt>
      <trkpt lat="42.93023" lon="0.50956">
        <ele>829.9</ele>
        <time>2017-07-13T05:50:37Z</time>
      </trkpt>
      <trkpt lat="42.9302" lon="0.50952">
        <ele>829.8</ele>
        <time>2017-07-13T05:50:38Z</time>
      </trkpt>
      <trkpt lat="42.93016" lon="0.50949">
        <ele>829.6</ele>
        <time>2017-07-13T05:50:39Z</time>
      </trkpt>
      <trkpt lat="42.93013" lon="0.50945">
        <ele>829.5</ele>
        <time>2017-07-13T05:50:40Z</time>
      </trkpt>
      <trkpt lat="42.93009" lon="0.50942">
        <ele>829.3</ele>
        <time>2017-07-13T05:50:41Z</time>
      </trkpt>
      <trkpt lat="42.93006" lon="0.5094">
        <ele>829.1</ele>
        <time>2017-07-13T05:50:42Z</time>
      </trkpt>
      <trkpt lat="42.93002" lon="0.50937">
        <ele>828.8</ele>
        <time>2017-07-13T05:50:43Z</time>
      </trkpt>
      <trkpt lat="42.92998" lon="0.50935">
        <ele>828.6</ele>
        <time>2017-07-13T05:50:44Z</time>
      </trkpt>
      <trkpt lat="42.92994" lon="0.50933">
        <ele>828.5</ele>
        <time>2017-07-13T05:50:45Z</time>
      </trkpt>
      <trkpt lat="42.9299" lon="0.50931">
        <ele>828.4</ele>
        <time>2017-07-13T05:50:46Z</time>
      </trkpt>
      <trkpt lat="42.92985" lon="0.50929">
        <ele>828.3</ele>
        <time>2017-07-13T05:50:47Z</time>
      </trkpt>
      <trkpt lat="42.92981" lon="0.50928">
        <ele>828.3</ele>
        <time>2017-07-13T05:50:48Z</time>
      </trkpt>
      <trkpt lat="42.92977" lon="0.50926">
        <ele>828.2</ele>
        <time>2017-07-13T05:50:49Z</time>
      </trkpt>
      <trkpt lat="42.92973" lon="0.50925">
        <ele>828.2</ele>
        <time>2017-07-13T05:50:50Z</time>
      </trkpt>
      <trkpt lat="42.9297" lon="0.50924">
        <ele>828.2</ele>
        <time>2017-07-13T05:50:51Z</time>
      </trkpt>
      <trkpt lat="42.92966" lon="0.50923">
        <ele>828.1</ele>
        <time>2017-07-13T05:50:52Z</time>
      </trkpt>
      <trkpt lat="42.92962" lon="0.50922">
        <ele>828.1</ele>
        <time>2017-07-13T05:50:53Z</time>
      </trkpt>
      <trkpt lat="42.92958" lon="0.50921">
        <ele>828.1</ele>
        <time>2017-07-13T05:50:54Z</time>
      </trkpt>
      <trkpt lat="42.92955" lon="0.5092">
        <ele>828</ele>
        <time>2017-07-13T05:50:55Z</time>
      </trkpt>
      <trkpt lat="42.92951" lon="0.50919">
        <ele>828</ele>
        <time>2017-07-13T05:50:56Z</time>
      </trkpt>
      <trkpt lat="42.92947" lon="0.50918">
        <ele>827.9</ele>
        <time>2017-07-13T05:50:57Z</time>
      </trkpt>
      <trkpt lat="42.92943" lon="0.50917">
        <ele>827.7</ele>
        <time>2017-07-13T05:50:58Z</time>
      </trkpt>
      <trkpt lat="42.92939" lon="0.50915">
        <ele>828.3</ele>
        <time>2017-07-13T05:50:59Z</time>
      </trkpt>
      <trkpt lat="42.92935" lon="0.50914">
        <ele>828.9</ele>
        <time>2017-07-13T05:51:00Z</time>
      </trkpt>
      <trkpt lat="42.92931" lon="0.50912">
        <ele>829.6</ele>
        <time>2017-07-13T05:51:01Z</time>
      </trkpt>
      <trkpt lat="42.92927" lon="0.50911">
        <ele>830.2</ele>
        <time>2017-07-13T05:51:02Z</time>
      </trkpt>
      <trkpt lat="42.92923" lon="0.50909">
        <ele>830.8</ele>
        <time>2017-07-13T05:51:03Z</time>
      </trkpt>
      <trkpt lat="42.92919" lon="0.50908">
        <ele>831.3</ele>
        <time>2017-07-13T05:51:04Z</time>
      </trkpt>
      <trkpt lat="42.92915" lon="0.50907">
        <ele>832</ele>
        <time>2017-07-13T05:51:05Z</time>
      </trkpt>
      <trkpt lat="42.92911" lon="0.50905">
        <ele>832.7</ele>
        <time>2017-07-13T05:51:06Z</time>
      </trkpt>
      <trkpt lat="42.92907" lon="0.50904">
        <ele>833.4</ele>
        <time>2017-07-13T05:51:07Z</time>
      </trkpt>
      <trkpt lat="42.92903" lon="0.50903">
        <ele>834</ele>
        <time>2017-07-13T05:51:08Z</time>
      </trkpt>
      <trkpt lat="42.92899" lon="0.50903">
        <ele>834.6</ele>
        <time>2017-07-13T05:51:09Z</time>
      </trkpt>
      <trkpt lat="42.92895" lon="0.50902">
        <ele>835.1</ele>
        <time>2017-07-13T05:51:10Z</time>
      </trkpt>
      <trkpt lat="42.92891" lon="0.50902">
        <ele>835.6</ele>
        <time>2017-07-13T05:51:11Z</time>
      </trkpt>
      <trkpt lat="42.92888" lon="0.50902">
        <ele>836</ele>
        <time>2017-07-13T05:51:12Z</time>
      </trkpt>
      <trkpt lat="42.92884" lon="0.50902">
        <ele>836.3</ele>
        <time>2017-07-13T05:51:13Z</time>
      </trkpt>
      <trkpt lat="42.9288" lon="0.50902">
        <ele>836.5</ele>
        <time>2017-07-13T05:51:14Z</time>
      </trkpt>
      <trkpt lat="42.92876" lon="0.50903">
        <ele>836.7</ele>
        <time>2017-07-13T05:51:15Z</time>
      </trkpt>
      <trkpt lat="42.92872" lon="0.50904">
        <ele>836.8</ele>
        <time>2017-07-13T05:51:16Z</time>
      </trkpt>
      <trkpt lat="42.92869" lon="0.50905">
        <ele>836.8</ele>
        <time>2017-07-13T05:51:17Z</time>
      </trkpt>
      <trkpt lat="42.92865" lon="0.50906">
        <ele>836.8</ele>
        <time>2017-07-13T05:51:18Z</time>
      </trkpt>
      <trkpt lat="42.92861" lon="0.50907">
        <ele>836.7</ele>
        <time>2017-07-13T05:51:19Z</time>
      </trkpt>
      <trkpt lat="42.92858" lon="0.50908">
        <ele>836.4</ele>
        <time>2017-07-13T05:51:20Z</time>
      </trkpt>
      <trkpt lat="42.92854" lon="0.5091">
        <ele>836</ele>
        <time>2017-07-13T05:51:21Z</time>
      </trkpt>
      <trkpt lat="42.92851" lon="0.50912">
        <ele>835.4</ele>
        <time>2017-07-13T05:51:22Z</time>
      </trkpt>
      <trkpt lat="42.92848" lon="0.50915">
        <ele>834.6</ele>
        <time>2017-07-13T05:51:23Z</time>
      </trkpt>
      <trkpt lat="42.92846" lon="0.50918">
        <ele>834.2</ele>
        <time>2017-07-13T05:51:24Z</time>
      </trkpt>
      <trkpt lat="42.92843" lon="0.50921">
        <ele>834.5</ele>
        <time>2017-07-13T05:51:25Z</time>
      </trkpt>
      <trkpt lat="42.92841" lon="0.50925">
        <ele>834.7</ele>
        <time>2017-07-13T05:51:26Z</time>
      </trkpt>
      <trkpt lat="42.92839" lon="0.50929">
        <ele>834.8</ele>
        <time>2017-07-13T05:51:27Z</time>
      </trkpt>
      <trkpt lat="42.92837" lon="0.50934">
        <ele>835</ele>
        <time>2017-07-13T05:51:28Z</time>
      </trkpt>
      <trkpt lat="42.92835" lon="0.50938">
        <ele>835</ele>
        <time>2017-07-13T05:51:29Z</time>
      </trkpt>
      <trkpt lat="42.92833" lon="0.50943">
        <ele>835.3</ele>
        <time>2017-07-13T05:51:30Z</time>
      </trkpt>
      <trkpt lat="42.92831" lon="0.50948">
        <ele>836.3</ele>
        <time>2017-07-13T05:51:31Z</time>
      </trkpt>
      <trkpt lat="42.92828" lon="0.50952">
        <ele>837.3</ele>
        <time>2017-07-13T05:51:32Z</time>
      </trkpt>
      <trkpt lat="42.92826" lon="0.50957">
        <ele>838.2</ele>
        <time>2017-07-13T05:51:33Z</time>
      </trkpt>
      <trkpt lat="42.92823" lon="0.50962">
        <ele>839.1</ele>
        <time>2017-07-13T05:51:34Z</time>
      </trkpt>
      <trkpt lat="42.9282" lon="0.50966">
        <ele>840</ele>
        <time>2017-07-13T05:51:35Z</time>
      </trkpt>
      <trkpt lat="42.92818" lon="0.5097">
        <ele>840.8</ele>
        <time>2017-07-13T05:51:36Z</time>
      </trkpt>
      <trkpt lat="42.92815" lon="0.50974">
        <ele>841.6</ele>
        <time>2017-07-13T05:51:37Z</time>
      </trkpt>
      <trkpt lat="42.92811" lon="0.50978">
        <ele>842.3</ele>
        <time>2017-07-13T05:51:38Z</time>
      </trkpt>
      <trkpt lat="42.92808" lon="0.50981">
        <ele>843</ele>
        <time>2017-07-13T05:51:39Z</time>
      </trkpt>
      <trkpt lat="42.92805" lon="0.50984">
        <ele>843.7</ele>
        <time>2017-07-13T05:51:40Z</time>
      </trkpt>
      <trkpt lat="42.92802" lon="0.50987">
        <ele>844.3</ele>
        <time>2017-07-13T05:51:41Z</time>
      </trkpt>
      <trkpt lat="42.92798" lon="0.5099">
        <ele>844.9</ele>
        <time>2017-07-13T05:51:42Z</time>
      </trkpt>
      <trkpt lat="42.92795" lon="0.50993">
        <ele>845.4</ele>
        <time>2017-07-13T05:51:43Z</time>
      </trkpt>
      <trkpt lat="42.92791" lon="0.50996">
        <ele>845.8</ele>
        <time>2017-07-13T05:51:44Z</time>
      </trkpt>
      <trkpt lat="42.92787" lon="0.51">
        <ele>846.1</ele>
        <time>2017-07-13T05:51:45Z</time>
      </trkpt>
      <trkpt lat="42.92784" lon="0.51003">
        <ele>847</ele>
        <time>2017-07-13T05:51:46Z</time>
      </trkpt>
      <trkpt lat="42.9278" lon="0.51006">
        <ele>847.9</ele>
        <time>2017-07-13T05:51:47Z</time>
      </trkpt>
      <trkpt lat="42.92777" lon="0.5101">
        <ele>848.6</ele>
        <time>2017-07-13T05:51:48Z</time>
      </trkpt>
      <trkpt lat="42.92774" lon="0.51013">
        <ele>849.2</ele>
        <time>2017-07-13T05:51:49Z</time>
      </trkpt>
      <trkpt lat="42.92771" lon="0.51017">
        <ele>849.5</ele>
        <time>2017-07-13T05:51:50Z</time>
      </trkpt>
      <trkpt lat="42.92768" lon="0.51022">
        <ele>849.8</ele>
        <time>2017-07-13T05:51:51Z</time>
      </trkpt>
      <trkpt lat="42.92765" lon="0.51026">
        <ele>849.9</ele>
        <time>2017-07-13T05:51:52Z</time>
      </trkpt>
      <trkpt lat="42.92762" lon="0.5103">
        <ele>849.8</ele>
        <time>2017-07-13T05:51:53Z</time>
      </trkpt>
      <trkpt lat="42.9276" lon="0.51035">
        <ele>849.6</ele>
        <time>2017-07-13T05:51:54Z</time>
      </trkpt>
      <trkpt lat="42.92757" lon="0.51039">
        <ele>849.2</ele>
        <time>2017-07-13T05:51:55Z</time>
      </trkpt>
      <trkpt lat="42.92755" lon="0.51044">
        <ele>848.8</ele>
        <time>2017-07-13T05:51:56Z</time>
      </trkpt>
      <trkpt lat="42.92752" lon="0.51048">
        <ele>848.2</ele>
        <time>2017-07-13T05:51:57Z</time>
      </trkpt>
      <trkpt lat="42.9275" lon="0.51052">
        <ele>847.6</ele>
        <time>2017-07-13T05:51:58Z</time>
      </trkpt>
      <trkpt lat="42.92747" lon="0.51056">
        <ele>847.4</ele>
        <time>2017-07-13T05:51:59Z</time>
      </trkpt>
      <trkpt lat="42.92744" lon="0.51061">
        <ele>847.2</ele>
        <time>2017-07-13T05:52:00Z</time>
      </trkpt>
      <trkpt lat="42.92742" lon="0.51065">
        <ele>847.1</ele>
        <time>2017-07-13T05:52:01Z</time>
      </trkpt>
      <trkpt lat="42.92739" lon="0.51069">
        <ele>846.9</ele>
        <time>2017-07-13T05:52:02Z</time>
      </trkpt>
      <trkpt lat="42.92736" lon="0.51073">
        <ele>846.7</ele>
        <time>2017-07-13T05:52:03Z</time>
      </trkpt>
      <trkpt lat="42.92734" lon="0.51077">
        <ele>846.6</ele>
        <time>2017-07-13T05:52:04Z</time>
      </trkpt>
      <trkpt lat="42.92731" lon="0.51081">
        <ele>846.4</ele>
        <time>2017-07-13T05:52:05Z</time>
      </trkpt>
      <trkpt lat="42.92728" lon="0.51084">
        <ele>846.6</ele>
        <time>2017-07-13T05:52:06Z</time>
      </trkpt>
      <trkpt lat="42.92725" lon="0.51088">
        <ele>847.7</ele>
        <time>2017-07-13T05:52:07Z</time>
      </trkpt>
      <trkpt lat="42.92722" lon="0.51091">
        <ele>848.6</ele>
        <time>2017-07-13T05:52:08Z</time>
      </trkpt>
      <trkpt lat="42.92719" lon="0.51095">
        <ele>849.4</ele>
        <time>2017-07-13T05:52:09Z</time>
      </trkpt>
      <trkpt lat="42.92715" lon="0.51098">
        <ele>850.2</ele>
        <time>2017-07-13T05:52:10Z</time>
      </trkpt>
      <trkpt lat="42.92712" lon="0.51101">
        <ele>850.8</ele>
        <time>2017-07-13T05:52:11Z</time>
      </trkpt>
      <trkpt lat="42.92709" lon="0.51104">
        <ele>851.3</ele>
        <time>2017-07-13T05:52:12Z</time>
      </trkpt>
      <trkpt lat="42.92706" lon="0.51106">
        <ele>851.7</ele>
        <time>2017-07-13T05:52:13Z</time>
      </trkpt>
      <trkpt lat="42.92703" lon="0.51109">
        <ele>852</ele>
        <time>2017-07-13T05:52:14Z</time>
      </trkpt>
      <trkpt lat="42.927" lon="0.51111">
        <ele>852.3</ele>
        <time>2017-07-13T05:52:15Z</time>
      </trkpt>
      <trkpt lat="42.92697" lon="0.51114">
        <ele>852.5</ele>
        <time>2017-07-13T05:52:16Z</time>
      </trkpt>
      <trkpt lat="42.92694" lon="0.51116">
        <ele>852.6</ele>
        <time>2017-07-13T05:52:17Z</time>
      </trkpt>
      <trkpt lat="42.92691" lon="0.51118">
        <ele>852.6</ele>
        <time>2017-07-13T05:52:18Z</time>
      </trkpt>
      <trkpt lat="42.92688" lon="0.51121">
        <ele>852.6</ele>
        <time>2017-07-13T05:52:19Z</time>
      </trkpt>
      <trkpt lat="42.92684" lon="0.51124">
        <ele>852.6</ele>
        <time>2017-07-13T05:52:20Z</time>
      </trkpt>
      <trkpt lat="42.92681" lon="0.51126">
        <ele>852.4</ele>
        <time>2017-07-13T05:52:21Z</time>
      </trkpt>
      <trkpt lat="42.92678" lon="0.51129">
        <ele>852.1</ele>
        <time>2017-07-13T05:52:22Z</time>
      </trkpt>
      <trkpt lat="42.92674" lon="0.51131">
        <ele>851.8</ele>
        <time>2017-07-13T05:52:23Z</time>
      </trkpt>
      <trkpt lat="42.92671" lon="0.51134">
        <ele>851.4</ele>
        <time>2017-07-13T05:52:24Z</time>
      </trkpt>
      <trkpt lat="42.92667" lon="0.51136">
        <ele>851</ele>
        <time>2017-07-13T05:52:25Z</time>
      </trkpt>
      <trkpt lat="42.92664" lon="0.51138">
        <ele>850.6</ele>
        <time>2017-07-13T05:52:26Z</time>
      </trkpt>
      <trkpt lat="42.92661" lon="0.5114">
        <ele>850.2</ele>
        <time>2017-07-13T05:52:27Z</time>
      </trkpt>
      <trkpt lat="42.92658" lon="0.51141">
        <ele>850</ele>
        <time>2017-07-13T05:52:28Z</time>
      </trkpt>
      <trkpt lat="42.92655" lon="0.51142">
        <ele>849.8</ele>
        <time>2017-07-13T05:52:29Z</time>
      </trkpt>
      <trkpt lat="42.92653" lon="0.51143">
        <ele>849.6</ele>
        <time>2017-07-13T05:52:30Z</time>
      </trkpt>
      <trkpt lat="42.9265" lon="0.51143">
        <ele>849.5</ele>
        <time>2017-07-13T05:52:31Z</time>
      </trkpt>
      <trkpt lat="42.92648" lon="0.51142">
        <ele>849.4</ele>
        <time>2017-07-13T05:52:32Z</time>
      </trkpt>
      <trkpt lat="42.92646" lon="0.51141">
        <ele>849.3</ele>
        <time>2017-07-13T05:52:33Z</time>
      </trkpt>
      <trkpt lat="42.92643" lon="0.5114">
        <ele>849.3</ele>
        <time>2017-07-13T05:52:34Z</time>
      </trkpt>
      <trkpt lat="42.9264" lon="0.5114">
        <ele>849.1</ele>
        <time>2017-07-13T05:52:35Z</time>
      </trkpt>
      <trkpt lat="42.92637" lon="0.5114">
        <ele>848.9</ele>
        <time>2017-07-13T05:52:36Z</time>
      </trkpt>
      <trkpt lat="42.92633" lon="0.51141">
        <ele>848.7</ele>
        <time>2017-07-13T05:52:37Z</time>
      </trkpt>
      <trkpt lat="42.92628" lon="0.51143">
        <ele>848.4</ele>
        <time>2017-07-13T05:52:38Z</time>
      </trkpt>
      <trkpt lat="42.92624" lon="0.51144">
        <ele>848.1</ele>
        <time>2017-07-13T05:52:39Z</time>
      </trkpt>
      <trkpt lat="42.9262" lon="0.51145">
        <ele>847.9</ele>
        <time>2017-07-13T05:52:40Z</time>
      </trkpt>
      <trkpt lat="42.92615" lon="0.51147">
        <ele>847.7</ele>
        <time>2017-07-13T05:52:41Z</time>
      </trkpt>
      <trkpt lat="42.92611" lon="0.51148">
        <ele>847.5</ele>
        <time>2017-07-13T05:52:42Z</time>
      </trkpt>
      <trkpt lat="42.92607" lon="0.51148">
        <ele>847.3</ele>
        <time>2017-07-13T05:52:43Z</time>
      </trkpt>
      <trkpt lat="42.92602" lon="0.51149">
        <ele>847.1</ele>
        <time>2017-07-13T05:52:44Z</time>
      </trkpt>
      <trkpt lat="42.92598" lon="0.51149">
        <ele>847</ele>
        <time>2017-07-13T05:52:45Z</time>
      </trkpt>
      <trkpt lat="42.92595" lon="0.51148">
        <ele>846.8</ele>
        <time>2017-07-13T05:52:46Z</time>
      </trkpt>
      <trkpt lat="42.92591" lon="0.51148">
        <ele>846.6</ele>
        <time>2017-07-13T05:52:47Z</time>
      </trkpt>
      <trkpt lat="42.92587" lon="0.51146">
        <ele>846.4</ele>
        <time>2017-07-13T05:52:48Z</time>
      </trkpt>
      <trkpt lat="42.92584" lon="0.51145">
        <ele>846.2</ele>
        <time>2017-07-13T05:52:49Z</time>
      </trkpt>
      <trkpt lat="42.9258" lon="0.51143">
        <ele>846.2</ele>
        <time>2017-07-13T05:52:50Z</time>
      </trkpt>
      <trkpt lat="42.92577" lon="0.51142">
        <ele>846.1</ele>
        <time>2017-07-13T05:52:51Z</time>
      </trkpt>
      <trkpt lat="42.92574" lon="0.5114">
        <ele>846</ele>
        <time>2017-07-13T05:52:52Z</time>
      </trkpt>
      <trkpt lat="42.92571" lon="0.51137">
        <ele>845.9</ele>
        <time>2017-07-13T05:52:53Z</time>
      </trkpt>
      <trkpt lat="42.92568" lon="0.51135">
        <ele>845.8</ele>
        <time>2017-07-13T05:52:54Z</time>
      </trkpt>
      <trkpt lat="42.92565" lon="0.51133">
        <ele>845.7</ele>
        <time>2017-07-13T05:52:55Z</time>
      </trkpt>
      <trkpt lat="42.92562" lon="0.5113">
        <ele>845.5</ele>
        <time>2017-07-13T05:52:56Z</time>
      </trkpt>
      <trkpt lat="42.92559" lon="0.51128">
        <ele>845.4</ele>
        <time>2017-07-13T05:52:57Z</time>
      </trkpt>
      <trkpt lat="42.92556" lon="0.51125">
        <ele>845.2</ele>
        <time>2017-07-13T05:52:58Z</time>
      </trkpt>
      <trkpt lat="42.92552" lon="0.51123">
        <ele>845</ele>
        <time>2017-07-13T05:52:59Z</time>
      </trkpt>
      <trkpt lat="42.92549" lon="0.5112">
        <ele>844.7</ele>
        <time>2017-07-13T05:53:00Z</time>
      </trkpt>
      <trkpt lat="42.92546" lon="0.51117">
        <ele>844.5</ele>
        <time>2017-07-13T05:53:01Z</time>
      </trkpt>
      <trkpt lat="42.92543" lon="0.51113">
        <ele>844.2</ele>
        <time>2017-07-13T05:53:02Z</time>
      </trkpt>
      <trkpt lat="42.9254" lon="0.5111">
        <ele>843.9</ele>
        <time>2017-07-13T05:53:03Z</time>
      </trkpt>
      <trkpt lat="42.92538" lon="0.51106">
        <ele>843.5</ele>
        <time>2017-07-13T05:53:04Z</time>
      </trkpt>
      <trkpt lat="42.92537" lon="0.51101">
        <ele>843.1</ele>
        <time>2017-07-13T05:53:05Z</time>
      </trkpt>
      <trkpt lat="42.92536" lon="0.51096">
        <ele>842.7</ele>
        <time>2017-07-13T05:53:06Z</time>
      </trkpt>
      <trkpt lat="42.92535" lon="0.51091">
        <ele>842.2</ele>
        <time>2017-07-13T05:53:07Z</time>
      </trkpt>
      <trkpt lat="42.92535" lon="0.51085">
        <ele>841.8</ele>
        <time>2017-07-13T05:53:08Z</time>
      </trkpt>
      <trkpt lat="42.92534" lon="0.5108">
        <ele>842.5</ele>
        <time>2017-07-13T05:53:09Z</time>
      </trkpt>
      <trkpt lat="42.92533" lon="0.51076">
        <ele>843.5</ele>
        <time>2017-07-13T05:53:10Z</time>
      </trkpt>
      <trkpt lat="42.9253" lon="0.51072">
        <ele>844.3</ele>
        <time>2017-07-13T05:53:11Z</time>
      </trkpt>
      <trkpt lat="42.92527" lon="0.5107">
        <ele>844.8</ele>
        <time>2017-07-13T05:53:12Z</time>
      </trkpt>
      <trkpt lat="42.92524" lon="0.51069">
        <ele>845.1</ele>
        <time>2017-07-13T05:53:13Z</time>
      </trkpt>
      <trkpt lat="42.9252" lon="0.51068">
        <ele>845.3</ele>
        <time>2017-07-13T05:53:14Z</time>
      </trkpt>
      <trkpt lat="42.92515" lon="0.51067">
        <ele>845.3</ele>
        <time>2017-07-13T05:53:15Z</time>
      </trkpt>
      <trkpt lat="42.92511" lon="0.51067">
        <ele>845.3</ele>
        <time>2017-07-13T05:53:16Z</time>
      </trkpt>
      <trkpt lat="42.92507" lon="0.51067">
        <ele>845.4</ele>
        <time>2017-07-13T05:53:17Z</time>
      </trkpt>
      <trkpt lat="42.92503" lon="0.51066">
        <ele>845.4</ele>
        <time>2017-07-13T05:53:18Z</time>
      </trkpt>
      <trkpt lat="42.925" lon="0.51066">
        <ele>845.5</ele>
        <time>2017-07-13T05:53:19Z</time>
      </trkpt>
      <trkpt lat="42.92496" lon="0.51066">
        <ele>846.3</ele>
        <time>2017-07-13T05:53:20Z</time>
      </trkpt>
      <trkpt lat="42.92493" lon="0.51065">
        <ele>847</ele>
        <time>2017-07-13T05:53:21Z</time>
      </trkpt>
      <trkpt lat="42.92489" lon="0.51065">
        <ele>847.8</ele>
        <time>2017-07-13T05:53:22Z</time>
      </trkpt>
      <trkpt lat="42.92486" lon="0.51065">
        <ele>848.6</ele>
        <time>2017-07-13T05:53:23Z</time>
      </trkpt>
      <trkpt lat="42.92482" lon="0.51065">
        <ele>849.4</ele>
        <time>2017-07-13T05:53:24Z</time>
      </trkpt>
      <trkpt lat="42.92479" lon="0.51064">
        <ele>850.1</ele>
        <time>2017-07-13T05:53:25Z</time>
      </trkpt>
      <trkpt lat="42.92475" lon="0.51064">
        <ele>850.8</ele>
        <time>2017-07-13T05:53:26Z</time>
      </trkpt>
      <trkpt lat="42.92472" lon="0.51064">
        <ele>851.6</ele>
        <time>2017-07-13T05:53:27Z</time>
      </trkpt>
      <trkpt lat="42.92468" lon="0.51064">
        <ele>852.2</ele>
        <time>2017-07-13T05:53:28Z</time>
      </trkpt>
      <trkpt lat="42.92465" lon="0.51064">
        <ele>852.8</ele>
        <time>2017-07-13T05:53:29Z</time>
      </trkpt>
      <trkpt lat="42.92461" lon="0.51065">
        <ele>853.4</ele>
        <time>2017-07-13T05:53:30Z</time>
      </trkpt>
      <trkpt lat="42.92458" lon="0.51065">
        <ele>853.9</ele>
        <time>2017-07-13T05:53:31Z</time>
      </trkpt>
      <trkpt lat="42.92455" lon="0.51066">
        <ele>854.3</ele>
        <time>2017-07-13T05:53:32Z</time>
      </trkpt>
      <trkpt lat="42.92452" lon="0.51066">
        <ele>854.7</ele>
        <time>2017-07-13T05:53:33Z</time>
      </trkpt>
      <trkpt lat="42.92449" lon="0.51067">
        <ele>855</ele>
        <time>2017-07-13T05:53:34Z</time>
      </trkpt>
      <trkpt lat="42.92446" lon="0.51068">
        <ele>855.3</ele>
        <time>2017-07-13T05:53:35Z</time>
      </trkpt>
      <trkpt lat="42.92443" lon="0.51069">
        <ele>855.5</ele>
        <time>2017-07-13T05:53:36Z</time>
      </trkpt>
      <trkpt lat="42.9244" lon="0.5107">
        <ele>855.7</ele>
        <time>2017-07-13T05:53:37Z</time>
      </trkpt>
      <trkpt lat="42.92437" lon="0.51071">
        <ele>855.8</ele>
        <time>2017-07-13T05:53:38Z</time>
      </trkpt>
      <trkpt lat="42.92435" lon="0.51072">
        <ele>855.8</ele>
        <time>2017-07-13T05:53:39Z</time>
      </trkpt>
      <trkpt lat="42.92432" lon="0.51074">
        <ele>855.8</ele>
        <time>2017-07-13T05:53:40Z</time>
      </trkpt>
      <trkpt lat="42.9243" lon="0.51076">
        <ele>855.6</ele>
        <time>2017-07-13T05:53:41Z</time>
      </trkpt>
      <trkpt lat="42.92428" lon="0.51077">
        <ele>855.3</ele>
        <time>2017-07-13T05:53:42Z</time>
      </trkpt>
      <trkpt lat="42.92426" lon="0.51079">
        <ele>855</ele>
        <time>2017-07-13T05:53:43Z</time>
      </trkpt>
      <trkpt lat="42.92424" lon="0.51081">
        <ele>854.5</ele>
        <time>2017-07-13T05:53:44Z</time>
      </trkpt>
      <trkpt lat="42.92422" lon="0.51084">
        <ele>854</ele>
        <time>2017-07-13T05:53:45Z</time>
      </trkpt>
      <trkpt lat="42.92421" lon="0.51086">
        <ele>854.1</ele>
        <time>2017-07-13T05:53:46Z</time>
      </trkpt>
      <trkpt lat="42.92419" lon="0.51089">
        <ele>854.1</ele>
        <time>2017-07-13T05:53:47Z</time>
      </trkpt>
      <trkpt lat="42.92417" lon="0.51091">
        <ele>854</ele>
        <time>2017-07-13T05:53:48Z</time>
      </trkpt>
      <trkpt lat="42.92416" lon="0.51094">
        <ele>854.1</ele>
        <time>2017-07-13T05:53:49Z</time>
      </trkpt>
      <trkpt lat="42.92414" lon="0.51097">
        <ele>854.3</ele>
        <time>2017-07-13T05:53:50Z</time>
      </trkpt>
      <trkpt lat="42.92412" lon="0.511">
        <ele>854.5</ele>
        <time>2017-07-13T05:53:51Z</time>
      </trkpt>
      <trkpt lat="42.9241" lon="0.51103">
        <ele>854.8</ele>
        <time>2017-07-13T05:53:52Z</time>
      </trkpt>
      <trkpt lat="42.92408" lon="0.51105">
        <ele>855.1</ele>
        <time>2017-07-13T05:53:53Z</time>
      </trkpt>
      <trkpt lat="42.92406" lon="0.51108">
        <ele>855.4</ele>
        <time>2017-07-13T05:53:54Z</time>
      </trkpt>
      <trkpt lat="42.92404" lon="0.5111">
        <ele>855.7</ele>
        <time>2017-07-13T05:53:55Z</time>
      </trkpt>
      <trkpt lat="42.92402" lon="0.51113">
        <ele>856</ele>
        <time>2017-07-13T05:53:56Z</time>
      </trkpt>
      <trkpt lat="42.924" lon="0.51115">
        <ele>856.3</ele>
        <time>2017-07-13T05:53:57Z</time>
      </trkpt>
      <trkpt lat="42.92398" lon="0.51117">
        <ele>856.7</ele>
        <time>2017-07-13T05:53:58Z</time>
      </trkpt>
      <trkpt lat="42.92396" lon="0.51118">
        <ele>857.2</ele>
        <time>2017-07-13T05:53:59Z</time>
      </trkpt>
      <trkpt lat="42.92393" lon="0.5112">
        <ele>857.8</ele>
        <time>2017-07-13T05:54:00Z</time>
      </trkpt>
      <trkpt lat="42.9239" lon="0.51121">
        <ele>858.4</ele>
        <time>2017-07-13T05:54:01Z</time>
      </trkpt>
      <trkpt lat="42.92388" lon="0.51122">
        <ele>859</ele>
        <time>2017-07-13T05:54:02Z</time>
      </trkpt>
      <trkpt lat="42.92385" lon="0.51123">
        <ele>859.6</ele>
        <time>2017-07-13T05:54:03Z</time>
      </trkpt>
      <trkpt lat="42.92383" lon="0.51124">
        <ele>860.2</ele>
        <time>2017-07-13T05:54:04Z</time>
      </trkpt>
      <trkpt lat="42.9238" lon="0.51125">
        <ele>860.8</ele>
        <time>2017-07-13T05:54:05Z</time>
      </trkpt>
      <trkpt lat="42.92377" lon="0.51126">
        <ele>861.5</ele>
        <time>2017-07-13T05:54:06Z</time>
      </trkpt>
      <trkpt lat="42.92375" lon="0.51127">
        <ele>862.1</ele>
        <time>2017-07-13T05:54:07Z</time>
      </trkpt>
      <trkpt lat="42.92372" lon="0.51127">
        <ele>862.8</ele>
        <time>2017-07-13T05:54:08Z</time>
      </trkpt>
      <trkpt lat="42.9237" lon="0.51128">
        <ele>863.5</ele>
        <time>2017-07-13T05:54:09Z</time>
      </trkpt>
      <trkpt lat="42.92367" lon="0.51128">
        <ele>864.1</ele>
        <time>2017-07-13T05:54:10Z</time>
      </trkpt>
      <trkpt lat="42.92365" lon="0.51128">
        <ele>864.8</ele>
        <time>2017-07-13T05:54:11Z</time>
      </trkpt>
      <trkpt lat="42.92362" lon="0.51128">
        <ele>865.6</ele>
        <time>2017-07-13T05:54:12Z</time>
      </trkpt>
      <trkpt lat="42.9236" lon="0.51128">
        <ele>866.3</ele>
        <time>2017-07-13T05:54:13Z</time>
      </trkpt>
      <trkpt lat="42.92357" lon="0.51128">
        <ele>867</ele>
        <time>2017-07-13T05:54:14Z</time>
      </trkpt>
      <trkpt lat="42.92355" lon="0.51128">
        <ele>867.7</ele>
        <time>2017-07-13T05:54:15Z</time>
      </trkpt>
      <trkpt lat="42.92352" lon="0.51127">
        <ele>868.5</ele>
        <time>2017-07-13T05:54:16Z</time>
      </trkpt>
      <trkpt lat="42.9235" lon="0.51127">
        <ele>869.3</ele>
        <time>2017-07-13T05:54:17Z</time>
      </trkpt>
      <trkpt lat="42.92347" lon="0.51126">
        <ele>870</ele>
        <time>2017-07-13T05:54:18Z</time>
      </trkpt>
      <trkpt lat="42.92345" lon="0.51125">
        <ele>870.8</ele>
        <time>2017-07-13T05:54:19Z</time>
      </trkpt>
      <trkpt lat="42.92342" lon="0.51124">
        <ele>871.6</ele>
        <time>2017-07-13T05:54:20Z</time>
      </trkpt>
      <trkpt lat="42.9234" lon="0.51124">
        <ele>872.3</ele>
        <time>2017-07-13T05:54:21Z</time>
      </trkpt>
      <trkpt lat="42.92337" lon="0.51123">
        <ele>873.1</ele>
        <time>2017-07-13T05:54:22Z</time>
      </trkpt>
      <trkpt lat="42.92335" lon="0.51122">
        <ele>873.9</ele>
        <time>2017-07-13T05:54:23Z</time>
      </trkpt>
      <trkpt lat="42.92333" lon="0.51121">
        <ele>874.5</ele>
        <time>2017-07-13T05:54:24Z</time>
      </trkpt>
      <trkpt lat="42.9233" lon="0.5112">
        <ele>874.8</ele>
        <time>2017-07-13T05:54:25Z</time>
      </trkpt>
      <trkpt lat="42.92328" lon="0.51119">
        <ele>875.1</ele>
        <time>2017-07-13T05:54:26Z</time>
      </trkpt>
      <trkpt lat="42.92325" lon="0.51118">
        <ele>875.4</ele>
        <time>2017-07-13T05:54:27Z</time>
      </trkpt>
      <trkpt lat="42.92323" lon="0.51117">
        <ele>875.6</ele>
        <time>2017-07-13T05:54:28Z</time>
      </trkpt>
      <trkpt lat="42.92321" lon="0.51116">
        <ele>875.9</ele>
        <time>2017-07-13T05:54:29Z</time>
      </trkpt>
      <trkpt lat="42.92319" lon="0.51115">
        <ele>876.2</ele>
        <time>2017-07-13T05:54:30Z</time>
      </trkpt>
      <trkpt lat="42.92316" lon="0.51114">
        <ele>876.5</ele>
        <time>2017-07-13T05:54:31Z</time>
      </trkpt>
      <trkpt lat="42.92314" lon="0.51113">
        <ele>876.8</ele>
        <time>2017-07-13T05:54:32Z</time>
      </trkpt>
      <trkpt lat="42.92312" lon="0.51112">
        <ele>877.1</ele>
        <time>2017-07-13T05:54:33Z</time>
      </trkpt>
      <trkpt lat="42.9231" lon="0.51111">
        <ele>877.4</ele>
        <time>2017-07-13T05:54:34Z</time>
      </trkpt>
      <trkpt lat="42.92307" lon="0.5111">
        <ele>877.7</ele>
        <time>2017-07-13T05:54:35Z</time>
      </trkpt>
      <trkpt lat="42.92305" lon="0.51109">
        <ele>878.1</ele>
        <time>2017-07-13T05:54:36Z</time>
      </trkpt>
      <trkpt lat="42.92303" lon="0.51108">
        <ele>878.4</ele>
        <time>2017-07-13T05:54:37Z</time>
      </trkpt>
      <trkpt lat="42.923" lon="0.51107">
        <ele>878.7</ele>
        <time>2017-07-13T05:54:38Z</time>
      </trkpt>
      <trkpt lat="42.92298" lon="0.51106">
        <ele>879</ele>
        <time>2017-07-13T05:54:39Z</time>
      </trkpt>
      <trkpt lat="42.92296" lon="0.51105">
        <ele>879.4</ele>
        <time>2017-07-13T05:54:40Z</time>
      </trkpt>
      <trkpt lat="42.92294" lon="0.51104">
        <ele>879.7</ele>
        <time>2017-07-13T05:54:41Z</time>
      </trkpt>
      <trkpt lat="42.92291" lon="0.51103">
        <ele>880.1</ele>
        <time>2017-07-13T05:54:42Z</time>
      </trkpt>
      <trkpt lat="42.92289" lon="0.51102">
        <ele>880.4</ele>
        <time>2017-07-13T05:54:43Z</time>
      </trkpt>
      <trkpt lat="42.92287" lon="0.51101">
        <ele>880.8</ele>
        <time>2017-07-13T05:54:44Z</time>
      </trkpt>
      <trkpt lat="42.92284" lon="0.511">
        <ele>881.2</ele>
        <time>2017-07-13T05:54:45Z</time>
      </trkpt>
      <trkpt lat="42.92282" lon="0.51098">
        <ele>881.6</ele>
        <time>2017-07-13T05:54:46Z</time>
      </trkpt>
      <trkpt lat="42.92279" lon="0.51097">
        <ele>882</ele>
        <time>2017-07-13T05:54:47Z</time>
      </trkpt>
      <trkpt lat="42.92277" lon="0.51096">
        <ele>882.4</ele>
        <time>2017-07-13T05:54:48Z</time>
      </trkpt>
      <trkpt lat="42.92275" lon="0.51094">
        <ele>882.8</ele>
        <time>2017-07-13T05:54:49Z</time>
      </trkpt>
      <trkpt lat="42.92273" lon="0.51093">
        <ele>883.2</ele>
        <time>2017-07-13T05:54:50Z</time>
      </trkpt>
      <trkpt lat="42.9227" lon="0.51091">
        <ele>883.7</ele>
        <time>2017-07-13T05:54:51Z</time>
      </trkpt>
      <trkpt lat="42.92268" lon="0.5109">
        <ele>884.1</ele>
        <time>2017-07-13T05:54:52Z</time>
      </trkpt>
      <trkpt lat="42.92266" lon="0.51088">
        <ele>884.6</ele>
        <time>2017-07-13T05:54:53Z</time>
      </trkpt>
      <trkpt lat="42.92264" lon="0.51086">
        <ele>885.1</ele>
        <time>2017-07-13T05:54:54Z</time>
      </trkpt>
      <trkpt lat="42.92262" lon="0.51084">
        <ele>885.6</ele>
        <time>2017-07-13T05:54:55Z</time>
      </trkpt>
      <trkpt lat="42.92259" lon="0.51082">
        <ele>886.5</ele>
        <time>2017-07-13T05:54:56Z</time>
      </trkpt>
      <trkpt lat="42.92257" lon="0.51081">
        <ele>887.7</ele>
        <time>2017-07-13T05:54:57Z</time>
      </trkpt>
      <trkpt lat="42.92255" lon="0.51079">
        <ele>888.8</ele>
        <time>2017-07-13T05:54:58Z</time>
      </trkpt>
      <trkpt lat="42.92253" lon="0.51077">
        <ele>890</ele>
        <time>2017-07-13T05:54:59Z</time>
      </trkpt>
      <trkpt lat="42.92251" lon="0.51075">
        <ele>891.1</ele>
        <time>2017-07-13T05:55:00Z</time>
      </trkpt>
      <trkpt lat="42.92249" lon="0.51074">
        <ele>892.2</ele>
        <time>2017-07-13T05:55:01Z</time>
      </trkpt>
      <trkpt lat="42.92246" lon="0.51072">
        <ele>893.1</ele>
        <time>2017-07-13T05:55:02Z</time>
      </trkpt>
      <trkpt lat="42.92244" lon="0.51071">
        <ele>894</ele>
        <time>2017-07-13T05:55:03Z</time>
      </trkpt>
      <trkpt lat="42.92242" lon="0.5107">
        <ele>894.8</ele>
        <time>2017-07-13T05:55:04Z</time>
      </trkpt>
      <trkpt lat="42.9224" lon="0.51069">
        <ele>895.5</ele>
        <time>2017-07-13T05:55:05Z</time>
      </trkpt>
      <trkpt lat="42.92237" lon="0.51068">
        <ele>896.2</ele>
        <time>2017-07-13T05:55:06Z</time>
      </trkpt>
      <trkpt lat="42.92235" lon="0.51067">
        <ele>896.7</ele>
        <time>2017-07-13T05:55:07Z</time>
      </trkpt>
      <trkpt lat="42.92232" lon="0.51067">
        <ele>897.1</ele>
        <time>2017-07-13T05:55:08Z</time>
      </trkpt>
      <trkpt lat="42.9223" lon="0.51067">
        <ele>897.5</ele>
        <time>2017-07-13T05:55:09Z</time>
      </trkpt>
      <trkpt lat="42.92228" lon="0.51067">
        <ele>897.7</ele>
        <time>2017-07-13T05:55:10Z</time>
      </trkpt>
      <trkpt lat="42.92225" lon="0.51067">
        <ele>897.8</ele>
        <time>2017-07-13T05:55:11Z</time>
      </trkpt>
      <trkpt lat="42.92223" lon="0.51067">
        <ele>897.9</ele>
        <time>2017-07-13T05:55:12Z</time>
      </trkpt>
      <trkpt lat="42.92221" lon="0.51068">
        <ele>897.8</ele>
        <time>2017-07-13T05:55:13Z</time>
      </trkpt>
      <trkpt lat="42.92218" lon="0.51068">
        <ele>897.8</ele>
        <time>2017-07-13T05:55:14Z</time>
      </trkpt>
      <trkpt lat="42.92216" lon="0.51069">
        <ele>897.8</ele>
        <time>2017-07-13T05:55:15Z</time>
      </trkpt>
      <trkpt lat="42.92214" lon="0.51069">
        <ele>897.8</ele>
        <time>2017-07-13T05:55:16Z</time>
      </trkpt>
      <trkpt lat="42.92212" lon="0.51069">
        <ele>898.1</ele>
        <time>2017-07-13T05:55:17Z</time>
      </trkpt>
      <trkpt lat="42.92209" lon="0.51068">
        <ele>898.5</ele>
        <time>2017-07-13T05:55:18Z</time>
      </trkpt>
      <trkpt lat="42.92207" lon="0.51068">
        <ele>899.1</ele>
        <time>2017-07-13T05:55:19Z</time>
      </trkpt>
      <trkpt lat="42.92205" lon="0.51067">
        <ele>899.6</ele>
        <time>2017-07-13T05:55:20Z</time>
      </trkpt>
      <trkpt lat="42.92202" lon="0.51066">
        <ele>900.2</ele>
        <time>2017-07-13T05:55:21Z</time>
      </trkpt>
      <trkpt lat="42.922" lon="0.51066">
        <ele>900.7</ele>
        <time>2017-07-13T05:55:22Z</time>
      </trkpt>
      <trkpt lat="42.92197" lon="0.51066">
        <ele>901</ele>
        <time>2017-07-13T05:55:23Z</time>
      </trkpt>
      <trkpt lat="42.92195" lon="0.51066">
        <ele>901.1</ele>
        <time>2017-07-13T05:55:24Z</time>
      </trkpt>
      <trkpt lat="42.92192" lon="0.51067">
        <ele>900.9</ele>
        <time>2017-07-13T05:55:25Z</time>
      </trkpt>
      <trkpt lat="42.9219" lon="0.51068">
        <ele>900.6</ele>
        <time>2017-07-13T05:55:26Z</time>
      </trkpt>
      <trkpt lat="42.92188" lon="0.51069">
        <ele>900.1</ele>
        <time>2017-07-13T05:55:27Z</time>
      </trkpt>
      <trkpt lat="42.92186" lon="0.51071">
        <ele>899.4</ele>
        <time>2017-07-13T05:55:28Z</time>
      </trkpt>
      <trkpt lat="42.92184" lon="0.51073">
        <ele>898.6</ele>
        <time>2017-07-13T05:55:29Z</time>
      </trkpt>
      <trkpt lat="42.92182" lon="0.51075">
        <ele>897.7</ele>
        <time>2017-07-13T05:55:30Z</time>
      </trkpt>
      <trkpt lat="42.92181" lon="0.51077">
        <ele>896.7</ele>
        <time>2017-07-13T05:55:31Z</time>
      </trkpt>
      <trkpt lat="42.92179" lon="0.5108">
        <ele>895.6</ele>
        <time>2017-07-13T05:55:32Z</time>
      </trkpt>
      <trkpt lat="42.92178" lon="0.51082">
        <ele>894.5</ele>
        <time>2017-07-13T05:55:33Z</time>
      </trkpt>
      <trkpt lat="42.92177" lon="0.51085">
        <ele>893.7</ele>
        <time>2017-07-13T05:55:34Z</time>
      </trkpt>
      <trkpt lat="42.92175" lon="0.51087">
        <ele>893.1</ele>
        <time>2017-07-13T05:55:35Z</time>
      </trkpt>
      <trkpt lat="42.92174" lon="0.5109">
        <ele>892.6</ele>
        <time>2017-07-13T05:55:36Z</time>
      </trkpt>
      <trkpt lat="42.92172" lon="0.51092">
        <ele>892.2</ele>
        <time>2017-07-13T05:55:37Z</time>
      </trkpt>
      <trkpt lat="42.92171" lon="0.51094">
        <ele>891.7</ele>
        <time>2017-07-13T05:55:38Z</time>
      </trkpt>
      <trkpt lat="42.92169" lon="0.51096">
        <ele>891.3</ele>
        <time>2017-07-13T05:55:39Z</time>
      </trkpt>
      <trkpt lat="42.92167" lon="0.51098">
        <ele>890.8</ele>
        <time>2017-07-13T05:55:40Z</time>
      </trkpt>
      <trkpt lat="42.92165" lon="0.511">
        <ele>891</ele>
        <time>2017-07-13T05:55:41Z</time>
      </trkpt>
      <trkpt lat="42.92163" lon="0.51102">
        <ele>891.3</ele>
        <time>2017-07-13T05:55:42Z</time>
      </trkpt>
      <trkpt lat="42.92161" lon="0.51104">
        <ele>891.6</ele>
        <time>2017-07-13T05:55:43Z</time>
      </trkpt>
      <trkpt lat="42.92159" lon="0.51106">
        <ele>891.9</ele>
        <time>2017-07-13T05:55:44Z</time>
      </trkpt>
      <trkpt lat="42.92157" lon="0.51108">
        <ele>892.2</ele>
        <time>2017-07-13T05:55:45Z</time>
      </trkpt>
      <trkpt lat="42.92155" lon="0.51109">
        <ele>892.5</ele>
        <time>2017-07-13T05:55:46Z</time>
      </trkpt>
      <trkpt lat="42.92153" lon="0.51111">
        <ele>892.7</ele>
        <time>2017-07-13T05:55:47Z</time>
      </trkpt>
      <trkpt lat="42.92151" lon="0.51113">
        <ele>893</ele>
        <time>2017-07-13T05:55:48Z</time>
      </trkpt>
      <trkpt lat="42.92148" lon="0.51114">
        <ele>893.2</ele>
        <time>2017-07-13T05:55:49Z</time>
      </trkpt>
      <trkpt lat="42.92146" lon="0.51116">
        <ele>893.5</ele>
        <time>2017-07-13T05:55:50Z</time>
      </trkpt>
      <trkpt lat="42.92144" lon="0.51118">
        <ele>893.6</ele>
        <time>2017-07-13T05:55:51Z</time>
      </trkpt>
      <trkpt lat="42.92142" lon="0.51119">
        <ele>893.7</ele>
        <time>2017-07-13T05:55:52Z</time>
      </trkpt>
      <trkpt lat="42.9214" lon="0.51121">
        <ele>893.8</ele>
        <time>2017-07-13T05:55:53Z</time>
      </trkpt>
      <trkpt lat="42.92138" lon="0.51123">
        <ele>893.8</ele>
        <time>2017-07-13T05:55:54Z</time>
      </trkpt>
      <trkpt lat="42.92136" lon="0.51125">
        <ele>893.8</ele>
        <time>2017-07-13T05:55:55Z</time>
      </trkpt>
      <trkpt lat="42.92134" lon="0.51127">
        <ele>893.7</ele>
        <time>2017-07-13T05:55:56Z</time>
      </trkpt>
      <trkpt lat="42.92132" lon="0.51129">
        <ele>893.7</ele>
        <time>2017-07-13T05:55:57Z</time>
      </trkpt>
      <trkpt lat="42.9213" lon="0.51131">
        <ele>893.5</ele>
        <time>2017-07-13T05:55:58Z</time>
      </trkpt>
      <trkpt lat="42.92128" lon="0.51133">
        <ele>893.3</ele>
        <time>2017-07-13T05:55:59Z</time>
      </trkpt>
      <trkpt lat="42.92126" lon="0.51134">
        <ele>893.2</ele>
        <time>2017-07-13T05:56:00Z</time>
      </trkpt>
      <trkpt lat="42.92124" lon="0.51136">
        <ele>893</ele>
        <time>2017-07-13T05:56:01Z</time>
      </trkpt>
      <trkpt lat="42.92122" lon="0.51138">
        <ele>892.8</ele>
        <time>2017-07-13T05:56:02Z</time>
      </trkpt>
      <trkpt lat="42.9212" lon="0.5114">
        <ele>892.7</ele>
        <time>2017-07-13T05:56:03Z</time>
      </trkpt>
      <trkpt lat="42.92119" lon="0.51141">
        <ele>892.6</ele>
        <time>2017-07-13T05:56:04Z</time>
      </trkpt>
      <trkpt lat="42.92117" lon="0.51142">
        <ele>892.6</ele>
        <time>2017-07-13T05:56:05Z</time>
      </trkpt>
      <trkpt lat="42.92115" lon="0.51143">
        <ele>892.6</ele>
        <time>2017-07-13T05:56:06Z</time>
      </trkpt>
      <trkpt lat="42.92113" lon="0.51144">
        <ele>892.7</ele>
        <time>2017-07-13T05:56:07Z</time>
      </trkpt>
      <trkpt lat="42.92111" lon="0.51145">
        <ele>893</ele>
        <time>2017-07-13T05:56:08Z</time>
      </trkpt>
      <trkpt lat="42.92109" lon="0.51145">
        <ele>893.3</ele>
        <time>2017-07-13T05:56:09Z</time>
      </trkpt>
      <trkpt lat="42.92107" lon="0.51146">
        <ele>893.6</ele>
        <time>2017-07-13T05:56:10Z</time>
      </trkpt>
      <trkpt lat="42.92105" lon="0.51146">
        <ele>894.1</ele>
        <time>2017-07-13T05:56:11Z</time>
      </trkpt>
      <trkpt lat="42.92103" lon="0.51146">
        <ele>894.5</ele>
        <time>2017-07-13T05:56:12Z</time>
      </trkpt>
      <trkpt lat="42.92101" lon="0.51146">
        <ele>895</ele>
        <time>2017-07-13T05:56:13Z</time>
      </trkpt>
      <trkpt lat="42.92099" lon="0.51146">
        <ele>895.5</ele>
        <time>2017-07-13T05:56:14Z</time>
      </trkpt>
      <trkpt lat="42.92096" lon="0.51147">
        <ele>895.9</ele>
        <time>2017-07-13T05:56:15Z</time>
      </trkpt>
      <trkpt lat="42.92094" lon="0.51147">
        <ele>896.4</ele>
        <time>2017-07-13T05:56:16Z</time>
      </trkpt>
      <trkpt lat="42.92092" lon="0.51147">
        <ele>896.8</ele>
        <time>2017-07-13T05:56:17Z</time>
      </trkpt>
      <trkpt lat="42.9209" lon="0.51147">
        <ele>897.2</ele>
        <time>2017-07-13T05:56:18Z</time>
      </trkpt>
      <trkpt lat="42.92088" lon="0.51148">
        <ele>897.6</ele>
        <time>2017-07-13T05:56:19Z</time>
      </trkpt>
      <trkpt lat="42.92086" lon="0.51148">
        <ele>897.9</ele>
        <time>2017-07-13T05:56:20Z</time>
      </trkpt>
      <trkpt lat="42.92084" lon="0.51148">
        <ele>898.2</ele>
        <time>2017-07-13T05:56:21Z</time>
      </trkpt>
      <trkpt lat="42.92082" lon="0.51149">
        <ele>898.6</ele>
        <time>2017-07-13T05:56:22Z</time>
      </trkpt>
      <trkpt lat="42.9208" lon="0.51149">
        <ele>899</ele>
        <time>2017-07-13T05:56:23Z</time>
      </trkpt>
      <trkpt lat="42.92077" lon="0.5115">
        <ele>899.4</ele>
        <time>2017-07-13T05:56:24Z</time>
      </trkpt>
      <trkpt lat="42.92075" lon="0.51151">
        <ele>899.9</ele>
        <time>2017-07-13T05:56:25Z</time>
      </trkpt>
      <trkpt lat="42.92073" lon="0.51151">
        <ele>900.3</ele>
        <time>2017-07-13T05:56:26Z</time>
      </trkpt>
      <trkpt lat="42.92071" lon="0.51152">
        <ele>900.7</ele>
        <time>2017-07-13T05:56:27Z</time>
      </trkpt>
      <trkpt lat="42.92069" lon="0.51152">
        <ele>901.2</ele>
        <time>2017-07-13T05:56:28Z</time>
      </trkpt>
      <trkpt lat="42.92067" lon="0.51153">
        <ele>901.7</ele>
        <time>2017-07-13T05:56:29Z</time>
      </trkpt>
      <trkpt lat="42.92065" lon="0.51153">
        <ele>902.2</ele>
        <time>2017-07-13T05:56:30Z</time>
      </trkpt>
      <trkpt lat="42.92063" lon="0.51153">
        <ele>902.7</ele>
        <time>2017-07-13T05:56:31Z</time>
      </trkpt>
      <trkpt lat="42.9206" lon="0.51153">
        <ele>903.4</ele>
        <time>2017-07-13T05:56:32Z</time>
      </trkpt>
      <trkpt lat="42.92058" lon="0.51154">
        <ele>904.1</ele>
        <time>2017-07-13T05:56:33Z</time>
      </trkpt>
      <trkpt lat="42.92056" lon="0.51154">
        <ele>904.8</ele>
        <time>2017-07-13T05:56:34Z</time>
      </trkpt>
      <trkpt lat="42.92054" lon="0.51154">
        <ele>905.6</ele>
        <time>2017-07-13T05:56:35Z</time>
      </trkpt>
      <trkpt lat="42.92052" lon="0.51153">
        <ele>906.4</ele>
        <time>2017-07-13T05:56:36Z</time>
      </trkpt>
      <trkpt lat="42.9205" lon="0.51153">
        <ele>907.4</ele>
        <time>2017-07-13T05:56:37Z</time>
      </trkpt>
      <trkpt lat="42.92047" lon="0.51153">
        <ele>908.3</ele>
        <time>2017-07-13T05:56:38Z</time>
      </trkpt>
      <trkpt lat="42.92045" lon="0.51152">
        <ele>909.3</ele>
        <time>2017-07-13T05:56:39Z</time>
      </trkpt>
      <trkpt lat="42.92043" lon="0.51152">
        <ele>910.4</ele>
        <time>2017-07-13T05:56:40Z</time>
      </trkpt>
      <trkpt lat="42.92041" lon="0.51151">
        <ele>911.5</ele>
        <time>2017-07-13T05:56:41Z</time>
      </trkpt>
      <trkpt lat="42.92039" lon="0.5115">
        <ele>912.6</ele>
        <time>2017-07-13T05:56:42Z</time>
      </trkpt>
      <trkpt lat="42.92036" lon="0.51149">
        <ele>913.8</ele>
        <time>2017-07-13T05:56:43Z</time>
      </trkpt>
      <trkpt lat="42.92034" lon="0.51148">
        <ele>915</ele>
        <time>2017-07-13T05:56:44Z</time>
      </trkpt>
      <trkpt lat="42.92032" lon="0.51147">
        <ele>916.2</ele>
        <time>2017-07-13T05:56:45Z</time>
      </trkpt>
      <trkpt lat="42.9203" lon="0.51146">
        <ele>917.4</ele>
        <time>2017-07-13T05:56:46Z</time>
      </trkpt>
      <trkpt lat="42.92028" lon="0.51145">
        <ele>918.7</ele>
        <time>2017-07-13T05:56:47Z</time>
      </trkpt>
      <trkpt lat="42.92026" lon="0.51144">
        <ele>919.9</ele>
        <time>2017-07-13T05:56:48Z</time>
      </trkpt>
      <trkpt lat="42.92024" lon="0.51143">
        <ele>921.1</ele>
        <time>2017-07-13T05:56:49Z</time>
      </trkpt>
      <trkpt lat="42.92021" lon="0.51142">
        <ele>922.3</ele>
        <time>2017-07-13T05:56:50Z</time>
      </trkpt>
      <trkpt lat="42.92019" lon="0.51141">
        <ele>923.5</ele>
        <time>2017-07-13T05:56:51Z</time>
      </trkpt>
      <trkpt lat="42.92017" lon="0.51141">
        <ele>924.5</ele>
        <time>2017-07-13T05:56:52Z</time>
      </trkpt>
      <trkpt lat="42.92015" lon="0.5114">
        <ele>925.5</ele>
        <time>2017-07-13T05:56:53Z</time>
      </trkpt>
      <trkpt lat="42.92012" lon="0.5114">
        <ele>926.4</ele>
        <time>2017-07-13T05:56:54Z</time>
      </trkpt>
      <trkpt lat="42.9201" lon="0.5114">
        <ele>927.3</ele>
        <time>2017-07-13T05:56:55Z</time>
      </trkpt>
      <trkpt lat="42.92008" lon="0.5114">
        <ele>928</ele>
        <time>2017-07-13T05:56:56Z</time>
      </trkpt>
      <trkpt lat="42.92006" lon="0.5114">
        <ele>928.5</ele>
        <time>2017-07-13T05:56:57Z</time>
      </trkpt>
      <trkpt lat="42.92003" lon="0.51141">
        <ele>928.9</ele>
        <time>2017-07-13T05:56:58Z</time>
      </trkpt>
      <trkpt lat="42.92001" lon="0.51142">
        <ele>929.1</ele>
        <time>2017-07-13T05:56:59Z</time>
      </trkpt>
      <trkpt lat="42.91999" lon="0.51143">
        <ele>929.1</ele>
        <time>2017-07-13T05:57:00Z</time>
      </trkpt>
      <trkpt lat="42.91998" lon="0.51145">
        <ele>928.5</ele>
        <time>2017-07-13T05:57:01Z</time>
      </trkpt>
      <trkpt lat="42.91996" lon="0.51146">
        <ele>928</ele>
        <time>2017-07-13T05:57:02Z</time>
      </trkpt>
      <trkpt lat="42.91994" lon="0.51148">
        <ele>927.4</ele>
        <time>2017-07-13T05:57:03Z</time>
      </trkpt>
      <trkpt lat="42.91992" lon="0.51149">
        <ele>926.8</ele>
        <time>2017-07-13T05:57:04Z</time>
      </trkpt>
      <trkpt lat="42.9199" lon="0.51151">
        <ele>926.2</ele>
        <time>2017-07-13T05:57:05Z</time>
      </trkpt>
      <trkpt lat="42.91988" lon="0.51153">
        <ele>925.6</ele>
        <time>2017-07-13T05:57:06Z</time>
      </trkpt>
      <trkpt lat="42.91986" lon="0.51154">
        <ele>925.1</ele>
        <time>2017-07-13T05:57:07Z</time>
      </trkpt>
      <trkpt lat="42.91984" lon="0.51155">
        <ele>924.6</ele>
        <time>2017-07-13T05:57:08Z</time>
      </trkpt>
      <trkpt lat="42.91982" lon="0.51157">
        <ele>924.2</ele>
        <time>2017-07-13T05:57:09Z</time>
      </trkpt>
      <trkpt lat="42.9198" lon="0.51158">
        <ele>923.7</ele>
        <time>2017-07-13T05:57:10Z</time>
      </trkpt>
      <trkpt lat="42.91978" lon="0.5116">
        <ele>923.1</ele>
        <time>2017-07-13T05:57:11Z</time>
      </trkpt>
      <trkpt lat="42.91976" lon="0.51161">
        <ele>922.6</ele>
        <time>2017-07-13T05:57:12Z</time>
      </trkpt>
      <trkpt lat="42.91974" lon="0.51163">
        <ele>922</ele>
        <time>2017-07-13T05:57:13Z</time>
      </trkpt>
      <trkpt lat="42.91972" lon="0.51165">
        <ele>921.4</ele>
        <time>2017-07-13T05:57:14Z</time>
      </trkpt>
      <trkpt lat="42.9197" lon="0.51166">
        <ele>920.7</ele>
        <time>2017-07-13T05:57:15Z</time>
      </trkpt>
      <trkpt lat="42.91968" lon="0.51168">
        <ele>920</ele>
        <time>2017-07-13T05:57:16Z</time>
      </trkpt>
      <trkpt lat="42.91966" lon="0.5117">
        <ele>919.3</ele>
        <time>2017-07-13T05:57:17Z</time>
      </trkpt>
      <trkpt lat="42.91965" lon="0.51173">
        <ele>918.6</ele>
        <time>2017-07-13T05:57:18Z</time>
      </trkpt>
      <trkpt lat="42.91963" lon="0.51175">
        <ele>917.8</ele>
        <time>2017-07-13T05:57:19Z</time>
      </trkpt>
      <trkpt lat="42.91961" lon="0.51177">
        <ele>917</ele>
        <time>2017-07-13T05:57:20Z</time>
      </trkpt>
      <trkpt lat="42.9196" lon="0.5118">
        <ele>916.3</ele>
        <time>2017-07-13T05:57:21Z</time>
      </trkpt>
      <trkpt lat="42.91958" lon="0.51182">
        <ele>915.6</ele>
        <time>2017-07-13T05:57:22Z</time>
      </trkpt>
      <trkpt lat="42.91956" lon="0.51184">
        <ele>915</ele>
        <time>2017-07-13T05:57:23Z</time>
      </trkpt>
      <trkpt lat="42.91954" lon="0.51186">
        <ele>914.6</ele>
        <time>2017-07-13T05:57:24Z</time>
      </trkpt>
      <trkpt lat="42.91952" lon="0.51187">
        <ele>914.4</ele>
        <time>2017-07-13T05:57:25Z</time>
      </trkpt>
      <trkpt lat="42.91949" lon="0.51188">
        <ele>914.3</ele>
        <time>2017-07-13T05:57:26Z</time>
      </trkpt>
      <trkpt lat="42.91947" lon="0.51188">
        <ele>914.4</ele>
        <time>2017-07-13T05:57:27Z</time>
      </trkpt>
      <trkpt lat="42.91944" lon="0.51188">
        <ele>914.7</ele>
        <time>2017-07-13T05:57:28Z</time>
      </trkpt>
      <trkpt lat="42.91942" lon="0.51188">
        <ele>915</ele>
        <time>2017-07-13T05:57:29Z</time>
      </trkpt>
      <trkpt lat="42.91939" lon="0.51187">
        <ele>915.4</ele>
        <time>2017-07-13T05:57:30Z</time>
      </trkpt>
      <trkpt lat="42.91936" lon="0.51187">
        <ele>916</ele>
        <time>2017-07-13T05:57:31Z</time>
      </trkpt>
      <trkpt lat="42.91933" lon="0.51186">
        <ele>916.6</ele>
        <time>2017-07-13T05:57:32Z</time>
      </trkpt>
      <trkpt lat="42.91931" lon="0.51185">
        <ele>917.3</ele>
        <time>2017-07-13T05:57:33Z</time>
      </trkpt>
      <trkpt lat="42.91928" lon="0.51183">
        <ele>918.1</ele>
        <time>2017-07-13T05:57:34Z</time>
      </trkpt>
      <trkpt lat="42.91925" lon="0.51182">
        <ele>918.8</ele>
        <time>2017-07-13T05:57:35Z</time>
      </trkpt>
      <trkpt lat="42.91922" lon="0.51181">
        <ele>919.6</ele>
        <time>2017-07-13T05:57:36Z</time>
      </trkpt>
      <trkpt lat="42.9192" lon="0.51179">
        <ele>920.3</ele>
        <time>2017-07-13T05:57:37Z</time>
      </trkpt>
      <trkpt lat="42.91917" lon="0.51178">
        <ele>921.1</ele>
        <time>2017-07-13T05:57:38Z</time>
      </trkpt>
      <trkpt lat="42.91914" lon="0.51176">
        <ele>922.4</ele>
        <time>2017-07-13T05:57:39Z</time>
      </trkpt>
      <trkpt lat="42.91911" lon="0.51175">
        <ele>923.7</ele>
        <time>2017-07-13T05:57:40Z</time>
      </trkpt>
      <trkpt lat="42.91909" lon="0.51173">
        <ele>924.9</ele>
        <time>2017-07-13T05:57:41Z</time>
      </trkpt>
      <trkpt lat="42.91906" lon="0.51172">
        <ele>926.3</ele>
        <time>2017-07-13T05:57:42Z</time>
      </trkpt>
      <trkpt lat="42.91903" lon="0.5117">
        <ele>927.6</ele>
        <time>2017-07-13T05:57:43Z</time>
      </trkpt>
      <trkpt lat="42.91901" lon="0.51169">
        <ele>928.9</ele>
        <time>2017-07-13T05:57:44Z</time>
      </trkpt>
      <trkpt lat="42.91898" lon="0.51168">
        <ele>930.1</ele>
        <time>2017-07-13T05:57:45Z</time>
      </trkpt>
      <trkpt lat="42.91895" lon="0.51168">
        <ele>931</ele>
        <time>2017-07-13T05:57:46Z</time>
      </trkpt>
      <trkpt lat="42.91892" lon="0.51169">
        <ele>931.4</ele>
        <time>2017-07-13T05:57:47Z</time>
      </trkpt>
      <trkpt lat="42.91889" lon="0.51171">
        <ele>931.5</ele>
        <time>2017-07-13T05:57:48Z</time>
      </trkpt>
      <trkpt lat="42.91886" lon="0.51173">
        <ele>931.4</ele>
        <time>2017-07-13T05:57:49Z</time>
      </trkpt>
      <trkpt lat="42.91883" lon="0.51177">
        <ele>931</ele>
        <time>2017-07-13T05:57:50Z</time>
      </trkpt>
      <trkpt lat="42.91881" lon="0.5118">
        <ele>930.5</ele>
        <time>2017-07-13T05:57:51Z</time>
      </trkpt>
      <trkpt lat="42.91878" lon="0.51184">
        <ele>929.9</ele>
        <time>2017-07-13T05:57:52Z</time>
      </trkpt>
      <trkpt lat="42.91876" lon="0.51188">
        <ele>929.2</ele>
        <time>2017-07-13T05:57:53Z</time>
      </trkpt>
      <trkpt lat="42.91873" lon="0.51192">
        <ele>928.3</ele>
        <time>2017-07-13T05:57:54Z</time>
      </trkpt>
      <trkpt lat="42.91871" lon="0.51196">
        <ele>927.4</ele>
        <time>2017-07-13T05:57:55Z</time>
      </trkpt>
      <trkpt lat="42.91869" lon="0.512">
        <ele>926.5</ele>
        <time>2017-07-13T05:57:56Z</time>
      </trkpt>
      <trkpt lat="42.91866" lon="0.51204">
        <ele>925.6</ele>
        <time>2017-07-13T05:57:57Z</time>
      </trkpt>
      <trkpt lat="42.91864" lon="0.51209">
        <ele>924.6</ele>
        <time>2017-07-13T05:57:58Z</time>
      </trkpt>
      <trkpt lat="42.91861" lon="0.51213">
        <ele>923.6</ele>
        <time>2017-07-13T05:57:59Z</time>
      </trkpt>
      <trkpt lat="42.91859" lon="0.51218">
        <ele>922.5</ele>
        <time>2017-07-13T05:58:00Z</time>
      </trkpt>
      <trkpt lat="42.91857" lon="0.51222">
        <ele>921.4</ele>
        <time>2017-07-13T05:58:01Z</time>
      </trkpt>
      <trkpt lat="42.91855" lon="0.51227">
        <ele>920.2</ele>
        <time>2017-07-13T05:58:02Z</time>
      </trkpt>
      <trkpt lat="42.91853" lon="0.51231">
        <ele>919.1</ele>
        <time>2017-07-13T05:58:03Z</time>
      </trkpt>
      <trkpt lat="42.91851" lon="0.51236">
        <ele>917.8</ele>
        <time>2017-07-13T05:58:04Z</time>
      </trkpt>
      <trkpt lat="42.91849" lon="0.51241">
        <ele>916.5</ele>
        <time>2017-07-13T05:58:05Z</time>
      </trkpt>
      <trkpt lat="42.91848" lon="0.51245">
        <ele>915.1</ele>
        <time>2017-07-13T05:58:06Z</time>
      </trkpt>
      <trkpt lat="42.91846" lon="0.5125">
        <ele>913.7</ele>
        <time>2017-07-13T05:58:07Z</time>
      </trkpt>
      <trkpt lat="42.91845" lon="0.51255">
        <ele>912.6</ele>
        <time>2017-07-13T05:58:08Z</time>
      </trkpt>
      <trkpt lat="42.91844" lon="0.5126">
        <ele>911.5</ele>
        <time>2017-07-13T05:58:09Z</time>
      </trkpt>
      <trkpt lat="42.91843" lon="0.51265">
        <ele>910.4</ele>
        <time>2017-07-13T05:58:10Z</time>
      </trkpt>
      <trkpt lat="42.91842" lon="0.5127">
        <ele>909.2</ele>
        <time>2017-07-13T05:58:11Z</time>
      </trkpt>
      <trkpt lat="42.91841" lon="0.51275">
        <ele>908</ele>
        <time>2017-07-13T05:58:12Z</time>
      </trkpt>
      <trkpt lat="42.9184" lon="0.51279">
        <ele>907</ele>
        <time>2017-07-13T05:58:13Z</time>
      </trkpt>
      <trkpt lat="42.91838" lon="0.51284">
        <ele>906.1</ele>
        <time>2017-07-13T05:58:14Z</time>
      </trkpt>
      <trkpt lat="42.91836" lon="0.51287">
        <ele>905.4</ele>
        <time>2017-07-13T05:58:15Z</time>
      </trkpt>
      <trkpt lat="42.91833" lon="0.5129">
        <ele>904.9</ele>
        <time>2017-07-13T05:58:16Z</time>
      </trkpt>
      <trkpt lat="42.9183" lon="0.51293">
        <ele>903.8</ele>
        <time>2017-07-13T05:58:17Z</time>
      </trkpt>
      <trkpt lat="42.91826" lon="0.51295">
        <ele>903.1</ele>
        <time>2017-07-13T05:58:18Z</time>
      </trkpt>
      <trkpt lat="42.91822" lon="0.51295">
        <ele>902.6</ele>
        <time>2017-07-13T05:58:19Z</time>
      </trkpt>
      <trkpt lat="42.91818" lon="0.51295">
        <ele>902.4</ele>
        <time>2017-07-13T05:58:20Z</time>
      </trkpt>
      <trkpt lat="42.91815" lon="0.51293">
        <ele>902.6</ele>
        <time>2017-07-13T05:58:21Z</time>
      </trkpt>
      <trkpt lat="42.91812" lon="0.5129">
        <ele>903.1</ele>
        <time>2017-07-13T05:58:22Z</time>
      </trkpt>
      <trkpt lat="42.9181" lon="0.51286">
        <ele>903.9</ele>
        <time>2017-07-13T05:58:23Z</time>
      </trkpt>
      <trkpt lat="42.91808" lon="0.51281">
        <ele>904.8</ele>
        <time>2017-07-13T05:58:24Z</time>
      </trkpt>
      <trkpt lat="42.91807" lon="0.51276">
        <ele>905.9</ele>
        <time>2017-07-13T05:58:25Z</time>
      </trkpt>
      <trkpt lat="42.91805" lon="0.51271">
        <ele>906.9</ele>
        <time>2017-07-13T05:58:26Z</time>
      </trkpt>
      <trkpt lat="42.91803" lon="0.51265">
        <ele>907.8</ele>
        <time>2017-07-13T05:58:27Z</time>
      </trkpt>
      <trkpt lat="42.91801" lon="0.5126">
        <ele>908.6</ele>
        <time>2017-07-13T05:58:28Z</time>
      </trkpt>
      <trkpt lat="42.91798" lon="0.51255">
        <ele>909.1</ele>
        <time>2017-07-13T05:58:29Z</time>
      </trkpt>
      <trkpt lat="42.91795" lon="0.51251">
        <ele>909.6</ele>
        <time>2017-07-13T05:58:30Z</time>
      </trkpt>
      <trkpt lat="42.91792" lon="0.51247">
        <ele>910.6</ele>
        <time>2017-07-13T05:58:31Z</time>
      </trkpt>
      <trkpt lat="42.91789" lon="0.51243">
        <ele>911.8</ele>
        <time>2017-07-13T05:58:32Z</time>
      </trkpt>
      <trkpt lat="42.91786" lon="0.51239">
        <ele>912.9</ele>
        <time>2017-07-13T05:58:33Z</time>
      </trkpt>
      <trkpt lat="42.91782" lon="0.51236">
        <ele>914</ele>
        <time>2017-07-13T05:58:34Z</time>
      </trkpt>
      <trkpt lat="42.91778" lon="0.51232">
        <ele>915</ele>
        <time>2017-07-13T05:58:35Z</time>
      </trkpt>
      <trkpt lat="42.91775" lon="0.51229">
        <ele>915.9</ele>
        <time>2017-07-13T05:58:36Z</time>
      </trkpt>
      <trkpt lat="42.91771" lon="0.51226">
        <ele>916.9</ele>
        <time>2017-07-13T05:58:37Z</time>
      </trkpt>
      <trkpt lat="42.91767" lon="0.51223">
        <ele>917.9</ele>
        <time>2017-07-13T05:58:38Z</time>
      </trkpt>
      <trkpt lat="42.91763" lon="0.5122">
        <ele>918.9</ele>
        <time>2017-07-13T05:58:39Z</time>
      </trkpt>
      <trkpt lat="42.9176" lon="0.51216">
        <ele>920</ele>
        <time>2017-07-13T05:58:40Z</time>
      </trkpt>
      <trkpt lat="42.91756" lon="0.51213">
        <ele>921.2</ele>
        <time>2017-07-13T05:58:41Z</time>
      </trkpt>
      <trkpt lat="42.91753" lon="0.5121">
        <ele>922.5</ele>
        <time>2017-07-13T05:58:42Z</time>
      </trkpt>
      <trkpt lat="42.91749" lon="0.51207">
        <ele>923.8</ele>
        <time>2017-07-13T05:58:43Z</time>
      </trkpt>
      <trkpt lat="42.91746" lon="0.51204">
        <ele>925.3</ele>
        <time>2017-07-13T05:58:44Z</time>
      </trkpt>
      <trkpt lat="42.91743" lon="0.512">
        <ele>926.7</ele>
        <time>2017-07-13T05:58:45Z</time>
      </trkpt>
      <trkpt lat="42.91739" lon="0.51197">
        <ele>928.2</ele>
        <time>2017-07-13T05:58:46Z</time>
      </trkpt>
      <trkpt lat="42.91736" lon="0.51194">
        <ele>929.6</ele>
        <time>2017-07-13T05:58:47Z</time>
      </trkpt>
      <trkpt lat="42.91733" lon="0.51191">
        <ele>930.9</ele>
        <time>2017-07-13T05:58:48Z</time>
      </trkpt>
      <trkpt lat="42.91729" lon="0.51187">
        <ele>932.2</ele>
        <time>2017-07-13T05:58:49Z</time>
      </trkpt>
      <trkpt lat="42.91726" lon="0.51184">
        <ele>933.4</ele>
        <time>2017-07-13T05:58:50Z</time>
      </trkpt>
      <trkpt lat="42.91722" lon="0.51181">
        <ele>934.6</ele>
        <time>2017-07-13T05:58:51Z</time>
      </trkpt>
      <trkpt lat="42.91718" lon="0.51178">
        <ele>935.7</ele>
        <time>2017-07-13T05:58:52Z</time>
      </trkpt>
      <trkpt lat="42.91714" lon="0.51175">
        <ele>936.7</ele>
        <time>2017-07-13T05:58:53Z</time>
      </trkpt>
      <trkpt lat="42.9171" lon="0.51172">
        <ele>937.5</ele>
        <time>2017-07-13T05:58:54Z</time>
      </trkpt>
      <trkpt lat="42.91706" lon="0.5117">
        <ele>938.1</ele>
        <time>2017-07-13T05:58:55Z</time>
      </trkpt>
      <trkpt lat="42.91702" lon="0.51168">
        <ele>938.5</ele>
        <time>2017-07-13T05:58:56Z</time>
      </trkpt>
      <trkpt lat="42.91698" lon="0.51167">
        <ele>938.7</ele>
        <time>2017-07-13T05:58:57Z</time>
      </trkpt>
      <trkpt lat="42.91694" lon="0.51166">
        <ele>938.5</ele>
        <time>2017-07-13T05:58:58Z</time>
      </trkpt>
      <trkpt lat="42.9169" lon="0.51166">
        <ele>937.9</ele>
        <time>2017-07-13T05:58:59Z</time>
      </trkpt>
      <trkpt lat="42.91686" lon="0.51168">
        <ele>936.9</ele>
        <time>2017-07-13T05:59:00Z</time>
      </trkpt>
      <trkpt lat="42.91683" lon="0.51169">
        <ele>935.7</ele>
        <time>2017-07-13T05:59:01Z</time>
      </trkpt>
      <trkpt lat="42.91679" lon="0.51172">
        <ele>934.3</ele>
        <time>2017-07-13T05:59:02Z</time>
      </trkpt>
      <trkpt lat="42.91676" lon="0.51175">
        <ele>932.8</ele>
        <time>2017-07-13T05:59:03Z</time>
      </trkpt>
      <trkpt lat="42.91673" lon="0.51177">
        <ele>931.4</ele>
        <time>2017-07-13T05:59:04Z</time>
      </trkpt>
      <trkpt lat="42.9167" lon="0.5118">
        <ele>930</ele>
        <time>2017-07-13T05:59:05Z</time>
      </trkpt>
      <trkpt lat="42.91666" lon="0.51182">
        <ele>929</ele>
        <time>2017-07-13T05:59:06Z</time>
      </trkpt>
      <trkpt lat="42.91663" lon="0.51183">
        <ele>929.2</ele>
        <time>2017-07-13T05:59:07Z</time>
      </trkpt>
      <trkpt lat="42.9166" lon="0.51185">
        <ele>929.6</ele>
        <time>2017-07-13T05:59:08Z</time>
      </trkpt>
      <trkpt lat="42.91657" lon="0.51186">
        <ele>930</ele>
        <time>2017-07-13T05:59:09Z</time>
      </trkpt>
      <trkpt lat="42.91654" lon="0.51187">
        <ele>930.5</ele>
        <time>2017-07-13T05:59:10Z</time>
      </trkpt>
      <trkpt lat="42.91651" lon="0.51187">
        <ele>931.1</ele>
        <time>2017-07-13T05:59:11Z</time>
      </trkpt>
      <trkpt lat="42.91647" lon="0.51188">
        <ele>931.6</ele>
        <time>2017-07-13T05:59:12Z</time>
      </trkpt>
      <trkpt lat="42.91644" lon="0.51189">
        <ele>932.1</ele>
        <time>2017-07-13T05:59:13Z</time>
      </trkpt>
      <trkpt lat="42.91641" lon="0.5119">
        <ele>932.6</ele>
        <time>2017-07-13T05:59:14Z</time>
      </trkpt>
      <trkpt lat="42.91638" lon="0.51191">
        <ele>933</ele>
        <time>2017-07-13T05:59:15Z</time>
      </trkpt>
      <trkpt lat="42.91635" lon="0.51192">
        <ele>933.4</ele>
        <time>2017-07-13T05:59:16Z</time>
      </trkpt>
      <trkpt lat="42.91632" lon="0.51193">
        <ele>933.7</ele>
        <time>2017-07-13T05:59:17Z</time>
      </trkpt>
      <trkpt lat="42.91629" lon="0.51194">
        <ele>933.8</ele>
        <time>2017-07-13T05:59:18Z</time>
      </trkpt>
      <trkpt lat="42.91626" lon="0.51195">
        <ele>933.8</ele>
        <time>2017-07-13T05:59:19Z</time>
      </trkpt>
      <trkpt lat="42.91623" lon="0.51197">
        <ele>933.8</ele>
        <time>2017-07-13T05:59:20Z</time>
      </trkpt>
      <trkpt lat="42.9162" lon="0.51199">
        <ele>933.7</ele>
        <time>2017-07-13T05:59:21Z</time>
      </trkpt>
      <trkpt lat="42.91617" lon="0.512">
        <ele>933.5</ele>
        <time>2017-07-13T05:59:22Z</time>
      </trkpt>
      <trkpt lat="42.91614" lon="0.51202">
        <ele>933.4</ele>
        <time>2017-07-13T05:59:23Z</time>
      </trkpt>
      <trkpt lat="42.91611" lon="0.51204">
        <ele>933.1</ele>
        <time>2017-07-13T05:59:24Z</time>
      </trkpt>
      <trkpt lat="42.91608" lon="0.51206">
        <ele>932.9</ele>
        <time>2017-07-13T05:59:25Z</time>
      </trkpt>
      <trkpt lat="42.91605" lon="0.51207">
        <ele>932.7</ele>
        <time>2017-07-13T05:59:26Z</time>
      </trkpt>
      <trkpt lat="42.91602" lon="0.51209">
        <ele>932.5</ele>
        <time>2017-07-13T05:59:27Z</time>
      </trkpt>
      <trkpt lat="42.91599" lon="0.5121">
        <ele>932.4</ele>
        <time>2017-07-13T05:59:28Z</time>
      </trkpt>
      <trkpt lat="42.91596" lon="0.51211">
        <ele>932.4</ele>
        <time>2017-07-13T05:59:29Z</time>
      </trkpt>
      <trkpt lat="42.91593" lon="0.51212">
        <ele>932.5</ele>
        <time>2017-07-13T05:59:30Z</time>
      </trkpt>
      <trkpt lat="42.9159" lon="0.51213">
        <ele>932.8</ele>
        <time>2017-07-13T05:59:31Z</time>
      </trkpt>
      <trkpt lat="42.91587" lon="0.51214">
        <ele>933</ele>
        <time>2017-07-13T05:59:32Z</time>
      </trkpt>
      <trkpt lat="42.91584" lon="0.51214">
        <ele>933.4</ele>
        <time>2017-07-13T05:59:33Z</time>
      </trkpt>
      <trkpt lat="42.91581" lon="0.51215">
        <ele>933.9</ele>
        <time>2017-07-13T05:59:34Z</time>
      </trkpt>
      <trkpt lat="42.91578" lon="0.51215">
        <ele>934.3</ele>
        <time>2017-07-13T05:59:35Z</time>
      </trkpt>
      <trkpt lat="42.91575" lon="0.51216">
        <ele>934.7</ele>
        <time>2017-07-13T05:59:36Z</time>
      </trkpt>
      <trkpt lat="42.91572" lon="0.51217">
        <ele>934.9</ele>
        <time>2017-07-13T05:59:37Z</time>
      </trkpt>
      <trkpt lat="42.9157" lon="0.51218">
        <ele>934.9</ele>
        <time>2017-07-13T05:59:38Z</time>
      </trkpt>
      <trkpt lat="42.91567" lon="0.5122">
        <ele>934.8</ele>
        <time>2017-07-13T05:59:39Z</time>
      </trkpt>
      <trkpt lat="42.91565" lon="0.51221">
        <ele>934.7</ele>
        <time>2017-07-13T05:59:40Z</time>
      </trkpt>
      <trkpt lat="42.91562" lon="0.51223">
        <ele>934.4</ele>
        <time>2017-07-13T05:59:41Z</time>
      </trkpt>
      <trkpt lat="42.9156" lon="0.51224">
        <ele>934.4</ele>
        <time>2017-07-13T05:59:42Z</time>
      </trkpt>
      <trkpt lat="42.91557" lon="0.51225">
        <ele>934.4</ele>
        <time>2017-07-13T05:59:43Z</time>
      </trkpt>
      <trkpt lat="42.91554" lon="0.51226">
        <ele>934.7</ele>
        <time>2017-07-13T05:59:44Z</time>
      </trkpt>
      <trkpt lat="42.91551" lon="0.51227">
        <ele>935.2</ele>
        <time>2017-07-13T05:59:45Z</time>
      </trkpt>
      <trkpt lat="42.91548" lon="0.51227">
        <ele>935.7</ele>
        <time>2017-07-13T05:59:46Z</time>
      </trkpt>
      <trkpt lat="42.91545" lon="0.51228">
        <ele>936.1</ele>
        <time>2017-07-13T05:59:47Z</time>
      </trkpt>
      <trkpt lat="42.91542" lon="0.51229">
        <ele>936.5</ele>
        <time>2017-07-13T05:59:48Z</time>
      </trkpt>
      <trkpt lat="42.91539" lon="0.5123">
        <ele>936.7</ele>
        <time>2017-07-13T05:59:49Z</time>
      </trkpt>
      <trkpt lat="42.91537" lon="0.51231">
        <ele>936.6</ele>
        <time>2017-07-13T05:59:50Z</time>
      </trkpt>
      <trkpt lat="42.91534" lon="0.51233">
        <ele>936.2</ele>
        <time>2017-07-13T05:59:51Z</time>
      </trkpt>
      <trkpt lat="42.91532" lon="0.51235">
        <ele>935.6</ele>
        <time>2017-07-13T05:59:52Z</time>
      </trkpt>
      <trkpt lat="42.9153" lon="0.51238">
        <ele>934.8</ele>
        <time>2017-07-13T05:59:53Z</time>
      </trkpt>
      <trkpt lat="42.91528" lon="0.5124">
        <ele>933.9</ele>
        <time>2017-07-13T05:59:54Z</time>
      </trkpt>
      <trkpt lat="42.91525" lon="0.51243">
        <ele>933.2</ele>
        <time>2017-07-13T05:59:55Z</time>
      </trkpt>
      <trkpt lat="42.91523" lon="0.51245">
        <ele>932.6</ele>
        <time>2017-07-13T05:59:56Z</time>
      </trkpt>
      <trkpt lat="42.91521" lon="0.51247">
        <ele>932.1</ele>
        <time>2017-07-13T05:59:57Z</time>
      </trkpt>
      <trkpt lat="42.91518" lon="0.51248">
        <ele>932</ele>
        <time>2017-07-13T05:59:58Z</time>
      </trkpt>
      <trkpt lat="42.91515" lon="0.51249">
        <ele>932</ele>
        <time>2017-07-13T05:59:59Z</time>
      </trkpt>
      <trkpt lat="42.91513" lon="0.5125">
        <ele>932.2</ele>
        <time>2017-07-13T06:00:00Z</time>
      </trkpt>
      <trkpt lat="42.9151" lon="0.51251">
        <ele>932.7</ele>
        <time>2017-07-13T06:00:01Z</time>
      </trkpt>
      <trkpt lat="42.91507" lon="0.51253">
        <ele>933.2</ele>
        <time>2017-07-13T06:00:02Z</time>
      </trkpt>
      <trkpt lat="42.91505" lon="0.51254">
        <ele>933.5</ele>
        <time>2017-07-13T06:00:03Z</time>
      </trkpt>
      <trkpt lat="42.91502" lon="0.51255">
        <ele>933.9</ele>
        <time>2017-07-13T06:00:04Z</time>
      </trkpt>
      <trkpt lat="42.91499" lon="0.51256">
        <ele>934.3</ele>
        <time>2017-07-13T06:00:05Z</time>
      </trkpt>
      <trkpt lat="42.91496" lon="0.51258">
        <ele>934.7</ele>
        <time>2017-07-13T06:00:06Z</time>
      </trkpt>
      <trkpt lat="42.91494" lon="0.51259">
        <ele>935</ele>
        <time>2017-07-13T06:00:07Z</time>
      </trkpt>
      <trkpt lat="42.91491" lon="0.51261">
        <ele>935.3</ele>
        <time>2017-07-13T06:00:08Z</time>
      </trkpt>
      <trkpt lat="42.91489" lon="0.51262">
        <ele>935.6</ele>
        <time>2017-07-13T06:00:09Z</time>
      </trkpt>
      <trkpt lat="42.91486" lon="0.51264">
        <ele>935.9</ele>
        <time>2017-07-13T06:00:10Z</time>
      </trkpt>
      <trkpt lat="42.91484" lon="0.51266">
        <ele>936.1</ele>
        <time>2017-07-13T06:00:11Z</time>
      </trkpt>
      <trkpt lat="42.91481" lon="0.51267">
        <ele>936.4</ele>
        <time>2017-07-13T06:00:12Z</time>
      </trkpt>
      <trkpt lat="42.91479" lon="0.51269">
        <ele>936.7</ele>
        <time>2017-07-13T06:00:13Z</time>
      </trkpt>
      <trkpt lat="42.91477" lon="0.5127">
        <ele>937.1</ele>
        <time>2017-07-13T06:00:14Z</time>
      </trkpt>
      <trkpt lat="42.91474" lon="0.51271">
        <ele>937.5</ele>
        <time>2017-07-13T06:00:15Z</time>
      </trkpt>
      <trkpt lat="42.91472" lon="0.51272">
        <ele>938</ele>
        <time>2017-07-13T06:00:16Z</time>
      </trkpt>
      <trkpt lat="42.91469" lon="0.51273">
        <ele>938.7</ele>
        <time>2017-07-13T06:00:17Z</time>
      </trkpt>
      <trkpt lat="42.91467" lon="0.51273">
        <ele>939.3</ele>
        <time>2017-07-13T06:00:18Z</time>
      </trkpt>
      <trkpt lat="42.91464" lon="0.51273">
        <ele>940</ele>
        <time>2017-07-13T06:00:19Z</time>
      </trkpt>
      <trkpt lat="42.91461" lon="0.51274">
        <ele>940.8</ele>
        <time>2017-07-13T06:00:20Z</time>
      </trkpt>
      <trkpt lat="42.91459" lon="0.51274">
        <ele>941.5</ele>
        <time>2017-07-13T06:00:21Z</time>
      </trkpt>
      <trkpt lat="42.91456" lon="0.51275">
        <ele>942.2</ele>
        <time>2017-07-13T06:00:22Z</time>
      </trkpt>
      <trkpt lat="42.91453" lon="0.51276">
        <ele>943</ele>
        <time>2017-07-13T06:00:23Z</time>
      </trkpt>
      <trkpt lat="42.9145" lon="0.51277">
        <ele>943.6</ele>
        <time>2017-07-13T06:00:24Z</time>
      </trkpt>
      <trkpt lat="42.91447" lon="0.51278">
        <ele>944.2</ele>
        <time>2017-07-13T06:00:25Z</time>
      </trkpt>
      <trkpt lat="42.91444" lon="0.51279">
        <ele>944.7</ele>
        <time>2017-07-13T06:00:26Z</time>
      </trkpt>
      <trkpt lat="42.91442" lon="0.5128">
        <ele>945.2</ele>
        <time>2017-07-13T06:00:27Z</time>
      </trkpt>
      <trkpt lat="42.91439" lon="0.51282">
        <ele>945.6</ele>
        <time>2017-07-13T06:00:28Z</time>
      </trkpt>
      <trkpt lat="42.91437" lon="0.51284">
        <ele>945.8</ele>
        <time>2017-07-13T06:00:29Z</time>
      </trkpt>
      <trkpt lat="42.91434" lon="0.51286">
        <ele>946</ele>
        <time>2017-07-13T06:00:30Z</time>
      </trkpt>
      <trkpt lat="42.91432" lon="0.51288">
        <ele>946</ele>
        <time>2017-07-13T06:00:31Z</time>
      </trkpt>
      <trkpt lat="42.91431" lon="0.5129">
        <ele>945.9</ele>
        <time>2017-07-13T06:00:32Z</time>
      </trkpt>
      <trkpt lat="42.91429" lon="0.51293">
        <ele>945.6</ele>
        <time>2017-07-13T06:00:33Z</time>
      </trkpt>
      <trkpt lat="42.91428" lon="0.51296">
        <ele>945.1</ele>
        <time>2017-07-13T06:00:34Z</time>
      </trkpt>
      <trkpt lat="42.91427" lon="0.51299">
        <ele>944.5</ele>
        <time>2017-07-13T06:00:35Z</time>
      </trkpt>
      <trkpt lat="42.91427" lon="0.51302">
        <ele>943.7</ele>
        <time>2017-07-13T06:00:36Z</time>
      </trkpt>
      <trkpt lat="42.91426" lon="0.51306">
        <ele>942.8</ele>
        <time>2017-07-13T06:00:37Z</time>
      </trkpt>
      <trkpt lat="42.91426" lon="0.51309">
        <ele>941.8</ele>
        <time>2017-07-13T06:00:38Z</time>
      </trkpt>
      <trkpt lat="42.91426" lon="0.51313">
        <ele>940.7</ele>
        <time>2017-07-13T06:00:39Z</time>
      </trkpt>
      <trkpt lat="42.91427" lon="0.51316">
        <ele>939.6</ele>
        <time>2017-07-13T06:00:40Z</time>
      </trkpt>
      <trkpt lat="42.91427" lon="0.51319">
        <ele>938.6</ele>
        <time>2017-07-13T06:00:41Z</time>
      </trkpt>
      <trkpt lat="42.91427" lon="0.51322">
        <ele>937.6</ele>
        <time>2017-07-13T06:00:42Z</time>
      </trkpt>
      <trkpt lat="42.91428" lon="0.51325">
        <ele>936.6</ele>
        <time>2017-07-13T06:00:43Z</time>
      </trkpt>
      <trkpt lat="42.91429" lon="0.51327">
        <ele>935.7</ele>
        <time>2017-07-13T06:00:44Z</time>
      </trkpt>
      <trkpt lat="42.91429" lon="0.5133">
        <ele>934.8</ele>
        <time>2017-07-13T06:00:45Z</time>
      </trkpt>
      <trkpt lat="42.9143" lon="0.51332">
        <ele>933.9</ele>
        <time>2017-07-13T06:00:46Z</time>
      </trkpt>
      <trkpt lat="42.9143" lon="0.51334">
        <ele>933.2</ele>
        <time>2017-07-13T06:00:47Z</time>
      </trkpt>
      <trkpt lat="42.91431" lon="0.51336">
        <ele>932.7</ele>
        <time>2017-07-13T06:00:48Z</time>
      </trkpt>
      <trkpt lat="42.91432" lon="0.51338">
        <ele>932.4</ele>
        <time>2017-07-13T06:00:49Z</time>
      </trkpt>
      <trkpt lat="42.91432" lon="0.5134">
        <ele>932.1</ele>
        <time>2017-07-13T06:00:50Z</time>
      </trkpt>
      <trkpt lat="42.91432" lon="0.51342">
        <ele>931.8</ele>
        <time>2017-07-13T06:00:51Z</time>
      </trkpt>
      <trkpt lat="42.91432" lon="0.51344">
        <ele>931.7</ele>
        <time>2017-07-13T06:00:52Z</time>
      </trkpt>
      <trkpt lat="42.91431" lon="0.51346">
        <ele>931.8</ele>
        <time>2017-07-13T06:00:53Z</time>
      </trkpt>
      <trkpt lat="42.9143" lon="0.51349">
        <ele>931.9</ele>
        <time>2017-07-13T06:00:54Z</time>
      </trkpt>
      <trkpt lat="42.91428" lon="0.51351">
        <ele>932.3</ele>
        <time>2017-07-13T06:00:55Z</time>
      </trkpt>
      <trkpt lat="42.91425" lon="0.51353">
        <ele>932.7</ele>
        <time>2017-07-13T06:00:56Z</time>
      </trkpt>
      <trkpt lat="42.91423" lon="0.51354">
        <ele>933.2</ele>
        <time>2017-07-13T06:00:57Z</time>
      </trkpt>
      <trkpt lat="42.9142" lon="0.51356">
        <ele>933.7</ele>
        <time>2017-07-13T06:00:58Z</time>
      </trkpt>
      <trkpt lat="42.91417" lon="0.51357">
        <ele>934.3</ele>
        <time>2017-07-13T06:00:59Z</time>
      </trkpt>
      <trkpt lat="42.91414" lon="0.51357">
        <ele>935.2</ele>
        <time>2017-07-13T06:01:00Z</time>
      </trkpt>
      <trkpt lat="42.91412" lon="0.51357">
        <ele>936.1</ele>
        <time>2017-07-13T06:01:01Z</time>
      </trkpt>
      <trkpt lat="42.91409" lon="0.51356">
        <ele>937</ele>
        <time>2017-07-13T06:01:02Z</time>
      </trkpt>
      <trkpt lat="42.91407" lon="0.51356">
        <ele>938</ele>
        <time>2017-07-13T06:01:03Z</time>
      </trkpt>
      <trkpt lat="42.91404" lon="0.51355">
        <ele>939</ele>
        <time>2017-07-13T06:01:04Z</time>
      </trkpt>
      <trkpt lat="42.91402" lon="0.51354">
        <ele>940</ele>
        <time>2017-07-13T06:01:05Z</time>
      </trkpt>
      <trkpt lat="42.914" lon="0.51352">
        <ele>941</ele>
        <time>2017-07-13T06:01:06Z</time>
      </trkpt>
      <trkpt lat="42.91398" lon="0.51351">
        <ele>941.9</ele>
        <time>2017-07-13T06:01:07Z</time>
      </trkpt>
      <trkpt lat="42.91396" lon="0.5135">
        <ele>943</ele>
        <time>2017-07-13T06:01:08Z</time>
      </trkpt>
      <trkpt lat="42.91394" lon="0.51349">
        <ele>943.9</ele>
        <time>2017-07-13T06:01:09Z</time>
      </trkpt>
      <trkpt lat="42.91392" lon="0.51348">
        <ele>944.9</ele>
        <time>2017-07-13T06:01:10Z</time>
      </trkpt>
      <trkpt lat="42.9139" lon="0.51347">
        <ele>945.9</ele>
        <time>2017-07-13T06:01:11Z</time>
      </trkpt>
      <trkpt lat="42.91388" lon="0.51346">
        <ele>946.9</ele>
        <time>2017-07-13T06:01:12Z</time>
      </trkpt>
      <trkpt lat="42.91386" lon="0.51345">
        <ele>947.9</ele>
        <time>2017-07-13T06:01:13Z</time>
      </trkpt>
      <trkpt lat="42.91384" lon="0.51344">
        <ele>948.9</ele>
        <time>2017-07-13T06:01:14Z</time>
      </trkpt>
      <trkpt lat="42.91382" lon="0.51343">
        <ele>950</ele>
        <time>2017-07-13T06:01:15Z</time>
      </trkpt>
      <trkpt lat="42.9138" lon="0.51342">
        <ele>951</ele>
        <time>2017-07-13T06:01:16Z</time>
      </trkpt>
      <trkpt lat="42.91378" lon="0.51341">
        <ele>952.1</ele>
        <time>2017-07-13T06:01:17Z</time>
      </trkpt>
      <trkpt lat="42.91376" lon="0.51341">
        <ele>953.1</ele>
        <time>2017-07-13T06:01:18Z</time>
      </trkpt>
      <trkpt lat="42.91374" lon="0.5134">
        <ele>954.2</ele>
        <time>2017-07-13T06:01:19Z</time>
      </trkpt>
      <trkpt lat="42.91372" lon="0.51339">
        <ele>955.2</ele>
        <time>2017-07-13T06:01:20Z</time>
      </trkpt>
      <trkpt lat="42.9137" lon="0.51338">
        <ele>956.3</ele>
        <time>2017-07-13T06:01:21Z</time>
      </trkpt>
      <trkpt lat="42.91368" lon="0.51337">
        <ele>957.3</ele>
        <time>2017-07-13T06:01:22Z</time>
      </trkpt>
      <trkpt lat="42.91366" lon="0.51337">
        <ele>958.3</ele>
        <time>2017-07-13T06:01:23Z</time>
      </trkpt>
      <trkpt lat="42.91364" lon="0.51336">
        <ele>959.4</ele>
        <time>2017-07-13T06:01:24Z</time>
      </trkpt>
      <trkpt lat="42.91362" lon="0.51335">
        <ele>960.4</ele>
        <time>2017-07-13T06:01:25Z</time>
      </trkpt>
      <trkpt lat="42.9136" lon="0.51335">
        <ele>961.4</ele>
        <time>2017-07-13T06:01:26Z</time>
      </trkpt>
      <trkpt lat="42.91358" lon="0.51334">
        <ele>962.5</ele>
        <time>2017-07-13T06:01:27Z</time>
      </trkpt>
      <trkpt lat="42.91356" lon="0.51334">
        <ele>963.5</ele>
        <time>2017-07-13T06:01:28Z</time>
      </trkpt>
      <trkpt lat="42.91354" lon="0.51333">
        <ele>964.5</ele>
        <time>2017-07-13T06:01:29Z</time>
      </trkpt>
      <trkpt lat="42.91352" lon="0.51333">
        <ele>965.5</ele>
        <time>2017-07-13T06:01:30Z</time>
      </trkpt>
      <trkpt lat="42.9135" lon="0.51333">
        <ele>966.4</ele>
        <time>2017-07-13T06:01:31Z</time>
      </trkpt>
      <trkpt lat="42.91347" lon="0.51333">
        <ele>967.3</ele>
        <time>2017-07-13T06:01:32Z</time>
      </trkpt>
      <trkpt lat="42.91345" lon="0.51333">
        <ele>968.2</ele>
        <time>2017-07-13T06:01:33Z</time>
      </trkpt>
      <trkpt lat="42.91343" lon="0.51333">
        <ele>969</ele>
        <time>2017-07-13T06:01:34Z</time>
      </trkpt>
      <trkpt lat="42.91341" lon="0.51333">
        <ele>969.8</ele>
        <time>2017-07-13T06:01:35Z</time>
      </trkpt>
      <trkpt lat="42.91339" lon="0.51334">
        <ele>970.4</ele>
        <time>2017-07-13T06:01:36Z</time>
      </trkpt>
      <trkpt lat="42.91337" lon="0.51334">
        <ele>971.1</ele>
        <time>2017-07-13T06:01:37Z</time>
      </trkpt>
      <trkpt lat="42.91335" lon="0.51335">
        <ele>971.6</ele>
        <time>2017-07-13T06:01:38Z</time>
      </trkpt>
      <trkpt lat="42.91333" lon="0.51336">
        <ele>972.1</ele>
        <time>2017-07-13T06:01:39Z</time>
      </trkpt>
      <trkpt lat="42.91331" lon="0.51337">
        <ele>972.9</ele>
        <time>2017-07-13T06:01:40Z</time>
      </trkpt>
      <trkpt lat="42.91329" lon="0.51339">
        <ele>973.5</ele>
        <time>2017-07-13T06:01:41Z</time>
      </trkpt>
      <trkpt lat="42.91327" lon="0.5134">
        <ele>974.1</ele>
        <time>2017-07-13T06:01:42Z</time>
      </trkpt>
      <trkpt lat="42.91325" lon="0.51342">
        <ele>974.4</ele>
        <time>2017-07-13T06:01:43Z</time>
      </trkpt>
      <trkpt lat="42.91324" lon="0.51343">
        <ele>974.6</ele>
        <time>2017-07-13T06:01:44Z</time>
      </trkpt>
      <trkpt lat="42.91322" lon="0.51345">
        <ele>974.5</ele>
        <time>2017-07-13T06:01:45Z</time>
      </trkpt>
      <trkpt lat="42.91321" lon="0.51347">
        <ele>974.5</ele>
        <time>2017-07-13T06:01:46Z</time>
      </trkpt>
      <trkpt lat="42.9132" lon="0.5135">
        <ele>974.3</ele>
        <time>2017-07-13T06:01:47Z</time>
      </trkpt>
      <trkpt lat="42.91319" lon="0.51352">
        <ele>973.9</ele>
        <time>2017-07-13T06:01:48Z</time>
      </trkpt>
      <trkpt lat="42.91317" lon="0.51354">
        <ele>973.7</ele>
        <time>2017-07-13T06:01:49Z</time>
      </trkpt>
      <trkpt lat="42.91316" lon="0.51356">
        <ele>973.4</ele>
        <time>2017-07-13T06:01:50Z</time>
      </trkpt>
      <trkpt lat="42.91315" lon="0.51358">
        <ele>973.3</ele>
        <time>2017-07-13T06:01:51Z</time>
      </trkpt>
      <trkpt lat="42.91314" lon="0.5136">
        <ele>973.2</ele>
        <time>2017-07-13T06:01:52Z</time>
      </trkpt>
      <trkpt lat="42.91313" lon="0.51361">
        <ele>973.2</ele>
        <time>2017-07-13T06:01:53Z</time>
      </trkpt>
      <trkpt lat="42.91311" lon="0.51363">
        <ele>973.2</ele>
        <time>2017-07-13T06:01:54Z</time>
      </trkpt>
      <trkpt lat="42.9131" lon="0.51365">
        <ele>973.2</ele>
        <time>2017-07-13T06:01:55Z</time>
      </trkpt>
      <trkpt lat="42.91309" lon="0.51367">
        <ele>973.2</ele>
        <time>2017-07-13T06:01:56Z</time>
      </trkpt>
      <trkpt lat="42.91307" lon="0.51369">
        <ele>973.3</ele>
        <time>2017-07-13T06:01:57Z</time>
      </trkpt>
      <trkpt lat="42.91305" lon="0.5137">
        <ele>973.4</ele>
        <time>2017-07-13T06:01:58Z</time>
      </trkpt>
      <trkpt lat="42.91304" lon="0.51372">
        <ele>973.5</ele>
        <time>2017-07-13T06:01:59Z</time>
      </trkpt>
      <trkpt lat="42.91302" lon="0.51374">
        <ele>973.7</ele>
        <time>2017-07-13T06:02:00Z</time>
      </trkpt>
      <trkpt lat="42.913" lon="0.51376">
        <ele>974</ele>
        <time>2017-07-13T06:02:01Z</time>
      </trkpt>
      <trkpt lat="42.91298" lon="0.51377">
        <ele>974.2</ele>
        <time>2017-07-13T06:02:02Z</time>
      </trkpt>
      <trkpt lat="42.91297" lon="0.51379">
        <ele>974.5</ele>
        <time>2017-07-13T06:02:03Z</time>
      </trkpt>
      <trkpt lat="42.91295" lon="0.51381">
        <ele>975</ele>
        <time>2017-07-13T06:02:04Z</time>
      </trkpt>
      <trkpt lat="42.91293" lon="0.51382">
        <ele>975.4</ele>
        <time>2017-07-13T06:02:05Z</time>
      </trkpt>
      <trkpt lat="42.91291" lon="0.51383">
        <ele>975.9</ele>
        <time>2017-07-13T06:02:06Z</time>
      </trkpt>
      <trkpt lat="42.91289" lon="0.51385">
        <ele>976.4</ele>
        <time>2017-07-13T06:02:07Z</time>
      </trkpt>
      <trkpt lat="42.91287" lon="0.51386">
        <ele>977</ele>
        <time>2017-07-13T06:02:08Z</time>
      </trkpt>
      <trkpt lat="42.91285" lon="0.51387">
        <ele>977.4</ele>
        <time>2017-07-13T06:02:09Z</time>
      </trkpt>
      <trkpt lat="42.91283" lon="0.51388">
        <ele>978</ele>
        <time>2017-07-13T06:02:10Z</time>
      </trkpt>
      <trkpt lat="42.91281" lon="0.5139">
        <ele>978.5</ele>
        <time>2017-07-13T06:02:11Z</time>
      </trkpt>
      <trkpt lat="42.91279" lon="0.51391">
        <ele>979</ele>
        <time>2017-07-13T06:02:12Z</time>
      </trkpt>
      <trkpt lat="42.91278" lon="0.51392">
        <ele>979.3</ele>
        <time>2017-07-13T06:02:13Z</time>
      </trkpt>
      <trkpt lat="42.91276" lon="0.51394">
        <ele>979.5</ele>
        <time>2017-07-13T06:02:14Z</time>
      </trkpt>
      <trkpt lat="42.91275" lon="0.51395">
        <ele>979.6</ele>
        <time>2017-07-13T06:02:15Z</time>
      </trkpt>
      <trkpt lat="42.91273" lon="0.51397">
        <ele>979.4</ele>
        <time>2017-07-13T06:02:16Z</time>
      </trkpt>
      <trkpt lat="42.91272" lon="0.51399">
        <ele>979.1</ele>
        <time>2017-07-13T06:02:17Z</time>
      </trkpt>
      <trkpt lat="42.91271" lon="0.51401">
        <ele>978.7</ele>
        <time>2017-07-13T06:02:18Z</time>
      </trkpt>
      <trkpt lat="42.9127" lon="0.51404">
        <ele>978.2</ele>
        <time>2017-07-13T06:02:19Z</time>
      </trkpt>
      <trkpt lat="42.91269" lon="0.51406">
        <ele>977.7</ele>
        <time>2017-07-13T06:02:20Z</time>
      </trkpt>
      <trkpt lat="42.91268" lon="0.51408">
        <ele>977.2</ele>
        <time>2017-07-13T06:02:21Z</time>
      </trkpt>
      <trkpt lat="42.91267" lon="0.51411">
        <ele>976.9</ele>
        <time>2017-07-13T06:02:22Z</time>
      </trkpt>
      <trkpt lat="42.91265" lon="0.51413">
        <ele>976.5</ele>
        <time>2017-07-13T06:02:23Z</time>
      </trkpt>
      <trkpt lat="42.91264" lon="0.51415">
        <ele>976.3</ele>
        <time>2017-07-13T06:02:24Z</time>
      </trkpt>
      <trkpt lat="42.91262" lon="0.51417">
        <ele>976.1</ele>
        <time>2017-07-13T06:02:25Z</time>
      </trkpt>
      <trkpt lat="42.91261" lon="0.5142">
        <ele>976.3</ele>
        <time>2017-07-13T06:02:26Z</time>
      </trkpt>
      <trkpt lat="42.91259" lon="0.51422">
        <ele>976.4</ele>
        <time>2017-07-13T06:02:27Z</time>
      </trkpt>
      <trkpt lat="42.91258" lon="0.51425">
        <ele>976.3</ele>
        <time>2017-07-13T06:02:28Z</time>
      </trkpt>
      <trkpt lat="42.91257" lon="0.51427">
        <ele>976</ele>
        <time>2017-07-13T06:02:29Z</time>
      </trkpt>
      <trkpt lat="42.91256" lon="0.5143">
        <ele>975.6</ele>
        <time>2017-07-13T06:02:30Z</time>
      </trkpt>
      <trkpt lat="42.91255" lon="0.51433">
        <ele>975.1</ele>
        <time>2017-07-13T06:02:31Z</time>
      </trkpt>
      <trkpt lat="42.91254" lon="0.51436">
        <ele>974.4</ele>
        <time>2017-07-13T06:02:32Z</time>
      </trkpt>
      <trkpt lat="42.91253" lon="0.51439">
        <ele>973.6</ele>
        <time>2017-07-13T06:02:33Z</time>
      </trkpt>
      <trkpt lat="42.91253" lon="0.51443">
        <ele>972.8</ele>
        <time>2017-07-13T06:02:34Z</time>
      </trkpt>
      <trkpt lat="42.91252" lon="0.51446">
        <ele>972</ele>
        <time>2017-07-13T06:02:35Z</time>
      </trkpt>
      <trkpt lat="42.91252" lon="0.51449">
        <ele>971.1</ele>
        <time>2017-07-13T06:02:36Z</time>
      </trkpt>
      <trkpt lat="42.91251" lon="0.51452">
        <ele>970.3</ele>
        <time>2017-07-13T06:02:37Z</time>
      </trkpt>
      <trkpt lat="42.9125" lon="0.51455">
        <ele>969.4</ele>
        <time>2017-07-13T06:02:38Z</time>
      </trkpt>
      <trkpt lat="42.9125" lon="0.51459">
        <ele>968.6</ele>
        <time>2017-07-13T06:02:39Z</time>
      </trkpt>
      <trkpt lat="42.91249" lon="0.51462">
        <ele>967.9</ele>
        <time>2017-07-13T06:02:40Z</time>
      </trkpt>
      <trkpt lat="42.91248" lon="0.51465">
        <ele>967.2</ele>
        <time>2017-07-13T06:02:41Z</time>
      </trkpt>
      <trkpt lat="42.91246" lon="0.51467">
        <ele>966.6</ele>
        <time>2017-07-13T06:02:42Z</time>
      </trkpt>
      <trkpt lat="42.91245" lon="0.5147">
        <ele>966.1</ele>
        <time>2017-07-13T06:02:43Z</time>
      </trkpt>
      <trkpt lat="42.91244" lon="0.51473">
        <ele>965.7</ele>
        <time>2017-07-13T06:02:44Z</time>
      </trkpt>
      <trkpt lat="42.91242" lon="0.51475">
        <ele>965.4</ele>
        <time>2017-07-13T06:02:45Z</time>
      </trkpt>
      <trkpt lat="42.9124" lon="0.51477">
        <ele>965.1</ele>
        <time>2017-07-13T06:02:46Z</time>
      </trkpt>
      <trkpt lat="42.91238" lon="0.5148">
        <ele>964.9</ele>
        <time>2017-07-13T06:02:47Z</time>
      </trkpt>
      <trkpt lat="42.91236" lon="0.51481">
        <ele>964.8</ele>
        <time>2017-07-13T06:02:48Z</time>
      </trkpt>
      <trkpt lat="42.91234" lon="0.51483">
        <ele>964.8</ele>
        <time>2017-07-13T06:02:49Z</time>
      </trkpt>
      <trkpt lat="42.91232" lon="0.51485">
        <ele>964.9</ele>
        <time>2017-07-13T06:02:50Z</time>
      </trkpt>
      <trkpt lat="42.9123" lon="0.51486">
        <ele>965.1</ele>
        <time>2017-07-13T06:02:51Z</time>
      </trkpt>
      <trkpt lat="42.91227" lon="0.51487">
        <ele>965.4</ele>
        <time>2017-07-13T06:02:52Z</time>
      </trkpt>
      <trkpt lat="42.91225" lon="0.51488">
        <ele>965.8</ele>
        <time>2017-07-13T06:02:53Z</time>
      </trkpt>
      <trkpt lat="42.91222" lon="0.51489">
        <ele>966.3</ele>
        <time>2017-07-13T06:02:54Z</time>
      </trkpt>
      <trkpt lat="42.9122" lon="0.51489">
        <ele>967</ele>
        <time>2017-07-13T06:02:55Z</time>
      </trkpt>
      <trkpt lat="42.91217" lon="0.51489">
        <ele>967.7</ele>
        <time>2017-07-13T06:02:56Z</time>
      </trkpt>
      <trkpt lat="42.91214" lon="0.51489">
        <ele>968.5</ele>
        <time>2017-07-13T06:02:57Z</time>
      </trkpt>
      <trkpt lat="42.91211" lon="0.51489">
        <ele>969.3</ele>
        <time>2017-07-13T06:02:58Z</time>
      </trkpt>
      <trkpt lat="42.91209" lon="0.51489">
        <ele>970.2</ele>
        <time>2017-07-13T06:02:59Z</time>
      </trkpt>
      <trkpt lat="42.91206" lon="0.51489">
        <ele>971.2</ele>
        <time>2017-07-13T06:03:00Z</time>
      </trkpt>
      <trkpt lat="42.91203" lon="0.51489">
        <ele>972.2</ele>
        <time>2017-07-13T06:03:01Z</time>
      </trkpt>
      <trkpt lat="42.912" lon="0.51488">
        <ele>973.2</ele>
        <time>2017-07-13T06:03:02Z</time>
      </trkpt>
      <trkpt lat="42.91198" lon="0.51488">
        <ele>974.1</ele>
        <time>2017-07-13T06:03:03Z</time>
      </trkpt>
      <trkpt lat="42.91195" lon="0.51488">
        <ele>975</ele>
        <time>2017-07-13T06:03:04Z</time>
      </trkpt>
      <trkpt lat="42.91192" lon="0.51488">
        <ele>975.9</ele>
        <time>2017-07-13T06:03:05Z</time>
      </trkpt>
      <trkpt lat="42.9119" lon="0.51487">
        <ele>976.7</ele>
        <time>2017-07-13T06:03:06Z</time>
      </trkpt>
      <trkpt lat="42.91188" lon="0.51487">
        <ele>977.5</ele>
        <time>2017-07-13T06:03:07Z</time>
      </trkpt>
      <trkpt lat="42.91185" lon="0.51487">
        <ele>978.1</ele>
        <time>2017-07-13T06:03:08Z</time>
      </trkpt>
      <trkpt lat="42.91183" lon="0.51487">
        <ele>978.7</ele>
        <time>2017-07-13T06:03:09Z</time>
      </trkpt>
      <trkpt lat="42.91181" lon="0.51488">
        <ele>979.3</ele>
        <time>2017-07-13T06:03:10Z</time>
      </trkpt>
      <trkpt lat="42.91179" lon="0.51488">
        <ele>979.8</ele>
        <time>2017-07-13T06:03:11Z</time>
      </trkpt>
      <trkpt lat="42.91177" lon="0.51488">
        <ele>980.3</ele>
        <time>2017-07-13T06:03:12Z</time>
      </trkpt>
      <trkpt lat="42.91175" lon="0.51489">
        <ele>980.8</ele>
        <time>2017-07-13T06:03:13Z</time>
      </trkpt>
      <trkpt lat="42.91172" lon="0.51489">
        <ele>981.3</ele>
        <time>2017-07-13T06:03:14Z</time>
      </trkpt>
      <trkpt lat="42.9117" lon="0.51489">
        <ele>981.9</ele>
        <time>2017-07-13T06:03:15Z</time>
      </trkpt>
      <trkpt lat="42.91167" lon="0.5149">
        <ele>982.4</ele>
        <time>2017-07-13T06:03:16Z</time>
      </trkpt>
      <trkpt lat="42.91165" lon="0.5149">
        <ele>982.6</ele>
        <time>2017-07-13T06:03:17Z</time>
      </trkpt>
      <trkpt lat="42.91162" lon="0.5149">
        <ele>982.8</ele>
        <time>2017-07-13T06:03:18Z</time>
      </trkpt>
      <trkpt lat="42.9116" lon="0.5149">
        <ele>983.1</ele>
        <time>2017-07-13T06:03:19Z</time>
      </trkpt>
      <trkpt lat="42.91157" lon="0.5149">
        <ele>983.4</ele>
        <time>2017-07-13T06:03:20Z</time>
      </trkpt>
      <trkpt lat="42.91155" lon="0.5149">
        <ele>983.8</ele>
        <time>2017-07-13T06:03:21Z</time>
      </trkpt>
      <trkpt lat="42.91152" lon="0.5149">
        <ele>984.2</ele>
        <time>2017-07-13T06:03:22Z</time>
      </trkpt>
      <trkpt lat="42.9115" lon="0.51489">
        <ele>984.7</ele>
        <time>2017-07-13T06:03:23Z</time>
      </trkpt>
      <trkpt lat="42.91147" lon="0.51489">
        <ele>985.3</ele>
        <time>2017-07-13T06:03:24Z</time>
      </trkpt>
      <trkpt lat="42.91145" lon="0.51488">
        <ele>985.9</ele>
        <time>2017-07-13T06:03:25Z</time>
      </trkpt>
      <trkpt lat="42.91142" lon="0.51488">
        <ele>986.5</ele>
        <time>2017-07-13T06:03:26Z</time>
      </trkpt>
      <trkpt lat="42.9114" lon="0.51487">
        <ele>987.1</ele>
        <time>2017-07-13T06:03:27Z</time>
      </trkpt>
      <trkpt lat="42.91138" lon="0.51486">
        <ele>987.8</ele>
        <time>2017-07-13T06:03:28Z</time>
      </trkpt>
      <trkpt lat="42.91136" lon="0.51486">
        <ele>988.4</ele>
        <time>2017-07-13T06:03:29Z</time>
      </trkpt>
      <trkpt lat="42.91134" lon="0.51485">
        <ele>989</ele>
        <time>2017-07-13T06:03:30Z</time>
      </trkpt>
      <trkpt lat="42.91131" lon="0.51484">
        <ele>989.6</ele>
        <time>2017-07-13T06:03:31Z</time>
      </trkpt>
      <trkpt lat="42.91129" lon="0.51484">
        <ele>990.1</ele>
        <time>2017-07-13T06:03:32Z</time>
      </trkpt>
      <trkpt lat="42.91127" lon="0.51483">
        <ele>990.7</ele>
        <time>2017-07-13T06:03:33Z</time>
      </trkpt>
      <trkpt lat="42.91126" lon="0.51483">
        <ele>991.2</ele>
        <time>2017-07-13T06:03:34Z</time>
      </trkpt>
      <trkpt lat="42.91124" lon="0.51482">
        <ele>991.7</ele>
        <time>2017-07-13T06:03:35Z</time>
      </trkpt>
      <trkpt lat="42.91122" lon="0.51482">
        <ele>992.2</ele>
        <time>2017-07-13T06:03:36Z</time>
      </trkpt>
      <trkpt lat="42.9112" lon="0.51481">
        <ele>992.7</ele>
        <time>2017-07-13T06:03:37Z</time>
      </trkpt>
      <trkpt lat="42.91118" lon="0.51481">
        <ele>993.2</ele>
        <time>2017-07-13T06:03:38Z</time>
      </trkpt>
      <trkpt lat="42.91116" lon="0.5148">
        <ele>993.7</ele>
        <time>2017-07-13T06:03:39Z</time>
      </trkpt>
      <trkpt lat="42.91114" lon="0.5148">
        <ele>994.1</ele>
        <time>2017-07-13T06:03:40Z</time>
      </trkpt>
      <trkpt lat="42.91111" lon="0.51479">
        <ele>994.6</ele>
        <time>2017-07-13T06:03:41Z</time>
      </trkpt>
      <trkpt lat="42.91109" lon="0.51479">
        <ele>995.2</ele>
        <time>2017-07-13T06:03:42Z</time>
      </trkpt>
      <trkpt lat="42.91107" lon="0.51478">
        <ele>995.7</ele>
        <time>2017-07-13T06:03:43Z</time>
      </trkpt>
      <trkpt lat="42.91105" lon="0.51477">
        <ele>996.4</ele>
        <time>2017-07-13T06:03:44Z</time>
      </trkpt>
      <trkpt lat="42.91103" lon="0.51477">
        <ele>997.1</ele>
        <time>2017-07-13T06:03:45Z</time>
      </trkpt>
      <trkpt lat="42.91101" lon="0.51476">
        <ele>997.9</ele>
        <time>2017-07-13T06:03:46Z</time>
      </trkpt>
      <trkpt lat="42.91099" lon="0.51474">
        <ele>998.7</ele>
        <time>2017-07-13T06:03:47Z</time>
      </trkpt>
      <trkpt lat="42.91097" lon="0.51473">
        <ele>999.6</ele>
        <time>2017-07-13T06:03:48Z</time>
      </trkpt>
      <trkpt lat="42.91095" lon="0.51472">
        <ele>1000.4</ele>
        <time>2017-07-13T06:03:49Z</time>
      </trkpt>
      <trkpt lat="42.91093" lon="0.51471">
        <ele>1001.3</ele>
        <time>2017-07-13T06:03:50Z</time>
      </trkpt>
      <trkpt lat="42.91091" lon="0.5147">
        <ele>1002.1</ele>
        <time>2017-07-13T06:03:51Z</time>
      </trkpt>
      <trkpt lat="42.91089" lon="0.51469">
        <ele>1002.9</ele>
        <time>2017-07-13T06:03:52Z</time>
      </trkpt>
      <trkpt lat="42.91087" lon="0.51468">
        <ele>1003.7</ele>
        <time>2017-07-13T06:03:53Z</time>
      </trkpt>
      <trkpt lat="42.91085" lon="0.51467">
        <ele>1004.4</ele>
        <time>2017-07-13T06:03:54Z</time>
      </trkpt>
      <trkpt lat="42.91083" lon="0.51466">
        <ele>1005.1</ele>
        <time>2017-07-13T06:03:55Z</time>
      </trkpt>
      <trkpt lat="42.91081" lon="0.51465">
        <ele>1005.8</ele>
        <time>2017-07-13T06:03:56Z</time>
      </trkpt>
      <trkpt lat="42.91079" lon="0.51465">
        <ele>1006.4</ele>
        <time>2017-07-13T06:03:57Z</time>
      </trkpt>
      <trkpt lat="42.91076" lon="0.51465">
        <ele>1007</ele>
        <time>2017-07-13T06:03:58Z</time>
      </trkpt>
      <trkpt lat="42.91074" lon="0.51465">
        <ele>1007.4</ele>
        <time>2017-07-13T06:03:59Z</time>
      </trkpt>
      <trkpt lat="42.91072" lon="0.51466">
        <ele>1007.6</ele>
        <time>2017-07-13T06:04:00Z</time>
      </trkpt>
      <trkpt lat="42.9107" lon="0.51466">
        <ele>1007.9</ele>
        <time>2017-07-13T06:04:01Z</time>
      </trkpt>
      <trkpt lat="42.91068" lon="0.51467">
        <ele>1007.9</ele>
        <time>2017-07-13T06:04:02Z</time>
      </trkpt>
      <trkpt lat="42.91066" lon="0.51468">
        <ele>1007.9</ele>
        <time>2017-07-13T06:04:03Z</time>
      </trkpt>
      <trkpt lat="42.91063" lon="0.51469">
        <ele>1007.8</ele>
        <time>2017-07-13T06:04:04Z</time>
      </trkpt>
      <trkpt lat="42.91061" lon="0.5147">
        <ele>1007.7</ele>
        <time>2017-07-13T06:04:05Z</time>
      </trkpt>
      <trkpt lat="42.91059" lon="0.51471">
        <ele>1007.4</ele>
        <time>2017-07-13T06:04:06Z</time>
      </trkpt>
      <trkpt lat="42.91057" lon="0.51473">
        <ele>1007.1</ele>
        <time>2017-07-13T06:04:07Z</time>
      </trkpt>
      <trkpt lat="42.91055" lon="0.51474">
        <ele>1006.8</ele>
        <time>2017-07-13T06:04:08Z</time>
      </trkpt>
      <trkpt lat="42.91053" lon="0.51475">
        <ele>1006.5</ele>
        <time>2017-07-13T06:04:09Z</time>
      </trkpt>
      <trkpt lat="42.91051" lon="0.51477">
        <ele>1006.2</ele>
        <time>2017-07-13T06:04:10Z</time>
      </trkpt>
      <trkpt lat="42.91049" lon="0.51478">
        <ele>1005.9</ele>
        <time>2017-07-13T06:04:11Z</time>
      </trkpt>
      <trkpt lat="42.91047" lon="0.5148">
        <ele>1005.6</ele>
        <time>2017-07-13T06:04:12Z</time>
      </trkpt>
      <trkpt lat="42.91045" lon="0.51481">
        <ele>1005.4</ele>
        <time>2017-07-13T06:04:13Z</time>
      </trkpt>
      <trkpt lat="42.91043" lon="0.51482">
        <ele>1005.2</ele>
        <time>2017-07-13T06:04:14Z</time>
      </trkpt>
      <trkpt lat="42.91041" lon="0.51483">
        <ele>1005</ele>
        <time>2017-07-13T06:04:15Z</time>
      </trkpt>
      <trkpt lat="42.91039" lon="0.51484">
        <ele>1004.9</ele>
        <time>2017-07-13T06:04:16Z</time>
      </trkpt>
      <trkpt lat="42.91037" lon="0.51485">
        <ele>1004.8</ele>
        <time>2017-07-13T06:04:17Z</time>
      </trkpt>
      <trkpt lat="42.91035" lon="0.51486">
        <ele>1004.8</ele>
        <time>2017-07-13T06:04:18Z</time>
      </trkpt>
      <trkpt lat="42.91033" lon="0.51487">
        <ele>1004.8</ele>
        <time>2017-07-13T06:04:19Z</time>
      </trkpt>
      <trkpt lat="42.91031" lon="0.51488">
        <ele>1004.9</ele>
        <time>2017-07-13T06:04:20Z</time>
      </trkpt>
      <trkpt lat="42.91029" lon="0.51488">
        <ele>1005</ele>
        <time>2017-07-13T06:04:21Z</time>
      </trkpt>
      <trkpt lat="42.91027" lon="0.51489">
        <ele>1005.3</ele>
        <time>2017-07-13T06:04:22Z</time>
      </trkpt>
      <trkpt lat="42.91025" lon="0.51489">
        <ele>1005.6</ele>
        <time>2017-07-13T06:04:23Z</time>
      </trkpt>
      <trkpt lat="42.91022" lon="0.51489">
        <ele>1005.9</ele>
        <time>2017-07-13T06:04:24Z</time>
      </trkpt>
      <trkpt lat="42.9102" lon="0.51489">
        <ele>1006.3</ele>
        <time>2017-07-13T06:04:25Z</time>
      </trkpt>
      <trkpt lat="42.91018" lon="0.5149">
        <ele>1006.7</ele>
        <time>2017-07-13T06:04:26Z</time>
      </trkpt>
      <trkpt lat="42.91016" lon="0.5149">
        <ele>1007.1</ele>
        <time>2017-07-13T06:04:27Z</time>
      </trkpt>
      <trkpt lat="42.91014" lon="0.5149">
        <ele>1007.5</ele>
        <time>2017-07-13T06:04:28Z</time>
      </trkpt>
      <trkpt lat="42.91012" lon="0.5149">
        <ele>1008</ele>
        <time>2017-07-13T06:04:29Z</time>
      </trkpt>
      <trkpt lat="42.9101" lon="0.5149">
        <ele>1008.4</ele>
        <time>2017-07-13T06:04:30Z</time>
      </trkpt>
      <trkpt lat="42.91008" lon="0.5149">
        <ele>1008.8</ele>
        <time>2017-07-13T06:04:31Z</time>
      </trkpt>
      <trkpt lat="42.91006" lon="0.5149">
        <ele>1009.2</ele>
        <time>2017-07-13T06:04:32Z</time>
      </trkpt>
      <trkpt lat="42.91004" lon="0.5149">
        <ele>1009.6</ele>
        <time>2017-07-13T06:04:33Z</time>
      </trkpt>
      <trkpt lat="42.91002" lon="0.5149">
        <ele>1010</ele>
        <time>2017-07-13T06:04:34Z</time>
      </trkpt>
      <trkpt lat="42.91" lon="0.5149">
        <ele>1010.5</ele>
        <time>2017-07-13T06:04:35Z</time>
      </trkpt>
      <trkpt lat="42.90998" lon="0.51489">
        <ele>1010.5</ele>
        <time>2017-07-13T06:04:36Z</time>
      </trkpt>
      <trkpt lat="42.90995" lon="0.51489">
        <ele>1010.5</ele>
        <time>2017-07-13T06:04:37Z</time>
      </trkpt>
      <trkpt lat="42.90993" lon="0.51489">
        <ele>1010.6</ele>
        <time>2017-07-13T06:04:38Z</time>
      </trkpt>
      <trkpt lat="42.9099" lon="0.51489">
        <ele>1010.7</ele>
        <time>2017-07-13T06:04:39Z</time>
      </trkpt>
      <trkpt lat="42.90988" lon="0.51488">
        <ele>1011</ele>
        <time>2017-07-13T06:04:40Z</time>
      </trkpt>
      <trkpt lat="42.90985" lon="0.51488">
        <ele>1011.3</ele>
        <time>2017-07-13T06:04:41Z</time>
      </trkpt>
      <trkpt lat="42.90983" lon="0.51487">
        <ele>1011.7</ele>
        <time>2017-07-13T06:04:42Z</time>
      </trkpt>
      <trkpt lat="42.90981" lon="0.51485">
        <ele>1012.3</ele>
        <time>2017-07-13T06:04:43Z</time>
      </trkpt>
      <trkpt lat="42.90978" lon="0.51484">
        <ele>1013</ele>
        <time>2017-07-13T06:04:44Z</time>
      </trkpt>
      <trkpt lat="42.90976" lon="0.51483">
        <ele>1013.7</ele>
        <time>2017-07-13T06:04:45Z</time>
      </trkpt>
      <trkpt lat="42.90974" lon="0.51481">
        <ele>1014.6</ele>
        <time>2017-07-13T06:04:46Z</time>
      </trkpt>
      <trkpt lat="42.90972" lon="0.51479">
        <ele>1015.5</ele>
        <time>2017-07-13T06:04:47Z</time>
      </trkpt>
      <trkpt lat="42.9097" lon="0.51477">
        <ele>1016.3</ele>
        <time>2017-07-13T06:04:48Z</time>
      </trkpt>
      <trkpt lat="42.90968" lon="0.51476">
        <ele>1017.2</ele>
        <time>2017-07-13T06:04:49Z</time>
      </trkpt>
      <trkpt lat="42.90966" lon="0.51474">
        <ele>1018</ele>
        <time>2017-07-13T06:04:50Z</time>
      </trkpt>
      <trkpt lat="42.90964" lon="0.51473">
        <ele>1018.7</ele>
        <time>2017-07-13T06:04:51Z</time>
      </trkpt>
      <trkpt lat="42.90962" lon="0.51471">
        <ele>1019.5</ele>
        <time>2017-07-13T06:04:52Z</time>
      </trkpt>
      <trkpt lat="42.9096" lon="0.5147">
        <ele>1020.2</ele>
        <time>2017-07-13T06:04:53Z</time>
      </trkpt>
      <trkpt lat="42.90958" lon="0.51468">
        <ele>1020.9</ele>
        <time>2017-07-13T06:04:54Z</time>
      </trkpt>
      <trkpt lat="42.90956" lon="0.51467">
        <ele>1021.5</ele>
        <time>2017-07-13T06:04:55Z</time>
      </trkpt>
      <trkpt lat="42.90954" lon="0.51466">
        <ele>1022.2</ele>
        <time>2017-07-13T06:04:56Z</time>
      </trkpt>
      <trkpt lat="42.90952" lon="0.51465">
        <ele>1022.7</ele>
        <time>2017-07-13T06:04:57Z</time>
      </trkpt>
      <trkpt lat="42.9095" lon="0.51464">
        <ele>1023.3</ele>
        <time>2017-07-13T06:04:58Z</time>
      </trkpt>
      <trkpt lat="42.90948" lon="0.51463">
        <ele>1023.8</ele>
        <time>2017-07-13T06:04:59Z</time>
      </trkpt>
      <trkpt lat="42.90946" lon="0.51462">
        <ele>1024.3</ele>
        <time>2017-07-13T06:05:00Z</time>
      </trkpt>
      <trkpt lat="42.90944" lon="0.51461">
        <ele>1024.8</ele>
        <time>2017-07-13T06:05:01Z</time>
      </trkpt>
      <trkpt lat="42.90942" lon="0.5146">
        <ele>1025.2</ele>
        <time>2017-07-13T06:05:02Z</time>
      </trkpt>
      <trkpt lat="42.9094" lon="0.51459">
        <ele>1025.6</ele>
        <time>2017-07-13T06:05:03Z</time>
      </trkpt>
      <trkpt lat="42.90937" lon="0.51458">
        <ele>1026</ele>
        <time>2017-07-13T06:05:04Z</time>
      </trkpt>
      <trkpt lat="42.90935" lon="0.51457">
        <ele>1026.3</ele>
        <time>2017-07-13T06:05:05Z</time>
      </trkpt>
      <trkpt lat="42.90933" lon="0.51457">
        <ele>1026.7</ele>
        <time>2017-07-13T06:05:06Z</time>
      </trkpt>
      <trkpt lat="42.90931" lon="0.51456">
        <ele>1027</ele>
        <time>2017-07-13T06:05:07Z</time>
      </trkpt>
      <trkpt lat="42.90929" lon="0.51456">
        <ele>1027.2</ele>
        <time>2017-07-13T06:05:08Z</time>
      </trkpt>
      <trkpt lat="42.90927" lon="0.51455">
        <ele>1027.4</ele>
        <time>2017-07-13T06:05:09Z</time>
      </trkpt>
      <trkpt lat="42.90925" lon="0.51455">
        <ele>1027.6</ele>
        <time>2017-07-13T06:05:10Z</time>
      </trkpt>
      <trkpt lat="42.90923" lon="0.51454">
        <ele>1027.8</ele>
        <time>2017-07-13T06:05:11Z</time>
      </trkpt>
      <trkpt lat="42.90921" lon="0.51454">
        <ele>1028</ele>
        <time>2017-07-13T06:05:12Z</time>
      </trkpt>
      <trkpt lat="42.90919" lon="0.51454">
        <ele>1028</ele>
        <time>2017-07-13T06:05:13Z</time>
      </trkpt>
      <trkpt lat="42.90917" lon="0.51453">
        <ele>1028.1</ele>
        <time>2017-07-13T06:05:14Z</time>
      </trkpt>
      <trkpt lat="42.90914" lon="0.51453">
        <ele>1027.6</ele>
        <time>2017-07-13T06:05:15Z</time>
      </trkpt>
      <trkpt lat="42.90912" lon="0.51453">
        <ele>1027.1</ele>
        <time>2017-07-13T06:05:16Z</time>
      </trkpt>
      <trkpt lat="42.9091" lon="0.51453">
        <ele>1026.5</ele>
        <time>2017-07-13T06:05:17Z</time>
      </trkpt>
      <trkpt lat="42.90908" lon="0.51453">
        <ele>1026</ele>
        <time>2017-07-13T06:05:18Z</time>
      </trkpt>
      <trkpt lat="42.90906" lon="0.51453">
        <ele>1025.5</ele>
        <time>2017-07-13T06:05:19Z</time>
      </trkpt>
      <trkpt lat="42.90904" lon="0.51453">
        <ele>1024.9</ele>
        <time>2017-07-13T06:05:20Z</time>
      </trkpt>
      <trkpt lat="42.90902" lon="0.51453">
        <ele>1024.3</ele>
        <time>2017-07-13T06:05:21Z</time>
      </trkpt>
      <trkpt lat="42.90899" lon="0.51452">
        <ele>1023.8</ele>
        <time>2017-07-13T06:05:22Z</time>
      </trkpt>
      <trkpt lat="42.90897" lon="0.51452">
        <ele>1023.3</ele>
        <time>2017-07-13T06:05:23Z</time>
      </trkpt>
      <trkpt lat="42.90895" lon="0.51452">
        <ele>1022.8</ele>
        <time>2017-07-13T06:05:24Z</time>
      </trkpt>
      <trkpt lat="42.90893" lon="0.51452">
        <ele>1022.2</ele>
        <time>2017-07-13T06:05:25Z</time>
      </trkpt>
      <trkpt lat="42.90891" lon="0.51452">
        <ele>1021.7</ele>
        <time>2017-07-13T06:05:26Z</time>
      </trkpt>
      <trkpt lat="42.90888" lon="0.51451">
        <ele>1021.2</ele>
        <time>2017-07-13T06:05:27Z</time>
      </trkpt>
      <trkpt lat="42.90886" lon="0.51451">
        <ele>1020.8</ele>
        <time>2017-07-13T06:05:28Z</time>
      </trkpt>
      <trkpt lat="42.90884" lon="0.51451">
        <ele>1020.3</ele>
        <time>2017-07-13T06:05:29Z</time>
      </trkpt>
      <trkpt lat="42.90882" lon="0.5145">
        <ele>1019.8</ele>
        <time>2017-07-13T06:05:30Z</time>
      </trkpt>
      <trkpt lat="42.9088" lon="0.5145">
        <ele>1019.3</ele>
        <time>2017-07-13T06:05:31Z</time>
      </trkpt>
      <trkpt lat="42.90877" lon="0.5145">
        <ele>1018.7</ele>
        <time>2017-07-13T06:05:32Z</time>
      </trkpt>
      <trkpt lat="42.90875" lon="0.5145">
        <ele>1018.2</ele>
        <time>2017-07-13T06:05:33Z</time>
      </trkpt>
      <trkpt lat="42.90873" lon="0.51449">
        <ele>1017.7</ele>
        <time>2017-07-13T06:05:34Z</time>
      </trkpt>
      <trkpt lat="42.90871" lon="0.51449">
        <ele>1017.3</ele>
        <time>2017-07-13T06:05:35Z</time>
      </trkpt>
      <trkpt lat="42.90869" lon="0.51448">
        <ele>1017.2</ele>
        <time>2017-07-13T06:05:36Z</time>
      </trkpt>
      <trkpt lat="42.90867" lon="0.51446">
        <ele>1017.2</ele>
        <time>2017-07-13T06:05:37Z</time>
      </trkpt>
      <trkpt lat="42.90865" lon="0.51445">
        <ele>1017.2</ele>
        <time>2017-07-13T06:05:38Z</time>
      </trkpt>
      <trkpt lat="42.90863" lon="0.51443">
        <ele>1017.4</ele>
        <time>2017-07-13T06:05:39Z</time>
      </trkpt>
      <trkpt lat="42.90861" lon="0.51442">
        <ele>1017.5</ele>
        <time>2017-07-13T06:05:40Z</time>
      </trkpt>
      <trkpt lat="42.90859" lon="0.5144">
        <ele>1017.7</ele>
        <time>2017-07-13T06:05:41Z</time>
      </trkpt>
      <trkpt lat="42.90857" lon="0.51438">
        <ele>1017.9</ele>
        <time>2017-07-13T06:05:42Z</time>
      </trkpt>
      <trkpt lat="42.90855" lon="0.51436">
        <ele>1018.2</ele>
        <time>2017-07-13T06:05:43Z</time>
      </trkpt>
      <trkpt lat="42.90854" lon="0.51434">
        <ele>1018.4</ele>
        <time>2017-07-13T06:05:44Z</time>
      </trkpt>
      <trkpt lat="42.90852" lon="0.51433">
        <ele>1018.7</ele>
        <time>2017-07-13T06:05:45Z</time>
      </trkpt>
      <trkpt lat="42.9085" lon="0.51431">
        <ele>1018.8</ele>
        <time>2017-07-13T06:05:46Z</time>
      </trkpt>
      <trkpt lat="42.90848" lon="0.51429">
        <ele>1019.1</ele>
        <time>2017-07-13T06:05:47Z</time>
      </trkpt>
      <trkpt lat="42.90847" lon="0.51427">
        <ele>1019.3</ele>
        <time>2017-07-13T06:05:48Z</time>
      </trkpt>
      <trkpt lat="42.90845" lon="0.51425">
        <ele>1019.5</ele>
        <time>2017-07-13T06:05:49Z</time>
      </trkpt>
      <trkpt lat="42.90843" lon="0.51424">
        <ele>1019.6</ele>
        <time>2017-07-13T06:05:50Z</time>
      </trkpt>
      <trkpt lat="42.90842" lon="0.51422">
        <ele>1019.7</ele>
        <time>2017-07-13T06:05:51Z</time>
      </trkpt>
      <trkpt lat="42.9084" lon="0.5142">
        <ele>1019.8</ele>
        <time>2017-07-13T06:05:52Z</time>
      </trkpt>
      <trkpt lat="42.90838" lon="0.51419">
        <ele>1019.8</ele>
        <time>2017-07-13T06:05:53Z</time>
      </trkpt>
      <trkpt lat="42.90837" lon="0.51417">
        <ele>1019.9</ele>
        <time>2017-07-13T06:05:54Z</time>
      </trkpt>
      <trkpt lat="42.90835" lon="0.51416">
        <ele>1019.9</ele>
        <time>2017-07-13T06:05:55Z</time>
      </trkpt>
      <trkpt lat="42.90833" lon="0.51414">
        <ele>1020</ele>
        <time>2017-07-13T06:05:56Z</time>
      </trkpt>
      <trkpt lat="42.90832" lon="0.51413">
        <ele>1020</ele>
        <time>2017-07-13T06:05:57Z</time>
      </trkpt>
      <trkpt lat="42.9083" lon="0.51411">
        <ele>1020.2</ele>
        <time>2017-07-13T06:05:58Z</time>
      </trkpt>
      <trkpt lat="42.90829" lon="0.5141">
        <ele>1020.3</ele>
        <time>2017-07-13T06:05:59Z</time>
      </trkpt>
      <trkpt lat="42.90827" lon="0.51408">
        <ele>1020.5</ele>
        <time>2017-07-13T06:06:00Z</time>
      </trkpt>
      <trkpt lat="42.90826" lon="0.51406">
        <ele>1020.8</ele>
        <time>2017-07-13T06:06:01Z</time>
      </trkpt>
      <trkpt lat="42.90825" lon="0.51404">
        <ele>1021.1</ele>
        <time>2017-07-13T06:06:02Z</time>
      </trkpt>
      <trkpt lat="42.90823" lon="0.51402">
        <ele>1021.5</ele>
        <time>2017-07-13T06:06:03Z</time>
      </trkpt>
      <trkpt lat="42.90822" lon="0.514">
        <ele>1022</ele>
        <time>2017-07-13T06:06:04Z</time>
      </trkpt>
      <trkpt lat="42.90821" lon="0.51398">
        <ele>1022.5</ele>
        <time>2017-07-13T06:06:05Z</time>
      </trkpt>
      <trkpt lat="42.9082" lon="0.51395">
        <ele>1023.1</ele>
        <time>2017-07-13T06:06:06Z</time>
      </trkpt>
      <trkpt lat="42.90819" lon="0.51393">
        <ele>1023.7</ele>
        <time>2017-07-13T06:06:07Z</time>
      </trkpt>
      <trkpt lat="42.90818" lon="0.5139">
        <ele>1024.4</ele>
        <time>2017-07-13T06:06:08Z</time>
      </trkpt>
      <trkpt lat="42.90817" lon="0.51387">
        <ele>1025.3</ele>
        <time>2017-07-13T06:06:09Z</time>
      </trkpt>
      <trkpt lat="42.90817" lon="0.51384">
        <ele>1026.1</ele>
        <time>2017-07-13T06:06:10Z</time>
      </trkpt>
      <trkpt lat="42.90816" lon="0.51382">
        <ele>1026.9</ele>
        <time>2017-07-13T06:06:11Z</time>
      </trkpt>
      <trkpt lat="42.90815" lon="0.51379">
        <ele>1027.8</ele>
        <time>2017-07-13T06:06:12Z</time>
      </trkpt>
      <trkpt lat="42.90815" lon="0.51376">
        <ele>1028.8</ele>
        <time>2017-07-13T06:06:13Z</time>
      </trkpt>
      <trkpt lat="42.90814" lon="0.51373">
        <ele>1029.7</ele>
        <time>2017-07-13T06:06:14Z</time>
      </trkpt>
      <trkpt lat="42.90814" lon="0.5137">
        <ele>1030.8</ele>
        <time>2017-07-13T06:06:15Z</time>
      </trkpt>
      <trkpt lat="42.90813" lon="0.51367">
        <ele>1031.8</ele>
        <time>2017-07-13T06:06:16Z</time>
      </trkpt>
      <trkpt lat="42.90813" lon="0.51364">
        <ele>1032.7</ele>
        <time>2017-07-13T06:06:17Z</time>
      </trkpt>
      <trkpt lat="42.90813" lon="0.51361">
        <ele>1033.8</ele>
        <time>2017-07-13T06:06:18Z</time>
      </trkpt>
      <trkpt lat="42.90812" lon="0.51358">
        <ele>1034.8</ele>
        <time>2017-07-13T06:06:19Z</time>
      </trkpt>
      <trkpt lat="42.90812" lon="0.51355">
        <ele>1035.9</ele>
        <time>2017-07-13T06:06:20Z</time>
      </trkpt>
      <trkpt lat="42.90812" lon="0.51352">
        <ele>1036.9</ele>
        <time>2017-07-13T06:06:21Z</time>
      </trkpt>
      <trkpt lat="42.90812" lon="0.5135">
        <ele>1038</ele>
        <time>2017-07-13T06:06:22Z</time>
      </trkpt>
      <trkpt lat="42.90812" lon="0.51347">
        <ele>1039</ele>
        <time>2017-07-13T06:06:23Z</time>
      </trkpt>
      <trkpt lat="42.90812" lon="0.51344">
        <ele>1040.1</ele>
        <time>2017-07-13T06:06:24Z</time>
      </trkpt>
      <trkpt lat="42.90811" lon="0.51341">
        <ele>1041.1</ele>
        <time>2017-07-13T06:06:25Z</time>
      </trkpt>
      <trkpt lat="42.90811" lon="0.51338">
        <ele>1042.3</ele>
        <time>2017-07-13T06:06:26Z</time>
      </trkpt>
      <trkpt lat="42.90811" lon="0.51335">
        <ele>1043.3</ele>
        <time>2017-07-13T06:06:27Z</time>
      </trkpt>
      <trkpt lat="42.90811" lon="0.51332">
        <ele>1044.4</ele>
        <time>2017-07-13T06:06:28Z</time>
      </trkpt>
      <trkpt lat="42.90811" lon="0.51329">
        <ele>1045.6</ele>
        <time>2017-07-13T06:06:29Z</time>
      </trkpt>
      <trkpt lat="42.9081" lon="0.51326">
        <ele>1046.7</ele>
        <time>2017-07-13T06:06:30Z</time>
      </trkpt>
      <trkpt lat="42.9081" lon="0.51323">
        <ele>1047.8</ele>
        <time>2017-07-13T06:06:31Z</time>
      </trkpt>
      <trkpt lat="42.9081" lon="0.5132">
        <ele>1048.9</ele>
        <time>2017-07-13T06:06:32Z</time>
      </trkpt>
      <trkpt lat="42.90809" lon="0.51317">
        <ele>1049.9</ele>
        <time>2017-07-13T06:06:33Z</time>
      </trkpt>
      <trkpt lat="42.90808" lon="0.51314">
        <ele>1050.8</ele>
        <time>2017-07-13T06:06:34Z</time>
      </trkpt>
      <trkpt lat="42.90807" lon="0.51312">
        <ele>1051.5</ele>
        <time>2017-07-13T06:06:35Z</time>
      </trkpt>
      <trkpt lat="42.90806" lon="0.51309">
        <ele>1052.2</ele>
        <time>2017-07-13T06:06:36Z</time>
      </trkpt>
      <trkpt lat="42.90805" lon="0.51307">
        <ele>1052.6</ele>
        <time>2017-07-13T06:06:37Z</time>
      </trkpt>
      <trkpt lat="42.90804" lon="0.51305">
        <ele>1052.9</ele>
        <time>2017-07-13T06:06:38Z</time>
      </trkpt>
      <trkpt lat="42.90802" lon="0.51304">
        <ele>1053.1</ele>
        <time>2017-07-13T06:06:39Z</time>
      </trkpt>
      <trkpt lat="42.908" lon="0.51302">
        <ele>1053.2</ele>
        <time>2017-07-13T06:06:40Z</time>
      </trkpt>
      <trkpt lat="42.90798" lon="0.51301">
        <ele>1053.2</ele>
        <time>2017-07-13T06:06:41Z</time>
      </trkpt>
      <trkpt lat="42.90796" lon="0.51299">
        <ele>1053.2</ele>
        <time>2017-07-13T06:06:42Z</time>
      </trkpt>
      <trkpt lat="42.90794" lon="0.51298">
        <ele>1053.1</ele>
        <time>2017-07-13T06:06:43Z</time>
      </trkpt>
      <trkpt lat="42.90792" lon="0.51297">
        <ele>1052.9</ele>
        <time>2017-07-13T06:06:44Z</time>
      </trkpt>
      <trkpt lat="42.9079" lon="0.51296">
        <ele>1052.8</ele>
        <time>2017-07-13T06:06:45Z</time>
      </trkpt>
      <trkpt lat="42.90788" lon="0.51295">
        <ele>1052.6</ele>
        <time>2017-07-13T06:06:46Z</time>
      </trkpt>
      <trkpt lat="42.90786" lon="0.51294">
        <ele>1052.5</ele>
        <time>2017-07-13T06:06:47Z</time>
      </trkpt>
      <trkpt lat="42.90784" lon="0.51293">
        <ele>1052.2</ele>
        <time>2017-07-13T06:06:48Z</time>
      </trkpt>
      <trkpt lat="42.90782" lon="0.51291">
        <ele>1052.1</ele>
        <time>2017-07-13T06:06:49Z</time>
      </trkpt>
      <trkpt lat="42.90779" lon="0.5129">
        <ele>1051.9</ele>
        <time>2017-07-13T06:06:50Z</time>
      </trkpt>
      <trkpt lat="42.90777" lon="0.51289">
        <ele>1051.7</ele>
        <time>2017-07-13T06:06:51Z</time>
      </trkpt>
      <trkpt lat="42.90775" lon="0.51288">
        <ele>1051.6</ele>
        <time>2017-07-13T06:06:52Z</time>
      </trkpt>
      <trkpt lat="42.90773" lon="0.51287">
        <ele>1051.5</ele>
        <time>2017-07-13T06:06:53Z</time>
      </trkpt>
      <trkpt lat="42.90771" lon="0.51286">
        <ele>1051.5</ele>
        <time>2017-07-13T06:06:54Z</time>
      </trkpt>
      <trkpt lat="42.90769" lon="0.51285">
        <ele>1051.4</ele>
        <time>2017-07-13T06:06:55Z</time>
      </trkpt>
      <trkpt lat="42.90767" lon="0.51283">
        <ele>1051.5</ele>
        <time>2017-07-13T06:06:56Z</time>
      </trkpt>
      <trkpt lat="42.90765" lon="0.51282">
        <ele>1051.5</ele>
        <time>2017-07-13T06:06:57Z</time>
      </trkpt>
      <trkpt lat="42.90763" lon="0.51281">
        <ele>1051.6</ele>
        <time>2017-07-13T06:06:58Z</time>
      </trkpt>
      <trkpt lat="42.90761" lon="0.51279">
        <ele>1051.8</ele>
        <time>2017-07-13T06:06:59Z</time>
      </trkpt>
      <trkpt lat="42.90759" lon="0.51278">
        <ele>1051.9</ele>
        <time>2017-07-13T06:07:00Z</time>
      </trkpt>
      <trkpt lat="42.90757" lon="0.51276">
        <ele>1052.1</ele>
        <time>2017-07-13T06:07:01Z</time>
      </trkpt>
      <trkpt lat="42.90755" lon="0.51275">
        <ele>1052.3</ele>
        <time>2017-07-13T06:07:02Z</time>
      </trkpt>
      <trkpt lat="42.90754" lon="0.51273">
        <ele>1052.5</ele>
        <time>2017-07-13T06:07:03Z</time>
      </trkpt>
      <trkpt lat="42.90752" lon="0.51272">
        <ele>1052.8</ele>
        <time>2017-07-13T06:07:04Z</time>
      </trkpt>
      <trkpt lat="42.9075" lon="0.5127">
        <ele>1053.1</ele>
        <time>2017-07-13T06:07:05Z</time>
      </trkpt>
      <trkpt lat="42.90748" lon="0.51269">
        <ele>1054</ele>
        <time>2017-07-13T06:07:06Z</time>
      </trkpt>
      <trkpt lat="42.90746" lon="0.51267">
        <ele>1055</ele>
        <time>2017-07-13T06:07:07Z</time>
      </trkpt>
      <trkpt lat="42.90744" lon="0.51266">
        <ele>1055.9</ele>
        <time>2017-07-13T06:07:08Z</time>
      </trkpt>
      <trkpt lat="42.90742" lon="0.51264">
        <ele>1056.8</ele>
        <time>2017-07-13T06:07:09Z</time>
      </trkpt>
      <trkpt lat="42.9074" lon="0.51263">
        <ele>1057.6</ele>
        <time>2017-07-13T06:07:10Z</time>
      </trkpt>
      <trkpt lat="42.90738" lon="0.51261">
        <ele>1058.6</ele>
        <time>2017-07-13T06:07:11Z</time>
      </trkpt>
      <trkpt lat="42.90736" lon="0.5126">
        <ele>1059.4</ele>
        <time>2017-07-13T06:07:12Z</time>
      </trkpt>
      <trkpt lat="42.90734" lon="0.51259">
        <ele>1060.2</ele>
        <time>2017-07-13T06:07:13Z</time>
      </trkpt>
      <trkpt lat="42.90732" lon="0.51257">
        <ele>1061.1</ele>
        <time>2017-07-13T06:07:14Z</time>
      </trkpt>
      <trkpt lat="42.9073" lon="0.51256">
        <ele>1061.8</ele>
        <time>2017-07-13T06:07:15Z</time>
      </trkpt>
      <trkpt lat="42.90728" lon="0.51255">
        <ele>1062.6</ele>
        <time>2017-07-13T06:07:16Z</time>
      </trkpt>
      <trkpt lat="42.90726" lon="0.51254">
        <ele>1063.3</ele>
        <time>2017-07-13T06:07:17Z</time>
      </trkpt>
      <trkpt lat="42.90724" lon="0.51253">
        <ele>1063.9</ele>
        <time>2017-07-13T06:07:18Z</time>
      </trkpt>
      <trkpt lat="42.90722" lon="0.51252">
        <ele>1064.6</ele>
        <time>2017-07-13T06:07:19Z</time>
      </trkpt>
      <trkpt lat="42.9072" lon="0.51252">
        <ele>1065.1</ele>
        <time>2017-07-13T06:07:20Z</time>
      </trkpt>
      <trkpt lat="42.90718" lon="0.51251">
        <ele>1065.6</ele>
        <time>2017-07-13T06:07:21Z</time>
      </trkpt>
      <trkpt lat="42.90716" lon="0.5125">
        <ele>1066.1</ele>
        <time>2017-07-13T06:07:22Z</time>
      </trkpt>
      <trkpt lat="42.90714" lon="0.5125">
        <ele>1066.4</ele>
        <time>2017-07-13T06:07:23Z</time>
      </trkpt>
      <trkpt lat="42.90712" lon="0.5125">
        <ele>1066.7</ele>
        <time>2017-07-13T06:07:24Z</time>
      </trkpt>
      <trkpt lat="42.9071" lon="0.5125">
        <ele>1066.9</ele>
        <time>2017-07-13T06:07:25Z</time>
      </trkpt>
      <trkpt lat="42.90708" lon="0.5125">
        <ele>1066.9</ele>
        <time>2017-07-13T06:07:26Z</time>
      </trkpt>
      <trkpt lat="42.90706" lon="0.51251">
        <ele>1066.8</ele>
        <time>2017-07-13T06:07:27Z</time>
      </trkpt>
      <trkpt lat="42.90704" lon="0.51252">
        <ele>1066.5</ele>
        <time>2017-07-13T06:07:28Z</time>
      </trkpt>
      <trkpt lat="42.90702" lon="0.51253">
        <ele>1066.1</ele>
        <time>2017-07-13T06:07:29Z</time>
      </trkpt>
      <trkpt lat="42.907" lon="0.51254">
        <ele>1065.6</ele>
        <time>2017-07-13T06:07:30Z</time>
      </trkpt>
      <trkpt lat="42.90698" lon="0.51256">
        <ele>1065.1</ele>
        <time>2017-07-13T06:07:31Z</time>
      </trkpt>
      <trkpt lat="42.90696" lon="0.51257">
        <ele>1064.6</ele>
        <time>2017-07-13T06:07:32Z</time>
      </trkpt>
      <trkpt lat="42.90694" lon="0.51258">
        <ele>1064.1</ele>
        <time>2017-07-13T06:07:33Z</time>
      </trkpt>
      <trkpt lat="42.90692" lon="0.51259">
        <ele>1063.7</ele>
        <time>2017-07-13T06:07:34Z</time>
      </trkpt>
      <trkpt lat="42.90689" lon="0.5126">
        <ele>1063.4</ele>
        <time>2017-07-13T06:07:35Z</time>
      </trkpt>
      <trkpt lat="42.90687" lon="0.51261">
        <ele>1063.2</ele>
        <time>2017-07-13T06:07:36Z</time>
      </trkpt>
      <trkpt lat="42.90685" lon="0.51262">
        <ele>1063</ele>
        <time>2017-07-13T06:07:37Z</time>
      </trkpt>
      <trkpt lat="42.90683" lon="0.51262">
        <ele>1063</ele>
        <time>2017-07-13T06:07:38Z</time>
      </trkpt>
      <trkpt lat="42.90681" lon="0.51263">
        <ele>1063</ele>
        <time>2017-07-13T06:07:39Z</time>
      </trkpt>
      <trkpt lat="42.90679" lon="0.51263">
        <ele>1063.1</ele>
        <time>2017-07-13T06:07:40Z</time>
      </trkpt>
      <trkpt lat="42.90676" lon="0.51263">
        <ele>1063.3</ele>
        <time>2017-07-13T06:07:41Z</time>
      </trkpt>
      <trkpt lat="42.90674" lon="0.51263">
        <ele>1063.6</ele>
        <time>2017-07-13T06:07:42Z</time>
      </trkpt>
      <trkpt lat="42.90672" lon="0.51262">
        <ele>1064</ele>
        <time>2017-07-13T06:07:43Z</time>
      </trkpt>
      <trkpt lat="42.9067" lon="0.51262">
        <ele>1064.4</ele>
        <time>2017-07-13T06:07:44Z</time>
      </trkpt>
      <trkpt lat="42.90668" lon="0.51261">
        <ele>1065</ele>
        <time>2017-07-13T06:07:45Z</time>
      </trkpt>
      <trkpt lat="42.90665" lon="0.5126">
        <ele>1065.6</ele>
        <time>2017-07-13T06:07:46Z</time>
      </trkpt>
      <trkpt lat="42.90663" lon="0.5126">
        <ele>1066.1</ele>
        <time>2017-07-13T06:07:47Z</time>
      </trkpt>
      <trkpt lat="42.90661" lon="0.51258">
        <ele>1066.8</ele>
        <time>2017-07-13T06:07:48Z</time>
      </trkpt>
      <trkpt lat="42.90659" lon="0.51257">
        <ele>1067.5</ele>
        <time>2017-07-13T06:07:49Z</time>
      </trkpt>
      <trkpt lat="42.90657" lon="0.51256">
        <ele>1068.2</ele>
        <time>2017-07-13T06:07:50Z</time>
      </trkpt>
      <trkpt lat="42.90655" lon="0.51255">
        <ele>1068.9</ele>
        <time>2017-07-13T06:07:51Z</time>
      </trkpt>
      <trkpt lat="42.90653" lon="0.51254">
        <ele>1069.7</ele>
        <time>2017-07-13T06:07:52Z</time>
      </trkpt>
      <trkpt lat="42.90651" lon="0.51252">
        <ele>1070.5</ele>
        <time>2017-07-13T06:07:53Z</time>
      </trkpt>
      <trkpt lat="42.90649" lon="0.51251">
        <ele>1071.2</ele>
        <time>2017-07-13T06:07:54Z</time>
      </trkpt>
      <trkpt lat="42.90647" lon="0.5125">
        <ele>1071.9</ele>
        <time>2017-07-13T06:07:55Z</time>
      </trkpt>
      <trkpt lat="42.90645" lon="0.51249">
        <ele>1072.4</ele>
        <time>2017-07-13T06:07:56Z</time>
      </trkpt>
      <trkpt lat="42.90643" lon="0.51248">
        <ele>1072.9</ele>
        <time>2017-07-13T06:07:57Z</time>
      </trkpt>
      <trkpt lat="42.90641" lon="0.51248">
        <ele>1073.3</ele>
        <time>2017-07-13T06:07:58Z</time>
      </trkpt>
      <trkpt lat="42.90639" lon="0.51247">
        <ele>1073.6</ele>
        <time>2017-07-13T06:07:59Z</time>
      </trkpt>
      <trkpt lat="42.90637" lon="0.51247">
        <ele>1073.8</ele>
        <time>2017-07-13T06:08:00Z</time>
      </trkpt>
      <trkpt lat="42.90635" lon="0.51247">
        <ele>1073.9</ele>
        <time>2017-07-13T06:08:01Z</time>
      </trkpt>
      <trkpt lat="42.90632" lon="0.51247">
        <ele>1074</ele>
        <time>2017-07-13T06:08:02Z</time>
      </trkpt>
      <trkpt lat="42.9063" lon="0.51247">
        <ele>1074</ele>
        <time>2017-07-13T06:08:03Z</time>
      </trkpt>
      <trkpt lat="42.90628" lon="0.51247">
        <ele>1074</ele>
        <time>2017-07-13T06:08:04Z</time>
      </trkpt>
      <trkpt lat="42.90625" lon="0.51248">
        <ele>1074.1</ele>
        <time>2017-07-13T06:08:05Z</time>
      </trkpt>
      <trkpt lat="42.90623" lon="0.51248">
        <ele>1074.1</ele>
        <time>2017-07-13T06:08:06Z</time>
      </trkpt>
      <trkpt lat="42.90621" lon="0.51248">
        <ele>1074</ele>
        <time>2017-07-13T06:08:07Z</time>
      </trkpt>
      <trkpt lat="42.90618" lon="0.51248">
        <ele>1074.1</ele>
        <time>2017-07-13T06:08:08Z</time>
      </trkpt>
      <trkpt lat="42.90616" lon="0.51248">
        <ele>1074.2</ele>
        <time>2017-07-13T06:08:09Z</time>
      </trkpt>
      <trkpt lat="42.90614" lon="0.51248">
        <ele>1074.2</ele>
        <time>2017-07-13T06:08:10Z</time>
      </trkpt>
      <trkpt lat="42.90611" lon="0.51248">
        <ele>1074.4</ele>
        <time>2017-07-13T06:08:11Z</time>
      </trkpt>
      <trkpt lat="42.90609" lon="0.51248">
        <ele>1074.6</ele>
        <time>2017-07-13T06:08:12Z</time>
      </trkpt>
      <trkpt lat="42.90607" lon="0.51248">
        <ele>1074.9</ele>
        <time>2017-07-13T06:08:13Z</time>
      </trkpt>
      <trkpt lat="42.90604" lon="0.51247">
        <ele>1075.2</ele>
        <time>2017-07-13T06:08:14Z</time>
      </trkpt>
      <trkpt lat="42.90602" lon="0.51247">
        <ele>1075.6</ele>
        <time>2017-07-13T06:08:15Z</time>
      </trkpt>
      <trkpt lat="42.90599" lon="0.51246">
        <ele>1075.9</ele>
        <time>2017-07-13T06:08:16Z</time>
      </trkpt>
      <trkpt lat="42.90597" lon="0.51245">
        <ele>1076.3</ele>
        <time>2017-07-13T06:08:17Z</time>
      </trkpt>
      <trkpt lat="42.90595" lon="0.51245">
        <ele>1076.6</ele>
        <time>2017-07-13T06:08:18Z</time>
      </trkpt>
      <trkpt lat="42.90592" lon="0.51244">
        <ele>1076.9</ele>
        <time>2017-07-13T06:08:19Z</time>
      </trkpt>
      <trkpt lat="42.9059" lon="0.51244">
        <ele>1077.2</ele>
        <time>2017-07-13T06:08:20Z</time>
      </trkpt>
      <trkpt lat="42.90587" lon="0.51243">
        <ele>1077.5</ele>
        <time>2017-07-13T06:08:21Z</time>
      </trkpt>
      <trkpt lat="42.90585" lon="0.51243">
        <ele>1077.7</ele>
        <time>2017-07-13T06:08:22Z</time>
      </trkpt>
      <trkpt lat="42.90582" lon="0.51242">
        <ele>1077.7</ele>
        <time>2017-07-13T06:08:23Z</time>
      </trkpt>
      <trkpt lat="42.9058" lon="0.51242">
        <ele>1077.1</ele>
        <time>2017-07-13T06:08:24Z</time>
      </trkpt>
      <trkpt lat="42.90577" lon="0.51242">
        <ele>1076.6</ele>
        <time>2017-07-13T06:08:25Z</time>
      </trkpt>
      <trkpt lat="42.90575" lon="0.51242">
        <ele>1076.1</ele>
        <time>2017-07-13T06:08:26Z</time>
      </trkpt>
      <trkpt lat="42.90573" lon="0.51241">
        <ele>1075.5</ele>
        <time>2017-07-13T06:08:27Z</time>
      </trkpt>
      <trkpt lat="42.9057" lon="0.51242">
        <ele>1074.9</ele>
        <time>2017-07-13T06:08:28Z</time>
      </trkpt>
      <trkpt lat="42.90568" lon="0.51242">
        <ele>1074.1</ele>
        <time>2017-07-13T06:08:29Z</time>
      </trkpt>
      <trkpt lat="42.90566" lon="0.51242">
        <ele>1073.4</ele>
        <time>2017-07-13T06:08:30Z</time>
      </trkpt>
      <trkpt lat="42.90563" lon="0.51243">
        <ele>1072.5</ele>
        <time>2017-07-13T06:08:31Z</time>
      </trkpt>
      <trkpt lat="42.90561" lon="0.51244">
        <ele>1071.6</ele>
        <time>2017-07-13T06:08:32Z</time>
      </trkpt>
      <trkpt lat="42.90559" lon="0.51245">
        <ele>1070.6</ele>
        <time>2017-07-13T06:08:33Z</time>
      </trkpt>
      <trkpt lat="42.90556" lon="0.51246">
        <ele>1069.7</ele>
        <time>2017-07-13T06:08:34Z</time>
      </trkpt>
      <trkpt lat="42.90554" lon="0.51247">
        <ele>1068.9</ele>
        <time>2017-07-13T06:08:35Z</time>
      </trkpt>
      <trkpt lat="42.90552" lon="0.51248">
        <ele>1068.1</ele>
        <time>2017-07-13T06:08:36Z</time>
      </trkpt>
      <trkpt lat="42.90549" lon="0.51248">
        <ele>1067.3</ele>
        <time>2017-07-13T06:08:37Z</time>
      </trkpt>
      <trkpt lat="42.90547" lon="0.51248">
        <ele>1066.7</ele>
        <time>2017-07-13T06:08:38Z</time>
      </trkpt>
      <trkpt lat="42.90544" lon="0.51248">
        <ele>1066.1</ele>
        <time>2017-07-13T06:08:39Z</time>
      </trkpt>
      <trkpt lat="42.90541" lon="0.51248">
        <ele>1065.5</ele>
        <time>2017-07-13T06:08:40Z</time>
      </trkpt>
      <trkpt lat="42.90539" lon="0.51248">
        <ele>1064.9</ele>
        <time>2017-07-13T06:08:41Z</time>
      </trkpt>
      <trkpt lat="42.90536" lon="0.51247">
        <ele>1064.4</ele>
        <time>2017-07-13T06:08:42Z</time>
      </trkpt>
      <trkpt lat="42.90533" lon="0.51247">
        <ele>1063.8</ele>
        <time>2017-07-13T06:08:43Z</time>
      </trkpt>
      <trkpt lat="42.90531" lon="0.51247">
        <ele>1063.1</ele>
        <time>2017-07-13T06:08:44Z</time>
      </trkpt>
      <trkpt lat="42.90528" lon="0.51247">
        <ele>1062.4</ele>
        <time>2017-07-13T06:08:45Z</time>
      </trkpt>
      <trkpt lat="42.90526" lon="0.51247">
        <ele>1061.8</ele>
        <time>2017-07-13T06:08:46Z</time>
      </trkpt>
      <trkpt lat="42.90523" lon="0.51248">
        <ele>1061.1</ele>
        <time>2017-07-13T06:08:47Z</time>
      </trkpt>
      <trkpt lat="42.9052" lon="0.51248">
        <ele>1060.4</ele>
        <time>2017-07-13T06:08:48Z</time>
      </trkpt>
      <trkpt lat="42.90518" lon="0.51248">
        <ele>1059.8</ele>
        <time>2017-07-13T06:08:49Z</time>
      </trkpt>
      <trkpt lat="42.90515" lon="0.51248">
        <ele>1059.2</ele>
        <time>2017-07-13T06:08:50Z</time>
      </trkpt>
      <trkpt lat="42.90513" lon="0.51247">
        <ele>1058.7</ele>
        <time>2017-07-13T06:08:51Z</time>
      </trkpt>
      <trkpt lat="42.90511" lon="0.51247">
        <ele>1058.2</ele>
        <time>2017-07-13T06:08:52Z</time>
      </trkpt>
      <trkpt lat="42.90508" lon="0.51246">
        <ele>1057.8</ele>
        <time>2017-07-13T06:08:53Z</time>
      </trkpt>
      <trkpt lat="42.90506" lon="0.51245">
        <ele>1057.4</ele>
        <time>2017-07-13T06:08:54Z</time>
      </trkpt>
      <trkpt lat="42.90504" lon="0.51244">
        <ele>1057</ele>
        <time>2017-07-13T06:08:55Z</time>
      </trkpt>
      <trkpt lat="42.90502" lon="0.51243">
        <ele>1056.6</ele>
        <time>2017-07-13T06:08:56Z</time>
      </trkpt>
      <trkpt lat="42.90499" lon="0.51242">
        <ele>1056.3</ele>
        <time>2017-07-13T06:08:57Z</time>
      </trkpt>
      <trkpt lat="42.90497" lon="0.5124">
        <ele>1056.1</ele>
        <time>2017-07-13T06:08:58Z</time>
      </trkpt>
      <trkpt lat="42.90495" lon="0.51239">
        <ele>1055.9</ele>
        <time>2017-07-13T06:08:59Z</time>
      </trkpt>
      <trkpt lat="42.90493" lon="0.51237">
        <ele>1055.7</ele>
        <time>2017-07-13T06:09:00Z</time>
      </trkpt>
      <trkpt lat="42.90491" lon="0.51235">
        <ele>1055.5</ele>
        <time>2017-07-13T06:09:01Z</time>
      </trkpt>
      <trkpt lat="42.90489" lon="0.51233">
        <ele>1055.3</ele>
        <time>2017-07-13T06:09:02Z</time>
      </trkpt>
      <trkpt lat="42.90487" lon="0.51231">
        <ele>1055.2</ele>
        <time>2017-07-13T06:09:03Z</time>
      </trkpt>
      <trkpt lat="42.90486" lon="0.51229">
        <ele>1055.1</ele>
        <time>2017-07-13T06:09:04Z</time>
      </trkpt>
      <trkpt lat="42.90484" lon="0.51227">
        <ele>1055.1</ele>
        <time>2017-07-13T06:09:05Z</time>
      </trkpt>
      <trkpt lat="42.90482" lon="0.51224">
        <ele>1055</ele>
        <time>2017-07-13T06:09:06Z</time>
      </trkpt>
      <trkpt lat="42.90481" lon="0.51222">
        <ele>1055</ele>
        <time>2017-07-13T06:09:07Z</time>
      </trkpt>
      <trkpt lat="42.90479" lon="0.51219">
        <ele>1055.1</ele>
        <time>2017-07-13T06:09:08Z</time>
      </trkpt>
      <trkpt lat="42.90478" lon="0.51217">
        <ele>1055.1</ele>
        <time>2017-07-13T06:09:09Z</time>
      </trkpt>
      <trkpt lat="42.90477" lon="0.51214">
        <ele>1055.3</ele>
        <time>2017-07-13T06:09:10Z</time>
      </trkpt>
      <trkpt lat="42.90476" lon="0.51212">
        <ele>1055.4</ele>
        <time>2017-07-13T06:09:11Z</time>
      </trkpt>
      <trkpt lat="42.90476" lon="0.51209">
        <ele>1055.7</ele>
        <time>2017-07-13T06:09:12Z</time>
      </trkpt>
      <trkpt lat="42.90475" lon="0.51206">
        <ele>1056</ele>
        <time>2017-07-13T06:09:13Z</time>
      </trkpt>
      <trkpt lat="42.90475" lon="0.51203">
        <ele>1056.3</ele>
        <time>2017-07-13T06:09:14Z</time>
      </trkpt>
      <trkpt lat="42.90475" lon="0.512">
        <ele>1056.7</ele>
        <time>2017-07-13T06:09:15Z</time>
      </trkpt>
      <trkpt lat="42.90475" lon="0.51198">
        <ele>1057.2</ele>
        <time>2017-07-13T06:09:16Z</time>
      </trkpt>
      <trkpt lat="42.90475" lon="0.51195">
        <ele>1057.8</ele>
        <time>2017-07-13T06:09:17Z</time>
      </trkpt>
      <trkpt lat="42.90476" lon="0.51192">
        <ele>1058.4</ele>
        <time>2017-07-13T06:09:18Z</time>
      </trkpt>
      <trkpt lat="42.90476" lon="0.51189">
        <ele>1058.9</ele>
        <time>2017-07-13T06:09:19Z</time>
      </trkpt>
      <trkpt lat="42.90477" lon="0.51186">
        <ele>1059.6</ele>
        <time>2017-07-13T06:09:20Z</time>
      </trkpt>
      <trkpt lat="42.90478" lon="0.51183">
        <ele>1060.2</ele>
        <time>2017-07-13T06:09:21Z</time>
      </trkpt>
      <trkpt lat="42.90478" lon="0.5118">
        <ele>1060.9</ele>
        <time>2017-07-13T06:09:22Z</time>
      </trkpt>
      <trkpt lat="42.90479" lon="0.51177">
        <ele>1061.6</ele>
        <time>2017-07-13T06:09:23Z</time>
      </trkpt>
      <trkpt lat="42.9048" lon="0.51174">
        <ele>1062.3</ele>
        <time>2017-07-13T06:09:24Z</time>
      </trkpt>
      <trkpt lat="42.90481" lon="0.51171">
        <ele>1063</ele>
        <time>2017-07-13T06:09:25Z</time>
      </trkpt>
      <trkpt lat="42.90481" lon="0.51168">
        <ele>1063.8</ele>
        <time>2017-07-13T06:09:26Z</time>
      </trkpt>
      <trkpt lat="42.90482" lon="0.51165">
        <ele>1064.2</ele>
        <time>2017-07-13T06:09:27Z</time>
      </trkpt>
      <trkpt lat="42.90483" lon="0.51162">
        <ele>1064.4</ele>
        <time>2017-07-13T06:09:28Z</time>
      </trkpt>
      <trkpt lat="42.90484" lon="0.51159">
        <ele>1064.6</ele>
        <time>2017-07-13T06:09:29Z</time>
      </trkpt>
      <trkpt lat="42.90485" lon="0.51157">
        <ele>1064.8</ele>
        <time>2017-07-13T06:09:30Z</time>
      </trkpt>
      <trkpt lat="42.90486" lon="0.51154">
        <ele>1065</ele>
        <time>2017-07-13T06:09:31Z</time>
      </trkpt>
      <trkpt lat="42.90487" lon="0.51151">
        <ele>1065.2</ele>
        <time>2017-07-13T06:09:32Z</time>
      </trkpt>
      <trkpt lat="42.90488" lon="0.51148">
        <ele>1065.4</ele>
        <time>2017-07-13T06:09:33Z</time>
      </trkpt>
      <trkpt lat="42.90489" lon="0.51146">
        <ele>1065.6</ele>
        <time>2017-07-13T06:09:34Z</time>
      </trkpt>
      <trkpt lat="42.9049" lon="0.51143">
        <ele>1065.8</ele>
        <time>2017-07-13T06:09:35Z</time>
      </trkpt>
      <trkpt lat="42.90492" lon="0.5114">
        <ele>1066</ele>
        <time>2017-07-13T06:09:36Z</time>
      </trkpt>
      <trkpt lat="42.90493" lon="0.51138">
        <ele>1066.2</ele>
        <time>2017-07-13T06:09:37Z</time>
      </trkpt>
      <trkpt lat="42.90494" lon="0.51135">
        <ele>1066.4</ele>
        <time>2017-07-13T06:09:38Z</time>
      </trkpt>
      <trkpt lat="42.90496" lon="0.51132">
        <ele>1066.6</ele>
        <time>2017-07-13T06:09:39Z</time>
      </trkpt>
      <trkpt lat="42.90497" lon="0.5113">
        <ele>1066.7</ele>
        <time>2017-07-13T06:09:40Z</time>
      </trkpt>
      <trkpt lat="42.90499" lon="0.51127">
        <ele>1066.9</ele>
        <time>2017-07-13T06:09:41Z</time>
      </trkpt>
      <trkpt lat="42.905" lon="0.51125">
        <ele>1067.2</ele>
        <time>2017-07-13T06:09:42Z</time>
      </trkpt>
      <trkpt lat="42.90502" lon="0.51122">
        <ele>1067.8</ele>
        <time>2017-07-13T06:09:43Z</time>
      </trkpt>
      <trkpt lat="42.90504" lon="0.51119">
        <ele>1068.5</ele>
        <time>2017-07-13T06:09:44Z</time>
      </trkpt>
      <trkpt lat="42.90505" lon="0.51117">
        <ele>1069.1</ele>
        <time>2017-07-13T06:09:45Z</time>
      </trkpt>
      <trkpt lat="42.90506" lon="0.51114">
        <ele>1069.7</ele>
        <time>2017-07-13T06:09:46Z</time>
      </trkpt>
      <trkpt lat="42.90508" lon="0.51111">
        <ele>1070.2</ele>
        <time>2017-07-13T06:09:47Z</time>
      </trkpt>
      <trkpt lat="42.90509" lon="0.51108">
        <ele>1070.7</ele>
        <time>2017-07-13T06:09:48Z</time>
      </trkpt>
      <trkpt lat="42.9051" lon="0.51106">
        <ele>1071.3</ele>
        <time>2017-07-13T06:09:49Z</time>
      </trkpt>
      <trkpt lat="42.90512" lon="0.51103">
        <ele>1071.9</ele>
        <time>2017-07-13T06:09:50Z</time>
      </trkpt>
      <trkpt lat="42.90513" lon="0.511">
        <ele>1072.6</ele>
        <time>2017-07-13T06:09:51Z</time>
      </trkpt>
      <trkpt lat="42.90515" lon="0.51097">
        <ele>1073.4</ele>
        <time>2017-07-13T06:09:52Z</time>
      </trkpt>
      <trkpt lat="42.90516" lon="0.51094">
        <ele>1074.1</ele>
        <time>2017-07-13T06:09:53Z</time>
      </trkpt>
      <trkpt lat="42.90517" lon="0.51091">
        <ele>1074.8</ele>
        <time>2017-07-13T06:09:54Z</time>
      </trkpt>
      <trkpt lat="42.90519" lon="0.51089">
        <ele>1075.4</ele>
        <time>2017-07-13T06:09:55Z</time>
      </trkpt>
      <trkpt lat="42.9052" lon="0.51086">
        <ele>1076</ele>
        <time>2017-07-13T06:09:56Z</time>
      </trkpt>
      <trkpt lat="42.90521" lon="0.51083">
        <ele>1076.7</ele>
        <time>2017-07-13T06:09:57Z</time>
      </trkpt>
      <trkpt lat="42.90522" lon="0.5108">
        <ele>1077.7</ele>
        <time>2017-07-13T06:09:58Z</time>
      </trkpt>
      <trkpt lat="42.90523" lon="0.51077">
        <ele>1078.5</ele>
        <time>2017-07-13T06:09:59Z</time>
      </trkpt>
      <trkpt lat="42.90525" lon="0.51074">
        <ele>1079.5</ele>
        <time>2017-07-13T06:10:00Z</time>
      </trkpt>
      <trkpt lat="42.90526" lon="0.51071">
        <ele>1080.4</ele>
        <time>2017-07-13T06:10:01Z</time>
      </trkpt>
      <trkpt lat="42.90527" lon="0.51068">
        <ele>1081.3</ele>
        <time>2017-07-13T06:10:02Z</time>
      </trkpt>
      <trkpt lat="42.90528" lon="0.51064">
        <ele>1082.1</ele>
        <time>2017-07-13T06:10:03Z</time>
      </trkpt>
      <trkpt lat="42.90529" lon="0.51061">
        <ele>1083</ele>
        <time>2017-07-13T06:10:04Z</time>
      </trkpt>
      <trkpt lat="42.90529" lon="0.51058">
        <ele>1083.8</ele>
        <time>2017-07-13T06:10:05Z</time>
      </trkpt>
      <trkpt lat="42.9053" lon="0.51055">
        <ele>1084.7</ele>
        <time>2017-07-13T06:10:06Z</time>
      </trkpt>
      <trkpt lat="42.90531" lon="0.51051">
        <ele>1085.5</ele>
        <time>2017-07-13T06:10:07Z</time>
      </trkpt>
      <trkpt lat="42.90532" lon="0.51048">
        <ele>1086.4</ele>
        <time>2017-07-13T06:10:08Z</time>
      </trkpt>
      <trkpt lat="42.90533" lon="0.51044">
        <ele>1087.2</ele>
        <time>2017-07-13T06:10:09Z</time>
      </trkpt>
      <trkpt lat="42.90533" lon="0.51041">
        <ele>1088</ele>
        <time>2017-07-13T06:10:10Z</time>
      </trkpt>
      <trkpt lat="42.90534" lon="0.51037">
        <ele>1088.6</ele>
        <time>2017-07-13T06:10:11Z</time>
      </trkpt>
      <trkpt lat="42.90534" lon="0.51034">
        <ele>1089.3</ele>
        <time>2017-07-13T06:10:12Z</time>
      </trkpt>
      <trkpt lat="42.90535" lon="0.5103">
        <ele>1089.8</ele>
        <time>2017-07-13T06:10:13Z</time>
      </trkpt>
      <trkpt lat="42.90535" lon="0.51027">
        <ele>1090.4</ele>
        <time>2017-07-13T06:10:14Z</time>
      </trkpt>
      <trkpt lat="42.90535" lon="0.51023">
        <ele>1090.8</ele>
        <time>2017-07-13T06:10:15Z</time>
      </trkpt>
      <trkpt lat="42.90535" lon="0.51019">
        <ele>1091.1</ele>
        <time>2017-07-13T06:10:16Z</time>
      </trkpt>
      <trkpt lat="42.90535" lon="0.51016">
        <ele>1091.2</ele>
        <time>2017-07-13T06:10:17Z</time>
      </trkpt>
      <trkpt lat="42.90534" lon="0.51012">
        <ele>1091.3</ele>
        <time>2017-07-13T06:10:18Z</time>
      </trkpt>
      <trkpt lat="42.90534" lon="0.51009">
        <ele>1091.3</ele>
        <time>2017-07-13T06:10:19Z</time>
      </trkpt>
      <trkpt lat="42.90533" lon="0.51005">
        <ele>1091</ele>
        <time>2017-07-13T06:10:20Z</time>
      </trkpt>
      <trkpt lat="42.90532" lon="0.51001">
        <ele>1090.8</ele>
        <time>2017-07-13T06:10:21Z</time>
      </trkpt>
      <trkpt lat="42.90531" lon="0.50998">
        <ele>1090.7</ele>
        <time>2017-07-13T06:10:22Z</time>
      </trkpt>
      <trkpt lat="42.9053" lon="0.50994">
        <ele>1090.8</ele>
        <time>2017-07-13T06:10:23Z</time>
      </trkpt>
      <trkpt lat="42.90529" lon="0.5099">
        <ele>1090.7</ele>
        <time>2017-07-13T06:10:24Z</time>
      </trkpt>
      <trkpt lat="42.90528" lon="0.50987">
        <ele>1090.7</ele>
        <time>2017-07-13T06:10:25Z</time>
      </trkpt>
      <trkpt lat="42.90526" lon="0.50983">
        <ele>1090.5</ele>
        <time>2017-07-13T06:10:26Z</time>
      </trkpt>
      <trkpt lat="42.90525" lon="0.5098">
        <ele>1090.4</ele>
        <time>2017-07-13T06:10:27Z</time>
      </trkpt>
      <trkpt lat="42.90524" lon="0.50976">
        <ele>1090.2</ele>
        <time>2017-07-13T06:10:28Z</time>
      </trkpt>
      <trkpt lat="42.90522" lon="0.50972">
        <ele>1090</ele>
        <time>2017-07-13T06:10:29Z</time>
      </trkpt>
      <trkpt lat="42.90521" lon="0.50969">
        <ele>1089.9</ele>
        <time>2017-07-13T06:10:30Z</time>
      </trkpt>
      <trkpt lat="42.9052" lon="0.50965">
        <ele>1089.7</ele>
        <time>2017-07-13T06:10:31Z</time>
      </trkpt>
      <trkpt lat="42.90518" lon="0.50961">
        <ele>1089.5</ele>
        <time>2017-07-13T06:10:32Z</time>
      </trkpt>
      <trkpt lat="42.90517" lon="0.50958">
        <ele>1089.3</ele>
        <time>2017-07-13T06:10:33Z</time>
      </trkpt>
      <trkpt lat="42.90516" lon="0.50954">
        <ele>1089.2</ele>
        <time>2017-07-13T06:10:34Z</time>
      </trkpt>
      <trkpt lat="42.90514" lon="0.5095">
        <ele>1089.1</ele>
        <time>2017-07-13T06:10:35Z</time>
      </trkpt>
      <trkpt lat="42.90513" lon="0.50947">
        <ele>1089</ele>
        <time>2017-07-13T06:10:36Z</time>
      </trkpt>
      <trkpt lat="42.90512" lon="0.50943">
        <ele>1088.9</ele>
        <time>2017-07-13T06:10:37Z</time>
      </trkpt>
      <trkpt lat="42.90511" lon="0.50939">
        <ele>1088.9</ele>
        <time>2017-07-13T06:10:38Z</time>
      </trkpt>
      <trkpt lat="42.9051" lon="0.50936">
        <ele>1089</ele>
        <time>2017-07-13T06:10:39Z</time>
      </trkpt>
      <trkpt lat="42.90509" lon="0.50932">
        <ele>1088.9</ele>
        <time>2017-07-13T06:10:40Z</time>
      </trkpt>
      <trkpt lat="42.90507" lon="0.50928">
        <ele>1089</ele>
        <time>2017-07-13T06:10:41Z</time>
      </trkpt>
      <trkpt lat="42.90506" lon="0.50925">
        <ele>1088.9</ele>
        <time>2017-07-13T06:10:42Z</time>
      </trkpt>
      <trkpt lat="42.90505" lon="0.50921">
        <ele>1088.9</ele>
        <time>2017-07-13T06:10:43Z</time>
      </trkpt>
      <trkpt lat="42.90504" lon="0.50917">
        <ele>1088.7</ele>
        <time>2017-07-13T06:10:44Z</time>
      </trkpt>
      <trkpt lat="42.90503" lon="0.50914">
        <ele>1088.7</ele>
        <time>2017-07-13T06:10:45Z</time>
      </trkpt>
      <trkpt lat="42.90501" lon="0.5091">
        <ele>1088.8</ele>
        <time>2017-07-13T06:10:46Z</time>
      </trkpt>
      <trkpt lat="42.905" lon="0.50907">
        <ele>1088.8</ele>
        <time>2017-07-13T06:10:47Z</time>
      </trkpt>
      <trkpt lat="42.90499" lon="0.50903">
        <ele>1089.4</ele>
        <time>2017-07-13T06:10:48Z</time>
      </trkpt>
      <trkpt lat="42.90497" lon="0.509">
        <ele>1090</ele>
        <time>2017-07-13T06:10:49Z</time>
      </trkpt>
      <trkpt lat="42.90496" lon="0.50897">
        <ele>1090.5</ele>
        <time>2017-07-13T06:10:50Z</time>
      </trkpt>
      <trkpt lat="42.90495" lon="0.50893">
        <ele>1091.1</ele>
        <time>2017-07-13T06:10:51Z</time>
      </trkpt>
      <trkpt lat="42.90493" lon="0.5089">
        <ele>1091.6</ele>
        <time>2017-07-13T06:10:52Z</time>
      </trkpt>
      <trkpt lat="42.90492" lon="0.50887">
        <ele>1092.2</ele>
        <time>2017-07-13T06:10:53Z</time>
      </trkpt>
      <trkpt lat="42.90491" lon="0.50884">
        <ele>1092.7</ele>
        <time>2017-07-13T06:10:54Z</time>
      </trkpt>
      <trkpt lat="42.9049" lon="0.50881">
        <ele>1093.2</ele>
        <time>2017-07-13T06:10:55Z</time>
      </trkpt>
      <trkpt lat="42.90488" lon="0.50878">
        <ele>1093.6</ele>
        <time>2017-07-13T06:10:56Z</time>
      </trkpt>
      <trkpt lat="42.90487" lon="0.50874">
        <ele>1094.1</ele>
        <time>2017-07-13T06:10:57Z</time>
      </trkpt>
      <trkpt lat="42.90485" lon="0.50871">
        <ele>1094.5</ele>
        <time>2017-07-13T06:10:58Z</time>
      </trkpt>
      <trkpt lat="42.90484" lon="0.50868">
        <ele>1094.8</ele>
        <time>2017-07-13T06:10:59Z</time>
      </trkpt>
      <trkpt lat="42.90482" lon="0.50865">
        <ele>1095.1</ele>
        <time>2017-07-13T06:11:00Z</time>
      </trkpt>
      <trkpt lat="42.9048" lon="0.50862">
        <ele>1095.2</ele>
        <time>2017-07-13T06:11:01Z</time>
      </trkpt>
      <trkpt lat="42.90478" lon="0.5086">
        <ele>1095.2</ele>
        <time>2017-07-13T06:11:02Z</time>
      </trkpt>
      <trkpt lat="42.90475" lon="0.50858">
        <ele>1095</ele>
        <time>2017-07-13T06:11:03Z</time>
      </trkpt>
      <trkpt lat="42.90473" lon="0.50856">
        <ele>1094.6</ele>
        <time>2017-07-13T06:11:04Z</time>
      </trkpt>
      <trkpt lat="42.9047" lon="0.50854">
        <ele>1094.2</ele>
        <time>2017-07-13T06:11:05Z</time>
      </trkpt>
      <trkpt lat="42.90467" lon="0.50853">
        <ele>1093.6</ele>
        <time>2017-07-13T06:11:06Z</time>
      </trkpt>
      <trkpt lat="42.90464" lon="0.50851">
        <ele>1093</ele>
        <time>2017-07-13T06:11:07Z</time>
      </trkpt>
      <trkpt lat="42.90462" lon="0.5085">
        <ele>1092.4</ele>
        <time>2017-07-13T06:11:08Z</time>
      </trkpt>
      <trkpt lat="42.90459" lon="0.50848">
        <ele>1091.8</ele>
        <time>2017-07-13T06:11:09Z</time>
      </trkpt>
      <trkpt lat="42.90456" lon="0.50847">
        <ele>1091.2</ele>
        <time>2017-07-13T06:11:10Z</time>
      </trkpt>
      <trkpt lat="42.90453" lon="0.50845">
        <ele>1090.6</ele>
        <time>2017-07-13T06:11:11Z</time>
      </trkpt>
      <trkpt lat="42.9045" lon="0.50844">
        <ele>1090</ele>
        <time>2017-07-13T06:11:12Z</time>
      </trkpt>
      <trkpt lat="42.90447" lon="0.50842">
        <ele>1089.5</ele>
        <time>2017-07-13T06:11:13Z</time>
      </trkpt>
      <trkpt lat="42.90444" lon="0.5084">
        <ele>1088.9</ele>
        <time>2017-07-13T06:11:14Z</time>
      </trkpt>
      <trkpt lat="42.90441" lon="0.50838">
        <ele>1088.4</ele>
        <time>2017-07-13T06:11:15Z</time>
      </trkpt>
      <trkpt lat="42.90439" lon="0.50836">
        <ele>1087.9</ele>
        <time>2017-07-13T06:11:16Z</time>
      </trkpt>
      <trkpt lat="42.90436" lon="0.50834">
        <ele>1087.4</ele>
        <time>2017-07-13T06:11:17Z</time>
      </trkpt>
      <trkpt lat="42.90433" lon="0.50832">
        <ele>1087.2</ele>
        <time>2017-07-13T06:11:18Z</time>
      </trkpt>
      <trkpt lat="42.9043" lon="0.5083">
        <ele>1087</ele>
        <time>2017-07-13T06:11:19Z</time>
      </trkpt>
      <trkpt lat="42.90427" lon="0.50828">
        <ele>1086.9</ele>
        <time>2017-07-13T06:11:20Z</time>
      </trkpt>
      <trkpt lat="42.90425" lon="0.50826">
        <ele>1086.6</ele>
        <time>2017-07-13T06:11:21Z</time>
      </trkpt>
      <trkpt lat="42.90422" lon="0.50824">
        <ele>1086.2</ele>
        <time>2017-07-13T06:11:22Z</time>
      </trkpt>
      <trkpt lat="42.90419" lon="0.50822">
        <ele>1085.8</ele>
        <time>2017-07-13T06:11:23Z</time>
      </trkpt>
      <trkpt lat="42.90416" lon="0.50821">
        <ele>1086</ele>
        <time>2017-07-13T06:11:24Z</time>
      </trkpt>
      <trkpt lat="42.90413" lon="0.50819">
        <ele>1087.3</ele>
        <time>2017-07-13T06:11:25Z</time>
      </trkpt>
      <trkpt lat="42.9041" lon="0.50816">
        <ele>1088.6</ele>
        <time>2017-07-13T06:11:26Z</time>
      </trkpt>
      <trkpt lat="42.90408" lon="0.50814">
        <ele>1090</ele>
        <time>2017-07-13T06:11:27Z</time>
      </trkpt>
      <trkpt lat="42.90406" lon="0.50811">
        <ele>1091.5</ele>
        <time>2017-07-13T06:11:28Z</time>
      </trkpt>
      <trkpt lat="42.90404" lon="0.50808">
        <ele>1093</ele>
        <time>2017-07-13T06:11:29Z</time>
      </trkpt>
      <trkpt lat="42.90403" lon="0.50804">
        <ele>1094.7</ele>
        <time>2017-07-13T06:11:30Z</time>
      </trkpt>
      <trkpt lat="42.90402" lon="0.508">
        <ele>1096.4</ele>
        <time>2017-07-13T06:11:31Z</time>
      </trkpt>
      <trkpt lat="42.90401" lon="0.50796">
        <ele>1098.1</ele>
        <time>2017-07-13T06:11:32Z</time>
      </trkpt>
      <trkpt lat="42.904" lon="0.50791">
        <ele>1099.8</ele>
        <time>2017-07-13T06:11:33Z</time>
      </trkpt>
      <trkpt lat="42.90399" lon="0.50787">
        <ele>1101.6</ele>
        <time>2017-07-13T06:11:34Z</time>
      </trkpt>
      <trkpt lat="42.90399" lon="0.50782">
        <ele>1103.3</ele>
        <time>2017-07-13T06:11:35Z</time>
      </trkpt>
      <trkpt lat="42.90398" lon="0.50778">
        <ele>1105.1</ele>
        <time>2017-07-13T06:11:36Z</time>
      </trkpt>
      <trkpt lat="42.90397" lon="0.50774">
        <ele>1106.7</ele>
        <time>2017-07-13T06:11:37Z</time>
      </trkpt>
      <trkpt lat="42.90396" lon="0.5077">
        <ele>1108.3</ele>
        <time>2017-07-13T06:11:38Z</time>
      </trkpt>
      <trkpt lat="42.90393" lon="0.50767">
        <ele>1109.8</ele>
        <time>2017-07-13T06:11:39Z</time>
      </trkpt>
      <trkpt lat="42.90391" lon="0.50765">
        <ele>1110.9</ele>
        <time>2017-07-13T06:11:40Z</time>
      </trkpt>
      <trkpt lat="42.90388" lon="0.50764">
        <ele>1111.8</ele>
        <time>2017-07-13T06:11:41Z</time>
      </trkpt>
      <trkpt lat="42.90385" lon="0.50765">
        <ele>1112.2</ele>
        <time>2017-07-13T06:11:42Z</time>
      </trkpt>
      <trkpt lat="42.90382" lon="0.50766">
        <ele>1112.2</ele>
        <time>2017-07-13T06:11:43Z</time>
      </trkpt>
      <trkpt lat="42.9038" lon="0.50768">
        <ele>1112</ele>
        <time>2017-07-13T06:11:44Z</time>
      </trkpt>
      <trkpt lat="42.90378" lon="0.5077">
        <ele>1111.5</ele>
        <time>2017-07-13T06:11:45Z</time>
      </trkpt>
      <trkpt lat="42.90376" lon="0.50773">
        <ele>1110.8</ele>
        <time>2017-07-13T06:11:46Z</time>
      </trkpt>
      <trkpt lat="42.90374" lon="0.50776">
        <ele>1110.1</ele>
        <time>2017-07-13T06:11:47Z</time>
      </trkpt>
      <trkpt lat="42.90373" lon="0.50779">
        <ele>1109.3</ele>
        <time>2017-07-13T06:11:48Z</time>
      </trkpt>
      <trkpt lat="42.90371" lon="0.50782">
        <ele>1108.5</ele>
        <time>2017-07-13T06:11:49Z</time>
      </trkpt>
      <trkpt lat="42.9037" lon="0.50785">
        <ele>1107.6</ele>
        <time>2017-07-13T06:11:50Z</time>
      </trkpt>
      <trkpt lat="42.90369" lon="0.50788">
        <ele>1106.8</ele>
        <time>2017-07-13T06:11:51Z</time>
      </trkpt>
      <trkpt lat="42.90369" lon="0.50791">
        <ele>1106</ele>
        <time>2017-07-13T06:11:52Z</time>
      </trkpt>
      <trkpt lat="42.90368" lon="0.50794">
        <ele>1105.2</ele>
        <time>2017-07-13T06:11:53Z</time>
      </trkpt>
      <trkpt lat="42.90367" lon="0.50796">
        <ele>1104.4</ele>
        <time>2017-07-13T06:11:54Z</time>
      </trkpt>
      <trkpt lat="42.90367" lon="0.50799">
        <ele>1103.6</ele>
        <time>2017-07-13T06:11:55Z</time>
      </trkpt>
      <trkpt lat="42.90366" lon="0.50801">
        <ele>1102.9</ele>
        <time>2017-07-13T06:11:56Z</time>
      </trkpt>
      <trkpt lat="42.90366" lon="0.50804">
        <ele>1102.1</ele>
        <time>2017-07-13T06:11:57Z</time>
      </trkpt>
      <trkpt lat="42.90365" lon="0.50806">
        <ele>1101.3</ele>
        <time>2017-07-13T06:11:58Z</time>
      </trkpt>
      <trkpt lat="42.90365" lon="0.50809">
        <ele>1100.5</ele>
        <time>2017-07-13T06:11:59Z</time>
      </trkpt>
      <trkpt lat="42.90365" lon="0.50812">
        <ele>1099.7</ele>
        <time>2017-07-13T06:12:00Z</time>
      </trkpt>
      <trkpt lat="42.90364" lon="0.50814">
        <ele>1098.9</ele>
        <time>2017-07-13T06:12:01Z</time>
      </trkpt>
      <trkpt lat="42.90363" lon="0.50817">
        <ele>1098.1</ele>
        <time>2017-07-13T06:12:02Z</time>
      </trkpt>
      <trkpt lat="42.90363" lon="0.5082">
        <ele>1097.3</ele>
        <time>2017-07-13T06:12:03Z</time>
      </trkpt>
      <trkpt lat="42.90362" lon="0.50822">
        <ele>1096.6</ele>
        <time>2017-07-13T06:12:04Z</time>
      </trkpt>
      <trkpt lat="42.9036" lon="0.50825">
        <ele>1095.9</ele>
        <time>2017-07-13T06:12:05Z</time>
      </trkpt>
      <trkpt lat="42.90359" lon="0.50828">
        <ele>1095.3</ele>
        <time>2017-07-13T06:12:06Z</time>
      </trkpt>
      <trkpt lat="42.90357" lon="0.50831">
        <ele>1094.7</ele>
        <time>2017-07-13T06:12:07Z</time>
      </trkpt>
      <trkpt lat="42.90355" lon="0.50834">
        <ele>1094.3</ele>
        <time>2017-07-13T06:12:08Z</time>
      </trkpt>
      <trkpt lat="42.90352" lon="0.50837">
        <ele>1094.1</ele>
        <time>2017-07-13T06:12:09Z</time>
      </trkpt>
      <trkpt lat="42.9035" lon="0.5084">
        <ele>1094</ele>
        <time>2017-07-13T06:12:10Z</time>
      </trkpt>
      <trkpt lat="42.90347" lon="0.50843">
        <ele>1093.9</ele>
        <time>2017-07-13T06:12:11Z</time>
      </trkpt>
      <trkpt lat="42.90345" lon="0.50846">
        <ele>1093.7</ele>
        <time>2017-07-13T06:12:12Z</time>
      </trkpt>
      <trkpt lat="42.90343" lon="0.5085">
        <ele>1093.4</ele>
        <time>2017-07-13T06:12:13Z</time>
      </trkpt>
      <trkpt lat="42.90341" lon="0.50853">
        <ele>1093.2</ele>
        <time>2017-07-13T06:12:14Z</time>
      </trkpt>
      <trkpt lat="42.90338" lon="0.50857">
        <ele>1092.9</ele>
        <time>2017-07-13T06:12:15Z</time>
      </trkpt>
      <trkpt lat="42.90336" lon="0.5086">
        <ele>1092.6</ele>
        <time>2017-07-13T06:12:16Z</time>
      </trkpt>
      <trkpt lat="42.90334" lon="0.50864">
        <ele>1092.4</ele>
        <time>2017-07-13T06:12:17Z</time>
      </trkpt>
      <trkpt lat="42.90331" lon="0.50867">
        <ele>1092</ele>
        <time>2017-07-13T06:12:18Z</time>
      </trkpt>
      <trkpt lat="42.90328" lon="0.50871">
        <ele>1091.7</ele>
        <time>2017-07-13T06:12:19Z</time>
      </trkpt>
      <trkpt lat="42.90324" lon="0.50875">
        <ele>1091.3</ele>
        <time>2017-07-13T06:12:20Z</time>
      </trkpt>
      <trkpt lat="42.9032" lon="0.50878">
        <ele>1090.9</ele>
        <time>2017-07-13T06:12:21Z</time>
      </trkpt>
      <trkpt lat="42.90316" lon="0.50881">
        <ele>1090.6</ele>
        <time>2017-07-13T06:12:22Z</time>
      </trkpt>
      <trkpt lat="42.90312" lon="0.50883">
        <ele>1090.4</ele>
        <time>2017-07-13T06:12:23Z</time>
      </trkpt>
      <trkpt lat="42.90308" lon="0.50885">
        <ele>1090.3</ele>
        <time>2017-07-13T06:12:24Z</time>
      </trkpt>
      <trkpt lat="42.90305" lon="0.50886">
        <ele>1090.4</ele>
        <time>2017-07-13T06:12:25Z</time>
      </trkpt>
      <trkpt lat="42.90301" lon="0.50886">
        <ele>1090.7</ele>
        <time>2017-07-13T06:12:26Z</time>
      </trkpt>
      <trkpt lat="42.90298" lon="0.50886">
        <ele>1091.1</ele>
        <time>2017-07-13T06:12:27Z</time>
      </trkpt>
      <trkpt lat="42.90295" lon="0.50885">
        <ele>1091.6</ele>
        <time>2017-07-13T06:12:28Z</time>
      </trkpt>
      <trkpt lat="42.90292" lon="0.50884">
        <ele>1092.2</ele>
        <time>2017-07-13T06:12:29Z</time>
      </trkpt>
      <trkpt lat="42.90289" lon="0.50883">
        <ele>1092.8</ele>
        <time>2017-07-13T06:12:30Z</time>
      </trkpt>
      <trkpt lat="42.90286" lon="0.50883">
        <ele>1093.3</ele>
        <time>2017-07-13T06:12:31Z</time>
      </trkpt>
      <trkpt lat="42.90283" lon="0.50882">
        <ele>1093.8</ele>
        <time>2017-07-13T06:12:32Z</time>
      </trkpt>
      <trkpt lat="42.9028" lon="0.50882">
        <ele>1094.2</ele>
        <time>2017-07-13T06:12:33Z</time>
      </trkpt>
      <trkpt lat="42.90276" lon="0.50882">
        <ele>1094.6</ele>
        <time>2017-07-13T06:12:34Z</time>
      </trkpt>
      <trkpt lat="42.90273" lon="0.50882">
        <ele>1095</ele>
        <time>2017-07-13T06:12:35Z</time>
      </trkpt>
      <trkpt lat="42.9027" lon="0.50882">
        <ele>1095.4</ele>
        <time>2017-07-13T06:12:36Z</time>
      </trkpt>
      <trkpt lat="42.90267" lon="0.50881">
        <ele>1095.8</ele>
        <time>2017-07-13T06:12:37Z</time>
      </trkpt>
      <trkpt lat="42.90264" lon="0.50881">
        <ele>1096.4</ele>
        <time>2017-07-13T06:12:38Z</time>
      </trkpt>
      <trkpt lat="42.90261" lon="0.5088">
        <ele>1097</ele>
        <time>2017-07-13T06:12:39Z</time>
      </trkpt>
      <trkpt lat="42.90258" lon="0.50879">
        <ele>1097.8</ele>
        <time>2017-07-13T06:12:40Z</time>
      </trkpt>
      <trkpt lat="42.90255" lon="0.50878">
        <ele>1098.7</ele>
        <time>2017-07-13T06:12:41Z</time>
      </trkpt>
      <trkpt lat="42.90253" lon="0.50876">
        <ele>1099.7</ele>
        <time>2017-07-13T06:12:42Z</time>
      </trkpt>
      <trkpt lat="42.9025" lon="0.50875">
        <ele>1100.6</ele>
        <time>2017-07-13T06:12:43Z</time>
      </trkpt>
      <trkpt lat="42.90247" lon="0.50873">
        <ele>1101.4</ele>
        <time>2017-07-13T06:12:44Z</time>
      </trkpt>
      <trkpt lat="42.90244" lon="0.50871">
        <ele>1102.2</ele>
        <time>2017-07-13T06:12:45Z</time>
      </trkpt>
      <trkpt lat="42.90242" lon="0.50869">
        <ele>1102.9</ele>
        <time>2017-07-13T06:12:46Z</time>
      </trkpt>
      <trkpt lat="42.90239" lon="0.50867">
        <ele>1103.7</ele>
        <time>2017-07-13T06:12:47Z</time>
      </trkpt>
      <trkpt lat="42.90236" lon="0.50865">
        <ele>1104.4</ele>
        <time>2017-07-13T06:12:48Z</time>
      </trkpt>
      <trkpt lat="42.90234" lon="0.50863">
        <ele>1105.1</ele>
        <time>2017-07-13T06:12:49Z</time>
      </trkpt>
      <trkpt lat="42.90231" lon="0.50861">
        <ele>1105.7</ele>
        <time>2017-07-13T06:12:50Z</time>
      </trkpt>
      <trkpt lat="42.90229" lon="0.50859">
        <ele>1106.3</ele>
        <time>2017-07-13T06:12:51Z</time>
      </trkpt>
      <trkpt lat="42.90226" lon="0.50857">
        <ele>1106.9</ele>
        <time>2017-07-13T06:12:52Z</time>
      </trkpt>
      <trkpt lat="42.90224" lon="0.50855">
        <ele>1107.4</ele>
        <time>2017-07-13T06:12:53Z</time>
      </trkpt>
      <trkpt lat="42.90222" lon="0.50853">
        <ele>1107.9</ele>
        <time>2017-07-13T06:12:54Z</time>
      </trkpt>
      <trkpt lat="42.90219" lon="0.50851">
        <ele>1108.4</ele>
        <time>2017-07-13T06:12:55Z</time>
      </trkpt>
      <trkpt lat="42.90217" lon="0.50849">
        <ele>1108.8</ele>
        <time>2017-07-13T06:12:56Z</time>
      </trkpt>
      <trkpt lat="42.90214" lon="0.50847">
        <ele>1109.2</ele>
        <time>2017-07-13T06:12:57Z</time>
      </trkpt>
      <trkpt lat="42.90212" lon="0.50845">
        <ele>1109.6</ele>
        <time>2017-07-13T06:12:58Z</time>
      </trkpt>
      <trkpt lat="42.9021" lon="0.50843">
        <ele>1109.9</ele>
        <time>2017-07-13T06:12:59Z</time>
      </trkpt>
      <trkpt lat="42.90207" lon="0.50841">
        <ele>1110.2</ele>
        <time>2017-07-13T06:13:00Z</time>
      </trkpt>
      <trkpt lat="42.90205" lon="0.50839">
        <ele>1110.4</ele>
        <time>2017-07-13T06:13:01Z</time>
      </trkpt>
      <trkpt lat="42.90203" lon="0.50837">
        <ele>1110.6</ele>
        <time>2017-07-13T06:13:02Z</time>
      </trkpt>
      <trkpt lat="42.902" lon="0.50835">
        <ele>1110.8</ele>
        <time>2017-07-13T06:13:03Z</time>
      </trkpt>
      <trkpt lat="42.90198" lon="0.50833">
        <ele>1111</ele>
        <time>2017-07-13T06:13:04Z</time>
      </trkpt>
      <trkpt lat="42.90195" lon="0.50831">
        <ele>1111.7</ele>
        <time>2017-07-13T06:13:05Z</time>
      </trkpt>
      <trkpt lat="42.90193" lon="0.50829">
        <ele>1112.4</ele>
        <time>2017-07-13T06:13:06Z</time>
      </trkpt>
      <trkpt lat="42.90191" lon="0.50827">
        <ele>1113</ele>
        <time>2017-07-13T06:13:07Z</time>
      </trkpt>
      <trkpt lat="42.90188" lon="0.50825">
        <ele>1113.6</ele>
        <time>2017-07-13T06:13:08Z</time>
      </trkpt>
      <trkpt lat="42.90186" lon="0.50823">
        <ele>1114.2</ele>
        <time>2017-07-13T06:13:09Z</time>
      </trkpt>
      <trkpt lat="42.90183" lon="0.50822">
        <ele>1114.7</ele>
        <time>2017-07-13T06:13:10Z</time>
      </trkpt>
      <trkpt lat="42.9018" lon="0.5082">
        <ele>1115.2</ele>
        <time>2017-07-13T06:13:11Z</time>
      </trkpt>
      <trkpt lat="42.90178" lon="0.50819">
        <ele>1115.6</ele>
        <time>2017-07-13T06:13:12Z</time>
      </trkpt>
      <trkpt lat="42.90175" lon="0.50817">
        <ele>1115.9</ele>
        <time>2017-07-13T06:13:13Z</time>
      </trkpt>
      <trkpt lat="42.90172" lon="0.50816">
        <ele>1116.2</ele>
        <time>2017-07-13T06:13:14Z</time>
      </trkpt>
      <trkpt lat="42.9017" lon="0.50815">
        <ele>1116.4</ele>
        <time>2017-07-13T06:13:15Z</time>
      </trkpt>
      <trkpt lat="42.90167" lon="0.50814">
        <ele>1116.4</ele>
        <time>2017-07-13T06:13:16Z</time>
      </trkpt>
      <trkpt lat="42.90164" lon="0.50813">
        <ele>1116.7</ele>
        <time>2017-07-13T06:13:17Z</time>
      </trkpt>
      <trkpt lat="42.90161" lon="0.50813">
        <ele>1117</ele>
        <time>2017-07-13T06:13:18Z</time>
      </trkpt>
      <trkpt lat="42.90158" lon="0.50812">
        <ele>1117.1</ele>
        <time>2017-07-13T06:13:19Z</time>
      </trkpt>
      <trkpt lat="42.90155" lon="0.50812">
        <ele>1117.4</ele>
        <time>2017-07-13T06:13:20Z</time>
      </trkpt>
      <trkpt lat="42.90152" lon="0.50811">
        <ele>1117.5</ele>
        <time>2017-07-13T06:13:21Z</time>
      </trkpt>
      <trkpt lat="42.90149" lon="0.50811">
        <ele>1117.6</ele>
        <time>2017-07-13T06:13:22Z</time>
      </trkpt>
      <trkpt lat="42.90147" lon="0.5081">
        <ele>1117.8</ele>
        <time>2017-07-13T06:13:23Z</time>
      </trkpt>
      <trkpt lat="42.90144" lon="0.50809">
        <ele>1118</ele>
        <time>2017-07-13T06:13:24Z</time>
      </trkpt>
      <trkpt lat="42.90141" lon="0.50809">
        <ele>1118.2</ele>
        <time>2017-07-13T06:13:25Z</time>
      </trkpt>
      <trkpt lat="42.90138" lon="0.50808">
        <ele>1118.3</ele>
        <time>2017-07-13T06:13:26Z</time>
      </trkpt>
      <trkpt lat="42.90136" lon="0.50808">
        <ele>1118.4</ele>
        <time>2017-07-13T06:13:27Z</time>
      </trkpt>
      <trkpt lat="42.90133" lon="0.50808">
        <ele>1118.4</ele>
        <time>2017-07-13T06:13:28Z</time>
      </trkpt>
      <trkpt lat="42.9013" lon="0.50807">
        <ele>1118.4</ele>
        <time>2017-07-13T06:13:29Z</time>
      </trkpt>
      <trkpt lat="42.90128" lon="0.50807">
        <ele>1118.2</ele>
        <time>2017-07-13T06:13:30Z</time>
      </trkpt>
      <trkpt lat="42.90125" lon="0.50808">
        <ele>1118.1</ele>
        <time>2017-07-13T06:13:31Z</time>
      </trkpt>
      <trkpt lat="42.90122" lon="0.50808">
        <ele>1117.8</ele>
        <time>2017-07-13T06:13:32Z</time>
      </trkpt>
      <trkpt lat="42.90119" lon="0.50808">
        <ele>1117.6</ele>
        <time>2017-07-13T06:13:33Z</time>
      </trkpt>
      <trkpt lat="42.90117" lon="0.50809">
        <ele>1117.3</ele>
        <time>2017-07-13T06:13:34Z</time>
      </trkpt>
      <trkpt lat="42.90114" lon="0.50809">
        <ele>1117</ele>
        <time>2017-07-13T06:13:35Z</time>
      </trkpt>
      <trkpt lat="42.90111" lon="0.50809">
        <ele>1116.6</ele>
        <time>2017-07-13T06:13:36Z</time>
      </trkpt>
      <trkpt lat="42.90108" lon="0.5081">
        <ele>1116.3</ele>
        <time>2017-07-13T06:13:37Z</time>
      </trkpt>
      <trkpt lat="42.90105" lon="0.5081">
        <ele>1116</ele>
        <time>2017-07-13T06:13:38Z</time>
      </trkpt>
      <trkpt lat="42.90103" lon="0.50811">
        <ele>1115.8</ele>
        <time>2017-07-13T06:13:39Z</time>
      </trkpt>
      <trkpt lat="42.901" lon="0.50811">
        <ele>1115.6</ele>
        <time>2017-07-13T06:13:40Z</time>
      </trkpt>
      <trkpt lat="42.90097" lon="0.50811">
        <ele>1115.5</ele>
        <time>2017-07-13T06:13:41Z</time>
      </trkpt>
      <trkpt lat="42.90094" lon="0.50811">
        <ele>1115.4</ele>
        <time>2017-07-13T06:13:42Z</time>
      </trkpt>
      <trkpt lat="42.90091" lon="0.5081">
        <ele>1115.4</ele>
        <time>2017-07-13T06:13:43Z</time>
      </trkpt>
      <trkpt lat="42.90089" lon="0.5081">
        <ele>1115.5</ele>
        <time>2017-07-13T06:13:44Z</time>
      </trkpt>
      <trkpt lat="42.90086" lon="0.5081">
        <ele>1115.5</ele>
        <time>2017-07-13T06:13:45Z</time>
      </trkpt>
      <trkpt lat="42.90083" lon="0.50809">
        <ele>1115.7</ele>
        <time>2017-07-13T06:13:46Z</time>
      </trkpt>
      <trkpt lat="42.90081" lon="0.50808">
        <ele>1115.9</ele>
        <time>2017-07-13T06:13:47Z</time>
      </trkpt>
      <trkpt lat="42.90078" lon="0.50807">
        <ele>1116.2</ele>
        <time>2017-07-13T06:13:48Z</time>
      </trkpt>
      <trkpt lat="42.90075" lon="0.50807">
        <ele>1116.4</ele>
        <time>2017-07-13T06:13:49Z</time>
      </trkpt>
      <trkpt lat="42.90072" lon="0.50806">
        <ele>1116.7</ele>
        <time>2017-07-13T06:13:50Z</time>
      </trkpt>
      <trkpt lat="42.9007" lon="0.50805">
        <ele>1117</ele>
        <time>2017-07-13T06:13:51Z</time>
      </trkpt>
      <trkpt lat="42.90067" lon="0.50804">
        <ele>1117.2</ele>
        <time>2017-07-13T06:13:52Z</time>
      </trkpt>
      <trkpt lat="42.90064" lon="0.50802">
        <ele>1117.5</ele>
        <time>2017-07-13T06:13:53Z</time>
      </trkpt>
      <trkpt lat="42.90061" lon="0.50801">
        <ele>1117.8</ele>
        <time>2017-07-13T06:13:54Z</time>
      </trkpt>
      <trkpt lat="42.90059" lon="0.508">
        <ele>1118</ele>
        <time>2017-07-13T06:13:55Z</time>
      </trkpt>
      <trkpt lat="42.90056" lon="0.50799">
        <ele>1118.3</ele>
        <time>2017-07-13T06:13:56Z</time>
      </trkpt>
      <trkpt lat="42.90053" lon="0.50797">
        <ele>1118.5</ele>
        <time>2017-07-13T06:13:57Z</time>
      </trkpt>
      <trkpt lat="42.9005" lon="0.50796">
        <ele>1118.7</ele>
        <time>2017-07-13T06:13:58Z</time>
      </trkpt>
      <trkpt lat="42.90048" lon="0.50795">
        <ele>1118.9</ele>
        <time>2017-07-13T06:13:59Z</time>
      </trkpt>
      <trkpt lat="42.90045" lon="0.50793">
        <ele>1119</ele>
        <time>2017-07-13T06:14:00Z</time>
      </trkpt>
      <trkpt lat="42.90042" lon="0.50792">
        <ele>1119.2</ele>
        <time>2017-07-13T06:14:01Z</time>
      </trkpt>
      <trkpt lat="42.90039" lon="0.50791">
        <ele>1119.3</ele>
        <time>2017-07-13T06:14:02Z</time>
      </trkpt>
      <trkpt lat="42.90036" lon="0.50789">
        <ele>1119.4</ele>
        <time>2017-07-13T06:14:03Z</time>
      </trkpt>
      <trkpt lat="42.90034" lon="0.50788">
        <ele>1119.4</ele>
        <time>2017-07-13T06:14:04Z</time>
      </trkpt>
      <trkpt lat="42.90031" lon="0.50787">
        <ele>1119.4</ele>
        <time>2017-07-13T06:14:05Z</time>
      </trkpt>
      <trkpt lat="42.90028" lon="0.50785">
        <ele>1119.4</ele>
        <time>2017-07-13T06:14:06Z</time>
      </trkpt>
      <trkpt lat="42.90025" lon="0.50784">
        <ele>1119.4</ele>
        <time>2017-07-13T06:14:07Z</time>
      </trkpt>
      <trkpt lat="42.90023" lon="0.50783">
        <ele>1119.3</ele>
        <time>2017-07-13T06:14:08Z</time>
      </trkpt>
      <trkpt lat="42.9002" lon="0.50782">
        <ele>1119.3</ele>
        <time>2017-07-13T06:14:09Z</time>
      </trkpt>
      <trkpt lat="42.90017" lon="0.5078">
        <ele>1119.1</ele>
        <time>2017-07-13T06:14:10Z</time>
      </trkpt>
      <trkpt lat="42.90015" lon="0.50779">
        <ele>1119</ele>
        <time>2017-07-13T06:14:11Z</time>
      </trkpt>
      <trkpt lat="42.90012" lon="0.50778">
        <ele>1118.8</ele>
        <time>2017-07-13T06:14:12Z</time>
      </trkpt>
      <trkpt lat="42.90009" lon="0.50777">
        <ele>1118.7</ele>
        <time>2017-07-13T06:14:13Z</time>
      </trkpt>
      <trkpt lat="42.90007" lon="0.50776">
        <ele>1118.4</ele>
        <time>2017-07-13T06:14:14Z</time>
      </trkpt>
      <trkpt lat="42.90004" lon="0.50775">
        <ele>1118.2</ele>
        <time>2017-07-13T06:14:15Z</time>
      </trkpt>
      <trkpt lat="42.90001" lon="0.50773">
        <ele>1118</ele>
        <time>2017-07-13T06:14:16Z</time>
      </trkpt>
      <trkpt lat="42.89999" lon="0.50772">
        <ele>1117.8</ele>
        <time>2017-07-13T06:14:17Z</time>
      </trkpt>
      <trkpt lat="42.89996" lon="0.50771">
        <ele>1117.9</ele>
        <time>2017-07-13T06:14:18Z</time>
      </trkpt>
      <trkpt lat="42.89994" lon="0.5077">
        <ele>1118</ele>
        <time>2017-07-13T06:14:19Z</time>
      </trkpt>
      <trkpt lat="42.89991" lon="0.50769">
        <ele>1118</ele>
        <time>2017-07-13T06:14:20Z</time>
      </trkpt>
      <trkpt lat="42.89988" lon="0.50768">
        <ele>1118</ele>
        <time>2017-07-13T06:14:21Z</time>
      </trkpt>
      <trkpt lat="42.89986" lon="0.50767">
        <ele>1117.9</ele>
        <time>2017-07-13T06:14:22Z</time>
      </trkpt>
      <trkpt lat="42.89983" lon="0.50766">
        <ele>1117.9</ele>
        <time>2017-07-13T06:14:23Z</time>
      </trkpt>
      <trkpt lat="42.8998" lon="0.50765">
        <ele>1117.8</ele>
        <time>2017-07-13T06:14:24Z</time>
      </trkpt>
      <trkpt lat="42.89978" lon="0.50763">
        <ele>1117.7</ele>
        <time>2017-07-13T06:14:25Z</time>
      </trkpt>
      <trkpt lat="42.89975" lon="0.50762">
        <ele>1117.6</ele>
        <time>2017-07-13T06:14:26Z</time>
      </trkpt>
      <trkpt lat="42.89972" lon="0.50761">
        <ele>1117.5</ele>
        <time>2017-07-13T06:14:27Z</time>
      </trkpt>
      <trkpt lat="42.8997" lon="0.5076">
        <ele>1117.3</ele>
        <time>2017-07-13T06:14:28Z</time>
      </trkpt>
      <trkpt lat="42.89967" lon="0.50759">
        <ele>1117.1</ele>
        <time>2017-07-13T06:14:29Z</time>
      </trkpt>
      <trkpt lat="42.89964" lon="0.50758">
        <ele>1116.9</ele>
        <time>2017-07-13T06:14:30Z</time>
      </trkpt>
      <trkpt lat="42.89962" lon="0.50756">
        <ele>1116.6</ele>
        <time>2017-07-13T06:14:31Z</time>
      </trkpt>
      <trkpt lat="42.89959" lon="0.50755">
        <ele>1116.4</ele>
        <time>2017-07-13T06:14:32Z</time>
      </trkpt>
      <trkpt lat="42.89956" lon="0.50754">
        <ele>1116.1</ele>
        <time>2017-07-13T06:14:33Z</time>
      </trkpt>
      <trkpt lat="42.89953" lon="0.50753">
        <ele>1115.7</ele>
        <time>2017-07-13T06:14:34Z</time>
      </trkpt>
      <trkpt lat="42.8995" lon="0.50751">
        <ele>1115.4</ele>
        <time>2017-07-13T06:14:35Z</time>
      </trkpt>
      <trkpt lat="42.89948" lon="0.5075">
        <ele>1115</ele>
        <time>2017-07-13T06:14:36Z</time>
      </trkpt>
      <trkpt lat="42.89945" lon="0.50748">
        <ele>1115.2</ele>
        <time>2017-07-13T06:14:37Z</time>
      </trkpt>
      <trkpt lat="42.89942" lon="0.50747">
        <ele>1115.3</ele>
        <time>2017-07-13T06:14:38Z</time>
      </trkpt>
      <trkpt lat="42.89939" lon="0.50745">
        <ele>1115.4</ele>
        <time>2017-07-13T06:14:39Z</time>
      </trkpt>
      <trkpt lat="42.89936" lon="0.50743">
        <ele>1115.6</ele>
        <time>2017-07-13T06:14:40Z</time>
      </trkpt>
      <trkpt lat="42.89934" lon="0.5074">
        <ele>1115.8</ele>
        <time>2017-07-13T06:14:41Z</time>
      </trkpt>
      <trkpt lat="42.89931" lon="0.50738">
        <ele>1116</ele>
        <time>2017-07-13T06:14:42Z</time>
      </trkpt>
      <trkpt lat="42.89929" lon="0.50735">
        <ele>1116.2</ele>
        <time>2017-07-13T06:14:43Z</time>
      </trkpt>
      <trkpt lat="42.89927" lon="0.50733">
        <ele>1116.4</ele>
        <time>2017-07-13T06:14:44Z</time>
      </trkpt>
      <trkpt lat="42.89925" lon="0.5073">
        <ele>1116.7</ele>
        <time>2017-07-13T06:14:45Z</time>
      </trkpt>
      <trkpt lat="42.89924" lon="0.50727">
        <ele>1117.1</ele>
        <time>2017-07-13T06:14:46Z</time>
      </trkpt>
      <trkpt lat="42.89922" lon="0.50724">
        <ele>1117.5</ele>
        <time>2017-07-13T06:14:47Z</time>
      </trkpt>
      <trkpt lat="42.89921" lon="0.5072">
        <ele>1117.9</ele>
        <time>2017-07-13T06:14:48Z</time>
      </trkpt>
      <trkpt lat="42.8992" lon="0.50717">
        <ele>1118.3</ele>
        <time>2017-07-13T06:14:49Z</time>
      </trkpt>
      <trkpt lat="42.89919" lon="0.50713">
        <ele>1118.7</ele>
        <time>2017-07-13T06:14:50Z</time>
      </trkpt>
      <trkpt lat="42.89918" lon="0.5071">
        <ele>1119.1</ele>
        <time>2017-07-13T06:14:51Z</time>
      </trkpt>
      <trkpt lat="42.89917" lon="0.50706">
        <ele>1119.5</ele>
        <time>2017-07-13T06:14:52Z</time>
      </trkpt>
      <trkpt lat="42.89916" lon="0.50702">
        <ele>1120.2</ele>
        <time>2017-07-13T06:14:53Z</time>
      </trkpt>
      <trkpt lat="42.89915" lon="0.50699">
        <ele>1121</ele>
        <time>2017-07-13T06:14:54Z</time>
      </trkpt>
      <trkpt lat="42.89914" lon="0.50695">
        <ele>1121.7</ele>
        <time>2017-07-13T06:14:55Z</time>
      </trkpt>
      <trkpt lat="42.89915" lon="0.50692">
        <ele>1122.1</ele>
        <time>2017-07-13T06:14:56Z</time>
      </trkpt>
      <trkpt lat="42.89915" lon="0.50689">
        <ele>1122.5</ele>
        <time>2017-07-13T06:14:57Z</time>
      </trkpt>
      <trkpt lat="42.89917" lon="0.50687">
        <ele>1122.7</ele>
        <time>2017-07-13T06:14:58Z</time>
      </trkpt>
      <trkpt lat="42.89919" lon="0.50685">
        <ele>1123.7</ele>
        <time>2017-07-13T06:14:59Z</time>
      </trkpt>
      <trkpt lat="42.89922" lon="0.50684">
        <ele>1124.8</ele>
        <time>2017-07-13T06:15:00Z</time>
      </trkpt>
      <trkpt lat="42.89925" lon="0.50683">
        <ele>1125.8</ele>
        <time>2017-07-13T06:15:01Z</time>
      </trkpt>
      <trkpt lat="42.89928" lon="0.50683">
        <ele>1126.7</ele>
        <time>2017-07-13T06:15:02Z</time>
      </trkpt>
      <trkpt lat="42.89931" lon="0.50684">
        <ele>1127.4</ele>
        <time>2017-07-13T06:15:03Z</time>
      </trkpt>
      <trkpt lat="42.89933" lon="0.50685">
        <ele>1127.7</ele>
        <time>2017-07-13T06:15:04Z</time>
      </trkpt>
      <trkpt lat="42.89934" lon="0.50687">
        <ele>1127.6</ele>
        <time>2017-07-13T06:15:05Z</time>
      </trkpt>
      <trkpt lat="42.89935" lon="0.5069">
        <ele>1127.2</ele>
        <time>2017-07-13T06:15:06Z</time>
      </trkpt>
      <trkpt lat="42.89936" lon="0.50693">
        <ele>1126.7</ele>
        <time>2017-07-13T06:15:07Z</time>
      </trkpt>
      <trkpt lat="42.89936" lon="0.50697">
        <ele>1126.2</ele>
        <time>2017-07-13T06:15:08Z</time>
      </trkpt>
      <trkpt lat="42.89937" lon="0.507">
        <ele>1125.7</ele>
        <time>2017-07-13T06:15:09Z</time>
      </trkpt>
      <trkpt lat="42.89938" lon="0.50703">
        <ele>1125.2</ele>
        <time>2017-07-13T06:15:10Z</time>
      </trkpt>
      <trkpt lat="42.89939" lon="0.50706">
        <ele>1124.8</ele>
        <time>2017-07-13T06:15:11Z</time>
      </trkpt>
      <trkpt lat="42.89941" lon="0.50708">
        <ele>1124.4</ele>
        <time>2017-07-13T06:15:12Z</time>
      </trkpt>
      <trkpt lat="42.89942" lon="0.50711">
        <ele>1124.1</ele>
        <time>2017-07-13T06:15:13Z</time>
      </trkpt>
      <trkpt lat="42.89944" lon="0.50714">
        <ele>1123.9</ele>
        <time>2017-07-13T06:15:14Z</time>
      </trkpt>
      <trkpt lat="42.89946" lon="0.50716">
        <ele>1123.7</ele>
        <time>2017-07-13T06:15:15Z</time>
      </trkpt>
      <trkpt lat="42.89948" lon="0.50718">
        <ele>1123.5</ele>
        <time>2017-07-13T06:15:16Z</time>
      </trkpt>
      <trkpt lat="42.8995" lon="0.5072">
        <ele>1123.3</ele>
        <time>2017-07-13T06:15:17Z</time>
      </trkpt>
      <trkpt lat="42.89952" lon="0.50722">
        <ele>1123.2</ele>
        <time>2017-07-13T06:15:18Z</time>
      </trkpt>
      <trkpt lat="42.89955" lon="0.50724">
        <ele>1123.1</ele>
        <time>2017-07-13T06:15:19Z</time>
      </trkpt>
      <trkpt lat="42.89957" lon="0.50726">
        <ele>1123.1</ele>
        <time>2017-07-13T06:15:20Z</time>
      </trkpt>
      <trkpt lat="42.8996" lon="0.50727">
        <ele>1123</ele>
        <time>2017-07-13T06:15:21Z</time>
      </trkpt>
      <trkpt lat="42.89962" lon="0.50729">
        <ele>1123</ele>
        <time>2017-07-13T06:15:22Z</time>
      </trkpt>
      <trkpt lat="42.89965" lon="0.5073">
        <ele>1123</ele>
        <time>2017-07-13T06:15:23Z</time>
      </trkpt>
      <trkpt lat="42.89967" lon="0.50731">
        <ele>1123.1</ele>
        <time>2017-07-13T06:15:24Z</time>
      </trkpt>
      <trkpt lat="42.8997" lon="0.50732">
        <ele>1123.2</ele>
        <time>2017-07-13T06:15:25Z</time>
      </trkpt>
      <trkpt lat="42.89972" lon="0.50733">
        <ele>1123.3</ele>
        <time>2017-07-13T06:15:26Z</time>
      </trkpt>
      <trkpt lat="42.89975" lon="0.50734">
        <ele>1123.4</ele>
        <time>2017-07-13T06:15:27Z</time>
      </trkpt>
      <trkpt lat="42.89977" lon="0.50734">
        <ele>1123.5</ele>
        <time>2017-07-13T06:15:28Z</time>
      </trkpt>
      <trkpt lat="42.89979" lon="0.50735">
        <ele>1123.6</ele>
        <time>2017-07-13T06:15:29Z</time>
      </trkpt>
      <trkpt lat="42.89981" lon="0.50735">
        <ele>1123.8</ele>
        <time>2017-07-13T06:15:30Z</time>
      </trkpt>
      <trkpt lat="42.89983" lon="0.50735">
        <ele>1123.9</ele>
        <time>2017-07-13T06:15:31Z</time>
      </trkpt>
      <trkpt lat="42.89985" lon="0.50736">
        <ele>1123.9</ele>
        <time>2017-07-13T06:15:32Z</time>
      </trkpt>
      <trkpt lat="42.89986" lon="0.50736">
        <ele>1124.1</ele>
        <time>2017-07-13T06:15:33Z</time>
      </trkpt>
      <trkpt lat="42.89988" lon="0.50737">
        <ele>1124.1</ele>
        <time>2017-07-13T06:15:34Z</time>
      </trkpt>
      <trkpt lat="42.8999" lon="0.50737">
        <ele>1124.2</ele>
        <time>2017-07-13T06:15:35Z</time>
      </trkpt>
      <trkpt lat="42.89991" lon="0.50738">
        <ele>1124.2</ele>
        <time>2017-07-13T06:15:36Z</time>
      </trkpt>
      <trkpt lat="42.89993" lon="0.50738">
        <ele>1124.3</ele>
        <time>2017-07-13T06:15:37Z</time>
      </trkpt>
      <trkpt lat="42.89995" lon="0.50739">
        <ele>1124.2</ele>
        <time>2017-07-13T06:15:38Z</time>
      </trkpt>
      <trkpt lat="42.89997" lon="0.50739">
        <ele>1124.2</ele>
        <time>2017-07-13T06:15:39Z</time>
      </trkpt>
      <trkpt lat="42.89999" lon="0.5074">
        <ele>1124.2</ele>
        <time>2017-07-13T06:15:40Z</time>
      </trkpt>
      <trkpt lat="42.90002" lon="0.50741">
        <ele>1124.3</ele>
        <time>2017-07-13T06:15:41Z</time>
      </trkpt>
      <trkpt lat="42.90004" lon="0.50742">
        <ele>1124.5</ele>
        <time>2017-07-13T06:15:42Z</time>
      </trkpt>
      <trkpt lat="42.90006" lon="0.50743">
        <ele>1124.7</ele>
        <time>2017-07-13T06:15:43Z</time>
      </trkpt>
      <trkpt lat="42.90009" lon="0.50743">
        <ele>1124.9</ele>
        <time>2017-07-13T06:15:44Z</time>
      </trkpt>
      <trkpt lat="42.90011" lon="0.50744">
        <ele>1125.1</ele>
        <time>2017-07-13T06:15:45Z</time>
      </trkpt>
      <trkpt lat="42.90013" lon="0.50745">
        <ele>1125.3</ele>
        <time>2017-07-13T06:15:46Z</time>
      </trkpt>
      <trkpt lat="42.90016" lon="0.50746">
        <ele>1125.6</ele>
        <time>2017-07-13T06:15:47Z</time>
      </trkpt>
      <trkpt lat="42.90018" lon="0.50746">
        <ele>1125.8</ele>
        <time>2017-07-13T06:15:48Z</time>
      </trkpt>
      <trkpt lat="42.90021" lon="0.50747">
        <ele>1126.1</ele>
        <time>2017-07-13T06:15:49Z</time>
      </trkpt>
      <trkpt lat="42.90024" lon="0.50748">
        <ele>1126.5</ele>
        <time>2017-07-13T06:15:50Z</time>
      </trkpt>
      <trkpt lat="42.90026" lon="0.50748">
        <ele>1126.8</ele>
        <time>2017-07-13T06:15:51Z</time>
      </trkpt>
      <trkpt lat="42.90029" lon="0.50749">
        <ele>1127.1</ele>
        <time>2017-07-13T06:15:52Z</time>
      </trkpt>
      <trkpt lat="42.90031" lon="0.5075">
        <ele>1127.4</ele>
        <time>2017-07-13T06:15:53Z</time>
      </trkpt>
      <trkpt lat="42.90034" lon="0.5075">
        <ele>1127.7</ele>
        <time>2017-07-13T06:15:54Z</time>
      </trkpt>
      <trkpt lat="42.90037" lon="0.50751">
        <ele>1128.2</ele>
        <time>2017-07-13T06:15:55Z</time>
      </trkpt>
      <trkpt lat="42.90039" lon="0.50751">
        <ele>1128.6</ele>
        <time>2017-07-13T06:15:56Z</time>
      </trkpt>
      <trkpt lat="42.90042" lon="0.50752">
        <ele>1129</ele>
        <time>2017-07-13T06:15:57Z</time>
      </trkpt>
      <trkpt lat="42.90044" lon="0.50753">
        <ele>1129.3</ele>
        <time>2017-07-13T06:15:58Z</time>
      </trkpt>
      <trkpt lat="42.90046" lon="0.50753">
        <ele>1129.7</ele>
        <time>2017-07-13T06:15:59Z</time>
      </trkpt>
      <trkpt lat="42.90049" lon="0.50754">
        <ele>1130</ele>
        <time>2017-07-13T06:16:00Z</time>
      </trkpt>
      <trkpt lat="42.90051" lon="0.50755">
        <ele>1130.2</ele>
        <time>2017-07-13T06:16:01Z</time>
      </trkpt>
      <trkpt lat="42.90053" lon="0.50756">
        <ele>1130.4</ele>
        <time>2017-07-13T06:16:02Z</time>
      </trkpt>
      <trkpt lat="42.90055" lon="0.50756">
        <ele>1130.7</ele>
        <time>2017-07-13T06:16:03Z</time>
      </trkpt>
      <trkpt lat="42.90057" lon="0.50757">
        <ele>1131</ele>
        <time>2017-07-13T06:16:04Z</time>
      </trkpt>
      <trkpt lat="42.90059" lon="0.50757">
        <ele>1131.4</ele>
        <time>2017-07-13T06:16:05Z</time>
      </trkpt>
      <trkpt lat="42.90061" lon="0.50757">
        <ele>1131.8</ele>
        <time>2017-07-13T06:16:06Z</time>
      </trkpt>
      <trkpt lat="42.90063" lon="0.50756">
        <ele>1132.4</ele>
        <time>2017-07-13T06:16:07Z</time>
      </trkpt>
      <trkpt lat="42.90066" lon="0.50756">
        <ele>1133.1</ele>
        <time>2017-07-13T06:16:08Z</time>
      </trkpt>
      <trkpt lat="42.90068" lon="0.50755">
        <ele>1133.9</ele>
        <time>2017-07-13T06:16:09Z</time>
      </trkpt>
      <trkpt lat="42.90071" lon="0.50754">
        <ele>1134.8</ele>
        <time>2017-07-13T06:16:10Z</time>
      </trkpt>
      <trkpt lat="42.90073" lon="0.50752">
        <ele>1135.9</ele>
        <time>2017-07-13T06:16:11Z</time>
      </trkpt>
      <trkpt lat="42.90076" lon="0.50751">
        <ele>1137</ele>
        <time>2017-07-13T06:16:12Z</time>
      </trkpt>
      <trkpt lat="42.90078" lon="0.50749">
        <ele>1138.2</ele>
        <time>2017-07-13T06:16:13Z</time>
      </trkpt>
      <trkpt lat="42.90081" lon="0.50748">
        <ele>1139.5</ele>
        <time>2017-07-13T06:16:14Z</time>
      </trkpt>
      <trkpt lat="42.90083" lon="0.50746">
        <ele>1140.9</ele>
        <time>2017-07-13T06:16:15Z</time>
      </trkpt>
      <trkpt lat="42.90086" lon="0.50744">
        <ele>1142.1</ele>
        <time>2017-07-13T06:16:16Z</time>
      </trkpt>
      <trkpt lat="42.90088" lon="0.50742">
        <ele>1143.4</ele>
        <time>2017-07-13T06:16:17Z</time>
      </trkpt>
      <trkpt lat="42.9009" lon="0.5074">
        <ele>1144.6</ele>
        <time>2017-07-13T06:16:18Z</time>
      </trkpt>
      <trkpt lat="42.90093" lon="0.50739">
        <ele>1145.9</ele>
        <time>2017-07-13T06:16:19Z</time>
      </trkpt>
      <trkpt lat="42.90095" lon="0.50737">
        <ele>1147.1</ele>
        <time>2017-07-13T06:16:20Z</time>
      </trkpt>
      <trkpt lat="42.90097" lon="0.50735">
        <ele>1148.4</ele>
        <time>2017-07-13T06:16:21Z</time>
      </trkpt>
      <trkpt lat="42.901" lon="0.50733">
        <ele>1149.6</ele>
        <time>2017-07-13T06:16:22Z</time>
      </trkpt>
      <trkpt lat="42.90102" lon="0.50731">
        <ele>1150.8</ele>
        <time>2017-07-13T06:16:23Z</time>
      </trkpt>
      <trkpt lat="42.90104" lon="0.50729">
        <ele>1152</ele>
        <time>2017-07-13T06:16:24Z</time>
      </trkpt>
      <trkpt lat="42.90107" lon="0.50728">
        <ele>1153.1</ele>
        <time>2017-07-13T06:16:25Z</time>
      </trkpt>
      <trkpt lat="42.90109" lon="0.50726">
        <ele>1154.2</ele>
        <time>2017-07-13T06:16:26Z</time>
      </trkpt>
      <trkpt lat="42.90112" lon="0.50725">
        <ele>1155.2</ele>
        <time>2017-07-13T06:16:27Z</time>
      </trkpt>
      <trkpt lat="42.90114" lon="0.50723">
        <ele>1156.2</ele>
        <time>2017-07-13T06:16:28Z</time>
      </trkpt>
      <trkpt lat="42.90117" lon="0.50722">
        <ele>1157.2</ele>
        <time>2017-07-13T06:16:29Z</time>
      </trkpt>
      <trkpt lat="42.9012" lon="0.50721">
        <ele>1158.1</ele>
        <time>2017-07-13T06:16:30Z</time>
      </trkpt>
      <trkpt lat="42.90122" lon="0.5072">
        <ele>1158.9</ele>
        <time>2017-07-13T06:16:31Z</time>
      </trkpt>
      <trkpt lat="42.90125" lon="0.50719">
        <ele>1159.7</ele>
        <time>2017-07-13T06:16:32Z</time>
      </trkpt>
      <trkpt lat="42.90128" lon="0.50719">
        <ele>1160.4</ele>
        <time>2017-07-13T06:16:33Z</time>
      </trkpt>
      <trkpt lat="42.90131" lon="0.50718">
        <ele>1161.1</ele>
        <time>2017-07-13T06:16:34Z</time>
      </trkpt>
      <trkpt lat="42.90133" lon="0.50718">
        <ele>1161.7</ele>
        <time>2017-07-13T06:16:35Z</time>
      </trkpt>
      <trkpt lat="42.90136" lon="0.50717">
        <ele>1162.3</ele>
        <time>2017-07-13T06:16:36Z</time>
      </trkpt>
      <trkpt lat="42.90139" lon="0.50717">
        <ele>1162.7</ele>
        <time>2017-07-13T06:16:37Z</time>
      </trkpt>
      <trkpt lat="42.90141" lon="0.50717">
        <ele>1163.1</ele>
        <time>2017-07-13T06:16:38Z</time>
      </trkpt>
      <trkpt lat="42.90144" lon="0.50717">
        <ele>1163.5</ele>
        <time>2017-07-13T06:16:39Z</time>
      </trkpt>
      <trkpt lat="42.90146" lon="0.50717">
        <ele>1163.8</ele>
        <time>2017-07-13T06:16:40Z</time>
      </trkpt>
      <trkpt lat="42.90148" lon="0.50717">
        <ele>1164.1</ele>
        <time>2017-07-13T06:16:41Z</time>
      </trkpt>
      <trkpt lat="42.90151" lon="0.50718">
        <ele>1164.3</ele>
        <time>2017-07-13T06:16:42Z</time>
      </trkpt>
      <trkpt lat="42.90153" lon="0.50718">
        <ele>1164.4</ele>
        <time>2017-07-13T06:16:43Z</time>
      </trkpt>
      <trkpt lat="42.90155" lon="0.50719">
        <ele>1164.5</ele>
        <time>2017-07-13T06:16:44Z</time>
      </trkpt>
      <trkpt lat="42.90158" lon="0.50719">
        <ele>1164.5</ele>
        <time>2017-07-13T06:16:45Z</time>
      </trkpt>
      <trkpt lat="42.9016" lon="0.5072">
        <ele>1164.5</ele>
        <time>2017-07-13T06:16:46Z</time>
      </trkpt>
      <trkpt lat="42.90162" lon="0.50721">
        <ele>1164.5</ele>
        <time>2017-07-13T06:16:47Z</time>
      </trkpt>
      <trkpt lat="42.90164" lon="0.50721">
        <ele>1164.4</ele>
        <time>2017-07-13T06:16:48Z</time>
      </trkpt>
      <trkpt lat="42.90166" lon="0.50722">
        <ele>1164.3</ele>
        <time>2017-07-13T06:16:49Z</time>
      </trkpt>
      <trkpt lat="42.90168" lon="0.50723">
        <ele>1164.1</ele>
        <time>2017-07-13T06:16:50Z</time>
      </trkpt>
      <trkpt lat="42.90171" lon="0.50724">
        <ele>1163.8</ele>
        <time>2017-07-13T06:16:51Z</time>
      </trkpt>
      <trkpt lat="42.90173" lon="0.50725">
        <ele>1163.5</ele>
        <time>2017-07-13T06:16:52Z</time>
      </trkpt>
      <trkpt lat="42.90175" lon="0.50726">
        <ele>1163.2</ele>
        <time>2017-07-13T06:16:53Z</time>
      </trkpt>
      <trkpt lat="42.90177" lon="0.50728">
        <ele>1162.9</ele>
        <time>2017-07-13T06:16:54Z</time>
      </trkpt>
      <trkpt lat="42.90179" lon="0.50729">
        <ele>1162.5</ele>
        <time>2017-07-13T06:16:55Z</time>
      </trkpt>
      <trkpt lat="42.90181" lon="0.5073">
        <ele>1162.2</ele>
        <time>2017-07-13T06:16:56Z</time>
      </trkpt>
      <trkpt lat="42.90183" lon="0.50731">
        <ele>1161.8</ele>
        <time>2017-07-13T06:16:57Z</time>
      </trkpt>
      <trkpt lat="42.90185" lon="0.50733">
        <ele>1161.4</ele>
        <time>2017-07-13T06:16:58Z</time>
      </trkpt>
      <trkpt lat="42.90187" lon="0.50734">
        <ele>1161</ele>
        <time>2017-07-13T06:16:59Z</time>
      </trkpt>
      <trkpt lat="42.9019" lon="0.50735">
        <ele>1160.6</ele>
        <time>2017-07-13T06:17:00Z</time>
      </trkpt>
      <trkpt lat="42.90192" lon="0.50736">
        <ele>1160.2</ele>
        <time>2017-07-13T06:17:01Z</time>
      </trkpt>
      <trkpt lat="42.90194" lon="0.50738">
        <ele>1159.8</ele>
        <time>2017-07-13T06:17:02Z</time>
      </trkpt>
      <trkpt lat="42.90196" lon="0.50739">
        <ele>1159.4</ele>
        <time>2017-07-13T06:17:03Z</time>
      </trkpt>
      <trkpt lat="42.90198" lon="0.5074">
        <ele>1159</ele>
        <time>2017-07-13T06:17:04Z</time>
      </trkpt>
      <trkpt lat="42.902" lon="0.50741">
        <ele>1158.6</ele>
        <time>2017-07-13T06:17:05Z</time>
      </trkpt>
      <trkpt lat="42.90202" lon="0.50742">
        <ele>1158.3</ele>
        <time>2017-07-13T06:17:06Z</time>
      </trkpt>
      <trkpt lat="42.90204" lon="0.50744">
        <ele>1157.9</ele>
        <time>2017-07-13T06:17:07Z</time>
      </trkpt>
      <trkpt lat="42.90206" lon="0.50745">
        <ele>1157.6</ele>
        <time>2017-07-13T06:17:08Z</time>
      </trkpt>
      <trkpt lat="42.90209" lon="0.50746">
        <ele>1157.2</ele>
        <time>2017-07-13T06:17:09Z</time>
      </trkpt>
      <trkpt lat="42.90211" lon="0.50747">
        <ele>1156.9</ele>
        <time>2017-07-13T06:17:10Z</time>
      </trkpt>
      <trkpt lat="42.90213" lon="0.50748">
        <ele>1156.6</ele>
        <time>2017-07-13T06:17:11Z</time>
      </trkpt>
      <trkpt lat="42.90215" lon="0.50749">
        <ele>1156.3</ele>
        <time>2017-07-13T06:17:12Z</time>
      </trkpt>
      <trkpt lat="42.90217" lon="0.5075">
        <ele>1156</ele>
        <time>2017-07-13T06:17:13Z</time>
      </trkpt>
      <trkpt lat="42.9022" lon="0.50751">
        <ele>1155.8</ele>
        <time>2017-07-13T06:17:14Z</time>
      </trkpt>
      <trkpt lat="42.90222" lon="0.50752">
        <ele>1155.5</ele>
        <time>2017-07-13T06:17:15Z</time>
      </trkpt>
      <trkpt lat="42.90224" lon="0.50752">
        <ele>1155.4</ele>
        <time>2017-07-13T06:17:16Z</time>
      </trkpt>
      <trkpt lat="42.90226" lon="0.50753">
        <ele>1155.2</ele>
        <time>2017-07-13T06:17:17Z</time>
      </trkpt>
      <trkpt lat="42.90229" lon="0.50754">
        <ele>1155</ele>
        <time>2017-07-13T06:17:18Z</time>
      </trkpt>
      <trkpt lat="42.90231" lon="0.50755">
        <ele>1154.9</ele>
        <time>2017-07-13T06:17:19Z</time>
      </trkpt>
      <trkpt lat="42.90233" lon="0.50755">
        <ele>1154.8</ele>
        <time>2017-07-13T06:17:20Z</time>
      </trkpt>
      <trkpt lat="42.90236" lon="0.50756">
        <ele>1154.8</ele>
        <time>2017-07-13T06:17:21Z</time>
      </trkpt>
      <trkpt lat="42.90238" lon="0.50756">
        <ele>1154.8</ele>
        <time>2017-07-13T06:17:22Z</time>
      </trkpt>
      <trkpt lat="42.9024" lon="0.50757">
        <ele>1154.8</ele>
        <time>2017-07-13T06:17:23Z</time>
      </trkpt>
      <trkpt lat="42.90242" lon="0.50757">
        <ele>1154.9</ele>
        <time>2017-07-13T06:17:24Z</time>
      </trkpt>
      <trkpt lat="42.90244" lon="0.50757">
        <ele>1155</ele>
        <time>2017-07-13T06:17:25Z</time>
      </trkpt>
      <trkpt lat="42.90246" lon="0.50757">
        <ele>1155.1</ele>
        <time>2017-07-13T06:17:26Z</time>
      </trkpt>
      <trkpt lat="42.90248" lon="0.50757">
        <ele>1155.3</ele>
        <time>2017-07-13T06:17:27Z</time>
      </trkpt>
      <trkpt lat="42.90251" lon="0.50757">
        <ele>1155.3</ele>
        <time>2017-07-13T06:17:28Z</time>
      </trkpt>
      <trkpt lat="42.90253" lon="0.50757">
        <ele>1154.5</ele>
        <time>2017-07-13T06:17:29Z</time>
      </trkpt>
      <trkpt lat="42.90255" lon="0.50757">
        <ele>1153.7</ele>
        <time>2017-07-13T06:17:30Z</time>
      </trkpt>
      <trkpt lat="42.90257" lon="0.50757">
        <ele>1153</ele>
        <time>2017-07-13T06:17:31Z</time>
      </trkpt>
      <trkpt lat="42.90259" lon="0.50757">
        <ele>1152.2</ele>
        <time>2017-07-13T06:17:32Z</time>
      </trkpt>
      <trkpt lat="42.90261" lon="0.50757">
        <ele>1151.5</ele>
        <time>2017-07-13T06:17:33Z</time>
      </trkpt>
      <trkpt lat="42.90263" lon="0.50757">
        <ele>1150.9</ele>
        <time>2017-07-13T06:17:34Z</time>
      </trkpt>
      <trkpt lat="42.90264" lon="0.50757">
        <ele>1150.3</ele>
        <time>2017-07-13T06:17:35Z</time>
      </trkpt>
      <trkpt lat="42.90266" lon="0.50756">
        <ele>1150.1</ele>
        <time>2017-07-13T06:17:36Z</time>
      </trkpt>
      <trkpt lat="42.90267" lon="0.50754">
        <ele>1150.3</ele>
        <time>2017-07-13T06:17:37Z</time>
      </trkpt>
      <trkpt lat="42.90268" lon="0.50752">
        <ele>1151</ele>
        <time>2017-07-13T06:17:38Z</time>
      </trkpt>
      <trkpt lat="42.90268" lon="0.5075">
        <ele>1152</ele>
        <time>2017-07-13T06:17:39Z</time>
      </trkpt>
      <trkpt lat="42.90268" lon="0.50747">
        <ele>1153.5</ele>
        <time>2017-07-13T06:17:40Z</time>
      </trkpt>
      <trkpt lat="42.90267" lon="0.50744">
        <ele>1155.4</ele>
        <time>2017-07-13T06:17:41Z</time>
      </trkpt>
      <trkpt lat="42.90266" lon="0.50741">
        <ele>1157.4</ele>
        <time>2017-07-13T06:17:42Z</time>
      </trkpt>
      <trkpt lat="42.90264" lon="0.50739">
        <ele>1159.6</ele>
        <time>2017-07-13T06:17:43Z</time>
      </trkpt>
      <trkpt lat="42.90261" lon="0.50736">
        <ele>1161.7</ele>
        <time>2017-07-13T06:17:44Z</time>
      </trkpt>
      <trkpt lat="42.90259" lon="0.50735">
        <ele>1163.6</ele>
        <time>2017-07-13T06:17:45Z</time>
      </trkpt>
      <trkpt lat="42.90256" lon="0.50735">
        <ele>1165</ele>
        <time>2017-07-13T06:17:46Z</time>
      </trkpt>
      <trkpt lat="42.90253" lon="0.50735">
        <ele>1166</ele>
        <time>2017-07-13T06:17:47Z</time>
      </trkpt>
      <trkpt lat="42.9025" lon="0.50735">
        <ele>1166.9</ele>
        <time>2017-07-13T06:17:48Z</time>
      </trkpt>
      <trkpt lat="42.90248" lon="0.50735">
        <ele>1166.7</ele>
        <time>2017-07-13T06:17:49Z</time>
      </trkpt>
      <trkpt lat="42.90245" lon="0.50736">
        <ele>1166.3</ele>
        <time>2017-07-13T06:17:50Z</time>
      </trkpt>
      <trkpt lat="42.90243" lon="0.50736">
        <ele>1166</ele>
        <time>2017-07-13T06:17:51Z</time>
      </trkpt>
      <trkpt lat="42.9024" lon="0.50735">
        <ele>1165.9</ele>
        <time>2017-07-13T06:17:52Z</time>
      </trkpt>
      <trkpt lat="42.90238" lon="0.50735">
        <ele>1165.8</ele>
        <time>2017-07-13T06:17:53Z</time>
      </trkpt>
      <trkpt lat="42.90235" lon="0.50735">
        <ele>1165.8</ele>
        <time>2017-07-13T06:17:54Z</time>
      </trkpt>
      <trkpt lat="42.90233" lon="0.50734">
        <ele>1165.8</ele>
        <time>2017-07-13T06:17:55Z</time>
      </trkpt>
      <trkpt lat="42.9023" lon="0.50733">
        <ele>1166</ele>
        <time>2017-07-13T06:17:56Z</time>
      </trkpt>
      <trkpt lat="42.90228" lon="0.50732">
        <ele>1166.2</ele>
        <time>2017-07-13T06:17:57Z</time>
      </trkpt>
      <trkpt lat="42.90226" lon="0.50731">
        <ele>1166.5</ele>
        <time>2017-07-13T06:17:58Z</time>
      </trkpt>
      <trkpt lat="42.90224" lon="0.5073">
        <ele>1166.9</ele>
        <time>2017-07-13T06:17:59Z</time>
      </trkpt>
      <trkpt lat="42.90222" lon="0.50729">
        <ele>1167.3</ele>
        <time>2017-07-13T06:18:00Z</time>
      </trkpt>
      <trkpt lat="42.9022" lon="0.50727">
        <ele>1167.8</ele>
        <time>2017-07-13T06:18:01Z</time>
      </trkpt>
      <trkpt lat="42.90218" lon="0.50726">
        <ele>1168.3</ele>
        <time>2017-07-13T06:18:02Z</time>
      </trkpt>
      <trkpt lat="42.90216" lon="0.50724">
        <ele>1168.9</ele>
        <time>2017-07-13T06:18:03Z</time>
      </trkpt>
      <trkpt lat="42.90214" lon="0.50723">
        <ele>1169.5</ele>
        <time>2017-07-13T06:18:04Z</time>
      </trkpt>
      <trkpt lat="42.90212" lon="0.50721">
        <ele>1170.2</ele>
        <time>2017-07-13T06:18:05Z</time>
      </trkpt>
      <trkpt lat="42.9021" lon="0.50719">
        <ele>1170.9</ele>
        <time>2017-07-13T06:18:06Z</time>
      </trkpt>
      <trkpt lat="42.90208" lon="0.50717">
        <ele>1171.6</ele>
        <time>2017-07-13T06:18:07Z</time>
      </trkpt>
      <trkpt lat="42.90206" lon="0.50715">
        <ele>1172.4</ele>
        <time>2017-07-13T06:18:08Z</time>
      </trkpt>
      <trkpt lat="42.90205" lon="0.50713">
        <ele>1173.2</ele>
        <time>2017-07-13T06:18:09Z</time>
      </trkpt>
      <trkpt lat="42.90203" lon="0.50711">
        <ele>1174</ele>
        <time>2017-07-13T06:18:10Z</time>
      </trkpt>
      <trkpt lat="42.90201" lon="0.50709">
        <ele>1174.9</ele>
        <time>2017-07-13T06:18:11Z</time>
      </trkpt>
      <trkpt lat="42.90199" lon="0.50707">
        <ele>1175.7</ele>
        <time>2017-07-13T06:18:12Z</time>
      </trkpt>
      <trkpt lat="42.90198" lon="0.50705">
        <ele>1176.5</ele>
        <time>2017-07-13T06:18:13Z</time>
      </trkpt>
      <trkpt lat="42.90196" lon="0.50703">
        <ele>1177.4</ele>
        <time>2017-07-13T06:18:14Z</time>
      </trkpt>
      <trkpt lat="42.90195" lon="0.50701">
        <ele>1178.2</ele>
        <time>2017-07-13T06:18:15Z</time>
      </trkpt>
      <trkpt lat="42.90193" lon="0.50699">
        <ele>1179.1</ele>
        <time>2017-07-13T06:18:16Z</time>
      </trkpt>
      <trkpt lat="42.90191" lon="0.50697">
        <ele>1179.9</ele>
        <time>2017-07-13T06:18:17Z</time>
      </trkpt>
      <trkpt lat="42.9019" lon="0.50695">
        <ele>1180.8</ele>
        <time>2017-07-13T06:18:18Z</time>
      </trkpt>
      <trkpt lat="42.90188" lon="0.50692">
        <ele>1181.6</ele>
        <time>2017-07-13T06:18:19Z</time>
      </trkpt>
      <trkpt lat="42.90187" lon="0.5069">
        <ele>1182.4</ele>
        <time>2017-07-13T06:18:20Z</time>
      </trkpt>
      <trkpt lat="42.90185" lon="0.50688">
        <ele>1183.2</ele>
        <time>2017-07-13T06:18:21Z</time>
      </trkpt>
      <trkpt lat="42.90184" lon="0.50686">
        <ele>1183.9</ele>
        <time>2017-07-13T06:18:22Z</time>
      </trkpt>
      <trkpt lat="42.90182" lon="0.50684">
        <ele>1184.7</ele>
        <time>2017-07-13T06:18:23Z</time>
      </trkpt>
      <trkpt lat="42.90181" lon="0.50683">
        <ele>1185.4</ele>
        <time>2017-07-13T06:18:24Z</time>
      </trkpt>
      <trkpt lat="42.90179" lon="0.50681">
        <ele>1186.1</ele>
        <time>2017-07-13T06:18:25Z</time>
      </trkpt>
      <trkpt lat="42.90177" lon="0.50679">
        <ele>1186.7</ele>
        <time>2017-07-13T06:18:26Z</time>
      </trkpt>
      <trkpt lat="42.90176" lon="0.50677">
        <ele>1187.3</ele>
        <time>2017-07-13T06:18:27Z</time>
      </trkpt>
      <trkpt lat="42.90174" lon="0.50675">
        <ele>1188</ele>
        <time>2017-07-13T06:18:28Z</time>
      </trkpt>
      <trkpt lat="42.90172" lon="0.50674">
        <ele>1188.5</ele>
        <time>2017-07-13T06:18:29Z</time>
      </trkpt>
      <trkpt lat="42.90171" lon="0.50672">
        <ele>1189</ele>
        <time>2017-07-13T06:18:30Z</time>
      </trkpt>
      <trkpt lat="42.90169" lon="0.50671">
        <ele>1189.5</ele>
        <time>2017-07-13T06:18:31Z</time>
      </trkpt>
      <trkpt lat="42.90167" lon="0.50669">
        <ele>1189.9</ele>
        <time>2017-07-13T06:18:32Z</time>
      </trkpt>
      <trkpt lat="42.90165" lon="0.50668">
        <ele>1190.3</ele>
        <time>2017-07-13T06:18:33Z</time>
      </trkpt>
      <trkpt lat="42.90163" lon="0.50666">
        <ele>1190.7</ele>
        <time>2017-07-13T06:18:34Z</time>
      </trkpt>
      <trkpt lat="42.90161" lon="0.50665">
        <ele>1191</ele>
        <time>2017-07-13T06:18:35Z</time>
      </trkpt>
      <trkpt lat="42.90159" lon="0.50664">
        <ele>1191.4</ele>
        <time>2017-07-13T06:18:36Z</time>
      </trkpt>
      <trkpt lat="42.90157" lon="0.50663">
        <ele>1191.6</ele>
        <time>2017-07-13T06:18:37Z</time>
      </trkpt>
      <trkpt lat="42.90155" lon="0.50661">
        <ele>1191.9</ele>
        <time>2017-07-13T06:18:38Z</time>
      </trkpt>
      <trkpt lat="42.90153" lon="0.5066">
        <ele>1192.1</ele>
        <time>2017-07-13T06:18:39Z</time>
      </trkpt>
      <trkpt lat="42.90151" lon="0.50659">
        <ele>1192.3</ele>
        <time>2017-07-13T06:18:40Z</time>
      </trkpt>
      <trkpt lat="42.90148" lon="0.50658">
        <ele>1192.5</ele>
        <time>2017-07-13T06:18:41Z</time>
      </trkpt>
      <trkpt lat="42.90146" lon="0.50657">
        <ele>1192.7</ele>
        <time>2017-07-13T06:18:42Z</time>
      </trkpt>
      <trkpt lat="42.90144" lon="0.50656">
        <ele>1192.9</ele>
        <time>2017-07-13T06:18:43Z</time>
      </trkpt>
      <trkpt lat="42.90142" lon="0.50655">
        <ele>1193.1</ele>
        <time>2017-07-13T06:18:44Z</time>
      </trkpt>
      <trkpt lat="42.9014" lon="0.50654">
        <ele>1193.3</ele>
        <time>2017-07-13T06:18:45Z</time>
      </trkpt>
      <trkpt lat="42.90138" lon="0.50653">
        <ele>1193.6</ele>
        <time>2017-07-13T06:18:46Z</time>
      </trkpt>
      <trkpt lat="42.90136" lon="0.50652">
        <ele>1193.8</ele>
        <time>2017-07-13T06:18:47Z</time>
      </trkpt>
      <trkpt lat="42.90133" lon="0.50651">
        <ele>1194.1</ele>
        <time>2017-07-13T06:18:48Z</time>
      </trkpt>
      <trkpt lat="42.90131" lon="0.5065">
        <ele>1194.3</ele>
        <time>2017-07-13T06:18:49Z</time>
      </trkpt>
      <trkpt lat="42.90129" lon="0.50649">
        <ele>1194.6</ele>
        <time>2017-07-13T06:18:50Z</time>
      </trkpt>
      <trkpt lat="42.90127" lon="0.50648">
        <ele>1194.9</ele>
        <time>2017-07-13T06:18:51Z</time>
      </trkpt>
      <trkpt lat="42.90125" lon="0.50646">
        <ele>1195.1</ele>
        <time>2017-07-13T06:18:52Z</time>
      </trkpt>
      <trkpt lat="42.90123" lon="0.50645">
        <ele>1195.3</ele>
        <time>2017-07-13T06:18:53Z</time>
      </trkpt>
      <trkpt lat="42.90121" lon="0.50644">
        <ele>1195.6</ele>
        <time>2017-07-13T06:18:54Z</time>
      </trkpt>
      <trkpt lat="42.90119" lon="0.50643">
        <ele>1195.8</ele>
        <time>2017-07-13T06:18:55Z</time>
      </trkpt>
      <trkpt lat="42.90117" lon="0.50643">
        <ele>1195.9</ele>
        <time>2017-07-13T06:18:56Z</time>
      </trkpt>
      <trkpt lat="42.90115" lon="0.50642">
        <ele>1196</ele>
        <time>2017-07-13T06:18:57Z</time>
      </trkpt>
      <trkpt lat="42.90113" lon="0.50641">
        <ele>1196</ele>
        <time>2017-07-13T06:18:58Z</time>
      </trkpt>
      <trkpt lat="42.90111" lon="0.50641">
        <ele>1195.8</ele>
        <time>2017-07-13T06:18:59Z</time>
      </trkpt>
      <trkpt lat="42.90109" lon="0.50641">
        <ele>1195.6</ele>
        <time>2017-07-13T06:19:00Z</time>
      </trkpt>
      <trkpt lat="42.90106" lon="0.50641">
        <ele>1195.3</ele>
        <time>2017-07-13T06:19:01Z</time>
      </trkpt>
      <trkpt lat="42.90104" lon="0.50641">
        <ele>1194.9</ele>
        <time>2017-07-13T06:19:02Z</time>
      </trkpt>
      <trkpt lat="42.90102" lon="0.50642">
        <ele>1194.4</ele>
        <time>2017-07-13T06:19:03Z</time>
      </trkpt>
      <trkpt lat="42.901" lon="0.50642">
        <ele>1193.8</ele>
        <time>2017-07-13T06:19:04Z</time>
      </trkpt>
      <trkpt lat="42.90098" lon="0.50643">
        <ele>1193.3</ele>
        <time>2017-07-13T06:19:05Z</time>
      </trkpt>
      <trkpt lat="42.90096" lon="0.50643">
        <ele>1192.7</ele>
        <time>2017-07-13T06:19:06Z</time>
      </trkpt>
      <trkpt lat="42.90094" lon="0.50644">
        <ele>1192</ele>
        <time>2017-07-13T06:19:07Z</time>
      </trkpt>
      <trkpt lat="42.90092" lon="0.50645">
        <ele>1191.4</ele>
        <time>2017-07-13T06:19:08Z</time>
      </trkpt>
      <trkpt lat="42.90089" lon="0.50646">
        <ele>1190.7</ele>
        <time>2017-07-13T06:19:09Z</time>
      </trkpt>
      <trkpt lat="42.90087" lon="0.50646">
        <ele>1190.1</ele>
        <time>2017-07-13T06:19:10Z</time>
      </trkpt>
      <trkpt lat="42.90085" lon="0.50647">
        <ele>1189.5</ele>
        <time>2017-07-13T06:19:11Z</time>
      </trkpt>
      <trkpt lat="42.90083" lon="0.50648">
        <ele>1188.8</ele>
        <time>2017-07-13T06:19:12Z</time>
      </trkpt>
      <trkpt lat="42.90081" lon="0.50648">
        <ele>1187.7</ele>
        <time>2017-07-13T06:19:13Z</time>
      </trkpt>
      <trkpt lat="42.90079" lon="0.50649">
        <ele>1186.7</ele>
        <time>2017-07-13T06:19:14Z</time>
      </trkpt>
      <trkpt lat="42.90076" lon="0.5065">
        <ele>1185.6</ele>
        <time>2017-07-13T06:19:15Z</time>
      </trkpt>
      <trkpt lat="42.90074" lon="0.50651">
        <ele>1184.4</ele>
        <time>2017-07-13T06:19:16Z</time>
      </trkpt>
      <trkpt lat="42.90072" lon="0.50652">
        <ele>1183.2</ele>
        <time>2017-07-13T06:19:17Z</time>
      </trkpt>
      <trkpt lat="42.9007" lon="0.50653">
        <ele>1181.9</ele>
        <time>2017-07-13T06:19:18Z</time>
      </trkpt>
      <trkpt lat="42.90068" lon="0.50654">
        <ele>1180.6</ele>
        <time>2017-07-13T06:19:19Z</time>
      </trkpt>
      <trkpt lat="42.90065" lon="0.50656">
        <ele>1179.3</ele>
        <time>2017-07-13T06:19:20Z</time>
      </trkpt>
      <trkpt lat="42.90063" lon="0.50657">
        <ele>1178</ele>
        <time>2017-07-13T06:19:21Z</time>
      </trkpt>
      <trkpt lat="42.90061" lon="0.50658">
        <ele>1176.9</ele>
        <time>2017-07-13T06:19:22Z</time>
      </trkpt>
      <trkpt lat="42.90058" lon="0.50658">
        <ele>1175.9</ele>
        <time>2017-07-13T06:19:23Z</time>
      </trkpt>
      <trkpt lat="42.90056" lon="0.50659">
        <ele>1175.1</ele>
        <time>2017-07-13T06:19:24Z</time>
      </trkpt>
      <trkpt lat="42.90053" lon="0.50658">
        <ele>1174.4</ele>
        <time>2017-07-13T06:19:25Z</time>
      </trkpt>
      <trkpt lat="42.90051" lon="0.50658">
        <ele>1174</ele>
        <time>2017-07-13T06:19:26Z</time>
      </trkpt>
      <trkpt lat="42.90048" lon="0.50656">
        <ele>1173.8</ele>
        <time>2017-07-13T06:19:27Z</time>
      </trkpt>
      <trkpt lat="42.90046" lon="0.50655">
        <ele>1173.7</ele>
        <time>2017-07-13T06:19:28Z</time>
      </trkpt>
      <trkpt lat="42.90044" lon="0.50653">
        <ele>1173.8</ele>
        <time>2017-07-13T06:19:29Z</time>
      </trkpt>
      <trkpt lat="42.90042" lon="0.50651">
        <ele>1174.1</ele>
        <time>2017-07-13T06:19:30Z</time>
      </trkpt>
      <trkpt lat="42.9004" lon="0.50649">
        <ele>1174.6</ele>
        <time>2017-07-13T06:19:31Z</time>
      </trkpt>
      <trkpt lat="42.90039" lon="0.50646">
        <ele>1175.2</ele>
        <time>2017-07-13T06:19:32Z</time>
      </trkpt>
      <trkpt lat="42.90038" lon="0.50644">
        <ele>1175.8</ele>
        <time>2017-07-13T06:19:33Z</time>
      </trkpt>
      <trkpt lat="42.90036" lon="0.50641">
        <ele>1176.6</ele>
        <time>2017-07-13T06:19:34Z</time>
      </trkpt>
      <trkpt lat="42.90035" lon="0.50638">
        <ele>1177.3</ele>
        <time>2017-07-13T06:19:35Z</time>
      </trkpt>
      <trkpt lat="42.90034" lon="0.50636">
        <ele>1178</ele>
        <time>2017-07-13T06:19:36Z</time>
      </trkpt>
      <trkpt lat="42.90033" lon="0.50633">
        <ele>1178.7</ele>
        <time>2017-07-13T06:19:37Z</time>
      </trkpt>
      <trkpt lat="42.90032" lon="0.5063">
        <ele>1179.4</ele>
        <time>2017-07-13T06:19:38Z</time>
      </trkpt>
      <trkpt lat="42.90031" lon="0.50628">
        <ele>1180.1</ele>
        <time>2017-07-13T06:19:39Z</time>
      </trkpt>
      <trkpt lat="42.90031" lon="0.50625">
        <ele>1180.8</ele>
        <time>2017-07-13T06:19:40Z</time>
      </trkpt>
      <trkpt lat="42.9003" lon="0.50623">
        <ele>1181.5</ele>
        <time>2017-07-13T06:19:41Z</time>
      </trkpt>
      <trkpt lat="42.90029" lon="0.5062">
        <ele>1182.1</ele>
        <time>2017-07-13T06:19:42Z</time>
      </trkpt>
      <trkpt lat="42.90028" lon="0.50618">
        <ele>1182.7</ele>
        <time>2017-07-13T06:19:43Z</time>
      </trkpt>
      <trkpt lat="42.90027" lon="0.50615">
        <ele>1183.3</ele>
        <time>2017-07-13T06:19:44Z</time>
      </trkpt>
      <trkpt lat="42.90026" lon="0.50613">
        <ele>1183.9</ele>
        <time>2017-07-13T06:19:45Z</time>
      </trkpt>
      <trkpt lat="42.90025" lon="0.5061">
        <ele>1184.5</ele>
        <time>2017-07-13T06:19:46Z</time>
      </trkpt>
      <trkpt lat="42.90024" lon="0.50608">
        <ele>1185.1</ele>
        <time>2017-07-13T06:19:47Z</time>
      </trkpt>
      <trkpt lat="42.90023" lon="0.50605">
        <ele>1185.7</ele>
        <time>2017-07-13T06:19:48Z</time>
      </trkpt>
      <trkpt lat="42.90022" lon="0.50602">
        <ele>1186.3</ele>
        <time>2017-07-13T06:19:49Z</time>
      </trkpt>
      <trkpt lat="42.90022" lon="0.506">
        <ele>1186.9</ele>
        <time>2017-07-13T06:19:50Z</time>
      </trkpt>
      <trkpt lat="42.90021" lon="0.50597">
        <ele>1187.4</ele>
        <time>2017-07-13T06:19:51Z</time>
      </trkpt>
      <trkpt lat="42.9002" lon="0.50595">
        <ele>1188</ele>
        <time>2017-07-13T06:19:52Z</time>
      </trkpt>
      <trkpt lat="42.90019" lon="0.50592">
        <ele>1188.5</ele>
        <time>2017-07-13T06:19:53Z</time>
      </trkpt>
      <trkpt lat="42.90018" lon="0.50589">
        <ele>1189.1</ele>
        <time>2017-07-13T06:19:54Z</time>
      </trkpt>
      <trkpt lat="42.90017" lon="0.50586">
        <ele>1189.6</ele>
        <time>2017-07-13T06:19:55Z</time>
      </trkpt>
      <trkpt lat="42.90016" lon="0.50584">
        <ele>1190.1</ele>
        <time>2017-07-13T06:19:56Z</time>
      </trkpt>
      <trkpt lat="42.90015" lon="0.50581">
        <ele>1190.5</ele>
        <time>2017-07-13T06:19:57Z</time>
      </trkpt>
      <trkpt lat="42.90014" lon="0.50578">
        <ele>1190.9</ele>
        <time>2017-07-13T06:19:58Z</time>
      </trkpt>
      <trkpt lat="42.90013" lon="0.50575">
        <ele>1191.2</ele>
        <time>2017-07-13T06:19:59Z</time>
      </trkpt>
      <trkpt lat="42.90012" lon="0.50573">
        <ele>1191.6</ele>
        <time>2017-07-13T06:20:00Z</time>
      </trkpt>
      <trkpt lat="42.90011" lon="0.5057">
        <ele>1192</ele>
        <time>2017-07-13T06:20:01Z</time>
      </trkpt>
      <trkpt lat="42.9001" lon="0.50567">
        <ele>1192.4</ele>
        <time>2017-07-13T06:20:02Z</time>
      </trkpt>
      <trkpt lat="42.90009" lon="0.50564">
        <ele>1192.8</ele>
        <time>2017-07-13T06:20:03Z</time>
      </trkpt>
      <trkpt lat="42.90008" lon="0.50561">
        <ele>1193.1</ele>
        <time>2017-07-13T06:20:04Z</time>
      </trkpt>
      <trkpt lat="42.90007" lon="0.50558">
        <ele>1193.5</ele>
        <time>2017-07-13T06:20:05Z</time>
      </trkpt>
      <trkpt lat="42.90006" lon="0.50556">
        <ele>1193.9</ele>
        <time>2017-07-13T06:20:06Z</time>
      </trkpt>
      <trkpt lat="42.90005" lon="0.50553">
        <ele>1194.2</ele>
        <time>2017-07-13T06:20:07Z</time>
      </trkpt>
      <trkpt lat="42.90004" lon="0.5055">
        <ele>1194.6</ele>
        <time>2017-07-13T06:20:08Z</time>
      </trkpt>
      <trkpt lat="42.90003" lon="0.50547">
        <ele>1195</ele>
        <time>2017-07-13T06:20:09Z</time>
      </trkpt>
      <trkpt lat="42.90002" lon="0.50544">
        <ele>1195.4</ele>
        <time>2017-07-13T06:20:10Z</time>
      </trkpt>
      <trkpt lat="42.90001" lon="0.50541">
        <ele>1195.8</ele>
        <time>2017-07-13T06:20:11Z</time>
      </trkpt>
      <trkpt lat="42.9" lon="0.50538">
        <ele>1196.2</ele>
        <time>2017-07-13T06:20:12Z</time>
      </trkpt>
      <trkpt lat="42.89999" lon="0.50535">
        <ele>1196.5</ele>
        <time>2017-07-13T06:20:13Z</time>
      </trkpt>
      <trkpt lat="42.89999" lon="0.50532">
        <ele>1196.9</ele>
        <time>2017-07-13T06:20:14Z</time>
      </trkpt>
      <trkpt lat="42.89998" lon="0.5053">
        <ele>1197.3</ele>
        <time>2017-07-13T06:20:15Z</time>
      </trkpt>
      <trkpt lat="42.89997" lon="0.50527">
        <ele>1197.7</ele>
        <time>2017-07-13T06:20:16Z</time>
      </trkpt>
      <trkpt lat="42.89996" lon="0.50524">
        <ele>1198.1</ele>
        <time>2017-07-13T06:20:17Z</time>
      </trkpt>
      <trkpt lat="42.89995" lon="0.50521">
        <ele>1198.5</ele>
        <time>2017-07-13T06:20:18Z</time>
      </trkpt>
      <trkpt lat="42.89994" lon="0.50518">
        <ele>1198.9</ele>
        <time>2017-07-13T06:20:19Z</time>
      </trkpt>
      <trkpt lat="42.89994" lon="0.50515">
        <ele>1199.3</ele>
        <time>2017-07-13T06:20:20Z</time>
      </trkpt>
      <trkpt lat="42.89993" lon="0.50512">
        <ele>1199.7</ele>
        <time>2017-07-13T06:20:21Z</time>
      </trkpt>
      <trkpt lat="42.89992" lon="0.50509">
        <ele>1200.1</ele>
        <time>2017-07-13T06:20:22Z</time>
      </trkpt>
      <trkpt lat="42.89991" lon="0.50506">
        <ele>1200.5</ele>
        <time>2017-07-13T06:20:23Z</time>
      </trkpt>
      <trkpt lat="42.89991" lon="0.50503">
        <ele>1200.9</ele>
        <time>2017-07-13T06:20:24Z</time>
      </trkpt>
      <trkpt lat="42.8999" lon="0.505">
        <ele>1201.3</ele>
        <time>2017-07-13T06:20:25Z</time>
      </trkpt>
      <trkpt lat="42.89989" lon="0.50497">
        <ele>1201.8</ele>
        <time>2017-07-13T06:20:26Z</time>
      </trkpt>
      <trkpt lat="42.89988" lon="0.50495">
        <ele>1202.3</ele>
        <time>2017-07-13T06:20:27Z</time>
      </trkpt>
      <trkpt lat="42.89988" lon="0.50492">
        <ele>1202.9</ele>
        <time>2017-07-13T06:20:28Z</time>
      </trkpt>
      <trkpt lat="42.89987" lon="0.50489">
        <ele>1203.4</ele>
        <time>2017-07-13T06:20:29Z</time>
      </trkpt>
      <trkpt lat="42.89986" lon="0.50486">
        <ele>1203.9</ele>
        <time>2017-07-13T06:20:30Z</time>
      </trkpt>
      <trkpt lat="42.89986" lon="0.50483">
        <ele>1204.4</ele>
        <time>2017-07-13T06:20:31Z</time>
      </trkpt>
      <trkpt lat="42.89985" lon="0.5048">
        <ele>1204.8</ele>
        <time>2017-07-13T06:20:32Z</time>
      </trkpt>
      <trkpt lat="42.89984" lon="0.50477">
        <ele>1205.4</ele>
        <time>2017-07-13T06:20:33Z</time>
      </trkpt>
      <trkpt lat="42.89984" lon="0.50474">
        <ele>1205.9</ele>
        <time>2017-07-13T06:20:34Z</time>
      </trkpt>
      <trkpt lat="42.89983" lon="0.50472">
        <ele>1206.4</ele>
        <time>2017-07-13T06:20:35Z</time>
      </trkpt>
      <trkpt lat="42.89982" lon="0.50469">
        <ele>1206.9</ele>
        <time>2017-07-13T06:20:36Z</time>
      </trkpt>
      <trkpt lat="42.89982" lon="0.50466">
        <ele>1207.3</ele>
        <time>2017-07-13T06:20:37Z</time>
      </trkpt>
      <trkpt lat="42.89981" lon="0.50463">
        <ele>1207.8</ele>
        <time>2017-07-13T06:20:38Z</time>
      </trkpt>
      <trkpt lat="42.8998" lon="0.5046">
        <ele>1208.2</ele>
        <time>2017-07-13T06:20:39Z</time>
      </trkpt>
      <trkpt lat="42.89979" lon="0.50457">
        <ele>1208.7</ele>
        <time>2017-07-13T06:20:40Z</time>
      </trkpt>
      <trkpt lat="42.89979" lon="0.50454">
        <ele>1209.1</ele>
        <time>2017-07-13T06:20:41Z</time>
      </trkpt>
      <trkpt lat="42.89978" lon="0.50452">
        <ele>1209.4</ele>
        <time>2017-07-13T06:20:42Z</time>
      </trkpt>
      <trkpt lat="42.89977" lon="0.50449">
        <ele>1209.8</ele>
        <time>2017-07-13T06:20:43Z</time>
      </trkpt>
      <trkpt lat="42.89976" lon="0.50446">
        <ele>1210.2</ele>
        <time>2017-07-13T06:20:44Z</time>
      </trkpt>
      <trkpt lat="42.89975" lon="0.50443">
        <ele>1210.6</ele>
        <time>2017-07-13T06:20:45Z</time>
      </trkpt>
      <trkpt lat="42.89974" lon="0.5044">
        <ele>1211</ele>
        <time>2017-07-13T06:20:46Z</time>
      </trkpt>
      <trkpt lat="42.89974" lon="0.50438">
        <ele>1211.5</ele>
        <time>2017-07-13T06:20:47Z</time>
      </trkpt>
      <trkpt lat="42.89973" lon="0.50435">
        <ele>1211.8</ele>
        <time>2017-07-13T06:20:48Z</time>
      </trkpt>
      <trkpt lat="42.89972" lon="0.50432">
        <ele>1212.3</ele>
        <time>2017-07-13T06:20:49Z</time>
      </trkpt>
      <trkpt lat="42.89971" lon="0.5043">
        <ele>1212.6</ele>
        <time>2017-07-13T06:20:50Z</time>
      </trkpt>
      <trkpt lat="42.89971" lon="0.50427">
        <ele>1213</ele>
        <time>2017-07-13T06:20:51Z</time>
      </trkpt>
      <trkpt lat="42.8997" lon="0.50424">
        <ele>1213.4</ele>
        <time>2017-07-13T06:20:52Z</time>
      </trkpt>
      <trkpt lat="42.89969" lon="0.50422">
        <ele>1213.7</ele>
        <time>2017-07-13T06:20:53Z</time>
      </trkpt>
      <trkpt lat="42.89968" lon="0.50419">
        <ele>1214</ele>
        <time>2017-07-13T06:20:54Z</time>
      </trkpt>
      <trkpt lat="42.89967" lon="0.50416">
        <ele>1214.3</ele>
        <time>2017-07-13T06:20:55Z</time>
      </trkpt>
      <trkpt lat="42.89966" lon="0.50414">
        <ele>1214.7</ele>
        <time>2017-07-13T06:20:56Z</time>
      </trkpt>
      <trkpt lat="42.89965" lon="0.50411">
        <ele>1215.1</ele>
        <time>2017-07-13T06:20:57Z</time>
      </trkpt>
      <trkpt lat="42.89965" lon="0.50409">
        <ele>1215.5</ele>
        <time>2017-07-13T06:20:58Z</time>
      </trkpt>
      <trkpt lat="42.89964" lon="0.50406">
        <ele>1215.8</ele>
        <time>2017-07-13T06:20:59Z</time>
      </trkpt>
      <trkpt lat="42.89963" lon="0.50403">
        <ele>1216.1</ele>
        <time>2017-07-13T06:21:00Z</time>
      </trkpt>
      <trkpt lat="42.89962" lon="0.50401">
        <ele>1216.4</ele>
        <time>2017-07-13T06:21:01Z</time>
      </trkpt>
      <trkpt lat="42.8996" lon="0.50398">
        <ele>1216.6</ele>
        <time>2017-07-13T06:21:02Z</time>
      </trkpt>
      <trkpt lat="42.89959" lon="0.50396">
        <ele>1216.9</ele>
        <time>2017-07-13T06:21:03Z</time>
      </trkpt>
      <trkpt lat="42.89958" lon="0.50393">
        <ele>1217.1</ele>
        <time>2017-07-13T06:21:04Z</time>
      </trkpt>
      <trkpt lat="42.89957" lon="0.50391">
        <ele>1217.3</ele>
        <time>2017-07-13T06:21:05Z</time>
      </trkpt>
      <trkpt lat="42.89956" lon="0.50388">
        <ele>1217.5</ele>
        <time>2017-07-13T06:21:06Z</time>
      </trkpt>
      <trkpt lat="42.89955" lon="0.50386">
        <ele>1217.7</ele>
        <time>2017-07-13T06:21:07Z</time>
      </trkpt>
      <trkpt lat="42.89954" lon="0.50383">
        <ele>1217.9</ele>
        <time>2017-07-13T06:21:08Z</time>
      </trkpt>
      <trkpt lat="42.89953" lon="0.50381">
        <ele>1218</ele>
        <time>2017-07-13T06:21:09Z</time>
      </trkpt>
      <trkpt lat="42.89952" lon="0.50378">
        <ele>1218.1</ele>
        <time>2017-07-13T06:21:10Z</time>
      </trkpt>
      <trkpt lat="42.8995" lon="0.50376">
        <ele>1218.3</ele>
        <time>2017-07-13T06:21:11Z</time>
      </trkpt>
      <trkpt lat="42.89949" lon="0.50373">
        <ele>1218.3</ele>
        <time>2017-07-13T06:21:12Z</time>
      </trkpt>
      <trkpt lat="42.89948" lon="0.50371">
        <ele>1218.5</ele>
        <time>2017-07-13T06:21:13Z</time>
      </trkpt>
      <trkpt lat="42.89947" lon="0.50368">
        <ele>1218.6</ele>
        <time>2017-07-13T06:21:14Z</time>
      </trkpt>
      <trkpt lat="42.89946" lon="0.50366">
        <ele>1218.7</ele>
        <time>2017-07-13T06:21:15Z</time>
      </trkpt>
      <trkpt lat="42.89944" lon="0.50363">
        <ele>1218.8</ele>
        <time>2017-07-13T06:21:16Z</time>
      </trkpt>
      <trkpt lat="42.89943" lon="0.50361">
        <ele>1218.9</ele>
        <time>2017-07-13T06:21:17Z</time>
      </trkpt>
      <trkpt lat="42.89942" lon="0.50358">
        <ele>1218.9</ele>
        <time>2017-07-13T06:21:18Z</time>
      </trkpt>
      <trkpt lat="42.89941" lon="0.50355">
        <ele>1219</ele>
        <time>2017-07-13T06:21:19Z</time>
      </trkpt>
      <trkpt lat="42.8994" lon="0.50353">
        <ele>1219.1</ele>
        <time>2017-07-13T06:21:20Z</time>
      </trkpt>
      <trkpt lat="42.89938" lon="0.5035">
        <ele>1219.2</ele>
        <time>2017-07-13T06:21:21Z</time>
      </trkpt>
      <trkpt lat="42.89937" lon="0.50348">
        <ele>1219.2</ele>
        <time>2017-07-13T06:21:22Z</time>
      </trkpt>
      <trkpt lat="42.89936" lon="0.50345">
        <ele>1219.3</ele>
        <time>2017-07-13T06:21:23Z</time>
      </trkpt>
      <trkpt lat="42.89935" lon="0.50342">
        <ele>1219.3</ele>
        <time>2017-07-13T06:21:24Z</time>
      </trkpt>
      <trkpt lat="42.89934" lon="0.5034">
        <ele>1219.3</ele>
        <time>2017-07-13T06:21:25Z</time>
      </trkpt>
      <trkpt lat="42.89932" lon="0.50337">
        <ele>1219.4</ele>
        <time>2017-07-13T06:21:26Z</time>
      </trkpt>
      <trkpt lat="42.89931" lon="0.50334">
        <ele>1219.4</ele>
        <time>2017-07-13T06:21:27Z</time>
      </trkpt>
      <trkpt lat="42.8993" lon="0.50332">
        <ele>1219.6</ele>
        <time>2017-07-13T06:21:28Z</time>
      </trkpt>
      <trkpt lat="42.89929" lon="0.50329">
        <ele>1219.9</ele>
        <time>2017-07-13T06:21:29Z</time>
      </trkpt>
      <trkpt lat="42.89928" lon="0.50327">
        <ele>1220.2</ele>
        <time>2017-07-13T06:21:30Z</time>
      </trkpt>
      <trkpt lat="42.89927" lon="0.50324">
        <ele>1220.5</ele>
        <time>2017-07-13T06:21:31Z</time>
      </trkpt>
      <trkpt lat="42.89925" lon="0.50321">
        <ele>1220.8</ele>
        <time>2017-07-13T06:21:32Z</time>
      </trkpt>
      <trkpt lat="42.89924" lon="0.50319">
        <ele>1221.1</ele>
        <time>2017-07-13T06:21:33Z</time>
      </trkpt>
      <trkpt lat="42.89923" lon="0.50316">
        <ele>1221.3</ele>
        <time>2017-07-13T06:21:34Z</time>
      </trkpt>
      <trkpt lat="42.89922" lon="0.50314">
        <ele>1221.6</ele>
        <time>2017-07-13T06:21:35Z</time>
      </trkpt>
      <trkpt lat="42.89921" lon="0.50311">
        <ele>1221.9</ele>
        <time>2017-07-13T06:21:36Z</time>
      </trkpt>
      <trkpt lat="42.89919" lon="0.50308">
        <ele>1222.1</ele>
        <time>2017-07-13T06:21:37Z</time>
      </trkpt>
      <trkpt lat="42.89918" lon="0.50306">
        <ele>1222.4</ele>
        <time>2017-07-13T06:21:38Z</time>
      </trkpt>
      <trkpt lat="42.89917" lon="0.50303">
        <ele>1222.6</ele>
        <time>2017-07-13T06:21:39Z</time>
      </trkpt>
      <trkpt lat="42.89916" lon="0.50301">
        <ele>1223.1</ele>
        <time>2017-07-13T06:21:40Z</time>
      </trkpt>
      <trkpt lat="42.89915" lon="0.50298">
        <ele>1223.7</ele>
        <time>2017-07-13T06:21:41Z</time>
      </trkpt>
      <trkpt lat="42.89914" lon="0.50295">
        <ele>1224.3</ele>
        <time>2017-07-13T06:21:42Z</time>
      </trkpt>
      <trkpt lat="42.89913" lon="0.50293">
        <ele>1224.9</ele>
        <time>2017-07-13T06:21:43Z</time>
      </trkpt>
      <trkpt lat="42.89912" lon="0.5029">
        <ele>1225.5</ele>
        <time>2017-07-13T06:21:44Z</time>
      </trkpt>
      <trkpt lat="42.89911" lon="0.50288">
        <ele>1226.1</ele>
        <time>2017-07-13T06:21:45Z</time>
      </trkpt>
      <trkpt lat="42.8991" lon="0.50285">
        <ele>1226.7</ele>
        <time>2017-07-13T06:21:46Z</time>
      </trkpt>
      <trkpt lat="42.89909" lon="0.50282">
        <ele>1227.3</ele>
        <time>2017-07-13T06:21:47Z</time>
      </trkpt>
      <trkpt lat="42.89908" lon="0.5028">
        <ele>1227.9</ele>
        <time>2017-07-13T06:21:48Z</time>
      </trkpt>
      <trkpt lat="42.89907" lon="0.50277">
        <ele>1228.5</ele>
        <time>2017-07-13T06:21:49Z</time>
      </trkpt>
      <trkpt lat="42.89906" lon="0.50275">
        <ele>1229.2</ele>
        <time>2017-07-13T06:21:50Z</time>
      </trkpt>
      <trkpt lat="42.89905" lon="0.50272">
        <ele>1229.8</ele>
        <time>2017-07-13T06:21:51Z</time>
      </trkpt>
      <trkpt lat="42.89904" lon="0.50269">
        <ele>1230.5</ele>
        <time>2017-07-13T06:21:52Z</time>
      </trkpt>
      <trkpt lat="42.89903" lon="0.50267">
        <ele>1231.1</ele>
        <time>2017-07-13T06:21:53Z</time>
      </trkpt>
      <trkpt lat="42.89902" lon="0.50264">
        <ele>1231.9</ele>
        <time>2017-07-13T06:21:54Z</time>
      </trkpt>
      <trkpt lat="42.89901" lon="0.50261">
        <ele>1232.6</ele>
        <time>2017-07-13T06:21:55Z</time>
      </trkpt>
      <trkpt lat="42.89901" lon="0.50259">
        <ele>1233.3</ele>
        <time>2017-07-13T06:21:56Z</time>
      </trkpt>
      <trkpt lat="42.899" lon="0.50256">
        <ele>1234</ele>
        <time>2017-07-13T06:21:57Z</time>
      </trkpt>
      <trkpt lat="42.89899" lon="0.50253">
        <ele>1234.7</ele>
        <time>2017-07-13T06:21:58Z</time>
      </trkpt>
      <trkpt lat="42.89898" lon="0.5025">
        <ele>1235.5</ele>
        <time>2017-07-13T06:21:59Z</time>
      </trkpt>
      <trkpt lat="42.89897" lon="0.50248">
        <ele>1236.9</ele>
        <time>2017-07-13T06:22:00Z</time>
      </trkpt>
      <trkpt lat="42.89897" lon="0.50245">
        <ele>1238.4</ele>
        <time>2017-07-13T06:22:01Z</time>
      </trkpt>
      <trkpt lat="42.89896" lon="0.50242">
        <ele>1239.8</ele>
        <time>2017-07-13T06:22:02Z</time>
      </trkpt>
      <trkpt lat="42.89895" lon="0.50239">
        <ele>1241.1</ele>
        <time>2017-07-13T06:22:03Z</time>
      </trkpt>
      <trkpt lat="42.89894" lon="0.50237">
        <ele>1242.4</ele>
        <time>2017-07-13T06:22:04Z</time>
      </trkpt>
      <trkpt lat="42.89893" lon="0.50234">
        <ele>1243.6</ele>
        <time>2017-07-13T06:22:05Z</time>
      </trkpt>
      <trkpt lat="42.89892" lon="0.50232">
        <ele>1244.6</ele>
        <time>2017-07-13T06:22:06Z</time>
      </trkpt>
      <trkpt lat="42.89891" lon="0.50229">
        <ele>1245.6</ele>
        <time>2017-07-13T06:22:07Z</time>
      </trkpt>
      <trkpt lat="42.8989" lon="0.50227">
        <ele>1246.3</ele>
        <time>2017-07-13T06:22:08Z</time>
      </trkpt>
      <trkpt lat="42.89888" lon="0.50225">
        <ele>1246.9</ele>
        <time>2017-07-13T06:22:09Z</time>
      </trkpt>
      <trkpt lat="42.89887" lon="0.50223">
        <ele>1247.4</ele>
        <time>2017-07-13T06:22:10Z</time>
      </trkpt>
      <trkpt lat="42.89885" lon="0.50221">
        <ele>1247.7</ele>
        <time>2017-07-13T06:22:11Z</time>
      </trkpt>
      <trkpt lat="42.89883" lon="0.50219">
        <ele>1247.9</ele>
        <time>2017-07-13T06:22:12Z</time>
      </trkpt>
      <trkpt lat="42.89882" lon="0.50217">
        <ele>1248.2</ele>
        <time>2017-07-13T06:22:13Z</time>
      </trkpt>
      <trkpt lat="42.8988" lon="0.50215">
        <ele>1248.3</ele>
        <time>2017-07-13T06:22:14Z</time>
      </trkpt>
      <trkpt lat="42.89879" lon="0.50213">
        <ele>1248.5</ele>
        <time>2017-07-13T06:22:15Z</time>
      </trkpt>
      <trkpt lat="42.89877" lon="0.50211">
        <ele>1248.6</ele>
        <time>2017-07-13T06:22:16Z</time>
      </trkpt>
      <trkpt lat="42.89875" lon="0.50209">
        <ele>1248.9</ele>
        <time>2017-07-13T06:22:17Z</time>
      </trkpt>
      <trkpt lat="42.89874" lon="0.50207">
        <ele>1249.1</ele>
        <time>2017-07-13T06:22:18Z</time>
      </trkpt>
      <trkpt lat="42.89872" lon="0.50204">
        <ele>1249.2</ele>
        <time>2017-07-13T06:22:19Z</time>
      </trkpt>
      <trkpt lat="42.89871" lon="0.50202">
        <ele>1249.5</ele>
        <time>2017-07-13T06:22:20Z</time>
      </trkpt>
      <trkpt lat="42.8987" lon="0.502">
        <ele>1249.7</ele>
        <time>2017-07-13T06:22:21Z</time>
      </trkpt>
      <trkpt lat="42.89868" lon="0.50198">
        <ele>1250</ele>
        <time>2017-07-13T06:22:22Z</time>
      </trkpt>
      <trkpt lat="42.89867" lon="0.50196">
        <ele>1250.1</ele>
        <time>2017-07-13T06:22:23Z</time>
      </trkpt>
      <trkpt lat="42.89866" lon="0.50193">
        <ele>1250.4</ele>
        <time>2017-07-13T06:22:24Z</time>
      </trkpt>
      <trkpt lat="42.89864" lon="0.50191">
        <ele>1250.7</ele>
        <time>2017-07-13T06:22:25Z</time>
      </trkpt>
      <trkpt lat="42.89863" lon="0.50189">
        <ele>1250.8</ele>
        <time>2017-07-13T06:22:26Z</time>
      </trkpt>
      <trkpt lat="42.89862" lon="0.50186">
        <ele>1251</ele>
        <time>2017-07-13T06:22:27Z</time>
      </trkpt>
      <trkpt lat="42.8986" lon="0.50184">
        <ele>1251.2</ele>
        <time>2017-07-13T06:22:28Z</time>
      </trkpt>
      <trkpt lat="42.89859" lon="0.50182">
        <ele>1251.4</ele>
        <time>2017-07-13T06:22:29Z</time>
      </trkpt>
      <trkpt lat="42.89858" lon="0.50179">
        <ele>1251.5</ele>
        <time>2017-07-13T06:22:30Z</time>
      </trkpt>
      <trkpt lat="42.89856" lon="0.50177">
        <ele>1251.5</ele>
        <time>2017-07-13T06:22:31Z</time>
      </trkpt>
      <trkpt lat="42.89855" lon="0.50175">
        <ele>1251.6</ele>
        <time>2017-07-13T06:22:32Z</time>
      </trkpt>
      <trkpt lat="42.89854" lon="0.50172">
        <ele>1251.5</ele>
        <time>2017-07-13T06:22:33Z</time>
      </trkpt>
      <trkpt lat="42.89852" lon="0.5017">
        <ele>1251.5</ele>
        <time>2017-07-13T06:22:34Z</time>
      </trkpt>
      <trkpt lat="42.89851" lon="0.50168">
        <ele>1251.3</ele>
        <time>2017-07-13T06:22:35Z</time>
      </trkpt>
      <trkpt lat="42.89849" lon="0.50165">
        <ele>1251.2</ele>
        <time>2017-07-13T06:22:36Z</time>
      </trkpt>
      <trkpt lat="42.89848" lon="0.50163">
        <ele>1250.9</ele>
        <time>2017-07-13T06:22:37Z</time>
      </trkpt>
      <trkpt lat="42.89846" lon="0.50161">
        <ele>1250.6</ele>
        <time>2017-07-13T06:22:38Z</time>
      </trkpt>
      <trkpt lat="42.89845" lon="0.50158">
        <ele>1250.4</ele>
        <time>2017-07-13T06:22:39Z</time>
      </trkpt>
      <trkpt lat="42.89844" lon="0.50156">
        <ele>1250.1</ele>
        <time>2017-07-13T06:22:40Z</time>
      </trkpt>
      <trkpt lat="42.89842" lon="0.50154">
        <ele>1249.8</ele>
        <time>2017-07-13T06:22:41Z</time>
      </trkpt>
      <trkpt lat="42.89841" lon="0.50151">
        <ele>1249.5</ele>
        <time>2017-07-13T06:22:42Z</time>
      </trkpt>
      <trkpt lat="42.89839" lon="0.50149">
        <ele>1249.2</ele>
        <time>2017-07-13T06:22:43Z</time>
      </trkpt>
      <trkpt lat="42.89838" lon="0.50147">
        <ele>1248.9</ele>
        <time>2017-07-13T06:22:44Z</time>
      </trkpt>
      <trkpt lat="42.89837" lon="0.50144">
        <ele>1248.6</ele>
        <time>2017-07-13T06:22:45Z</time>
      </trkpt>
      <trkpt lat="42.89835" lon="0.50142">
        <ele>1248.3</ele>
        <time>2017-07-13T06:22:46Z</time>
      </trkpt>
      <trkpt lat="42.89834" lon="0.5014">
        <ele>1248.1</ele>
        <time>2017-07-13T06:22:47Z</time>
      </trkpt>
      <trkpt lat="42.89833" lon="0.50137">
        <ele>1248.3</ele>
        <time>2017-07-13T06:22:48Z</time>
      </trkpt>
      <trkpt lat="42.89831" lon="0.50135">
        <ele>1248.7</ele>
        <time>2017-07-13T06:22:49Z</time>
      </trkpt>
      <trkpt lat="42.8983" lon="0.50133">
        <ele>1249.2</ele>
        <time>2017-07-13T06:22:50Z</time>
      </trkpt>
      <trkpt lat="42.89829" lon="0.5013">
        <ele>1249.7</ele>
        <time>2017-07-13T06:22:51Z</time>
      </trkpt>
      <trkpt lat="42.89828" lon="0.50128">
        <ele>1250.1</ele>
        <time>2017-07-13T06:22:52Z</time>
      </trkpt>
      <trkpt lat="42.89826" lon="0.50126">
        <ele>1250.6</ele>
        <time>2017-07-13T06:22:53Z</time>
      </trkpt>
      <trkpt lat="42.89825" lon="0.50123">
        <ele>1251.1</ele>
        <time>2017-07-13T06:22:54Z</time>
      </trkpt>
      <trkpt lat="42.89824" lon="0.50121">
        <ele>1251.5</ele>
        <time>2017-07-13T06:22:55Z</time>
      </trkpt>
      <trkpt lat="42.89823" lon="0.50118">
        <ele>1252</ele>
        <time>2017-07-13T06:22:56Z</time>
      </trkpt>
      <trkpt lat="42.89822" lon="0.50116">
        <ele>1252.4</ele>
        <time>2017-07-13T06:22:57Z</time>
      </trkpt>
      <trkpt lat="42.8982" lon="0.50113">
        <ele>1252.8</ele>
        <time>2017-07-13T06:22:58Z</time>
      </trkpt>
      <trkpt lat="42.89819" lon="0.50111">
        <ele>1253.3</ele>
        <time>2017-07-13T06:22:59Z</time>
      </trkpt>
      <trkpt lat="42.89818" lon="0.50108">
        <ele>1253.7</ele>
        <time>2017-07-13T06:23:00Z</time>
      </trkpt>
      <trkpt lat="42.89817" lon="0.50105">
        <ele>1254.1</ele>
        <time>2017-07-13T06:23:01Z</time>
      </trkpt>
      <trkpt lat="42.89816" lon="0.50103">
        <ele>1254.6</ele>
        <time>2017-07-13T06:23:02Z</time>
      </trkpt>
      <trkpt lat="42.89814" lon="0.501">
        <ele>1255</ele>
        <time>2017-07-13T06:23:03Z</time>
      </trkpt>
      <trkpt lat="42.89813" lon="0.50097">
        <ele>1255.4</ele>
        <time>2017-07-13T06:23:04Z</time>
      </trkpt>
      <trkpt lat="42.89812" lon="0.50094">
        <ele>1255.8</ele>
        <time>2017-07-13T06:23:05Z</time>
      </trkpt>
      <trkpt lat="42.89811" lon="0.50092">
        <ele>1256.2</ele>
        <time>2017-07-13T06:23:06Z</time>
      </trkpt>
      <trkpt lat="42.8981" lon="0.50089">
        <ele>1256.5</ele>
        <time>2017-07-13T06:23:07Z</time>
      </trkpt>
      <trkpt lat="42.89809" lon="0.50086">
        <ele>1257</ele>
        <time>2017-07-13T06:23:08Z</time>
      </trkpt>
      <trkpt lat="42.89807" lon="0.50083">
        <ele>1257.3</ele>
        <time>2017-07-13T06:23:09Z</time>
      </trkpt>
      <trkpt lat="42.89806" lon="0.5008">
        <ele>1257.5</ele>
        <time>2017-07-13T06:23:10Z</time>
      </trkpt>
      <trkpt lat="42.89805" lon="0.50078">
        <ele>1257.7</ele>
        <time>2017-07-13T06:23:11Z</time>
      </trkpt>
      <trkpt lat="42.89804" lon="0.50075">
        <ele>1257.9</ele>
        <time>2017-07-13T06:23:12Z</time>
      </trkpt>
      <trkpt lat="42.89803" lon="0.50072">
        <ele>1258.1</ele>
        <time>2017-07-13T06:23:13Z</time>
      </trkpt>
      <trkpt lat="42.89802" lon="0.50069">
        <ele>1258.3</ele>
        <time>2017-07-13T06:23:14Z</time>
      </trkpt>
      <trkpt lat="42.89801" lon="0.50066">
        <ele>1258.5</ele>
        <time>2017-07-13T06:23:15Z</time>
      </trkpt>
      <trkpt lat="42.898" lon="0.50063">
        <ele>1258.7</ele>
        <time>2017-07-13T06:23:16Z</time>
      </trkpt>
      <trkpt lat="42.89799" lon="0.50061">
        <ele>1259</ele>
        <time>2017-07-13T06:23:17Z</time>
      </trkpt>
      <trkpt lat="42.89798" lon="0.50058">
        <ele>1259.2</ele>
        <time>2017-07-13T06:23:18Z</time>
      </trkpt>
      <trkpt lat="42.89797" lon="0.50055">
        <ele>1259.5</ele>
        <time>2017-07-13T06:23:19Z</time>
      </trkpt>
      <trkpt lat="42.89797" lon="0.50052">
        <ele>1259.8</ele>
        <time>2017-07-13T06:23:20Z</time>
      </trkpt>
      <trkpt lat="42.89796" lon="0.50049">
        <ele>1260.1</ele>
        <time>2017-07-13T06:23:21Z</time>
      </trkpt>
      <trkpt lat="42.89795" lon="0.50047">
        <ele>1260.4</ele>
        <time>2017-07-13T06:23:22Z</time>
      </trkpt>
      <trkpt lat="42.89794" lon="0.50044">
        <ele>1260.7</ele>
        <time>2017-07-13T06:23:23Z</time>
      </trkpt>
      <trkpt lat="42.89794" lon="0.50041">
        <ele>1261</ele>
        <time>2017-07-13T06:23:24Z</time>
      </trkpt>
      <trkpt lat="42.89793" lon="0.50039">
        <ele>1261.4</ele>
        <time>2017-07-13T06:23:25Z</time>
      </trkpt>
      <trkpt lat="42.89792" lon="0.50036">
        <ele>1261.7</ele>
        <time>2017-07-13T06:23:26Z</time>
      </trkpt>
      <trkpt lat="42.89792" lon="0.50033">
        <ele>1262.2</ele>
        <time>2017-07-13T06:23:27Z</time>
      </trkpt>
      <trkpt lat="42.89791" lon="0.50031">
        <ele>1262.6</ele>
        <time>2017-07-13T06:23:28Z</time>
      </trkpt>
      <trkpt lat="42.89791" lon="0.50028">
        <ele>1263</ele>
        <time>2017-07-13T06:23:29Z</time>
      </trkpt>
      <trkpt lat="42.8979" lon="0.50025">
        <ele>1263.5</ele>
        <time>2017-07-13T06:23:30Z</time>
      </trkpt>
      <trkpt lat="42.8979" lon="0.50023">
        <ele>1263.9</ele>
        <time>2017-07-13T06:23:31Z</time>
      </trkpt>
      <trkpt lat="42.8979" lon="0.5002">
        <ele>1264.5</ele>
        <time>2017-07-13T06:23:32Z</time>
      </trkpt>
      <trkpt lat="42.89789" lon="0.50017">
        <ele>1265</ele>
        <time>2017-07-13T06:23:33Z</time>
      </trkpt>
      <trkpt lat="42.89789" lon="0.50014">
        <ele>1265.6</ele>
        <time>2017-07-13T06:23:34Z</time>
      </trkpt>
      <trkpt lat="42.89789" lon="0.50011">
        <ele>1266.2</ele>
        <time>2017-07-13T06:23:35Z</time>
      </trkpt>
      <trkpt lat="42.89788" lon="0.50008">
        <ele>1266.8</ele>
        <time>2017-07-13T06:23:36Z</time>
      </trkpt>
      <trkpt lat="42.89788" lon="0.50005">
        <ele>1267.4</ele>
        <time>2017-07-13T06:23:37Z</time>
      </trkpt>
      <trkpt lat="42.89788" lon="0.50002">
        <ele>1267.9</ele>
        <time>2017-07-13T06:23:38Z</time>
      </trkpt>
      <trkpt lat="42.89787" lon="0.49999">
        <ele>1268.3</ele>
        <time>2017-07-13T06:23:39Z</time>
      </trkpt>
      <trkpt lat="42.89786" lon="0.49995">
        <ele>1268.6</ele>
        <time>2017-07-13T06:23:40Z</time>
      </trkpt>
      <trkpt lat="42.89786" lon="0.49992">
        <ele>1268.7</ele>
        <time>2017-07-13T06:23:41Z</time>
      </trkpt>
      <trkpt lat="42.89785" lon="0.49989">
        <ele>1268.7</ele>
        <time>2017-07-13T06:23:42Z</time>
      </trkpt>
      <trkpt lat="42.89783" lon="0.49987">
        <ele>1268.6</ele>
        <time>2017-07-13T06:23:43Z</time>
      </trkpt>
      <trkpt lat="42.89782" lon="0.49984">
        <ele>1268.3</ele>
        <time>2017-07-13T06:23:44Z</time>
      </trkpt>
      <trkpt lat="42.8978" lon="0.49982">
        <ele>1267.9</ele>
        <time>2017-07-13T06:23:45Z</time>
      </trkpt>
      <trkpt lat="42.89778" lon="0.49979">
        <ele>1267.3</ele>
        <time>2017-07-13T06:23:46Z</time>
      </trkpt>
      <trkpt lat="42.89777" lon="0.49977">
        <ele>1266.6</ele>
        <time>2017-07-13T06:23:47Z</time>
      </trkpt>
      <trkpt lat="42.89774" lon="0.49976">
        <ele>1265.9</ele>
        <time>2017-07-13T06:23:48Z</time>
      </trkpt>
      <trkpt lat="42.89772" lon="0.49974">
        <ele>1265</ele>
        <time>2017-07-13T06:23:49Z</time>
      </trkpt>
      <trkpt lat="42.8977" lon="0.49973">
        <ele>1264</ele>
        <time>2017-07-13T06:23:50Z</time>
      </trkpt>
      <trkpt lat="42.89768" lon="0.49971">
        <ele>1263.1</ele>
        <time>2017-07-13T06:23:51Z</time>
      </trkpt>
      <trkpt lat="42.89765" lon="0.4997">
        <ele>1262</ele>
        <time>2017-07-13T06:23:52Z</time>
      </trkpt>
      <trkpt lat="42.89763" lon="0.49969">
        <ele>1261</ele>
        <time>2017-07-13T06:23:53Z</time>
      </trkpt>
      <trkpt lat="42.8976" lon="0.49968">
        <ele>1259.8</ele>
        <time>2017-07-13T06:23:54Z</time>
      </trkpt>
      <trkpt lat="42.89758" lon="0.49967">
        <ele>1258.7</ele>
        <time>2017-07-13T06:23:55Z</time>
      </trkpt>
      <trkpt lat="42.89756" lon="0.49966">
        <ele>1257.6</ele>
        <time>2017-07-13T06:23:56Z</time>
      </trkpt>
      <trkpt lat="42.89753" lon="0.49965">
        <ele>1256.5</ele>
        <time>2017-07-13T06:23:57Z</time>
      </trkpt>
      <trkpt lat="42.89751" lon="0.49964">
        <ele>1255.3</ele>
        <time>2017-07-13T06:23:58Z</time>
      </trkpt>
      <trkpt lat="42.89748" lon="0.49963">
        <ele>1254.9</ele>
        <time>2017-07-13T06:23:59Z</time>
      </trkpt>
      <trkpt lat="42.89746" lon="0.49962">
        <ele>1254.7</ele>
        <time>2017-07-13T06:24:00Z</time>
      </trkpt>
      <trkpt lat="42.89743" lon="0.49961">
        <ele>1254.5</ele>
        <time>2017-07-13T06:24:01Z</time>
      </trkpt>
      <trkpt lat="42.89741" lon="0.49959">
        <ele>1254.4</ele>
        <time>2017-07-13T06:24:02Z</time>
      </trkpt>
      <trkpt lat="42.89739" lon="0.49958">
        <ele>1254.2</ele>
        <time>2017-07-13T06:24:03Z</time>
      </trkpt>
      <trkpt lat="42.89736" lon="0.49956">
        <ele>1254.2</ele>
        <time>2017-07-13T06:24:04Z</time>
      </trkpt>
      <trkpt lat="42.89734" lon="0.49954">
        <ele>1254.1</ele>
        <time>2017-07-13T06:24:05Z</time>
      </trkpt>
      <trkpt lat="42.89732" lon="0.49952">
        <ele>1254</ele>
        <time>2017-07-13T06:24:06Z</time>
      </trkpt>
      <trkpt lat="42.8973" lon="0.4995">
        <ele>1254</ele>
        <time>2017-07-13T06:24:07Z</time>
      </trkpt>
      <trkpt lat="42.89728" lon="0.49948">
        <ele>1253.9</ele>
        <time>2017-07-13T06:24:08Z</time>
      </trkpt>
      <trkpt lat="42.89725" lon="0.49946">
        <ele>1253.9</ele>
        <time>2017-07-13T06:24:09Z</time>
      </trkpt>
      <trkpt lat="42.89723" lon="0.49944">
        <ele>1253.9</ele>
        <time>2017-07-13T06:24:10Z</time>
      </trkpt>
      <trkpt lat="42.89721" lon="0.49941">
        <ele>1253.8</ele>
        <time>2017-07-13T06:24:11Z</time>
      </trkpt>
      <trkpt lat="42.89719" lon="0.49939">
        <ele>1253.7</ele>
        <time>2017-07-13T06:24:12Z</time>
      </trkpt>
      <trkpt lat="42.89717" lon="0.49937">
        <ele>1253.7</ele>
        <time>2017-07-13T06:24:13Z</time>
      </trkpt>
      <trkpt lat="42.89715" lon="0.49935">
        <ele>1253.6</ele>
        <time>2017-07-13T06:24:14Z</time>
      </trkpt>
      <trkpt lat="42.89712" lon="0.49933">
        <ele>1253.4</ele>
        <time>2017-07-13T06:24:15Z</time>
      </trkpt>
      <trkpt lat="42.8971" lon="0.49931">
        <ele>1253.3</ele>
        <time>2017-07-13T06:24:16Z</time>
      </trkpt>
      <trkpt lat="42.89708" lon="0.4993">
        <ele>1253.1</ele>
        <time>2017-07-13T06:24:17Z</time>
      </trkpt>
      <trkpt lat="42.89705" lon="0.49928">
        <ele>1252.9</ele>
        <time>2017-07-13T06:24:18Z</time>
      </trkpt>
      <trkpt lat="42.89703" lon="0.49926">
        <ele>1252.6</ele>
        <time>2017-07-13T06:24:19Z</time>
      </trkpt>
      <trkpt lat="42.897" lon="0.49925">
        <ele>1252.4</ele>
        <time>2017-07-13T06:24:20Z</time>
      </trkpt>
      <trkpt lat="42.89698" lon="0.49924">
        <ele>1252.1</ele>
        <time>2017-07-13T06:24:21Z</time>
      </trkpt>
      <trkpt lat="42.89695" lon="0.49922">
        <ele>1251.8</ele>
        <time>2017-07-13T06:24:22Z</time>
      </trkpt>
      <trkpt lat="42.89693" lon="0.49921">
        <ele>1251.5</ele>
        <time>2017-07-13T06:24:23Z</time>
      </trkpt>
      <trkpt lat="42.8969" lon="0.4992">
        <ele>1251.2</ele>
        <time>2017-07-13T06:24:24Z</time>
      </trkpt>
      <trkpt lat="42.89688" lon="0.49919">
        <ele>1250.8</ele>
        <time>2017-07-13T06:24:25Z</time>
      </trkpt>
      <trkpt lat="42.89685" lon="0.49917">
        <ele>1250.5</ele>
        <time>2017-07-13T06:24:26Z</time>
      </trkpt>
      <trkpt lat="42.89683" lon="0.49916">
        <ele>1250.3</ele>
        <time>2017-07-13T06:24:27Z</time>
      </trkpt>
      <trkpt lat="42.8968" lon="0.49915">
        <ele>1250.3</ele>
        <time>2017-07-13T06:24:28Z</time>
      </trkpt>
      <trkpt lat="42.89678" lon="0.49914">
        <ele>1250.3</ele>
        <time>2017-07-13T06:24:29Z</time>
      </trkpt>
      <trkpt lat="42.89675" lon="0.49913">
        <ele>1250.3</ele>
        <time>2017-07-13T06:24:30Z</time>
      </trkpt>
      <trkpt lat="42.89673" lon="0.49912">
        <ele>1250.4</ele>
        <time>2017-07-13T06:24:31Z</time>
      </trkpt>
      <trkpt lat="42.8967" lon="0.4991">
        <ele>1250.4</ele>
        <time>2017-07-13T06:24:32Z</time>
      </trkpt>
      <trkpt lat="42.89667" lon="0.49909">
        <ele>1250.5</ele>
        <time>2017-07-13T06:24:33Z</time>
      </trkpt>
      <trkpt lat="42.89665" lon="0.49908">
        <ele>1251</ele>
        <time>2017-07-13T06:24:34Z</time>
      </trkpt>
      <trkpt lat="42.89662" lon="0.49906">
        <ele>1251.6</ele>
        <time>2017-07-13T06:24:35Z</time>
      </trkpt>
      <trkpt lat="42.8966" lon="0.49905">
        <ele>1252.2</ele>
        <time>2017-07-13T06:24:36Z</time>
      </trkpt>
      <trkpt lat="42.89658" lon="0.49903">
        <ele>1252.8</ele>
        <time>2017-07-13T06:24:37Z</time>
      </trkpt>
      <trkpt lat="42.89655" lon="0.49902">
        <ele>1253.4</ele>
        <time>2017-07-13T06:24:38Z</time>
      </trkpt>
      <trkpt lat="42.89653" lon="0.499">
        <ele>1254.1</ele>
        <time>2017-07-13T06:24:39Z</time>
      </trkpt>
      <trkpt lat="42.89651" lon="0.49898">
        <ele>1254.7</ele>
        <time>2017-07-13T06:24:40Z</time>
      </trkpt>
      <trkpt lat="42.89649" lon="0.49896">
        <ele>1255.4</ele>
        <time>2017-07-13T06:24:41Z</time>
      </trkpt>
      <trkpt lat="42.89646" lon="0.49894">
        <ele>1256.1</ele>
        <time>2017-07-13T06:24:42Z</time>
      </trkpt>
      <trkpt lat="42.89644" lon="0.49891">
        <ele>1256.8</ele>
        <time>2017-07-13T06:24:43Z</time>
      </trkpt>
      <trkpt lat="42.89642" lon="0.49889">
        <ele>1257.5</ele>
        <time>2017-07-13T06:24:44Z</time>
      </trkpt>
      <trkpt lat="42.89641" lon="0.49887">
        <ele>1258.3</ele>
        <time>2017-07-13T06:24:45Z</time>
      </trkpt>
      <trkpt lat="42.89639" lon="0.49884">
        <ele>1259</ele>
        <time>2017-07-13T06:24:46Z</time>
      </trkpt>
      <trkpt lat="42.89637" lon="0.49881">
        <ele>1259.7</ele>
        <time>2017-07-13T06:24:47Z</time>
      </trkpt>
      <trkpt lat="42.89635" lon="0.49879">
        <ele>1260.5</ele>
        <time>2017-07-13T06:24:48Z</time>
      </trkpt>
      <trkpt lat="42.89633" lon="0.49876">
        <ele>1261.2</ele>
        <time>2017-07-13T06:24:49Z</time>
      </trkpt>
      <trkpt lat="42.89631" lon="0.49873">
        <ele>1261.8</ele>
        <time>2017-07-13T06:24:50Z</time>
      </trkpt>
      <trkpt lat="42.8963" lon="0.4987">
        <ele>1262.6</ele>
        <time>2017-07-13T06:24:51Z</time>
      </trkpt>
      <trkpt lat="42.89628" lon="0.49868">
        <ele>1263.2</ele>
        <time>2017-07-13T06:24:52Z</time>
      </trkpt>
      <trkpt lat="42.89626" lon="0.49865">
        <ele>1263.9</ele>
        <time>2017-07-13T06:24:53Z</time>
      </trkpt>
      <trkpt lat="42.89625" lon="0.49862">
        <ele>1264.5</ele>
        <time>2017-07-13T06:24:54Z</time>
      </trkpt>
      <trkpt lat="42.89623" lon="0.49859">
        <ele>1265</ele>
        <time>2017-07-13T06:24:55Z</time>
      </trkpt>
      <trkpt lat="42.89621" lon="0.49856">
        <ele>1265.6</ele>
        <time>2017-07-13T06:24:56Z</time>
      </trkpt>
      <trkpt lat="42.8962" lon="0.49853">
        <ele>1266.1</ele>
        <time>2017-07-13T06:24:57Z</time>
      </trkpt>
      <trkpt lat="42.89618" lon="0.4985">
        <ele>1266.5</ele>
        <time>2017-07-13T06:24:58Z</time>
      </trkpt>
      <trkpt lat="42.89616" lon="0.49848">
        <ele>1266.8</ele>
        <time>2017-07-13T06:24:59Z</time>
      </trkpt>
      <trkpt lat="42.89614" lon="0.49845">
        <ele>1267</ele>
        <time>2017-07-13T06:25:00Z</time>
      </trkpt>
      <trkpt lat="42.89612" lon="0.49843">
        <ele>1267.1</ele>
        <time>2017-07-13T06:25:01Z</time>
      </trkpt>
      <trkpt lat="42.8961" lon="0.49841">
        <ele>1267.2</ele>
        <time>2017-07-13T06:25:02Z</time>
      </trkpt>
      <trkpt lat="42.89608" lon="0.49839">
        <ele>1267.1</ele>
        <time>2017-07-13T06:25:03Z</time>
      </trkpt>
      <trkpt lat="42.89606" lon="0.49837">
        <ele>1267.1</ele>
        <time>2017-07-13T06:25:04Z</time>
      </trkpt>
      <trkpt lat="42.89604" lon="0.49836">
        <ele>1266.9</ele>
        <time>2017-07-13T06:25:05Z</time>
      </trkpt>
      <trkpt lat="42.89601" lon="0.49834">
        <ele>1266.6</ele>
        <time>2017-07-13T06:25:06Z</time>
      </trkpt>
      <trkpt lat="42.89599" lon="0.49832">
        <ele>1266.6</ele>
        <time>2017-07-13T06:25:07Z</time>
      </trkpt>
      <trkpt lat="42.89597" lon="0.49831">
        <ele>1266.6</ele>
        <time>2017-07-13T06:25:08Z</time>
      </trkpt>
      <trkpt lat="42.89594" lon="0.49829">
        <ele>1266.6</ele>
        <time>2017-07-13T06:25:09Z</time>
      </trkpt>
      <trkpt lat="42.89592" lon="0.49828">
        <ele>1266.6</ele>
        <time>2017-07-13T06:25:10Z</time>
      </trkpt>
      <trkpt lat="42.8959" lon="0.49826">
        <ele>1266.7</ele>
        <time>2017-07-13T06:25:11Z</time>
      </trkpt>
      <trkpt lat="42.89588" lon="0.49824">
        <ele>1266.8</ele>
        <time>2017-07-13T06:25:12Z</time>
      </trkpt>
      <trkpt lat="42.89585" lon="0.49822">
        <ele>1266.9</ele>
        <time>2017-07-13T06:25:13Z</time>
      </trkpt>
      <trkpt lat="42.89583" lon="0.4982">
        <ele>1267.2</ele>
        <time>2017-07-13T06:25:14Z</time>
      </trkpt>
      <trkpt lat="42.89581" lon="0.49817">
        <ele>1268</ele>
        <time>2017-07-13T06:25:15Z</time>
      </trkpt>
      <trkpt lat="42.89579" lon="0.49815">
        <ele>1268.8</ele>
        <time>2017-07-13T06:25:16Z</time>
      </trkpt>
      <trkpt lat="42.89577" lon="0.49812">
        <ele>1269.7</ele>
        <time>2017-07-13T06:25:17Z</time>
      </trkpt>
      <trkpt lat="42.89575" lon="0.49809">
        <ele>1270.5</ele>
        <time>2017-07-13T06:25:18Z</time>
      </trkpt>
      <trkpt lat="42.89573" lon="0.49806">
        <ele>1271.3</ele>
        <time>2017-07-13T06:25:19Z</time>
      </trkpt>
      <trkpt lat="42.89571" lon="0.49804">
        <ele>1272.1</ele>
        <time>2017-07-13T06:25:20Z</time>
      </trkpt>
      <trkpt lat="42.89569" lon="0.49801">
        <ele>1272.9</ele>
        <time>2017-07-13T06:25:21Z</time>
      </trkpt>
      <trkpt lat="42.89567" lon="0.49798">
        <ele>1273.7</ele>
        <time>2017-07-13T06:25:22Z</time>
      </trkpt>
      <trkpt lat="42.89566" lon="0.49795">
        <ele>1274.4</ele>
        <time>2017-07-13T06:25:23Z</time>
      </trkpt>
      <trkpt lat="42.89564" lon="0.49792">
        <ele>1275</ele>
        <time>2017-07-13T06:25:24Z</time>
      </trkpt>
      <trkpt lat="42.89561" lon="0.49789">
        <ele>1275.6</ele>
        <time>2017-07-13T06:25:25Z</time>
      </trkpt>
      <trkpt lat="42.89559" lon="0.49787">
        <ele>1276</ele>
        <time>2017-07-13T06:25:26Z</time>
      </trkpt>
      <trkpt lat="42.89557" lon="0.49784">
        <ele>1276.4</ele>
        <time>2017-07-13T06:25:27Z</time>
      </trkpt>
      <trkpt lat="42.89554" lon="0.49782">
        <ele>1276.7</ele>
        <time>2017-07-13T06:25:28Z</time>
      </trkpt>
      <trkpt lat="42.89551" lon="0.49779">
        <ele>1276.9</ele>
        <time>2017-07-13T06:25:29Z</time>
      </trkpt>
      <trkpt lat="42.89548" lon="0.49777">
        <ele>1277</ele>
        <time>2017-07-13T06:25:30Z</time>
      </trkpt>
      <trkpt lat="42.89545" lon="0.49775">
        <ele>1276.8</ele>
        <time>2017-07-13T06:25:31Z</time>
      </trkpt>
      <trkpt lat="42.89542" lon="0.49773">
        <ele>1276.6</ele>
        <time>2017-07-13T06:25:32Z</time>
      </trkpt>
      <trkpt lat="42.89538" lon="0.49772">
        <ele>1276.2</ele>
        <time>2017-07-13T06:25:33Z</time>
      </trkpt>
      <trkpt lat="42.89534" lon="0.49771">
        <ele>1275.6</ele>
        <time>2017-07-13T06:25:34Z</time>
      </trkpt>
      <trkpt lat="42.8953" lon="0.49771">
        <ele>1274.8</ele>
        <time>2017-07-13T06:25:35Z</time>
      </trkpt>
      <trkpt lat="42.89525" lon="0.49771">
        <ele>1273.8</ele>
        <time>2017-07-13T06:25:36Z</time>
      </trkpt>
      <trkpt lat="42.89521" lon="0.49772">
        <ele>1272.6</ele>
        <time>2017-07-13T06:25:37Z</time>
      </trkpt>
      <trkpt lat="42.89517" lon="0.49775">
        <ele>1271.3</ele>
        <time>2017-07-13T06:25:38Z</time>
      </trkpt>
      <trkpt lat="42.89512" lon="0.49778">
        <ele>1269.9</ele>
        <time>2017-07-13T06:25:39Z</time>
      </trkpt>
      <trkpt lat="42.89508" lon="0.49783">
        <ele>1268.4</ele>
        <time>2017-07-13T06:25:40Z</time>
      </trkpt>
      <trkpt lat="42.89504" lon="0.49788">
        <ele>1266.9</ele>
        <time>2017-07-13T06:25:41Z</time>
      </trkpt>
      <trkpt lat="42.895" lon="0.49795">
        <ele>1265.6</ele>
        <time>2017-07-13T06:25:42Z</time>
      </trkpt>
      <trkpt lat="42.89497" lon="0.49802">
        <ele>1266.1</ele>
        <time>2017-07-13T06:25:43Z</time>
      </trkpt>
      <trkpt lat="42.89495" lon="0.49809">
        <ele>1266.4</ele>
        <time>2017-07-13T06:25:44Z</time>
      </trkpt>
      <trkpt lat="42.89494" lon="0.49817">
        <ele>1266.2</ele>
        <time>2017-07-13T06:25:45Z</time>
      </trkpt>
      <trkpt lat="42.89494" lon="0.49825">
        <ele>1265.6</ele>
        <time>2017-07-13T06:25:46Z</time>
      </trkpt>
      <trkpt lat="42.89494" lon="0.49832">
        <ele>1264.7</ele>
        <time>2017-07-13T06:25:47Z</time>
      </trkpt>
      <trkpt lat="42.89495" lon="0.49838">
        <ele>1265.2</ele>
        <time>2017-07-13T06:25:48Z</time>
      </trkpt>
      <trkpt lat="42.89496" lon="0.49843">
        <ele>1265.7</ele>
        <time>2017-07-13T06:25:49Z</time>
      </trkpt>
      <trkpt lat="42.89497" lon="0.49847">
        <ele>1265.9</ele>
        <time>2017-07-13T06:25:50Z</time>
      </trkpt>
      <trkpt lat="42.89499" lon="0.49852">
        <ele>1266.1</ele>
        <time>2017-07-13T06:25:51Z</time>
      </trkpt>
      <trkpt lat="42.895" lon="0.49856">
        <ele>1266.4</ele>
        <time>2017-07-13T06:25:52Z</time>
      </trkpt>
      <trkpt lat="42.89502" lon="0.4986">
        <ele>1267.3</ele>
        <time>2017-07-13T06:25:53Z</time>
      </trkpt>
      <trkpt lat="42.89504" lon="0.49865">
        <ele>1268</ele>
        <time>2017-07-13T06:25:54Z</time>
      </trkpt>
      <trkpt lat="42.89506" lon="0.49869">
        <ele>1268.6</ele>
        <time>2017-07-13T06:25:55Z</time>
      </trkpt>
      <trkpt lat="42.89507" lon="0.49873">
        <ele>1269.2</ele>
        <time>2017-07-13T06:25:56Z</time>
      </trkpt>
      <trkpt lat="42.89509" lon="0.49877">
        <ele>1269.7</ele>
        <time>2017-07-13T06:25:57Z</time>
      </trkpt>
      <trkpt lat="42.89511" lon="0.49881">
        <ele>1270.1</ele>
        <time>2017-07-13T06:25:58Z</time>
      </trkpt>
      <trkpt lat="42.89512" lon="0.49885">
        <ele>1270.4</ele>
        <time>2017-07-13T06:25:59Z</time>
      </trkpt>
      <trkpt lat="42.89514" lon="0.49888">
        <ele>1270.7</ele>
        <time>2017-07-13T06:26:00Z</time>
      </trkpt>
      <trkpt lat="42.89516" lon="0.49892">
        <ele>1270.9</ele>
        <time>2017-07-13T06:26:01Z</time>
      </trkpt>
      <trkpt lat="42.89518" lon="0.49896">
        <ele>1271.1</ele>
        <time>2017-07-13T06:26:02Z</time>
      </trkpt>
      <trkpt lat="42.89519" lon="0.499">
        <ele>1271.1</ele>
        <time>2017-07-13T06:26:03Z</time>
      </trkpt>
      <trkpt lat="42.89521" lon="0.49904">
        <ele>1271.1</ele>
        <time>2017-07-13T06:26:04Z</time>
      </trkpt>
      <trkpt lat="42.89523" lon="0.49907">
        <ele>1271</ele>
        <time>2017-07-13T06:26:05Z</time>
      </trkpt>
      <trkpt lat="42.89525" lon="0.49911">
        <ele>1270.9</ele>
        <time>2017-07-13T06:26:06Z</time>
      </trkpt>
      <trkpt lat="42.89526" lon="0.49915">
        <ele>1270.7</ele>
        <time>2017-07-13T06:26:07Z</time>
      </trkpt>
      <trkpt lat="42.89528" lon="0.49919">
        <ele>1270.9</ele>
        <time>2017-07-13T06:26:08Z</time>
      </trkpt>
      <trkpt lat="42.8953" lon="0.49922">
        <ele>1271.5</ele>
        <time>2017-07-13T06:26:09Z</time>
      </trkpt>
      <trkpt lat="42.89532" lon="0.49926">
        <ele>1272</ele>
        <time>2017-07-13T06:26:10Z</time>
      </trkpt>
      <trkpt lat="42.89533" lon="0.4993">
        <ele>1272.5</ele>
        <time>2017-07-13T06:26:11Z</time>
      </trkpt>
      <trkpt lat="42.89535" lon="0.49934">
        <ele>1273</ele>
        <time>2017-07-13T06:26:12Z</time>
      </trkpt>
      <trkpt lat="42.89537" lon="0.49937">
        <ele>1273.4</ele>
        <time>2017-07-13T06:26:13Z</time>
      </trkpt>
      <trkpt lat="42.89539" lon="0.49941">
        <ele>1273.8</ele>
        <time>2017-07-13T06:26:14Z</time>
      </trkpt>
      <trkpt lat="42.8954" lon="0.49945">
        <ele>1274.3</ele>
        <time>2017-07-13T06:26:15Z</time>
      </trkpt>
      <trkpt lat="42.89542" lon="0.49949">
        <ele>1274.6</ele>
        <time>2017-07-13T06:26:16Z</time>
      </trkpt>
      <trkpt lat="42.89544" lon="0.49953">
        <ele>1275</ele>
        <time>2017-07-13T06:26:17Z</time>
      </trkpt>
      <trkpt lat="42.89546" lon="0.49957">
        <ele>1275.3</ele>
        <time>2017-07-13T06:26:18Z</time>
      </trkpt>
      <trkpt lat="42.89548" lon="0.4996">
        <ele>1275.6</ele>
        <time>2017-07-13T06:26:19Z</time>
      </trkpt>
      <trkpt lat="42.8955" lon="0.49964">
        <ele>1275.9</ele>
        <time>2017-07-13T06:26:20Z</time>
      </trkpt>
      <trkpt lat="42.89551" lon="0.49968">
        <ele>1276.2</ele>
        <time>2017-07-13T06:26:21Z</time>
      </trkpt>
      <trkpt lat="42.89553" lon="0.49972">
        <ele>1276.4</ele>
        <time>2017-07-13T06:26:22Z</time>
      </trkpt>
      <trkpt lat="42.89555" lon="0.49976">
        <ele>1276.6</ele>
        <time>2017-07-13T06:26:23Z</time>
      </trkpt>
      <trkpt lat="42.89557" lon="0.4998">
        <ele>1276.8</ele>
        <time>2017-07-13T06:26:24Z</time>
      </trkpt>
      <trkpt lat="42.89559" lon="0.49984">
        <ele>1276.8</ele>
        <time>2017-07-13T06:26:25Z</time>
      </trkpt>
      <trkpt lat="42.89562" lon="0.49988">
        <ele>1276.9</ele>
        <time>2017-07-13T06:26:26Z</time>
      </trkpt>
      <trkpt lat="42.89564" lon="0.49991">
        <ele>1276.7</ele>
        <time>2017-07-13T06:26:27Z</time>
      </trkpt>
      <trkpt lat="42.89566" lon="0.49995">
        <ele>1276.5</ele>
        <time>2017-07-13T06:26:28Z</time>
      </trkpt>
      <trkpt lat="42.89569" lon="0.49998">
        <ele>1276.1</ele>
        <time>2017-07-13T06:26:29Z</time>
      </trkpt>
      <trkpt lat="42.89571" lon="0.50001">
        <ele>1275.7</ele>
        <time>2017-07-13T06:26:30Z</time>
      </trkpt>
      <trkpt lat="42.89574" lon="0.50005">
        <ele>1275.3</ele>
        <time>2017-07-13T06:26:31Z</time>
      </trkpt>
      <trkpt lat="42.89576" lon="0.50008">
        <ele>1274.8</ele>
        <time>2017-07-13T06:26:32Z</time>
      </trkpt>
      <trkpt lat="42.89579" lon="0.50011">
        <ele>1274.4</ele>
        <time>2017-07-13T06:26:33Z</time>
      </trkpt>
      <trkpt lat="42.89582" lon="0.50014">
        <ele>1274</ele>
        <time>2017-07-13T06:26:34Z</time>
      </trkpt>
      <trkpt lat="42.89584" lon="0.50017">
        <ele>1273.6</ele>
        <time>2017-07-13T06:26:35Z</time>
      </trkpt>
      <trkpt lat="42.89587" lon="0.5002">
        <ele>1273.4</ele>
        <time>2017-07-13T06:26:36Z</time>
      </trkpt>
      <trkpt lat="42.89589" lon="0.50023">
        <ele>1273.3</ele>
        <time>2017-07-13T06:26:37Z</time>
      </trkpt>
      <trkpt lat="42.89592" lon="0.50026">
        <ele>1273.1</ele>
        <time>2017-07-13T06:26:38Z</time>
      </trkpt>
      <trkpt lat="42.89594" lon="0.5003">
        <ele>1273.1</ele>
        <time>2017-07-13T06:26:39Z</time>
      </trkpt>
      <trkpt lat="42.89596" lon="0.50033">
        <ele>1273.1</ele>
        <time>2017-07-13T06:26:40Z</time>
      </trkpt>
      <trkpt lat="42.89598" lon="0.50037">
        <ele>1273.2</ele>
        <time>2017-07-13T06:26:41Z</time>
      </trkpt>
      <trkpt lat="42.89599" lon="0.50041">
        <ele>1273.4</ele>
        <time>2017-07-13T06:26:42Z</time>
      </trkpt>
      <trkpt lat="42.89601" lon="0.50045">
        <ele>1273.7</ele>
        <time>2017-07-13T06:26:43Z</time>
      </trkpt>
      <trkpt lat="42.89602" lon="0.50049">
        <ele>1274.1</ele>
        <time>2017-07-13T06:26:44Z</time>
      </trkpt>
      <trkpt lat="42.89603" lon="0.50053">
        <ele>1274.5</ele>
        <time>2017-07-13T06:26:45Z</time>
      </trkpt>
      <trkpt lat="42.89604" lon="0.50057">
        <ele>1274.9</ele>
        <time>2017-07-13T06:26:46Z</time>
      </trkpt>
      <trkpt lat="42.89605" lon="0.50062">
        <ele>1275.4</ele>
        <time>2017-07-13T06:26:47Z</time>
      </trkpt>
      <trkpt lat="42.89606" lon="0.50066">
        <ele>1275.8</ele>
        <time>2017-07-13T06:26:48Z</time>
      </trkpt>
      <trkpt lat="42.89607" lon="0.50071">
        <ele>1276.2</ele>
        <time>2017-07-13T06:26:49Z</time>
      </trkpt>
      <trkpt lat="42.89608" lon="0.50075">
        <ele>1276.5</ele>
        <time>2017-07-13T06:26:50Z</time>
      </trkpt>
      <trkpt lat="42.8961" lon="0.50079">
        <ele>1276.7</ele>
        <time>2017-07-13T06:26:51Z</time>
      </trkpt>
      <trkpt lat="42.89611" lon="0.50083">
        <ele>1276.9</ele>
        <time>2017-07-13T06:26:52Z</time>
      </trkpt>
      <trkpt lat="42.89612" lon="0.50087">
        <ele>1276.6</ele>
        <time>2017-07-13T06:26:53Z</time>
      </trkpt>
      <trkpt lat="42.89613" lon="0.50091">
        <ele>1276.2</ele>
        <time>2017-07-13T06:26:54Z</time>
      </trkpt>
      <trkpt lat="42.89615" lon="0.50095">
        <ele>1275.8</ele>
        <time>2017-07-13T06:26:55Z</time>
      </trkpt>
      <trkpt lat="42.89616" lon="0.50099">
        <ele>1275.3</ele>
        <time>2017-07-13T06:26:56Z</time>
      </trkpt>
      <trkpt lat="42.89618" lon="0.50103">
        <ele>1274.8</ele>
        <time>2017-07-13T06:26:57Z</time>
      </trkpt>
      <trkpt lat="42.89619" lon="0.50107">
        <ele>1274.4</ele>
        <time>2017-07-13T06:26:58Z</time>
      </trkpt>
      <trkpt lat="42.89621" lon="0.50111">
        <ele>1273.9</ele>
        <time>2017-07-13T06:26:59Z</time>
      </trkpt>
      <trkpt lat="42.89622" lon="0.50115">
        <ele>1273.6</ele>
        <time>2017-07-13T06:27:00Z</time>
      </trkpt>
      <trkpt lat="42.89624" lon="0.50119">
        <ele>1273.3</ele>
        <time>2017-07-13T06:27:01Z</time>
      </trkpt>
      <trkpt lat="42.89625" lon="0.50123">
        <ele>1273</ele>
        <time>2017-07-13T06:27:02Z</time>
      </trkpt>
      <trkpt lat="42.89626" lon="0.50127">
        <ele>1272.9</ele>
        <time>2017-07-13T06:27:03Z</time>
      </trkpt>
      <trkpt lat="42.89627" lon="0.50131">
        <ele>1272.7</ele>
        <time>2017-07-13T06:27:04Z</time>
      </trkpt>
      <trkpt lat="42.89628" lon="0.50135">
        <ele>1272.7</ele>
        <time>2017-07-13T06:27:05Z</time>
      </trkpt>
      <trkpt lat="42.89629" lon="0.50139">
        <ele>1272.8</ele>
        <time>2017-07-13T06:27:06Z</time>
      </trkpt>
      <trkpt lat="42.8963" lon="0.50143">
        <ele>1272.9</ele>
        <time>2017-07-13T06:27:07Z</time>
      </trkpt>
      <trkpt lat="42.8963" lon="0.50147">
        <ele>1273.1</ele>
        <time>2017-07-13T06:27:08Z</time>
      </trkpt>
      <trkpt lat="42.89631" lon="0.50151">
        <ele>1273.3</ele>
        <time>2017-07-13T06:27:09Z</time>
      </trkpt>
      <trkpt lat="42.89631" lon="0.50155">
        <ele>1273.6</ele>
        <time>2017-07-13T06:27:10Z</time>
      </trkpt>
      <trkpt lat="42.89632" lon="0.50159">
        <ele>1274</ele>
        <time>2017-07-13T06:27:11Z</time>
      </trkpt>
      <trkpt lat="42.89632" lon="0.50163">
        <ele>1274.5</ele>
        <time>2017-07-13T06:27:12Z</time>
      </trkpt>
      <trkpt lat="42.89632" lon="0.50167">
        <ele>1274.9</ele>
        <time>2017-07-13T06:27:13Z</time>
      </trkpt>
      <trkpt lat="42.89631" lon="0.50171">
        <ele>1274.9</ele>
        <time>2017-07-13T06:27:14Z</time>
      </trkpt>
      <trkpt lat="42.89631" lon="0.50175">
        <ele>1274.9</ele>
        <time>2017-07-13T06:27:15Z</time>
      </trkpt>
      <trkpt lat="42.89631" lon="0.50179">
        <ele>1275</ele>
        <time>2017-07-13T06:27:16Z</time>
      </trkpt>
      <trkpt lat="42.8963" lon="0.50182">
        <ele>1275.1</ele>
        <time>2017-07-13T06:27:17Z</time>
      </trkpt>
      <trkpt lat="42.8963" lon="0.50186">
        <ele>1275.3</ele>
        <time>2017-07-13T06:27:18Z</time>
      </trkpt>
      <trkpt lat="42.89629" lon="0.50189">
        <ele>1275.6</ele>
        <time>2017-07-13T06:27:19Z</time>
      </trkpt>
      <trkpt lat="42.89628" lon="0.50193">
        <ele>1275.9</ele>
        <time>2017-07-13T06:27:20Z</time>
      </trkpt>
      <trkpt lat="42.89627" lon="0.50196">
        <ele>1276.2</ele>
        <time>2017-07-13T06:27:21Z</time>
      </trkpt>
      <trkpt lat="42.89626" lon="0.50199">
        <ele>1276.6</ele>
        <time>2017-07-13T06:27:22Z</time>
      </trkpt>
      <trkpt lat="42.89624" lon="0.50203">
        <ele>1277.1</ele>
        <time>2017-07-13T06:27:23Z</time>
      </trkpt>
      <trkpt lat="42.89623" lon="0.50206">
        <ele>1277.5</ele>
        <time>2017-07-13T06:27:24Z</time>
      </trkpt>
      <trkpt lat="42.89622" lon="0.50209">
        <ele>1278</ele>
        <time>2017-07-13T06:27:25Z</time>
      </trkpt>
      <trkpt lat="42.8962" lon="0.50211">
        <ele>1278.6</ele>
        <time>2017-07-13T06:27:26Z</time>
      </trkpt>
      <trkpt lat="42.89618" lon="0.50214">
        <ele>1279.2</ele>
        <time>2017-07-13T06:27:27Z</time>
      </trkpt>
      <trkpt lat="42.89616" lon="0.50217">
        <ele>1279.8</ele>
        <time>2017-07-13T06:27:28Z</time>
      </trkpt>
      <trkpt lat="42.89614" lon="0.50219">
        <ele>1280.5</ele>
        <time>2017-07-13T06:27:29Z</time>
      </trkpt>
      <trkpt lat="42.89612" lon="0.50222">
        <ele>1281.2</ele>
        <time>2017-07-13T06:27:30Z</time>
      </trkpt>
      <trkpt lat="42.8961" lon="0.50225">
        <ele>1281.9</ele>
        <time>2017-07-13T06:27:31Z</time>
      </trkpt>
      <trkpt lat="42.89607" lon="0.50227">
        <ele>1282.7</ele>
        <time>2017-07-13T06:27:32Z</time>
      </trkpt>
      <trkpt lat="42.89605" lon="0.5023">
        <ele>1283.5</ele>
        <time>2017-07-13T06:27:33Z</time>
      </trkpt>
      <trkpt lat="42.89602" lon="0.50233">
        <ele>1284.3</ele>
        <time>2017-07-13T06:27:34Z</time>
      </trkpt>
      <trkpt lat="42.89599" lon="0.50236">
        <ele>1285.1</ele>
        <time>2017-07-13T06:27:35Z</time>
      </trkpt>
      <trkpt lat="42.89596" lon="0.50239">
        <ele>1285.8</ele>
        <time>2017-07-13T06:27:36Z</time>
      </trkpt>
      <trkpt lat="42.89593" lon="0.50243">
        <ele>1286.4</ele>
        <time>2017-07-13T06:27:37Z</time>
      </trkpt>
      <trkpt lat="42.89591" lon="0.50246">
        <ele>1286.9</ele>
        <time>2017-07-13T06:27:38Z</time>
      </trkpt>
      <trkpt lat="42.89588" lon="0.5025">
        <ele>1287.3</ele>
        <time>2017-07-13T06:27:39Z</time>
      </trkpt>
      <trkpt lat="42.89586" lon="0.50254">
        <ele>1287.2</ele>
        <time>2017-07-13T06:27:40Z</time>
      </trkpt>
      <trkpt lat="42.89584" lon="0.50258">
        <ele>1287</ele>
        <time>2017-07-13T06:27:41Z</time>
      </trkpt>
      <trkpt lat="42.89582" lon="0.50262">
        <ele>1286.6</ele>
        <time>2017-07-13T06:27:42Z</time>
      </trkpt>
      <trkpt lat="42.89581" lon="0.50267">
        <ele>1286.3</ele>
        <time>2017-07-13T06:27:43Z</time>
      </trkpt>
      <trkpt lat="42.89579" lon="0.50272">
        <ele>1285.8</ele>
        <time>2017-07-13T06:27:44Z</time>
      </trkpt>
      <trkpt lat="42.89578" lon="0.50276">
        <ele>1285.4</ele>
        <time>2017-07-13T06:27:45Z</time>
      </trkpt>
      <trkpt lat="42.89576" lon="0.50281">
        <ele>1284.8</ele>
        <time>2017-07-13T06:27:46Z</time>
      </trkpt>
      <trkpt lat="42.89575" lon="0.50286">
        <ele>1284.3</ele>
        <time>2017-07-13T06:27:47Z</time>
      </trkpt>
      <trkpt lat="42.89574" lon="0.50291">
        <ele>1283.8</ele>
        <time>2017-07-13T06:27:48Z</time>
      </trkpt>
      <trkpt lat="42.89573" lon="0.50296">
        <ele>1283.2</ele>
        <time>2017-07-13T06:27:49Z</time>
      </trkpt>
      <trkpt lat="42.89571" lon="0.50301">
        <ele>1282.7</ele>
        <time>2017-07-13T06:27:50Z</time>
      </trkpt>
      <trkpt lat="42.8957" lon="0.50305">
        <ele>1282.2</ele>
        <time>2017-07-13T06:27:51Z</time>
      </trkpt>
      <trkpt lat="42.89569" lon="0.5031">
        <ele>1281.8</ele>
        <time>2017-07-13T06:27:52Z</time>
      </trkpt>
      <trkpt lat="42.89568" lon="0.50315">
        <ele>1281.3</ele>
        <time>2017-07-13T06:27:53Z</time>
      </trkpt>
      <trkpt lat="42.89567" lon="0.5032">
        <ele>1280.8</ele>
        <time>2017-07-13T06:27:54Z</time>
      </trkpt>
      <trkpt lat="42.89566" lon="0.50324">
        <ele>1280.3</ele>
        <time>2017-07-13T06:27:55Z</time>
      </trkpt>
      <trkpt lat="42.89565" lon="0.50329">
        <ele>1279.7</ele>
        <time>2017-07-13T06:27:56Z</time>
      </trkpt>
      <trkpt lat="42.89565" lon="0.50334">
        <ele>1279</ele>
        <time>2017-07-13T06:27:57Z</time>
      </trkpt>
      <trkpt lat="42.89565" lon="0.50338">
        <ele>1278.5</ele>
        <time>2017-07-13T06:27:58Z</time>
      </trkpt>
      <trkpt lat="42.89565" lon="0.50343">
        <ele>1278</ele>
        <time>2017-07-13T06:27:59Z</time>
      </trkpt>
      <trkpt lat="42.89565" lon="0.50348">
        <ele>1277.3</ele>
        <time>2017-07-13T06:28:00Z</time>
      </trkpt>
      <trkpt lat="42.89566" lon="0.50353">
        <ele>1276.7</ele>
        <time>2017-07-13T06:28:01Z</time>
      </trkpt>
      <trkpt lat="42.89566" lon="0.50358">
        <ele>1276.1</ele>
        <time>2017-07-13T06:28:02Z</time>
      </trkpt>
      <trkpt lat="42.89566" lon="0.50363">
        <ele>1275.6</ele>
        <time>2017-07-13T06:28:03Z</time>
      </trkpt>
      <trkpt lat="42.89566" lon="0.50367">
        <ele>1275.2</ele>
        <time>2017-07-13T06:28:04Z</time>
      </trkpt>
      <trkpt lat="42.89566" lon="0.50372">
        <ele>1274.8</ele>
        <time>2017-07-13T06:28:05Z</time>
      </trkpt>
      <trkpt lat="42.89566" lon="0.50377">
        <ele>1274.6</ele>
        <time>2017-07-13T06:28:06Z</time>
      </trkpt>
      <trkpt lat="42.89565" lon="0.50381">
        <ele>1274.4</ele>
        <time>2017-07-13T06:28:07Z</time>
      </trkpt>
      <trkpt lat="42.89564" lon="0.50386">
        <ele>1274.3</ele>
        <time>2017-07-13T06:28:08Z</time>
      </trkpt>
      <trkpt lat="42.89563" lon="0.5039">
        <ele>1274.2</ele>
        <time>2017-07-13T06:28:09Z</time>
      </trkpt>
      <trkpt lat="42.89562" lon="0.50394">
        <ele>1274.1</ele>
        <time>2017-07-13T06:28:10Z</time>
      </trkpt>
      <trkpt lat="42.89561" lon="0.50398">
        <ele>1274.2</ele>
        <time>2017-07-13T06:28:11Z</time>
      </trkpt>
      <trkpt lat="42.8956" lon="0.50401">
        <ele>1274.2</ele>
        <time>2017-07-13T06:28:12Z</time>
      </trkpt>
      <trkpt lat="42.89559" lon="0.50405">
        <ele>1274.3</ele>
        <time>2017-07-13T06:28:13Z</time>
      </trkpt>
      <trkpt lat="42.89557" lon="0.50408">
        <ele>1274.5</ele>
        <time>2017-07-13T06:28:14Z</time>
      </trkpt>
      <trkpt lat="42.89555" lon="0.50411">
        <ele>1274.7</ele>
        <time>2017-07-13T06:28:15Z</time>
      </trkpt>
      <trkpt lat="42.89553" lon="0.50415">
        <ele>1275</ele>
        <time>2017-07-13T06:28:16Z</time>
      </trkpt>
      <trkpt lat="42.89551" lon="0.50419">
        <ele>1275.2</ele>
        <time>2017-07-13T06:28:17Z</time>
      </trkpt>
      <trkpt lat="42.89548" lon="0.50423">
        <ele>1275.4</ele>
        <time>2017-07-13T06:28:18Z</time>
      </trkpt>
      <trkpt lat="42.89544" lon="0.50428">
        <ele>1275.8</ele>
        <time>2017-07-13T06:28:19Z</time>
      </trkpt>
      <trkpt lat="42.89539" lon="0.50433">
        <ele>1276.3</ele>
        <time>2017-07-13T06:28:20Z</time>
      </trkpt>
      <trkpt lat="42.89533" lon="0.50438">
        <ele>1277.1</ele>
        <time>2017-07-13T06:28:21Z</time>
      </trkpt>
      <trkpt lat="42.89528" lon="0.50444">
        <ele>1277.8</ele>
        <time>2017-07-13T06:28:22Z</time>
      </trkpt>
      <trkpt lat="42.89524" lon="0.50448">
        <ele>1278.2</ele>
        <time>2017-07-13T06:28:23Z</time>
      </trkpt>
      <trkpt lat="42.89521" lon="0.50451">
        <ele>1278.5</ele>
        <time>2017-07-13T06:28:24Z</time>
      </trkpt>
      <trkpt lat="42.89517" lon="0.50454">
        <ele>1278.8</ele>
        <time>2017-07-13T06:28:25Z</time>
      </trkpt>
      <trkpt lat="42.89514" lon="0.50457">
        <ele>1279.2</ele>
        <time>2017-07-13T06:28:26Z</time>
      </trkpt>
      <trkpt lat="42.89511" lon="0.5046">
        <ele>1279.6</ele>
        <time>2017-07-13T06:28:27Z</time>
      </trkpt>
      <trkpt lat="42.89508" lon="0.50462">
        <ele>1280</ele>
        <time>2017-07-13T06:28:28Z</time>
      </trkpt>
      <trkpt lat="42.89505" lon="0.50464">
        <ele>1280.4</ele>
        <time>2017-07-13T06:28:29Z</time>
      </trkpt>
      <trkpt lat="42.89502" lon="0.50466">
        <ele>1280.8</ele>
        <time>2017-07-13T06:28:30Z</time>
      </trkpt>
      <trkpt lat="42.89499" lon="0.50468">
        <ele>1281.1</ele>
        <time>2017-07-13T06:28:31Z</time>
      </trkpt>
      <trkpt lat="42.89496" lon="0.5047">
        <ele>1281</ele>
        <time>2017-07-13T06:28:32Z</time>
      </trkpt>
      <trkpt lat="42.89493" lon="0.50471">
        <ele>1280.9</ele>
        <time>2017-07-13T06:28:33Z</time>
      </trkpt>
      <trkpt lat="42.8949" lon="0.50473">
        <ele>1280.8</ele>
        <time>2017-07-13T06:28:34Z</time>
      </trkpt>
      <trkpt lat="42.89487" lon="0.50474">
        <ele>1280.8</ele>
        <time>2017-07-13T06:28:35Z</time>
      </trkpt>
      <trkpt lat="42.89484" lon="0.50476">
        <ele>1280.8</ele>
        <time>2017-07-13T06:28:36Z</time>
      </trkpt>
      <trkpt lat="42.89481" lon="0.50477">
        <ele>1280.8</ele>
        <time>2017-07-13T06:28:37Z</time>
      </trkpt>
      <trkpt lat="42.89478" lon="0.50478">
        <ele>1280.8</ele>
        <time>2017-07-13T06:28:38Z</time>
      </trkpt>
      <trkpt lat="42.89475" lon="0.50479">
        <ele>1280.8</ele>
        <time>2017-07-13T06:28:39Z</time>
      </trkpt>
      <trkpt lat="42.89473" lon="0.5048">
        <ele>1280.9</ele>
        <time>2017-07-13T06:28:40Z</time>
      </trkpt>
      <trkpt lat="42.8947" lon="0.50481">
        <ele>1281</ele>
        <time>2017-07-13T06:28:41Z</time>
      </trkpt>
      <trkpt lat="42.89467" lon="0.50481">
        <ele>1281.1</ele>
        <time>2017-07-13T06:28:42Z</time>
      </trkpt>
      <trkpt lat="42.89464" lon="0.50481">
        <ele>1281.3</ele>
        <time>2017-07-13T06:28:43Z</time>
      </trkpt>
      <trkpt lat="42.89462" lon="0.50481">
        <ele>1281.6</ele>
        <time>2017-07-13T06:28:44Z</time>
      </trkpt>
      <trkpt lat="42.89459" lon="0.50481">
        <ele>1281.8</ele>
        <time>2017-07-13T06:28:45Z</time>
      </trkpt>
      <trkpt lat="42.89456" lon="0.50481">
        <ele>1282</ele>
        <time>2017-07-13T06:28:46Z</time>
      </trkpt>
      <trkpt lat="42.89454" lon="0.50481">
        <ele>1282.3</ele>
        <time>2017-07-13T06:28:47Z</time>
      </trkpt>
      <trkpt lat="42.89451" lon="0.50481">
        <ele>1282.5</ele>
        <time>2017-07-13T06:28:48Z</time>
      </trkpt>
      <trkpt lat="42.89448" lon="0.50481">
        <ele>1282.7</ele>
        <time>2017-07-13T06:28:49Z</time>
      </trkpt>
      <trkpt lat="42.89445" lon="0.50482">
        <ele>1282.9</ele>
        <time>2017-07-13T06:28:50Z</time>
      </trkpt>
      <trkpt lat="42.89442" lon="0.50482">
        <ele>1283.1</ele>
        <time>2017-07-13T06:28:51Z</time>
      </trkpt>
      <trkpt lat="42.89439" lon="0.50483">
        <ele>1283.1</ele>
        <time>2017-07-13T06:28:52Z</time>
      </trkpt>
      <trkpt lat="42.89436" lon="0.50484">
        <ele>1283.1</ele>
        <time>2017-07-13T06:28:53Z</time>
      </trkpt>
      <trkpt lat="42.89433" lon="0.50485">
        <ele>1283</ele>
        <time>2017-07-13T06:28:54Z</time>
      </trkpt>
      <trkpt lat="42.89429" lon="0.50487">
        <ele>1282.9</ele>
        <time>2017-07-13T06:28:55Z</time>
      </trkpt>
      <trkpt lat="42.89425" lon="0.50488">
        <ele>1282.8</ele>
        <time>2017-07-13T06:28:56Z</time>
      </trkpt>
      <trkpt lat="42.89422" lon="0.50489">
        <ele>1282.9</ele>
        <time>2017-07-13T06:28:57Z</time>
      </trkpt>
      <trkpt lat="42.89419" lon="0.50488">
        <ele>1283.5</ele>
        <time>2017-07-13T06:28:58Z</time>
      </trkpt>
      <trkpt lat="42.89418" lon="0.50484">
        <ele>1284.6</ele>
        <time>2017-07-13T06:28:59Z</time>
      </trkpt>
      <trkpt lat="42.89417" lon="0.5048">
        <ele>1286</ele>
        <time>2017-07-13T06:29:00Z</time>
      </trkpt>
      <trkpt lat="42.89418" lon="0.50476">
        <ele>1287.2</ele>
        <time>2017-07-13T06:29:01Z</time>
      </trkpt>
      <trkpt lat="42.8942" lon="0.50473">
        <ele>1287.7</ele>
        <time>2017-07-13T06:29:02Z</time>
      </trkpt>
      <trkpt lat="42.89423" lon="0.50472">
        <ele>1287.8</ele>
        <time>2017-07-13T06:29:03Z</time>
      </trkpt>
      <trkpt lat="42.89426" lon="0.50471">
        <ele>1287.8</ele>
        <time>2017-07-13T06:29:04Z</time>
      </trkpt>
      <trkpt lat="42.89428" lon="0.5047">
        <ele>1287.7</ele>
        <time>2017-07-13T06:29:05Z</time>
      </trkpt>
      <trkpt lat="42.89431" lon="0.50469">
        <ele>1287.8</ele>
        <time>2017-07-13T06:29:06Z</time>
      </trkpt>
      <trkpt lat="42.89433" lon="0.50468">
        <ele>1288</ele>
        <time>2017-07-13T06:29:07Z</time>
      </trkpt>
      <trkpt lat="42.89436" lon="0.50466">
        <ele>1288.1</ele>
        <time>2017-07-13T06:29:08Z</time>
      </trkpt>
      <trkpt lat="42.89438" lon="0.50465">
        <ele>1288.3</ele>
        <time>2017-07-13T06:29:09Z</time>
      </trkpt>
      <trkpt lat="42.89441" lon="0.50463">
        <ele>1288.5</ele>
        <time>2017-07-13T06:29:10Z</time>
      </trkpt>
      <trkpt lat="42.89443" lon="0.50461">
        <ele>1288.7</ele>
        <time>2017-07-13T06:29:11Z</time>
      </trkpt>
      <trkpt lat="42.89446" lon="0.50459">
        <ele>1288.9</ele>
        <time>2017-07-13T06:29:12Z</time>
      </trkpt>
      <trkpt lat="42.89448" lon="0.50457">
        <ele>1289.2</ele>
        <time>2017-07-13T06:29:13Z</time>
      </trkpt>
      <trkpt lat="42.89451" lon="0.50455">
        <ele>1289.4</ele>
        <time>2017-07-13T06:29:14Z</time>
      </trkpt>
      <trkpt lat="42.89454" lon="0.50453">
        <ele>1289.7</ele>
        <time>2017-07-13T06:29:15Z</time>
      </trkpt>
      <trkpt lat="42.89456" lon="0.50451">
        <ele>1289.9</ele>
        <time>2017-07-13T06:29:16Z</time>
      </trkpt>
      <trkpt lat="42.89459" lon="0.50449">
        <ele>1290.2</ele>
        <time>2017-07-13T06:29:17Z</time>
      </trkpt>
      <trkpt lat="42.89461" lon="0.50446">
        <ele>1290.5</ele>
        <time>2017-07-13T06:29:18Z</time>
      </trkpt>
      <trkpt lat="42.89464" lon="0.50444">
        <ele>1290.8</ele>
        <time>2017-07-13T06:29:19Z</time>
      </trkpt>
      <trkpt lat="42.89466" lon="0.50441">
        <ele>1291.1</ele>
        <time>2017-07-13T06:29:20Z</time>
      </trkpt>
      <trkpt lat="42.89469" lon="0.50439">
        <ele>1291.4</ele>
        <time>2017-07-13T06:29:21Z</time>
      </trkpt>
      <trkpt lat="42.89471" lon="0.50436">
        <ele>1291.7</ele>
        <time>2017-07-13T06:29:22Z</time>
      </trkpt>
      <trkpt lat="42.89473" lon="0.50434">
        <ele>1292</ele>
        <time>2017-07-13T06:29:23Z</time>
      </trkpt>
      <trkpt lat="42.89475" lon="0.50431">
        <ele>1292.4</ele>
        <time>2017-07-13T06:29:24Z</time>
      </trkpt>
      <trkpt lat="42.89477" lon="0.50429">
        <ele>1292.6</ele>
        <time>2017-07-13T06:29:25Z</time>
      </trkpt>
      <trkpt lat="42.8948" lon="0.50426">
        <ele>1292.9</ele>
        <time>2017-07-13T06:29:26Z</time>
      </trkpt>
      <trkpt lat="42.89482" lon="0.50424">
        <ele>1293.2</ele>
        <time>2017-07-13T06:29:27Z</time>
      </trkpt>
      <trkpt lat="42.89484" lon="0.50421">
        <ele>1293.5</ele>
        <time>2017-07-13T06:29:28Z</time>
      </trkpt>
      <trkpt lat="42.89487" lon="0.50418">
        <ele>1293.7</ele>
        <time>2017-07-13T06:29:29Z</time>
      </trkpt>
      <trkpt lat="42.89489" lon="0.50416">
        <ele>1293.9</ele>
        <time>2017-07-13T06:29:30Z</time>
      </trkpt>
      <trkpt lat="42.89491" lon="0.50413">
        <ele>1294</ele>
        <time>2017-07-13T06:29:31Z</time>
      </trkpt>
      <trkpt lat="42.89493" lon="0.50411">
        <ele>1294.1</ele>
        <time>2017-07-13T06:29:32Z</time>
      </trkpt>
      <trkpt lat="42.89496" lon="0.50408">
        <ele>1294.3</ele>
        <time>2017-07-13T06:29:33Z</time>
      </trkpt>
      <trkpt lat="42.89498" lon="0.50405">
        <ele>1294.4</ele>
        <time>2017-07-13T06:29:34Z</time>
      </trkpt>
      <trkpt lat="42.895" lon="0.50403">
        <ele>1294.6</ele>
        <time>2017-07-13T06:29:35Z</time>
      </trkpt>
      <trkpt lat="42.89501" lon="0.504">
        <ele>1294.6</ele>
        <time>2017-07-13T06:29:36Z</time>
      </trkpt>
      <trkpt lat="42.89503" lon="0.50397">
        <ele>1294.4</ele>
        <time>2017-07-13T06:29:37Z</time>
      </trkpt>
      <trkpt lat="42.89505" lon="0.50394">
        <ele>1294.3</ele>
        <time>2017-07-13T06:29:38Z</time>
      </trkpt>
      <trkpt lat="42.89506" lon="0.50392">
        <ele>1294.3</ele>
        <time>2017-07-13T06:29:39Z</time>
      </trkpt>
      <trkpt lat="42.89508" lon="0.50389">
        <ele>1294.2</ele>
        <time>2017-07-13T06:29:40Z</time>
      </trkpt>
      <trkpt lat="42.89509" lon="0.50386">
        <ele>1294.2</ele>
        <time>2017-07-13T06:29:41Z</time>
      </trkpt>
      <trkpt lat="42.8951" lon="0.50383">
        <ele>1294.2</ele>
        <time>2017-07-13T06:29:42Z</time>
      </trkpt>
      <trkpt lat="42.89511" lon="0.50381">
        <ele>1294.3</ele>
        <time>2017-07-13T06:29:43Z</time>
      </trkpt>
      <trkpt lat="42.89513" lon="0.50378">
        <ele>1294.3</ele>
        <time>2017-07-13T06:29:44Z</time>
      </trkpt>
      <trkpt lat="42.89514" lon="0.50375">
        <ele>1294.4</ele>
        <time>2017-07-13T06:29:45Z</time>
      </trkpt>
      <trkpt lat="42.89514" lon="0.50372">
        <ele>1294.5</ele>
        <time>2017-07-13T06:29:46Z</time>
      </trkpt>
      <trkpt lat="42.89515" lon="0.50369">
        <ele>1294.7</ele>
        <time>2017-07-13T06:29:47Z</time>
      </trkpt>
      <trkpt lat="42.89516" lon="0.50366">
        <ele>1294.9</ele>
        <time>2017-07-13T06:29:48Z</time>
      </trkpt>
      <trkpt lat="42.89517" lon="0.50364">
        <ele>1295.1</ele>
        <time>2017-07-13T06:29:49Z</time>
      </trkpt>
      <trkpt lat="42.89517" lon="0.50361">
        <ele>1295.3</ele>
        <time>2017-07-13T06:29:50Z</time>
      </trkpt>
      <trkpt lat="42.89517" lon="0.50358">
        <ele>1295.6</ele>
        <time>2017-07-13T06:29:51Z</time>
      </trkpt>
      <trkpt lat="42.89518" lon="0.50355">
        <ele>1295.9</ele>
        <time>2017-07-13T06:29:52Z</time>
      </trkpt>
      <trkpt lat="42.89518" lon="0.50352">
        <ele>1296.2</ele>
        <time>2017-07-13T06:29:53Z</time>
      </trkpt>
      <trkpt lat="42.89518" lon="0.50349">
        <ele>1296.7</ele>
        <time>2017-07-13T06:29:54Z</time>
      </trkpt>
      <trkpt lat="42.89518" lon="0.50346">
        <ele>1297</ele>
        <time>2017-07-13T06:29:55Z</time>
      </trkpt>
      <trkpt lat="42.89518" lon="0.50343">
        <ele>1297.5</ele>
        <time>2017-07-13T06:29:56Z</time>
      </trkpt>
      <trkpt lat="42.89518" lon="0.50341">
        <ele>1298</ele>
        <time>2017-07-13T06:29:57Z</time>
      </trkpt>
      <trkpt lat="42.89518" lon="0.50338">
        <ele>1298.5</ele>
        <time>2017-07-13T06:29:58Z</time>
      </trkpt>
      <trkpt lat="42.89518" lon="0.50335">
        <ele>1299</ele>
        <time>2017-07-13T06:29:59Z</time>
      </trkpt>
      <trkpt lat="42.89518" lon="0.50332">
        <ele>1299.5</ele>
        <time>2017-07-13T06:30:00Z</time>
      </trkpt>
      <trkpt lat="42.89518" lon="0.50329">
        <ele>1300</ele>
        <time>2017-07-13T06:30:01Z</time>
      </trkpt>
      <trkpt lat="42.89517" lon="0.50326">
        <ele>1300.6</ele>
        <time>2017-07-13T06:30:02Z</time>
      </trkpt>
      <trkpt lat="42.89517" lon="0.50323">
        <ele>1301.1</ele>
        <time>2017-07-13T06:30:03Z</time>
      </trkpt>
      <trkpt lat="42.89516" lon="0.5032">
        <ele>1301.7</ele>
        <time>2017-07-13T06:30:04Z</time>
      </trkpt>
      <trkpt lat="42.89516" lon="0.50317">
        <ele>1302.2</ele>
        <time>2017-07-13T06:30:05Z</time>
      </trkpt>
      <trkpt lat="42.89516" lon="0.50314">
        <ele>1302.7</ele>
        <time>2017-07-13T06:30:06Z</time>
      </trkpt>
      <trkpt lat="42.89515" lon="0.50311">
        <ele>1303.3</ele>
        <time>2017-07-13T06:30:07Z</time>
      </trkpt>
      <trkpt lat="42.89515" lon="0.50307">
        <ele>1303.8</ele>
        <time>2017-07-13T06:30:08Z</time>
      </trkpt>
      <trkpt lat="42.89515" lon="0.50304">
        <ele>1304.2</ele>
        <time>2017-07-13T06:30:09Z</time>
      </trkpt>
      <trkpt lat="42.89515" lon="0.503">
        <ele>1304.6</ele>
        <time>2017-07-13T06:30:10Z</time>
      </trkpt>
      <trkpt lat="42.89516" lon="0.50297">
        <ele>1304.9</ele>
        <time>2017-07-13T06:30:11Z</time>
      </trkpt>
      <trkpt lat="42.89516" lon="0.50293">
        <ele>1305.2</ele>
        <time>2017-07-13T06:30:12Z</time>
      </trkpt>
      <trkpt lat="42.89517" lon="0.50289">
        <ele>1305.5</ele>
        <time>2017-07-13T06:30:13Z</time>
      </trkpt>
      <trkpt lat="42.89518" lon="0.50285">
        <ele>1305.7</ele>
        <time>2017-07-13T06:30:14Z</time>
      </trkpt>
      <trkpt lat="42.89519" lon="0.50281">
        <ele>1305.9</ele>
        <time>2017-07-13T06:30:15Z</time>
      </trkpt>
      <trkpt lat="42.8952" lon="0.50277">
        <ele>1306.1</ele>
        <time>2017-07-13T06:30:16Z</time>
      </trkpt>
      <trkpt lat="42.8952" lon="0.50273">
        <ele>1306.3</ele>
        <time>2017-07-13T06:30:17Z</time>
      </trkpt>
      <trkpt lat="42.89521" lon="0.50269">
        <ele>1306.5</ele>
        <time>2017-07-13T06:30:18Z</time>
      </trkpt>
      <trkpt lat="42.89522" lon="0.50266">
        <ele>1306.7</ele>
        <time>2017-07-13T06:30:19Z</time>
      </trkpt>
      <trkpt lat="42.89523" lon="0.50262">
        <ele>1307</ele>
        <time>2017-07-13T06:30:20Z</time>
      </trkpt>
      <trkpt lat="42.89523" lon="0.50259">
        <ele>1307.2</ele>
        <time>2017-07-13T06:30:21Z</time>
      </trkpt>
      <trkpt lat="42.89524" lon="0.50256">
        <ele>1307.5</ele>
        <time>2017-07-13T06:30:22Z</time>
      </trkpt>
      <trkpt lat="42.89524" lon="0.50252">
        <ele>1307.8</ele>
        <time>2017-07-13T06:30:23Z</time>
      </trkpt>
      <trkpt lat="42.89525" lon="0.50249">
        <ele>1308.1</ele>
        <time>2017-07-13T06:30:24Z</time>
      </trkpt>
      <trkpt lat="42.89525" lon="0.50246">
        <ele>1308.3</ele>
        <time>2017-07-13T06:30:25Z</time>
      </trkpt>
      <trkpt lat="42.89526" lon="0.50242">
        <ele>1308.6</ele>
        <time>2017-07-13T06:30:26Z</time>
      </trkpt>
      <trkpt lat="42.89526" lon="0.50239">
        <ele>1308.8</ele>
        <time>2017-07-13T06:30:27Z</time>
      </trkpt>
      <trkpt lat="42.89526" lon="0.50236">
        <ele>1309.1</ele>
        <time>2017-07-13T06:30:28Z</time>
      </trkpt>
      <trkpt lat="42.89527" lon="0.50232">
        <ele>1309.3</ele>
        <time>2017-07-13T06:30:29Z</time>
      </trkpt>
      <trkpt lat="42.89527" lon="0.50229">
        <ele>1309.6</ele>
        <time>2017-07-13T06:30:30Z</time>
      </trkpt>
      <trkpt lat="42.89527" lon="0.50226">
        <ele>1309.9</ele>
        <time>2017-07-13T06:30:31Z</time>
      </trkpt>
      <trkpt lat="42.89528" lon="0.50223">
        <ele>1310.1</ele>
        <time>2017-07-13T06:30:32Z</time>
      </trkpt>
      <trkpt lat="42.89528" lon="0.50219">
        <ele>1310.3</ele>
        <time>2017-07-13T06:30:33Z</time>
      </trkpt>
      <trkpt lat="42.89529" lon="0.50216">
        <ele>1310.5</ele>
        <time>2017-07-13T06:30:34Z</time>
      </trkpt>
      <trkpt lat="42.89529" lon="0.50213">
        <ele>1310.7</ele>
        <time>2017-07-13T06:30:35Z</time>
      </trkpt>
      <trkpt lat="42.8953" lon="0.5021">
        <ele>1310.9</ele>
        <time>2017-07-13T06:30:36Z</time>
      </trkpt>
      <trkpt lat="42.89531" lon="0.50207">
        <ele>1311</ele>
        <time>2017-07-13T06:30:37Z</time>
      </trkpt>
      <trkpt lat="42.89531" lon="0.50204">
        <ele>1311.2</ele>
        <time>2017-07-13T06:30:38Z</time>
      </trkpt>
      <trkpt lat="42.89532" lon="0.502">
        <ele>1311.3</ele>
        <time>2017-07-13T06:30:39Z</time>
      </trkpt>
      <trkpt lat="42.89533" lon="0.50197">
        <ele>1311.5</ele>
        <time>2017-07-13T06:30:40Z</time>
      </trkpt>
      <trkpt lat="42.89534" lon="0.50194">
        <ele>1311.6</ele>
        <time>2017-07-13T06:30:41Z</time>
      </trkpt>
      <trkpt lat="42.89534" lon="0.5019">
        <ele>1311.8</ele>
        <time>2017-07-13T06:30:42Z</time>
      </trkpt>
      <trkpt lat="42.89535" lon="0.50187">
        <ele>1312</ele>
        <time>2017-07-13T06:30:43Z</time>
      </trkpt>
      <trkpt lat="42.89536" lon="0.50183">
        <ele>1312.3</ele>
        <time>2017-07-13T06:30:44Z</time>
      </trkpt>
      <trkpt lat="42.89536" lon="0.5018">
        <ele>1312.6</ele>
        <time>2017-07-13T06:30:45Z</time>
      </trkpt>
      <trkpt lat="42.89536" lon="0.50176">
        <ele>1312.9</ele>
        <time>2017-07-13T06:30:46Z</time>
      </trkpt>
      <trkpt lat="42.89536" lon="0.50173">
        <ele>1313.4</ele>
        <time>2017-07-13T06:30:47Z</time>
      </trkpt>
      <trkpt lat="42.89535" lon="0.5017">
        <ele>1313.9</ele>
        <time>2017-07-13T06:30:48Z</time>
      </trkpt>
      <trkpt lat="42.89534" lon="0.50168">
        <ele>1314.5</ele>
        <time>2017-07-13T06:30:49Z</time>
      </trkpt>
      <trkpt lat="42.89533" lon="0.50165">
        <ele>1315</ele>
        <time>2017-07-13T06:30:50Z</time>
      </trkpt>
      <trkpt lat="42.89531" lon="0.50164">
        <ele>1315.5</ele>
        <time>2017-07-13T06:30:51Z</time>
      </trkpt>
      <trkpt lat="42.89529" lon="0.50162">
        <ele>1316.2</ele>
        <time>2017-07-13T06:30:52Z</time>
      </trkpt>
      <trkpt lat="42.89526" lon="0.50161">
        <ele>1316.8</ele>
        <time>2017-07-13T06:30:53Z</time>
      </trkpt>
      <trkpt lat="42.89524" lon="0.5016">
        <ele>1317.5</ele>
        <time>2017-07-13T06:30:54Z</time>
      </trkpt>
      <trkpt lat="42.89522" lon="0.5016">
        <ele>1318.2</ele>
        <time>2017-07-13T06:30:55Z</time>
      </trkpt>
      <trkpt lat="42.89519" lon="0.5016">
        <ele>1318.8</ele>
        <time>2017-07-13T06:30:56Z</time>
      </trkpt>
      <trkpt lat="42.89517" lon="0.5016">
        <ele>1319.5</ele>
        <time>2017-07-13T06:30:57Z</time>
      </trkpt>
      <trkpt lat="42.89515" lon="0.5016">
        <ele>1320</ele>
        <time>2017-07-13T06:30:58Z</time>
      </trkpt>
      <trkpt lat="42.89513" lon="0.50161">
        <ele>1320.6</ele>
        <time>2017-07-13T06:30:59Z</time>
      </trkpt>
      <trkpt lat="42.89511" lon="0.50162">
        <ele>1321</ele>
        <time>2017-07-13T06:31:00Z</time>
      </trkpt>
      <trkpt lat="42.8951" lon="0.50164">
        <ele>1321.4</ele>
        <time>2017-07-13T06:31:01Z</time>
      </trkpt>
      <trkpt lat="42.89508" lon="0.50165">
        <ele>1321.8</ele>
        <time>2017-07-13T06:31:02Z</time>
      </trkpt>
      <trkpt lat="42.89507" lon="0.50167">
        <ele>1322</ele>
        <time>2017-07-13T06:31:03Z</time>
      </trkpt>
      <trkpt lat="42.89506" lon="0.50169">
        <ele>1322.1</ele>
        <time>2017-07-13T06:31:04Z</time>
      </trkpt>
      <trkpt lat="42.89505" lon="0.50172">
        <ele>1322.1</ele>
        <time>2017-07-13T06:31:05Z</time>
      </trkpt>
      <trkpt lat="42.89504" lon="0.50174">
        <ele>1322.1</ele>
        <time>2017-07-13T06:31:06Z</time>
      </trkpt>
      <trkpt lat="42.89504" lon="0.50177">
        <ele>1322</ele>
        <time>2017-07-13T06:31:07Z</time>
      </trkpt>
      <trkpt lat="42.89503" lon="0.50181">
        <ele>1321.8</ele>
        <time>2017-07-13T06:31:08Z</time>
      </trkpt>
      <trkpt lat="42.89503" lon="0.50184">
        <ele>1321.6</ele>
        <time>2017-07-13T06:31:09Z</time>
      </trkpt>
      <trkpt lat="42.89502" lon="0.50188">
        <ele>1321.3</ele>
        <time>2017-07-13T06:31:10Z</time>
      </trkpt>
      <trkpt lat="42.89502" lon="0.50192">
        <ele>1321.1</ele>
        <time>2017-07-13T06:31:11Z</time>
      </trkpt>
      <trkpt lat="42.89502" lon="0.50196">
        <ele>1320.8</ele>
        <time>2017-07-13T06:31:12Z</time>
      </trkpt>
      <trkpt lat="42.89501" lon="0.502">
        <ele>1320.5</ele>
        <time>2017-07-13T06:31:13Z</time>
      </trkpt>
      <trkpt lat="42.89501" lon="0.50204">
        <ele>1320.3</ele>
        <time>2017-07-13T06:31:14Z</time>
      </trkpt>
      <trkpt lat="42.895" lon="0.50208">
        <ele>1320.1</ele>
        <time>2017-07-13T06:31:15Z</time>
      </trkpt>
      <trkpt lat="42.89499" lon="0.50211">
        <ele>1319.9</ele>
        <time>2017-07-13T06:31:16Z</time>
      </trkpt>
      <trkpt lat="42.89498" lon="0.50215">
        <ele>1319.7</ele>
        <time>2017-07-13T06:31:17Z</time>
      </trkpt>
      <trkpt lat="42.89497" lon="0.50218">
        <ele>1319.5</ele>
        <time>2017-07-13T06:31:18Z</time>
      </trkpt>
      <trkpt lat="42.89496" lon="0.50222">
        <ele>1319.4</ele>
        <time>2017-07-13T06:31:19Z</time>
      </trkpt>
      <trkpt lat="42.89494" lon="0.50225">
        <ele>1319.3</ele>
        <time>2017-07-13T06:31:20Z</time>
      </trkpt>
      <trkpt lat="42.89493" lon="0.50229">
        <ele>1319.3</ele>
        <time>2017-07-13T06:31:21Z</time>
      </trkpt>
      <trkpt lat="42.89492" lon="0.50232">
        <ele>1319.2</ele>
        <time>2017-07-13T06:31:22Z</time>
      </trkpt>
      <trkpt lat="42.8949" lon="0.50235">
        <ele>1319.2</ele>
        <time>2017-07-13T06:31:23Z</time>
      </trkpt>
      <trkpt lat="42.89489" lon="0.50238">
        <ele>1319.2</ele>
        <time>2017-07-13T06:31:24Z</time>
      </trkpt>
      <trkpt lat="42.89487" lon="0.50241">
        <ele>1319.2</ele>
        <time>2017-07-13T06:31:25Z</time>
      </trkpt>
      <trkpt lat="42.89486" lon="0.50244">
        <ele>1319.2</ele>
        <time>2017-07-13T06:31:26Z</time>
      </trkpt>
      <trkpt lat="42.89485" lon="0.50247">
        <ele>1319.2</ele>
        <time>2017-07-13T06:31:27Z</time>
      </trkpt>
      <trkpt lat="42.89483" lon="0.5025">
        <ele>1319.2</ele>
        <time>2017-07-13T06:31:28Z</time>
      </trkpt>
      <trkpt lat="42.89482" lon="0.50253">
        <ele>1319.2</ele>
        <time>2017-07-13T06:31:29Z</time>
      </trkpt>
      <trkpt lat="42.89481" lon="0.50256">
        <ele>1319.1</ele>
        <time>2017-07-13T06:31:30Z</time>
      </trkpt>
      <trkpt lat="42.89479" lon="0.50258">
        <ele>1319</ele>
        <time>2017-07-13T06:31:31Z</time>
      </trkpt>
      <trkpt lat="42.89478" lon="0.50261">
        <ele>1319</ele>
        <time>2017-07-13T06:31:32Z</time>
      </trkpt>
      <trkpt lat="42.89477" lon="0.50264">
        <ele>1319</ele>
        <time>2017-07-13T06:31:33Z</time>
      </trkpt>
      <trkpt lat="42.89475" lon="0.50266">
        <ele>1318.9</ele>
        <time>2017-07-13T06:31:34Z</time>
      </trkpt>
      <trkpt lat="42.89474" lon="0.50269">
        <ele>1318.9</ele>
        <time>2017-07-13T06:31:35Z</time>
      </trkpt>
      <trkpt lat="42.89472" lon="0.50271">
        <ele>1318.9</ele>
        <time>2017-07-13T06:31:36Z</time>
      </trkpt>
      <trkpt lat="42.89471" lon="0.50273">
        <ele>1319</ele>
        <time>2017-07-13T06:31:37Z</time>
      </trkpt>
      <trkpt lat="42.89469" lon="0.50276">
        <ele>1319.1</ele>
        <time>2017-07-13T06:31:38Z</time>
      </trkpt>
      <trkpt lat="42.89467" lon="0.50278">
        <ele>1319.2</ele>
        <time>2017-07-13T06:31:39Z</time>
      </trkpt>
      <trkpt lat="42.89465" lon="0.5028">
        <ele>1319.3</ele>
        <time>2017-07-13T06:31:40Z</time>
      </trkpt>
      <trkpt lat="42.89463" lon="0.50282">
        <ele>1319.4</ele>
        <time>2017-07-13T06:31:41Z</time>
      </trkpt>
      <trkpt lat="42.89461" lon="0.50284">
        <ele>1319.6</ele>
        <time>2017-07-13T06:31:42Z</time>
      </trkpt>
      <trkpt lat="42.89459" lon="0.50286">
        <ele>1319.9</ele>
        <time>2017-07-13T06:31:43Z</time>
      </trkpt>
      <trkpt lat="42.89456" lon="0.50287">
        <ele>1320.2</ele>
        <time>2017-07-13T06:31:44Z</time>
      </trkpt>
      <trkpt lat="42.89454" lon="0.50288">
        <ele>1320.5</ele>
        <time>2017-07-13T06:31:45Z</time>
      </trkpt>
      <trkpt lat="42.89451" lon="0.50289">
        <ele>1320.9</ele>
        <time>2017-07-13T06:31:46Z</time>
      </trkpt>
      <trkpt lat="42.89449" lon="0.50289">
        <ele>1321.4</ele>
        <time>2017-07-13T06:31:47Z</time>
      </trkpt>
      <trkpt lat="42.89447" lon="0.50288">
        <ele>1321.9</ele>
        <time>2017-07-13T06:31:48Z</time>
      </trkpt>
      <trkpt lat="42.89445" lon="0.50286">
        <ele>1322.4</ele>
        <time>2017-07-13T06:31:49Z</time>
      </trkpt>
      <trkpt lat="42.89443" lon="0.50285">
        <ele>1323</ele>
        <time>2017-07-13T06:31:50Z</time>
      </trkpt>
      <trkpt lat="42.89441" lon="0.50283">
        <ele>1323.5</ele>
        <time>2017-07-13T06:31:51Z</time>
      </trkpt>
      <trkpt lat="42.8944" lon="0.5028">
        <ele>1324</ele>
        <time>2017-07-13T06:31:52Z</time>
      </trkpt>
      <trkpt lat="42.89439" lon="0.50277">
        <ele>1324.5</ele>
        <time>2017-07-13T06:31:53Z</time>
      </trkpt>
      <trkpt lat="42.89439" lon="0.50274">
        <ele>1324.9</ele>
        <time>2017-07-13T06:31:54Z</time>
      </trkpt>
      <trkpt lat="42.89439" lon="0.50271">
        <ele>1325.2</ele>
        <time>2017-07-13T06:31:55Z</time>
      </trkpt>
      <trkpt lat="42.89439" lon="0.50268">
        <ele>1325.5</ele>
        <time>2017-07-13T06:31:56Z</time>
      </trkpt>
      <trkpt lat="42.8944" lon="0.50265">
        <ele>1325.8</ele>
        <time>2017-07-13T06:31:57Z</time>
      </trkpt>
      <trkpt lat="42.89441" lon="0.50262">
        <ele>1326</ele>
        <time>2017-07-13T06:31:58Z</time>
      </trkpt>
      <trkpt lat="42.89441" lon="0.50259">
        <ele>1326.3</ele>
        <time>2017-07-13T06:31:59Z</time>
      </trkpt>
      <trkpt lat="42.89442" lon="0.50256">
        <ele>1326.4</ele>
        <time>2017-07-13T06:32:00Z</time>
      </trkpt>
      <trkpt lat="42.89443" lon="0.50253">
        <ele>1326.6</ele>
        <time>2017-07-13T06:32:01Z</time>
      </trkpt>
      <trkpt lat="42.89444" lon="0.5025">
        <ele>1326.7</ele>
        <time>2017-07-13T06:32:02Z</time>
      </trkpt>
      <trkpt lat="42.89445" lon="0.50247">
        <ele>1326.6</ele>
        <time>2017-07-13T06:32:03Z</time>
      </trkpt>
      <trkpt lat="42.89446" lon="0.50245">
        <ele>1326.6</ele>
        <time>2017-07-13T06:32:04Z</time>
      </trkpt>
      <trkpt lat="42.89447" lon="0.50242">
        <ele>1326.5</ele>
        <time>2017-07-13T06:32:05Z</time>
      </trkpt>
      <trkpt lat="42.89449" lon="0.50239">
        <ele>1326.4</ele>
        <time>2017-07-13T06:32:06Z</time>
      </trkpt>
      <trkpt lat="42.8945" lon="0.50236">
        <ele>1326.4</ele>
        <time>2017-07-13T06:32:07Z</time>
      </trkpt>
      <trkpt lat="42.89451" lon="0.50233">
        <ele>1326.3</ele>
        <time>2017-07-13T06:32:08Z</time>
      </trkpt>
      <trkpt lat="42.89452" lon="0.5023">
        <ele>1326.3</ele>
        <time>2017-07-13T06:32:09Z</time>
      </trkpt>
      <trkpt lat="42.89453" lon="0.50226">
        <ele>1326.3</ele>
        <time>2017-07-13T06:32:10Z</time>
      </trkpt>
      <trkpt lat="42.89454" lon="0.50223">
        <ele>1326.3</ele>
        <time>2017-07-13T06:32:11Z</time>
      </trkpt>
      <trkpt lat="42.89455" lon="0.5022">
        <ele>1326.3</ele>
        <time>2017-07-13T06:32:12Z</time>
      </trkpt>
      <trkpt lat="42.89456" lon="0.50216">
        <ele>1326.4</ele>
        <time>2017-07-13T06:32:13Z</time>
      </trkpt>
      <trkpt lat="42.89457" lon="0.50213">
        <ele>1326.5</ele>
        <time>2017-07-13T06:32:14Z</time>
      </trkpt>
      <trkpt lat="42.89457" lon="0.5021">
        <ele>1326.6</ele>
        <time>2017-07-13T06:32:15Z</time>
      </trkpt>
      <trkpt lat="42.89457" lon="0.50207">
        <ele>1326.8</ele>
        <time>2017-07-13T06:32:16Z</time>
      </trkpt>
      <trkpt lat="42.89457" lon="0.50203">
        <ele>1327</ele>
        <time>2017-07-13T06:32:17Z</time>
      </trkpt>
      <trkpt lat="42.89457" lon="0.502">
        <ele>1327.2</ele>
        <time>2017-07-13T06:32:18Z</time>
      </trkpt>
      <trkpt lat="42.89456" lon="0.50197">
        <ele>1327.5</ele>
        <time>2017-07-13T06:32:19Z</time>
      </trkpt>
      <trkpt lat="42.89455" lon="0.50194">
        <ele>1327.8</ele>
        <time>2017-07-13T06:32:20Z</time>
      </trkpt>
      <trkpt lat="42.89455" lon="0.50191">
        <ele>1328.1</ele>
        <time>2017-07-13T06:32:21Z</time>
      </trkpt>
      <trkpt lat="42.89453" lon="0.50189">
        <ele>1328.4</ele>
        <time>2017-07-13T06:32:22Z</time>
      </trkpt>
      <trkpt lat="42.89452" lon="0.50186">
        <ele>1328.7</ele>
        <time>2017-07-13T06:32:23Z</time>
      </trkpt>
      <trkpt lat="42.89451" lon="0.50183">
        <ele>1329.1</ele>
        <time>2017-07-13T06:32:24Z</time>
      </trkpt>
      <trkpt lat="42.89449" lon="0.5018">
        <ele>1329.4</ele>
        <time>2017-07-13T06:32:25Z</time>
      </trkpt>
      <trkpt lat="42.89448" lon="0.50177">
        <ele>1329.8</ele>
        <time>2017-07-13T06:32:26Z</time>
      </trkpt>
      <trkpt lat="42.89446" lon="0.50175">
        <ele>1330.1</ele>
        <time>2017-07-13T06:32:27Z</time>
      </trkpt>
      <trkpt lat="42.89444" lon="0.50172">
        <ele>1330.4</ele>
        <time>2017-07-13T06:32:28Z</time>
      </trkpt>
      <trkpt lat="42.89443" lon="0.50169">
        <ele>1330.8</ele>
        <time>2017-07-13T06:32:29Z</time>
      </trkpt>
      <trkpt lat="42.89441" lon="0.50167">
        <ele>1331.1</ele>
        <time>2017-07-13T06:32:30Z</time>
      </trkpt>
      <trkpt lat="42.89439" lon="0.50164">
        <ele>1331.5</ele>
        <time>2017-07-13T06:32:31Z</time>
      </trkpt>
      <trkpt lat="42.89438" lon="0.50161">
        <ele>1331.9</ele>
        <time>2017-07-13T06:32:32Z</time>
      </trkpt>
      <trkpt lat="42.89436" lon="0.50159">
        <ele>1332.2</ele>
        <time>2017-07-13T06:32:33Z</time>
      </trkpt>
      <trkpt lat="42.89435" lon="0.50156">
        <ele>1332.6</ele>
        <time>2017-07-13T06:32:34Z</time>
      </trkpt>
      <trkpt lat="42.89433" lon="0.50153">
        <ele>1333</ele>
        <time>2017-07-13T06:32:35Z</time>
      </trkpt>
      <trkpt lat="42.89432" lon="0.50151">
        <ele>1333.3</ele>
        <time>2017-07-13T06:32:36Z</time>
      </trkpt>
      <trkpt lat="42.8943" lon="0.50148">
        <ele>1333.7</ele>
        <time>2017-07-13T06:32:37Z</time>
      </trkpt>
      <trkpt lat="42.89429" lon="0.50145">
        <ele>1334.1</ele>
        <time>2017-07-13T06:32:38Z</time>
      </trkpt>
      <trkpt lat="42.89427" lon="0.50143">
        <ele>1334.4</ele>
        <time>2017-07-13T06:32:39Z</time>
      </trkpt>
      <trkpt lat="42.89425" lon="0.50141">
        <ele>1334.8</ele>
        <time>2017-07-13T06:32:40Z</time>
      </trkpt>
      <trkpt lat="42.89424" lon="0.50138">
        <ele>1335.2</ele>
        <time>2017-07-13T06:32:41Z</time>
      </trkpt>
      <trkpt lat="42.89422" lon="0.50136">
        <ele>1335.5</ele>
        <time>2017-07-13T06:32:42Z</time>
      </trkpt>
      <trkpt lat="42.89421" lon="0.50134">
        <ele>1335.9</ele>
        <time>2017-07-13T06:32:43Z</time>
      </trkpt>
      <trkpt lat="42.89419" lon="0.50132">
        <ele>1336.3</ele>
        <time>2017-07-13T06:32:44Z</time>
      </trkpt>
      <trkpt lat="42.89417" lon="0.5013">
        <ele>1336.6</ele>
        <time>2017-07-13T06:32:45Z</time>
      </trkpt>
      <trkpt lat="42.89415" lon="0.50128">
        <ele>1337.2</ele>
        <time>2017-07-13T06:32:46Z</time>
      </trkpt>
      <trkpt lat="42.89413" lon="0.50126">
        <ele>1337.9</ele>
        <time>2017-07-13T06:32:47Z</time>
      </trkpt>
      <trkpt lat="42.89411" lon="0.50125">
        <ele>1338.6</ele>
        <time>2017-07-13T06:32:48Z</time>
      </trkpt>
      <trkpt lat="42.89409" lon="0.50123">
        <ele>1339.3</ele>
        <time>2017-07-13T06:32:49Z</time>
      </trkpt>
      <trkpt lat="42.89407" lon="0.50122">
        <ele>1340</ele>
        <time>2017-07-13T06:32:50Z</time>
      </trkpt>
      <trkpt lat="42.89404" lon="0.50121">
        <ele>1340.8</ele>
        <time>2017-07-13T06:32:51Z</time>
      </trkpt>
      <trkpt lat="42.89402" lon="0.5012">
        <ele>1341.5</ele>
        <time>2017-07-13T06:32:52Z</time>
      </trkpt>
      <trkpt lat="42.894" lon="0.5012">
        <ele>1342.2</ele>
        <time>2017-07-13T06:32:53Z</time>
      </trkpt>
      <trkpt lat="42.89397" lon="0.50119">
        <ele>1343</ele>
        <time>2017-07-13T06:32:54Z</time>
      </trkpt>
      <trkpt lat="42.89395" lon="0.50119">
        <ele>1343.7</ele>
        <time>2017-07-13T06:32:55Z</time>
      </trkpt>
      <trkpt lat="42.89392" lon="0.50118">
        <ele>1344.4</ele>
        <time>2017-07-13T06:32:56Z</time>
      </trkpt>
      <trkpt lat="42.8939" lon="0.50118">
        <ele>1345.1</ele>
        <time>2017-07-13T06:32:57Z</time>
      </trkpt>
      <trkpt lat="42.89388" lon="0.50118">
        <ele>1345.8</ele>
        <time>2017-07-13T06:32:58Z</time>
      </trkpt>
      <trkpt lat="42.89385" lon="0.50118">
        <ele>1346.5</ele>
        <time>2017-07-13T06:32:59Z</time>
      </trkpt>
      <trkpt lat="42.89383" lon="0.50118">
        <ele>1347.2</ele>
        <time>2017-07-13T06:33:00Z</time>
      </trkpt>
      <trkpt lat="42.8938" lon="0.50117">
        <ele>1347.9</ele>
        <time>2017-07-13T06:33:01Z</time>
      </trkpt>
      <trkpt lat="42.89378" lon="0.50117">
        <ele>1348.7</ele>
        <time>2017-07-13T06:33:02Z</time>
      </trkpt>
      <trkpt lat="42.89375" lon="0.50117">
        <ele>1349.5</ele>
        <time>2017-07-13T06:33:03Z</time>
      </trkpt>
      <trkpt lat="42.89372" lon="0.50116">
        <ele>1350.4</ele>
        <time>2017-07-13T06:33:04Z</time>
      </trkpt>
      <trkpt lat="42.8937" lon="0.50115">
        <ele>1351.2</ele>
        <time>2017-07-13T06:33:05Z</time>
      </trkpt>
      <trkpt lat="42.89368" lon="0.50113">
        <ele>1352</ele>
        <time>2017-07-13T06:33:06Z</time>
      </trkpt>
      <trkpt lat="42.89366" lon="0.50111">
        <ele>1352.8</ele>
        <time>2017-07-13T06:33:07Z</time>
      </trkpt>
      <trkpt lat="42.89364" lon="0.50109">
        <ele>1353.6</ele>
        <time>2017-07-13T06:33:08Z</time>
      </trkpt>
      <trkpt lat="42.89363" lon="0.50106">
        <ele>1354.3</ele>
        <time>2017-07-13T06:33:09Z</time>
      </trkpt>
      <trkpt lat="42.89363" lon="0.50102">
        <ele>1355</ele>
        <time>2017-07-13T06:33:10Z</time>
      </trkpt>
      <trkpt lat="42.89362" lon="0.50099">
        <ele>1355.6</ele>
        <time>2017-07-13T06:33:11Z</time>
      </trkpt>
      <trkpt lat="42.89362" lon="0.50095">
        <ele>1356.1</ele>
        <time>2017-07-13T06:33:12Z</time>
      </trkpt>
      <trkpt lat="42.89362" lon="0.50091">
        <ele>1356.6</ele>
        <time>2017-07-13T06:33:13Z</time>
      </trkpt>
      <trkpt lat="42.89363" lon="0.50088">
        <ele>1356.9</ele>
        <time>2017-07-13T06:33:14Z</time>
      </trkpt>
      <trkpt lat="42.89364" lon="0.50084">
        <ele>1357.1</ele>
        <time>2017-07-13T06:33:15Z</time>
      </trkpt>
      <trkpt lat="42.89365" lon="0.50081">
        <ele>1357.2</ele>
        <time>2017-07-13T06:33:16Z</time>
      </trkpt>
      <trkpt lat="42.89366" lon="0.50078">
        <ele>1357.1</ele>
        <time>2017-07-13T06:33:17Z</time>
      </trkpt>
      <trkpt lat="42.89367" lon="0.50075">
        <ele>1357</ele>
        <time>2017-07-13T06:33:18Z</time>
      </trkpt>
      <trkpt lat="42.89369" lon="0.50072">
        <ele>1356.9</ele>
        <time>2017-07-13T06:33:19Z</time>
      </trkpt>
      <trkpt lat="42.8937" lon="0.50069">
        <ele>1356.7</ele>
        <time>2017-07-13T06:33:20Z</time>
      </trkpt>
      <trkpt lat="42.89372" lon="0.50066">
        <ele>1356.6</ele>
        <time>2017-07-13T06:33:21Z</time>
      </trkpt>
      <trkpt lat="42.89373" lon="0.50063">
        <ele>1356.4</ele>
        <time>2017-07-13T06:33:22Z</time>
      </trkpt>
      <trkpt lat="42.89375" lon="0.5006">
        <ele>1356.2</ele>
        <time>2017-07-13T06:33:23Z</time>
      </trkpt>
      <trkpt lat="42.89376" lon="0.50057">
        <ele>1355.9</ele>
        <time>2017-07-13T06:33:24Z</time>
      </trkpt>
      <trkpt lat="42.89378" lon="0.50054">
        <ele>1355.7</ele>
        <time>2017-07-13T06:33:25Z</time>
      </trkpt>
      <trkpt lat="42.8938" lon="0.50051">
        <ele>1355.4</ele>
        <time>2017-07-13T06:33:26Z</time>
      </trkpt>
      <trkpt lat="42.89382" lon="0.50048">
        <ele>1355</ele>
        <time>2017-07-13T06:33:27Z</time>
      </trkpt>
      <trkpt lat="42.89384" lon="0.50046">
        <ele>1354.6</ele>
        <time>2017-07-13T06:33:28Z</time>
      </trkpt>
      <trkpt lat="42.89386" lon="0.50044">
        <ele>1354.2</ele>
        <time>2017-07-13T06:33:29Z</time>
      </trkpt>
      <trkpt lat="42.89388" lon="0.50041">
        <ele>1353.7</ele>
        <time>2017-07-13T06:33:30Z</time>
      </trkpt>
      <trkpt lat="42.8939" lon="0.50039">
        <ele>1353.1</ele>
        <time>2017-07-13T06:33:31Z</time>
      </trkpt>
      <trkpt lat="42.89392" lon="0.50037">
        <ele>1352.5</ele>
        <time>2017-07-13T06:33:32Z</time>
      </trkpt>
      <trkpt lat="42.89394" lon="0.50036">
        <ele>1352</ele>
        <time>2017-07-13T06:33:33Z</time>
      </trkpt>
      <trkpt lat="42.89396" lon="0.50034">
        <ele>1351.4</ele>
        <time>2017-07-13T06:33:34Z</time>
      </trkpt>
      <trkpt lat="42.89398" lon="0.50033">
        <ele>1350.8</ele>
        <time>2017-07-13T06:33:35Z</time>
      </trkpt>
      <trkpt lat="42.894" lon="0.50031">
        <ele>1350.2</ele>
        <time>2017-07-13T06:33:36Z</time>
      </trkpt>
      <trkpt lat="42.89402" lon="0.50029">
        <ele>1349.7</ele>
        <time>2017-07-13T06:33:37Z</time>
      </trkpt>
      <trkpt lat="42.89404" lon="0.50027">
        <ele>1349.3</ele>
        <time>2017-07-13T06:33:38Z</time>
      </trkpt>
      <trkpt lat="42.89406" lon="0.50023">
        <ele>1348.9</ele>
        <time>2017-07-13T06:33:39Z</time>
      </trkpt>
      <trkpt lat="42.89407" lon="0.5002">
        <ele>1348.7</ele>
        <time>2017-07-13T06:33:40Z</time>
      </trkpt>
      <trkpt lat="42.89408" lon="0.50016">
        <ele>1348.7</ele>
        <time>2017-07-13T06:33:41Z</time>
      </trkpt>
      <trkpt lat="42.89409" lon="0.50012">
        <ele>1348.9</ele>
        <time>2017-07-13T06:33:42Z</time>
      </trkpt>
      <trkpt lat="42.89409" lon="0.50008">
        <ele>1349.2</ele>
        <time>2017-07-13T06:33:43Z</time>
      </trkpt>
      <trkpt lat="42.89408" lon="0.50004">
        <ele>1349.7</ele>
        <time>2017-07-13T06:33:44Z</time>
      </trkpt>
      <trkpt lat="42.89408" lon="0.50001">
        <ele>1350.3</ele>
        <time>2017-07-13T06:33:45Z</time>
      </trkpt>
      <trkpt lat="42.89407" lon="0.49997">
        <ele>1350.1</ele>
        <time>2017-07-13T06:33:46Z</time>
      </trkpt>
      <trkpt lat="42.89405" lon="0.49994">
        <ele>1350</ele>
        <time>2017-07-13T06:33:47Z</time>
      </trkpt>
      <trkpt lat="42.89404" lon="0.49991">
        <ele>1350</ele>
        <time>2017-07-13T06:33:48Z</time>
      </trkpt>
      <trkpt lat="42.89402" lon="0.49989">
        <ele>1350.2</ele>
        <time>2017-07-13T06:33:49Z</time>
      </trkpt>
      <trkpt lat="42.89401" lon="0.49987">
        <ele>1350.4</ele>
        <time>2017-07-13T06:33:50Z</time>
      </trkpt>
      <trkpt lat="42.89399" lon="0.49984">
        <ele>1350.8</ele>
        <time>2017-07-13T06:33:51Z</time>
      </trkpt>
      <trkpt lat="42.89397" lon="0.49982">
        <ele>1351.1</ele>
        <time>2017-07-13T06:33:52Z</time>
      </trkpt>
      <trkpt lat="42.89395" lon="0.4998">
        <ele>1351.5</ele>
        <time>2017-07-13T06:33:53Z</time>
      </trkpt>
      <trkpt lat="42.89393" lon="0.49978">
        <ele>1351.9</ele>
        <time>2017-07-13T06:33:54Z</time>
      </trkpt>
      <trkpt lat="42.89391" lon="0.49975">
        <ele>1352.3</ele>
        <time>2017-07-13T06:33:55Z</time>
      </trkpt>
      <trkpt lat="42.89389" lon="0.49973">
        <ele>1352.8</ele>
        <time>2017-07-13T06:33:56Z</time>
      </trkpt>
      <trkpt lat="42.89387" lon="0.4997">
        <ele>1353.2</ele>
        <time>2017-07-13T06:33:57Z</time>
      </trkpt>
      <trkpt lat="42.89385" lon="0.49967">
        <ele>1353.7</ele>
        <time>2017-07-13T06:33:58Z</time>
      </trkpt>
      <trkpt lat="42.89383" lon="0.49965">
        <ele>1354.2</ele>
        <time>2017-07-13T06:33:59Z</time>
      </trkpt>
      <trkpt lat="42.89381" lon="0.49962">
        <ele>1354.7</ele>
        <time>2017-07-13T06:34:00Z</time>
      </trkpt>
      <trkpt lat="42.89379" lon="0.4996">
        <ele>1355.3</ele>
        <time>2017-07-13T06:34:01Z</time>
      </trkpt>
      <trkpt lat="42.89376" lon="0.49957">
        <ele>1355.9</ele>
        <time>2017-07-13T06:34:02Z</time>
      </trkpt>
      <trkpt lat="42.89374" lon="0.49955">
        <ele>1356.5</ele>
        <time>2017-07-13T06:34:03Z</time>
      </trkpt>
      <trkpt lat="42.89372" lon="0.49952">
        <ele>1357.1</ele>
        <time>2017-07-13T06:34:04Z</time>
      </trkpt>
      <trkpt lat="42.8937" lon="0.49949">
        <ele>1357.8</ele>
        <time>2017-07-13T06:34:05Z</time>
      </trkpt>
      <trkpt lat="42.89368" lon="0.49947">
        <ele>1358.5</ele>
        <time>2017-07-13T06:34:06Z</time>
      </trkpt>
      <trkpt lat="42.89366" lon="0.49944">
        <ele>1359.2</ele>
        <time>2017-07-13T06:34:07Z</time>
      </trkpt>
      <trkpt lat="42.89364" lon="0.49942">
        <ele>1359.9</ele>
        <time>2017-07-13T06:34:08Z</time>
      </trkpt>
      <trkpt lat="42.89362" lon="0.49939">
        <ele>1360.6</ele>
        <time>2017-07-13T06:34:09Z</time>
      </trkpt>
      <trkpt lat="42.8936" lon="0.49937">
        <ele>1361.4</ele>
        <time>2017-07-13T06:34:10Z</time>
      </trkpt>
      <trkpt lat="42.89358" lon="0.49934">
        <ele>1362.1</ele>
        <time>2017-07-13T06:34:11Z</time>
      </trkpt>
      <trkpt lat="42.89356" lon="0.49931">
        <ele>1362.9</ele>
        <time>2017-07-13T06:34:12Z</time>
      </trkpt>
      <trkpt lat="42.89354" lon="0.49929">
        <ele>1363.7</ele>
        <time>2017-07-13T06:34:13Z</time>
      </trkpt>
      <trkpt lat="42.89352" lon="0.49926">
        <ele>1364.5</ele>
        <time>2017-07-13T06:34:14Z</time>
      </trkpt>
      <trkpt lat="42.8935" lon="0.49924">
        <ele>1365.3</ele>
        <time>2017-07-13T06:34:15Z</time>
      </trkpt>
      <trkpt lat="42.89348" lon="0.49921">
        <ele>1366.1</ele>
        <time>2017-07-13T06:34:16Z</time>
      </trkpt>
      <trkpt lat="42.89346" lon="0.49918">
        <ele>1367</ele>
        <time>2017-07-13T06:34:17Z</time>
      </trkpt>
      <trkpt lat="42.89344" lon="0.49916">
        <ele>1367.7</ele>
        <time>2017-07-13T06:34:18Z</time>
      </trkpt>
      <trkpt lat="42.89343" lon="0.49913">
        <ele>1368.2</ele>
        <time>2017-07-13T06:34:19Z</time>
      </trkpt>
      <trkpt lat="42.89341" lon="0.49911">
        <ele>1368.6</ele>
        <time>2017-07-13T06:34:20Z</time>
      </trkpt>
      <trkpt lat="42.89339" lon="0.49908">
        <ele>1369</ele>
        <time>2017-07-13T06:34:21Z</time>
      </trkpt>
      <trkpt lat="42.89337" lon="0.49905">
        <ele>1369.5</ele>
        <time>2017-07-13T06:34:22Z</time>
      </trkpt>
      <trkpt lat="42.89336" lon="0.49903">
        <ele>1369.9</ele>
        <time>2017-07-13T06:34:23Z</time>
      </trkpt>
      <trkpt lat="42.89334" lon="0.499">
        <ele>1370.2</ele>
        <time>2017-07-13T06:34:24Z</time>
      </trkpt>
      <trkpt lat="42.89332" lon="0.49898">
        <ele>1370.7</ele>
        <time>2017-07-13T06:34:25Z</time>
      </trkpt>
      <trkpt lat="42.89331" lon="0.49895">
        <ele>1371.2</ele>
        <time>2017-07-13T06:34:26Z</time>
      </trkpt>
      <trkpt lat="42.89329" lon="0.49892">
        <ele>1371.7</ele>
        <time>2017-07-13T06:34:27Z</time>
      </trkpt>
      <trkpt lat="42.89328" lon="0.49889">
        <ele>1372.1</ele>
        <time>2017-07-13T06:34:28Z</time>
      </trkpt>
      <trkpt lat="42.89326" lon="0.49887">
        <ele>1372.6</ele>
        <time>2017-07-13T06:34:29Z</time>
      </trkpt>
      <trkpt lat="42.89325" lon="0.49884">
        <ele>1373</ele>
        <time>2017-07-13T06:34:30Z</time>
      </trkpt>
      <trkpt lat="42.89323" lon="0.49881">
        <ele>1373.4</ele>
        <time>2017-07-13T06:34:31Z</time>
      </trkpt>
      <trkpt lat="42.89322" lon="0.49878">
        <ele>1373.8</ele>
        <time>2017-07-13T06:34:32Z</time>
      </trkpt>
      <trkpt lat="42.8932" lon="0.49875">
        <ele>1374.1</ele>
        <time>2017-07-13T06:34:33Z</time>
      </trkpt>
      <trkpt lat="42.89319" lon="0.49871">
        <ele>1374.4</ele>
        <time>2017-07-13T06:34:34Z</time>
      </trkpt>
      <trkpt lat="42.89317" lon="0.49868">
        <ele>1374.7</ele>
        <time>2017-07-13T06:34:35Z</time>
      </trkpt>
      <trkpt lat="42.89316" lon="0.49864">
        <ele>1374.8</ele>
        <time>2017-07-13T06:34:36Z</time>
      </trkpt>
      <trkpt lat="42.89315" lon="0.49861">
        <ele>1375</ele>
        <time>2017-07-13T06:34:37Z</time>
      </trkpt>
      <trkpt lat="42.89314" lon="0.49857">
        <ele>1375.1</ele>
        <time>2017-07-13T06:34:38Z</time>
      </trkpt>
      <trkpt lat="42.89312" lon="0.49854">
        <ele>1375.4</ele>
        <time>2017-07-13T06:34:39Z</time>
      </trkpt>
      <trkpt lat="42.89311" lon="0.4985">
        <ele>1375.6</ele>
        <time>2017-07-13T06:34:40Z</time>
      </trkpt>
      <trkpt lat="42.8931" lon="0.49847">
        <ele>1375.8</ele>
        <time>2017-07-13T06:34:41Z</time>
      </trkpt>
      <trkpt lat="42.89308" lon="0.49844">
        <ele>1376</ele>
        <time>2017-07-13T06:34:42Z</time>
      </trkpt>
      <trkpt lat="42.89307" lon="0.49841">
        <ele>1376.2</ele>
        <time>2017-07-13T06:34:43Z</time>
      </trkpt>
      <trkpt lat="42.89306" lon="0.49838">
        <ele>1376.4</ele>
        <time>2017-07-13T06:34:44Z</time>
      </trkpt>
      <trkpt lat="42.89305" lon="0.49834">
        <ele>1376.6</ele>
        <time>2017-07-13T06:34:45Z</time>
      </trkpt>
      <trkpt lat="42.89303" lon="0.49831">
        <ele>1376.9</ele>
        <time>2017-07-13T06:34:46Z</time>
      </trkpt>
      <trkpt lat="42.89302" lon="0.49828">
        <ele>1377.1</ele>
        <time>2017-07-13T06:34:47Z</time>
      </trkpt>
      <trkpt lat="42.89301" lon="0.49825">
        <ele>1377.3</ele>
        <time>2017-07-13T06:34:48Z</time>
      </trkpt>
      <trkpt lat="42.893" lon="0.49822">
        <ele>1377.5</ele>
        <time>2017-07-13T06:34:49Z</time>
      </trkpt>
      <trkpt lat="42.89299" lon="0.49819">
        <ele>1377.6</ele>
        <time>2017-07-13T06:34:50Z</time>
      </trkpt>
      <trkpt lat="42.89298" lon="0.49816">
        <ele>1377.7</ele>
        <time>2017-07-13T06:34:51Z</time>
      </trkpt>
      <trkpt lat="42.89298" lon="0.49814">
        <ele>1377.8</ele>
        <time>2017-07-13T06:34:52Z</time>
      </trkpt>
      <trkpt lat="42.89297" lon="0.49811">
        <ele>1377.9</ele>
        <time>2017-07-13T06:34:53Z</time>
      </trkpt>
      <trkpt lat="42.89296" lon="0.49808">
        <ele>1377.9</ele>
        <time>2017-07-13T06:34:54Z</time>
      </trkpt>
      <trkpt lat="42.89295" lon="0.49805">
        <ele>1378</ele>
        <time>2017-07-13T06:34:55Z</time>
      </trkpt>
      <trkpt lat="42.89294" lon="0.49802">
        <ele>1378.1</ele>
        <time>2017-07-13T06:34:56Z</time>
      </trkpt>
      <trkpt lat="42.89293" lon="0.49799">
        <ele>1378.3</ele>
        <time>2017-07-13T06:34:57Z</time>
      </trkpt>
      <trkpt lat="42.89292" lon="0.49796">
        <ele>1378.5</ele>
        <time>2017-07-13T06:34:58Z</time>
      </trkpt>
      <trkpt lat="42.89291" lon="0.49793">
        <ele>1378.7</ele>
        <time>2017-07-13T06:34:59Z</time>
      </trkpt>
      <trkpt lat="42.89289" lon="0.49791">
        <ele>1379</ele>
        <time>2017-07-13T06:35:00Z</time>
      </trkpt>
      <trkpt lat="42.89288" lon="0.49788">
        <ele>1379.4</ele>
        <time>2017-07-13T06:35:01Z</time>
      </trkpt>
      <trkpt lat="42.89286" lon="0.49785">
        <ele>1379.7</ele>
        <time>2017-07-13T06:35:02Z</time>
      </trkpt>
      <trkpt lat="42.89285" lon="0.49783">
        <ele>1380.1</ele>
        <time>2017-07-13T06:35:03Z</time>
      </trkpt>
      <trkpt lat="42.89283" lon="0.4978">
        <ele>1380.4</ele>
        <time>2017-07-13T06:35:04Z</time>
      </trkpt>
      <trkpt lat="42.89282" lon="0.49777">
        <ele>1380.8</ele>
        <time>2017-07-13T06:35:05Z</time>
      </trkpt>
      <trkpt lat="42.8928" lon="0.49775">
        <ele>1381.1</ele>
        <time>2017-07-13T06:35:06Z</time>
      </trkpt>
      <trkpt lat="42.89279" lon="0.49772">
        <ele>1381.4</ele>
        <time>2017-07-13T06:35:07Z</time>
      </trkpt>
      <trkpt lat="42.89277" lon="0.4977">
        <ele>1381.8</ele>
        <time>2017-07-13T06:35:08Z</time>
      </trkpt>
      <trkpt lat="42.89276" lon="0.49767">
        <ele>1382.2</ele>
        <time>2017-07-13T06:35:09Z</time>
      </trkpt>
      <trkpt lat="42.89274" lon="0.49764">
        <ele>1382.5</ele>
        <time>2017-07-13T06:35:10Z</time>
      </trkpt>
      <trkpt lat="42.89273" lon="0.49762">
        <ele>1382.8</ele>
        <time>2017-07-13T06:35:11Z</time>
      </trkpt>
      <trkpt lat="42.89271" lon="0.49759">
        <ele>1383.2</ele>
        <time>2017-07-13T06:35:12Z</time>
      </trkpt>
      <trkpt lat="42.8927" lon="0.49757">
        <ele>1383.4</ele>
        <time>2017-07-13T06:35:13Z</time>
      </trkpt>
      <trkpt lat="42.89268" lon="0.49754">
        <ele>1383.7</ele>
        <time>2017-07-13T06:35:14Z</time>
      </trkpt>
      <trkpt lat="42.89267" lon="0.49752">
        <ele>1383.9</ele>
        <time>2017-07-13T06:35:15Z</time>
      </trkpt>
      <trkpt lat="42.89265" lon="0.49749">
        <ele>1384.2</ele>
        <time>2017-07-13T06:35:16Z</time>
      </trkpt>
      <trkpt lat="42.89264" lon="0.49747">
        <ele>1384.5</ele>
        <time>2017-07-13T06:35:17Z</time>
      </trkpt>
      <trkpt lat="42.89262" lon="0.49744">
        <ele>1384.8</ele>
        <time>2017-07-13T06:35:18Z</time>
      </trkpt>
      <trkpt lat="42.89261" lon="0.49742">
        <ele>1385.2</ele>
        <time>2017-07-13T06:35:19Z</time>
      </trkpt>
      <trkpt lat="42.89259" lon="0.49739">
        <ele>1385.4</ele>
        <time>2017-07-13T06:35:20Z</time>
      </trkpt>
      <trkpt lat="42.89258" lon="0.49737">
        <ele>1385.7</ele>
        <time>2017-07-13T06:35:21Z</time>
      </trkpt>
      <trkpt lat="42.89257" lon="0.49734">
        <ele>1385.9</ele>
        <time>2017-07-13T06:35:22Z</time>
      </trkpt>
      <trkpt lat="42.89255" lon="0.49732">
        <ele>1386.2</ele>
        <time>2017-07-13T06:35:23Z</time>
      </trkpt>
      <trkpt lat="42.89254" lon="0.49729">
        <ele>1386.4</ele>
        <time>2017-07-13T06:35:24Z</time>
      </trkpt>
      <trkpt lat="42.89253" lon="0.49727">
        <ele>1386.6</ele>
        <time>2017-07-13T06:35:25Z</time>
      </trkpt>
      <trkpt lat="42.89251" lon="0.49724">
        <ele>1386.8</ele>
        <time>2017-07-13T06:35:26Z</time>
      </trkpt>
      <trkpt lat="42.8925" lon="0.49722">
        <ele>1387</ele>
        <time>2017-07-13T06:35:27Z</time>
      </trkpt>
      <trkpt lat="42.89249" lon="0.49719">
        <ele>1387.3</ele>
        <time>2017-07-13T06:35:28Z</time>
      </trkpt>
      <trkpt lat="42.89247" lon="0.49717">
        <ele>1387.6</ele>
        <time>2017-07-13T06:35:29Z</time>
      </trkpt>
      <trkpt lat="42.89246" lon="0.49714">
        <ele>1387.9</ele>
        <time>2017-07-13T06:35:30Z</time>
      </trkpt>
      <trkpt lat="42.89244" lon="0.49712">
        <ele>1388.1</ele>
        <time>2017-07-13T06:35:31Z</time>
      </trkpt>
      <trkpt lat="42.89243" lon="0.49709">
        <ele>1388.4</ele>
        <time>2017-07-13T06:35:32Z</time>
      </trkpt>
      <trkpt lat="42.89242" lon="0.49707">
        <ele>1388.7</ele>
        <time>2017-07-13T06:35:33Z</time>
      </trkpt>
      <trkpt lat="42.8924" lon="0.49704">
        <ele>1389</ele>
        <time>2017-07-13T06:35:34Z</time>
      </trkpt>
      <trkpt lat="42.89239" lon="0.49702">
        <ele>1389.3</ele>
        <time>2017-07-13T06:35:35Z</time>
      </trkpt>
      <trkpt lat="42.89237" lon="0.49699">
        <ele>1389.5</ele>
        <time>2017-07-13T06:35:36Z</time>
      </trkpt>
      <trkpt lat="42.89236" lon="0.49697">
        <ele>1389.8</ele>
        <time>2017-07-13T06:35:37Z</time>
      </trkpt>
      <trkpt lat="42.89234" lon="0.49694">
        <ele>1390.1</ele>
        <time>2017-07-13T06:35:38Z</time>
      </trkpt>
      <trkpt lat="42.89232" lon="0.49692">
        <ele>1390.4</ele>
        <time>2017-07-13T06:35:39Z</time>
      </trkpt>
      <trkpt lat="42.89231" lon="0.49689">
        <ele>1390.6</ele>
        <time>2017-07-13T06:35:40Z</time>
      </trkpt>
      <trkpt lat="42.89229" lon="0.49687">
        <ele>1390.9</ele>
        <time>2017-07-13T06:35:41Z</time>
      </trkpt>
      <trkpt lat="42.89227" lon="0.49684">
        <ele>1391.3</ele>
        <time>2017-07-13T06:35:42Z</time>
      </trkpt>
      <trkpt lat="42.89226" lon="0.49682">
        <ele>1391.5</ele>
        <time>2017-07-13T06:35:43Z</time>
      </trkpt>
      <trkpt lat="42.89224" lon="0.49679">
        <ele>1391.8</ele>
        <time>2017-07-13T06:35:44Z</time>
      </trkpt>
      <trkpt lat="42.89222" lon="0.49677">
        <ele>1392.1</ele>
        <time>2017-07-13T06:35:45Z</time>
      </trkpt>
      <trkpt lat="42.8922" lon="0.49674">
        <ele>1392.3</ele>
        <time>2017-07-13T06:35:46Z</time>
      </trkpt>
      <trkpt lat="42.89219" lon="0.49672">
        <ele>1392.5</ele>
        <time>2017-07-13T06:35:47Z</time>
      </trkpt>
      <trkpt lat="42.89217" lon="0.49669">
        <ele>1392.7</ele>
        <time>2017-07-13T06:35:48Z</time>
      </trkpt>
      <trkpt lat="42.89215" lon="0.49667">
        <ele>1392.8</ele>
        <time>2017-07-13T06:35:49Z</time>
      </trkpt>
      <trkpt lat="42.89214" lon="0.49664">
        <ele>1393.2</ele>
        <time>2017-07-13T06:35:50Z</time>
      </trkpt>
      <trkpt lat="42.89212" lon="0.49662">
        <ele>1393.5</ele>
        <time>2017-07-13T06:35:51Z</time>
      </trkpt>
      <trkpt lat="42.89211" lon="0.49659">
        <ele>1393.8</ele>
        <time>2017-07-13T06:35:52Z</time>
      </trkpt>
      <trkpt lat="42.89209" lon="0.49656">
        <ele>1394.1</ele>
        <time>2017-07-13T06:35:53Z</time>
      </trkpt>
      <trkpt lat="42.89208" lon="0.49653">
        <ele>1394.2</ele>
        <time>2017-07-13T06:35:54Z</time>
      </trkpt>
      <trkpt lat="42.89206" lon="0.49651">
        <ele>1394.4</ele>
        <time>2017-07-13T06:35:55Z</time>
      </trkpt>
      <trkpt lat="42.89205" lon="0.49648">
        <ele>1394.5</ele>
        <time>2017-07-13T06:35:56Z</time>
      </trkpt>
      <trkpt lat="42.89203" lon="0.49645">
        <ele>1394.7</ele>
        <time>2017-07-13T06:35:57Z</time>
      </trkpt>
      <trkpt lat="42.89202" lon="0.49642">
        <ele>1394.7</ele>
        <time>2017-07-13T06:35:58Z</time>
      </trkpt>
      <trkpt lat="42.89201" lon="0.49639">
        <ele>1394.8</ele>
        <time>2017-07-13T06:35:59Z</time>
      </trkpt>
      <trkpt lat="42.892" lon="0.49637">
        <ele>1394.8</ele>
        <time>2017-07-13T06:36:00Z</time>
      </trkpt>
      <trkpt lat="42.89198" lon="0.49634">
        <ele>1394.8</ele>
        <time>2017-07-13T06:36:01Z</time>
      </trkpt>
      <trkpt lat="42.89197" lon="0.49631">
        <ele>1394.8</ele>
        <time>2017-07-13T06:36:02Z</time>
      </trkpt>
      <trkpt lat="42.89196" lon="0.49628">
        <ele>1394.8</ele>
        <time>2017-07-13T06:36:03Z</time>
      </trkpt>
      <trkpt lat="42.89194" lon="0.49626">
        <ele>1394.8</ele>
        <time>2017-07-13T06:36:04Z</time>
      </trkpt>
      <trkpt lat="42.89193" lon="0.49623">
        <ele>1394.8</ele>
        <time>2017-07-13T06:36:05Z</time>
      </trkpt>
      <trkpt lat="42.89192" lon="0.49621">
        <ele>1394.9</ele>
        <time>2017-07-13T06:36:06Z</time>
      </trkpt>
      <trkpt lat="42.8919" lon="0.49618">
        <ele>1394.9</ele>
        <time>2017-07-13T06:36:07Z</time>
      </trkpt>
      <trkpt lat="42.89189" lon="0.49616">
        <ele>1395</ele>
        <time>2017-07-13T06:36:08Z</time>
      </trkpt>
      <trkpt lat="42.89187" lon="0.49614">
        <ele>1395.1</ele>
        <time>2017-07-13T06:36:09Z</time>
      </trkpt>
      <trkpt lat="42.89186" lon="0.49612">
        <ele>1395.1</ele>
        <time>2017-07-13T06:36:10Z</time>
      </trkpt>
      <trkpt lat="42.89184" lon="0.4961">
        <ele>1395.3</ele>
        <time>2017-07-13T06:36:11Z</time>
      </trkpt>
      <trkpt lat="42.89183" lon="0.49608">
        <ele>1395.4</ele>
        <time>2017-07-13T06:36:12Z</time>
      </trkpt>
      <trkpt lat="42.89181" lon="0.49606">
        <ele>1395.5</ele>
        <time>2017-07-13T06:36:13Z</time>
      </trkpt>
      <trkpt lat="42.89179" lon="0.49604">
        <ele>1395.7</ele>
        <time>2017-07-13T06:36:14Z</time>
      </trkpt>
      <trkpt lat="42.89178" lon="0.49602">
        <ele>1395.9</ele>
        <time>2017-07-13T06:36:15Z</time>
      </trkpt>
      <trkpt lat="42.89176" lon="0.496">
        <ele>1396.1</ele>
        <time>2017-07-13T06:36:16Z</time>
      </trkpt>
      <trkpt lat="42.89174" lon="0.49598">
        <ele>1396.3</ele>
        <time>2017-07-13T06:36:17Z</time>
      </trkpt>
      <trkpt lat="42.89172" lon="0.49597">
        <ele>1396.5</ele>
        <time>2017-07-13T06:36:18Z</time>
      </trkpt>
      <trkpt lat="42.8917" lon="0.49595">
        <ele>1396.8</ele>
        <time>2017-07-13T06:36:19Z</time>
      </trkpt>
      <trkpt lat="42.89168" lon="0.49593">
        <ele>1397</ele>
        <time>2017-07-13T06:36:20Z</time>
      </trkpt>
      <trkpt lat="42.89166" lon="0.49591">
        <ele>1397.4</ele>
        <time>2017-07-13T06:36:21Z</time>
      </trkpt>
      <trkpt lat="42.89164" lon="0.4959">
        <ele>1397.8</ele>
        <time>2017-07-13T06:36:22Z</time>
      </trkpt>
      <trkpt lat="42.89162" lon="0.49588">
        <ele>1398.2</ele>
        <time>2017-07-13T06:36:23Z</time>
      </trkpt>
      <trkpt lat="42.8916" lon="0.49586">
        <ele>1398.6</ele>
        <time>2017-07-13T06:36:24Z</time>
      </trkpt>
      <trkpt lat="42.89159" lon="0.49585">
        <ele>1398.8</ele>
        <time>2017-07-13T06:36:25Z</time>
      </trkpt>
      <trkpt lat="42.89157" lon="0.49583">
        <ele>1399.2</ele>
        <time>2017-07-13T06:36:26Z</time>
      </trkpt>
      <trkpt lat="42.89156" lon="0.49581">
        <ele>1399.8</ele>
        <time>2017-07-13T06:36:27Z</time>
      </trkpt>
      <trkpt lat="42.89154" lon="0.49579">
        <ele>1400.4</ele>
        <time>2017-07-13T06:36:28Z</time>
      </trkpt>
      <trkpt lat="42.89153" lon="0.49577">
        <ele>1401.1</ele>
        <time>2017-07-13T06:36:29Z</time>
      </trkpt>
      <trkpt lat="42.89151" lon="0.49575">
        <ele>1401.8</ele>
        <time>2017-07-13T06:36:30Z</time>
      </trkpt>
      <trkpt lat="42.89149" lon="0.49573">
        <ele>1402.5</ele>
        <time>2017-07-13T06:36:31Z</time>
      </trkpt>
      <trkpt lat="42.89148" lon="0.49571">
        <ele>1403.3</ele>
        <time>2017-07-13T06:36:32Z</time>
      </trkpt>
      <trkpt lat="42.89145" lon="0.49569">
        <ele>1404.2</ele>
        <time>2017-07-13T06:36:33Z</time>
      </trkpt>
      <trkpt lat="42.89143" lon="0.49568">
        <ele>1405</ele>
        <time>2017-07-13T06:36:34Z</time>
      </trkpt>
      <trkpt lat="42.89141" lon="0.49566">
        <ele>1405.9</ele>
        <time>2017-07-13T06:36:35Z</time>
      </trkpt>
      <trkpt lat="42.89139" lon="0.49566">
        <ele>1406.8</ele>
        <time>2017-07-13T06:36:36Z</time>
      </trkpt>
      <trkpt lat="42.89136" lon="0.49566">
        <ele>1407.7</ele>
        <time>2017-07-13T06:36:37Z</time>
      </trkpt>
      <trkpt lat="42.89134" lon="0.49566">
        <ele>1408.5</ele>
        <time>2017-07-13T06:36:38Z</time>
      </trkpt>
      <trkpt lat="42.89132" lon="0.49567">
        <ele>1409.3</ele>
        <time>2017-07-13T06:36:39Z</time>
      </trkpt>
      <trkpt lat="42.89131" lon="0.49569">
        <ele>1410.1</ele>
        <time>2017-07-13T06:36:40Z</time>
      </trkpt>
      <trkpt lat="42.89129" lon="0.49571">
        <ele>1410.8</ele>
        <time>2017-07-13T06:36:41Z</time>
      </trkpt>
      <trkpt lat="42.89128" lon="0.49573">
        <ele>1411.4</ele>
        <time>2017-07-13T06:36:42Z</time>
      </trkpt>
      <trkpt lat="42.89127" lon="0.49576">
        <ele>1411.8</ele>
        <time>2017-07-13T06:36:43Z</time>
      </trkpt>
      <trkpt lat="42.89127" lon="0.49579">
        <ele>1412</ele>
        <time>2017-07-13T06:36:44Z</time>
      </trkpt>
      <trkpt lat="42.89127" lon="0.49582">
        <ele>1412</ele>
        <time>2017-07-13T06:36:45Z</time>
      </trkpt>
      <trkpt lat="42.89128" lon="0.49585">
        <ele>1412.2</ele>
        <time>2017-07-13T06:36:46Z</time>
      </trkpt>
      <trkpt lat="42.89129" lon="0.49588">
        <ele>1412.6</ele>
        <time>2017-07-13T06:36:47Z</time>
      </trkpt>
      <trkpt lat="42.8913" lon="0.4959">
        <ele>1412.9</ele>
        <time>2017-07-13T06:36:48Z</time>
      </trkpt>
      <trkpt lat="42.89131" lon="0.49593">
        <ele>1413.2</ele>
        <time>2017-07-13T06:36:49Z</time>
      </trkpt>
      <trkpt lat="42.89132" lon="0.49596">
        <ele>1413.5</ele>
        <time>2017-07-13T06:36:50Z</time>
      </trkpt>
      <trkpt lat="42.89133" lon="0.49599">
        <ele>1413.7</ele>
        <time>2017-07-13T06:36:51Z</time>
      </trkpt>
      <trkpt lat="42.89134" lon="0.49602">
        <ele>1413.9</ele>
        <time>2017-07-13T06:36:52Z</time>
      </trkpt>
      <trkpt lat="42.89135" lon="0.49604">
        <ele>1414.1</ele>
        <time>2017-07-13T06:36:53Z</time>
      </trkpt>
      <trkpt lat="42.89137" lon="0.49607">
        <ele>1414.2</ele>
        <time>2017-07-13T06:36:54Z</time>
      </trkpt>
      <trkpt lat="42.89138" lon="0.49609">
        <ele>1414.4</ele>
        <time>2017-07-13T06:36:55Z</time>
      </trkpt>
      <trkpt lat="42.89139" lon="0.49612">
        <ele>1414.6</ele>
        <time>2017-07-13T06:36:56Z</time>
      </trkpt>
      <trkpt lat="42.8914" lon="0.49614">
        <ele>1414.7</ele>
        <time>2017-07-13T06:36:57Z</time>
      </trkpt>
      <trkpt lat="42.89141" lon="0.49617">
        <ele>1414.8</ele>
        <time>2017-07-13T06:36:58Z</time>
      </trkpt>
      <trkpt lat="42.89142" lon="0.49619">
        <ele>1414.9</ele>
        <time>2017-07-13T06:36:59Z</time>
      </trkpt>
      <trkpt lat="42.89143" lon="0.49621">
        <ele>1415.1</ele>
        <time>2017-07-13T06:37:00Z</time>
      </trkpt>
      <trkpt lat="42.89144" lon="0.49624">
        <ele>1415.2</ele>
        <time>2017-07-13T06:37:01Z</time>
      </trkpt>
      <trkpt lat="42.89145" lon="0.49626">
        <ele>1415.3</ele>
        <time>2017-07-13T06:37:02Z</time>
      </trkpt>
      <trkpt lat="42.89146" lon="0.49628">
        <ele>1415.4</ele>
        <time>2017-07-13T06:37:03Z</time>
      </trkpt>
      <trkpt lat="42.89148" lon="0.49631">
        <ele>1415.4</ele>
        <time>2017-07-13T06:37:04Z</time>
      </trkpt>
      <trkpt lat="42.89149" lon="0.49633">
        <ele>1415.5</ele>
        <time>2017-07-13T06:37:05Z</time>
      </trkpt>
      <trkpt lat="42.8915" lon="0.49636">
        <ele>1415.6</ele>
        <time>2017-07-13T06:37:06Z</time>
      </trkpt>
      <trkpt lat="42.89151" lon="0.49638">
        <ele>1415.7</ele>
        <time>2017-07-13T06:37:07Z</time>
      </trkpt>
      <trkpt lat="42.89152" lon="0.4964">
        <ele>1415.8</ele>
        <time>2017-07-13T06:37:08Z</time>
      </trkpt>
      <trkpt lat="42.89153" lon="0.49643">
        <ele>1415.9</ele>
        <time>2017-07-13T06:37:09Z</time>
      </trkpt>
      <trkpt lat="42.89154" lon="0.49645">
        <ele>1416</ele>
        <time>2017-07-13T06:37:10Z</time>
      </trkpt>
      <trkpt lat="42.89155" lon="0.49648">
        <ele>1416.1</ele>
        <time>2017-07-13T06:37:11Z</time>
      </trkpt>
      <trkpt lat="42.89156" lon="0.4965">
        <ele>1416.2</ele>
        <time>2017-07-13T06:37:12Z</time>
      </trkpt>
      <trkpt lat="42.89157" lon="0.49653">
        <ele>1416.3</ele>
        <time>2017-07-13T06:37:13Z</time>
      </trkpt>
      <trkpt lat="42.89158" lon="0.49655">
        <ele>1416.4</ele>
        <time>2017-07-13T06:37:14Z</time>
      </trkpt>
      <trkpt lat="42.89159" lon="0.49658">
        <ele>1416.6</ele>
        <time>2017-07-13T06:37:15Z</time>
      </trkpt>
      <trkpt lat="42.8916" lon="0.4966">
        <ele>1416.6</ele>
        <time>2017-07-13T06:37:16Z</time>
      </trkpt>
      <trkpt lat="42.89161" lon="0.49663">
        <ele>1416.8</ele>
        <time>2017-07-13T06:37:17Z</time>
      </trkpt>
      <trkpt lat="42.89162" lon="0.49666">
        <ele>1416.9</ele>
        <time>2017-07-13T06:37:18Z</time>
      </trkpt>
      <trkpt lat="42.89163" lon="0.49668">
        <ele>1417.2</ele>
        <time>2017-07-13T06:37:19Z</time>
      </trkpt>
      <trkpt lat="42.89164" lon="0.49671">
        <ele>1417.6</ele>
        <time>2017-07-13T06:37:20Z</time>
      </trkpt>
      <trkpt lat="42.89165" lon="0.49674">
        <ele>1418</ele>
        <time>2017-07-13T06:37:21Z</time>
      </trkpt>
      <trkpt lat="42.89166" lon="0.49676">
        <ele>1418.4</ele>
        <time>2017-07-13T06:37:22Z</time>
      </trkpt>
      <trkpt lat="42.89167" lon="0.49679">
        <ele>1418.9</ele>
        <time>2017-07-13T06:37:23Z</time>
      </trkpt>
      <trkpt lat="42.89168" lon="0.49682">
        <ele>1419.3</ele>
        <time>2017-07-13T06:37:24Z</time>
      </trkpt>
      <trkpt lat="42.89169" lon="0.49684">
        <ele>1419.8</ele>
        <time>2017-07-13T06:37:25Z</time>
      </trkpt>
      <trkpt lat="42.8917" lon="0.49687">
        <ele>1420.2</ele>
        <time>2017-07-13T06:37:26Z</time>
      </trkpt>
      <trkpt lat="42.89171" lon="0.4969">
        <ele>1420.6</ele>
        <time>2017-07-13T06:37:27Z</time>
      </trkpt>
      <trkpt lat="42.89172" lon="0.49693">
        <ele>1421.1</ele>
        <time>2017-07-13T06:37:28Z</time>
      </trkpt>
      <trkpt lat="42.89173" lon="0.49696">
        <ele>1421.5</ele>
        <time>2017-07-13T06:37:29Z</time>
      </trkpt>
      <trkpt lat="42.89174" lon="0.49698">
        <ele>1422</ele>
        <time>2017-07-13T06:37:30Z</time>
      </trkpt>
      <trkpt lat="42.89175" lon="0.49701">
        <ele>1422.4</ele>
        <time>2017-07-13T06:37:31Z</time>
      </trkpt>
      <trkpt lat="42.89176" lon="0.49704">
        <ele>1422.8</ele>
        <time>2017-07-13T06:37:32Z</time>
      </trkpt>
      <trkpt lat="42.89177" lon="0.49707">
        <ele>1423.2</ele>
        <time>2017-07-13T06:37:33Z</time>
      </trkpt>
      <trkpt lat="42.89178" lon="0.4971">
        <ele>1423.6</ele>
        <time>2017-07-13T06:37:34Z</time>
      </trkpt>
      <trkpt lat="42.89178" lon="0.49712">
        <ele>1424</ele>
        <time>2017-07-13T06:37:35Z</time>
      </trkpt>
      <trkpt lat="42.89179" lon="0.49715">
        <ele>1424.4</ele>
        <time>2017-07-13T06:37:36Z</time>
      </trkpt>
      <trkpt lat="42.8918" lon="0.49718">
        <ele>1424.8</ele>
        <time>2017-07-13T06:37:37Z</time>
      </trkpt>
      <trkpt lat="42.89181" lon="0.49721">
        <ele>1425.1</ele>
        <time>2017-07-13T06:37:38Z</time>
      </trkpt>
      <trkpt lat="42.89182" lon="0.49724">
        <ele>1425.5</ele>
        <time>2017-07-13T06:37:39Z</time>
      </trkpt>
      <trkpt lat="42.89183" lon="0.49727">
        <ele>1425.9</ele>
        <time>2017-07-13T06:37:40Z</time>
      </trkpt>
      <trkpt lat="42.89184" lon="0.49729">
        <ele>1426.1</ele>
        <time>2017-07-13T06:37:41Z</time>
      </trkpt>
      <trkpt lat="42.89185" lon="0.49732">
        <ele>1426.5</ele>
        <time>2017-07-13T06:37:42Z</time>
      </trkpt>
      <trkpt lat="42.89186" lon="0.49735">
        <ele>1426.7</ele>
        <time>2017-07-13T06:37:43Z</time>
      </trkpt>
      <trkpt lat="42.89187" lon="0.49738">
        <ele>1427.1</ele>
        <time>2017-07-13T06:37:44Z</time>
      </trkpt>
      <trkpt lat="42.89188" lon="0.49741">
        <ele>1427.3</ele>
        <time>2017-07-13T06:37:45Z</time>
      </trkpt>
      <trkpt lat="42.89189" lon="0.49744">
        <ele>1427.5</ele>
        <time>2017-07-13T06:37:46Z</time>
      </trkpt>
      <trkpt lat="42.8919" lon="0.49746">
        <ele>1427.8</ele>
        <time>2017-07-13T06:37:47Z</time>
      </trkpt>
      <trkpt lat="42.89191" lon="0.49749">
        <ele>1428</ele>
        <time>2017-07-13T06:37:48Z</time>
      </trkpt>
      <trkpt lat="42.89192" lon="0.49752">
        <ele>1428.2</ele>
        <time>2017-07-13T06:37:49Z</time>
      </trkpt>
      <trkpt lat="42.89193" lon="0.49755">
        <ele>1428.5</ele>
        <time>2017-07-13T06:37:50Z</time>
      </trkpt>
      <trkpt lat="42.89194" lon="0.49757">
        <ele>1428.8</ele>
        <time>2017-07-13T06:37:51Z</time>
      </trkpt>
      <trkpt lat="42.89195" lon="0.4976">
        <ele>1429.1</ele>
        <time>2017-07-13T06:37:52Z</time>
      </trkpt>
      <trkpt lat="42.89196" lon="0.49763">
        <ele>1429.4</ele>
        <time>2017-07-13T06:37:53Z</time>
      </trkpt>
      <trkpt lat="42.89197" lon="0.49766">
        <ele>1429.6</ele>
        <time>2017-07-13T06:37:54Z</time>
      </trkpt>
      <trkpt lat="42.89198" lon="0.49769">
        <ele>1429.9</ele>
        <time>2017-07-13T06:37:55Z</time>
      </trkpt>
      <trkpt lat="42.89199" lon="0.49771">
        <ele>1430.1</ele>
        <time>2017-07-13T06:37:56Z</time>
      </trkpt>
      <trkpt lat="42.892" lon="0.49774">
        <ele>1430.4</ele>
        <time>2017-07-13T06:37:57Z</time>
      </trkpt>
      <trkpt lat="42.89201" lon="0.49777">
        <ele>1430.7</ele>
        <time>2017-07-13T06:37:58Z</time>
      </trkpt>
      <trkpt lat="42.89202" lon="0.4978">
        <ele>1431</ele>
        <time>2017-07-13T06:37:59Z</time>
      </trkpt>
      <trkpt lat="42.89203" lon="0.49783">
        <ele>1431.3</ele>
        <time>2017-07-13T06:38:00Z</time>
      </trkpt>
      <trkpt lat="42.89203" lon="0.49785">
        <ele>1431.6</ele>
        <time>2017-07-13T06:38:01Z</time>
      </trkpt>
      <trkpt lat="42.89204" lon="0.49788">
        <ele>1431.9</ele>
        <time>2017-07-13T06:38:02Z</time>
      </trkpt>
      <trkpt lat="42.89205" lon="0.49791">
        <ele>1432.2</ele>
        <time>2017-07-13T06:38:03Z</time>
      </trkpt>
      <trkpt lat="42.89206" lon="0.49794">
        <ele>1432.5</ele>
        <time>2017-07-13T06:38:04Z</time>
      </trkpt>
      <trkpt lat="42.89207" lon="0.49797">
        <ele>1432.9</ele>
        <time>2017-07-13T06:38:05Z</time>
      </trkpt>
      <trkpt lat="42.89208" lon="0.498">
        <ele>1433</ele>
        <time>2017-07-13T06:38:06Z</time>
      </trkpt>
      <trkpt lat="42.89209" lon="0.49802">
        <ele>1433.3</ele>
        <time>2017-07-13T06:38:07Z</time>
      </trkpt>
      <trkpt lat="42.8921" lon="0.49805">
        <ele>1433.5</ele>
        <time>2017-07-13T06:38:08Z</time>
      </trkpt>
      <trkpt lat="42.89211" lon="0.49808">
        <ele>1433.7</ele>
        <time>2017-07-13T06:38:09Z</time>
      </trkpt>
      <trkpt lat="42.89212" lon="0.49811">
        <ele>1433.8</ele>
        <time>2017-07-13T06:38:10Z</time>
      </trkpt>
      <trkpt lat="42.89213" lon="0.49814">
        <ele>1434</ele>
        <time>2017-07-13T06:38:11Z</time>
      </trkpt>
      <trkpt lat="42.89214" lon="0.49816">
        <ele>1434.2</ele>
        <time>2017-07-13T06:38:12Z</time>
      </trkpt>
      <trkpt lat="42.89215" lon="0.49819">
        <ele>1434.2</ele>
        <time>2017-07-13T06:38:13Z</time>
      </trkpt>
      <trkpt lat="42.89215" lon="0.49822">
        <ele>1434.4</ele>
        <time>2017-07-13T06:38:14Z</time>
      </trkpt>
      <trkpt lat="42.89216" lon="0.49824">
        <ele>1434.5</ele>
        <time>2017-07-13T06:38:15Z</time>
      </trkpt>
      <trkpt lat="42.89217" lon="0.49827">
        <ele>1434.7</ele>
        <time>2017-07-13T06:38:16Z</time>
      </trkpt>
      <trkpt lat="42.89218" lon="0.49829">
        <ele>1434.8</ele>
        <time>2017-07-13T06:38:17Z</time>
      </trkpt>
      <trkpt lat="42.89219" lon="0.49832">
        <ele>1435</ele>
        <time>2017-07-13T06:38:18Z</time>
      </trkpt>
      <trkpt lat="42.8922" lon="0.49835">
        <ele>1435</ele>
        <time>2017-07-13T06:38:19Z</time>
      </trkpt>
      <trkpt lat="42.89221" lon="0.49838">
        <ele>1434.7</ele>
        <time>2017-07-13T06:38:20Z</time>
      </trkpt>
      <trkpt lat="42.89222" lon="0.49841">
        <ele>1434.5</ele>
        <time>2017-07-13T06:38:21Z</time>
      </trkpt>
      <trkpt lat="42.89223" lon="0.49844">
        <ele>1434.4</ele>
        <time>2017-07-13T06:38:22Z</time>
      </trkpt>
      <trkpt lat="42.89224" lon="0.49847">
        <ele>1434.2</ele>
        <time>2017-07-13T06:38:23Z</time>
      </trkpt>
      <trkpt lat="42.89225" lon="0.49849">
        <ele>1434.1</ele>
        <time>2017-07-13T06:38:24Z</time>
      </trkpt>
      <trkpt lat="42.89226" lon="0.49852">
        <ele>1433.9</ele>
        <time>2017-07-13T06:38:25Z</time>
      </trkpt>
      <trkpt lat="42.89227" lon="0.49855">
        <ele>1433.8</ele>
        <time>2017-07-13T06:38:26Z</time>
      </trkpt>
      <trkpt lat="42.89228" lon="0.49858">
        <ele>1433.6</ele>
        <time>2017-07-13T06:38:27Z</time>
      </trkpt>
      <trkpt lat="42.89229" lon="0.49861">
        <ele>1433.4</ele>
        <time>2017-07-13T06:38:28Z</time>
      </trkpt>
      <trkpt lat="42.8923" lon="0.49864">
        <ele>1433.3</ele>
        <time>2017-07-13T06:38:29Z</time>
      </trkpt>
      <trkpt lat="42.89231" lon="0.49867">
        <ele>1433.1</ele>
        <time>2017-07-13T06:38:30Z</time>
      </trkpt>
      <trkpt lat="42.89231" lon="0.49869">
        <ele>1433</ele>
        <time>2017-07-13T06:38:31Z</time>
      </trkpt>
      <trkpt lat="42.89232" lon="0.49872">
        <ele>1433</ele>
        <time>2017-07-13T06:38:32Z</time>
      </trkpt>
      <trkpt lat="42.89233" lon="0.49875">
        <ele>1432.8</ele>
        <time>2017-07-13T06:38:33Z</time>
      </trkpt>
      <trkpt lat="42.89234" lon="0.49878">
        <ele>1432.8</ele>
        <time>2017-07-13T06:38:34Z</time>
      </trkpt>
      <trkpt lat="42.89235" lon="0.49881">
        <ele>1432.8</ele>
        <time>2017-07-13T06:38:35Z</time>
      </trkpt>
      <trkpt lat="42.89236" lon="0.49883">
        <ele>1432.7</ele>
        <time>2017-07-13T06:38:36Z</time>
      </trkpt>
      <trkpt lat="42.89236" lon="0.49886">
        <ele>1432.7</ele>
        <time>2017-07-13T06:38:37Z</time>
      </trkpt>
      <trkpt lat="42.89237" lon="0.49889">
        <ele>1432.7</ele>
        <time>2017-07-13T06:38:38Z</time>
      </trkpt>
      <trkpt lat="42.89238" lon="0.49892">
        <ele>1432.8</ele>
        <time>2017-07-13T06:38:39Z</time>
      </trkpt>
      <trkpt lat="42.89239" lon="0.49895">
        <ele>1432.9</ele>
        <time>2017-07-13T06:38:40Z</time>
      </trkpt>
      <trkpt lat="42.89239" lon="0.49898">
        <ele>1432.9</ele>
        <time>2017-07-13T06:38:41Z</time>
      </trkpt>
      <trkpt lat="42.8924" lon="0.49901">
        <ele>1433.1</ele>
        <time>2017-07-13T06:38:42Z</time>
      </trkpt>
      <trkpt lat="42.8924" lon="0.49905">
        <ele>1433.3</ele>
        <time>2017-07-13T06:38:43Z</time>
      </trkpt>
      <trkpt lat="42.89241" lon="0.49908">
        <ele>1433.5</ele>
        <time>2017-07-13T06:38:44Z</time>
      </trkpt>
      <trkpt lat="42.89242" lon="0.49911">
        <ele>1433.7</ele>
        <time>2017-07-13T06:38:45Z</time>
      </trkpt>
      <trkpt lat="42.89242" lon="0.49914">
        <ele>1433.9</ele>
        <time>2017-07-13T06:38:46Z</time>
      </trkpt>
      <trkpt lat="42.89242" lon="0.49917">
        <ele>1434.2</ele>
        <time>2017-07-13T06:38:47Z</time>
      </trkpt>
      <trkpt lat="42.89243" lon="0.4992">
        <ele>1433.7</ele>
        <time>2017-07-13T06:38:48Z</time>
      </trkpt>
      <trkpt lat="42.89243" lon="0.49923">
        <ele>1433.3</ele>
        <time>2017-07-13T06:38:49Z</time>
      </trkpt>
      <trkpt lat="42.89243" lon="0.49926">
        <ele>1432.9</ele>
        <time>2017-07-13T06:38:50Z</time>
      </trkpt>
      <trkpt lat="42.89244" lon="0.49929">
        <ele>1432.5</ele>
        <time>2017-07-13T06:38:51Z</time>
      </trkpt>
      <trkpt lat="42.89244" lon="0.49932">
        <ele>1432.3</ele>
        <time>2017-07-13T06:38:52Z</time>
      </trkpt>
      <trkpt lat="42.89244" lon="0.49935">
        <ele>1432</ele>
        <time>2017-07-13T06:38:53Z</time>
      </trkpt>
      <trkpt lat="42.89244" lon="0.49938">
        <ele>1431.8</ele>
        <time>2017-07-13T06:38:54Z</time>
      </trkpt>
      <trkpt lat="42.89244" lon="0.49941">
        <ele>1431.6</ele>
        <time>2017-07-13T06:38:55Z</time>
      </trkpt>
      <trkpt lat="42.89244" lon="0.49944">
        <ele>1431.6</ele>
        <time>2017-07-13T06:38:56Z</time>
      </trkpt>
      <trkpt lat="42.89244" lon="0.49947">
        <ele>1431.4</ele>
        <time>2017-07-13T06:38:57Z</time>
      </trkpt>
      <trkpt lat="42.89243" lon="0.4995">
        <ele>1431.4</ele>
        <time>2017-07-13T06:38:58Z</time>
      </trkpt>
      <trkpt lat="42.89243" lon="0.49953">
        <ele>1431.4</ele>
        <time>2017-07-13T06:38:59Z</time>
      </trkpt>
      <trkpt lat="42.89243" lon="0.49955">
        <ele>1431.5</ele>
        <time>2017-07-13T06:39:00Z</time>
      </trkpt>
      <trkpt lat="42.89242" lon="0.49958">
        <ele>1431.6</ele>
        <time>2017-07-13T06:39:01Z</time>
      </trkpt>
      <trkpt lat="42.89242" lon="0.49961">
        <ele>1431.7</ele>
        <time>2017-07-13T06:39:02Z</time>
      </trkpt>
      <trkpt lat="42.89241" lon="0.49964">
        <ele>1431.9</ele>
        <time>2017-07-13T06:39:03Z</time>
      </trkpt>
      <trkpt lat="42.89241" lon="0.49966">
        <ele>1432.1</ele>
        <time>2017-07-13T06:39:04Z</time>
      </trkpt>
      <trkpt lat="42.8924" lon="0.49969">
        <ele>1432.2</ele>
        <time>2017-07-13T06:39:05Z</time>
      </trkpt>
      <trkpt lat="42.89239" lon="0.49971">
        <ele>1432.5</ele>
        <time>2017-07-13T06:39:06Z</time>
      </trkpt>
      <trkpt lat="42.89239" lon="0.49974">
        <ele>1432.8</ele>
        <time>2017-07-13T06:39:07Z</time>
      </trkpt>
      <trkpt lat="42.89238" lon="0.49976">
        <ele>1433.1</ele>
        <time>2017-07-13T06:39:08Z</time>
      </trkpt>
      <trkpt lat="42.89237" lon="0.49979">
        <ele>1433.4</ele>
        <time>2017-07-13T06:39:09Z</time>
      </trkpt>
      <trkpt lat="42.89236" lon="0.49981">
        <ele>1433.8</ele>
        <time>2017-07-13T06:39:10Z</time>
      </trkpt>
      <trkpt lat="42.89235" lon="0.49983">
        <ele>1434.2</ele>
        <time>2017-07-13T06:39:11Z</time>
      </trkpt>
      <trkpt lat="42.89234" lon="0.49985">
        <ele>1434.6</ele>
        <time>2017-07-13T06:39:12Z</time>
      </trkpt>
      <trkpt lat="42.89233" lon="0.49988">
        <ele>1435</ele>
        <time>2017-07-13T06:39:13Z</time>
      </trkpt>
      <trkpt lat="42.89232" lon="0.4999">
        <ele>1435.5</ele>
        <time>2017-07-13T06:39:14Z</time>
      </trkpt>
      <trkpt lat="42.89231" lon="0.49992">
        <ele>1435.9</ele>
        <time>2017-07-13T06:39:15Z</time>
      </trkpt>
      <trkpt lat="42.8923" lon="0.49994">
        <ele>1436.5</ele>
        <time>2017-07-13T06:39:16Z</time>
      </trkpt>
      <trkpt lat="42.89229" lon="0.49995">
        <ele>1436.9</ele>
        <time>2017-07-13T06:39:17Z</time>
      </trkpt>
      <trkpt lat="42.89228" lon="0.49997">
        <ele>1437.4</ele>
        <time>2017-07-13T06:39:18Z</time>
      </trkpt>
      <trkpt lat="42.89227" lon="0.49999">
        <ele>1437.9</ele>
        <time>2017-07-13T06:39:19Z</time>
      </trkpt>
      <trkpt lat="42.89226" lon="0.50001">
        <ele>1438.4</ele>
        <time>2017-07-13T06:39:20Z</time>
      </trkpt>
      <trkpt lat="42.89225" lon="0.50002">
        <ele>1438.7</ele>
        <time>2017-07-13T06:39:21Z</time>
      </trkpt>
      <trkpt lat="42.89223" lon="0.50004">
        <ele>1439.1</ele>
        <time>2017-07-13T06:39:22Z</time>
      </trkpt>
      <trkpt lat="42.89222" lon="0.50006">
        <ele>1439.4</ele>
        <time>2017-07-13T06:39:23Z</time>
      </trkpt>
      <trkpt lat="42.89221" lon="0.50007">
        <ele>1439.7</ele>
        <time>2017-07-13T06:39:24Z</time>
      </trkpt>
      <trkpt lat="42.8922" lon="0.50009">
        <ele>1440.1</ele>
        <time>2017-07-13T06:39:25Z</time>
      </trkpt>
      <trkpt lat="42.89219" lon="0.50011">
        <ele>1440.4</ele>
        <time>2017-07-13T06:39:26Z</time>
      </trkpt>
      <trkpt lat="42.89217" lon="0.50012">
        <ele>1440.8</ele>
        <time>2017-07-13T06:39:27Z</time>
      </trkpt>
      <trkpt lat="42.89216" lon="0.50014">
        <ele>1441.1</ele>
        <time>2017-07-13T06:39:28Z</time>
      </trkpt>
      <trkpt lat="42.89215" lon="0.50016">
        <ele>1441.4</ele>
        <time>2017-07-13T06:39:29Z</time>
      </trkpt>
      <trkpt lat="42.89213" lon="0.50018">
        <ele>1441.7</ele>
        <time>2017-07-13T06:39:30Z</time>
      </trkpt>
      <trkpt lat="42.89212" lon="0.5002">
        <ele>1442</ele>
        <time>2017-07-13T06:39:31Z</time>
      </trkpt>
      <trkpt lat="42.89211" lon="0.50022">
        <ele>1442.3</ele>
        <time>2017-07-13T06:39:32Z</time>
      </trkpt>
      <trkpt lat="42.89209" lon="0.50024">
        <ele>1442.6</ele>
        <time>2017-07-13T06:39:33Z</time>
      </trkpt>
      <trkpt lat="42.89208" lon="0.50026">
        <ele>1442.9</ele>
        <time>2017-07-13T06:39:34Z</time>
      </trkpt>
      <trkpt lat="42.89207" lon="0.50028">
        <ele>1443.1</ele>
        <time>2017-07-13T06:39:35Z</time>
      </trkpt>
      <trkpt lat="42.89205" lon="0.5003">
        <ele>1443.4</ele>
        <time>2017-07-13T06:39:36Z</time>
      </trkpt>
      <trkpt lat="42.89204" lon="0.50033">
        <ele>1443.6</ele>
        <time>2017-07-13T06:39:37Z</time>
      </trkpt>
      <trkpt lat="42.89202" lon="0.50035">
        <ele>1444</ele>
        <time>2017-07-13T06:39:38Z</time>
      </trkpt>
      <trkpt lat="42.89201" lon="0.50037">
        <ele>1444.2</ele>
        <time>2017-07-13T06:39:39Z</time>
      </trkpt>
      <trkpt lat="42.89199" lon="0.5004">
        <ele>1444.5</ele>
        <time>2017-07-13T06:39:40Z</time>
      </trkpt>
      <trkpt lat="42.89197" lon="0.50042">
        <ele>1444.8</ele>
        <time>2017-07-13T06:39:41Z</time>
      </trkpt>
      <trkpt lat="42.89196" lon="0.50044">
        <ele>1445.1</ele>
        <time>2017-07-13T06:39:42Z</time>
      </trkpt>
      <trkpt lat="42.89194" lon="0.50047">
        <ele>1445.3</ele>
        <time>2017-07-13T06:39:43Z</time>
      </trkpt>
      <trkpt lat="42.89192" lon="0.50049">
        <ele>1445.7</ele>
        <time>2017-07-13T06:39:44Z</time>
      </trkpt>
      <trkpt lat="42.8919" lon="0.50052">
        <ele>1445.9</ele>
        <time>2017-07-13T06:39:45Z</time>
      </trkpt>
      <trkpt lat="42.89188" lon="0.50054">
        <ele>1446.2</ele>
        <time>2017-07-13T06:39:46Z</time>
      </trkpt>
      <trkpt lat="42.89187" lon="0.50057">
        <ele>1446.5</ele>
        <time>2017-07-13T06:39:47Z</time>
      </trkpt>
      <trkpt lat="42.89185" lon="0.50059">
        <ele>1446.8</ele>
        <time>2017-07-13T06:39:48Z</time>
      </trkpt>
      <trkpt lat="42.89183" lon="0.50062">
        <ele>1447.1</ele>
        <time>2017-07-13T06:39:49Z</time>
      </trkpt>
      <trkpt lat="42.89181" lon="0.50064">
        <ele>1447.4</ele>
        <time>2017-07-13T06:39:50Z</time>
      </trkpt>
      <trkpt lat="42.89179" lon="0.50067">
        <ele>1447.7</ele>
        <time>2017-07-13T06:39:51Z</time>
      </trkpt>
      <trkpt lat="42.89177" lon="0.50069">
        <ele>1448</ele>
        <time>2017-07-13T06:39:52Z</time>
      </trkpt>
      <trkpt lat="42.89175" lon="0.50072">
        <ele>1448.3</ele>
        <time>2017-07-13T06:39:53Z</time>
      </trkpt>
      <trkpt lat="42.89173" lon="0.50074">
        <ele>1448.6</ele>
        <time>2017-07-13T06:39:54Z</time>
      </trkpt>
      <trkpt lat="42.89171" lon="0.50076">
        <ele>1448.9</ele>
        <time>2017-07-13T06:39:55Z</time>
      </trkpt>
      <trkpt lat="42.89169" lon="0.50079">
        <ele>1449.2</ele>
        <time>2017-07-13T06:39:56Z</time>
      </trkpt>
      <trkpt lat="42.89167" lon="0.50081">
        <ele>1449.4</ele>
        <time>2017-07-13T06:39:57Z</time>
      </trkpt>
      <trkpt lat="42.89165" lon="0.50083">
        <ele>1450</ele>
        <time>2017-07-13T06:39:58Z</time>
      </trkpt>
      <trkpt lat="42.89163" lon="0.50086">
        <ele>1450.4</ele>
        <time>2017-07-13T06:39:59Z</time>
      </trkpt>
      <trkpt lat="42.89161" lon="0.50088">
        <ele>1450.9</ele>
        <time>2017-07-13T06:40:00Z</time>
      </trkpt>
      <trkpt lat="42.89159" lon="0.5009">
        <ele>1451.3</ele>
        <time>2017-07-13T06:40:01Z</time>
      </trkpt>
      <trkpt lat="42.89158" lon="0.50092">
        <ele>1451.7</ele>
        <time>2017-07-13T06:40:02Z</time>
      </trkpt>
      <trkpt lat="42.89156" lon="0.50095">
        <ele>1452.1</ele>
        <time>2017-07-13T06:40:03Z</time>
      </trkpt>
      <trkpt lat="42.89154" lon="0.50097">
        <ele>1452.5</ele>
        <time>2017-07-13T06:40:04Z</time>
      </trkpt>
      <trkpt lat="42.89152" lon="0.50099">
        <ele>1452.9</ele>
        <time>2017-07-13T06:40:05Z</time>
      </trkpt>
      <trkpt lat="42.8915" lon="0.50101">
        <ele>1453.3</ele>
        <time>2017-07-13T06:40:06Z</time>
      </trkpt>
      <trkpt lat="42.89148" lon="0.50103">
        <ele>1453.6</ele>
        <time>2017-07-13T06:40:07Z</time>
      </trkpt>
      <trkpt lat="42.89146" lon="0.50106">
        <ele>1453.9</ele>
        <time>2017-07-13T06:40:08Z</time>
      </trkpt>
      <trkpt lat="42.89145" lon="0.50108">
        <ele>1454.2</ele>
        <time>2017-07-13T06:40:09Z</time>
      </trkpt>
      <trkpt lat="42.89143" lon="0.5011">
        <ele>1454.5</ele>
        <time>2017-07-13T06:40:10Z</time>
      </trkpt>
      <trkpt lat="42.89141" lon="0.50113">
        <ele>1454.8</ele>
        <time>2017-07-13T06:40:11Z</time>
      </trkpt>
      <trkpt lat="42.89139" lon="0.50115">
        <ele>1455</ele>
        <time>2017-07-13T06:40:12Z</time>
      </trkpt>
      <trkpt lat="42.89137" lon="0.50117">
        <ele>1455.3</ele>
        <time>2017-07-13T06:40:13Z</time>
      </trkpt>
      <trkpt lat="42.89136" lon="0.5012">
        <ele>1455.5</ele>
        <time>2017-07-13T06:40:14Z</time>
      </trkpt>
      <trkpt lat="42.89134" lon="0.50122">
        <ele>1455.8</ele>
        <time>2017-07-13T06:40:15Z</time>
      </trkpt>
      <trkpt lat="42.89132" lon="0.50124">
        <ele>1456.1</ele>
        <time>2017-07-13T06:40:16Z</time>
      </trkpt>
      <trkpt lat="42.8913" lon="0.50126">
        <ele>1456.3</ele>
        <time>2017-07-13T06:40:17Z</time>
      </trkpt>
      <trkpt lat="42.89128" lon="0.50129">
        <ele>1456.7</ele>
        <time>2017-07-13T06:40:18Z</time>
      </trkpt>
      <trkpt lat="42.89126" lon="0.50131">
        <ele>1456.9</ele>
        <time>2017-07-13T06:40:19Z</time>
      </trkpt>
      <trkpt lat="42.89124" lon="0.50133">
        <ele>1457.2</ele>
        <time>2017-07-13T06:40:20Z</time>
      </trkpt>
      <trkpt lat="42.89122" lon="0.50136">
        <ele>1457.5</ele>
        <time>2017-07-13T06:40:21Z</time>
      </trkpt>
      <trkpt lat="42.89121" lon="0.50138">
        <ele>1457.8</ele>
        <time>2017-07-13T06:40:22Z</time>
      </trkpt>
      <trkpt lat="42.89119" lon="0.5014">
        <ele>1458.1</ele>
        <time>2017-07-13T06:40:23Z</time>
      </trkpt>
      <trkpt lat="42.89117" lon="0.50142">
        <ele>1458.4</ele>
        <time>2017-07-13T06:40:24Z</time>
      </trkpt>
      <trkpt lat="42.89115" lon="0.50144">
        <ele>1458.7</ele>
        <time>2017-07-13T06:40:25Z</time>
      </trkpt>
      <trkpt lat="42.89114" lon="0.50146">
        <ele>1458.9</ele>
        <time>2017-07-13T06:40:26Z</time>
      </trkpt>
      <trkpt lat="42.89113" lon="0.50147">
        <ele>1459.1</ele>
        <time>2017-07-13T06:40:27Z</time>
      </trkpt>
      <trkpt lat="42.89111" lon="0.50149">
        <ele>1459.3</ele>
        <time>2017-07-13T06:40:28Z</time>
      </trkpt>
      <trkpt lat="42.8911" lon="0.5015">
        <ele>1459.4</ele>
        <time>2017-07-13T06:40:29Z</time>
      </trkpt>
      <trkpt lat="42.89109" lon="0.50151">
        <ele>1459.5</ele>
        <time>2017-07-13T06:40:30Z</time>
      </trkpt>
      <trkpt lat="42.89108" lon="0.50153">
        <ele>1459.6</ele>
        <time>2017-07-13T06:40:31Z</time>
      </trkpt>
      <trkpt lat="42.89107" lon="0.50155">
        <ele>1459.6</ele>
        <time>2017-07-13T06:40:32Z</time>
      </trkpt>
      <trkpt lat="42.89106" lon="0.50157">
        <ele>1459.6</ele>
        <time>2017-07-13T06:40:33Z</time>
      </trkpt>
      <trkpt lat="42.89104" lon="0.50159">
        <ele>1459.5</ele>
        <time>2017-07-13T06:40:34Z</time>
      </trkpt>
      <trkpt lat="42.89103" lon="0.50161">
        <ele>1459.5</ele>
        <time>2017-07-13T06:40:35Z</time>
      </trkpt>
      <trkpt lat="42.89101" lon="0.50163">
        <ele>1459.5</ele>
        <time>2017-07-13T06:40:36Z</time>
      </trkpt>
      <trkpt lat="42.891" lon="0.50166">
        <ele>1459.4</ele>
        <time>2017-07-13T06:40:37Z</time>
      </trkpt>
      <trkpt lat="42.89098" lon="0.50168">
        <ele>1459.7</ele>
        <time>2017-07-13T06:40:38Z</time>
      </trkpt>
      <trkpt lat="42.89097" lon="0.5017">
        <ele>1460.1</ele>
        <time>2017-07-13T06:40:39Z</time>
      </trkpt>
      <trkpt lat="42.89095" lon="0.50172">
        <ele>1460.6</ele>
        <time>2017-07-13T06:40:40Z</time>
      </trkpt>
      <trkpt lat="42.89093" lon="0.50173">
        <ele>1461.1</ele>
        <time>2017-07-13T06:40:41Z</time>
      </trkpt>
      <trkpt lat="42.89092" lon="0.50175">
        <ele>1461.6</ele>
        <time>2017-07-13T06:40:42Z</time>
      </trkpt>
      <trkpt lat="42.8909" lon="0.50177">
        <ele>1462.2</ele>
        <time>2017-07-13T06:40:43Z</time>
      </trkpt>
      <trkpt lat="42.89088" lon="0.50178">
        <ele>1462.7</ele>
        <time>2017-07-13T06:40:44Z</time>
      </trkpt>
      <trkpt lat="42.89087" lon="0.5018">
        <ele>1463.2</ele>
        <time>2017-07-13T06:40:45Z</time>
      </trkpt>
      <trkpt lat="42.89085" lon="0.50182">
        <ele>1463.7</ele>
        <time>2017-07-13T06:40:46Z</time>
      </trkpt>
      <trkpt lat="42.89083" lon="0.50184">
        <ele>1464.2</ele>
        <time>2017-07-13T06:40:47Z</time>
      </trkpt>
      <trkpt lat="42.89082" lon="0.50186">
        <ele>1464.5</ele>
        <time>2017-07-13T06:40:48Z</time>
      </trkpt>
      <trkpt lat="42.8908" lon="0.50188">
        <ele>1465</ele>
        <time>2017-07-13T06:40:49Z</time>
      </trkpt>
      <trkpt lat="42.89078" lon="0.50191">
        <ele>1465.4</ele>
        <time>2017-07-13T06:40:50Z</time>
      </trkpt>
      <trkpt lat="42.89077" lon="0.50193">
        <ele>1465.7</ele>
        <time>2017-07-13T06:40:51Z</time>
      </trkpt>
      <trkpt lat="42.89075" lon="0.50195">
        <ele>1466</ele>
        <time>2017-07-13T06:40:52Z</time>
      </trkpt>
      <trkpt lat="42.89073" lon="0.50198">
        <ele>1466.3</ele>
        <time>2017-07-13T06:40:53Z</time>
      </trkpt>
      <trkpt lat="42.89072" lon="0.502">
        <ele>1466.6</ele>
        <time>2017-07-13T06:40:54Z</time>
      </trkpt>
      <trkpt lat="42.8907" lon="0.50202">
        <ele>1466.9</ele>
        <time>2017-07-13T06:40:55Z</time>
      </trkpt>
      <trkpt lat="42.89069" lon="0.50205">
        <ele>1467</ele>
        <time>2017-07-13T06:40:56Z</time>
      </trkpt>
      <trkpt lat="42.89067" lon="0.50207">
        <ele>1467.3</ele>
        <time>2017-07-13T06:40:57Z</time>
      </trkpt>
      <trkpt lat="42.89066" lon="0.5021">
        <ele>1467.4</ele>
        <time>2017-07-13T06:40:58Z</time>
      </trkpt>
      <trkpt lat="42.89064" lon="0.50213">
        <ele>1467.5</ele>
        <time>2017-07-13T06:40:59Z</time>
      </trkpt>
      <trkpt lat="42.89063" lon="0.50215">
        <ele>1467.7</ele>
        <time>2017-07-13T06:41:00Z</time>
      </trkpt>
      <trkpt lat="42.89061" lon="0.50218">
        <ele>1467.8</ele>
        <time>2017-07-13T06:41:01Z</time>
      </trkpt>
      <trkpt lat="42.8906" lon="0.5022">
        <ele>1467.9</ele>
        <time>2017-07-13T06:41:02Z</time>
      </trkpt>
      <trkpt lat="42.89058" lon="0.50223">
        <ele>1467.9</ele>
        <time>2017-07-13T06:41:03Z</time>
      </trkpt>
      <trkpt lat="42.89057" lon="0.50225">
        <ele>1468</ele>
        <time>2017-07-13T06:41:04Z</time>
      </trkpt>
      <trkpt lat="42.89056" lon="0.50228">
        <ele>1468.1</ele>
        <time>2017-07-13T06:41:05Z</time>
      </trkpt>
      <trkpt lat="42.89054" lon="0.50231">
        <ele>1468.1</ele>
        <time>2017-07-13T06:41:06Z</time>
      </trkpt>
      <trkpt lat="42.89053" lon="0.50233">
        <ele>1468.1</ele>
        <time>2017-07-13T06:41:07Z</time>
      </trkpt>
      <trkpt lat="42.89051" lon="0.50236">
        <ele>1468.2</ele>
        <time>2017-07-13T06:41:08Z</time>
      </trkpt>
      <trkpt lat="42.8905" lon="0.50238">
        <ele>1468.2</ele>
        <time>2017-07-13T06:41:09Z</time>
      </trkpt>
      <trkpt lat="42.89049" lon="0.50241">
        <ele>1468.3</ele>
        <time>2017-07-13T06:41:10Z</time>
      </trkpt>
      <trkpt lat="42.89047" lon="0.50243">
        <ele>1468.4</ele>
        <time>2017-07-13T06:41:11Z</time>
      </trkpt>
      <trkpt lat="42.89046" lon="0.50245">
        <ele>1468.4</ele>
        <time>2017-07-13T06:41:12Z</time>
      </trkpt>
      <trkpt lat="42.89045" lon="0.50248">
        <ele>1468.5</ele>
        <time>2017-07-13T06:41:13Z</time>
      </trkpt>
      <trkpt lat="42.89043" lon="0.5025">
        <ele>1468.6</ele>
        <time>2017-07-13T06:41:14Z</time>
      </trkpt>
      <trkpt lat="42.89042" lon="0.50252">
        <ele>1468.7</ele>
        <time>2017-07-13T06:41:15Z</time>
      </trkpt>
      <trkpt lat="42.89041" lon="0.50255">
        <ele>1468.9</ele>
        <time>2017-07-13T06:41:16Z</time>
      </trkpt>
      <trkpt lat="42.89039" lon="0.50257">
        <ele>1469.1</ele>
        <time>2017-07-13T06:41:17Z</time>
      </trkpt>
      <trkpt lat="42.89038" lon="0.50259">
        <ele>1469.2</ele>
        <time>2017-07-13T06:41:18Z</time>
      </trkpt>
      <trkpt lat="42.89036" lon="0.50262">
        <ele>1469.4</ele>
        <time>2017-07-13T06:41:19Z</time>
      </trkpt>
      <trkpt lat="42.89035" lon="0.50264">
        <ele>1469.5</ele>
        <time>2017-07-13T06:41:20Z</time>
      </trkpt>
      <trkpt lat="42.89033" lon="0.50266">
        <ele>1469.6</ele>
        <time>2017-07-13T06:41:21Z</time>
      </trkpt>
      <trkpt lat="42.89032" lon="0.50269">
        <ele>1469.8</ele>
        <time>2017-07-13T06:41:22Z</time>
      </trkpt>
      <trkpt lat="42.8903" lon="0.50271">
        <ele>1469.9</ele>
        <time>2017-07-13T06:41:23Z</time>
      </trkpt>
      <trkpt lat="42.89029" lon="0.50273">
        <ele>1470</ele>
        <time>2017-07-13T06:41:24Z</time>
      </trkpt>
      <trkpt lat="42.89027" lon="0.50276">
        <ele>1470</ele>
        <time>2017-07-13T06:41:25Z</time>
      </trkpt>
      <trkpt lat="42.89026" lon="0.50278">
        <ele>1470</ele>
        <time>2017-07-13T06:41:26Z</time>
      </trkpt>
      <trkpt lat="42.89024" lon="0.50281">
        <ele>1470.1</ele>
        <time>2017-07-13T06:41:27Z</time>
      </trkpt>
      <trkpt lat="42.89023" lon="0.50283">
        <ele>1470.2</ele>
        <time>2017-07-13T06:41:28Z</time>
      </trkpt>
      <trkpt lat="42.89021" lon="0.50285">
        <ele>1470.2</ele>
        <time>2017-07-13T06:41:29Z</time>
      </trkpt>
      <trkpt lat="42.89019" lon="0.50288">
        <ele>1470.3</ele>
        <time>2017-07-13T06:41:30Z</time>
      </trkpt>
      <trkpt lat="42.89018" lon="0.5029">
        <ele>1470.3</ele>
        <time>2017-07-13T06:41:31Z</time>
      </trkpt>
      <trkpt lat="42.89016" lon="0.50292">
        <ele>1470.4</ele>
        <time>2017-07-13T06:41:32Z</time>
      </trkpt>
      <trkpt lat="42.89014" lon="0.50294">
        <ele>1470.5</ele>
        <time>2017-07-13T06:41:33Z</time>
      </trkpt>
      <trkpt lat="42.89012" lon="0.50297">
        <ele>1470.6</ele>
        <time>2017-07-13T06:41:34Z</time>
      </trkpt>
      <trkpt lat="42.8901" lon="0.50299">
        <ele>1470.7</ele>
        <time>2017-07-13T06:41:35Z</time>
      </trkpt>
      <trkpt lat="42.89009" lon="0.50301">
        <ele>1470.8</ele>
        <time>2017-07-13T06:41:36Z</time>
      </trkpt>
      <trkpt lat="42.89007" lon="0.50302">
        <ele>1471</ele>
        <time>2017-07-13T06:41:37Z</time>
      </trkpt>
      <trkpt lat="42.89004" lon="0.50304">
        <ele>1471.4</ele>
        <time>2017-07-13T06:41:38Z</time>
      </trkpt>
      <trkpt lat="42.89002" lon="0.50305">
        <ele>1472.1</ele>
        <time>2017-07-13T06:41:39Z</time>
      </trkpt>
      <trkpt lat="42.89" lon="0.50305">
        <ele>1472.9</ele>
        <time>2017-07-13T06:41:40Z</time>
      </trkpt>
      <trkpt lat="42.88997" lon="0.50305">
        <ele>1473.2</ele>
        <time>2017-07-13T06:41:41Z</time>
      </trkpt>
      <trkpt lat="42.88995" lon="0.50305">
        <ele>1473.7</ele>
        <time>2017-07-13T06:41:42Z</time>
      </trkpt>
      <trkpt lat="42.88993" lon="0.50304">
        <ele>1474.2</ele>
        <time>2017-07-13T06:41:43Z</time>
      </trkpt>
      <trkpt lat="42.8899" lon="0.50304">
        <ele>1474.7</ele>
        <time>2017-07-13T06:41:44Z</time>
      </trkpt>
      <trkpt lat="42.88988" lon="0.50303">
        <ele>1475.2</ele>
        <time>2017-07-13T06:41:45Z</time>
      </trkpt>
      <trkpt lat="42.88986" lon="0.50303">
        <ele>1475.7</ele>
        <time>2017-07-13T06:41:46Z</time>
      </trkpt>
      <trkpt lat="42.88984" lon="0.50302">
        <ele>1476.2</ele>
        <time>2017-07-13T06:41:47Z</time>
      </trkpt>
      <trkpt lat="42.88982" lon="0.50301">
        <ele>1476.7</ele>
        <time>2017-07-13T06:41:48Z</time>
      </trkpt>
      <trkpt lat="42.88979" lon="0.50301">
        <ele>1477.3</ele>
        <time>2017-07-13T06:41:49Z</time>
      </trkpt>
      <trkpt lat="42.88977" lon="0.503">
        <ele>1477.8</ele>
        <time>2017-07-13T06:41:50Z</time>
      </trkpt>
      <trkpt lat="42.88975" lon="0.503">
        <ele>1478.3</ele>
        <time>2017-07-13T06:41:51Z</time>
      </trkpt>
      <trkpt lat="42.88972" lon="0.503">
        <ele>1478.8</ele>
        <time>2017-07-13T06:41:52Z</time>
      </trkpt>
      <trkpt lat="42.8897" lon="0.50299">
        <ele>1479.2</ele>
        <time>2017-07-13T06:41:53Z</time>
      </trkpt>
      <trkpt lat="42.88968" lon="0.50299">
        <ele>1479.6</ele>
        <time>2017-07-13T06:41:54Z</time>
      </trkpt>
      <trkpt lat="42.88965" lon="0.50299">
        <ele>1480</ele>
        <time>2017-07-13T06:41:55Z</time>
      </trkpt>
      <trkpt lat="42.88963" lon="0.50299">
        <ele>1480.3</ele>
        <time>2017-07-13T06:41:56Z</time>
      </trkpt>
      <trkpt lat="42.88961" lon="0.50299">
        <ele>1480.5</ele>
        <time>2017-07-13T06:41:57Z</time>
      </trkpt>
      <trkpt lat="42.88958" lon="0.50299">
        <ele>1480.8</ele>
        <time>2017-07-13T06:41:58Z</time>
      </trkpt>
      <trkpt lat="42.88956" lon="0.503">
        <ele>1481</ele>
        <time>2017-07-13T06:41:59Z</time>
      </trkpt>
      <trkpt lat="42.88954" lon="0.503">
        <ele>1481.4</ele>
        <time>2017-07-13T06:42:00Z</time>
      </trkpt>
      <trkpt lat="42.88952" lon="0.50299">
        <ele>1481.8</ele>
        <time>2017-07-13T06:42:01Z</time>
      </trkpt>
      <trkpt lat="42.88949" lon="0.50299">
        <ele>1482.3</ele>
        <time>2017-07-13T06:42:02Z</time>
      </trkpt>
      <trkpt lat="42.88947" lon="0.50298">
        <ele>1483</ele>
        <time>2017-07-13T06:42:03Z</time>
      </trkpt>
      <trkpt lat="42.88945" lon="0.50297">
        <ele>1483.6</ele>
        <time>2017-07-13T06:42:04Z</time>
      </trkpt>
      <trkpt lat="42.88943" lon="0.50296">
        <ele>1484.4</ele>
        <time>2017-07-13T06:42:05Z</time>
      </trkpt>
      <trkpt lat="42.88941" lon="0.50295">
        <ele>1485.3</ele>
        <time>2017-07-13T06:42:06Z</time>
      </trkpt>
      <trkpt lat="42.88939" lon="0.50294">
        <ele>1486.1</ele>
        <time>2017-07-13T06:42:07Z</time>
      </trkpt>
      <trkpt lat="42.88937" lon="0.50293">
        <ele>1487</ele>
        <time>2017-07-13T06:42:08Z</time>
      </trkpt>
      <trkpt lat="42.88935" lon="0.50292">
        <ele>1487.8</ele>
        <time>2017-07-13T06:42:09Z</time>
      </trkpt>
      <trkpt lat="42.88933" lon="0.50291">
        <ele>1488.6</ele>
        <time>2017-07-13T06:42:10Z</time>
      </trkpt>
      <trkpt lat="42.88931" lon="0.5029">
        <ele>1489.4</ele>
        <time>2017-07-13T06:42:11Z</time>
      </trkpt>
      <trkpt lat="42.88929" lon="0.50289">
        <ele>1490.3</ele>
        <time>2017-07-13T06:42:12Z</time>
      </trkpt>
      <trkpt lat="42.88927" lon="0.50288">
        <ele>1491</ele>
        <time>2017-07-13T06:42:13Z</time>
      </trkpt>
      <trkpt lat="42.88925" lon="0.50287">
        <ele>1491.7</ele>
        <time>2017-07-13T06:42:14Z</time>
      </trkpt>
      <trkpt lat="42.88923" lon="0.50286">
        <ele>1492.4</ele>
        <time>2017-07-13T06:42:15Z</time>
      </trkpt>
      <trkpt lat="42.88921" lon="0.50285">
        <ele>1493.1</ele>
        <time>2017-07-13T06:42:16Z</time>
      </trkpt>
      <trkpt lat="42.88918" lon="0.50285">
        <ele>1493.8</ele>
        <time>2017-07-13T06:42:17Z</time>
      </trkpt>
      <trkpt lat="42.88916" lon="0.50284">
        <ele>1494.4</ele>
        <time>2017-07-13T06:42:18Z</time>
      </trkpt>
      <trkpt lat="42.88914" lon="0.50284">
        <ele>1495.3</ele>
        <time>2017-07-13T06:42:19Z</time>
      </trkpt>
      <trkpt lat="42.88912" lon="0.50283">
        <ele>1496</ele>
        <time>2017-07-13T06:42:20Z</time>
      </trkpt>
      <trkpt lat="42.8891" lon="0.50283">
        <ele>1496.8</ele>
        <time>2017-07-13T06:42:21Z</time>
      </trkpt>
      <trkpt lat="42.88908" lon="0.50282">
        <ele>1497.6</ele>
        <time>2017-07-13T06:42:22Z</time>
      </trkpt>
      <trkpt lat="42.88906" lon="0.50282">
        <ele>1498.3</ele>
        <time>2017-07-13T06:42:23Z</time>
      </trkpt>
      <trkpt lat="42.88903" lon="0.50282">
        <ele>1499.1</ele>
        <time>2017-07-13T06:42:24Z</time>
      </trkpt>
      <trkpt lat="42.88901" lon="0.50281">
        <ele>1499.9</ele>
        <time>2017-07-13T06:42:25Z</time>
      </trkpt>
      <trkpt lat="42.88899" lon="0.50281">
        <ele>1500.7</ele>
        <time>2017-07-13T06:42:26Z</time>
      </trkpt>
      <trkpt lat="42.88897" lon="0.5028">
        <ele>1501.4</ele>
        <time>2017-07-13T06:42:27Z</time>
      </trkpt>
      <trkpt lat="42.88895" lon="0.5028">
        <ele>1502.2</ele>
        <time>2017-07-13T06:42:28Z</time>
      </trkpt>
      <trkpt lat="42.88893" lon="0.50279">
        <ele>1503</ele>
        <time>2017-07-13T06:42:29Z</time>
      </trkpt>
      <trkpt lat="42.8889" lon="0.50279">
        <ele>1503.9</ele>
        <time>2017-07-13T06:42:30Z</time>
      </trkpt>
      <trkpt lat="42.88888" lon="0.50278">
        <ele>1504.6</ele>
        <time>2017-07-13T06:42:31Z</time>
      </trkpt>
      <trkpt lat="42.88886" lon="0.50278">
        <ele>1505.3</ele>
        <time>2017-07-13T06:42:32Z</time>
      </trkpt>
      <trkpt lat="42.88884" lon="0.50278">
        <ele>1505.9</ele>
        <time>2017-07-13T06:42:33Z</time>
      </trkpt>
      <trkpt lat="42.88882" lon="0.50278">
        <ele>1506.4</ele>
        <time>2017-07-13T06:42:34Z</time>
      </trkpt>
      <trkpt lat="42.8888" lon="0.50278">
        <ele>1506.9</ele>
        <time>2017-07-13T06:42:35Z</time>
      </trkpt>
      <trkpt lat="42.88878" lon="0.50278">
        <ele>1507.3</ele>
        <time>2017-07-13T06:42:36Z</time>
      </trkpt>
      <trkpt lat="42.88876" lon="0.50278">
        <ele>1507.6</ele>
        <time>2017-07-13T06:42:37Z</time>
      </trkpt>
      <trkpt lat="42.88874" lon="0.50279">
        <ele>1507.7</ele>
        <time>2017-07-13T06:42:38Z</time>
      </trkpt>
      <trkpt lat="42.88872" lon="0.5028">
        <ele>1507.7</ele>
        <time>2017-07-13T06:42:39Z</time>
      </trkpt>
      <trkpt lat="42.8887" lon="0.50281">
        <ele>1507.6</ele>
        <time>2017-07-13T06:42:40Z</time>
      </trkpt>
      <trkpt lat="42.88868" lon="0.50282">
        <ele>1507.4</ele>
        <time>2017-07-13T06:42:41Z</time>
      </trkpt>
      <trkpt lat="42.88867" lon="0.50284">
        <ele>1507</ele>
        <time>2017-07-13T06:42:42Z</time>
      </trkpt>
      <trkpt lat="42.88865" lon="0.50286">
        <ele>1506.5</ele>
        <time>2017-07-13T06:42:43Z</time>
      </trkpt>
      <trkpt lat="42.88863" lon="0.50288">
        <ele>1505.9</ele>
        <time>2017-07-13T06:42:44Z</time>
      </trkpt>
      <trkpt lat="42.88861" lon="0.5029">
        <ele>1505.2</ele>
        <time>2017-07-13T06:42:45Z</time>
      </trkpt>
      <trkpt lat="42.8886" lon="0.50292">
        <ele>1504.5</ele>
        <time>2017-07-13T06:42:46Z</time>
      </trkpt>
      <trkpt lat="42.88858" lon="0.50294">
        <ele>1503.6</ele>
        <time>2017-07-13T06:42:47Z</time>
      </trkpt>
      <trkpt lat="42.88857" lon="0.50296">
        <ele>1502.8</ele>
        <time>2017-07-13T06:42:48Z</time>
      </trkpt>
      <trkpt lat="42.88855" lon="0.50299">
        <ele>1501.9</ele>
        <time>2017-07-13T06:42:49Z</time>
      </trkpt>
      <trkpt lat="42.88853" lon="0.50301">
        <ele>1500.9</ele>
        <time>2017-07-13T06:42:50Z</time>
      </trkpt>
      <trkpt lat="42.88852" lon="0.50304">
        <ele>1499.9</ele>
        <time>2017-07-13T06:42:51Z</time>
      </trkpt>
      <trkpt lat="42.88851" lon="0.50306">
        <ele>1499</ele>
        <time>2017-07-13T06:42:52Z</time>
      </trkpt>
      <trkpt lat="42.88849" lon="0.50308">
        <ele>1498.1</ele>
        <time>2017-07-13T06:42:53Z</time>
      </trkpt>
      <trkpt lat="42.88848" lon="0.5031">
        <ele>1497.3</ele>
        <time>2017-07-13T06:42:54Z</time>
      </trkpt>
      <trkpt lat="42.88846" lon="0.50312">
        <ele>1496.7</ele>
        <time>2017-07-13T06:42:55Z</time>
      </trkpt>
      <trkpt lat="42.88844" lon="0.50314">
        <ele>1496.3</ele>
        <time>2017-07-13T06:42:56Z</time>
      </trkpt>
      <trkpt lat="42.88843" lon="0.50315">
        <ele>1496.2</ele>
        <time>2017-07-13T06:42:57Z</time>
      </trkpt>
      <trkpt lat="42.88841" lon="0.50315">
        <ele>1496.2</ele>
        <time>2017-07-13T06:42:58Z</time>
      </trkpt>
      <trkpt lat="42.88839" lon="0.50316">
        <ele>1496.2</ele>
        <time>2017-07-13T06:42:59Z</time>
      </trkpt>
      <trkpt lat="42.88837" lon="0.50317">
        <ele>1496.5</ele>
        <time>2017-07-13T06:43:00Z</time>
      </trkpt>
      <trkpt lat="42.88834" lon="0.50317">
        <ele>1496.7</ele>
        <time>2017-07-13T06:43:01Z</time>
      </trkpt>
      <trkpt lat="42.88832" lon="0.50317">
        <ele>1496.9</ele>
        <time>2017-07-13T06:43:02Z</time>
      </trkpt>
      <trkpt lat="42.8883" lon="0.50318">
        <ele>1497</ele>
        <time>2017-07-13T06:43:03Z</time>
      </trkpt>
      <trkpt lat="42.88828" lon="0.50318">
        <ele>1497.1</ele>
        <time>2017-07-13T06:43:04Z</time>
      </trkpt>
      <trkpt lat="42.88826" lon="0.50318">
        <ele>1497.2</ele>
        <time>2017-07-13T06:43:05Z</time>
      </trkpt>
      <trkpt lat="42.88823" lon="0.50318">
        <ele>1497.4</ele>
        <time>2017-07-13T06:43:06Z</time>
      </trkpt>
      <trkpt lat="42.88821" lon="0.50318">
        <ele>1497.6</ele>
        <time>2017-07-13T06:43:07Z</time>
      </trkpt>
      <trkpt lat="42.88819" lon="0.50317">
        <ele>1497.8</ele>
        <time>2017-07-13T06:43:08Z</time>
      </trkpt>
      <trkpt lat="42.88817" lon="0.50317">
        <ele>1498</ele>
        <time>2017-07-13T06:43:09Z</time>
      </trkpt>
      <trkpt lat="42.88815" lon="0.50317">
        <ele>1498.2</ele>
        <time>2017-07-13T06:43:10Z</time>
      </trkpt>
      <trkpt lat="42.88812" lon="0.50317">
        <ele>1498.3</ele>
        <time>2017-07-13T06:43:11Z</time>
      </trkpt>
      <trkpt lat="42.8881" lon="0.50317">
        <ele>1498.5</ele>
        <time>2017-07-13T06:43:12Z</time>
      </trkpt>
      <trkpt lat="42.88808" lon="0.50317">
        <ele>1498.6</ele>
        <time>2017-07-13T06:43:13Z</time>
      </trkpt>
      <trkpt lat="42.88806" lon="0.50317">
        <ele>1498.7</ele>
        <time>2017-07-13T06:43:14Z</time>
      </trkpt>
      <trkpt lat="42.88803" lon="0.50318">
        <ele>1498.7</ele>
        <time>2017-07-13T06:43:15Z</time>
      </trkpt>
      <trkpt lat="42.88801" lon="0.50318">
        <ele>1498.6</ele>
        <time>2017-07-13T06:43:16Z</time>
      </trkpt>
      <trkpt lat="42.88799" lon="0.50319">
        <ele>1498.5</ele>
        <time>2017-07-13T06:43:17Z</time>
      </trkpt>
      <trkpt lat="42.88797" lon="0.50319">
        <ele>1498.2</ele>
        <time>2017-07-13T06:43:18Z</time>
      </trkpt>
      <trkpt lat="42.88794" lon="0.5032">
        <ele>1498</ele>
        <time>2017-07-13T06:43:19Z</time>
      </trkpt>
      <trkpt lat="42.88792" lon="0.50321">
        <ele>1497.7</ele>
        <time>2017-07-13T06:43:20Z</time>
      </trkpt>
      <trkpt lat="42.8879" lon="0.50322">
        <ele>1497.4</ele>
        <time>2017-07-13T06:43:21Z</time>
      </trkpt>
      <trkpt lat="42.88788" lon="0.50323">
        <ele>1497.1</ele>
        <time>2017-07-13T06:43:22Z</time>
      </trkpt>
      <trkpt lat="42.88785" lon="0.50323">
        <ele>1496.8</ele>
        <time>2017-07-13T06:43:23Z</time>
      </trkpt>
      <trkpt lat="42.88783" lon="0.50324">
        <ele>1496.5</ele>
        <time>2017-07-13T06:43:24Z</time>
      </trkpt>
      <trkpt lat="42.88781" lon="0.50325">
        <ele>1496.3</ele>
        <time>2017-07-13T06:43:25Z</time>
      </trkpt>
      <trkpt lat="42.88779" lon="0.50326">
        <ele>1496.1</ele>
        <time>2017-07-13T06:43:26Z</time>
      </trkpt>
      <trkpt lat="42.88776" lon="0.50326">
        <ele>1496.1</ele>
        <time>2017-07-13T06:43:27Z</time>
      </trkpt>
      <trkpt lat="42.88774" lon="0.50326">
        <ele>1496.2</ele>
        <time>2017-07-13T06:43:28Z</time>
      </trkpt>
      <trkpt lat="42.88772" lon="0.50326">
        <ele>1496.4</ele>
        <time>2017-07-13T06:43:29Z</time>
      </trkpt>
      <trkpt lat="42.8877" lon="0.50326">
        <ele>1496.8</ele>
        <time>2017-07-13T06:43:30Z</time>
      </trkpt>
      <trkpt lat="42.88767" lon="0.50325">
        <ele>1497.2</ele>
        <time>2017-07-13T06:43:31Z</time>
      </trkpt>
      <trkpt lat="42.88765" lon="0.50324">
        <ele>1497.8</ele>
        <time>2017-07-13T06:43:32Z</time>
      </trkpt>
      <trkpt lat="42.88763" lon="0.50323">
        <ele>1498.4</ele>
        <time>2017-07-13T06:43:33Z</time>
      </trkpt>
      <trkpt lat="42.88762" lon="0.50322">
        <ele>1499</ele>
        <time>2017-07-13T06:43:34Z</time>
      </trkpt>
      <trkpt lat="42.8876" lon="0.50322">
        <ele>1499.5</ele>
        <time>2017-07-13T06:43:35Z</time>
      </trkpt>
      <trkpt lat="42.88759" lon="0.50321">
        <ele>1499.8</ele>
        <time>2017-07-13T06:43:36Z</time>
      </trkpt>
      <trkpt lat="42.88757" lon="0.50321">
        <ele>1500.1</ele>
        <time>2017-07-13T06:43:37Z</time>
      </trkpt>
      <trkpt lat="42.88757" lon="0.50321">
        <ele>1500.1</ele>
        <time>2017-07-13T06:43:38Z</time>
      </trkpt>
      <trkpt lat="42.88756" lon="0.50321">
        <ele>1500.1</ele>
        <time>2017-07-13T06:43:39Z</time>
      </trkpt>
      <trkpt lat="42.88756" lon="0.50321">
        <ele>1500</ele>
        <time>2017-07-13T06:43:40Z</time>
      </trkpt>
      <trkpt lat="42.88755" lon="0.50322">
        <ele>1499.9</ele>
        <time>2017-07-13T06:43:41Z</time>
      </trkpt>
      <trkpt lat="42.88755" lon="0.50322">
        <ele>1499.7</ele>
        <time>2017-07-13T06:43:42Z</time>
      </trkpt>
      <trkpt lat="42.88755" lon="0.50322">
        <ele>1499.6</ele>
        <time>2017-07-13T06:43:43Z</time>
      </trkpt>
      <trkpt lat="42.88755" lon="0.50322">
        <ele>1499.5</ele>
        <time>2017-07-13T06:43:44Z</time>
      </trkpt>
      <trkpt lat="42.88755" lon="0.50322">
        <ele>1499.5</ele>
        <time>2017-07-13T06:43:45Z</time>
      </trkpt>
      <trkpt lat="42.88755" lon="0.50323">
        <ele>1499.4</ele>
        <time>2017-07-13T06:43:46Z</time>
      </trkpt>
      <trkpt lat="42.88756" lon="0.50323">
        <ele>1499.2</ele>
        <time>2017-07-13T06:43:47Z</time>
      </trkpt>
      <trkpt lat="42.88756" lon="0.50323">
        <ele>1499.1</ele>
        <time>2017-07-13T06:43:48Z</time>
      </trkpt>
      <trkpt lat="42.88756" lon="0.50323">
        <ele>1499</ele>
        <time>2017-07-13T06:43:49Z</time>
      </trkpt>
      <trkpt lat="42.88756" lon="0.50324">
        <ele>1498.7</ele>
        <time>2017-07-13T06:43:50Z</time>
      </trkpt>
      <trkpt lat="42.88757" lon="0.50324">
        <ele>1498.6</ele>
        <time>2017-07-13T06:43:51Z</time>
      </trkpt>
      <trkpt lat="42.88757" lon="0.50324">
        <ele>1498.3</ele>
        <time>2017-07-13T06:43:52Z</time>
      </trkpt>
      <trkpt lat="42.88758" lon="0.50325">
        <ele>1498</ele>
        <time>2017-07-13T06:43:53Z</time>
      </trkpt>
      <trkpt lat="42.88758" lon="0.50325">
        <ele>1497.8</ele>
        <time>2017-07-13T06:43:54Z</time>
      </trkpt>
      <trkpt lat="42.88758" lon="0.50325">
        <ele>1497.6</ele>
        <time>2017-07-13T06:43:55Z</time>
      </trkpt>
      <trkpt lat="42.88759" lon="0.50326">
        <ele>1497.4</ele>
        <time>2017-07-13T06:43:56Z</time>
      </trkpt>
      <trkpt lat="42.88759" lon="0.50326">
        <ele>1497.2</ele>
        <time>2017-07-13T06:43:57Z</time>
      </trkpt>
      <trkpt lat="42.88759" lon="0.50326">
        <ele>1497.1</ele>
        <time>2017-07-13T06:43:58Z</time>
      </trkpt>
      <trkpt lat="42.88759" lon="0.50326">
        <ele>1497</ele>
        <time>2017-07-13T06:43:59Z</time>
      </trkpt>
      <trkpt lat="42.88759" lon="0.50327">
        <ele>1497</ele>
        <time>2017-07-13T06:44:00Z</time>
      </trkpt>
      <trkpt lat="42.88759" lon="0.50327">
        <ele>1496.9</ele>
        <time>2017-07-13T06:44:01Z</time>
      </trkpt>
      <trkpt lat="42.8876" lon="0.50327">
        <ele>1496.8</ele>
        <time>2017-07-13T06:44:02Z</time>
      </trkpt>
      <trkpt lat="42.8876" lon="0.50327">
        <ele>1496.8</ele>
        <time>2017-07-13T06:44:03Z</time>
      </trkpt>
      <trkpt lat="42.8876" lon="0.50327">
        <ele>1496.8</ele>
        <time>2017-07-13T06:44:04Z</time>
      </trkpt>
      <trkpt lat="42.8876" lon="0.50327">
        <ele>1496.8</ele>
        <time>2017-07-13T06:44:05Z</time>
      </trkpt>
      <trkpt lat="42.8876" lon="0.50327">
        <ele>1496.8</ele>
        <time>2017-07-13T06:44:06Z</time>
      </trkpt>
      <trkpt lat="42.8876" lon="0.50327">
        <ele>1496.8</ele>
        <time>2017-07-13T06:44:07Z</time>
      </trkpt>
      <trkpt lat="42.8876" lon="0.50327">
        <ele>1496.8</ele>
        <time>2017-07-13T06:44:08Z</time>
      </trkpt>
      <trkpt lat="42.8876" lon="0.50327">
        <ele>1496.8</ele>
        <time>2017-07-13T06:44:09Z</time>
      </trkpt>
      <trkpt lat="42.8876" lon="0.50327">
        <ele>1496.8</ele>
        <time>2017-07-13T06:44:10Z</time>
      </trkpt>
      <trkpt lat="42.8876" lon="0.50327">
        <ele>1496.8</ele>
        <time>2017-07-13T06:44:11Z</time>
      </trkpt>
      <trkpt lat="42.8876" lon="0.50327">
        <ele>1496.8</ele>
        <time>2017-07-13T06:44:12Z</time>
      </trkpt>
      <trkpt lat="42.8876" lon="0.50327">
        <ele>1496.8</ele>
        <time>2017-07-13T06:44:13Z</time>
      </trkpt>
      <trkpt lat="42.8876" lon="0.50327">
        <ele>1496.8</ele>
        <time>2017-07-13T06:44:14Z</time>
      </trkpt>
      <trkpt lat="42.8876" lon="0.50327">
        <ele>1496.8</ele>
        <time>2017-07-13T06:44:15Z</time>
      </trkpt>
      <trkpt lat="42.8876" lon="0.50327">
        <ele>1496.8</ele>
        <time>2017-07-13T06:44:16Z</time>
      </trkpt>
      <trkpt lat="42.8876" lon="0.50327">
        <ele>1496.8</ele>
        <time>2017-07-13T06:44:17Z</time>
      </trkpt>
      <trkpt lat="42.8876" lon="0.50327">
        <ele>1496.8</ele>
        <time>2017-07-13T06:44:18Z</time>
      </trkpt>
      <trkpt lat="42.8876" lon="0.50327">
        <ele>1496.8</ele>
        <time>2017-07-13T06:44:19Z</time>
      </trkpt>
      <trkpt lat="42.8876" lon="0.50327">
        <ele>1496.8</ele>
        <time>2017-07-13T06:44:20Z</time>
      </trkpt>
      <trkpt lat="42.8876" lon="0.50327">
        <ele>1496.8</ele>
        <time>2017-07-13T06:44:21Z</time>
      </trkpt>
      <trkpt lat="42.8876" lon="0.50327">
        <ele>1496.8</ele>
        <time>2017-07-13T06:44:22Z</time>
      </trkpt>
      <trkpt lat="42.8876" lon="0.50327">
        <ele>1496.8</ele>
        <time>2017-07-13T06:44:23Z</time>
      </trkpt>
      <trkpt lat="42.8876" lon="0.50327">
        <ele>1496.8</ele>
        <time>2017-07-13T06:44:24Z</time>
      </trkpt>
      <trkpt lat="42.8876" lon="0.50327">
        <ele>1496.8</ele>
        <time>2017-07-13T06:44:25Z</time>
      </trkpt>
      <trkpt lat="42.8876" lon="0.50327">
        <ele>1496.8</ele>
        <time>2017-07-13T06:44:26Z</time>
      </trkpt>
      <trkpt lat="42.8876" lon="0.50327">
        <ele>1496.8</ele>
        <time>2017-07-13T06:44:27Z</time>
      </trkpt>
      <trkpt lat="42.8876" lon="0.50327">
        <ele>1496.8</ele>
        <time>2017-07-13T06:44:28Z</time>
      </trkpt>
      <trkpt lat="42.8876" lon="0.50327">
        <ele>1496.8</ele>
        <time>2017-07-13T06:44:29Z</time>
      </trkpt>
      <trkpt lat="42.8876" lon="0.50327">
        <ele>1496.8</ele>
        <time>2017-07-13T06:44:30Z</time>
      </trkpt>
      <trkpt lat="42.8876" lon="0.50327">
        <ele>1496.8</ele>
        <time>2017-07-13T06:44:31Z</time>
      </trkpt>
      <trkpt lat="42.8876" lon="0.50327">
        <ele>1496.8</ele>
        <time>2017-07-13T06:44:32Z</time>
      </trkpt>
      <trkpt lat="42.8876" lon="0.50327">
        <ele>1496.8</ele>
        <time>2017-07-13T06:44:33Z</time>
      </trkpt>
      <trkpt lat="42.8876" lon="0.50327">
        <ele>1496.8</ele>
        <time>2017-07-13T06:44:34Z</time>
      </trkpt>
      <trkpt lat="42.8876" lon="0.50327">
        <ele>1496.8</ele>
        <time>2017-07-13T06:44:35Z</time>
      </trkpt>
      <trkpt lat="42.8876" lon="0.50327">
        <ele>1496.8</ele>
        <time>2017-07-13T06:44:36Z</time>
      </trkpt>
      <trkpt lat="42.8876" lon="0.50327">
        <ele>1496.8</ele>
        <time>2017-07-13T06:44:37Z</time>
      </trkpt>
      <trkpt lat="42.8876" lon="0.50327">
        <ele>1496.8</ele>
        <time>2017-07-13T06:44:38Z</time>
      </trkpt>
      <trkpt lat="42.8876" lon="0.50327">
        <ele>1496.8</ele>
        <time>2017-07-13T06:44:39Z</time>
      </trkpt>
      <trkpt lat="42.8876" lon="0.50327">
        <ele>1496.8</ele>
        <time>2017-07-13T06:44:40Z</time>
      </trkpt>
      <trkpt lat="42.8876" lon="0.50327">
        <ele>1496.8</ele>
        <time>2017-07-13T06:44:41Z</time>
      </trkpt>
      <trkpt lat="42.8876" lon="0.50327">
        <ele>1496.8</ele>
        <time>2017-07-13T06:44:42Z</time>
      </trkpt>
      <trkpt lat="42.8876" lon="0.50327">
        <ele>1496.8</ele>
        <time>2017-07-13T06:44:43Z</time>
      </trkpt>
      <trkpt lat="42.8876" lon="0.50327">
        <ele>1496.8</ele>
        <time>2017-07-13T06:44:44Z</time>
      </trkpt>
      <trkpt lat="42.8876" lon="0.50327">
        <ele>1496.8</ele>
        <time>2017-07-13T06:44:45Z</time>
      </trkpt>
      <trkpt lat="42.8876" lon="0.50327">
        <ele>1496.8</ele>
        <time>2017-07-13T06:44:46Z</time>
      </trkpt>
      <trkpt lat="42.8876" lon="0.50327">
        <ele>1496.8</ele>
        <time>2017-07-13T06:44:47Z</time>
      </trkpt>
      <trkpt lat="42.8876" lon="0.50327">
        <ele>1496.8</ele>
        <time>2017-07-13T06:44:48Z</time>
      </trkpt>
      <trkpt lat="42.8876" lon="0.50327">
        <ele>1496.8</ele>
        <time>2017-07-13T06:44:49Z</time>
      </trkpt>
      <trkpt lat="42.8876" lon="0.50327">
        <ele>1496.8</ele>
        <time>2017-07-13T06:44:50Z</time>
      </trkpt>
      <trkpt lat="42.8876" lon="0.50327">
        <ele>1496.8</ele>
        <time>2017-07-13T06:44:51Z</time>
      </trkpt>
      <trkpt lat="42.8876" lon="0.50327">
        <ele>1496.8</ele>
        <time>2017-07-13T06:44:52Z</time>
      </trkpt>
      <trkpt lat="42.8876" lon="0.50327">
        <ele>1496.8</ele>
        <time>2017-07-13T06:44:53Z</time>
      </trkpt>
      <trkpt lat="42.8876" lon="0.50327">
        <ele>1496.8</ele>
        <time>2017-07-13T06:44:54Z</time>
      </trkpt>
      <trkpt lat="42.8876" lon="0.50327">
        <ele>1496.8</ele>
        <time>2017-07-13T06:44:55Z</time>
      </trkpt>
      <trkpt lat="42.8876" lon="0.50327">
        <ele>1496.8</ele>
        <time>2017-07-13T06:44:56Z</time>
      </trkpt>
      <trkpt lat="42.8876" lon="0.50327">
        <ele>1496.8</ele>
        <time>2017-07-13T06:44:57Z</time>
      </trkpt>
      <trkpt lat="42.8876" lon="0.50327">
        <ele>1496.8</ele>
        <time>2017-07-13T06:44:58Z</time>
      </trkpt>
      <trkpt lat="42.8876" lon="0.50327">
        <ele>1496.8</ele>
        <time>2017-07-13T06:44:59Z</time>
      </trkpt>
      <trkpt lat="42.8876" lon="0.50327">
        <ele>1496.8</ele>
        <time>2017-07-13T06:45:00Z</time>
      </trkpt>
      <trkpt lat="42.8876" lon="0.50327">
        <ele>1496.8</ele>
        <time>2017-07-13T06:45:01Z</time>
      </trkpt>
      <trkpt lat="42.8876" lon="0.50327">
        <ele>1496.8</ele>
        <time>2017-07-13T06:45:02Z</time>
      </trkpt>
      <trkpt lat="42.8876" lon="0.50327">
        <ele>1496.8</ele>
        <time>2017-07-13T06:45:03Z</time>
      </trkpt>
      <trkpt lat="42.8876" lon="0.50327">
        <ele>1496.8</ele>
        <time>2017-07-13T06:45:04Z</time>
      </trkpt>
      <trkpt lat="42.8876" lon="0.50327">
        <ele>1496.8</ele>
        <time>2017-07-13T06:45:05Z</time>
      </trkpt>
      <trkpt lat="42.8876" lon="0.50327">
        <ele>1496.8</ele>
        <time>2017-07-13T06:45:06Z</time>
      </trkpt>
      <trkpt lat="42.8876" lon="0.50327">
        <ele>1496.8</ele>
        <time>2017-07-13T06:45:07Z</time>
      </trkpt>
      <trkpt lat="42.8876" lon="0.50327">
        <ele>1496.8</ele>
        <time>2017-07-13T06:45:08Z</time>
      </trkpt>
      <trkpt lat="42.8876" lon="0.50327">
        <ele>1496.8</ele>
        <time>2017-07-13T06:45:09Z</time>
      </trkpt>
      <trkpt lat="42.8876" lon="0.50327">
        <ele>1496.8</ele>
        <time>2017-07-13T06:45:10Z</time>
      </trkpt>
      <trkpt lat="42.8876" lon="0.50327">
        <ele>1496.8</ele>
        <time>2017-07-13T06:45:11Z</time>
      </trkpt>
      <trkpt lat="42.8876" lon="0.50327">
        <ele>1496.8</ele>
        <time>2017-07-13T06:45:12Z</time>
      </trkpt>
      <trkpt lat="42.8876" lon="0.50327">
        <ele>1496.8</ele>
        <time>2017-07-13T06:45:13Z</time>
      </trkpt>
      <trkpt lat="42.8876" lon="0.50327">
        <ele>1496.8</ele>
        <time>2017-07-13T06:45:14Z</time>
      </trkpt>
      <trkpt lat="42.8876" lon="0.50327">
        <ele>1496.8</ele>
        <time>2017-07-13T06:45:15Z</time>
      </trkpt>
      <trkpt lat="42.8876" lon="0.50327">
        <ele>1496.8</ele>
        <time>2017-07-13T06:45:16Z</time>
      </trkpt>
      <trkpt lat="42.8876" lon="0.50327">
        <ele>1496.8</ele>
        <time>2017-07-13T06:45:17Z</time>
      </trkpt>
      <trkpt lat="42.8876" lon="0.50327">
        <ele>1496.8</ele>
        <time>2017-07-13T06:45:18Z</time>
      </trkpt>
      <trkpt lat="42.8876" lon="0.50327">
        <ele>1496.8</ele>
        <time>2017-07-13T06:45:19Z</time>
      </trkpt>
      <trkpt lat="42.8876" lon="0.50327">
        <ele>1496.8</ele>
        <time>2017-07-13T06:45:20Z</time>
      </trkpt>
      <trkpt lat="42.8876" lon="0.50327">
        <ele>1496.8</ele>
        <time>2017-07-13T06:45:21Z</time>
      </trkpt>
      <trkpt lat="42.8876" lon="0.50327">
        <ele>1496.8</ele>
        <time>2017-07-13T06:45:22Z</time>
      </trkpt>
      <trkpt lat="42.8876" lon="0.50327">
        <ele>1496.8</ele>
        <time>2017-07-13T06:45:23Z</time>
      </trkpt>
      <trkpt lat="42.8876" lon="0.50327">
        <ele>1496.8</ele>
        <time>2017-07-13T06:45:24Z</time>
      </trkpt>
      <trkpt lat="42.8876" lon="0.50327">
        <ele>1496.8</ele>
        <time>2017-07-13T06:45:25Z</time>
      </trkpt>
      <trkpt lat="42.8876" lon="0.50327">
        <ele>1496.8</ele>
        <time>2017-07-13T06:45:26Z</time>
      </trkpt>
      <trkpt lat="42.8876" lon="0.50327">
        <ele>1496.8</ele>
        <time>2017-07-13T06:45:27Z</time>
      </trkpt>
      <trkpt lat="42.8876" lon="0.50327">
        <ele>1496.8</ele>
        <time>2017-07-13T06:45:28Z</time>
      </trkpt>
      <trkpt lat="42.8876" lon="0.50327">
        <ele>1496.8</ele>
        <time>2017-07-13T06:45:29Z</time>
      </trkpt>
      <trkpt lat="42.8876" lon="0.50327">
        <ele>1496.8</ele>
        <time>2017-07-13T06:45:30Z</time>
      </trkpt>
      <trkpt lat="42.8876" lon="0.50327">
        <ele>1496.8</ele>
        <time>2017-07-13T06:45:31Z</time>
      </trkpt>
      <trkpt lat="42.8876" lon="0.50327">
        <ele>1496.8</ele>
        <time>2017-07-13T06:45:32Z</time>
      </trkpt>
      <trkpt lat="42.8876" lon="0.50327">
        <ele>1496.8</ele>
        <time>2017-07-13T06:45:33Z</time>
      </trkpt>
      <trkpt lat="42.8876" lon="0.50327">
        <ele>1496.8</ele>
        <time>2017-07-13T06:45:34Z</time>
      </trkpt>
      <trkpt lat="42.8876" lon="0.50327">
        <ele>1496.8</ele>
        <time>2017-07-13T06:45:35Z</time>
      </trkpt>
      <trkpt lat="42.8876" lon="0.50327">
        <ele>1496.8</ele>
        <time>2017-07-13T06:45:36Z</time>
      </trkpt>
      <trkpt lat="42.8876" lon="0.50327">
        <ele>1496.8</ele>
        <time>2017-07-13T06:45:37Z</time>
      </trkpt>
      <trkpt lat="42.8876" lon="0.50327">
        <ele>1496.8</ele>
        <time>2017-07-13T06:45:38Z</time>
      </trkpt>
      <trkpt lat="42.8876" lon="0.50327">
        <ele>1496.8</ele>
        <time>2017-07-13T06:45:39Z</time>
      </trkpt>
      <trkpt lat="42.8876" lon="0.50327">
        <ele>1496.8</ele>
        <time>2017-07-13T06:45:40Z</time>
      </trkpt>
      <trkpt lat="42.8876" lon="0.50327">
        <ele>1496.8</ele>
        <time>2017-07-13T06:45:41Z</time>
      </trkpt>
      <trkpt lat="42.8876" lon="0.50327">
        <ele>1496.8</ele>
        <time>2017-07-13T06:45:42Z</time>
      </trkpt>
      <trkpt lat="42.8876" lon="0.50327">
        <ele>1496.8</ele>
        <time>2017-07-13T06:45:43Z</time>
      </trkpt>
      <trkpt lat="42.8876" lon="0.50327">
        <ele>1496.8</ele>
        <time>2017-07-13T06:45:44Z</time>
      </trkpt>
      <trkpt lat="42.8876" lon="0.50327">
        <ele>1496.8</ele>
        <time>2017-07-13T06:45:45Z</time>
      </trkpt>
      <trkpt lat="42.8876" lon="0.50327">
        <ele>1496.8</ele>
        <time>2017-07-13T06:45:46Z</time>
      </trkpt>
      <trkpt lat="42.8876" lon="0.50327">
        <ele>1496.8</ele>
        <time>2017-07-13T06:45:47Z</time>
      </trkpt>
      <trkpt lat="42.8876" lon="0.50327">
        <ele>1496.8</ele>
        <time>2017-07-13T06:45:48Z</time>
      </trkpt>
      <trkpt lat="42.8876" lon="0.50327">
        <ele>1496.8</ele>
        <time>2017-07-13T06:45:49Z</time>
      </trkpt>
      <trkpt lat="42.8876" lon="0.50327">
        <ele>1496.8</ele>
        <time>2017-07-13T06:45:50Z</time>
      </trkpt>
      <trkpt lat="42.8876" lon="0.50327">
        <ele>1496.8</ele>
        <time>2017-07-13T06:45:51Z</time>
      </trkpt>
      <trkpt lat="42.8876" lon="0.50327">
        <ele>1496.8</ele>
        <time>2017-07-13T06:45:52Z</time>
      </trkpt>
      <trkpt lat="42.8876" lon="0.50327">
        <ele>1496.8</ele>
        <time>2017-07-13T06:45:53Z</time>
      </trkpt>
      <trkpt lat="42.8876" lon="0.50327">
        <ele>1496.8</ele>
        <time>2017-07-13T06:45:54Z</time>
      </trkpt>
      <trkpt lat="42.8876" lon="0.50327">
        <ele>1496.8</ele>
        <time>2017-07-13T06:45:55Z</time>
      </trkpt>
      <trkpt lat="42.8876" lon="0.50327">
        <ele>1496.8</ele>
        <time>2017-07-13T06:45:56Z</time>
      </trkpt>
      <trkpt lat="42.8876" lon="0.50327">
        <ele>1496.8</ele>
        <time>2017-07-13T06:45:57Z</time>
      </trkpt>
      <trkpt lat="42.8876" lon="0.50327">
        <ele>1496.8</ele>
        <time>2017-07-13T06:45:58Z</time>
      </trkpt>
      <trkpt lat="42.8876" lon="0.50327">
        <ele>1496.8</ele>
        <time>2017-07-13T06:45:59Z</time>
      </trkpt>
      <trkpt lat="42.8876" lon="0.50327">
        <ele>1496.8</ele>
        <time>2017-07-13T06:46:00Z</time>
      </trkpt>
      <trkpt lat="42.8876" lon="0.50327">
        <ele>1496.8</ele>
        <time>2017-07-13T06:46:01Z</time>
      </trkpt>
      <trkpt lat="42.8876" lon="0.50327">
        <ele>1496.8</ele>
        <time>2017-07-13T06:46:02Z</time>
      </trkpt>
      <trkpt lat="42.8876" lon="0.50327">
        <ele>1496.8</ele>
        <time>2017-07-13T06:46:03Z</time>
      </trkpt>
      <trkpt lat="42.8876" lon="0.50327">
        <ele>1496.8</ele>
        <time>2017-07-13T06:46:04Z</time>
      </trkpt>
      <trkpt lat="42.8876" lon="0.50327">
        <ele>1496.8</ele>
        <time>2017-07-13T06:46:05Z</time>
      </trkpt>
      <trkpt lat="42.8876" lon="0.50327">
        <ele>1496.8</ele>
        <time>2017-07-13T06:46:06Z</time>
      </trkpt>
      <trkpt lat="42.8876" lon="0.50327">
        <ele>1496.8</ele>
        <time>2017-07-13T06:46:07Z</time>
      </trkpt>
      <trkpt lat="42.8876" lon="0.50327">
        <ele>1496.8</ele>
        <time>2017-07-13T06:46:08Z</time>
      </trkpt>
      <trkpt lat="42.8876" lon="0.50327">
        <ele>1496.8</ele>
        <time>2017-07-13T06:46:09Z</time>
      </trkpt>
      <trkpt lat="42.8876" lon="0.50327">
        <ele>1496.8</ele>
        <time>2017-07-13T06:46:10Z</time>
      </trkpt>
      <trkpt lat="42.8876" lon="0.50327">
        <ele>1496.8</ele>
        <time>2017-07-13T06:46:11Z</time>
      </trkpt>
      <trkpt lat="42.8876" lon="0.50327">
        <ele>1496.8</ele>
        <time>2017-07-13T06:46:12Z</time>
      </trkpt>
      <trkpt lat="42.8876" lon="0.50327">
        <ele>1496.8</ele>
        <time>2017-07-13T06:46:13Z</time>
      </trkpt>
      <trkpt lat="42.8876" lon="0.50327">
        <ele>1496.8</ele>
        <time>2017-07-13T06:46:14Z</time>
      </trkpt>
      <trkpt lat="42.8876" lon="0.50327">
        <ele>1496.8</ele>
        <time>2017-07-13T06:46:15Z</time>
      </trkpt>
      <trkpt lat="42.8876" lon="0.50327">
        <ele>1496.8</ele>
        <time>2017-07-13T06:46:16Z</time>
      </trkpt>
      <trkpt lat="42.8876" lon="0.50327">
        <ele>1496.8</ele>
        <time>2017-07-13T06:46:17Z</time>
      </trkpt>
      <trkpt lat="42.8876" lon="0.50327">
        <ele>1496.8</ele>
        <time>2017-07-13T06:46:18Z</time>
      </trkpt>
      <trkpt lat="42.8876" lon="0.50327">
        <ele>1496.8</ele>
        <time>2017-07-13T06:46:19Z</time>
      </trkpt>
      <trkpt lat="42.8876" lon="0.50327">
        <ele>1496.8</ele>
        <time>2017-07-13T06:46:20Z</time>
      </trkpt>
      <trkpt lat="42.8876" lon="0.50327">
        <ele>1496.8</ele>
        <time>2017-07-13T06:46:21Z</time>
      </trkpt>
      <trkpt lat="42.8876" lon="0.50327">
        <ele>1496.8</ele>
        <time>2017-07-13T06:46:22Z</time>
      </trkpt>
      <trkpt lat="42.8876" lon="0.50327">
        <ele>1496.8</ele>
        <time>2017-07-13T06:46:23Z</time>
      </trkpt>
      <trkpt lat="42.8876" lon="0.50327">
        <ele>1496.8</ele>
        <time>2017-07-13T06:46:24Z</time>
      </trkpt>
      <trkpt lat="42.8876" lon="0.50327">
        <ele>1496.8</ele>
        <time>2017-07-13T06:46:25Z</time>
      </trkpt>
      <trkpt lat="42.8876" lon="0.50327">
        <ele>1496.8</ele>
        <time>2017-07-13T06:46:26Z</time>
      </trkpt>
      <trkpt lat="42.8876" lon="0.50327">
        <ele>1496.8</ele>
        <time>2017-07-13T06:46:27Z</time>
      </trkpt>
      <trkpt lat="42.8876" lon="0.50327">
        <ele>1496.8</ele>
        <time>2017-07-13T06:46:28Z</time>
      </trkpt>
      <trkpt lat="42.8876" lon="0.50327">
        <ele>1496.8</ele>
        <time>2017-07-13T06:46:29Z</time>
      </trkpt>
      <trkpt lat="42.8876" lon="0.50327">
        <ele>1496.8</ele>
        <time>2017-07-13T06:46:30Z</time>
      </trkpt>
      <trkpt lat="42.8876" lon="0.50327">
        <ele>1496.8</ele>
        <time>2017-07-13T06:46:31Z</time>
      </trkpt>
      <trkpt lat="42.8876" lon="0.50327">
        <ele>1496.8</ele>
        <time>2017-07-13T06:46:32Z</time>
      </trkpt>
      <trkpt lat="42.8876" lon="0.50327">
        <ele>1496.8</ele>
        <time>2017-07-13T06:46:33Z</time>
      </trkpt>
      <trkpt lat="42.8876" lon="0.50327">
        <ele>1496.8</ele>
        <time>2017-07-13T06:46:34Z</time>
      </trkpt>
      <trkpt lat="42.8876" lon="0.50327">
        <ele>1496.8</ele>
        <time>2017-07-13T06:46:35Z</time>
      </trkpt>
      <trkpt lat="42.8876" lon="0.50327">
        <ele>1496.8</ele>
        <time>2017-07-13T06:46:36Z</time>
      </trkpt>
      <trkpt lat="42.8876" lon="0.50327">
        <ele>1496.8</ele>
        <time>2017-07-13T06:46:37Z</time>
      </trkpt>
      <trkpt lat="42.8876" lon="0.50327">
        <ele>1496.8</ele>
        <time>2017-07-13T06:46:38Z</time>
      </trkpt>
    </trkseg>
  </trk>
</gpx>